<?xml version='1.0' encoding='UTF-8'?><gpx version="1.1" creator="JPX - https://github.com/jenetics/jpx" xmlns="http://www.topografix.com/GPX/1/1"><trk><trkseg><trkpt lat="43.0445283" lon="13.341935"><ele>385.0</ele><time>2026-04-17T12:54:47.254Z</time></trkpt><trkpt lat="43.04458" lon="13.3417817"><ele>385.0</ele><time>2026-04-17T12:54:49.254Z</time></trkpt><trkpt lat="43.0446017" lon="13.3416883"><ele>385.0</ele><time>2026-04-17T12:54:50.254Z</time></trkpt><trkpt lat="43.0446267" lon="13.3416017"><ele>385.0</ele><time>2026-04-17T12:54:52.254Z</time></trkpt><trkpt lat="43.0446517" lon="13.3414667"><ele>385.0</ele><time>2026-04-17T12:55:03.254Z</time></trkpt><trkpt lat="43.044655" lon="13.34134"><ele>385.4</ele><time>2026-04-17T12:55:04.254Z</time></trkpt><trkpt lat="43.04466" lon="13.3411983"><ele>385.8</ele><time>2026-04-17T12:55:05.254Z</time></trkpt><trkpt lat="43.0446633" lon="13.341045"><ele>386.20000000000005</ele><time>2026-04-17T12:55:06.254Z</time></trkpt><trkpt lat="43.044675" lon="13.3409083"><ele>386.6</ele><time>2026-04-17T12:55:07.254Z</time></trkpt><trkpt lat="43.0446983" lon="13.340765"><ele>387.0</ele><time>2026-04-17T12:55:08.254Z</time></trkpt><trkpt lat="43.0447417" lon="13.34062"><ele>386.75</ele><time>2026-04-17T12:55:09.254Z</time></trkpt><trkpt lat="43.0448" lon="13.3404733"><ele>386.5</ele><time>2026-04-17T12:55:10.254Z</time></trkpt><trkpt lat="43.0448833" lon="13.3403317"><ele>386.25</ele><time>2026-04-17T12:55:11.254Z</time></trkpt><trkpt lat="43.0449617" lon="13.3401867"><ele>386.0</ele><time>2026-04-17T12:55:12.254Z</time></trkpt><trkpt lat="43.0450183" lon="13.3400483"><ele>386.0</ele><time>2026-04-17T12:55:13.254Z</time></trkpt><trkpt lat="43.0450483" lon="13.339915"><ele>386.0</ele><time>2026-04-17T12:55:14.254Z</time></trkpt><trkpt lat="43.0450517" lon="13.33977"><ele>386.0</ele><time>2026-04-17T12:55:15.254Z</time></trkpt><trkpt lat="43.0450333" lon="13.33962"><ele>386.0</ele><time>2026-04-17T12:55:16.254Z</time></trkpt><trkpt lat="43.04499" lon="13.3394583"><ele>386.0</ele><time>2026-04-17T12:55:17.254Z</time></trkpt><trkpt lat="43.044935" lon="13.339305"><ele>390.75</ele><time>2026-04-17T12:55:18.254Z</time></trkpt><trkpt lat="43.04487" lon="13.339175"><ele>395.5</ele><time>2026-04-17T12:55:19.254Z</time></trkpt><trkpt lat="43.0447883" lon="13.3390767"><ele>400.25</ele><time>2026-04-17T12:55:20.254Z</time></trkpt><trkpt lat="43.0446683" lon="13.3390167"><ele>405.0</ele><time>2026-04-17T12:55:21.254Z</time></trkpt><trkpt lat="43.0445317" lon="13.338975"><ele>405.0</ele><time>2026-04-17T12:55:22.254Z</time></trkpt><trkpt lat="43.0443867" lon="13.33894"><ele>405.0</ele><time>2026-04-17T12:55:23.254Z</time></trkpt><trkpt lat="43.0442467" lon="13.3388883"><ele>405.0</ele><time>2026-04-17T12:55:24.254Z</time></trkpt><trkpt lat="43.0441267" lon="13.338805"><ele>405.0</ele><time>2026-04-17T12:55:25.254Z</time></trkpt><trkpt lat="43.0440067" lon="13.3386583"><ele>410.0</ele><time>2026-04-17T12:55:26.254Z</time></trkpt><trkpt lat="43.0438717" lon="13.3384933"><ele>415.0</ele><time>2026-04-17T12:55:27.254Z</time></trkpt><trkpt lat="43.0437483" lon="13.3383433"><ele>420.0</ele><time>2026-04-17T12:55:28.254Z</time></trkpt><trkpt lat="43.04364" lon="13.3382067"><ele>420.0</ele><time>2026-04-17T12:55:29.254Z</time></trkpt><trkpt lat="43.0435633" lon="13.33808"><ele>420.0</ele><time>2026-04-17T12:55:30.254Z</time></trkpt><trkpt lat="43.0435" lon="13.3379433"><ele>420.0</ele><time>2026-04-17T12:55:31.254Z</time></trkpt><trkpt lat="43.0434433" lon="13.337785"><ele>420.0</ele><time>2026-04-17T12:55:32.254Z</time></trkpt><trkpt lat="43.04341" lon="13.3376267"><ele>419.0</ele><time>2026-04-17T12:55:33.254Z</time></trkpt><trkpt lat="43.0433933" lon="13.337475"><ele>418.0</ele><time>2026-04-17T12:55:34.254Z</time></trkpt><trkpt lat="43.0433783" lon="13.33735"><ele>417.0</ele><time>2026-04-17T12:55:35.254Z</time></trkpt><trkpt lat="43.0433517" lon="13.3372583"><ele>416.0</ele><time>2026-04-17T12:55:36.254Z</time></trkpt><trkpt lat="43.043265" lon="13.3371683"><ele>415.0</ele><time>2026-04-17T12:55:38.254Z</time></trkpt><trkpt lat="43.0431983" lon="13.3371917"><ele>417.6666666666667</ele><time>2026-04-17T12:55:39.254Z</time></trkpt><trkpt lat="43.0431233" lon="13.3372467"><ele>420.33333333333337</ele><time>2026-04-17T12:55:40.254Z</time></trkpt><trkpt lat="43.04306" lon="13.3373117"><ele>423.0</ele><time>2026-04-17T12:55:41.254Z</time></trkpt><trkpt lat="43.0430033" lon="13.33739"><ele>425.66666666666663</ele><time>2026-04-17T12:55:42.254Z</time></trkpt><trkpt lat="43.042975" lon="13.3374767"><ele>428.3333333333333</ele><time>2026-04-17T12:55:43.254Z</time></trkpt><trkpt lat="43.0429633" lon="13.337585"><ele>431.0</ele><time>2026-04-17T12:55:44.254Z</time></trkpt><trkpt lat="43.0429717" lon="13.3377033"><ele>431.0</ele><time>2026-04-17T12:55:45.254Z</time></trkpt><trkpt lat="43.043005" lon="13.337845"><ele>431.0</ele><time>2026-04-17T12:55:46.254Z</time></trkpt><trkpt lat="43.04304" lon="13.3379867"><ele>431.0</ele><time>2026-04-17T12:55:47.254Z</time></trkpt><trkpt lat="43.0430567" lon="13.33812"><ele>431.0</ele><time>2026-04-17T12:55:48.254Z</time></trkpt><trkpt lat="43.0430617" lon="13.3382333"><ele>431.0</ele><time>2026-04-17T12:55:49.253Z</time></trkpt><trkpt lat="43.0430567" lon="13.3383267"><ele>430.6</ele><time>2026-04-17T12:55:50.254Z</time></trkpt><trkpt lat="43.04297" lon="13.3384433"><ele>430.20000000000005</ele><time>2026-04-17T12:55:52.254Z</time></trkpt><trkpt lat="43.0429033" lon="13.33845"><ele>429.79999999999995</ele><time>2026-04-17T12:55:53.254Z</time></trkpt><trkpt lat="43.0428267" lon="13.3384383"><ele>429.4</ele><time>2026-04-17T12:55:54.254Z</time></trkpt><trkpt lat="43.0427383" lon="13.33839"><ele>429.0</ele><time>2026-04-17T12:55:55.254Z</time></trkpt><trkpt lat="43.0426417" lon="13.3383033"><ele>429.0</ele><time>2026-04-17T12:55:56.254Z</time></trkpt><trkpt lat="43.04255" lon="13.3381933"><ele>429.0</ele><time>2026-04-17T12:55:57.254Z</time></trkpt><trkpt lat="43.0424783" lon="13.3380867"><ele>429.0</ele><time>2026-04-17T12:55:58.254Z</time></trkpt><trkpt lat="43.04243" lon="13.3379933"><ele>429.0</ele><time>2026-04-17T12:55:59.254Z</time></trkpt><trkpt lat="43.0423783" lon="13.337925"><ele>429.0</ele><time>2026-04-17T12:56:00.254Z</time></trkpt><trkpt lat="43.0423083" lon="13.3378917"><ele>431.25</ele><time>2026-04-17T12:56:01.254Z</time></trkpt><trkpt lat="43.0422217" lon="13.3378983"><ele>433.5</ele><time>2026-04-17T12:56:02.254Z</time></trkpt><trkpt lat="43.04212" lon="13.3379367"><ele>435.75</ele><time>2026-04-17T12:56:03.254Z</time></trkpt><trkpt lat="43.0419983" lon="13.3380067"><ele>438.0</ele><time>2026-04-17T12:56:04.254Z</time></trkpt><trkpt lat="43.0418683" lon="13.3380683"><ele>438.0</ele><time>2026-04-17T12:56:05.254Z</time></trkpt><trkpt lat="43.04175" lon="13.338125"><ele>438.0</ele><time>2026-04-17T12:56:06.254Z</time></trkpt><trkpt lat="43.041645" lon="13.3382017"><ele>438.0</ele><time>2026-04-17T12:56:07.254Z</time></trkpt><trkpt lat="43.04155" lon="13.3382867"><ele>438.0</ele><time>2026-04-17T12:56:08.254Z</time></trkpt><trkpt lat="43.0414467" lon="13.3384"><ele>441.25</ele><time>2026-04-17T12:56:09.254Z</time></trkpt><trkpt lat="43.0413483" lon="13.3385133"><ele>444.5</ele><time>2026-04-17T12:56:10.254Z</time></trkpt><trkpt lat="43.0412567" lon="13.3386117"><ele>447.75</ele><time>2026-04-17T12:56:11.254Z</time></trkpt><trkpt lat="43.0411617" lon="13.3387183"><ele>451.0</ele><time>2026-04-17T12:56:12.254Z</time></trkpt><trkpt lat="43.0410567" lon="13.338835"><ele>450.5</ele><time>2026-04-17T12:56:13.254Z</time></trkpt><trkpt lat="43.04095" lon="13.3389433"><ele>450.0</ele><time>2026-04-17T12:56:14.254Z</time></trkpt><trkpt lat="43.0408533" lon="13.3390433"><ele>449.5</ele><time>2026-04-17T12:56:15.254Z</time></trkpt><trkpt lat="43.0407433" lon="13.3391467"><ele>449.0</ele><time>2026-04-17T12:56:16.254Z</time></trkpt><trkpt lat="43.0406283" lon="13.3392217"><ele>451.25</ele><time>2026-04-17T12:56:17.254Z</time></trkpt><trkpt lat="43.0405133" lon="13.339285"><ele>453.5</ele><time>2026-04-17T12:56:18.254Z</time></trkpt><trkpt lat="43.04038" lon="13.3393333"><ele>455.75</ele><time>2026-04-17T12:56:19.254Z</time></trkpt><trkpt lat="43.0402517" lon="13.3393983"><ele>458.0</ele><time>2026-04-17T12:56:20.254Z</time></trkpt><trkpt lat="43.0401217" lon="13.33948"><ele>458.0</ele><time>2026-04-17T12:56:21.254Z</time></trkpt><trkpt lat="43.0399883" lon="13.3395883"><ele>458.0</ele><time>2026-04-17T12:56:22.254Z</time></trkpt><trkpt lat="43.0398633" lon="13.33971"><ele>458.0</ele><time>2026-04-17T12:56:23.254Z</time></trkpt><trkpt lat="43.0397467" lon="13.3398117"><ele>458.0</ele><time>2026-04-17T12:56:24.254Z</time></trkpt><trkpt lat="43.039635" lon="13.3399017"><ele>457.25</ele><time>2026-04-17T12:56:25.254Z</time></trkpt><trkpt lat="43.0395183" lon="13.3400017"><ele>456.5</ele><time>2026-04-17T12:56:26.254Z</time></trkpt><trkpt lat="43.0394017" lon="13.3400867"><ele>455.75</ele><time>2026-04-17T12:56:27.254Z</time></trkpt><trkpt lat="43.0392817" lon="13.340165"><ele>455.0</ele><time>2026-04-17T12:56:28.254Z</time></trkpt><trkpt lat="43.039145" lon="13.3402367"><ele>456.75</ele><time>2026-04-17T12:56:29.254Z</time></trkpt><trkpt lat="43.0390017" lon="13.340275"><ele>458.5</ele><time>2026-04-17T12:56:30.254Z</time></trkpt><trkpt lat="43.0388517" lon="13.3403067"><ele>460.25</ele><time>2026-04-17T12:56:31.254Z</time></trkpt><trkpt lat="43.038705" lon="13.3403367"><ele>462.0</ele><time>2026-04-17T12:56:32.254Z</time></trkpt><trkpt lat="43.0385667" lon="13.3403633"><ele>462.0</ele><time>2026-04-17T12:56:33.254Z</time></trkpt><trkpt lat="43.0384567" lon="13.340385"><ele>462.00000000000006</ele><time>2026-04-17T12:56:34.254Z</time></trkpt><trkpt lat="43.0383483" lon="13.3404017"><ele>462.00000000000006</ele><time>2026-04-17T12:56:35.254Z</time></trkpt><trkpt lat="43.0382583" lon="13.3404133"><ele>462.0</ele><time>2026-04-17T12:56:36.254Z</time></trkpt><trkpt lat="43.038165" lon="13.3404217"><ele>462.0</ele><time>2026-04-17T12:56:37.254Z</time></trkpt><trkpt lat="43.038075" lon="13.3404267"><ele>463.8</ele><time>2026-04-17T12:56:38.254Z</time></trkpt><trkpt lat="43.0379933" lon="13.34042"><ele>465.6</ele><time>2026-04-17T12:56:39.254Z</time></trkpt><trkpt lat="43.03791" lon="13.3403917"><ele>467.40000000000003</ele><time>2026-04-17T12:56:40.254Z</time></trkpt><trkpt lat="43.0378267" lon="13.34035"><ele>469.20000000000005</ele><time>2026-04-17T12:56:41.254Z</time></trkpt><trkpt lat="43.0377367" lon="13.3402833"><ele>471.0</ele><time>2026-04-17T12:56:42.254Z</time></trkpt><trkpt lat="43.0376383" lon="13.3402"><ele>471.0</ele><time>2026-04-17T12:56:43.254Z</time></trkpt><trkpt lat="43.037535" lon="13.3401117"><ele>471.0</ele><time>2026-04-17T12:56:44.254Z</time></trkpt><trkpt lat="43.0374333" lon="13.340035"><ele>471.0</ele><time>2026-04-17T12:56:45.254Z</time></trkpt><trkpt lat="43.0373233" lon="13.3399467"><ele>471.0</ele><time>2026-04-17T12:56:46.254Z</time></trkpt><trkpt lat="43.03723" lon="13.3398567"><ele>470.25</ele><time>2026-04-17T12:56:47.254Z</time></trkpt><trkpt lat="43.037155" lon="13.3397367"><ele>469.5</ele><time>2026-04-17T12:56:48.254Z</time></trkpt><trkpt lat="43.0371033" lon="13.3396017"><ele>468.75</ele><time>2026-04-17T12:56:49.254Z</time></trkpt><trkpt lat="43.0370617" lon="13.3394533"><ele>468.0</ele><time>2026-04-17T12:56:50.254Z</time></trkpt><trkpt lat="43.0370417" lon="13.339285"><ele>468.0</ele><time>2026-04-17T12:56:51.254Z</time></trkpt><trkpt lat="43.0370417" lon="13.3391117"><ele>468.0</ele><time>2026-04-17T12:56:52.254Z</time></trkpt><trkpt lat="43.037035" lon="13.3389367"><ele>468.0</ele><time>2026-04-17T12:56:53.254Z</time></trkpt><trkpt lat="43.0370483" lon="13.3387683"><ele>468.0</ele><time>2026-04-17T12:56:54.254Z</time></trkpt><trkpt lat="43.0370617" lon="13.3386083"><ele>469.0</ele><time>2026-04-17T12:56:55.254Z</time></trkpt><trkpt lat="43.0370783" lon="13.33846"><ele>469.99999999999994</ele><time>2026-04-17T12:56:56.254Z</time></trkpt><trkpt lat="43.03712" lon="13.3383267"><ele>470.99999999999994</ele><time>2026-04-17T12:56:57.254Z</time></trkpt><trkpt lat="43.0371833" lon="13.33822"><ele>472.0</ele><time>2026-04-17T12:56:58.254Z</time></trkpt><trkpt lat="43.0372633" lon="13.3381133"><ele>473.0</ele><time>2026-04-17T12:56:59.254Z</time></trkpt><trkpt lat="43.0373533" lon="13.3380067"><ele>475.75</ele><time>2026-04-17T12:57:00.254Z</time></trkpt><trkpt lat="43.0374433" lon="13.33789"><ele>478.5</ele><time>2026-04-17T12:57:01.254Z</time></trkpt><trkpt lat="43.0375417" lon="13.337775"><ele>481.25</ele><time>2026-04-17T12:57:02.254Z</time></trkpt><trkpt lat="43.037645" lon="13.337645"><ele>484.0</ele><time>2026-04-17T12:57:03.254Z</time></trkpt><trkpt lat="43.037755" lon="13.3375283"><ele>486.5</ele><time>2026-04-17T12:57:04.254Z</time></trkpt><trkpt lat="43.0378467" lon="13.3374267"><ele>489.0</ele><time>2026-04-17T12:57:05.254Z</time></trkpt><trkpt lat="43.0379417" lon="13.3373217"><ele>491.5</ele><time>2026-04-17T12:57:06.254Z</time></trkpt><trkpt lat="43.038035" lon="13.33723"><ele>494.0</ele><time>2026-04-17T12:57:07.254Z</time></trkpt><trkpt lat="43.03812" lon="13.3371383"><ele>495.6</ele><time>2026-04-17T12:57:08.254Z</time></trkpt><trkpt lat="43.0382033" lon="13.33705"><ele>497.2</ele><time>2026-04-17T12:57:09.254Z</time></trkpt><trkpt lat="43.0382917" lon="13.3369617"><ele>498.80000000000007</ele><time>2026-04-17T12:57:10.254Z</time></trkpt><trkpt lat="43.038375" lon="13.3368933"><ele>500.40000000000003</ele><time>2026-04-17T12:57:11.253Z</time></trkpt><trkpt lat="43.0384467" lon="13.3368167"><ele>502.0</ele><time>2026-04-17T12:57:12.254Z</time></trkpt><trkpt lat="43.0385183" lon="13.3367383"><ele>502.00000000000006</ele><time>2026-04-17T12:57:13.254Z</time></trkpt><trkpt lat="43.0385783" lon="13.33667"><ele>502.0</ele><time>2026-04-17T12:57:14.254Z</time></trkpt><trkpt lat="43.038625" lon="13.336595"><ele>502.0</ele><time>2026-04-17T12:57:15.254Z</time></trkpt><trkpt lat="43.03865" lon="13.33651"><ele>502.0</ele><time>2026-04-17T12:57:16.254Z</time></trkpt><trkpt lat="43.0386017" lon="13.336365"><ele>502.00000000000006</ele><time>2026-04-17T12:57:18.254Z</time></trkpt><trkpt lat="43.0385283" lon="13.3363233"><ele>502.0</ele><time>2026-04-17T12:57:19.254Z</time></trkpt><trkpt lat="43.0384217" lon="13.336325"><ele>502.75</ele><time>2026-04-17T12:57:20.254Z</time></trkpt><trkpt lat="43.0383067" lon="13.3363367"><ele>503.5</ele><time>2026-04-17T12:57:21.254Z</time></trkpt><trkpt lat="43.0381917" lon="13.33636"><ele>504.25</ele><time>2026-04-17T12:57:22.254Z</time></trkpt><trkpt lat="43.0380467" lon="13.3363817"><ele>505.0</ele><time>2026-04-17T12:57:23.254Z</time></trkpt><trkpt lat="43.0379" lon="13.336395"><ele>506.25</ele><time>2026-04-17T12:57:24.254Z</time></trkpt><trkpt lat="43.0377817" lon="13.336385"><ele>507.5</ele><time>2026-04-17T12:57:25.254Z</time></trkpt><trkpt lat="43.0376717" lon="13.3363567"><ele>508.75</ele><time>2026-04-17T12:57:26.254Z</time></trkpt><trkpt lat="43.0375633" lon="13.33629"><ele>510.0</ele><time>2026-04-17T12:57:27.254Z</time></trkpt><trkpt lat="43.0374467" lon="13.3361917"><ele>510.0</ele><time>2026-04-17T12:57:28.254Z</time></trkpt><trkpt lat="43.0373383" lon="13.3360617"><ele>510.0</ele><time>2026-04-17T12:57:29.254Z</time></trkpt><trkpt lat="43.03725" lon="13.3359533"><ele>510.0</ele><time>2026-04-17T12:57:30.253Z</time></trkpt><trkpt lat="43.0371983" lon="13.33586"><ele>510.0</ele><time>2026-04-17T12:57:31.253Z</time></trkpt><trkpt lat="43.0371767" lon="13.335775"><ele>510.0</ele><time>2026-04-17T12:57:32.253Z</time></trkpt><trkpt lat="43.03722" lon="13.33562"><ele>510.0</ele><time>2026-04-17T12:57:34.253Z</time></trkpt><trkpt lat="43.0373033" lon="13.3355633"><ele>510.0</ele><time>2026-04-17T12:57:35.253Z</time></trkpt><trkpt lat="43.037395" lon="13.3355083"><ele>510.0</ele><time>2026-04-17T12:57:36.253Z</time></trkpt><trkpt lat="43.0374717" lon="13.33544"><ele>510.0</ele><time>2026-04-17T12:57:37.253Z</time></trkpt><trkpt lat="43.037515" lon="13.3353467"><ele>510.0</ele><time>2026-04-17T12:57:38.253Z</time></trkpt><trkpt lat="43.0375267" lon="13.33522"><ele>513.0</ele><time>2026-04-17T12:57:39.253Z</time></trkpt><trkpt lat="43.0375167" lon="13.33508"><ele>516.0</ele><time>2026-04-17T12:57:40.253Z</time></trkpt><trkpt lat="43.0374767" lon="13.3349317"><ele>519.0</ele><time>2026-04-17T12:57:41.253Z</time></trkpt><trkpt lat="43.0374367" lon="13.3347883"><ele>522.0</ele><time>2026-04-17T12:57:42.253Z</time></trkpt><trkpt lat="43.0374033" lon="13.3346633"><ele>525.0</ele><time>2026-04-17T12:57:43.253Z</time></trkpt><trkpt lat="43.0373817" lon="13.33457"><ele>527.1666666666666</ele><time>2026-04-17T12:57:44.253Z</time></trkpt><trkpt lat="43.0373667" lon="13.334475"><ele>529.3333333333334</ele><time>2026-04-17T12:57:46.253Z</time></trkpt><trkpt lat="43.03734" lon="13.33438"><ele>531.5</ele><time>2026-04-17T12:57:53.253Z</time></trkpt><trkpt lat="43.03729" lon="13.3343133"><ele>533.6666666666667</ele><time>2026-04-17T12:57:55.253Z</time></trkpt><trkpt lat="43.037225" lon="13.3341983"><ele>535.8333333333334</ele><time>2026-04-17T12:57:57.253Z</time></trkpt><trkpt lat="43.0371567" lon="13.3340867"><ele>538.0</ele><time>2026-04-17T12:57:59.253Z</time></trkpt><trkpt lat="43.03712" lon="13.3340033"><ele>538.0</ele><time>2026-04-17T12:58:00.253Z</time></trkpt><trkpt lat="43.0370733" lon="13.3339"><ele>538.0</ele><time>2026-04-17T12:58:01.253Z</time></trkpt><trkpt lat="43.0370183" lon="13.33378"><ele>538.0</ele><time>2026-04-17T12:58:02.253Z</time></trkpt><trkpt lat="43.03696" lon="13.333655"><ele>538.0</ele><time>2026-04-17T12:58:03.253Z</time></trkpt><trkpt lat="43.036885" lon="13.3335133"><ele>538.0</ele><time>2026-04-17T12:58:04.253Z</time></trkpt><trkpt lat="43.036795" lon="13.33336"><ele>539.5</ele><time>2026-04-17T12:58:05.253Z</time></trkpt><trkpt lat="43.0367017" lon="13.3332333"><ele>541.0</ele><time>2026-04-17T12:58:06.253Z</time></trkpt><trkpt lat="43.0366217" lon="13.333125"><ele>542.5</ele><time>2026-04-17T12:58:07.253Z</time></trkpt><trkpt lat="43.0365467" lon="13.3330117"><ele>544.0</ele><time>2026-04-17T12:58:08.253Z</time></trkpt><trkpt lat="43.0364867" lon="13.3329067"><ele>546.4</ele><time>2026-04-17T12:58:09.253Z</time></trkpt><trkpt lat="43.0364267" lon="13.33281"><ele>548.8</ele><time>2026-04-17T12:58:10.253Z</time></trkpt><trkpt lat="43.036365" lon="13.332685"><ele>551.2</ele><time>2026-04-17T12:58:11.253Z</time></trkpt><trkpt lat="43.0363067" lon="13.3325633"><ele>553.6</ele><time>2026-04-17T12:58:12.253Z</time></trkpt><trkpt lat="43.03626" lon="13.332445"><ele>556.0</ele><time>2026-04-17T12:58:13.253Z</time></trkpt><trkpt lat="43.0362183" lon="13.3323433"><ele>556.0</ele><time>2026-04-17T12:58:14.253Z</time></trkpt><trkpt lat="43.036175" lon="13.3322533"><ele>556.0</ele><time>2026-04-17T12:58:15.253Z</time></trkpt><trkpt lat="43.0361267" lon="13.3321567"><ele>556.0</ele><time>2026-04-17T12:58:16.253Z</time></trkpt><trkpt lat="43.0360733" lon="13.3320533"><ele>556.0</ele><time>2026-04-17T12:58:17.253Z</time></trkpt><trkpt lat="43.0360217" lon="13.33194"><ele>556.0</ele><time>2026-04-17T12:58:18.253Z</time></trkpt><trkpt lat="43.0359733" lon="13.3318367"><ele>556.0</ele><time>2026-04-17T12:58:19.253Z</time></trkpt><trkpt lat="43.0359333" lon="13.3317333"><ele>556.6666666666667</ele><time>2026-04-17T12:58:20.253Z</time></trkpt><trkpt lat="43.03592" lon="13.3316333"><ele>557.3333333333334</ele><time>2026-04-17T12:58:21.253Z</time></trkpt><trkpt lat="43.0359217" lon="13.331535"><ele>558.0</ele><time>2026-04-17T12:58:22.253Z</time></trkpt><trkpt lat="43.0359333" lon="13.33142"><ele>558.6666666666666</ele><time>2026-04-17T12:58:23.253Z</time></trkpt><trkpt lat="43.0359583" lon="13.3312933"><ele>559.3333333333333</ele><time>2026-04-17T12:58:24.253Z</time></trkpt><trkpt lat="43.0360017" lon="13.331155"><ele>560.0</ele><time>2026-04-17T12:58:25.253Z</time></trkpt><trkpt lat="43.036065" lon="13.3310117"><ele>562.5</ele><time>2026-04-17T12:58:26.253Z</time></trkpt><trkpt lat="43.03613" lon="13.3308583"><ele>565.0</ele><time>2026-04-17T12:58:27.253Z</time></trkpt><trkpt lat="43.0361983" lon="13.3307"><ele>567.5</ele><time>2026-04-17T12:58:28.253Z</time></trkpt><trkpt lat="43.0362567" lon="13.3305383"><ele>570.0</ele><time>2026-04-17T12:58:29.253Z</time></trkpt><trkpt lat="43.0363167" lon="13.3303883"><ele>572.25</ele><time>2026-04-17T12:58:30.253Z</time></trkpt><trkpt lat="43.036385" lon="13.3302367"><ele>574.5</ele><time>2026-04-17T12:58:31.253Z</time></trkpt><trkpt lat="43.0364483" lon="13.33008"><ele>576.75</ele><time>2026-04-17T12:58:32.253Z</time></trkpt><trkpt lat="43.0365083" lon="13.3299333"><ele>579.0</ele><time>2026-04-17T12:58:33.253Z</time></trkpt><trkpt lat="43.0365667" lon="13.3298017"><ele>580.2</ele><time>2026-04-17T12:58:34.253Z</time></trkpt><trkpt lat="43.0366033" lon="13.329695"><ele>581.4</ele><time>2026-04-17T12:58:35.253Z</time></trkpt><trkpt lat="43.0366433" lon="13.3296233"><ele>582.6</ele><time>2026-04-17T12:58:36.253Z</time></trkpt><trkpt lat="43.036715" lon="13.3294783"><ele>583.8</ele><time>2026-04-17T12:58:38.253Z</time></trkpt><trkpt lat="43.0367717" lon="13.3293983"><ele>585.0</ele><time>2026-04-17T12:58:39.253Z</time></trkpt><trkpt lat="43.03684" lon="13.329315"><ele>581.6</ele><time>2026-04-17T12:58:40.253Z</time></trkpt><trkpt lat="43.0369217" lon="13.3292383"><ele>578.2</ele><time>2026-04-17T12:58:41.253Z</time></trkpt><trkpt lat="43.0370117" lon="13.3291767"><ele>574.8</ele><time>2026-04-17T12:58:42.253Z</time></trkpt><trkpt lat="43.037105" lon="13.329125"><ele>571.4</ele><time>2026-04-17T12:58:43.253Z</time></trkpt><trkpt lat="43.0371933" lon="13.3290817"><ele>568.0</ele><time>2026-04-17T12:58:44.253Z</time></trkpt><trkpt lat="43.0372917" lon="13.3290433"><ele>568.0</ele><time>2026-04-17T12:58:45.253Z</time></trkpt><trkpt lat="43.0373883" lon="13.3290083"><ele>568.0</ele><time>2026-04-17T12:58:46.253Z</time></trkpt><trkpt lat="43.037485" lon="13.3289817"><ele>568.0</ele><time>2026-04-17T12:58:47.253Z</time></trkpt><trkpt lat="43.03759" lon="13.32895"><ele>568.0</ele><time>2026-04-17T12:58:48.253Z</time></trkpt><trkpt lat="43.0376983" lon="13.3289133"><ele>568.0</ele><time>2026-04-17T12:58:49.253Z</time></trkpt><trkpt lat="43.0378033" lon="13.3288567"><ele>565.0</ele><time>2026-04-17T12:58:50.253Z</time></trkpt><trkpt lat="43.037895" lon="13.328785"><ele>562.0</ele><time>2026-04-17T12:58:51.253Z</time></trkpt><trkpt lat="43.0379683" lon="13.328695"><ele>559.0</ele><time>2026-04-17T12:58:52.253Z</time></trkpt><trkpt lat="43.038025" lon="13.3285817"><ele>556.0</ele><time>2026-04-17T12:58:53.253Z</time></trkpt><trkpt lat="43.0380483" lon="13.3284583"><ele>553.0</ele><time>2026-04-17T12:58:54.253Z</time></trkpt><trkpt lat="43.0380533" lon="13.3283167"><ele>553.0</ele><time>2026-04-17T12:58:55.253Z</time></trkpt><trkpt lat="43.038045" lon="13.328185"><ele>553.0</ele><time>2026-04-17T12:58:56.253Z</time></trkpt><trkpt lat="43.03803" lon="13.3280733"><ele>553.0</ele><time>2026-04-17T12:58:57.253Z</time></trkpt><trkpt lat="43.0380083" lon="13.327975"><ele>553.0</ele><time>2026-04-17T12:58:58.253Z</time></trkpt><trkpt lat="43.03798" lon="13.3278867"><ele>553.0</ele><time>2026-04-17T12:58:59.253Z</time></trkpt><trkpt lat="43.037945" lon="13.327805"><ele>553.0</ele><time>2026-04-17T12:59:00.253Z</time></trkpt><trkpt lat="43.037905" lon="13.3277267"><ele>551.3333333333334</ele><time>2026-04-17T12:59:01.253Z</time></trkpt><trkpt lat="43.03786" lon="13.32766"><ele>549.6666666666667</ele><time>2026-04-17T12:59:02.253Z</time></trkpt><trkpt lat="43.0378067" lon="13.3275833"><ele>548.0</ele><time>2026-04-17T12:59:03.253Z</time></trkpt><trkpt lat="43.0377467" lon="13.32751"><ele>546.3333333333334</ele><time>2026-04-17T12:59:04.253Z</time></trkpt><trkpt lat="43.03767" lon="13.3274167"><ele>544.6666666666666</ele><time>2026-04-17T12:59:05.253Z</time></trkpt><trkpt lat="43.0375717" lon="13.3273217"><ele>543.0</ele><time>2026-04-17T12:59:06.253Z</time></trkpt><trkpt lat="43.0374717" lon="13.3272417"><ele>542.25</ele><time>2026-04-17T12:59:07.253Z</time></trkpt><trkpt lat="43.037375" lon="13.3271683"><ele>541.5</ele><time>2026-04-17T12:59:08.253Z</time></trkpt><trkpt lat="43.03727" lon="13.3270983"><ele>540.75</ele><time>2026-04-17T12:59:09.253Z</time></trkpt><trkpt lat="43.03717" lon="13.3270233"><ele>540.0</ele><time>2026-04-17T12:59:10.253Z</time></trkpt><trkpt lat="43.037065" lon="13.3269467"><ele>540.0</ele><time>2026-04-17T12:59:11.253Z</time></trkpt><trkpt lat="43.0369567" lon="13.326885"><ele>540.0</ele><time>2026-04-17T12:59:12.253Z</time></trkpt><trkpt lat="43.03685" lon="13.3268317"><ele>540.0</ele><time>2026-04-17T12:59:13.253Z</time></trkpt><trkpt lat="43.0367367" lon="13.3267783"><ele>540.0</ele><time>2026-04-17T12:59:14.253Z</time></trkpt><trkpt lat="43.0366233" lon="13.3267133"><ele>543.0</ele><time>2026-04-17T12:59:15.253Z</time></trkpt><trkpt lat="43.0365233" lon="13.3266517"><ele>546.0</ele><time>2026-04-17T12:59:16.253Z</time></trkpt><trkpt lat="43.03644" lon="13.32657"><ele>549.0</ele><time>2026-04-17T12:59:17.253Z</time></trkpt><trkpt lat="43.0363633" lon="13.3264867"><ele>552.0</ele><time>2026-04-17T12:59:18.253Z</time></trkpt><trkpt lat="43.03631" lon="13.3263867"><ele>555.0</ele><time>2026-04-17T12:59:19.253Z</time></trkpt><trkpt lat="43.0362783" lon="13.3262583"><ele>555.0</ele><time>2026-04-17T12:59:20.253Z</time></trkpt><trkpt lat="43.0362633" lon="13.3261133"><ele>555.0</ele><time>2026-04-17T12:59:21.253Z</time></trkpt><trkpt lat="43.0362633" lon="13.3259483"><ele>555.0</ele><time>2026-04-17T12:59:22.253Z</time></trkpt><trkpt lat="43.0362783" lon="13.325795"><ele>555.0</ele><time>2026-04-17T12:59:23.253Z</time></trkpt><trkpt lat="43.03629" lon="13.3256467"><ele>552.8</ele><time>2026-04-17T12:59:24.253Z</time></trkpt><trkpt lat="43.0362767" lon="13.3255067"><ele>550.6</ele><time>2026-04-17T12:59:25.253Z</time></trkpt><trkpt lat="43.03624" lon="13.3253733"><ele>548.4</ele><time>2026-04-17T12:59:26.253Z</time></trkpt><trkpt lat="43.0361917" lon="13.3252417"><ele>546.2</ele><time>2026-04-17T12:59:27.253Z</time></trkpt><trkpt lat="43.036135" lon="13.3251117"><ele>544.0</ele><time>2026-04-17T12:59:28.253Z</time></trkpt><trkpt lat="43.0360667" lon="13.3249833"><ele>544.0</ele><time>2026-04-17T12:59:29.253Z</time></trkpt><trkpt lat="43.0359833" lon="13.324875"><ele>544.0</ele><time>2026-04-17T12:59:30.253Z</time></trkpt><trkpt lat="43.0358933" lon="13.3247867"><ele>544.0</ele><time>2026-04-17T12:59:31.253Z</time></trkpt><trkpt lat="43.0357883" lon="13.3247267"><ele>544.0</ele><time>2026-04-17T12:59:32.253Z</time></trkpt><trkpt lat="43.0356733" lon="13.324675"><ele>543.6</ele><time>2026-04-17T12:59:33.253Z</time></trkpt><trkpt lat="43.03556" lon="13.3246067"><ele>543.2</ele><time>2026-04-17T12:59:34.253Z</time></trkpt><trkpt lat="43.0354617" lon="13.3245567"><ele>542.8000000000001</ele><time>2026-04-17T12:59:35.253Z</time></trkpt><trkpt lat="43.0353667" lon="13.324495"><ele>542.4</ele><time>2026-04-17T12:59:36.253Z</time></trkpt><trkpt lat="43.03528" lon="13.324455"><ele>542.0</ele><time>2026-04-17T12:59:37.253Z</time></trkpt><trkpt lat="43.0352067" lon="13.32439"><ele>542.0</ele><time>2026-04-17T12:59:38.253Z</time></trkpt><trkpt lat="43.03513" lon="13.3243117"><ele>542.0</ele><time>2026-04-17T12:59:39.253Z</time></trkpt><trkpt lat="43.0350483" lon="13.3242233"><ele>542.0</ele><time>2026-04-17T12:59:40.253Z</time></trkpt><trkpt lat="43.03497" lon="13.3241233"><ele>542.0</ele><time>2026-04-17T12:59:41.253Z</time></trkpt><trkpt lat="43.0349083" lon="13.3240183"><ele>542.0</ele><time>2026-04-17T12:59:42.253Z</time></trkpt><trkpt lat="43.034855" lon="13.3239033"><ele>546.25</ele><time>2026-04-17T12:59:43.253Z</time></trkpt><trkpt lat="43.034815" lon="13.32377"><ele>550.5</ele><time>2026-04-17T12:59:44.253Z</time></trkpt><trkpt lat="43.0348017" lon="13.3236183"><ele>554.75</ele><time>2026-04-17T12:59:45.253Z</time></trkpt><trkpt lat="43.0348033" lon="13.3234433"><ele>559.0</ele><time>2026-04-17T12:59:46.253Z</time></trkpt><trkpt lat="43.034815" lon="13.32327"><ele>559.0</ele><time>2026-04-17T12:59:47.253Z</time></trkpt><trkpt lat="43.0348367" lon="13.3230883"><ele>559.0</ele><time>2026-04-17T12:59:48.253Z</time></trkpt><trkpt lat="43.0348517" lon="13.3229083"><ele>559.0</ele><time>2026-04-17T12:59:49.253Z</time></trkpt><trkpt lat="43.0348917" lon="13.3227"><ele>559.0</ele><time>2026-04-17T12:59:50.253Z</time></trkpt><trkpt lat="43.03494" lon="13.3224883"><ele>549.6666666666667</ele><time>2026-04-17T12:59:51.253Z</time></trkpt><trkpt lat="43.034985" lon="13.3222567"><ele>540.3333333333334</ele><time>2026-04-17T12:59:52.253Z</time></trkpt><trkpt lat="43.0350067" lon="13.322045"><ele>531.0</ele><time>2026-04-17T12:59:53.253Z</time></trkpt><trkpt lat="43.0350167" lon="13.3218433"><ele>531.0</ele><time>2026-04-17T12:59:54.253Z</time></trkpt><trkpt lat="43.035025" lon="13.321645"><ele>531.0</ele><time>2026-04-17T12:59:55.253Z</time></trkpt><trkpt lat="43.0350233" lon="13.3214483"><ele>531.0</ele><time>2026-04-17T12:59:56.253Z</time></trkpt><trkpt lat="43.0350133" lon="13.3212767"><ele>531.0</ele><time>2026-04-17T12:59:57.253Z</time></trkpt><trkpt lat="43.03502" lon="13.3211"><ele>531.6</ele><time>2026-04-17T12:59:58.253Z</time></trkpt><trkpt lat="43.035035" lon="13.3209417"><ele>532.2</ele><time>2026-04-17T12:59:59.253Z</time></trkpt><trkpt lat="43.0350667" lon="13.3208067"><ele>532.8</ele><time>2026-04-17T13:00:00.253Z</time></trkpt><trkpt lat="43.035115" lon="13.32069"><ele>533.4</ele><time>2026-04-17T13:00:01.253Z</time></trkpt><trkpt lat="43.0351833" lon="13.320595"><ele>534.0</ele><time>2026-04-17T13:00:02.253Z</time></trkpt><trkpt lat="43.0352633" lon="13.3205"><ele>532.6</ele><time>2026-04-17T13:00:03.253Z</time></trkpt><trkpt lat="43.0353333" lon="13.3203967"><ele>531.2</ele><time>2026-04-17T13:00:04.253Z</time></trkpt><trkpt lat="43.0353817" lon="13.320285"><ele>529.8000000000001</ele><time>2026-04-17T13:00:05.253Z</time></trkpt><trkpt lat="43.035405" lon="13.32016"><ele>528.4</ele><time>2026-04-17T13:00:06.253Z</time></trkpt><trkpt lat="43.0354033" lon="13.3200267"><ele>527.0</ele><time>2026-04-17T13:00:07.253Z</time></trkpt><trkpt lat="43.03538" lon="13.3199017"><ele>527.0</ele><time>2026-04-17T13:00:08.253Z</time></trkpt><trkpt lat="43.035335" lon="13.3197867"><ele>527.0</ele><time>2026-04-17T13:00:09.253Z</time></trkpt><trkpt lat="43.0352667" lon="13.3196733"><ele>527.0</ele><time>2026-04-17T13:00:10.253Z</time></trkpt><trkpt lat="43.0351833" lon="13.3195633"><ele>527.0</ele><time>2026-04-17T13:00:11.253Z</time></trkpt><trkpt lat="43.0350967" lon="13.3194533"><ele>527.0</ele><time>2026-04-17T13:00:12.253Z</time></trkpt><trkpt lat="43.0350083" lon="13.31935"><ele>524.5</ele><time>2026-04-17T13:00:13.253Z</time></trkpt><trkpt lat="43.0349167" lon="13.3192383"><ele>522.0</ele><time>2026-04-17T13:00:14.253Z</time></trkpt><trkpt lat="43.034835" lon="13.3191183"><ele>519.5</ele><time>2026-04-17T13:00:15.253Z</time></trkpt><trkpt lat="43.0347683" lon="13.3189933"><ele>517.0</ele><time>2026-04-17T13:00:16.253Z</time></trkpt><trkpt lat="43.0347" lon="13.3188567"><ele>514.0</ele><time>2026-04-17T13:00:17.253Z</time></trkpt><trkpt lat="43.0346417" lon="13.31874"><ele>511.00000000000006</ele><time>2026-04-17T13:00:18.253Z</time></trkpt><trkpt lat="43.0345817" lon="13.3186567"><ele>508.00000000000006</ele><time>2026-04-17T13:00:19.253Z</time></trkpt><trkpt lat="43.0345167" lon="13.31859"><ele>505.0</ele><time>2026-04-17T13:00:20.253Z</time></trkpt><trkpt lat="43.0344317" lon="13.3185383"><ele>502.0</ele><time>2026-04-17T13:00:21.253Z</time></trkpt><trkpt lat="43.0343083" lon="13.3185"><ele>502.0</ele><time>2026-04-17T13:00:22.253Z</time></trkpt><trkpt lat="43.03421" lon="13.318455"><ele>502.00000000000006</ele><time>2026-04-17T13:00:23.253Z</time></trkpt><trkpt lat="43.0341167" lon="13.3184067"><ele>502.00000000000006</ele><time>2026-04-17T13:00:24.253Z</time></trkpt><trkpt lat="43.0340183" lon="13.318355"><ele>502.0</ele><time>2026-04-17T13:00:25.253Z</time></trkpt><trkpt lat="43.0339283" lon="13.318305"><ele>502.0</ele><time>2026-04-17T13:00:26.253Z</time></trkpt><trkpt lat="43.0338667" lon="13.3182733"><ele>500.6666666666667</ele><time>2026-04-17T13:00:27.253Z</time></trkpt><trkpt lat="43.0337467" lon="13.3182517"><ele>499.33333333333337</ele><time>2026-04-17T13:00:29.253Z</time></trkpt><trkpt lat="43.0336867" lon="13.31828"><ele>498.0</ele><time>2026-04-17T13:00:30.253Z</time></trkpt><trkpt lat="43.0336233" lon="13.3183117"><ele>496.66666666666663</ele><time>2026-04-17T13:00:31.253Z</time></trkpt><trkpt lat="43.033555" lon="13.3183367"><ele>495.3333333333333</ele><time>2026-04-17T13:00:32.253Z</time></trkpt><trkpt lat="43.0334783" lon="13.318325"><ele>494.0</ele><time>2026-04-17T13:00:33.253Z</time></trkpt><trkpt lat="43.03341" lon="13.318295"><ele>493.99999999999994</ele><time>2026-04-17T13:00:34.253Z</time></trkpt><trkpt lat="43.0333517" lon="13.318245"><ele>494.0</ele><time>2026-04-17T13:00:35.252Z</time></trkpt><trkpt lat="43.03324" lon="13.3182033"><ele>494.0</ele><time>2026-04-17T13:00:37.253Z</time></trkpt><trkpt lat="43.03318" lon="13.318235"><ele>494.0</ele><time>2026-04-17T13:00:38.253Z</time></trkpt><trkpt lat="43.0331233" lon="13.318285"><ele>493.99999999999994</ele><time>2026-04-17T13:00:39.253Z</time></trkpt><trkpt lat="43.0330617" lon="13.3183433"><ele>494.0</ele><time>2026-04-17T13:00:40.253Z</time></trkpt><trkpt lat="43.0329867" lon="13.3184083"><ele>492.66666666666663</ele><time>2026-04-17T13:00:41.253Z</time></trkpt><trkpt lat="43.0329217" lon="13.3184867"><ele>491.3333333333333</ele><time>2026-04-17T13:00:42.253Z</time></trkpt><trkpt lat="43.032855" lon="13.31854"><ele>490.0</ele><time>2026-04-17T13:00:43.253Z</time></trkpt><trkpt lat="43.0327517" lon="13.31857"><ele>488.66666666666663</ele><time>2026-04-17T13:00:45.253Z</time></trkpt><trkpt lat="43.0326717" lon="13.3184983"><ele>487.3333333333333</ele><time>2026-04-17T13:00:47.252Z</time></trkpt><trkpt lat="43.0326717" lon="13.3184067"><ele>486.0</ele><time>2026-04-17T13:00:48.253Z</time></trkpt><trkpt lat="43.0326917" lon="13.31828"><ele>486.0</ele><time>2026-04-17T13:00:49.253Z</time></trkpt><trkpt lat="43.0327267" lon="13.3181367"><ele>486.0</ele><time>2026-04-17T13:00:50.253Z</time></trkpt><trkpt lat="43.0327633" lon="13.3179917"><ele>486.0</ele><time>2026-04-17T13:00:51.253Z</time></trkpt><trkpt lat="43.0328033" lon="13.3178433"><ele>486.0</ele><time>2026-04-17T13:00:52.253Z</time></trkpt><trkpt lat="43.0328417" lon="13.31771"><ele>486.0</ele><time>2026-04-17T13:00:53.253Z</time></trkpt><trkpt lat="43.032875" lon="13.3175733"><ele>484.0</ele><time>2026-04-17T13:00:54.253Z</time></trkpt><trkpt lat="43.032905" lon="13.3174317"><ele>482.0</ele><time>2026-04-17T13:00:55.253Z</time></trkpt><trkpt lat="43.0329267" lon="13.3172883"><ele>480.0</ele><time>2026-04-17T13:00:56.253Z</time></trkpt><trkpt lat="43.0329433" lon="13.3171467"><ele>478.0</ele><time>2026-04-17T13:00:57.253Z</time></trkpt><trkpt lat="43.0329567" lon="13.3169933"><ele>476.0</ele><time>2026-04-17T13:00:58.253Z</time></trkpt><trkpt lat="43.03297" lon="13.3168367"><ele>474.25</ele><time>2026-04-17T13:00:59.253Z</time></trkpt><trkpt lat="43.0329767" lon="13.3166733"><ele>472.5</ele><time>2026-04-17T13:01:00.253Z</time></trkpt><trkpt lat="43.03298" lon="13.3165033"><ele>470.75</ele><time>2026-04-17T13:01:01.253Z</time></trkpt><trkpt lat="43.0329717" lon="13.316335"><ele>469.0</ele><time>2026-04-17T13:01:02.253Z</time></trkpt><trkpt lat="43.032945" lon="13.3161583"><ele>467.75</ele><time>2026-04-17T13:01:03.253Z</time></trkpt><trkpt lat="43.032925" lon="13.315985"><ele>466.5</ele><time>2026-04-17T13:01:04.253Z</time></trkpt><trkpt lat="43.0329" lon="13.3158133"><ele>465.25</ele><time>2026-04-17T13:01:05.253Z</time></trkpt><trkpt lat="43.0328833" lon="13.3156483"><ele>464.0</ele><time>2026-04-17T13:01:06.253Z</time></trkpt><trkpt lat="43.03287" lon="13.3155067"><ele>463.99999999999994</ele><time>2026-04-17T13:01:07.253Z</time></trkpt><trkpt lat="43.0328583" lon="13.31537"><ele>464.0</ele><time>2026-04-17T13:01:08.253Z</time></trkpt><trkpt lat="43.03285" lon="13.3152567"><ele>464.0</ele><time>2026-04-17T13:01:09.253Z</time></trkpt><trkpt lat="43.03284" lon="13.31516"><ele>464.0</ele><time>2026-04-17T13:01:10.253Z</time></trkpt><trkpt lat="43.0327983" lon="13.3150183"><ele>463.99999999999994</ele><time>2026-04-17T13:01:12.253Z</time></trkpt><trkpt lat="43.03275" lon="13.314955"><ele>464.0</ele><time>2026-04-17T13:01:13.253Z</time></trkpt><trkpt lat="43.0326917" lon="13.314905"><ele>464.0</ele><time>2026-04-17T13:01:14.253Z</time></trkpt><trkpt lat="43.0326017" lon="13.3148483"><ele>464.0</ele><time>2026-04-17T13:01:15.253Z</time></trkpt><trkpt lat="43.03248" lon="13.3147767"><ele>464.0</ele><time>2026-04-17T13:01:16.253Z</time></trkpt><trkpt lat="43.03236" lon="13.3146767"><ele>464.0</ele><time>2026-04-17T13:01:17.253Z</time></trkpt><trkpt lat="43.0322683" lon="13.31456"><ele>463.2</ele><time>2026-04-17T13:01:18.253Z</time></trkpt><trkpt lat="43.0321917" lon="13.3144417"><ele>462.4</ele><time>2026-04-17T13:01:19.253Z</time></trkpt><trkpt lat="43.0321267" lon="13.3143267"><ele>461.6</ele><time>2026-04-17T13:01:20.253Z</time></trkpt><trkpt lat="43.03205" lon="13.314215"><ele>460.8</ele><time>2026-04-17T13:01:21.253Z</time></trkpt><trkpt lat="43.03198" lon="13.314105"><ele>460.0</ele><time>2026-04-17T13:01:22.253Z</time></trkpt><trkpt lat="43.0319033" lon="13.3140017"><ele>460.4</ele><time>2026-04-17T13:01:23.253Z</time></trkpt><trkpt lat="43.03182" lon="13.31389"><ele>460.8</ele><time>2026-04-17T13:01:24.253Z</time></trkpt><trkpt lat="43.0317383" lon="13.3137833"><ele>461.20000000000005</ele><time>2026-04-17T13:01:25.253Z</time></trkpt><trkpt lat="43.0316667" lon="13.31369"><ele>461.6</ele><time>2026-04-17T13:01:26.253Z</time></trkpt><trkpt lat="43.0316067" lon="13.3136033"><ele>462.0</ele><time>2026-04-17T13:01:27.253Z</time></trkpt><trkpt lat="43.0315567" lon="13.3135033"><ele>462.6</ele><time>2026-04-17T13:01:28.253Z</time></trkpt><trkpt lat="43.0315183" lon="13.3133983"><ele>463.20000000000005</ele><time>2026-04-17T13:01:29.253Z</time></trkpt><trkpt lat="43.031495" lon="13.3132983"><ele>463.8</ele><time>2026-04-17T13:01:30.253Z</time></trkpt><trkpt lat="43.0314967" lon="13.3131383"><ele>464.4</ele><time>2026-04-17T13:01:32.253Z</time></trkpt><trkpt lat="43.0315083" lon="13.31302"><ele>465.0</ele><time>2026-04-17T13:01:34.253Z</time></trkpt><trkpt lat="43.0315067" lon="13.3128867"><ele>466.2</ele><time>2026-04-17T13:01:36.253Z</time></trkpt><trkpt lat="43.0315067" lon="13.3127967"><ele>467.4</ele><time>2026-04-17T13:01:37.253Z</time></trkpt><trkpt lat="43.03151" lon="13.3126933"><ele>468.6</ele><time>2026-04-17T13:01:38.253Z</time></trkpt><trkpt lat="43.0315083" lon="13.31257"><ele>469.8</ele><time>2026-04-17T13:01:39.253Z</time></trkpt><trkpt lat="43.0315" lon="13.3124217"><ele>471.0</ele><time>2026-04-17T13:01:40.253Z</time></trkpt><trkpt lat="43.0314933" lon="13.3122617"><ele>472.75</ele><time>2026-04-17T13:01:41.253Z</time></trkpt><trkpt lat="43.0314817" lon="13.3120967"><ele>474.5</ele><time>2026-04-17T13:01:42.253Z</time></trkpt><trkpt lat="43.03147" lon="13.311945"><ele>476.25</ele><time>2026-04-17T13:01:43.253Z</time></trkpt><trkpt lat="43.0314583" lon="13.3117967"><ele>478.0</ele><time>2026-04-17T13:01:44.253Z</time></trkpt><trkpt lat="43.03145" lon="13.3116383"><ele>478.0</ele><time>2026-04-17T13:01:45.253Z</time></trkpt><trkpt lat="43.03144" lon="13.3114733"><ele>478.0</ele><time>2026-04-17T13:01:46.253Z</time></trkpt><trkpt lat="43.03143" lon="13.3112967"><ele>478.0</ele><time>2026-04-17T13:01:47.253Z</time></trkpt><trkpt lat="43.0314167" lon="13.3111083"><ele>478.0</ele><time>2026-04-17T13:01:48.253Z</time></trkpt><trkpt lat="43.0314033" lon="13.31091"><ele>477.75</ele><time>2026-04-17T13:01:49.253Z</time></trkpt><trkpt lat="43.0313933" lon="13.31071"><ele>477.5</ele><time>2026-04-17T13:01:50.253Z</time></trkpt><trkpt lat="43.03137" lon="13.3105083"><ele>477.25</ele><time>2026-04-17T13:01:51.253Z</time></trkpt><trkpt lat="43.03136" lon="13.3103"><ele>477.0</ele><time>2026-04-17T13:01:52.253Z</time></trkpt><trkpt lat="43.03135" lon="13.310085"><ele>472.66666666666663</ele><time>2026-04-17T13:01:53.253Z</time></trkpt><trkpt lat="43.031335" lon="13.309885"><ele>468.3333333333333</ele><time>2026-04-17T13:01:54.253Z</time></trkpt><trkpt lat="43.0313233" lon="13.30968"><ele>464.0</ele><time>2026-04-17T13:01:55.253Z</time></trkpt><trkpt lat="43.0313083" lon="13.3094533"><ele>463.3333333333333</ele><time>2026-04-17T13:01:56.253Z</time></trkpt><trkpt lat="43.0312933" lon="13.3092333"><ele>462.66666666666663</ele><time>2026-04-17T13:01:57.253Z</time></trkpt><trkpt lat="43.0312833" lon="13.3090017"><ele>462.0</ele><time>2026-04-17T13:01:58.253Z</time></trkpt><trkpt lat="43.0312667" lon="13.3087667"><ele>462.0</ele><time>2026-04-17T13:01:59.253Z</time></trkpt><trkpt lat="43.0312517" lon="13.3085317"><ele>462.0</ele><time>2026-04-17T13:02:00.253Z</time></trkpt><trkpt lat="43.0312433" lon="13.3083133"><ele>462.0</ele><time>2026-04-17T13:02:01.253Z</time></trkpt><trkpt lat="43.03122" lon="13.3081067"><ele>462.0</ele><time>2026-04-17T13:02:02.253Z</time></trkpt><trkpt lat="43.0312017" lon="13.307915"><ele>462.0</ele><time>2026-04-17T13:02:03.253Z</time></trkpt><trkpt lat="43.0311917" lon="13.3077233"><ele>462.0</ele><time>2026-04-17T13:02:04.253Z</time></trkpt><trkpt lat="43.0311683" lon="13.307535"><ele>462.0</ele><time>2026-04-17T13:02:05.252Z</time></trkpt><trkpt lat="43.0311567" lon="13.30734"><ele>463.0</ele><time>2026-04-17T13:02:06.253Z</time></trkpt><trkpt lat="43.0311433" lon="13.3071383"><ele>464.0</ele><time>2026-04-17T13:02:07.253Z</time></trkpt><trkpt lat="43.0311283" lon="13.3069233"><ele>465.0</ele><time>2026-04-17T13:02:08.253Z</time></trkpt><trkpt lat="43.0311133" lon="13.306705"><ele>465.0</ele><time>2026-04-17T13:02:09.253Z</time></trkpt><trkpt lat="43.0310983" lon="13.30649"><ele>465.0</ele><time>2026-04-17T13:02:10.253Z</time></trkpt><trkpt lat="43.031095" lon="13.30628"><ele>465.0</ele><time>2026-04-17T13:02:11.253Z</time></trkpt><trkpt lat="43.03108" lon="13.3060883"><ele>465.25</ele><time>2026-04-17T13:02:12.253Z</time></trkpt><trkpt lat="43.0310667" lon="13.3059183"><ele>465.5</ele><time>2026-04-17T13:02:13.253Z</time></trkpt><trkpt lat="43.0310533" lon="13.3057383"><ele>465.75</ele><time>2026-04-17T13:02:14.253Z</time></trkpt><trkpt lat="43.0310383" lon="13.3055583"><ele>466.0</ele><time>2026-04-17T13:02:15.253Z</time></trkpt><trkpt lat="43.0310283" lon="13.3053917"><ele>466.0</ele><time>2026-04-17T13:02:16.253Z</time></trkpt><trkpt lat="43.0310167" lon="13.30522"><ele>466.0</ele><time>2026-04-17T13:02:17.253Z</time></trkpt><trkpt lat="43.0310067" lon="13.3050317"><ele>466.0</ele><time>2026-04-17T13:02:18.253Z</time></trkpt><trkpt lat="43.0309933" lon="13.3048433"><ele>466.0</ele><time>2026-04-17T13:02:19.253Z</time></trkpt><trkpt lat="43.0309767" lon="13.3046483"><ele>465.6666666666667</ele><time>2026-04-17T13:02:20.253Z</time></trkpt><trkpt lat="43.0309617" lon="13.3044483"><ele>465.33333333333337</ele><time>2026-04-17T13:02:21.253Z</time></trkpt><trkpt lat="43.0309417" lon="13.304235"><ele>465.0</ele><time>2026-04-17T13:02:22.253Z</time></trkpt><trkpt lat="43.03093" lon="13.3040233"><ele>465.25</ele><time>2026-04-17T13:02:23.253Z</time></trkpt><trkpt lat="43.0309167" lon="13.3038117"><ele>465.5</ele><time>2026-04-17T13:02:24.253Z</time></trkpt><trkpt lat="43.030905" lon="13.3036267"><ele>465.75</ele><time>2026-04-17T13:02:25.253Z</time></trkpt><trkpt lat="43.0308933" lon="13.3034567"><ele>466.0</ele><time>2026-04-17T13:02:26.253Z</time></trkpt><trkpt lat="43.030885" lon="13.3033033"><ele>466.00000000000006</ele><time>2026-04-17T13:02:27.253Z</time></trkpt><trkpt lat="43.0308717" lon="13.3031833"><ele>466.0</ele><time>2026-04-17T13:02:28.253Z</time></trkpt><trkpt lat="43.030865" lon="13.3030967"><ele>466.0</ele><time>2026-04-17T13:02:29.253Z</time></trkpt><trkpt lat="43.0308167" lon="13.3030133"><ele>466.0</ele><time>2026-04-17T13:02:31.253Z</time></trkpt><trkpt lat="43.0307117" lon="13.30302"><ele>466.00000000000006</ele><time>2026-04-17T13:02:33.253Z</time></trkpt><trkpt lat="43.0306317" lon="13.303025"><ele>466.0</ele><time>2026-04-17T13:02:34.253Z</time></trkpt><trkpt lat="43.0305467" lon="13.30302"><ele>465.6</ele><time>2026-04-17T13:02:35.253Z</time></trkpt><trkpt lat="43.0304517" lon="13.303015"><ele>465.20000000000005</ele><time>2026-04-17T13:02:36.253Z</time></trkpt><trkpt lat="43.0303567" lon="13.303"><ele>464.79999999999995</ele><time>2026-04-17T13:02:37.253Z</time></trkpt><trkpt lat="43.0302583" lon="13.3029833"><ele>464.4</ele><time>2026-04-17T13:02:38.253Z</time></trkpt><trkpt lat="43.0301667" lon="13.3029883"><ele>464.0</ele><time>2026-04-17T13:02:39.253Z</time></trkpt><trkpt lat="43.030075" lon="13.3029867"><ele>464.8333333333333</ele><time>2026-04-17T13:02:40.253Z</time></trkpt><trkpt lat="43.029975" lon="13.30297"><ele>465.66666666666663</ele><time>2026-04-17T13:02:41.253Z</time></trkpt><trkpt lat="43.029885" lon="13.3029583"><ele>466.5</ele><time>2026-04-17T13:02:42.253Z</time></trkpt><trkpt lat="43.029805" lon="13.30295"><ele>467.33333333333337</ele><time>2026-04-17T13:02:43.253Z</time></trkpt><trkpt lat="43.0297283" lon="13.3029467"><ele>468.1666666666667</ele><time>2026-04-17T13:02:44.253Z</time></trkpt><trkpt lat="43.0296567" lon="13.30296"><ele>469.0</ele><time>2026-04-17T13:02:45.253Z</time></trkpt><trkpt lat="43.0295983" lon="13.302995"><ele>469.0</ele><time>2026-04-17T13:02:46.253Z</time></trkpt><trkpt lat="43.0294867" lon="13.3030567"><ele>469.0</ele><time>2026-04-17T13:02:48.253Z</time></trkpt><trkpt lat="43.0294067" lon="13.3030567"><ele>469.0</ele><time>2026-04-17T13:02:50.253Z</time></trkpt><trkpt lat="43.0293233" lon="13.3030067"><ele>469.0</ele><time>2026-04-17T13:02:53.253Z</time></trkpt><trkpt lat="43.0292633" lon="13.30295"><ele>469.0</ele><time>2026-04-17T13:02:55.253Z</time></trkpt><trkpt lat="43.0292067" lon="13.3028467"><ele>469.00000000000006</ele><time>2026-04-17T13:02:57.253Z</time></trkpt><trkpt lat="43.029145" lon="13.3027117"><ele>469.0</ele><time>2026-04-17T13:02:59.253Z</time></trkpt><trkpt lat="43.029115" lon="13.302635"><ele>469.0</ele><time>2026-04-17T13:03:00.253Z</time></trkpt><trkpt lat="43.02909" lon="13.3025333"><ele>469.0</ele><time>2026-04-17T13:03:01.253Z</time></trkpt><trkpt lat="43.0290667" lon="13.3024267"><ele>469.00000000000006</ele><time>2026-04-17T13:03:02.253Z</time></trkpt><trkpt lat="43.029045" lon="13.3023267"><ele>469.0</ele><time>2026-04-17T13:03:03.253Z</time></trkpt><trkpt lat="43.0290233" lon="13.30224"><ele>470.1666666666667</ele><time>2026-04-17T13:03:04.253Z</time></trkpt><trkpt lat="43.0290033" lon="13.3021583"><ele>471.33333333333337</ele><time>2026-04-17T13:03:05.253Z</time></trkpt><trkpt lat="43.0289633" lon="13.3020033"><ele>472.5</ele><time>2026-04-17T13:03:07.253Z</time></trkpt><trkpt lat="43.02895" lon="13.3018383"><ele>473.66666666666663</ele><time>2026-04-17T13:03:09.252Z</time></trkpt><trkpt lat="43.028955" lon="13.301745"><ele>474.8333333333333</ele><time>2026-04-17T13:03:10.253Z</time></trkpt><trkpt lat="43.02896" lon="13.3016517"><ele>476.0</ele><time>2026-04-17T13:03:11.253Z</time></trkpt><trkpt lat="43.0289667" lon="13.3015633"><ele>476.0</ele><time>2026-04-17T13:03:12.253Z</time></trkpt><trkpt lat="43.0289317" lon="13.3014317"><ele>476.0</ele><time>2026-04-17T13:03:14.253Z</time></trkpt><trkpt lat="43.02886" lon="13.30141"><ele>476.0</ele><time>2026-04-17T13:03:16.253Z</time></trkpt><trkpt lat="43.0287533" lon="13.30145"><ele>476.0</ele><time>2026-04-17T13:03:18.253Z</time></trkpt><trkpt lat="43.0286417" lon="13.30143"><ele>476.0</ele><time>2026-04-17T13:03:20.253Z</time></trkpt><trkpt lat="43.0285567" lon="13.301305"><ele>475.8333333333333</ele><time>2026-04-17T13:03:22.253Z</time></trkpt><trkpt lat="43.028515" lon="13.3012133"><ele>475.66666666666663</ele><time>2026-04-17T13:03:23.253Z</time></trkpt><trkpt lat="43.0284767" lon="13.301125"><ele>475.5</ele><time>2026-04-17T13:03:24.253Z</time></trkpt><trkpt lat="43.0284483" lon="13.3010233"><ele>475.33333333333337</ele><time>2026-04-17T13:03:25.253Z</time></trkpt><trkpt lat="43.028415" lon="13.3009383"><ele>475.1666666666667</ele><time>2026-04-17T13:03:26.253Z</time></trkpt><trkpt lat="43.0283333" lon="13.300825"><ele>475.0</ele><time>2026-04-17T13:03:28.253Z</time></trkpt><trkpt lat="43.0282133" lon="13.3007983"><ele>475.0</ele><time>2026-04-17T13:03:30.253Z</time></trkpt><trkpt lat="43.0281267" lon="13.3007983"><ele>475.0</ele><time>2026-04-17T13:03:31.253Z</time></trkpt><trkpt lat="43.028025" lon="13.3007983"><ele>475.0</ele><time>2026-04-17T13:03:32.253Z</time></trkpt><trkpt lat="43.02792" lon="13.30081"><ele>475.0</ele><time>2026-04-17T13:03:33.253Z</time></trkpt><trkpt lat="43.0278117" lon="13.300815"><ele>475.0</ele><time>2026-04-17T13:03:34.253Z</time></trkpt><trkpt lat="43.027705" lon="13.3008167"><ele>475.0</ele><time>2026-04-17T13:03:35.253Z</time></trkpt><trkpt lat="43.0275967" lon="13.3008183"><ele>475.0</ele><time>2026-04-17T13:03:36.253Z</time></trkpt><trkpt lat="43.027485" lon="13.3008"><ele>475.0</ele><time>2026-04-17T13:03:37.253Z</time></trkpt><trkpt lat="43.0273717" lon="13.3008"><ele>475.0</ele><time>2026-04-17T13:03:38.253Z</time></trkpt><trkpt lat="43.027245" lon="13.3007933"><ele>475.8</ele><time>2026-04-17T13:03:39.253Z</time></trkpt><trkpt lat="43.0271267" lon="13.3007917"><ele>476.6</ele><time>2026-04-17T13:03:40.253Z</time></trkpt><trkpt lat="43.0270217" lon="13.3007867"><ele>477.4</ele><time>2026-04-17T13:03:41.253Z</time></trkpt><trkpt lat="43.0269267" lon="13.300765"><ele>478.2</ele><time>2026-04-17T13:03:42.253Z</time></trkpt><trkpt lat="43.02683" lon="13.3007383"><ele>479.0</ele><time>2026-04-17T13:03:43.253Z</time></trkpt><trkpt lat="43.0267183" lon="13.3007167"><ele>479.5</ele><time>2026-04-17T13:03:44.253Z</time></trkpt><trkpt lat="43.02661" lon="13.3006867"><ele>480.0</ele><time>2026-04-17T13:03:45.253Z</time></trkpt><trkpt lat="43.0264933" lon="13.3006617"><ele>480.5</ele><time>2026-04-17T13:03:46.253Z</time></trkpt><trkpt lat="43.02637" lon="13.3006333"><ele>481.0</ele><time>2026-04-17T13:03:47.253Z</time></trkpt><trkpt lat="43.0262433" lon="13.30061"><ele>481.0</ele><time>2026-04-17T13:03:48.253Z</time></trkpt><trkpt lat="43.0261167" lon="13.3005933"><ele>481.0</ele><time>2026-04-17T13:03:49.253Z</time></trkpt><trkpt lat="43.0259767" lon="13.3005983"><ele>481.0</ele><time>2026-04-17T13:03:50.253Z</time></trkpt><trkpt lat="43.025835" lon="13.3006083"><ele>481.0</ele><time>2026-04-17T13:03:51.253Z</time></trkpt><trkpt lat="43.025695" lon="13.3006317"><ele>481.75</ele><time>2026-04-17T13:03:52.253Z</time></trkpt><trkpt lat="43.025555" lon="13.3006533"><ele>482.5</ele><time>2026-04-17T13:03:53.253Z</time></trkpt><trkpt lat="43.025415" lon="13.300685"><ele>483.25</ele><time>2026-04-17T13:03:54.253Z</time></trkpt><trkpt lat="43.0252883" lon="13.30072"><ele>484.0</ele><time>2026-04-17T13:03:55.253Z</time></trkpt><trkpt lat="43.02516" lon="13.300755"><ele>484.0</ele><time>2026-04-17T13:03:56.253Z</time></trkpt><trkpt lat="43.0250333" lon="13.300795"><ele>484.0</ele><time>2026-04-17T13:03:57.253Z</time></trkpt><trkpt lat="43.0249017" lon="13.3008417"><ele>484.0</ele><time>2026-04-17T13:03:58.253Z</time></trkpt><trkpt lat="43.0247833" lon="13.30091"><ele>484.0</ele><time>2026-04-17T13:03:59.253Z</time></trkpt><trkpt lat="43.0246767" lon="13.3010067"><ele>484.4</ele><time>2026-04-17T13:04:00.253Z</time></trkpt><trkpt lat="43.0245867" lon="13.3011"><ele>484.79999999999995</ele><time>2026-04-17T13:04:01.253Z</time></trkpt><trkpt lat="43.02451" lon="13.301205"><ele>485.20000000000005</ele><time>2026-04-17T13:04:02.253Z</time></trkpt><trkpt lat="43.0244233" lon="13.30127"><ele>485.6</ele><time>2026-04-17T13:04:03.253Z</time></trkpt><trkpt lat="43.0243383" lon="13.3012833"><ele>486.0</ele><time>2026-04-17T13:04:04.253Z</time></trkpt><trkpt lat="43.0242617" lon="13.3012567"><ele>486.0</ele><time>2026-04-17T13:04:05.253Z</time></trkpt><trkpt lat="43.0241883" lon="13.3011867"><ele>486.0</ele><time>2026-04-17T13:04:06.253Z</time></trkpt><trkpt lat="43.024115" lon="13.3010833"><ele>486.0</ele><time>2026-04-17T13:04:07.253Z</time></trkpt><trkpt lat="43.0240433" lon="13.30099"><ele>486.0</ele><time>2026-04-17T13:04:08.253Z</time></trkpt><trkpt lat="43.023975" lon="13.3009283"><ele>486.0</ele><time>2026-04-17T13:04:09.253Z</time></trkpt><trkpt lat="43.0238983" lon="13.30087"><ele>486.6666666666667</ele><time>2026-04-17T13:04:10.253Z</time></trkpt><trkpt lat="43.0238133" lon="13.300855"><ele>487.33333333333337</ele><time>2026-04-17T13:04:11.253Z</time></trkpt><trkpt lat="43.0237317" lon="13.3008667"><ele>488.0</ele><time>2026-04-17T13:04:12.253Z</time></trkpt><trkpt lat="43.0236517" lon="13.3009"><ele>488.6666666666667</ele><time>2026-04-17T13:04:13.253Z</time></trkpt><trkpt lat="43.0235717" lon="13.30093"><ele>489.33333333333337</ele><time>2026-04-17T13:04:14.253Z</time></trkpt><trkpt lat="43.0234867" lon="13.3009533"><ele>490.0</ele><time>2026-04-17T13:04:15.253Z</time></trkpt><trkpt lat="43.0233933" lon="13.3009633"><ele>490.83333333333337</ele><time>2026-04-17T13:04:16.253Z</time></trkpt><trkpt lat="43.0233017" lon="13.30094"><ele>491.6666666666667</ele><time>2026-04-17T13:04:17.253Z</time></trkpt><trkpt lat="43.02322" lon="13.3008783"><ele>492.5</ele><time>2026-04-17T13:04:18.253Z</time></trkpt><trkpt lat="43.0231467" lon="13.3008033"><ele>493.33333333333337</ele><time>2026-04-17T13:04:19.253Z</time></trkpt><trkpt lat="43.0230717" lon="13.3007467"><ele>494.1666666666667</ele><time>2026-04-17T13:04:20.253Z</time></trkpt><trkpt lat="43.0229933" lon="13.3007233"><ele>495.0</ele><time>2026-04-17T13:04:21.253Z</time></trkpt><trkpt lat="43.022905" lon="13.3007167"><ele>495.0</ele><time>2026-04-17T13:04:22.253Z</time></trkpt><trkpt lat="43.0228067" lon="13.30072"><ele>495.0</ele><time>2026-04-17T13:04:23.253Z</time></trkpt><trkpt lat="43.0226933" lon="13.3007417"><ele>495.0</ele><time>2026-04-17T13:04:24.253Z</time></trkpt><trkpt lat="43.02258" lon="13.3007783"><ele>495.0</ele><time>2026-04-17T13:04:25.253Z</time></trkpt><trkpt lat="43.0224783" lon="13.3008467"><ele>495.0</ele><time>2026-04-17T13:04:26.253Z</time></trkpt><trkpt lat="43.0223833" lon="13.300935"><ele>496.0</ele><time>2026-04-17T13:04:27.253Z</time></trkpt><trkpt lat="43.0222967" lon="13.3010467"><ele>497.0</ele><time>2026-04-17T13:04:28.253Z</time></trkpt><trkpt lat="43.02221" lon="13.3011717"><ele>498.0</ele><time>2026-04-17T13:04:29.253Z</time></trkpt><trkpt lat="43.0221317" lon="13.30128"><ele>499.0</ele><time>2026-04-17T13:04:30.253Z</time></trkpt><trkpt lat="43.022055" lon="13.3013867"><ele>497.25</ele><time>2026-04-17T13:04:31.253Z</time></trkpt><trkpt lat="43.0219633" lon="13.3015"><ele>495.5</ele><time>2026-04-17T13:04:32.253Z</time></trkpt><trkpt lat="43.021865" lon="13.301615"><ele>493.75</ele><time>2026-04-17T13:04:33.253Z</time></trkpt><trkpt lat="43.0217667" lon="13.3017017"><ele>492.0</ele><time>2026-04-17T13:04:34.253Z</time></trkpt><trkpt lat="43.0216683" lon="13.3017583"><ele>492.3333333333333</ele><time>2026-04-17T13:04:35.253Z</time></trkpt><trkpt lat="43.0215717" lon="13.3017867"><ele>492.66666666666663</ele><time>2026-04-17T13:04:36.253Z</time></trkpt><trkpt lat="43.02148" lon="13.3018083"><ele>493.0</ele><time>2026-04-17T13:04:37.253Z</time></trkpt><trkpt lat="43.021395" lon="13.3018183"><ele>493.3333333333333</ele><time>2026-04-17T13:04:38.253Z</time></trkpt><trkpt lat="43.0213017" lon="13.30183"><ele>493.66666666666663</ele><time>2026-04-17T13:04:40.253Z</time></trkpt><trkpt lat="43.021265" lon="13.30175"><ele>494.0</ele><time>2026-04-17T13:04:43.253Z</time></trkpt><trkpt lat="43.0212683" lon="13.30165"><ele>494.0</ele><time>2026-04-17T13:04:45.253Z</time></trkpt><trkpt lat="43.0213217" lon="13.3015183"><ele>494.0</ele><time>2026-04-17T13:04:47.253Z</time></trkpt><trkpt lat="43.021395" lon="13.3013783"><ele>494.0</ele><time>2026-04-17T13:04:49.253Z</time></trkpt><trkpt lat="43.0214017" lon="13.3012083"><ele>494.0</ele><time>2026-04-17T13:04:51.253Z</time></trkpt><trkpt lat="43.0213933" lon="13.3011133"><ele>494.0</ele><time>2026-04-17T13:04:52.253Z</time></trkpt><trkpt lat="43.0213783" lon="13.3010133"><ele>495.66666666666663</ele><time>2026-04-17T13:04:53.253Z</time></trkpt><trkpt lat="43.02136" lon="13.30092"><ele>497.3333333333333</ele><time>2026-04-17T13:04:54.253Z</time></trkpt><trkpt lat="43.0213317" lon="13.3008267"><ele>499.0</ele><time>2026-04-17T13:04:55.253Z</time></trkpt><trkpt lat="43.021295" lon="13.3007383"><ele>500.66666666666663</ele><time>2026-04-17T13:04:56.253Z</time></trkpt><trkpt lat="43.0212533" lon="13.3006467"><ele>502.3333333333333</ele><time>2026-04-17T13:04:57.253Z</time></trkpt><trkpt lat="43.0211967" lon="13.3005617"><ele>504.0</ele><time>2026-04-17T13:04:58.253Z</time></trkpt><trkpt lat="43.0211333" lon="13.300475"><ele>505.2</ele><time>2026-04-17T13:04:59.253Z</time></trkpt><trkpt lat="43.0210633" lon="13.3003667"><ele>506.4</ele><time>2026-04-17T13:05:00.253Z</time></trkpt><trkpt lat="43.0209833" lon="13.3002517"><ele>507.6</ele><time>2026-04-17T13:05:01.253Z</time></trkpt><trkpt lat="43.0209133" lon="13.30015"><ele>508.8</ele><time>2026-04-17T13:05:02.253Z</time></trkpt><trkpt lat="43.0208433" lon="13.30005"><ele>510.0</ele><time>2026-04-17T13:05:03.253Z</time></trkpt><trkpt lat="43.02078" lon="13.29998"><ele>510.6</ele><time>2026-04-17T13:05:04.253Z</time></trkpt><trkpt lat="43.0207" lon="13.2999267"><ele>511.2</ele><time>2026-04-17T13:05:05.253Z</time></trkpt><trkpt lat="43.0206117" lon="13.2998767"><ele>511.79999999999995</ele><time>2026-04-17T13:05:06.253Z</time></trkpt><trkpt lat="43.0205267" lon="13.2998267"><ele>512.4</ele><time>2026-04-17T13:05:07.253Z</time></trkpt><trkpt lat="43.020445" lon="13.2997733"><ele>513.0</ele><time>2026-04-17T13:05:08.253Z</time></trkpt><trkpt lat="43.02037" lon="13.2997217"><ele>514.4</ele><time>2026-04-17T13:05:09.253Z</time></trkpt><trkpt lat="43.0202817" lon="13.29967"><ele>515.8</ele><time>2026-04-17T13:05:10.253Z</time></trkpt><trkpt lat="43.0201883" lon="13.2996083"><ele>517.2</ele><time>2026-04-17T13:05:11.253Z</time></trkpt><trkpt lat="43.0200983" lon="13.2995633"><ele>518.6</ele><time>2026-04-17T13:05:12.253Z</time></trkpt><trkpt lat="43.0200133" lon="13.2995083"><ele>520.0</ele><time>2026-04-17T13:05:13.253Z</time></trkpt><trkpt lat="43.0199383" lon="13.2994633"><ele>521.4</ele><time>2026-04-17T13:05:14.253Z</time></trkpt><trkpt lat="43.01988" lon="13.2994183"><ele>522.8</ele><time>2026-04-17T13:05:15.253Z</time></trkpt><trkpt lat="43.019815" lon="13.299395"><ele>524.2</ele><time>2026-04-17T13:05:16.253Z</time></trkpt><trkpt lat="43.0197067" lon="13.2993733"><ele>525.6</ele><time>2026-04-17T13:05:18.253Z</time></trkpt><trkpt lat="43.01959" lon="13.2993583"><ele>527.0</ele><time>2026-04-17T13:05:20.253Z</time></trkpt><trkpt lat="43.0194733" lon="13.2994083"><ele>527.0</ele><time>2026-04-17T13:05:22.253Z</time></trkpt><trkpt lat="43.0194" lon="13.29945"><ele>527.0</ele><time>2026-04-17T13:05:23.253Z</time></trkpt><trkpt lat="43.019325" lon="13.2994817"><ele>527.0</ele><time>2026-04-17T13:05:24.253Z</time></trkpt><trkpt lat="43.0192617" lon="13.2994917"><ele>527.0</ele><time>2026-04-17T13:05:25.253Z</time></trkpt><trkpt lat="43.0191483" lon="13.299485"><ele>527.0</ele><time>2026-04-17T13:05:27.253Z</time></trkpt><trkpt lat="43.0190733" lon="13.2994917"><ele>527.0</ele><time>2026-04-17T13:05:29.253Z</time></trkpt><trkpt lat="43.018995" lon="13.299485"><ele>527.8000000000001</ele><time>2026-04-17T13:05:31.253Z</time></trkpt><trkpt lat="43.0189083" lon="13.299405"><ele>528.6</ele><time>2026-04-17T13:05:33.253Z</time></trkpt><trkpt lat="43.018865" lon="13.29934"><ele>529.4000000000001</ele><time>2026-04-17T13:05:34.253Z</time></trkpt><trkpt lat="43.0188217" lon="13.2992683"><ele>530.2</ele><time>2026-04-17T13:05:35.253Z</time></trkpt><trkpt lat="43.01877" lon="13.29916"><ele>531.0</ele><time>2026-04-17T13:05:37.253Z</time></trkpt><trkpt lat="43.018755" lon="13.2989617"><ele>532.1666666666666</ele><time>2026-04-17T13:05:53.253Z</time></trkpt><trkpt lat="43.01874" lon="13.2988467"><ele>533.3333333333334</ele><time>2026-04-17T13:05:55.253Z</time></trkpt><trkpt lat="43.0186983" lon="13.2987467"><ele>534.5</ele><time>2026-04-17T13:05:57.253Z</time></trkpt><trkpt lat="43.018645" lon="13.2986733"><ele>535.6666666666667</ele><time>2026-04-17T13:05:59.253Z</time></trkpt><trkpt lat="43.01858" lon="13.2986217"><ele>536.8333333333334</ele><time>2026-04-17T13:06:02.253Z</time></trkpt><trkpt lat="43.0184967" lon="13.2985883"><ele>538.0</ele><time>2026-04-17T13:07:11.252Z</time></trkpt><trkpt lat="43.0184233" lon="13.2985483"><ele>538.0</ele><time>2026-04-17T13:07:13.252Z</time></trkpt><trkpt lat="43.0183283" lon="13.2984883"><ele>538.0</ele><time>2026-04-17T13:07:15.252Z</time></trkpt><trkpt lat="43.0182133" lon="13.2984117"><ele>538.0</ele><time>2026-04-17T13:07:17.252Z</time></trkpt><trkpt lat="43.018105" lon="13.2983533"><ele>538.0</ele><time>2026-04-17T13:07:19.252Z</time></trkpt><trkpt lat="43.01804" lon="13.2983217"><ele>538.0</ele><time>2026-04-17T13:07:20.252Z</time></trkpt><trkpt lat="43.017975" lon="13.29829"><ele>538.8333333333334</ele><time>2026-04-17T13:07:21.252Z</time></trkpt><trkpt lat="43.0178933" lon="13.2982583"><ele>539.6666666666667</ele><time>2026-04-17T13:07:22.252Z</time></trkpt><trkpt lat="43.0178133" lon="13.29823"><ele>540.5</ele><time>2026-04-17T13:07:23.252Z</time></trkpt><trkpt lat="43.0177267" lon="13.2981983"><ele>541.3333333333334</ele><time>2026-04-17T13:07:24.252Z</time></trkpt><trkpt lat="43.01765" lon="13.2981667"><ele>542.1666666666666</ele><time>2026-04-17T13:07:25.252Z</time></trkpt><trkpt lat="43.01758" lon="13.2981317"><ele>543.0</ele><time>2026-04-17T13:07:26.252Z</time></trkpt><trkpt lat="43.0175133" lon="13.2980917"><ele>546.0</ele><time>2026-04-17T13:07:27.252Z</time></trkpt><trkpt lat="43.0174117" lon="13.29803"><ele>549.0</ele><time>2026-04-17T13:07:29.252Z</time></trkpt><trkpt lat="43.0173283" lon="13.2979917"><ele>552.0</ele><time>2026-04-17T13:07:31.252Z</time></trkpt><trkpt lat="43.0172533" lon="13.2979833"><ele>555.0</ele><time>2026-04-17T13:07:33.252Z</time></trkpt><trkpt lat="43.0171533" lon="13.2980067"><ele>558.0</ele><time>2026-04-17T13:07:35.252Z</time></trkpt><trkpt lat="43.017065" lon="13.2979983"><ele>558.0</ele><time>2026-04-17T13:07:37.252Z</time></trkpt><trkpt lat="43.0169883" lon="13.2979683"><ele>558.0</ele><time>2026-04-17T13:07:39.252Z</time></trkpt><trkpt lat="43.0169133" lon="13.2979283"><ele>558.0</ele><time>2026-04-17T13:07:41.252Z</time></trkpt><trkpt lat="43.016825" lon="13.2978833"><ele>558.0</ele><time>2026-04-17T13:07:43.252Z</time></trkpt><trkpt lat="43.0167633" lon="13.2978383"><ele>558.0</ele><time>2026-04-17T13:07:45.252Z</time></trkpt><trkpt lat="43.01667" lon="13.297785"><ele>558.0</ele><time>2026-04-17T13:07:48.252Z</time></trkpt><trkpt lat="43.016615" lon="13.2977317"><ele>560.4</ele><time>2026-04-17T13:07:50.252Z</time></trkpt><trkpt lat="43.0165483" lon="13.2976583"><ele>562.8</ele><time>2026-04-17T13:07:52.252Z</time></trkpt><trkpt lat="43.016475" lon="13.29757"><ele>565.2</ele><time>2026-04-17T13:07:54.252Z</time></trkpt><trkpt lat="43.01639" lon="13.297475"><ele>567.6</ele><time>2026-04-17T13:07:56.252Z</time></trkpt><trkpt lat="43.01631" lon="13.297395"><ele>570.0</ele><time>2026-04-17T13:07:58.252Z</time></trkpt><trkpt lat="43.0162183" lon="13.297335"><ele>570.0</ele><time>2026-04-17T13:08:00.252Z</time></trkpt><trkpt lat="43.0160867" lon="13.29726"><ele>570.0</ele><time>2026-04-17T13:08:02.252Z</time></trkpt><trkpt lat="43.0160133" lon="13.2972233"><ele>570.0</ele><time>2026-04-17T13:08:03.252Z</time></trkpt><trkpt lat="43.015955" lon="13.2971883"><ele>570.0</ele><time>2026-04-17T13:08:04.252Z</time></trkpt><trkpt lat="43.01587" lon="13.297125"><ele>570.0</ele><time>2026-04-17T13:08:06.252Z</time></trkpt><trkpt lat="43.0157967" lon="13.2970617"><ele>573.1666666666666</ele><time>2026-04-17T13:08:09.252Z</time></trkpt><trkpt lat="43.0157333" lon="13.2970233"><ele>576.3333333333334</ele><time>2026-04-17T13:08:11.251Z</time></trkpt><trkpt lat="43.0156633" lon="13.2969783"><ele>579.5</ele><time>2026-04-17T13:08:13.252Z</time></trkpt><trkpt lat="43.01558" lon="13.2969283"><ele>582.6666666666667</ele><time>2026-04-17T13:08:15.252Z</time></trkpt><trkpt lat="43.0154833" lon="13.29688"><ele>585.8333333333334</ele><time>2026-04-17T13:08:17.252Z</time></trkpt><trkpt lat="43.0153867" lon="13.2968317"><ele>589.0</ele><time>2026-04-17T13:08:19.252Z</time></trkpt><trkpt lat="43.0152967" lon="13.29679"><ele>589.0</ele><time>2026-04-17T13:08:21.252Z</time></trkpt><trkpt lat="43.0152083" lon="13.2967183"><ele>589.0</ele><time>2026-04-17T13:08:23.252Z</time></trkpt><trkpt lat="43.0151417" lon="13.29665"><ele>589.0</ele><time>2026-04-17T13:08:25.252Z</time></trkpt><trkpt lat="43.01516" lon="13.2965567"><ele>589.0</ele><time>2026-04-17T13:08:44.252Z</time></trkpt><trkpt lat="43.0152667" lon="13.2964933"><ele>589.0</ele><time>2026-04-17T13:08:46.252Z</time></trkpt><trkpt lat="43.01533" lon="13.2964567"><ele>589.0</ele><time>2026-04-17T13:08:47.252Z</time></trkpt><trkpt lat="43.01539" lon="13.29641"><ele>591.6</ele><time>2026-04-17T13:08:48.252Z</time></trkpt><trkpt lat="43.01544" lon="13.2963517"><ele>594.2</ele><time>2026-04-17T13:08:49.252Z</time></trkpt><trkpt lat="43.0155" lon="13.29621"><ele>596.8000000000001</ele><time>2026-04-17T13:08:51.252Z</time></trkpt><trkpt lat="43.01553" lon="13.2961"><ele>599.4</ele><time>2026-04-17T13:08:52.252Z</time></trkpt><trkpt lat="43.01557" lon="13.29596"><ele>602.0</ele><time>2026-04-17T13:08:53.252Z</time></trkpt><trkpt lat="43.015625" lon="13.2958067"><ele>602.0</ele><time>2026-04-17T13:08:54.252Z</time></trkpt><trkpt lat="43.015685" lon="13.2956417"><ele>602.0</ele><time>2026-04-17T13:08:55.252Z</time></trkpt><trkpt lat="43.0157567" lon="13.2954633"><ele>602.0</ele><time>2026-04-17T13:08:56.252Z</time></trkpt><trkpt lat="43.015825" lon="13.295295"><ele>602.0</ele><time>2026-04-17T13:08:57.252Z</time></trkpt><trkpt lat="43.0158767" lon="13.2951633"><ele>601.1666666666666</ele><time>2026-04-17T13:08:58.252Z</time></trkpt><trkpt lat="43.015915" lon="13.29507"><ele>600.3333333333333</ele><time>2026-04-17T13:08:59.252Z</time></trkpt><trkpt lat="43.015945" lon="13.2949867"><ele>599.5</ele><time>2026-04-17T13:09:00.252Z</time></trkpt><trkpt lat="43.0160183" lon="13.2948467"><ele>598.6666666666666</ele><time>2026-04-17T13:09:02.252Z</time></trkpt><trkpt lat="43.0160667" lon="13.2947667"><ele>597.8333333333334</ele><time>2026-04-17T13:09:03.252Z</time></trkpt><trkpt lat="43.01612" lon="13.294695"><ele>597.0</ele><time>2026-04-17T13:09:04.252Z</time></trkpt><trkpt lat="43.0161683" lon="13.2946217"><ele>597.0</ele><time>2026-04-17T13:09:05.252Z</time></trkpt><trkpt lat="43.0162233" lon="13.2945417"><ele>597.0</ele><time>2026-04-17T13:09:06.252Z</time></trkpt><trkpt lat="43.0162833" lon="13.2944333"><ele>597.0</ele><time>2026-04-17T13:09:07.252Z</time></trkpt><trkpt lat="43.01633" lon="13.2943267"><ele>597.0</ele><time>2026-04-17T13:09:08.252Z</time></trkpt><trkpt lat="43.0163717" lon="13.2942367"><ele>597.0</ele><time>2026-04-17T13:09:09.252Z</time></trkpt><trkpt lat="43.016405" lon="13.2941517"><ele>597.0</ele><time>2026-04-17T13:09:10.252Z</time></trkpt><trkpt lat="43.0164383" lon="13.2940783"><ele>597.0</ele><time>2026-04-17T13:09:11.252Z</time></trkpt><trkpt lat="43.0164767" lon="13.2939867"><ele>597.0</ele><time>2026-04-17T13:09:13.252Z</time></trkpt><trkpt lat="43.0164183" lon="13.293925"><ele>597.0</ele><time>2026-04-17T13:09:16.252Z</time></trkpt><trkpt lat="43.0163167" lon="13.2939417"><ele>597.0</ele><time>2026-04-17T13:09:18.252Z</time></trkpt><trkpt lat="43.0162467" lon="13.293955"><ele>597.0</ele><time>2026-04-17T13:09:19.252Z</time></trkpt><trkpt lat="43.0161633" lon="13.2939717"><ele>597.0</ele><time>2026-04-17T13:09:20.252Z</time></trkpt><trkpt lat="43.0160633" lon="13.2939983"><ele>597.0</ele><time>2026-04-17T13:09:21.252Z</time></trkpt><trkpt lat="43.01595" lon="13.2940333"><ele>597.0</ele><time>2026-04-17T13:09:22.252Z</time></trkpt><trkpt lat="43.0158283" lon="13.2940767"><ele>597.0</ele><time>2026-04-17T13:09:23.252Z</time></trkpt><trkpt lat="43.0156967" lon="13.2941333"><ele>597.0</ele><time>2026-04-17T13:09:24.252Z</time></trkpt><trkpt lat="43.015555" lon="13.29419"><ele>598.0</ele><time>2026-04-17T13:09:25.252Z</time></trkpt><trkpt lat="43.015405" lon="13.2942433"><ele>599.0</ele><time>2026-04-17T13:09:26.252Z</time></trkpt><trkpt lat="43.015265" lon="13.2942983"><ele>600.0</ele><time>2026-04-17T13:09:27.252Z</time></trkpt><trkpt lat="43.015135" lon="13.2943567"><ele>601.0</ele><time>2026-04-17T13:09:28.252Z</time></trkpt><trkpt lat="43.014995" lon="13.2944183"><ele>603.25</ele><time>2026-04-17T13:09:29.252Z</time></trkpt><trkpt lat="43.01487" lon="13.2944917"><ele>605.5</ele><time>2026-04-17T13:09:30.252Z</time></trkpt><trkpt lat="43.0147583" lon="13.29458"><ele>607.75</ele><time>2026-04-17T13:09:31.252Z</time></trkpt><trkpt lat="43.01464" lon="13.29467"><ele>610.0</ele><time>2026-04-17T13:09:32.252Z</time></trkpt><trkpt lat="43.014515" lon="13.2947767"><ele>610.0</ele><time>2026-04-17T13:09:33.252Z</time></trkpt><trkpt lat="43.0144033" lon="13.2948933"><ele>610.0</ele><time>2026-04-17T13:09:34.252Z</time></trkpt><trkpt lat="43.0142967" lon="13.2949967"><ele>610.0</ele><time>2026-04-17T13:09:35.252Z</time></trkpt><trkpt lat="43.0141917" lon="13.2951033"><ele>610.0</ele><time>2026-04-17T13:09:36.252Z</time></trkpt><trkpt lat="43.014065" lon="13.2951983"><ele>606.25</ele><time>2026-04-17T13:09:37.252Z</time></trkpt><trkpt lat="43.0139383" lon="13.2952983"><ele>602.5</ele><time>2026-04-17T13:09:38.252Z</time></trkpt><trkpt lat="43.0138083" lon="13.2953933"><ele>598.75</ele><time>2026-04-17T13:09:39.252Z</time></trkpt><trkpt lat="43.0136867" lon="13.2954833"><ele>595.0</ele><time>2026-04-17T13:09:40.252Z</time></trkpt><trkpt lat="43.0135683" lon="13.2955733"><ele>598.0</ele><time>2026-04-17T13:09:41.252Z</time></trkpt><trkpt lat="43.0134467" lon="13.29567"><ele>601.0</ele><time>2026-04-17T13:09:42.252Z</time></trkpt><trkpt lat="43.0133167" lon="13.2957617"><ele>604.0</ele><time>2026-04-17T13:09:43.252Z</time></trkpt><trkpt lat="43.0131833" lon="13.2958633"><ele>607.0</ele><time>2026-04-17T13:09:44.252Z</time></trkpt><trkpt lat="43.0130417" lon="13.295965"><ele>607.0</ele><time>2026-04-17T13:09:45.252Z</time></trkpt><trkpt lat="43.0129" lon="13.2960883"><ele>607.0</ele><time>2026-04-17T13:09:46.252Z</time></trkpt><trkpt lat="43.0127517" lon="13.29622"><ele>607.0</ele><time>2026-04-17T13:09:47.252Z</time></trkpt><trkpt lat="43.0125917" lon="13.2963567"><ele>614.3333333333334</ele><time>2026-04-17T13:09:48.252Z</time></trkpt><trkpt lat="43.0124333" lon="13.2965083"><ele>621.6666666666666</ele><time>2026-04-17T13:09:49.252Z</time></trkpt><trkpt lat="43.0122917" lon="13.2966517"><ele>629.0</ele><time>2026-04-17T13:09:50.252Z</time></trkpt><trkpt lat="43.0121617" lon="13.2967767"><ele>629.0</ele><time>2026-04-17T13:09:51.25Z</time></trkpt><trkpt lat="43.0120267" lon="13.2968867"><ele>629.0</ele><time>2026-04-17T13:09:52.252Z</time></trkpt><trkpt lat="43.0119017" lon="13.2969683"><ele>629.0</ele><time>2026-04-17T13:09:53.252Z</time></trkpt><trkpt lat="43.0117767" lon="13.2970333"><ele>629.0</ele><time>2026-04-17T13:09:54.252Z</time></trkpt><trkpt lat="43.0116567" lon="13.2970817"><ele>628.5</ele><time>2026-04-17T13:09:55.252Z</time></trkpt><trkpt lat="43.011545" lon="13.2971117"><ele>628.0</ele><time>2026-04-17T13:09:56.252Z</time></trkpt><trkpt lat="43.0114367" lon="13.2971433"><ele>627.5</ele><time>2026-04-17T13:09:57.252Z</time></trkpt><trkpt lat="43.011325" lon="13.2972017"><ele>627.0</ele><time>2026-04-17T13:09:58.252Z</time></trkpt><trkpt lat="43.0112117" lon="13.2972667"><ele>633.0</ele><time>2026-04-17T13:09:59.252Z</time></trkpt><trkpt lat="43.0110983" lon="13.29734"><ele>639.0</ele><time>2026-04-17T13:10:00.252Z</time></trkpt><trkpt lat="43.010975" lon="13.297395"><ele>645.0</ele><time>2026-04-17T13:10:01.252Z</time></trkpt><trkpt lat="43.01084" lon="13.2974567"><ele>651.0</ele><time>2026-04-17T13:10:02.252Z</time></trkpt><trkpt lat="43.010695" lon="13.29752"><ele>651.25</ele><time>2026-04-17T13:10:03.252Z</time></trkpt><trkpt lat="43.01054" lon="13.2975867"><ele>651.5</ele><time>2026-04-17T13:10:04.252Z</time></trkpt><trkpt lat="43.0104" lon="13.29764"><ele>651.75</ele><time>2026-04-17T13:10:05.252Z</time></trkpt><trkpt lat="43.0102783" lon="13.2976833"><ele>652.0</ele><time>2026-04-17T13:10:06.252Z</time></trkpt><trkpt lat="43.01017" lon="13.2977233"><ele>652.0</ele><time>2026-04-17T13:10:07.252Z</time></trkpt><trkpt lat="43.0100667" lon="13.2977617"><ele>652.0</ele><time>2026-04-17T13:10:08.252Z</time></trkpt><trkpt lat="43.0099617" lon="13.2978"><ele>652.0</ele><time>2026-04-17T13:10:09.252Z</time></trkpt><trkpt lat="43.00986" lon="13.297835"><ele>652.0</ele><time>2026-04-17T13:10:10.252Z</time></trkpt><trkpt lat="43.00976" lon="13.2978783"><ele>652.0</ele><time>2026-04-17T13:10:11.252Z</time></trkpt><trkpt lat="43.0096767" lon="13.29792"><ele>651.5714285714286</ele><time>2026-04-17T13:10:12.252Z</time></trkpt><trkpt lat="43.0096083" lon="13.29797"><ele>651.1428571428571</ele><time>2026-04-17T13:10:13.252Z</time></trkpt><trkpt lat="43.009545" lon="13.2980117"><ele>650.7142857142857</ele><time>2026-04-17T13:10:14.252Z</time></trkpt><trkpt lat="43.0094717" lon="13.2980333"><ele>650.2857142857142</ele><time>2026-04-17T13:10:15.252Z</time></trkpt><trkpt lat="43.0093983" lon="13.2980417"><ele>649.8571428571429</ele><time>2026-04-17T13:10:16.252Z</time></trkpt><trkpt lat="43.00933" lon="13.2980533"><ele>649.4285714285713</ele><time>2026-04-17T13:10:17.252Z</time></trkpt><trkpt lat="43.009265" lon="13.2980583"><ele>649.0</ele><time>2026-04-17T13:10:18.252Z</time></trkpt><trkpt lat="43.0091967" lon="13.29807"><ele>652.8333333333334</ele><time>2026-04-17T13:10:19.252Z</time></trkpt><trkpt lat="43.0091183" lon="13.2980883"><ele>656.6666666666667</ele><time>2026-04-17T13:10:20.252Z</time></trkpt><trkpt lat="43.0090433" lon="13.2981"><ele>660.5</ele><time>2026-04-17T13:10:21.252Z</time></trkpt><trkpt lat="43.0089633" lon="13.298115"><ele>664.3333333333334</ele><time>2026-04-17T13:10:22.252Z</time></trkpt><trkpt lat="43.0088817" lon="13.298135"><ele>668.1666666666666</ele><time>2026-04-17T13:10:23.252Z</time></trkpt><trkpt lat="43.0087933" lon="13.29817"><ele>672.0</ele><time>2026-04-17T13:10:24.252Z</time></trkpt><trkpt lat="43.0087" lon="13.2982083"><ele>672.0</ele><time>2026-04-17T13:10:25.252Z</time></trkpt><trkpt lat="43.0086017" lon="13.2982417"><ele>672.0</ele><time>2026-04-17T13:10:26.252Z</time></trkpt><trkpt lat="43.008505" lon="13.2982733"><ele>672.0</ele><time>2026-04-17T13:10:27.252Z</time></trkpt><trkpt lat="43.0084017" lon="13.2983117"><ele>672.0</ele><time>2026-04-17T13:10:28.252Z</time></trkpt><trkpt lat="43.0083033" lon="13.2983433"><ele>672.0</ele><time>2026-04-17T13:10:29.252Z</time></trkpt><trkpt lat="43.0082083" lon="13.2983867"><ele>672.4000000000001</ele><time>2026-04-17T13:10:30.252Z</time></trkpt><trkpt lat="43.00811" lon="13.29842"><ele>672.8000000000001</ele><time>2026-04-17T13:10:31.251Z</time></trkpt><trkpt lat="43.0080133" lon="13.298455"><ele>673.2</ele><time>2026-04-17T13:10:32.252Z</time></trkpt><trkpt lat="43.0079183" lon="13.298485"><ele>673.6</ele><time>2026-04-17T13:10:33.252Z</time></trkpt><trkpt lat="43.0078233" lon="13.2985067"><ele>674.0</ele><time>2026-04-17T13:10:34.252Z</time></trkpt><trkpt lat="43.00774" lon="13.29852"><ele>674.0</ele><time>2026-04-17T13:10:35.252Z</time></trkpt><trkpt lat="43.0076517" lon="13.29853"><ele>674.0</ele><time>2026-04-17T13:10:36.252Z</time></trkpt><trkpt lat="43.0075533" lon="13.2985483"><ele>674.0</ele><time>2026-04-17T13:10:37.252Z</time></trkpt><trkpt lat="43.00746" lon="13.2985733"><ele>674.0</ele><time>2026-04-17T13:10:38.252Z</time></trkpt><trkpt lat="43.0073583" lon="13.2985967"><ele>674.0</ele><time>2026-04-17T13:10:39.252Z</time></trkpt><trkpt lat="43.0072733" lon="13.2986083"><ele>675.0</ele><time>2026-04-17T13:10:40.252Z</time></trkpt><trkpt lat="43.0071967" lon="13.29862"><ele>676.0</ele><time>2026-04-17T13:10:41.252Z</time></trkpt><trkpt lat="43.0071267" lon="13.2986383"><ele>677.0</ele><time>2026-04-17T13:10:42.252Z</time></trkpt><trkpt lat="43.0070533" lon="13.298655"><ele>678.0</ele><time>2026-04-17T13:10:43.252Z</time></trkpt><trkpt lat="43.00698" lon="13.2986733"><ele>679.0</ele><time>2026-04-17T13:10:44.252Z</time></trkpt><trkpt lat="43.0068967" lon="13.2986933"><ele>680.0</ele><time>2026-04-17T13:10:45.252Z</time></trkpt><trkpt lat="43.00681" lon="13.298715"><ele>680.0</ele><time>2026-04-17T13:10:46.252Z</time></trkpt><trkpt lat="43.006705" lon="13.29874"><ele>680.0</ele><time>2026-04-17T13:10:47.252Z</time></trkpt><trkpt lat="43.006585" lon="13.2987617"><ele>680.0</ele><time>2026-04-17T13:10:48.252Z</time></trkpt><trkpt lat="43.00647" lon="13.2987817"><ele>680.0</ele><time>2026-04-17T13:10:49.251Z</time></trkpt><trkpt lat="43.0063533" lon="13.298805"><ele>683.0</ele><time>2026-04-17T13:10:50.252Z</time></trkpt><trkpt lat="43.0062367" lon="13.2988267"><ele>686.0</ele><time>2026-04-17T13:10:51.252Z</time></trkpt><trkpt lat="43.006135" lon="13.2988533"><ele>689.0</ele><time>2026-04-17T13:10:52.252Z</time></trkpt><trkpt lat="43.0060367" lon="13.298875"><ele>692.0</ele><time>2026-04-17T13:10:53.252Z</time></trkpt><trkpt lat="43.0059483" lon="13.29889"><ele>695.0</ele><time>2026-04-17T13:10:54.252Z</time></trkpt><trkpt lat="43.0058433" lon="13.2989083"><ele>696.8333333333333</ele><time>2026-04-17T13:10:55.252Z</time></trkpt><trkpt lat="43.0057533" lon="13.2989467"><ele>698.6666666666666</ele><time>2026-04-17T13:10:56.252Z</time></trkpt><trkpt lat="43.005675" lon="13.298995"><ele>700.5</ele><time>2026-04-17T13:10:57.252Z</time></trkpt><trkpt lat="43.0056067" lon="13.2990467"><ele>702.3333333333334</ele><time>2026-04-17T13:10:58.252Z</time></trkpt><trkpt lat="43.005545" lon="13.2990817"><ele>704.1666666666667</ele><time>2026-04-17T13:10:59.252Z</time></trkpt><trkpt lat="43.0054783" lon="13.2991167"><ele>706.0</ele><time>2026-04-17T13:11:00.252Z</time></trkpt><trkpt lat="43.00536" lon="13.2991617"><ele>706.0</ele><time>2026-04-17T13:11:02.252Z</time></trkpt><trkpt lat="43.00524" lon="13.2992017"><ele>706.0</ele><time>2026-04-17T13:11:04.252Z</time></trkpt><trkpt lat="43.0051333" lon="13.2992367"><ele>706.0</ele><time>2026-04-17T13:11:06.252Z</time></trkpt><trkpt lat="43.00501" lon="13.299215"><ele>706.0</ele><time>2026-04-17T13:11:08.252Z</time></trkpt><trkpt lat="43.0049467" lon="13.2991867"><ele>706.0</ele><time>2026-04-17T13:11:09.252Z</time></trkpt><trkpt lat="43.004885" lon="13.2991467"><ele>706.3333333333334</ele><time>2026-04-17T13:11:10.252Z</time></trkpt><trkpt lat="43.0048217" lon="13.2991167"><ele>706.6666666666667</ele><time>2026-04-17T13:11:11.252Z</time></trkpt><trkpt lat="43.0047417" lon="13.2990967"><ele>707.0</ele><time>2026-04-17T13:11:12.252Z</time></trkpt><trkpt lat="43.00466" lon="13.2990833"><ele>707.3333333333334</ele><time>2026-04-17T13:11:13.252Z</time></trkpt><trkpt lat="43.0045517" lon="13.2990683"><ele>707.6666666666666</ele><time>2026-04-17T13:11:15.252Z</time></trkpt><trkpt lat="43.004475" lon="13.299065"><ele>708.0</ele><time>2026-04-17T13:11:21.252Z</time></trkpt><trkpt lat="43.004405" lon="13.299085"><ele>708.0</ele><time>2026-04-17T13:12:17.252Z</time></trkpt><trkpt lat="43.004315" lon="13.2991283"><ele>708.0</ele><time>2026-04-17T13:12:20.252Z</time></trkpt><trkpt lat="43.0042067" lon="13.2991533"><ele>708.0</ele><time>2026-04-17T13:12:22.252Z</time></trkpt><trkpt lat="43.0041333" lon="13.2991683"><ele>708.0</ele><time>2026-04-17T13:12:23.252Z</time></trkpt><trkpt lat="43.0040483" lon="13.299185"><ele>708.0</ele><time>2026-04-17T13:12:24.252Z</time></trkpt><trkpt lat="43.003975" lon="13.2992033"><ele>708.0</ele><time>2026-04-17T13:12:25.251Z</time></trkpt><trkpt lat="43.0038967" lon="13.299215"><ele>710.3333333333334</ele><time>2026-04-17T13:12:26.252Z</time></trkpt><trkpt lat="43.0038267" lon="13.29923"><ele>712.6666666666666</ele><time>2026-04-17T13:12:27.252Z</time></trkpt><trkpt lat="43.00376" lon="13.2992583"><ele>715.0</ele><time>2026-04-17T13:12:28.252Z</time></trkpt><trkpt lat="43.0037117" lon="13.2993183"><ele>717.3333333333333</ele><time>2026-04-17T13:12:29.252Z</time></trkpt><trkpt lat="43.0036633" lon="13.2993833"><ele>719.6666666666666</ele><time>2026-04-17T13:12:30.252Z</time></trkpt><trkpt lat="43.003575" lon="13.2994567"><ele>722.0</ele><time>2026-04-17T13:12:32.252Z</time></trkpt><trkpt lat="43.00348" lon="13.29949"><ele>722.0</ele><time>2026-04-17T13:12:34.252Z</time></trkpt><trkpt lat="43.0033767" lon="13.2995067"><ele>722.0</ele><time>2026-04-17T13:12:36.252Z</time></trkpt><trkpt lat="43.0032833" lon="13.2995183"><ele>722.0</ele><time>2026-04-17T13:12:38.252Z</time></trkpt><trkpt lat="43.0031717" lon="13.2995067"><ele>722.0</ele><time>2026-04-17T13:12:40.252Z</time></trkpt><trkpt lat="43.0031033" lon="13.2995083"><ele>722.0</ele><time>2026-04-17T13:12:41.252Z</time></trkpt><trkpt lat="43.0030067" lon="13.2995183"><ele>724.8333333333333</ele><time>2026-04-17T13:12:43.252Z</time></trkpt><trkpt lat="43.0029417" lon="13.2995167"><ele>727.6666666666666</ele><time>2026-04-17T13:12:45.252Z</time></trkpt><trkpt lat="43.002845" lon="13.2995233"><ele>730.5</ele><time>2026-04-17T13:12:47.252Z</time></trkpt><trkpt lat="43.0027817" lon="13.2995367"><ele>733.3333333333334</ele><time>2026-04-17T13:12:48.252Z</time></trkpt><trkpt lat="43.0026983" lon="13.2995583"><ele>736.1666666666667</ele><time>2026-04-17T13:12:49.252Z</time></trkpt><trkpt lat="43.0026117" lon="13.299595"><ele>739.0</ele><time>2026-04-17T13:12:50.252Z</time></trkpt><trkpt lat="43.0025333" lon="13.2996333"><ele>740.0</ele><time>2026-04-17T13:12:51.252Z</time></trkpt><trkpt lat="43.0024567" lon="13.2996917"><ele>741.0</ele><time>2026-04-17T13:12:52.252Z</time></trkpt><trkpt lat="43.0023917" lon="13.29974"><ele>742.0</ele><time>2026-04-17T13:12:53.252Z</time></trkpt><trkpt lat="43.0023" lon="13.2997933"><ele>743.0</ele><time>2026-04-17T13:12:55.252Z</time></trkpt><trkpt lat="43.0022283" lon="13.2998633"><ele>744.0</ele><time>2026-04-17T13:13:04.252Z</time></trkpt><trkpt lat="43.002155" lon="13.29982"><ele>745.0</ele><time>2026-04-17T13:13:08.252Z</time></trkpt><trkpt lat="43.0021183" lon="13.2997133"><ele>745.0</ele><time>2026-04-17T13:13:11.252Z</time></trkpt><trkpt lat="43.0020753" lon="13.2996409"><ele>745.0</ele><time>2026-04-17T13:13:14.215Z</time></trkpt><trkpt lat="43.0020602" lon="13.299549"><ele>745.0</ele><time>2026-04-17T13:13:16.254Z</time></trkpt><trkpt lat="43.0020211" lon="13.299459"><ele>745.0</ele><time>2026-04-17T13:13:18.288Z</time></trkpt><trkpt lat="43.0019267" lon="13.2992467"><ele>745.0</ele><time>2026-04-17T13:13:19.252Z</time></trkpt><trkpt lat="43.0018483" lon="13.2992083"><ele>745.0</ele><time>2026-04-17T13:13:21.252Z</time></trkpt><trkpt lat="43.00178" lon="13.2991733"><ele>745.0</ele><time>2026-04-17T13:13:23.252Z</time></trkpt><trkpt lat="43.0017017" lon="13.2990767"><ele>745.0</ele><time>2026-04-17T13:13:25.252Z</time></trkpt><trkpt lat="43.0016317" lon="13.298995"><ele>745.0</ele><time>2026-04-17T13:13:27.252Z</time></trkpt><trkpt lat="43.00155" lon="13.298915"><ele>745.0</ele><time>2026-04-17T13:13:29.252Z</time></trkpt><trkpt lat="43.0014733" lon="13.29885"><ele>748.3333333333334</ele><time>2026-04-17T13:13:31.252Z</time></trkpt><trkpt lat="43.0014067" lon="13.298825"><ele>751.6666666666667</ele><time>2026-04-17T13:13:33.252Z</time></trkpt><trkpt lat="43.0013383" lon="13.2988217"><ele>755.0</ele><time>2026-04-17T13:13:35.248Z</time></trkpt><trkpt lat="43.00125" lon="13.29882"><ele>758.3333333333334</ele><time>2026-04-17T13:13:37.251Z</time></trkpt><trkpt lat="43.0011533" lon="13.2988183"><ele>761.6666666666666</ele><time>2026-04-17T13:13:39.251Z</time></trkpt><trkpt lat="43.0010517" lon="13.2987983"><ele>765.0</ele><time>2026-04-17T13:13:41.251Z</time></trkpt><trkpt lat="43.0009667" lon="13.2987867"><ele>765.0000000000001</ele><time>2026-04-17T13:13:43.251Z</time></trkpt><trkpt lat="43.0008983" lon="13.2988083"><ele>765.0</ele><time>2026-04-17T13:13:45.251Z</time></trkpt><trkpt lat="43.0008317" lon="13.29883"><ele>765.0</ele><time>2026-04-17T13:13:47.251Z</time></trkpt><trkpt lat="43.0007633" lon="13.298835"><ele>765.0</ele><time>2026-04-17T13:13:49.251Z</time></trkpt><trkpt lat="43.000695" lon="13.298835"><ele>765.0</ele><time>2026-04-17T13:13:51.251Z</time></trkpt><trkpt lat="43.0006167" lon="13.2988233"><ele>765.0000000000001</ele><time>2026-04-17T13:13:54.251Z</time></trkpt><trkpt lat="43.0006617" lon="13.2987533"><ele>765.0</ele><time>2026-04-17T13:15:35.251Z</time></trkpt><trkpt lat="43.000665" lon="13.298665"><ele>765.8333333333334</ele><time>2026-04-17T13:15:39.251Z</time></trkpt><trkpt lat="43.0006083" lon="13.2986233"><ele>766.6666666666667</ele><time>2026-04-17T13:15:41.251Z</time></trkpt><trkpt lat="43.0005433" lon="13.2985783"><ele>767.5</ele><time>2026-04-17T13:15:43.251Z</time></trkpt><trkpt lat="43.0004817" lon="13.2985067"><ele>768.3333333333334</ele><time>2026-04-17T13:15:45.251Z</time></trkpt><trkpt lat="43.000405" lon="13.2984083"><ele>769.1666666666667</ele><time>2026-04-17T13:15:47.251Z</time></trkpt><trkpt lat="43.0003367" lon="13.298345"><ele>770.0</ele><time>2026-04-17T13:15:49.251Z</time></trkpt><trkpt lat="43.0002683" lon="13.2982833"><ele>770.0</ele><time>2026-04-17T13:21:27.25Z</time></trkpt><trkpt lat="43.0002" lon="13.29822"><ele>770.0</ele><time>2026-04-17T13:21:29.25Z</time></trkpt><trkpt lat="43.000105" lon="13.2982033"><ele>770.0</ele><time>2026-04-17T13:21:31.25Z</time></trkpt><trkpt lat="43.00001" lon="13.2981517"><ele>770.0</ele><time>2026-04-17T13:21:33.25Z</time></trkpt><trkpt lat="42.9999067" lon="13.2980867"><ele>770.0</ele><time>2026-04-17T13:21:35.25Z</time></trkpt><trkpt lat="42.999825" lon="13.2980517"><ele>769.5000000000001</ele><time>2026-04-17T13:21:37.25Z</time></trkpt><trkpt lat="42.99975" lon="13.2980383"><ele>769.0</ele><time>2026-04-17T13:21:39.25Z</time></trkpt><trkpt lat="42.9996583" lon="13.29799"><ele>768.5</ele><time>2026-04-17T13:21:42.25Z</time></trkpt><trkpt lat="42.999575" lon="13.2979833"><ele>768.0</ele><time>2026-04-17T13:21:44.25Z</time></trkpt><trkpt lat="42.9994917" lon="13.297975"><ele>767.5</ele><time>2026-04-17T13:21:46.249Z</time></trkpt><trkpt lat="42.9994217" lon="13.2979517"><ele>767.0</ele><time>2026-04-17T13:21:48.25Z</time></trkpt><trkpt lat="42.999335" lon="13.2979667"><ele>767.0</ele><time>2026-04-17T13:21:50.25Z</time></trkpt><trkpt lat="42.99924" lon="13.2979717"><ele>767.0</ele><time>2026-04-17T13:21:52.25Z</time></trkpt><trkpt lat="42.9991233" lon="13.297975"><ele>767.0</ele><time>2026-04-17T13:21:54.25Z</time></trkpt><trkpt lat="42.9990083" lon="13.2979567"><ele>767.0</ele><time>2026-04-17T13:21:56.25Z</time></trkpt><trkpt lat="42.998895" lon="13.297935"><ele>767.0</ele><time>2026-04-17T13:21:58.25Z</time></trkpt><trkpt lat="42.9988267" lon="13.29791"><ele>766.5</ele><time>2026-04-17T13:21:59.25Z</time></trkpt><trkpt lat="42.9987583" lon="13.2978783"><ele>766.0</ele><time>2026-04-17T13:22:00.25Z</time></trkpt><trkpt lat="42.9986867" lon="13.2978467"><ele>765.5</ele><time>2026-04-17T13:22:01.25Z</time></trkpt><trkpt lat="42.9986233" lon="13.2978083"><ele>765.0</ele><time>2026-04-17T13:22:02.25Z</time></trkpt><trkpt lat="42.998505" lon="13.2977567"><ele>764.5</ele><time>2026-04-17T13:22:04.25Z</time></trkpt><trkpt lat="42.9984367" lon="13.2977217"><ele>764.0</ele><time>2026-04-17T13:22:05.249Z</time></trkpt><trkpt lat="42.998365" lon="13.2976917"><ele>764.1666666666666</ele><time>2026-04-17T13:22:06.25Z</time></trkpt><trkpt lat="42.9982917" lon="13.2976633"><ele>764.3333333333333</ele><time>2026-04-17T13:22:07.25Z</time></trkpt><trkpt lat="42.9982083" lon="13.2976333"><ele>764.5</ele><time>2026-04-17T13:22:08.25Z</time></trkpt><trkpt lat="42.9981367" lon="13.297595"><ele>764.6666666666666</ele><time>2026-04-17T13:22:09.25Z</time></trkpt><trkpt lat="42.99806" lon="13.2975583"><ele>764.8333333333334</ele><time>2026-04-17T13:22:10.25Z</time></trkpt><trkpt lat="42.9979833" lon="13.2975267"><ele>765.0</ele><time>2026-04-17T13:22:11.25Z</time></trkpt><trkpt lat="42.99791" lon="13.2974917"><ele>765.0</ele><time>2026-04-17T13:22:12.25Z</time></trkpt><trkpt lat="42.99783" lon="13.297465"><ele>765.0</ele><time>2026-04-17T13:22:13.25Z</time></trkpt><trkpt lat="42.9977517" lon="13.2974383"><ele>765.0</ele><time>2026-04-17T13:22:14.25Z</time></trkpt><trkpt lat="42.99767" lon="13.2974217"><ele>765.0</ele><time>2026-04-17T13:22:15.25Z</time></trkpt><trkpt lat="42.9975883" lon="13.2974033"><ele>765.0</ele><time>2026-04-17T13:22:16.25Z</time></trkpt><trkpt lat="42.997505" lon="13.2973933"><ele>765.0</ele><time>2026-04-17T13:22:17.25Z</time></trkpt><trkpt lat="42.9974267" lon="13.2973833"><ele>766.3333333333334</ele><time>2026-04-17T13:22:18.25Z</time></trkpt><trkpt lat="42.99735" lon="13.2973767"><ele>767.6666666666667</ele><time>2026-04-17T13:22:19.25Z</time></trkpt><trkpt lat="42.9972633" lon="13.2973617"><ele>769.0</ele><time>2026-04-17T13:22:20.25Z</time></trkpt><trkpt lat="42.9971717" lon="13.29735"><ele>770.3333333333334</ele><time>2026-04-17T13:22:21.25Z</time></trkpt><trkpt lat="42.9970817" lon="13.29734"><ele>771.6666666666667</ele><time>2026-04-17T13:22:22.25Z</time></trkpt><trkpt lat="42.9969883" lon="13.2973283"><ele>773.0</ele><time>2026-04-17T13:22:23.25Z</time></trkpt><trkpt lat="42.9969033" lon="13.2973183"><ele>773.0000000000001</ele><time>2026-04-17T13:22:24.25Z</time></trkpt><trkpt lat="42.9968233" lon="13.2973117"><ele>773.0</ele><time>2026-04-17T13:22:25.25Z</time></trkpt><trkpt lat="42.9967467" lon="13.2973183"><ele>773.0</ele><time>2026-04-17T13:22:26.25Z</time></trkpt><trkpt lat="42.9966683" lon="13.2973283"><ele>773.0</ele><time>2026-04-17T13:22:27.25Z</time></trkpt><trkpt lat="42.9965733" lon="13.29735"><ele>773.0000000000001</ele><time>2026-04-17T13:22:28.25Z</time></trkpt><trkpt lat="42.9964883" lon="13.2973567"><ele>773.0</ele><time>2026-04-17T13:22:29.25Z</time></trkpt><trkpt lat="42.99641" lon="13.29735"><ele>772.0</ele><time>2026-04-17T13:22:30.25Z</time></trkpt><trkpt lat="42.996335" lon="13.297335"><ele>771.0</ele><time>2026-04-17T13:22:31.25Z</time></trkpt><trkpt lat="42.9962683" lon="13.2973117"><ele>770.0</ele><time>2026-04-17T13:22:32.25Z</time></trkpt><trkpt lat="42.9961617" lon="13.2972767"><ele>769.0</ele><time>2026-04-17T13:22:34.25Z</time></trkpt><trkpt lat="42.9960483" lon="13.2972317"><ele>768.0</ele><time>2026-04-17T13:22:36.249Z</time></trkpt><trkpt lat="42.995945" lon="13.297185"><ele>768.0</ele><time>2026-04-17T13:22:38.25Z</time></trkpt><trkpt lat="42.9958383" lon="13.2971267"><ele>768.0</ele><time>2026-04-17T13:22:40.25Z</time></trkpt><trkpt lat="42.99573" lon="13.2971"><ele>768.0</ele><time>2026-04-17T13:22:42.25Z</time></trkpt><trkpt lat="42.9956417" lon="13.29708"><ele>768.0</ele><time>2026-04-17T13:22:44.25Z</time></trkpt><trkpt lat="42.9955567" lon="13.29706"><ele>768.0</ele><time>2026-04-17T13:22:46.25Z</time></trkpt><trkpt lat="42.995475" lon="13.2970233"><ele>770.5</ele><time>2026-04-17T13:22:49.25Z</time></trkpt><trkpt lat="42.9954333" lon="13.2969283"><ele>773.0</ele><time>2026-04-17T13:23:30.25Z</time></trkpt><trkpt lat="42.99545" lon="13.2967717"><ele>775.5</ele><time>2026-04-17T13:23:32.25Z</time></trkpt><trkpt lat="42.9954583" lon="13.2966517"><ele>778.0</ele><time>2026-04-17T13:23:34.25Z</time></trkpt><trkpt lat="42.99541" lon="13.2965833"><ele>780.5</ele><time>2026-04-17T13:23:37.25Z</time></trkpt><trkpt lat="42.995385" lon="13.2966933"><ele>783.0</ele><time>2026-04-17T13:23:40.25Z</time></trkpt><trkpt lat="42.9954067" lon="13.2967933"><ele>783.0</ele><time>2026-04-17T13:23:41.25Z</time></trkpt><trkpt lat="42.9954267" lon="13.296875"><ele>783.0</ele><time>2026-04-17T13:23:42.25Z</time></trkpt><trkpt lat="42.9954517" lon="13.2969783"><ele>783.0</ele><time>2026-04-17T13:23:44.25Z</time></trkpt><trkpt lat="42.9954067" lon="13.2970733"><ele>783.0</ele><time>2026-04-17T13:23:47.25Z</time></trkpt><trkpt lat="42.9953367" lon="13.2970983"><ele>783.0</ele><time>2026-04-17T13:23:50.25Z</time></trkpt><trkpt lat="42.9952383" lon="13.2971033"><ele>783.0</ele><time>2026-04-17T13:24:01.249Z</time></trkpt><trkpt lat="42.995165" lon="13.2971067"><ele>783.0</ele><time>2026-04-17T13:24:03.25Z</time></trkpt><trkpt lat="42.995085" lon="13.2971067"><ele>783.0</ele><time>2026-04-17T13:24:05.25Z</time></trkpt><trkpt lat="42.9949983" lon="13.2970917"><ele>783.0</ele><time>2026-04-17T13:24:07.25Z</time></trkpt><trkpt lat="42.9949167" lon="13.29707"><ele>783.0</ele><time>2026-04-17T13:24:09.25Z</time></trkpt><trkpt lat="42.99484" lon="13.29706"><ele>783.0</ele><time>2026-04-17T13:24:11.25Z</time></trkpt><trkpt lat="42.9947483" lon="13.2970383"><ele>783.0</ele><time>2026-04-17T13:24:13.25Z</time></trkpt><trkpt lat="42.9946583" lon="13.2970217"><ele>784.5</ele><time>2026-04-17T13:24:15.25Z</time></trkpt><trkpt lat="42.994585" lon="13.2970167"><ele>786.0</ele><time>2026-04-17T13:24:17.25Z</time></trkpt><trkpt lat="42.9944917" lon="13.2970183"><ele>787.5</ele><time>2026-04-17T13:24:28.25Z</time></trkpt><trkpt lat="42.9944133" lon="13.29701"><ele>789.0</ele><time>2026-04-17T13:24:32.25Z</time></trkpt><trkpt lat="42.9943483" lon="13.296995"><ele>790.5</ele><time>2026-04-17T13:24:35.25Z</time></trkpt><trkpt lat="42.994265" lon="13.2969917"><ele>792.0</ele><time>2026-04-17T13:24:52.25Z</time></trkpt><trkpt lat="42.99419" lon="13.2970017"><ele>792.3333333333334</ele><time>2026-04-17T13:24:56.25Z</time></trkpt><trkpt lat="42.9941017" lon="13.296995"><ele>792.6666666666667</ele><time>2026-04-17T13:24:59.25Z</time></trkpt><trkpt lat="42.9940283" lon="13.29699"><ele>793.0</ele><time>2026-04-17T13:25:01.25Z</time></trkpt><trkpt lat="42.993955" lon="13.2969817"><ele>793.3333333333334</ele><time>2026-04-17T13:25:03.25Z</time></trkpt><trkpt lat="42.9938432" lon="13.2969448"><ele>793.6666666666667</ele><time>2026-04-17T13:25:06.25Z</time></trkpt><trkpt lat="42.9937729" lon="13.2969587"><ele>794.0</ele><time>2026-04-17T13:25:07.25Z</time></trkpt><trkpt lat="42.9936763" lon="13.2969593"><ele>794.0</ele><time>2026-04-17T13:25:09.25Z</time></trkpt><trkpt lat="42.9936133" lon="13.29697"><ele>794.0</ele><time>2026-04-17T13:25:11.25Z</time></trkpt><trkpt lat="42.9935483" lon="13.296975"><ele>794.0</ele><time>2026-04-17T13:25:14.25Z</time></trkpt><trkpt lat="42.9934867" lon="13.29695"><ele>794.0</ele><time>2026-04-17T13:25:49.249Z</time></trkpt><trkpt lat="42.993425" lon="13.2969183"><ele>794.0</ele><time>2026-04-17T13:25:53.249Z</time></trkpt><trkpt lat="42.99335" lon="13.29688"><ele>794.0</ele><time>2026-04-17T13:25:57.249Z</time></trkpt><trkpt lat="42.9932867" lon="13.2968383"><ele>794.0</ele><time>2026-04-17T13:25:59.249Z</time></trkpt><trkpt lat="42.9932167" lon="13.2967883"><ele>794.1428571428571</ele><time>2026-04-17T13:26:01.249Z</time></trkpt><trkpt lat="42.9931483" lon="13.2967583"><ele>794.2857142857142</ele><time>2026-04-17T13:26:03.249Z</time></trkpt><trkpt lat="42.9930783" lon="13.29672"><ele>794.4285714285714</ele><time>2026-04-17T13:26:05.249Z</time></trkpt><trkpt lat="42.99302" lon="13.2966767"><ele>794.5714285714286</ele><time>2026-04-17T13:26:07.249Z</time></trkpt><trkpt lat="42.99296" lon="13.2966417"><ele>794.7142857142858</ele><time>2026-04-17T13:26:10.249Z</time></trkpt><trkpt lat="42.99288" lon="13.29661"><ele>794.8571428571429</ele><time>2026-04-17T13:26:16.249Z</time></trkpt><trkpt lat="42.9928033" lon="13.2965683"><ele>795.0</ele><time>2026-04-17T13:26:21.249Z</time></trkpt><trkpt lat="42.9927433" lon="13.296535"><ele>795.0</ele><time>2026-04-17T13:26:25.249Z</time></trkpt><trkpt lat="42.9926617" lon="13.29653"><ele>795.0</ele><time>2026-04-17T13:26:29.249Z</time></trkpt><trkpt lat="42.9925933" lon="13.296485"><ele>795.0</ele><time>2026-04-17T13:26:32.249Z</time></trkpt><trkpt lat="42.9925367" lon="13.29639"><ele>795.0</ele><time>2026-04-17T13:26:34.249Z</time></trkpt><trkpt lat="42.9924633" lon="13.296265"><ele>795.0</ele><time>2026-04-17T13:26:36.249Z</time></trkpt><trkpt lat="42.992415" lon="13.2961883"><ele>795.0</ele><time>2026-04-17T13:26:37.249Z</time></trkpt><trkpt lat="42.9923683" lon="13.2961183"><ele>796.0</ele><time>2026-04-17T13:26:38.249Z</time></trkpt><trkpt lat="42.9923167" lon="13.296025"><ele>797.0</ele><time>2026-04-17T13:26:39.249Z</time></trkpt><trkpt lat="42.9922617" lon="13.2959117"><ele>798.0</ele><time>2026-04-17T13:26:40.249Z</time></trkpt><trkpt lat="42.9921967" lon="13.2958067"><ele>799.0</ele><time>2026-04-17T13:26:41.248Z</time></trkpt><trkpt lat="42.9921367" lon="13.2957183"><ele>800.0</ele><time>2026-04-17T13:26:42.249Z</time></trkpt><trkpt lat="42.9920883" lon="13.2956417"><ele>801.0</ele><time>2026-04-17T13:26:43.249Z</time></trkpt><trkpt lat="42.99204" lon="13.295575"><ele>803.0</ele><time>2026-04-17T13:26:44.249Z</time></trkpt><trkpt lat="42.9919883" lon="13.29549"><ele>805.0</ele><time>2026-04-17T13:26:45.249Z</time></trkpt><trkpt lat="42.9919217" lon="13.2954083"><ele>807.0</ele><time>2026-04-17T13:26:46.249Z</time></trkpt><trkpt lat="42.99185" lon="13.295315"><ele>809.0</ele><time>2026-04-17T13:26:47.249Z</time></trkpt><trkpt lat="42.9917833" lon="13.2952167"><ele>811.0</ele><time>2026-04-17T13:26:48.249Z</time></trkpt><trkpt lat="42.9917133" lon="13.2951267"><ele>809.5999999999999</ele><time>2026-04-17T13:26:49.249Z</time></trkpt><trkpt lat="42.99163" lon="13.29504"><ele>808.2</ele><time>2026-04-17T13:26:50.249Z</time></trkpt><trkpt lat="42.9915333" lon="13.2949783"><ele>806.8</ele><time>2026-04-17T13:26:51.249Z</time></trkpt><trkpt lat="42.991435" lon="13.29493"><ele>805.4000000000001</ele><time>2026-04-17T13:26:52.249Z</time></trkpt><trkpt lat="42.9913467" lon="13.2948917"><ele>804.0</ele><time>2026-04-17T13:26:53.249Z</time></trkpt><trkpt lat="42.991275" lon="13.2948717"><ele>804.0</ele><time>2026-04-17T13:26:54.249Z</time></trkpt><trkpt lat="42.9911717" lon="13.2948583"><ele>804.0</ele><time>2026-04-17T13:26:56.249Z</time></trkpt><trkpt lat="42.9910733" lon="13.2949367"><ele>804.0</ele><time>2026-04-17T13:26:58.249Z</time></trkpt><trkpt lat="42.99105" lon="13.29502"><ele>804.0</ele><time>2026-04-17T13:26:59.249Z</time></trkpt><trkpt lat="42.99104" lon="13.29511"><ele>804.0</ele><time>2026-04-17T13:27:00.249Z</time></trkpt><trkpt lat="42.9910183" lon="13.2951983"><ele>804.0</ele><time>2026-04-17T13:27:01.249Z</time></trkpt><trkpt lat="42.990965" lon="13.2953283"><ele>804.0</ele><time>2026-04-17T13:27:03.249Z</time></trkpt><trkpt lat="42.99086" lon="13.2953633"><ele>804.0</ele><time>2026-04-17T13:27:05.249Z</time></trkpt><trkpt lat="42.9907767" lon="13.2953433"><ele>804.0</ele><time>2026-04-17T13:27:06.249Z</time></trkpt><trkpt lat="42.9906883" lon="13.2953117"><ele>804.0</ele><time>2026-04-17T13:27:07.249Z</time></trkpt><trkpt lat="42.9906267" lon="13.2952933"><ele>804.0</ele><time>2026-04-17T13:27:08.249Z</time></trkpt><trkpt lat="42.9905467" lon="13.2952583"><ele>804.0</ele><time>2026-04-17T13:27:11.249Z</time></trkpt><trkpt lat="42.9904667" lon="13.295245"><ele>804.0</ele><time>2026-04-17T13:27:14.249Z</time></trkpt><trkpt lat="42.9905467" lon="13.2952717"><ele>804.0</ele><time>2026-04-17T13:27:31.249Z</time></trkpt><trkpt lat="42.9906667" lon="13.2953117"><ele>804.0</ele><time>2026-04-17T13:27:33.249Z</time></trkpt><trkpt lat="42.990735" lon="13.29532"><ele>804.0</ele><time>2026-04-17T13:27:34.249Z</time></trkpt><trkpt lat="42.9907983" lon="13.29532"><ele>804.0</ele><time>2026-04-17T13:27:35.249Z</time></trkpt><trkpt lat="42.990925" lon="13.2953467"><ele>804.0</ele><time>2026-04-17T13:27:37.249Z</time></trkpt><trkpt lat="42.991035" lon="13.29533"><ele>804.0</ele><time>2026-04-17T13:27:39.249Z</time></trkpt><trkpt lat="42.9911017" lon="13.2952683"><ele>804.0</ele><time>2026-04-17T13:27:41.249Z</time></trkpt><trkpt lat="42.9911217" lon="13.2951467"><ele>804.0</ele><time>2026-04-17T13:27:43.249Z</time></trkpt><trkpt lat="42.9911333" lon="13.2950617"><ele>804.0</ele><time>2026-04-17T13:27:44.249Z</time></trkpt><trkpt lat="42.99114" lon="13.294955"><ele>804.0</ele><time>2026-04-17T13:27:46.249Z</time></trkpt><trkpt lat="42.9911533" lon="13.2947933"><ele>804.0</ele><time>2026-04-17T13:28:12.249Z</time></trkpt><trkpt lat="42.9911433" lon="13.2947"><ele>804.0</ele><time>2026-04-17T13:28:15.249Z</time></trkpt><trkpt lat="42.9910683" lon="13.2946383"><ele>804.0</ele><time>2026-04-17T13:28:18.249Z</time></trkpt><trkpt lat="42.9909767" lon="13.29467"><ele>804.0</ele><time>2026-04-17T13:28:21.249Z</time></trkpt><trkpt lat="42.9909017" lon="13.2946733"><ele>804.0</ele><time>2026-04-17T13:28:24.249Z</time></trkpt><trkpt lat="42.9908333" lon="13.2946333"><ele>804.0</ele><time>2026-04-17T13:28:27.249Z</time></trkpt><trkpt lat="42.99075" lon="13.29461"><ele>804.0</ele><time>2026-04-17T13:28:43.249Z</time></trkpt><trkpt lat="42.9906533" lon="13.2946333"><ele>804.0</ele><time>2026-04-17T13:28:46.249Z</time></trkpt><trkpt lat="42.9905833" lon="13.294645"><ele>804.0</ele><time>2026-04-17T13:28:48.249Z</time></trkpt><trkpt lat="42.9905183" lon="13.2946267"><ele>804.0</ele><time>2026-04-17T13:28:50.249Z</time></trkpt><trkpt lat="42.990475" lon="13.2945417"><ele>804.0</ele><time>2026-04-17T13:28:53.249Z</time></trkpt><trkpt lat="42.9905083" lon="13.294425"><ele>804.0</ele><time>2026-04-17T13:28:56.249Z</time></trkpt><trkpt lat="42.99051" lon="13.294315"><ele>804.0</ele><time>2026-04-17T13:28:58.249Z</time></trkpt><trkpt lat="42.99048" lon="13.2942233"><ele>804.0</ele><time>2026-04-17T13:29:00.249Z</time></trkpt><trkpt lat="42.9904383" lon="13.2941283"><ele>804.0</ele><time>2026-04-17T13:29:02.249Z</time></trkpt><trkpt lat="42.990395" lon="13.2940367"><ele>804.0</ele><time>2026-04-17T13:29:04.249Z</time></trkpt><trkpt lat="42.990335" lon="13.293975"><ele>804.0</ele><time>2026-04-17T13:29:06.249Z</time></trkpt><trkpt lat="42.9902767" lon="13.2939167"><ele>804.0</ele><time>2026-04-17T13:29:08.249Z</time></trkpt><trkpt lat="42.9902267" lon="13.29384"><ele>803.6666666666666</ele><time>2026-04-17T13:29:10.249Z</time></trkpt><trkpt lat="42.99019" lon="13.2937433"><ele>803.3333333333333</ele><time>2026-04-17T13:29:12.249Z</time></trkpt><trkpt lat="42.9901467" lon="13.2936333"><ele>803.0</ele><time>2026-04-17T13:29:14.249Z</time></trkpt><trkpt lat="42.9900767" lon="13.2935367"><ele>802.6666666666666</ele><time>2026-04-17T13:29:16.249Z</time></trkpt><trkpt lat="42.9899883" lon="13.2934933"><ele>802.3333333333333</ele><time>2026-04-17T13:29:18.249Z</time></trkpt><trkpt lat="42.989918" lon="13.2935307"><ele>802.0</ele><time>2026-04-17T13:29:20.249Z</time></trkpt><trkpt lat="42.9898552" lon="13.2935758"><ele>805.5714285714286</ele><time>2026-04-17T13:29:23.249Z</time></trkpt><trkpt lat="42.989825" lon="13.2936533"><ele>809.1428571428571</ele><time>2026-04-17T13:30:16.249Z</time></trkpt><trkpt lat="42.98975" lon="13.2936417"><ele>812.7142857142858</ele><time>2026-04-17T13:30:19.249Z</time></trkpt><trkpt lat="42.9897117" lon="13.2935533"><ele>816.2857142857142</ele><time>2026-04-17T13:30:21.249Z</time></trkpt><trkpt lat="42.9896783" lon="13.2934733"><ele>819.8571428571428</ele><time>2026-04-17T13:30:23.249Z</time></trkpt><trkpt lat="42.98962" lon="13.2934167"><ele>823.4285714285714</ele><time>2026-04-17T13:30:25.249Z</time></trkpt><trkpt lat="42.989585" lon="13.2933133"><ele>827.0</ele><time>2026-04-17T13:30:28.249Z</time></trkpt><trkpt lat="42.98953" lon="13.293235"><ele>827.0000000000001</ele><time>2026-04-17T13:30:31.249Z</time></trkpt><trkpt lat="42.9895133" lon="13.2931333"><ele>827.0</ele><time>2026-04-17T13:30:34.249Z</time></trkpt><trkpt lat="42.989525" lon="13.2932183"><ele>827.0</ele><time>2026-04-17T13:31:05.249Z</time></trkpt><trkpt lat="42.9894367" lon="13.2932267"><ele>827.0</ele><time>2026-04-17T13:31:08.249Z</time></trkpt><trkpt lat="42.9893583" lon="13.2931433"><ele>827.0000000000001</ele><time>2026-04-17T13:31:10.249Z</time></trkpt><trkpt lat="42.9892883" lon="13.2930067"><ele>827.0</ele><time>2026-04-17T13:31:12.249Z</time></trkpt><trkpt lat="42.98925" lon="13.2928967"><ele>827.3333333333334</ele><time>2026-04-17T13:31:13.249Z</time></trkpt><trkpt lat="42.9891983" lon="13.2927817"><ele>827.6666666666667</ele><time>2026-04-17T13:31:14.249Z</time></trkpt><trkpt lat="42.9891333" lon="13.29267"><ele>828.0</ele><time>2026-04-17T13:31:15.249Z</time></trkpt><trkpt lat="42.9890733" lon="13.2925633"><ele>828.3333333333333</ele><time>2026-04-17T13:31:16.249Z</time></trkpt><trkpt lat="42.989025" lon="13.2924733"><ele>828.6666666666666</ele><time>2026-04-17T13:31:17.249Z</time></trkpt><trkpt lat="42.9889967" lon="13.2923917"><ele>829.0</ele><time>2026-04-17T13:31:18.249Z</time></trkpt><trkpt lat="42.98898" lon="13.2922383"><ele>834.0</ele><time>2026-04-17T13:31:20.249Z</time></trkpt><trkpt lat="42.9889867" lon="13.2920967"><ele>839.0</ele><time>2026-04-17T13:31:22.248Z</time></trkpt><trkpt lat="42.98901" lon="13.2919917"><ele>844.0000000000001</ele><time>2026-04-17T13:31:24.249Z</time></trkpt><trkpt lat="42.9890517" lon="13.29188"><ele>849.0</ele><time>2026-04-17T13:31:45.249Z</time></trkpt><trkpt lat="42.9890367" lon="13.2917567"><ele>854.0</ele><time>2026-04-17T13:31:47.249Z</time></trkpt><trkpt lat="42.98901" lon="13.2916417"><ele>854.0</ele><time>2026-04-17T13:31:49.249Z</time></trkpt><trkpt lat="42.98894" lon="13.29154"><ele>854.0000000000001</ele><time>2026-04-17T13:31:51.249Z</time></trkpt><trkpt lat="42.988865" lon="13.29144"><ele>854.0000000000001</ele><time>2026-04-17T13:31:53.249Z</time></trkpt><trkpt lat="42.98877" lon="13.291355"><ele>854.0</ele><time>2026-04-17T13:31:55.249Z</time></trkpt><trkpt lat="42.98868" lon="13.2912867"><ele>854.0</ele><time>2026-04-17T13:31:57.249Z</time></trkpt><trkpt lat="42.98862" lon="13.2912583"><ele>852.3333333333334</ele><time>2026-04-17T13:31:58.249Z</time></trkpt><trkpt lat="42.9885533" lon="13.2912317"><ele>850.6666666666667</ele><time>2026-04-17T13:31:59.249Z</time></trkpt><trkpt lat="42.98846" lon="13.291175"><ele>849.0</ele><time>2026-04-17T13:32:01.249Z</time></trkpt><trkpt lat="42.9883933" lon="13.2910967"><ele>847.3333333333333</ele><time>2026-04-17T13:32:03.249Z</time></trkpt><trkpt lat="42.9883683" lon="13.2910117"><ele>845.6666666666666</ele><time>2026-04-17T13:32:05.249Z</time></trkpt><trkpt lat="42.988295" lon="13.29094"><ele>844.0</ele><time>2026-04-17T13:32:08.249Z</time></trkpt><trkpt lat="42.9881983" lon="13.29091"><ele>847.8333333333333</ele><time>2026-04-17T13:32:38.248Z</time></trkpt><trkpt lat="42.9881317" lon="13.2909033"><ele>851.6666666666666</ele><time>2026-04-17T13:32:40.248Z</time></trkpt><trkpt lat="42.9880517" lon="13.29088"><ele>855.5</ele><time>2026-04-17T13:32:42.248Z</time></trkpt><trkpt lat="42.98797" lon="13.2908367"><ele>859.3333333333333</ele><time>2026-04-17T13:32:44.248Z</time></trkpt><trkpt lat="42.9879167" lon="13.29079"><ele>863.1666666666666</ele><time>2026-04-17T13:32:46.248Z</time></trkpt><trkpt lat="42.9878167" lon="13.2907383"><ele>867.0</ele><time>2026-04-17T13:34:58.248Z</time></trkpt><trkpt lat="42.9877433" lon="13.29074"><ele>867.0</ele><time>2026-04-17T13:35:03.248Z</time></trkpt><trkpt lat="42.987655" lon="13.2907417"><ele>867.0</ele><time>2026-04-17T13:35:09.248Z</time></trkpt><trkpt lat="42.9875883" lon="13.2907783"><ele>867.0</ele><time>2026-04-17T13:35:13.248Z</time></trkpt><trkpt lat="42.987545" lon="13.2908733"><ele>867.0</ele><time>2026-04-17T13:35:18.248Z</time></trkpt><trkpt lat="42.9875133" lon="13.2909967"><ele>867.0</ele><time>2026-04-17T13:35:21.248Z</time></trkpt><trkpt lat="42.9874333" lon="13.291065"><ele>867.0</ele><time>2026-04-17T13:35:23.248Z</time></trkpt><trkpt lat="42.9873483" lon="13.291155"><ele>867.6</ele><time>2026-04-17T13:35:25.248Z</time></trkpt><trkpt lat="42.9873083" lon="13.2913033"><ele>868.2</ele><time>2026-04-17T13:35:27.248Z</time></trkpt><trkpt lat="42.9872817" lon="13.2914567"><ele>868.8</ele><time>2026-04-17T13:35:29.248Z</time></trkpt><trkpt lat="42.9872333" lon="13.2916133"><ele>869.4</ele><time>2026-04-17T13:35:31.248Z</time></trkpt><trkpt lat="42.9872033" lon="13.291715"><ele>870.0</ele><time>2026-04-17T13:35:32.248Z</time></trkpt><trkpt lat="42.98717" lon="13.2918217"><ele>870.0</ele><time>2026-04-17T13:35:33.248Z</time></trkpt><trkpt lat="42.9871267" lon="13.291935"><ele>870.0</ele><time>2026-04-17T13:35:34.248Z</time></trkpt><trkpt lat="42.987075" lon="13.2920583"><ele>870.0</ele><time>2026-04-17T13:35:35.248Z</time></trkpt><trkpt lat="42.9870283" lon="13.29217"><ele>870.0</ele><time>2026-04-17T13:35:36.248Z</time></trkpt><trkpt lat="42.9869883" lon="13.29227"><ele>870.0</ele><time>2026-04-17T13:35:37.247Z</time></trkpt><trkpt lat="42.986935" lon="13.2923967"><ele>869.3333333333334</ele><time>2026-04-17T13:35:39.248Z</time></trkpt><trkpt lat="42.986915" lon="13.2925017"><ele>868.6666666666667</ele><time>2026-04-17T13:35:42.248Z</time></trkpt><trkpt lat="42.9869233" lon="13.2925967"><ele>868.0</ele><time>2026-04-17T13:35:47.248Z</time></trkpt><trkpt lat="42.9869617" lon="13.29269"><ele>867.3333333333334</ele><time>2026-04-17T13:35:49.248Z</time></trkpt><trkpt lat="42.98699" lon="13.2927767"><ele>866.6666666666667</ele><time>2026-04-17T13:35:51.248Z</time></trkpt><trkpt lat="42.987" lon="13.2928733"><ele>866.0</ele><time>2026-04-17T13:35:53.248Z</time></trkpt><trkpt lat="42.987" lon="13.2929883"><ele>865.0000000000001</ele><time>2026-04-17T13:35:55.248Z</time></trkpt><trkpt lat="42.9869833" lon="13.2930967"><ele>864.0</ele><time>2026-04-17T13:35:57.248Z</time></trkpt><trkpt lat="42.986925" lon="13.2931967"><ele>863.0</ele><time>2026-04-17T13:35:59.248Z</time></trkpt><trkpt lat="42.9868483" lon="13.2932517"><ele>862.0</ele><time>2026-04-17T13:36:02.248Z</time></trkpt><trkpt lat="42.9867867" lon="13.2932717"><ele>861.0000000000001</ele><time>2026-04-17T13:36:04.248Z</time></trkpt><trkpt lat="42.9867067" lon="13.2933267"><ele>860.0</ele><time>2026-04-17T13:36:06.248Z</time></trkpt><trkpt lat="42.9866433" lon="13.2933533"><ele>863.1666666666667</ele><time>2026-04-17T13:36:08.248Z</time></trkpt><trkpt lat="42.9865817" lon="13.2933767"><ele>866.3333333333334</ele><time>2026-04-17T13:36:11.248Z</time></trkpt><trkpt lat="42.9865067" lon="13.29335"><ele>869.5</ele><time>2026-04-17T13:36:19.248Z</time></trkpt><trkpt lat="42.9864133" lon="13.2933533"><ele>872.6666666666667</ele><time>2026-04-17T13:36:22.247Z</time></trkpt><trkpt lat="42.9863683" lon="13.2932833"><ele>875.8333333333334</ele><time>2026-04-17T13:36:25.248Z</time></trkpt><trkpt lat="42.9863567" lon="13.293175"><ele>879.0</ele><time>2026-04-17T13:36:27.248Z</time></trkpt><trkpt lat="42.9863017" lon="13.2931083"><ele>879.0</ele><time>2026-04-17T13:36:29.248Z</time></trkpt><trkpt lat="42.986225" lon="13.2931567"><ele>879.0000000000001</ele><time>2026-04-17T13:36:31.248Z</time></trkpt><trkpt lat="42.98617" lon="13.293275"><ele>879.0000000000001</ele><time>2026-04-17T13:36:33.248Z</time></trkpt><trkpt lat="42.9861217" lon="13.2933917"><ele>879.0</ele><time>2026-04-17T13:36:35.248Z</time></trkpt><trkpt lat="42.986085" lon="13.2935483"><ele>879.0</ele><time>2026-04-17T13:36:37.248Z</time></trkpt><trkpt lat="42.9860867" lon="13.293705"><ele>879.0</ele><time>2026-04-17T13:36:39.248Z</time></trkpt><trkpt lat="42.986135" lon="13.29383"><ele>879.0000000000001</ele><time>2026-04-17T13:36:41.248Z</time></trkpt><trkpt lat="42.9862167" lon="13.2939283"><ele>879.0000000000001</ele><time>2026-04-17T13:36:43.248Z</time></trkpt><trkpt lat="42.9862817" lon="13.2940333"><ele>879.0</ele><time>2026-04-17T13:36:45.248Z</time></trkpt><trkpt lat="42.9862567" lon="13.2941833"><ele>879.0</ele><time>2026-04-17T13:36:47.248Z</time></trkpt><trkpt lat="42.98622" lon="13.294325"><ele>877.5</ele><time>2026-04-17T13:36:49.248Z</time></trkpt><trkpt lat="42.9862133" lon="13.2944567"><ele>876.0</ele><time>2026-04-17T13:36:51.248Z</time></trkpt><trkpt lat="42.9862167" lon="13.2945533"><ele>874.5</ele><time>2026-04-17T13:36:53.248Z</time></trkpt><trkpt lat="42.9862" lon="13.29467"><ele>873.0</ele><time>2026-04-17T13:37:25.248Z</time></trkpt><trkpt lat="42.9861833" lon="13.2947717"><ele>871.5</ele><time>2026-04-17T13:37:27.248Z</time></trkpt><trkpt lat="42.9861717" lon="13.2949033"><ele>870.0</ele><time>2026-04-17T13:37:29.248Z</time></trkpt><trkpt lat="42.9861567" lon="13.2950267"><ele>867.8</ele><time>2026-04-17T13:37:31.248Z</time></trkpt><trkpt lat="42.9861267" lon="13.2951383"><ele>865.6</ele><time>2026-04-17T13:37:33.248Z</time></trkpt><trkpt lat="42.9861017" lon="13.2952533"><ele>863.4000000000001</ele><time>2026-04-17T13:37:35.248Z</time></trkpt><trkpt lat="42.9860483" lon="13.2953317"><ele>861.2</ele><time>2026-04-17T13:37:37.248Z</time></trkpt><trkpt lat="42.9859783" lon="13.29537"><ele>859.0</ele><time>2026-04-17T13:37:39.248Z</time></trkpt><trkpt lat="42.985875" lon="13.29549"><ele>857.8000000000001</ele><time>2026-04-17T13:37:53.248Z</time></trkpt><trkpt lat="42.98586" lon="13.2956117"><ele>856.6000000000001</ele><time>2026-04-17T13:37:55.248Z</time></trkpt><trkpt lat="42.9859" lon="13.2957733"><ele>855.4</ele><time>2026-04-17T13:37:57.248Z</time></trkpt><trkpt lat="42.985935" lon="13.2958717"><ele>854.2</ele><time>2026-04-17T13:37:58.248Z</time></trkpt><trkpt lat="42.9859683" lon="13.2959733"><ele>853.0</ele><time>2026-04-17T13:37:59.248Z</time></trkpt><trkpt lat="42.9860067" lon="13.2960733"><ele>852.9999999999999</ele><time>2026-04-17T13:38:00.248Z</time></trkpt><trkpt lat="42.986035" lon="13.29617"><ele>853.0</ele><time>2026-04-17T13:38:01.248Z</time></trkpt><trkpt lat="42.9860567" lon="13.296265"><ele>853.0</ele><time>2026-04-17T13:38:02.248Z</time></trkpt><trkpt lat="42.98609" lon="13.2964267"><ele>853.0</ele><time>2026-04-17T13:38:04.248Z</time></trkpt><trkpt lat="42.9861167" lon="13.29654"><ele>852.9999999999999</ele><time>2026-04-17T13:38:06.248Z</time></trkpt><trkpt lat="42.9861183" lon="13.2966417"><ele>853.0</ele><time>2026-04-17T13:38:09.248Z</time></trkpt><trkpt lat="42.986055" lon="13.2966767"><ele>854.25</ele><time>2026-04-17T13:38:20.248Z</time></trkpt><trkpt lat="42.985935" lon="13.29668"><ele>855.5</ele><time>2026-04-17T13:39:10.248Z</time></trkpt><trkpt lat="42.98584" lon="13.2966783"><ele>856.75</ele><time>2026-04-17T13:39:12.248Z</time></trkpt><trkpt lat="42.9856967" lon="13.2966883"><ele>858.0</ele><time>2026-04-17T13:39:14.248Z</time></trkpt><trkpt lat="42.9856033" lon="13.29669"><ele>859.4</ele><time>2026-04-17T13:39:15.248Z</time></trkpt><trkpt lat="42.9855133" lon="13.2966833"><ele>860.8</ele><time>2026-04-17T13:39:16.248Z</time></trkpt><trkpt lat="42.9854183" lon="13.29668"><ele>862.2</ele><time>2026-04-17T13:39:17.248Z</time></trkpt><trkpt lat="42.9853167" lon="13.296685"><ele>863.6</ele><time>2026-04-17T13:39:18.248Z</time></trkpt><trkpt lat="42.9852233" lon="13.2966883"><ele>865.0</ele><time>2026-04-17T13:39:19.248Z</time></trkpt><trkpt lat="42.9851233" lon="13.2966983"><ele>865.0</ele><time>2026-04-17T13:39:20.248Z</time></trkpt><trkpt lat="42.9850267" lon="13.2967183"><ele>865.0</ele><time>2026-04-17T13:39:21.248Z</time></trkpt><trkpt lat="42.9849233" lon="13.2967583"><ele>865.0</ele><time>2026-04-17T13:39:22.248Z</time></trkpt><trkpt lat="42.984815" lon="13.29681"><ele>865.0</ele><time>2026-04-17T13:39:23.248Z</time></trkpt><trkpt lat="42.9847067" lon="13.296865"><ele>865.0</ele><time>2026-04-17T13:39:24.248Z</time></trkpt><trkpt lat="42.9846017" lon="13.2969233"><ele>866.25</ele><time>2026-04-17T13:39:25.248Z</time></trkpt><trkpt lat="42.9844983" lon="13.29699"><ele>867.5</ele><time>2026-04-17T13:39:26.248Z</time></trkpt><trkpt lat="42.9843983" lon="13.2970717"><ele>868.75</ele><time>2026-04-17T13:39:27.248Z</time></trkpt><trkpt lat="42.98431" lon="13.297165"><ele>870.0</ele><time>2026-04-17T13:39:28.248Z</time></trkpt><trkpt lat="42.9842267" lon="13.297275"><ele>871.4</ele><time>2026-04-17T13:39:29.248Z</time></trkpt><trkpt lat="42.984145" lon="13.2973967"><ele>872.8</ele><time>2026-04-17T13:39:30.248Z</time></trkpt><trkpt lat="42.9840667" lon="13.2975183"><ele>874.2</ele><time>2026-04-17T13:39:31.248Z</time></trkpt><trkpt lat="42.9839867" lon="13.2976167"><ele>875.6</ele><time>2026-04-17T13:39:32.248Z</time></trkpt><trkpt lat="42.983915" lon="13.2976967"><ele>877.0</ele><time>2026-04-17T13:39:33.248Z</time></trkpt><trkpt lat="42.9838583" lon="13.2977717"><ele>877.0</ele><time>2026-04-17T13:39:34.248Z</time></trkpt><trkpt lat="42.9838133" lon="13.29784"><ele>877.0</ele><time>2026-04-17T13:39:35.248Z</time></trkpt><trkpt lat="42.9837467" lon="13.2979683"><ele>877.0</ele><time>2026-04-17T13:39:37.248Z</time></trkpt><trkpt lat="42.9836867" lon="13.29809"><ele>877.0</ele><time>2026-04-17T13:39:39.248Z</time></trkpt><trkpt lat="42.9836467" lon="13.2982083"><ele>877.0</ele><time>2026-04-17T13:39:41.248Z</time></trkpt><trkpt lat="42.9836383" lon="13.2983317"><ele>875.2</ele><time>2026-04-17T13:39:43.248Z</time></trkpt><trkpt lat="42.9836467" lon="13.2984883"><ele>873.4000000000001</ele><time>2026-04-17T13:39:45.248Z</time></trkpt><trkpt lat="42.98365" lon="13.29865"><ele>871.5999999999999</ele><time>2026-04-17T13:39:47.248Z</time></trkpt><trkpt lat="42.98364" lon="13.2987367"><ele>869.8</ele><time>2026-04-17T13:39:48.248Z</time></trkpt><trkpt lat="42.9836133" lon="13.2989117"><ele>868.0</ele><time>2026-04-17T13:39:50.248Z</time></trkpt><trkpt lat="42.9835917" lon="13.299005"><ele>867.3333333333333</ele><time>2026-04-17T13:39:51.248Z</time></trkpt><trkpt lat="42.98356" lon="13.2991"><ele>866.6666666666666</ele><time>2026-04-17T13:39:52.248Z</time></trkpt><trkpt lat="42.9835133" lon="13.29919"><ele>866.0</ele><time>2026-04-17T13:39:53.248Z</time></trkpt><trkpt lat="42.983455" lon="13.2992767"><ele>865.3333333333333</ele><time>2026-04-17T13:39:54.248Z</time></trkpt><trkpt lat="42.9833867" lon="13.29936"><ele>864.6666666666666</ele><time>2026-04-17T13:39:55.248Z</time></trkpt><trkpt lat="42.9833183" lon="13.299445"><ele>864.0</ele><time>2026-04-17T13:39:56.248Z</time></trkpt><trkpt lat="42.98324" lon="13.2995233"><ele>864.0</ele><time>2026-04-17T13:39:57.248Z</time></trkpt><trkpt lat="42.9831683" lon="13.299615"><ele>864.0000000000001</ele><time>2026-04-17T13:39:58.247Z</time></trkpt><trkpt lat="42.9831017" lon="13.299725"><ele>864.0000000000001</ele><time>2026-04-17T13:39:59.247Z</time></trkpt><trkpt lat="42.9830367" lon="13.2998283"><ele>864.0</ele><time>2026-04-17T13:40:00.247Z</time></trkpt><trkpt lat="42.9829683" lon="13.2999217"><ele>864.0</ele><time>2026-04-17T13:40:01.247Z</time></trkpt><trkpt lat="42.9829017" lon="13.3000083"><ele>864.8333333333334</ele><time>2026-04-17T13:40:02.247Z</time></trkpt><trkpt lat="42.9828383" lon="13.3000817"><ele>865.6666666666667</ele><time>2026-04-17T13:40:03.247Z</time></trkpt><trkpt lat="42.9827733" lon="13.300155"><ele>866.5</ele><time>2026-04-17T13:40:04.246Z</time></trkpt><trkpt lat="42.9827017" lon="13.3002217"><ele>867.3333333333334</ele><time>2026-04-17T13:40:05.247Z</time></trkpt><trkpt lat="42.9826367" lon="13.3002933"><ele>868.1666666666667</ele><time>2026-04-17T13:40:06.247Z</time></trkpt><trkpt lat="42.9825733" lon="13.3003783"><ele>869.0</ele><time>2026-04-17T13:40:07.247Z</time></trkpt><trkpt lat="42.98251" lon="13.3004783"><ele>866.0000000000001</ele><time>2026-04-17T13:40:08.247Z</time></trkpt><trkpt lat="42.9824433" lon="13.3005883"><ele>863.0</ele><time>2026-04-17T13:40:09.247Z</time></trkpt><trkpt lat="42.98238" lon="13.3006833"><ele>860.0</ele><time>2026-04-17T13:40:10.247Z</time></trkpt><trkpt lat="42.98231" lon="13.3007583"><ele>857.0</ele><time>2026-04-17T13:40:11.247Z</time></trkpt><trkpt lat="42.9822417" lon="13.3008133"><ele>854.0000000000001</ele><time>2026-04-17T13:40:12.247Z</time></trkpt><trkpt lat="42.982165" lon="13.3008483"><ele>851.0</ele><time>2026-04-17T13:40:13.247Z</time></trkpt><trkpt lat="42.9820817" lon="13.3008817"><ele>851.0000000000001</ele><time>2026-04-17T13:40:14.247Z</time></trkpt><trkpt lat="42.982005" lon="13.3009017"><ele>851.0</ele><time>2026-04-17T13:40:15.247Z</time></trkpt><trkpt lat="42.9819217" lon="13.30094"><ele>851.0</ele><time>2026-04-17T13:40:16.247Z</time></trkpt><trkpt lat="42.9818517" lon="13.3009883"><ele>851.0</ele><time>2026-04-17T13:40:17.247Z</time></trkpt><trkpt lat="42.981785" lon="13.301035"><ele>851.0000000000001</ele><time>2026-04-17T13:40:18.247Z</time></trkpt><trkpt lat="42.9817183" lon="13.3010817"><ele>851.0</ele><time>2026-04-17T13:40:19.247Z</time></trkpt><trkpt lat="42.9816683" lon="13.3011433"><ele>851.1666666666667</ele><time>2026-04-17T13:40:20.247Z</time></trkpt><trkpt lat="42.9816283" lon="13.3012233"><ele>851.3333333333334</ele><time>2026-04-17T13:40:21.247Z</time></trkpt><trkpt lat="42.9815967" lon="13.3013083"><ele>851.5</ele><time>2026-04-17T13:40:22.247Z</time></trkpt><trkpt lat="42.981555" lon="13.3013733"><ele>851.6666666666667</ele><time>2026-04-17T13:40:23.247Z</time></trkpt><trkpt lat="42.9814517" lon="13.3014933"><ele>851.8333333333334</ele><time>2026-04-17T13:40:25.247Z</time></trkpt><trkpt lat="42.98139" lon="13.3015483"><ele>852.0</ele><time>2026-04-17T13:40:26.247Z</time></trkpt><trkpt lat="42.98133" lon="13.3016033"><ele>852.0</ele><time>2026-04-17T13:40:27.247Z</time></trkpt><trkpt lat="42.98127" lon="13.30166"><ele>852.0</ele><time>2026-04-17T13:40:28.247Z</time></trkpt><trkpt lat="42.9812067" lon="13.3017267"><ele>852.0</ele><time>2026-04-17T13:40:29.247Z</time></trkpt><trkpt lat="42.981145" lon="13.3017917"><ele>852.0</ele><time>2026-04-17T13:40:30.247Z</time></trkpt><trkpt lat="42.9810717" lon="13.3018517"><ele>852.0</ele><time>2026-04-17T13:40:31.247Z</time></trkpt><trkpt lat="42.9809917" lon="13.3018967"><ele>852.0</ele><time>2026-04-17T13:40:32.247Z</time></trkpt><trkpt lat="42.9809117" lon="13.3019483"><ele>851.0</ele><time>2026-04-17T13:40:33.247Z</time></trkpt><trkpt lat="42.98083" lon="13.302"><ele>850.0</ele><time>2026-04-17T13:40:34.247Z</time></trkpt><trkpt lat="42.9807533" lon="13.3020667"><ele>849.0</ele><time>2026-04-17T13:40:35.247Z</time></trkpt><trkpt lat="42.98069" lon="13.3021317"><ele>848.0</ele><time>2026-04-17T13:40:36.247Z</time></trkpt><trkpt lat="42.98062" lon="13.3022"><ele>847.0</ele><time>2026-04-17T13:40:37.247Z</time></trkpt><trkpt lat="42.98055" lon="13.3022583"><ele>846.0</ele><time>2026-04-17T13:40:38.247Z</time></trkpt><trkpt lat="42.9804817" lon="13.3023067"><ele>846.0</ele><time>2026-04-17T13:40:39.247Z</time></trkpt><trkpt lat="42.9804117" lon="13.30234"><ele>846.0</ele><time>2026-04-17T13:40:40.247Z</time></trkpt><trkpt lat="42.980325" lon="13.3023817"><ele>846.0</ele><time>2026-04-17T13:40:41.247Z</time></trkpt><trkpt lat="42.9802267" lon="13.3024183"><ele>846.0</ele><time>2026-04-17T13:40:42.247Z</time></trkpt><trkpt lat="42.980135" lon="13.3024533"><ele>846.0</ele><time>2026-04-17T13:40:43.247Z</time></trkpt><trkpt lat="42.9800483" lon="13.3024917"><ele>846.3333333333334</ele><time>2026-04-17T13:40:44.247Z</time></trkpt><trkpt lat="42.9799717" lon="13.3025367"><ele>846.6666666666667</ele><time>2026-04-17T13:40:45.247Z</time></trkpt><trkpt lat="42.9799033" lon="13.302585"><ele>847.0</ele><time>2026-04-17T13:40:46.247Z</time></trkpt><trkpt lat="42.9798" lon="13.3026217"><ele>847.3333333333334</ele><time>2026-04-17T13:40:48.247Z</time></trkpt><trkpt lat="42.979715" lon="13.3026583"><ele>847.6666666666667</ele><time>2026-04-17T13:40:50.247Z</time></trkpt><trkpt lat="42.9796417" lon="13.302735"><ele>848.0</ele><time>2026-04-17T13:40:52.247Z</time></trkpt><trkpt lat="42.9796017" lon="13.3028217"><ele>848.0000000000001</ele><time>2026-04-17T13:40:54.247Z</time></trkpt><trkpt lat="42.9795367" lon="13.30287"><ele>848.0</ele><time>2026-04-17T13:41:08.247Z</time></trkpt><trkpt lat="42.9795683" lon="13.3027517"><ele>848.0</ele><time>2026-04-17T13:41:11.247Z</time></trkpt><trkpt lat="42.979615" lon="13.3026167"><ele>848.0</ele><time>2026-04-17T13:41:13.247Z</time></trkpt><trkpt lat="42.9796467" lon="13.30253"><ele>848.0000000000001</ele><time>2026-04-17T13:41:14.247Z</time></trkpt><trkpt lat="42.97968" lon="13.302445"><ele>848.0</ele><time>2026-04-17T13:41:15.247Z</time></trkpt><trkpt lat="42.9797167" lon="13.30237"><ele>846.0</ele><time>2026-04-17T13:41:16.247Z</time></trkpt><trkpt lat="42.9797683" lon="13.3022467"><ele>844.0</ele><time>2026-04-17T13:41:18.247Z</time></trkpt><trkpt lat="42.9798183" lon="13.302125"><ele>842.0</ele><time>2026-04-17T13:41:20.247Z</time></trkpt><trkpt lat="42.9798717" lon="13.3019967"><ele>840.0</ele><time>2026-04-17T13:41:22.247Z</time></trkpt><trkpt lat="42.9799083" lon="13.3019117"><ele>838.0</ele><time>2026-04-17T13:41:23.247Z</time></trkpt><trkpt lat="42.979945" lon="13.30183"><ele>837.9999999999999</ele><time>2026-04-17T13:41:24.247Z</time></trkpt><trkpt lat="42.979985" lon="13.30175"><ele>838.0</ele><time>2026-04-17T13:41:25.247Z</time></trkpt><trkpt lat="42.9800533" lon="13.3016017"><ele>838.0</ele><time>2026-04-17T13:41:27.247Z</time></trkpt><trkpt lat="42.98008" lon="13.3015183"><ele>838.0</ele><time>2026-04-17T13:41:28.247Z</time></trkpt><trkpt lat="42.9801067" lon="13.301435"><ele>837.9999999999999</ele><time>2026-04-17T13:41:29.247Z</time></trkpt><trkpt lat="42.9801367" lon="13.3013517"><ele>838.0</ele><time>2026-04-17T13:41:30.247Z</time></trkpt><trkpt lat="42.9801567" lon="13.3012633"><ele>843.4</ele><time>2026-04-17T13:41:31.247Z</time></trkpt><trkpt lat="42.980195" lon="13.3011283"><ele>848.8</ele><time>2026-04-17T13:41:33.247Z</time></trkpt><trkpt lat="42.9802217" lon="13.3010167"><ele>854.2</ele><time>2026-04-17T13:41:35.247Z</time></trkpt><trkpt lat="42.98025" lon="13.3009167"><ele>859.6</ele><time>2026-04-17T13:41:37.247Z</time></trkpt><trkpt lat="42.9802867" lon="13.3007933"><ele>865.0</ele><time>2026-04-17T13:41:39.247Z</time></trkpt><trkpt lat="42.98031" lon="13.3006583"><ele>862.2</ele><time>2026-04-17T13:41:41.247Z</time></trkpt><trkpt lat="42.9803467" lon="13.3005333"><ele>859.4</ele><time>2026-04-17T13:41:43.247Z</time></trkpt><trkpt lat="42.9803983" lon="13.30042"><ele>856.5999999999999</ele><time>2026-04-17T13:41:45.247Z</time></trkpt><trkpt lat="42.9804583" lon="13.3002783"><ele>853.8</ele><time>2026-04-17T13:41:48.247Z</time></trkpt><trkpt lat="42.980495" lon="13.3001783"><ele>851.0</ele><time>2026-04-17T13:41:50.247Z</time></trkpt><trkpt lat="42.980505" lon="13.3000867"><ele>851.0000000000001</ele><time>2026-04-17T13:41:52.247Z</time></trkpt><trkpt lat="42.9804383" lon="13.300015"><ele>851.0</ele><time>2026-04-17T13:42:15.247Z</time></trkpt><trkpt lat="42.9803583" lon="13.3000283"><ele>851.0</ele><time>2026-04-17T13:42:18.247Z</time></trkpt><trkpt lat="42.9803033" lon="13.3000767"><ele>851.0</ele><time>2026-04-17T13:42:21.247Z</time></trkpt><trkpt lat="42.9802783" lon="13.3001567"><ele>851.0000000000001</ele><time>2026-04-17T13:42:24.247Z</time></trkpt><trkpt lat="42.9802283" lon="13.3002467"><ele>851.0</ele><time>2026-04-17T13:42:28.247Z</time></trkpt><trkpt lat="42.9801767" lon="13.3003467"><ele>851.0000000000001</ele><time>2026-04-17T13:42:37.247Z</time></trkpt><trkpt lat="42.9801333" lon="13.3004333"><ele>851.0</ele><time>2026-04-17T13:42:40.247Z</time></trkpt><trkpt lat="42.98011" lon="13.300535"><ele>851.0</ele><time>2026-04-17T13:42:46.247Z</time></trkpt><trkpt lat="42.9800833" lon="13.3006133"><ele>851.0</ele><time>2026-04-17T13:42:48.247Z</time></trkpt><trkpt lat="42.980035" lon="13.30067"><ele>851.0000000000001</ele><time>2026-04-17T13:42:50.247Z</time></trkpt><trkpt lat="42.979965" lon="13.3007683"><ele>851.0</ele><time>2026-04-17T13:42:59.247Z</time></trkpt><trkpt lat="42.9799033" lon="13.3008617"><ele>844.8</ele><time>2026-04-17T13:43:02.247Z</time></trkpt><trkpt lat="42.97986" lon="13.3009333"><ele>838.5999999999999</ele><time>2026-04-17T13:43:06.247Z</time></trkpt><trkpt lat="42.9797633" lon="13.301095"><ele>832.4</ele><time>2026-04-17T13:44:04.247Z</time></trkpt><trkpt lat="42.9797217" lon="13.3011767"><ele>826.2</ele><time>2026-04-17T13:44:20.247Z</time></trkpt><trkpt lat="42.9796383" lon="13.3011717"><ele>820.0</ele><time>2026-04-17T13:58:14.245Z</time></trkpt><trkpt lat="42.9795717" lon="13.3012617"><ele>820.0</ele><time>2026-04-17T13:58:24.245Z</time></trkpt><trkpt lat="42.979495" lon="13.3013517"><ele>820.0</ele><time>2026-04-17T14:00:08.245Z</time></trkpt><trkpt lat="42.97943" lon="13.3014167"><ele>820.0</ele><time>2026-04-17T14:00:10.245Z</time></trkpt><trkpt lat="42.97937" lon="13.3015183"><ele>820.0</ele><time>2026-04-17T14:00:12.245Z</time></trkpt><trkpt lat="42.9792983" lon="13.30162"><ele>820.0</ele><time>2026-04-17T14:00:14.245Z</time></trkpt><trkpt lat="42.9792217" lon="13.3017233"><ele>815.9999999999999</ele><time>2026-04-17T14:00:16.245Z</time></trkpt><trkpt lat="42.979145" lon="13.301795"><ele>812.0</ele><time>2026-04-17T14:00:18.245Z</time></trkpt><trkpt lat="42.9790883" lon="13.3018483"><ele>808.0</ele><time>2026-04-17T14:00:20.244Z</time></trkpt><trkpt lat="42.9790233" lon="13.3019333"><ele>804.0</ele><time>2026-04-17T14:00:22.244Z</time></trkpt><trkpt lat="42.9789583" lon="13.3019983"><ele>799.9999999999999</ele><time>2026-04-17T14:00:24.244Z</time></trkpt><trkpt lat="42.9788967" lon="13.302065"><ele>796.0</ele><time>2026-04-17T14:00:27.244Z</time></trkpt><trkpt lat="42.97884" lon="13.3021283"><ele>795.9999999999999</ele><time>2026-04-17T14:00:30.244Z</time></trkpt><trkpt lat="42.9787917" lon="13.30223"><ele>796.0</ele><time>2026-04-17T14:00:34.244Z</time></trkpt><trkpt lat="42.9787733" lon="13.3023317"><ele>796.0</ele><time>2026-04-17T14:00:37.244Z</time></trkpt><trkpt lat="42.978715" lon="13.3024067"><ele>796.0</ele><time>2026-04-17T14:00:40.244Z</time></trkpt><trkpt lat="42.978665" lon="13.3024733"><ele>795.9999999999999</ele><time>2026-04-17T14:00:42.244Z</time></trkpt><trkpt lat="42.9785883" lon="13.30257"><ele>796.0</ele><time>2026-04-17T14:01:01.244Z</time></trkpt><trkpt lat="42.97853" lon="13.3026417"><ele>794.3333333333333</ele><time>2026-04-17T14:01:03.244Z</time></trkpt><trkpt lat="42.9784944" lon="13.3027564"><ele>792.6666666666666</ele><time>2026-04-17T14:01:09.253Z</time></trkpt><trkpt lat="42.9784181" lon="13.3028084"><ele>791.0</ele><time>2026-04-17T14:01:10.16Z</time></trkpt><trkpt lat="42.9783621" lon="13.3028743"><ele>789.3333333333333</ele><time>2026-04-17T14:01:12.273Z</time></trkpt><trkpt lat="42.9783079" lon="13.3029381"><ele>787.6666666666666</ele><time>2026-04-17T14:01:21.313Z</time></trkpt><trkpt lat="42.9782558" lon="13.3030161"><ele>786.0</ele><time>2026-04-17T14:01:24.293Z</time></trkpt><trkpt lat="42.9782025" lon="13.3031172"><ele>786.0000000000001</ele><time>2026-04-17T14:01:27.304Z</time></trkpt><trkpt lat="42.9781557" lon="13.3031986"><ele>786.0</ele><time>2026-04-17T14:01:29.359Z</time></trkpt><trkpt lat="42.9781013" lon="13.3032432"><ele>786.0</ele><time>2026-04-17T14:01:32.256Z</time></trkpt><trkpt lat="42.97804" lon="13.3032917"><ele>786.0</ele><time>2026-04-17T14:02:33.244Z</time></trkpt><trkpt lat="42.977985" lon="13.3032317"><ele>786.0</ele><time>2026-04-17T14:02:45.244Z</time></trkpt><trkpt lat="42.9780317" lon="13.303125"><ele>786.0000000000001</ele><time>2026-04-17T14:03:32.244Z</time></trkpt><trkpt lat="42.9780817" lon="13.30306"><ele>786.0</ele><time>2026-04-17T14:03:36.244Z</time></trkpt><trkpt lat="42.978115" lon="13.30297"><ele>783.8333333333334</ele><time>2026-04-17T14:03:42.244Z</time></trkpt><trkpt lat="42.97812" lon="13.3028533"><ele>781.6666666666667</ele><time>2026-04-17T14:04:05.244Z</time></trkpt><trkpt lat="42.9781333" lon="13.3027383"><ele>779.5</ele><time>2026-04-17T14:04:13.244Z</time></trkpt><trkpt lat="42.9781383" lon="13.3026417"><ele>777.3333333333334</ele><time>2026-04-17T14:04:18.244Z</time></trkpt><trkpt lat="42.9781517" lon="13.3025367"><ele>775.1666666666667</ele><time>2026-04-17T14:04:23.244Z</time></trkpt><trkpt lat="42.978165" lon="13.3024333"><ele>773.0</ele><time>2026-04-17T14:04:27.244Z</time></trkpt><trkpt lat="42.9782033" lon="13.3023483"><ele>773.0000000000001</ele><time>2026-04-17T14:04:31.244Z</time></trkpt><trkpt lat="42.9782383" lon="13.3022617"><ele>773.0</ele><time>2026-04-17T14:04:34.244Z</time></trkpt><trkpt lat="42.9782" lon="13.3021783"><ele>773.0</ele><time>2026-04-17T14:04:39.244Z</time></trkpt><trkpt lat="42.9781217" lon="13.3021533"><ele>773.0</ele><time>2026-04-17T14:04:44.244Z</time></trkpt><trkpt lat="42.978055" lon="13.302185"><ele>773.0000000000001</ele><time>2026-04-17T14:04:47.244Z</time></trkpt><trkpt lat="42.9779983" lon="13.3022483"><ele>773.0</ele><time>2026-04-17T14:04:49.244Z</time></trkpt><trkpt lat="42.97794" lon="13.3023283"><ele>773.0000000000001</ele><time>2026-04-17T14:04:51.244Z</time></trkpt><trkpt lat="42.9778683" lon="13.302405"><ele>773.0</ele><time>2026-04-17T14:04:53.244Z</time></trkpt><trkpt lat="42.97781" lon="13.302455"><ele>773.0</ele><time>2026-04-17T14:04:55.244Z</time></trkpt><trkpt lat="42.9777402" lon="13.3024697"><ele>773.0</ele><time>2026-04-17T14:04:59.201Z</time></trkpt><trkpt lat="42.9776717" lon="13.3023912"><ele>773.0000000000001</ele><time>2026-04-17T14:05:02.3Z</time></trkpt><trkpt lat="42.9775917" lon="13.3023451"><ele>773.0</ele><time>2026-04-17T14:05:05.278Z</time></trkpt><trkpt lat="42.9775235" lon="13.3023867"><ele>772.4</ele><time>2026-04-17T14:05:09.288Z</time></trkpt><trkpt lat="42.9774253" lon="13.3023837"><ele>771.8</ele><time>2026-04-17T14:05:22.278Z</time></trkpt><trkpt lat="42.9773679" lon="13.3024241"><ele>771.2</ele><time>2026-04-17T14:05:25.259Z</time></trkpt><trkpt lat="42.9773041" lon="13.3024699"><ele>770.6</ele><time>2026-04-17T14:05:29.278Z</time></trkpt><trkpt lat="42.9771933" lon="13.302505"><ele>770.0</ele><time>2026-04-17T14:06:05.244Z</time></trkpt><trkpt lat="42.9770683" lon="13.3025233"><ele>770.0</ele><time>2026-04-17T14:06:07.244Z</time></trkpt><trkpt lat="42.9769883" lon="13.302515"><ele>770.0</ele><time>2026-04-17T14:06:08.244Z</time></trkpt><trkpt lat="42.976925" lon="13.3025"><ele>770.0</ele><time>2026-04-17T14:06:09.244Z</time></trkpt><trkpt lat="42.9768433" lon="13.3024283"><ele>770.0</ele><time>2026-04-17T14:06:11.244Z</time></trkpt><trkpt lat="42.9768017" lon="13.3023433"><ele>770.0</ele><time>2026-04-17T14:06:13.244Z</time></trkpt><trkpt lat="42.9767683" lon="13.3022683"><ele>770.0</ele><time>2026-04-17T14:06:15.244Z</time></trkpt><trkpt lat="42.9767117" lon="13.3022217"><ele>770.0</ele><time>2026-04-17T14:06:18.244Z</time></trkpt><trkpt lat="42.9766267" lon="13.3022917"><ele>771.6666666666667</ele><time>2026-04-17T14:06:21.244Z</time></trkpt><trkpt lat="42.976565" lon="13.3024267"><ele>773.3333333333334</ele><time>2026-04-17T14:06:23.244Z</time></trkpt><trkpt lat="42.9764917" lon="13.3025067"><ele>775.0</ele><time>2026-04-17T14:06:25.244Z</time></trkpt><trkpt lat="42.9764233" lon="13.30252"><ele>776.6666666666667</ele><time>2026-04-17T14:06:27.244Z</time></trkpt><trkpt lat="42.9763367" lon="13.3025783"><ele>778.3333333333334</ele><time>2026-04-17T14:06:29.244Z</time></trkpt><trkpt lat="42.9762933" lon="13.3026467"><ele>780.0</ele><time>2026-04-17T14:06:30.244Z</time></trkpt><trkpt lat="42.9762183" lon="13.3027783"><ele>780.0</ele><time>2026-04-17T14:06:32.244Z</time></trkpt><trkpt lat="42.9761367" lon="13.3029317"><ele>780.0</ele><time>2026-04-17T14:06:34.244Z</time></trkpt><trkpt lat="42.9761083" lon="13.3030117"><ele>780.0</ele><time>2026-04-17T14:06:35.244Z</time></trkpt><trkpt lat="42.97607" lon="13.303085"><ele>780.0</ele><time>2026-04-17T14:06:36.244Z</time></trkpt><trkpt lat="42.97602" lon="13.3031567"><ele>780.0</ele><time>2026-04-17T14:06:37.244Z</time></trkpt><trkpt lat="42.9759617" lon="13.3032083"><ele>780.0</ele><time>2026-04-17T14:06:38.244Z</time></trkpt><trkpt lat="42.9758917" lon="13.303255"><ele>778.3333333333334</ele><time>2026-04-17T14:06:39.244Z</time></trkpt><trkpt lat="42.9758267" lon="13.303295"><ele>776.6666666666667</ele><time>2026-04-17T14:06:40.244Z</time></trkpt><trkpt lat="42.97576" lon="13.3033333"><ele>775.0</ele><time>2026-04-17T14:06:41.244Z</time></trkpt><trkpt lat="42.9756967" lon="13.3033583"><ele>773.3333333333334</ele><time>2026-04-17T14:06:42.244Z</time></trkpt><trkpt lat="42.975595" lon="13.3034083"><ele>771.6666666666667</ele><time>2026-04-17T14:06:44.244Z</time></trkpt><trkpt lat="42.97553" lon="13.3035067"><ele>770.0</ele><time>2026-04-17T14:06:46.244Z</time></trkpt><trkpt lat="42.9755317" lon="13.303645"><ele>770.0</ele><time>2026-04-17T14:06:48.244Z</time></trkpt><trkpt lat="42.9755533" lon="13.3037617"><ele>770.0</ele><time>2026-04-17T14:06:49.244Z</time></trkpt><trkpt lat="42.9755917" lon="13.303875"><ele>770.0</ele><time>2026-04-17T14:06:50.244Z</time></trkpt><trkpt lat="42.9756417" lon="13.303995"><ele>770.0</ele><time>2026-04-17T14:06:51.244Z</time></trkpt><trkpt lat="42.975695" lon="13.3041133"><ele>770.0</ele><time>2026-04-17T14:06:52.244Z</time></trkpt><trkpt lat="42.9757267" lon="13.30424"><ele>768.4</ele><time>2026-04-17T14:06:53.244Z</time></trkpt><trkpt lat="42.97574" lon="13.3043767"><ele>766.8</ele><time>2026-04-17T14:06:54.244Z</time></trkpt><trkpt lat="42.975755" lon="13.3045117"><ele>765.2</ele><time>2026-04-17T14:06:55.244Z</time></trkpt><trkpt lat="42.9757633" lon="13.3046517"><ele>763.6</ele><time>2026-04-17T14:06:56.244Z</time></trkpt><trkpt lat="42.9757517" lon="13.3047883"><ele>762.0</ele><time>2026-04-17T14:06:57.244Z</time></trkpt><trkpt lat="42.9757317" lon="13.3049333"><ele>760.0</ele><time>2026-04-17T14:06:58.244Z</time></trkpt><trkpt lat="42.9757183" lon="13.3050767"><ele>758.0</ele><time>2026-04-17T14:06:59.244Z</time></trkpt><trkpt lat="42.9757083" lon="13.3052217"><ele>756.0</ele><time>2026-04-17T14:07:00.244Z</time></trkpt><trkpt lat="42.9757033" lon="13.3053617"><ele>754.0</ele><time>2026-04-17T14:07:01.244Z</time></trkpt><trkpt lat="42.9757" lon="13.305485"><ele>752.0</ele><time>2026-04-17T14:07:02.244Z</time></trkpt><trkpt lat="42.97569" lon="13.3056"><ele>749.7142857142857</ele><time>2026-04-17T14:07:03.244Z</time></trkpt><trkpt lat="42.9756733" lon="13.3056983"><ele>747.4285714285713</ele><time>2026-04-17T14:07:04.244Z</time></trkpt><trkpt lat="42.9756617" lon="13.3057917"><ele>745.1428571428571</ele><time>2026-04-17T14:07:05.244Z</time></trkpt><trkpt lat="42.9756667" lon="13.3058867"><ele>742.8571428571429</ele><time>2026-04-17T14:07:06.244Z</time></trkpt><trkpt lat="42.975685" lon="13.3059867"><ele>740.5714285714286</ele><time>2026-04-17T14:07:07.244Z</time></trkpt><trkpt lat="42.9757017" lon="13.3060967"><ele>738.2857142857143</ele><time>2026-04-17T14:07:08.244Z</time></trkpt><trkpt lat="42.9757033" lon="13.3062033"><ele>736.0</ele><time>2026-04-17T14:07:09.243Z</time></trkpt><trkpt lat="42.975685" lon="13.3063033"><ele>736.0</ele><time>2026-04-17T14:07:10.243Z</time></trkpt><trkpt lat="42.9756633" lon="13.3063933"><ele>736.0</ele><time>2026-04-17T14:07:11.243Z</time></trkpt><trkpt lat="42.9756083" lon="13.3065317"><ele>736.0</ele><time>2026-04-17T14:07:13.243Z</time></trkpt><trkpt lat="42.97556" lon="13.30662"><ele>736.0</ele><time>2026-04-17T14:07:15.243Z</time></trkpt><trkpt lat="42.9755867" lon="13.3067333"><ele>736.0</ele><time>2026-04-17T14:07:18.243Z</time></trkpt><trkpt lat="42.975675" lon="13.30671"><ele>736.0</ele><time>2026-04-17T14:07:21.243Z</time></trkpt><trkpt lat="42.975735" lon="13.3065833"><ele>734.8333333333334</ele><time>2026-04-17T14:07:23.243Z</time></trkpt><trkpt lat="42.975775" lon="13.3064667"><ele>733.6666666666667</ele><time>2026-04-17T14:07:25.243Z</time></trkpt><trkpt lat="42.97583" lon="13.3064117"><ele>732.5</ele><time>2026-04-17T14:07:27.243Z</time></trkpt><trkpt lat="42.97589" lon="13.3064667"><ele>731.3333333333334</ele><time>2026-04-17T14:07:29.243Z</time></trkpt><trkpt lat="42.97592" lon="13.3065767"><ele>730.1666666666666</ele><time>2026-04-17T14:07:31.243Z</time></trkpt><trkpt lat="42.9758883" lon="13.30672"><ele>729.0</ele><time>2026-04-17T14:07:33.243Z</time></trkpt><trkpt lat="42.9758467" lon="13.3068133"><ele>727.6</ele><time>2026-04-17T14:07:34.243Z</time></trkpt><trkpt lat="42.97581" lon="13.3069117"><ele>726.2</ele><time>2026-04-17T14:07:35.243Z</time></trkpt><trkpt lat="42.9757783" lon="13.3069983"><ele>724.8000000000001</ele><time>2026-04-17T14:07:36.243Z</time></trkpt><trkpt lat="42.975735" lon="13.3071583"><ele>723.4000000000001</ele><time>2026-04-17T14:07:38.243Z</time></trkpt><trkpt lat="42.9757433" lon="13.3073417"><ele>722.0</ele><time>2026-04-17T14:07:40.243Z</time></trkpt><trkpt lat="42.9757333" lon="13.307455"><ele>718.6666666666666</ele><time>2026-04-17T14:07:41.243Z</time></trkpt><trkpt lat="42.975725" lon="13.30756"><ele>715.3333333333333</ele><time>2026-04-17T14:07:42.243Z</time></trkpt><trkpt lat="42.9757233" lon="13.307665"><ele>712.0</ele><time>2026-04-17T14:07:43.243Z</time></trkpt><trkpt lat="42.975725" lon="13.3077783"><ele>708.6666666666666</ele><time>2026-04-17T14:07:44.243Z</time></trkpt><trkpt lat="42.975735" lon="13.3078967"><ele>705.3333333333334</ele><time>2026-04-17T14:07:45.243Z</time></trkpt><trkpt lat="42.9757667" lon="13.3080417"><ele>702.0</ele><time>2026-04-17T14:07:46.243Z</time></trkpt><trkpt lat="42.9758017" lon="13.30818"><ele>698.0</ele><time>2026-04-17T14:07:47.243Z</time></trkpt><trkpt lat="42.975815" lon="13.308295"><ele>694.0</ele><time>2026-04-17T14:07:48.243Z</time></trkpt><trkpt lat="42.97584" lon="13.3084017"><ele>690.0</ele><time>2026-04-17T14:07:49.243Z</time></trkpt><trkpt lat="42.9758683" lon="13.3084983"><ele>686.0</ele><time>2026-04-17T14:07:50.243Z</time></trkpt><trkpt lat="42.975895" lon="13.3085917"><ele>682.0</ele><time>2026-04-17T14:07:51.243Z</time></trkpt><trkpt lat="42.9758833" lon="13.3086867"><ele>678.0</ele><time>2026-04-17T14:07:52.243Z</time></trkpt><trkpt lat="42.9758567" lon="13.3087783"><ele>678.0</ele><time>2026-04-17T14:07:53.243Z</time></trkpt><trkpt lat="42.97582" lon="13.308875"><ele>678.0</ele><time>2026-04-17T14:07:54.243Z</time></trkpt><trkpt lat="42.9757867" lon="13.308975"><ele>678.0</ele><time>2026-04-17T14:07:55.243Z</time></trkpt><trkpt lat="42.975775" lon="13.309085"><ele>678.0</ele><time>2026-04-17T14:07:56.243Z</time></trkpt><trkpt lat="42.975775" lon="13.3092033"><ele>678.0</ele><time>2026-04-17T14:07:57.243Z</time></trkpt><trkpt lat="42.975775" lon="13.3093233"><ele>678.0</ele><time>2026-04-17T14:07:58.243Z</time></trkpt><trkpt lat="42.97577" lon="13.3094483"><ele>676.3333333333334</ele><time>2026-04-17T14:07:59.243Z</time></trkpt><trkpt lat="42.975775" lon="13.3095633"><ele>674.6666666666666</ele><time>2026-04-17T14:08:00.243Z</time></trkpt><trkpt lat="42.9757783" lon="13.3096783"><ele>673.0</ele><time>2026-04-17T14:08:01.243Z</time></trkpt><trkpt lat="42.9757633" lon="13.3097817"><ele>671.3333333333333</ele><time>2026-04-17T14:08:02.243Z</time></trkpt><trkpt lat="42.9757633" lon="13.3098767"><ele>669.6666666666666</ele><time>2026-04-17T14:08:03.243Z</time></trkpt><trkpt lat="42.9757567" lon="13.30997"><ele>668.0</ele><time>2026-04-17T14:08:04.243Z</time></trkpt><trkpt lat="42.9757283" lon="13.310055"><ele>666.0</ele><time>2026-04-17T14:08:05.243Z</time></trkpt><trkpt lat="42.9757117" lon="13.31015"><ele>664.0</ele><time>2026-04-17T14:08:06.243Z</time></trkpt><trkpt lat="42.9756967" lon="13.3102517"><ele>662.0</ele><time>2026-04-17T14:08:07.243Z</time></trkpt><trkpt lat="42.975685" lon="13.31037"><ele>660.0</ele><time>2026-04-17T14:08:08.243Z</time></trkpt><trkpt lat="42.9756733" lon="13.310495"><ele>658.0</ele><time>2026-04-17T14:08:09.243Z</time></trkpt><trkpt lat="42.9756667" lon="13.3106183"><ele>656.0</ele><time>2026-04-17T14:08:10.243Z</time></trkpt><trkpt lat="42.9756633" lon="13.31076"><ele>654.0</ele><time>2026-04-17T14:08:11.243Z</time></trkpt><trkpt lat="42.9756717" lon="13.310895"><ele>652.0</ele><time>2026-04-17T14:08:12.243Z</time></trkpt><trkpt lat="42.9756833" lon="13.311035"><ele>650.0</ele><time>2026-04-17T14:08:13.243Z</time></trkpt><trkpt lat="42.9756783" lon="13.3111783"><ele>648.0</ele><time>2026-04-17T14:08:14.243Z</time></trkpt><trkpt lat="42.9756717" lon="13.31131"><ele>646.0</ele><time>2026-04-17T14:08:15.243Z</time></trkpt><trkpt lat="42.9756633" lon="13.3114367"><ele>644.3333333333334</ele><time>2026-04-17T14:08:16.243Z</time></trkpt><trkpt lat="42.975655" lon="13.31155"><ele>642.6666666666667</ele><time>2026-04-17T14:08:17.243Z</time></trkpt><trkpt lat="42.9756517" lon="13.3116567"><ele>641.0</ele><time>2026-04-17T14:08:18.243Z</time></trkpt><trkpt lat="42.9756517" lon="13.31176"><ele>639.3333333333334</ele><time>2026-04-17T14:08:19.243Z</time></trkpt><trkpt lat="42.9756583" lon="13.3118633"><ele>637.6666666666666</ele><time>2026-04-17T14:08:20.243Z</time></trkpt><trkpt lat="42.9756717" lon="13.3119767"><ele>636.0</ele><time>2026-04-17T14:08:21.243Z</time></trkpt><trkpt lat="42.9756867" lon="13.3121"><ele>636.0</ele><time>2026-04-17T14:08:22.243Z</time></trkpt><trkpt lat="42.9757117" lon="13.3122333"><ele>636.0</ele><time>2026-04-17T14:08:23.243Z</time></trkpt><trkpt lat="42.9757433" lon="13.3123583"><ele>636.0</ele><time>2026-04-17T14:08:24.243Z</time></trkpt><trkpt lat="42.9757783" lon="13.312485"><ele>636.0</ele><time>2026-04-17T14:08:25.243Z</time></trkpt><trkpt lat="42.975815" lon="13.3126317"><ele>636.0</ele><time>2026-04-17T14:08:26.243Z</time></trkpt><trkpt lat="42.9758567" lon="13.3127683"><ele>633.25</ele><time>2026-04-17T14:08:27.243Z</time></trkpt><trkpt lat="42.9758917" lon="13.3129233"><ele>630.5</ele><time>2026-04-17T14:08:28.243Z</time></trkpt><trkpt lat="42.97594" lon="13.3130533"><ele>627.75</ele><time>2026-04-17T14:08:29.243Z</time></trkpt><trkpt lat="42.9759833" lon="13.3132033"><ele>625.0</ele><time>2026-04-17T14:08:30.243Z</time></trkpt><trkpt lat="42.9760333" lon="13.3133317"><ele>621.0</ele><time>2026-04-17T14:08:31.243Z</time></trkpt><trkpt lat="42.9761067" lon="13.313445"><ele>617.0</ele><time>2026-04-17T14:08:32.243Z</time></trkpt><trkpt lat="42.9761883" lon="13.3135433"><ele>613.0</ele><time>2026-04-17T14:08:33.243Z</time></trkpt><trkpt lat="42.9762767" lon="13.3136283"><ele>609.0</ele><time>2026-04-17T14:08:34.243Z</time></trkpt><trkpt lat="42.9763567" lon="13.3137183"><ele>605.0</ele><time>2026-04-17T14:08:35.243Z</time></trkpt><trkpt lat="42.97642" lon="13.3138083"><ele>603.2</ele><time>2026-04-17T14:08:36.243Z</time></trkpt><trkpt lat="42.97646" lon="13.3139133"><ele>601.4</ele><time>2026-04-17T14:08:37.243Z</time></trkpt><trkpt lat="42.9764783" lon="13.3140317"><ele>599.6</ele><time>2026-04-17T14:08:38.243Z</time></trkpt><trkpt lat="42.976485" lon="13.31416"><ele>597.8</ele><time>2026-04-17T14:08:39.243Z</time></trkpt><trkpt lat="42.9764767" lon="13.3142933"><ele>596.0</ele><time>2026-04-17T14:08:40.243Z</time></trkpt><trkpt lat="42.97645" lon="13.3144167"><ele>596.0</ele><time>2026-04-17T14:08:41.243Z</time></trkpt><trkpt lat="42.976395" lon="13.3145417"><ele>596.0</ele><time>2026-04-17T14:08:42.243Z</time></trkpt><trkpt lat="42.9763167" lon="13.31464"><ele>596.0</ele><time>2026-04-17T14:08:43.243Z</time></trkpt><trkpt lat="42.97623" lon="13.3147167"><ele>596.0</ele><time>2026-04-17T14:08:44.243Z</time></trkpt><trkpt lat="42.9761417" lon="13.3147867"><ele>596.0</ele><time>2026-04-17T14:08:45.243Z</time></trkpt><trkpt lat="42.9760467" lon="13.31485"><ele>595.4</ele><time>2026-04-17T14:08:46.243Z</time></trkpt><trkpt lat="42.9759517" lon="13.3149033"><ele>594.8</ele><time>2026-04-17T14:08:47.243Z</time></trkpt><trkpt lat="42.9758733" lon="13.3149433"><ele>594.1999999999999</ele><time>2026-04-17T14:08:48.243Z</time></trkpt><trkpt lat="42.9758067" lon="13.31498"><ele>593.6</ele><time>2026-04-17T14:08:49.243Z</time></trkpt><trkpt lat="42.9757033" lon="13.3150633"><ele>593.0</ele><time>2026-04-17T14:08:51.243Z</time></trkpt><trkpt lat="42.9756083" lon="13.3151717"><ele>593.0</ele><time>2026-04-17T14:08:53.243Z</time></trkpt><trkpt lat="42.97555" lon="13.315245"><ele>593.0</ele><time>2026-04-17T14:08:54.243Z</time></trkpt><trkpt lat="42.975485" lon="13.3153117"><ele>593.0</ele><time>2026-04-17T14:08:55.243Z</time></trkpt><trkpt lat="42.9754167" lon="13.3153933"><ele>593.0</ele><time>2026-04-17T14:08:56.243Z</time></trkpt><trkpt lat="42.9753483" lon="13.3154867"><ele>593.0</ele><time>2026-04-17T14:08:57.243Z</time></trkpt><trkpt lat="42.97528" lon="13.31559"><ele>589.0</ele><time>2026-04-17T14:08:58.243Z</time></trkpt><trkpt lat="42.975215" lon="13.3156833"><ele>585.0</ele><time>2026-04-17T14:08:59.243Z</time></trkpt><trkpt lat="42.9751583" lon="13.3157733"><ele>581.0</ele><time>2026-04-17T14:09:00.243Z</time></trkpt><trkpt lat="42.9751017" lon="13.3158717"><ele>577.0</ele><time>2026-04-17T14:09:01.243Z</time></trkpt><trkpt lat="42.9750567" lon="13.31598"><ele>573.0</ele><time>2026-04-17T14:09:02.243Z</time></trkpt><trkpt lat="42.975025" lon="13.3161017"><ele>573.4</ele><time>2026-04-17T14:09:03.243Z</time></trkpt><trkpt lat="42.9749983" lon="13.3162433"><ele>573.8</ele><time>2026-04-17T14:09:04.243Z</time></trkpt><trkpt lat="42.9749817" lon="13.31639"><ele>574.2</ele><time>2026-04-17T14:09:05.243Z</time></trkpt><trkpt lat="42.9749733" lon="13.3165367"><ele>574.6</ele><time>2026-04-17T14:09:06.243Z</time></trkpt><trkpt lat="42.9749633" lon="13.3166767"><ele>575.0</ele><time>2026-04-17T14:09:07.243Z</time></trkpt><trkpt lat="42.9749467" lon="13.31682"><ele>573.2</ele><time>2026-04-17T14:09:08.243Z</time></trkpt><trkpt lat="42.9749433" lon="13.31696"><ele>571.4</ele><time>2026-04-17T14:09:09.243Z</time></trkpt><trkpt lat="42.9749417" lon="13.3171033"><ele>569.6</ele><time>2026-04-17T14:09:10.243Z</time></trkpt><trkpt lat="42.9749583" lon="13.3172367"><ele>567.8</ele><time>2026-04-17T14:09:11.243Z</time></trkpt><trkpt lat="42.97498" lon="13.317345"><ele>566.0</ele><time>2026-04-17T14:09:12.243Z</time></trkpt><trkpt lat="42.975025" lon="13.3174383"><ele>565.1666666666666</ele><time>2026-04-17T14:09:13.243Z</time></trkpt><trkpt lat="42.9750817" lon="13.3175183"><ele>564.3333333333333</ele><time>2026-04-17T14:09:14.243Z</time></trkpt><trkpt lat="42.9751417" lon="13.3175917"><ele>563.5</ele><time>2026-04-17T14:09:15.243Z</time></trkpt><trkpt lat="42.975195" lon="13.3176683"><ele>562.6666666666666</ele><time>2026-04-17T14:09:16.243Z</time></trkpt><trkpt lat="42.9752433" lon="13.3177533"><ele>561.8333333333334</ele><time>2026-04-17T14:09:17.243Z</time></trkpt><trkpt lat="42.9752567" lon="13.317855"><ele>561.0</ele><time>2026-04-17T14:09:18.243Z</time></trkpt><trkpt lat="42.9752433" lon="13.31797"><ele>560.8</ele><time>2026-04-17T14:09:19.243Z</time></trkpt><trkpt lat="42.9752133" lon="13.3180883"><ele>560.6</ele><time>2026-04-17T14:09:20.243Z</time></trkpt><trkpt lat="42.9751867" lon="13.318215"><ele>560.4</ele><time>2026-04-17T14:09:21.243Z</time></trkpt><trkpt lat="42.9751517" lon="13.31834"><ele>560.2</ele><time>2026-04-17T14:09:22.243Z</time></trkpt><trkpt lat="42.9751167" lon="13.31845"><ele>560.0</ele><time>2026-04-17T14:09:23.243Z</time></trkpt><trkpt lat="42.9750767" lon="13.3185433"><ele>560.0</ele><time>2026-04-17T14:09:24.243Z</time></trkpt><trkpt lat="42.9750417" lon="13.3186167"><ele>560.0</ele><time>2026-04-17T14:09:25.243Z</time></trkpt><trkpt lat="42.9750067" lon="13.3186933"><ele>560.0</ele><time>2026-04-17T14:09:26.243Z</time></trkpt><trkpt lat="42.97498" lon="13.3187867"><ele>560.0</ele><time>2026-04-17T14:09:27.243Z</time></trkpt><trkpt lat="42.97498" lon="13.3189"><ele>560.0</ele><time>2026-04-17T14:09:28.243Z</time></trkpt><trkpt lat="42.974995" lon="13.3190183"><ele>560.0</ele><time>2026-04-17T14:09:29.243Z</time></trkpt><trkpt lat="42.9750117" lon="13.3191417"><ele>559.8333333333333</ele><time>2026-04-17T14:09:30.243Z</time></trkpt><trkpt lat="42.9750233" lon="13.319265"><ele>559.6666666666666</ele><time>2026-04-17T14:09:31.243Z</time></trkpt><trkpt lat="42.9750367" lon="13.3193817"><ele>559.5</ele><time>2026-04-17T14:09:32.243Z</time></trkpt><trkpt lat="42.9750517" lon="13.3195"><ele>559.3333333333334</ele><time>2026-04-17T14:09:33.243Z</time></trkpt><trkpt lat="42.9750667" lon="13.319615"><ele>559.1666666666667</ele><time>2026-04-17T14:09:34.243Z</time></trkpt><trkpt lat="42.9750783" lon="13.3197217"><ele>559.0</ele><time>2026-04-17T14:09:35.243Z</time></trkpt><trkpt lat="42.9750883" lon="13.3198267"><ele>557.8333333333334</ele><time>2026-04-17T14:09:36.243Z</time></trkpt><trkpt lat="42.975105" lon="13.3199183"><ele>556.6666666666667</ele><time>2026-04-17T14:09:37.243Z</time></trkpt><trkpt lat="42.9751383" lon="13.3200017"><ele>555.5</ele><time>2026-04-17T14:09:38.243Z</time></trkpt><trkpt lat="42.97519" lon="13.3200733"><ele>554.3333333333334</ele><time>2026-04-17T14:09:39.243Z</time></trkpt><trkpt lat="42.9752583" lon="13.32011"><ele>553.1666666666666</ele><time>2026-04-17T14:09:40.243Z</time></trkpt><trkpt lat="42.9753483" lon="13.3201183"><ele>552.0</ele><time>2026-04-17T14:09:41.243Z</time></trkpt><trkpt lat="42.9754567" lon="13.3200867"><ele>552.0</ele><time>2026-04-17T14:09:42.243Z</time></trkpt><trkpt lat="42.9755767" lon="13.3200667"><ele>552.0</ele><time>2026-04-17T14:09:43.243Z</time></trkpt><trkpt lat="42.9756967" lon="13.3200767"><ele>552.0</ele><time>2026-04-17T14:09:44.243Z</time></trkpt><trkpt lat="42.975815" lon="13.3201167"><ele>552.0</ele><time>2026-04-17T14:09:45.243Z</time></trkpt><trkpt lat="42.9759267" lon="13.3201683"><ele>553.6</ele><time>2026-04-17T14:09:46.243Z</time></trkpt><trkpt lat="42.9760317" lon="13.3202417"><ele>555.2</ele><time>2026-04-17T14:09:47.243Z</time></trkpt><trkpt lat="42.9761217" lon="13.32034"><ele>556.8</ele><time>2026-04-17T14:09:48.243Z</time></trkpt><trkpt lat="42.9761983" lon="13.3204467"><ele>558.4</ele><time>2026-04-17T14:09:49.243Z</time></trkpt><trkpt lat="42.9762683" lon="13.3205317"><ele>560.0</ele><time>2026-04-17T14:09:50.243Z</time></trkpt><trkpt lat="42.97633" lon="13.3206083"><ele>560.0</ele><time>2026-04-17T14:09:51.243Z</time></trkpt><trkpt lat="42.9763783" lon="13.3207483"><ele>560.0</ele><time>2026-04-17T14:09:53.243Z</time></trkpt><trkpt lat="42.9763633" lon="13.3208383"><ele>560.0</ele><time>2026-04-17T14:09:54.243Z</time></trkpt><trkpt lat="42.97635" lon="13.320945"><ele>560.0</ele><time>2026-04-17T14:09:55.243Z</time></trkpt><trkpt lat="42.9763433" lon="13.321065"><ele>560.0</ele><time>2026-04-17T14:09:56.243Z</time></trkpt><trkpt lat="42.9763417" lon="13.3211883"><ele>560.0</ele><time>2026-04-17T14:09:57.243Z</time></trkpt><trkpt lat="42.97633" lon="13.32132"><ele>557.6</ele><time>2026-04-17T14:09:58.243Z</time></trkpt><trkpt lat="42.9763067" lon="13.3214583"><ele>555.2</ele><time>2026-04-17T14:09:59.243Z</time></trkpt><trkpt lat="42.976295" lon="13.3215867"><ele>552.8</ele><time>2026-04-17T14:10:00.243Z</time></trkpt><trkpt lat="42.9763117" lon="13.3217383"><ele>550.4</ele><time>2026-04-17T14:10:01.243Z</time></trkpt><trkpt lat="42.9763517" lon="13.321895"><ele>548.0</ele><time>2026-04-17T14:10:02.243Z</time></trkpt><trkpt lat="42.9764017" lon="13.32204"><ele>548.0</ele><time>2026-04-17T14:10:03.243Z</time></trkpt><trkpt lat="42.9764567" lon="13.3221783"><ele>548.0</ele><time>2026-04-17T14:10:04.243Z</time></trkpt><trkpt lat="42.976515" lon="13.3223267"><ele>548.0</ele><time>2026-04-17T14:10:05.243Z</time></trkpt><trkpt lat="42.9765733" lon="13.3224767"><ele>548.0</ele><time>2026-04-17T14:10:06.243Z</time></trkpt><trkpt lat="42.976635" lon="13.3226333"><ele>549.0</ele><time>2026-04-17T14:10:07.243Z</time></trkpt><trkpt lat="42.976695" lon="13.3227867"><ele>550.0</ele><time>2026-04-17T14:10:08.243Z</time></trkpt><trkpt lat="42.97675" lon="13.3229183"><ele>551.0</ele><time>2026-04-17T14:10:09.243Z</time></trkpt><trkpt lat="42.9768083" lon="13.323055"><ele>552.0</ele><time>2026-04-17T14:10:10.243Z</time></trkpt><trkpt lat="42.9768583" lon="13.3232017"><ele>552.0</ele><time>2026-04-17T14:10:11.243Z</time></trkpt><trkpt lat="42.9769" lon="13.3233417"><ele>552.0</ele><time>2026-04-17T14:10:12.243Z</time></trkpt><trkpt lat="42.97694" lon="13.32349"><ele>552.0</ele><time>2026-04-17T14:10:13.243Z</time></trkpt><trkpt lat="42.97697" lon="13.3236533"><ele>552.0</ele><time>2026-04-17T14:10:14.243Z</time></trkpt><trkpt lat="42.9769867" lon="13.3238133"><ele>549.8000000000001</ele><time>2026-04-17T14:10:15.243Z</time></trkpt><trkpt lat="42.977015" lon="13.3239617"><ele>547.6</ele><time>2026-04-17T14:10:16.243Z</time></trkpt><trkpt lat="42.9770517" lon="13.324095"><ele>545.4000000000001</ele><time>2026-04-17T14:10:17.243Z</time></trkpt><trkpt lat="42.97711" lon="13.3242183"><ele>543.2</ele><time>2026-04-17T14:10:18.243Z</time></trkpt><trkpt lat="42.9771767" lon="13.3243283"><ele>541.0</ele><time>2026-04-17T14:10:19.243Z</time></trkpt><trkpt lat="42.97724" lon="13.3244183"><ele>541.0</ele><time>2026-04-17T14:10:20.243Z</time></trkpt><trkpt lat="42.9772917" lon="13.3245183"><ele>541.0</ele><time>2026-04-17T14:10:21.243Z</time></trkpt><trkpt lat="42.97734" lon="13.3246167"><ele>541.0</ele><time>2026-04-17T14:10:22.242Z</time></trkpt><trkpt lat="42.977385" lon="13.324715"><ele>541.0</ele><time>2026-04-17T14:10:23.243Z</time></trkpt><trkpt lat="42.9774183" lon="13.32482"><ele>541.0</ele><time>2026-04-17T14:10:24.243Z</time></trkpt><trkpt lat="42.9774417" lon="13.324925"><ele>541.0</ele><time>2026-04-17T14:10:25.243Z</time></trkpt><trkpt lat="42.9774367" lon="13.3250283"><ele>539.6</ele><time>2026-04-17T14:10:26.243Z</time></trkpt><trkpt lat="42.977405" lon="13.3251333"><ele>538.2</ele><time>2026-04-17T14:10:27.243Z</time></trkpt><trkpt lat="42.9773633" lon="13.3252417"><ele>536.8</ele><time>2026-04-17T14:10:28.243Z</time></trkpt><trkpt lat="42.97732" lon="13.325365"><ele>535.4</ele><time>2026-04-17T14:10:29.243Z</time></trkpt><trkpt lat="42.9772983" lon="13.325525"><ele>534.0</ele><time>2026-04-17T14:10:30.243Z</time></trkpt><trkpt lat="42.97731" lon="13.3256833"><ele>532.5</ele><time>2026-04-17T14:10:31.243Z</time></trkpt><trkpt lat="42.9773233" lon="13.3258267"><ele>531.0</ele><time>2026-04-17T14:10:32.243Z</time></trkpt><trkpt lat="42.9773267" lon="13.3259583"><ele>529.5</ele><time>2026-04-17T14:10:33.243Z</time></trkpt><trkpt lat="42.9773333" lon="13.3260717"><ele>528.0</ele><time>2026-04-17T14:10:34.243Z</time></trkpt><trkpt lat="42.977355" lon="13.32617"><ele>526.5</ele><time>2026-04-17T14:10:35.243Z</time></trkpt><trkpt lat="42.977395" lon="13.3262383"><ele>525.0</ele><time>2026-04-17T14:10:36.243Z</time></trkpt><trkpt lat="42.977455" lon="13.3262967"><ele>523.6</ele><time>2026-04-17T14:10:37.243Z</time></trkpt><trkpt lat="42.9775317" lon="13.3263417"><ele>522.2</ele><time>2026-04-17T14:10:38.243Z</time></trkpt><trkpt lat="42.9776217" lon="13.3263817"><ele>520.8</ele><time>2026-04-17T14:10:39.243Z</time></trkpt><trkpt lat="42.97772" lon="13.3263933"><ele>519.4</ele><time>2026-04-17T14:10:40.243Z</time></trkpt><trkpt lat="42.9778067" lon="13.3263967"><ele>518.0</ele><time>2026-04-17T14:10:41.243Z</time></trkpt><trkpt lat="42.9778933" lon="13.3263883"><ele>516.5</ele><time>2026-04-17T14:10:42.243Z</time></trkpt><trkpt lat="42.977965" lon="13.326405"><ele>515.0</ele><time>2026-04-17T14:10:43.243Z</time></trkpt><trkpt lat="42.97804" lon="13.3265217"><ele>513.5</ele><time>2026-04-17T14:10:45.242Z</time></trkpt><trkpt lat="42.9780233" lon="13.326615"><ele>512.0</ele><time>2026-04-17T14:10:46.243Z</time></trkpt><trkpt lat="42.9779767" lon="13.3267133"><ele>510.49999999999994</ele><time>2026-04-17T14:10:47.243Z</time></trkpt><trkpt lat="42.9779067" lon="13.3268167"><ele>509.0</ele><time>2026-04-17T14:10:48.243Z</time></trkpt><trkpt lat="42.9778183" lon="13.3269317"><ele>509.0</ele><time>2026-04-17T14:10:49.243Z</time></trkpt><trkpt lat="42.9777317" lon="13.3270517"><ele>509.0</ele><time>2026-04-17T14:10:50.243Z</time></trkpt><trkpt lat="42.9776517" lon="13.3271733"><ele>509.0</ele><time>2026-04-17T14:10:51.243Z</time></trkpt><trkpt lat="42.9775683" lon="13.32729"><ele>509.0</ele><time>2026-04-17T14:10:52.242Z</time></trkpt><trkpt lat="42.977485" lon="13.3274"><ele>508.3333333333333</ele><time>2026-04-17T14:10:53.243Z</time></trkpt><trkpt lat="42.977415" lon="13.3275217"><ele>507.66666666666663</ele><time>2026-04-17T14:10:54.243Z</time></trkpt><trkpt lat="42.97736" lon="13.3276233"><ele>507.0</ele><time>2026-04-17T14:10:55.243Z</time></trkpt><trkpt lat="42.9773233" lon="13.3277133"><ele>506.33333333333337</ele><time>2026-04-17T14:10:56.243Z</time></trkpt><trkpt lat="42.9773333" lon="13.32782"><ele>505.6666666666667</ele><time>2026-04-17T14:10:57.243Z</time></trkpt><trkpt lat="42.97736" lon="13.327915"><ele>505.0</ele><time>2026-04-17T14:10:58.243Z</time></trkpt><trkpt lat="42.9774" lon="13.32799"><ele>505.83333333333337</ele><time>2026-04-17T14:10:59.243Z</time></trkpt><trkpt lat="42.9774333" lon="13.3280683"><ele>506.6666666666667</ele><time>2026-04-17T14:11:00.243Z</time></trkpt><trkpt lat="42.9774317" lon="13.3281583"><ele>507.5</ele><time>2026-04-17T14:11:01.243Z</time></trkpt><trkpt lat="42.97741" lon="13.3282533"><ele>508.33333333333337</ele><time>2026-04-17T14:11:02.243Z</time></trkpt><trkpt lat="42.97737" lon="13.3283583"><ele>509.1666666666667</ele><time>2026-04-17T14:11:03.243Z</time></trkpt><trkpt lat="42.9773133" lon="13.3284633"><ele>510.0</ele><time>2026-04-17T14:11:04.243Z</time></trkpt><trkpt lat="42.9772483" lon="13.328575"><ele>510.0</ele><time>2026-04-17T14:11:05.243Z</time></trkpt><trkpt lat="42.97719" lon="13.3287033"><ele>510.0</ele><time>2026-04-17T14:11:06.243Z</time></trkpt><trkpt lat="42.977105" lon="13.3287967"><ele>510.0</ele><time>2026-04-17T14:11:07.243Z</time></trkpt><trkpt lat="42.9770417" lon="13.3288683"><ele>510.0</ele><time>2026-04-17T14:11:08.243Z</time></trkpt><trkpt lat="42.976985" lon="13.3289283"><ele>510.0</ele><time>2026-04-17T14:11:09.243Z</time></trkpt><trkpt lat="42.9769333" lon="13.3289817"><ele>510.0</ele><time>2026-04-17T14:11:10.243Z</time></trkpt><trkpt lat="42.9768717" lon="13.3290233"><ele>510.0</ele><time>2026-04-17T14:11:12.243Z</time></trkpt><trkpt lat="42.9769417" lon="13.3290317"><ele>510.0</ele><time>2026-04-17T14:11:22.243Z</time></trkpt><trkpt lat="42.9769933" lon="13.328975"><ele>510.0</ele><time>2026-04-17T14:11:23.243Z</time></trkpt><trkpt lat="42.9770617" lon="13.32891"><ele>510.0</ele><time>2026-04-17T14:11:24.243Z</time></trkpt><trkpt lat="42.9771367" lon="13.3288583"><ele>510.0</ele><time>2026-04-17T14:11:25.243Z</time></trkpt><trkpt lat="42.9772267" lon="13.3287967"><ele>510.0</ele><time>2026-04-17T14:11:26.243Z</time></trkpt><trkpt lat="42.9773267" lon="13.3287317"><ele>510.0</ele><time>2026-04-17T14:11:27.243Z</time></trkpt><trkpt lat="42.9774317" lon="13.328645"><ele>510.0</ele><time>2026-04-17T14:11:28.243Z</time></trkpt><trkpt lat="42.977545" lon="13.32855"><ele>510.0</ele><time>2026-04-17T14:11:29.243Z</time></trkpt><trkpt lat="42.97767" lon="13.3284483"><ele>510.0</ele><time>2026-04-17T14:11:30.243Z</time></trkpt><trkpt lat="42.9777867" lon="13.32834"><ele>510.5</ele><time>2026-04-17T14:11:31.243Z</time></trkpt><trkpt lat="42.9779" lon="13.328235"><ele>511.0</ele><time>2026-04-17T14:11:32.243Z</time></trkpt><trkpt lat="42.9779983" lon="13.328125"><ele>511.5</ele><time>2026-04-17T14:11:33.243Z</time></trkpt><trkpt lat="42.9780917" lon="13.32803"><ele>512.0</ele><time>2026-04-17T14:11:34.243Z</time></trkpt><trkpt lat="42.9781817" lon="13.327945"><ele>512.0</ele><time>2026-04-17T14:11:35.243Z</time></trkpt><trkpt lat="42.9782767" lon="13.3278583"><ele>512.0</ele><time>2026-04-17T14:11:36.243Z</time></trkpt><trkpt lat="42.9783683" lon="13.3277683"><ele>512.0</ele><time>2026-04-17T14:11:37.243Z</time></trkpt><trkpt lat="42.9784467" lon="13.3276767"><ele>512.0</ele><time>2026-04-17T14:11:38.243Z</time></trkpt><trkpt lat="42.978495" lon="13.3275533"><ele>512.0</ele><time>2026-04-17T14:11:39.243Z</time></trkpt><trkpt lat="42.9785383" lon="13.3274183"><ele>513.6</ele><time>2026-04-17T14:11:40.243Z</time></trkpt><trkpt lat="42.9785833" lon="13.3273"><ele>515.2</ele><time>2026-04-17T14:11:41.243Z</time></trkpt><trkpt lat="42.9786433" lon="13.32718"><ele>516.8</ele><time>2026-04-17T14:11:42.243Z</time></trkpt><trkpt lat="42.9787183" lon="13.327075"><ele>518.4</ele><time>2026-04-17T14:11:43.243Z</time></trkpt><trkpt lat="42.9788133" lon="13.3269783"><ele>520.0</ele><time>2026-04-17T14:11:44.243Z</time></trkpt><trkpt lat="42.978925" lon="13.3268917"><ele>520.0</ele><time>2026-04-17T14:11:45.243Z</time></trkpt><trkpt lat="42.979045" lon="13.3267967"><ele>520.0</ele><time>2026-04-17T14:11:46.243Z</time></trkpt><trkpt lat="42.979165" lon="13.3266933"><ele>520.0</ele><time>2026-04-17T14:11:47.243Z</time></trkpt><trkpt lat="42.9792883" lon="13.3265917"><ele>520.0</ele><time>2026-04-17T14:11:48.243Z</time></trkpt><trkpt lat="42.9794183" lon="13.3264967"><ele>520.25</ele><time>2026-04-17T14:11:49.243Z</time></trkpt><trkpt lat="42.97953" lon="13.326385"><ele>520.5</ele><time>2026-04-17T14:11:50.243Z</time></trkpt><trkpt lat="42.9796383" lon="13.326275"><ele>520.75</ele><time>2026-04-17T14:11:51.243Z</time></trkpt><trkpt lat="42.9797367" lon="13.3261233"><ele>521.0</ele><time>2026-04-17T14:11:52.243Z</time></trkpt><trkpt lat="42.9798333" lon="13.3259983"><ele>521.0</ele><time>2026-04-17T14:11:53.243Z</time></trkpt><trkpt lat="42.9799417" lon="13.3259017"><ele>521.0</ele><time>2026-04-17T14:11:54.243Z</time></trkpt><trkpt lat="42.980055" lon="13.32582"><ele>521.0</ele><time>2026-04-17T14:11:55.243Z</time></trkpt><trkpt lat="42.9801867" lon="13.3257717"><ele>521.0</ele><time>2026-04-17T14:11:56.243Z</time></trkpt><trkpt lat="42.98032" lon="13.3257067"><ele>520.5</ele><time>2026-04-17T14:11:57.243Z</time></trkpt><trkpt lat="42.9804583" lon="13.3256417"><ele>520.0</ele><time>2026-04-17T14:11:58.243Z</time></trkpt><trkpt lat="42.980595" lon="13.3255733"><ele>519.5</ele><time>2026-04-17T14:11:59.243Z</time></trkpt><trkpt lat="42.980735" lon="13.3255067"><ele>519.0</ele><time>2026-04-17T14:12:00.243Z</time></trkpt><trkpt lat="42.980875" lon="13.325435"><ele>520.0</ele><time>2026-04-17T14:12:01.243Z</time></trkpt><trkpt lat="42.9810083" lon="13.325375"><ele>521.0</ele><time>2026-04-17T14:12:02.243Z</time></trkpt><trkpt lat="42.9811333" lon="13.32533"><ele>522.0</ele><time>2026-04-17T14:12:03.243Z</time></trkpt><trkpt lat="42.9812567" lon="13.3252933"><ele>523.0</ele><time>2026-04-17T14:12:04.243Z</time></trkpt><trkpt lat="42.98138" lon="13.32525"><ele>523.0</ele><time>2026-04-17T14:12:05.243Z</time></trkpt><trkpt lat="42.9815033" lon="13.325205"><ele>523.0</ele><time>2026-04-17T14:12:06.243Z</time></trkpt><trkpt lat="42.9816183" lon="13.3251117"><ele>523.0</ele><time>2026-04-17T14:12:07.243Z</time></trkpt><trkpt lat="42.9817267" lon="13.3250017"><ele>523.0</ele><time>2026-04-17T14:12:08.243Z</time></trkpt><trkpt lat="42.9818183" lon="13.324875"><ele>523.6</ele><time>2026-04-17T14:12:09.243Z</time></trkpt><trkpt lat="42.9818983" lon="13.3247667"><ele>524.1999999999999</ele><time>2026-04-17T14:12:10.243Z</time></trkpt><trkpt lat="42.9819733" lon="13.3246667"><ele>524.8</ele><time>2026-04-17T14:12:11.243Z</time></trkpt><trkpt lat="42.9820633" lon="13.3245867"><ele>525.4</ele><time>2026-04-17T14:12:12.242Z</time></trkpt><trkpt lat="42.9821567" lon="13.32453"><ele>526.0</ele><time>2026-04-17T14:12:13.243Z</time></trkpt><trkpt lat="42.9822633" lon="13.324515"><ele>526.0</ele><time>2026-04-17T14:12:14.243Z</time></trkpt><trkpt lat="42.9823783" lon="13.32451"><ele>526.0</ele><time>2026-04-17T14:12:15.243Z</time></trkpt><trkpt lat="42.9825067" lon="13.324525"><ele>526.0</ele><time>2026-04-17T14:12:16.243Z</time></trkpt><trkpt lat="42.9826333" lon="13.3245483"><ele>526.0</ele><time>2026-04-17T14:12:17.243Z</time></trkpt><trkpt lat="42.982755" lon="13.3245483"><ele>527.6</ele><time>2026-04-17T14:12:18.243Z</time></trkpt><trkpt lat="42.9828533" lon="13.3245133"><ele>529.2</ele><time>2026-04-17T14:12:19.243Z</time></trkpt><trkpt lat="42.9829433" lon="13.324445"><ele>530.8</ele><time>2026-04-17T14:12:20.243Z</time></trkpt><trkpt lat="42.9830183" lon="13.32435"><ele>532.4</ele><time>2026-04-17T14:12:21.243Z</time></trkpt><trkpt lat="42.98307" lon="13.324245"><ele>534.0</ele><time>2026-04-17T14:12:22.243Z</time></trkpt><trkpt lat="42.9831067" lon="13.3241417"><ele>534.0</ele><time>2026-04-17T14:12:23.243Z</time></trkpt><trkpt lat="42.9831633" lon="13.3240367"><ele>534.0</ele><time>2026-04-17T14:12:24.243Z</time></trkpt><trkpt lat="42.98324" lon="13.3239483"><ele>534.0</ele><time>2026-04-17T14:12:25.243Z</time></trkpt><trkpt lat="42.9833333" lon="13.3238967"><ele>534.0</ele><time>2026-04-17T14:12:26.243Z</time></trkpt><trkpt lat="42.9834367" lon="13.3238683"><ele>534.0</ele><time>2026-04-17T14:12:27.243Z</time></trkpt><trkpt lat="42.9835483" lon="13.3238567"><ele>534.0</ele><time>2026-04-17T14:12:28.243Z</time></trkpt><trkpt lat="42.9836633" lon="13.3238483"><ele>534.0</ele><time>2026-04-17T14:12:29.243Z</time></trkpt><trkpt lat="42.98377" lon="13.3238233"><ele>534.0</ele><time>2026-04-17T14:12:30.243Z</time></trkpt><trkpt lat="42.9838633" lon="13.3237933"><ele>534.0</ele><time>2026-04-17T14:12:31.243Z</time></trkpt><trkpt lat="42.9839417" lon="13.3237567"><ele>534.0</ele><time>2026-04-17T14:12:32.243Z</time></trkpt><trkpt lat="42.9840067" lon="13.3237183"><ele>534.0</ele><time>2026-04-17T14:12:33.243Z</time></trkpt><trkpt lat="42.9840867" lon="13.3236117"><ele>534.0</ele><time>2026-04-17T14:12:35.243Z</time></trkpt><trkpt lat="42.98411" lon="13.323505"><ele>534.0</ele><time>2026-04-17T14:12:37.243Z</time></trkpt><trkpt lat="42.9840967" lon="13.3233867"><ele>534.0</ele><time>2026-04-17T14:12:41.243Z</time></trkpt><trkpt lat="42.9840467" lon="13.3232333"><ele>534.0</ele><time>2026-04-17T14:13:04.243Z</time></trkpt><trkpt lat="42.9840283" lon="13.3231433"><ele>534.0</ele><time>2026-04-17T14:13:05.243Z</time></trkpt><trkpt lat="42.9840083" lon="13.3230283"><ele>534.0</ele><time>2026-04-17T14:13:06.243Z</time></trkpt><trkpt lat="42.9839833" lon="13.3229133"><ele>534.0</ele><time>2026-04-17T14:13:07.243Z</time></trkpt><trkpt lat="42.98396" lon="13.3228"><ele>534.0</ele><time>2026-04-17T14:13:08.243Z</time></trkpt><trkpt lat="42.98395" lon="13.3227"><ele>534.0</ele><time>2026-04-17T14:13:09.243Z</time></trkpt><trkpt lat="42.9839617" lon="13.3226067"><ele>534.0</ele><time>2026-04-17T14:13:10.243Z</time></trkpt><trkpt lat="42.9839867" lon="13.3225067"><ele>534.0</ele><time>2026-04-17T14:13:11.243Z</time></trkpt><trkpt lat="42.98403" lon="13.3224"><ele>534.0</ele><time>2026-04-17T14:13:12.243Z</time></trkpt><trkpt lat="42.9840933" lon="13.3223"><ele>534.0</ele><time>2026-04-17T14:13:13.243Z</time></trkpt><trkpt lat="42.9841717" lon="13.3221983"><ele>534.0</ele><time>2026-04-17T14:13:14.243Z</time></trkpt><trkpt lat="42.9842517" lon="13.3220917"><ele>534.0</ele><time>2026-04-17T14:13:15.243Z</time></trkpt><trkpt lat="42.9843433" lon="13.3219633"><ele>536.75</ele><time>2026-04-17T14:13:16.243Z</time></trkpt><trkpt lat="42.984435" lon="13.3218317"><ele>539.5</ele><time>2026-04-17T14:13:17.243Z</time></trkpt><trkpt lat="42.9844983" lon="13.3217033"><ele>542.25</ele><time>2026-04-17T14:13:18.243Z</time></trkpt><trkpt lat="42.984545" lon="13.32156"><ele>545.0</ele><time>2026-04-17T14:13:19.243Z</time></trkpt><trkpt lat="42.984585" lon="13.3214083"><ele>546.0</ele><time>2026-04-17T14:13:20.243Z</time></trkpt><trkpt lat="42.9846167" lon="13.321255"><ele>547.0</ele><time>2026-04-17T14:13:21.243Z</time></trkpt><trkpt lat="42.9846683" lon="13.3211117"><ele>548.0</ele><time>2026-04-17T14:13:22.243Z</time></trkpt><trkpt lat="42.9847483" lon="13.3209833"><ele>549.0</ele><time>2026-04-17T14:13:23.243Z</time></trkpt><trkpt lat="42.9848467" lon="13.320895"><ele>549.0</ele><time>2026-04-17T14:13:24.243Z</time></trkpt><trkpt lat="42.98498" lon="13.32083"><ele>549.0</ele><time>2026-04-17T14:13:25.243Z</time></trkpt><trkpt lat="42.9851083" lon="13.3207533"><ele>549.0</ele><time>2026-04-17T14:13:26.243Z</time></trkpt><trkpt lat="42.9852367" lon="13.3206767"><ele>549.0</ele><time>2026-04-17T14:13:27.243Z</time></trkpt><trkpt lat="42.9853533" lon="13.3205783"><ele>554.6666666666666</ele><time>2026-04-17T14:13:28.243Z</time></trkpt><trkpt lat="42.98548" lon="13.32046"><ele>560.3333333333333</ele><time>2026-04-17T14:13:29.243Z</time></trkpt><trkpt lat="42.985595" lon="13.3203033"><ele>566.0</ele><time>2026-04-17T14:13:30.243Z</time></trkpt><trkpt lat="42.9857183" lon="13.32011"><ele>566.0</ele><time>2026-04-17T14:13:31.243Z</time></trkpt><trkpt lat="42.9858367" lon="13.3199133"><ele>566.0</ele><time>2026-04-17T14:13:32.243Z</time></trkpt><trkpt lat="42.9859417" lon="13.3197583"><ele>566.0</ele><time>2026-04-17T14:13:33.243Z</time></trkpt><trkpt lat="42.9860317" lon="13.3196283"><ele>565.5</ele><time>2026-04-17T14:13:34.243Z</time></trkpt><trkpt lat="42.9861117" lon="13.3195083"><ele>565.0</ele><time>2026-04-17T14:13:35.243Z</time></trkpt><trkpt lat="42.986175" lon="13.319365"><ele>564.5</ele><time>2026-04-17T14:13:36.243Z</time></trkpt><trkpt lat="42.9862467" lon="13.3192283"><ele>564.0</ele><time>2026-04-17T14:13:37.243Z</time></trkpt><trkpt lat="42.98631" lon="13.319085"><ele>564.0</ele><time>2026-04-17T14:13:38.243Z</time></trkpt><trkpt lat="42.986365" lon="13.3189367"><ele>564.0</ele><time>2026-04-17T14:13:39.243Z</time></trkpt><trkpt lat="42.9864117" lon="13.3188017"><ele>564.0</ele><time>2026-04-17T14:13:40.243Z</time></trkpt><trkpt lat="42.98648" lon="13.31867"><ele>564.0</ele><time>2026-04-17T14:13:41.243Z</time></trkpt><trkpt lat="42.9865517" lon="13.3185683"><ele>566.75</ele><time>2026-04-17T14:13:42.243Z</time></trkpt><trkpt lat="42.9866567" lon="13.318495"><ele>569.5</ele><time>2026-04-17T14:13:43.243Z</time></trkpt><trkpt lat="42.986785" lon="13.3184483"><ele>572.25</ele><time>2026-04-17T14:13:44.243Z</time></trkpt><trkpt lat="42.9869033" lon="13.318395"><ele>575.0</ele><time>2026-04-17T14:13:45.243Z</time></trkpt><trkpt lat="42.9870083" lon="13.3182983"><ele>575.0</ele><time>2026-04-17T14:13:46.243Z</time></trkpt><trkpt lat="42.987105" lon="13.3181883"><ele>575.0</ele><time>2026-04-17T14:13:47.243Z</time></trkpt><trkpt lat="42.9871983" lon="13.3180483"><ele>575.0</ele><time>2026-04-17T14:13:48.243Z</time></trkpt><trkpt lat="42.987285" lon="13.31793"><ele>575.0</ele><time>2026-04-17T14:13:49.243Z</time></trkpt><trkpt lat="42.9873633" lon="13.3178333"><ele>576.1666666666666</ele><time>2026-04-17T14:13:50.243Z</time></trkpt><trkpt lat="42.987425" lon="13.3177433"><ele>577.3333333333333</ele><time>2026-04-17T14:13:51.243Z</time></trkpt><trkpt lat="42.987485" lon="13.3176433"><ele>578.5</ele><time>2026-04-17T14:13:52.243Z</time></trkpt><trkpt lat="42.9875383" lon="13.31755"><ele>579.6666666666666</ele><time>2026-04-17T14:13:53.243Z</time></trkpt><trkpt lat="42.987605" lon="13.3175017"><ele>580.8333333333334</ele><time>2026-04-17T14:13:54.243Z</time></trkpt><trkpt lat="42.98767" lon="13.3174883"><ele>582.0</ele><time>2026-04-17T14:13:55.243Z</time></trkpt><trkpt lat="42.9877333" lon="13.317505"><ele>583.8333333333334</ele><time>2026-04-17T14:13:56.243Z</time></trkpt><trkpt lat="42.9878017" lon="13.3175367"><ele>585.6666666666666</ele><time>2026-04-17T14:13:57.243Z</time></trkpt><trkpt lat="42.9878767" lon="13.3175917"><ele>587.5</ele><time>2026-04-17T14:13:58.243Z</time></trkpt><trkpt lat="42.9879433" lon="13.3176517"><ele>589.3333333333333</ele><time>2026-04-17T14:13:59.243Z</time></trkpt><trkpt lat="42.9879983" lon="13.317735"><ele>591.1666666666666</ele><time>2026-04-17T14:14:00.243Z</time></trkpt><trkpt lat="42.98805" lon="13.3178467"><ele>593.0</ele><time>2026-04-17T14:14:01.243Z</time></trkpt><trkpt lat="42.988085" lon="13.317975"><ele>592.1999999999999</ele><time>2026-04-17T14:14:02.243Z</time></trkpt><trkpt lat="42.9880983" lon="13.318115"><ele>591.4</ele><time>2026-04-17T14:14:03.243Z</time></trkpt><trkpt lat="42.9880883" lon="13.31826"><ele>590.5999999999999</ele><time>2026-04-17T14:14:04.243Z</time></trkpt><trkpt lat="42.9880817" lon="13.31838"><ele>589.8</ele><time>2026-04-17T14:14:05.243Z</time></trkpt><trkpt lat="42.9881" lon="13.3184783"><ele>589.0</ele><time>2026-04-17T14:14:06.243Z</time></trkpt><trkpt lat="42.9881383" lon="13.3185717"><ele>589.0</ele><time>2026-04-17T14:14:07.243Z</time></trkpt><trkpt lat="42.9882" lon="13.318665"><ele>589.0</ele><time>2026-04-17T14:14:08.243Z</time></trkpt><trkpt lat="42.9882667" lon="13.318745"><ele>589.0</ele><time>2026-04-17T14:14:09.243Z</time></trkpt><trkpt lat="42.9883433" lon="13.318825"><ele>589.0</ele><time>2026-04-17T14:14:10.243Z</time></trkpt><trkpt lat="42.98842" lon="13.3188967"><ele>589.0</ele><time>2026-04-17T14:14:11.243Z</time></trkpt><trkpt lat="42.988495" lon="13.31895"><ele>588.8</ele><time>2026-04-17T14:14:12.243Z</time></trkpt><trkpt lat="42.98857" lon="13.3189767"><ele>588.5999999999999</ele><time>2026-04-17T14:14:13.243Z</time></trkpt><trkpt lat="42.988645" lon="13.318985"><ele>588.4</ele><time>2026-04-17T14:14:14.243Z</time></trkpt><trkpt lat="42.988755" lon="13.3189583"><ele>588.1999999999999</ele><time>2026-04-17T14:14:15.243Z</time></trkpt><trkpt lat="42.9888767" lon="13.318915"><ele>588.0</ele><time>2026-04-17T14:14:16.243Z</time></trkpt><trkpt lat="42.989" lon="13.3188767"><ele>589.6666666666666</ele><time>2026-04-17T14:14:17.243Z</time></trkpt><trkpt lat="42.989105" lon="13.318855"><ele>591.3333333333334</ele><time>2026-04-17T14:14:18.243Z</time></trkpt><trkpt lat="42.9891983" lon="13.3188283"><ele>593.0</ele><time>2026-04-17T14:14:19.243Z</time></trkpt><trkpt lat="42.989275" lon="13.3188133"><ele>594.6666666666667</ele><time>2026-04-17T14:14:20.243Z</time></trkpt><trkpt lat="42.9893467" lon="13.31883"><ele>596.3333333333334</ele><time>2026-04-17T14:14:21.243Z</time></trkpt><trkpt lat="42.989425" lon="13.3188717"><ele>598.0</ele><time>2026-04-17T14:14:22.243Z</time></trkpt><trkpt lat="42.9894883" lon="13.3189333"><ele>598.8</ele><time>2026-04-17T14:14:23.243Z</time></trkpt><trkpt lat="42.98953" lon="13.31901"><ele>599.5999999999999</ele><time>2026-04-17T14:14:24.243Z</time></trkpt><trkpt lat="42.9895433" lon="13.3191"><ele>600.4000000000001</ele><time>2026-04-17T14:14:25.243Z</time></trkpt><trkpt lat="42.989465" lon="13.3192517"><ele>601.2</ele><time>2026-04-17T14:14:27.243Z</time></trkpt><trkpt lat="42.9893817" lon="13.3193383"><ele>602.0</ele><time>2026-04-17T14:14:28.243Z</time></trkpt><trkpt lat="42.9892833" lon="13.319435"><ele>602.0</ele><time>2026-04-17T14:14:29.243Z</time></trkpt><trkpt lat="42.9891933" lon="13.3195417"><ele>602.0</ele><time>2026-04-17T14:14:30.243Z</time></trkpt><trkpt lat="42.989105" lon="13.3196433"><ele>602.0</ele><time>2026-04-17T14:14:31.243Z</time></trkpt><trkpt lat="42.9890017" lon="13.3197467"><ele>602.0</ele><time>2026-04-17T14:14:32.243Z</time></trkpt><trkpt lat="42.9888867" lon="13.3198383"><ele>603.25</ele><time>2026-04-17T14:14:33.243Z</time></trkpt><trkpt lat="42.9887733" lon="13.31992"><ele>604.5</ele><time>2026-04-17T14:14:34.243Z</time></trkpt><trkpt lat="42.988635" lon="13.3199683"><ele>605.75</ele><time>2026-04-17T14:14:35.243Z</time></trkpt><trkpt lat="42.9885267" lon="13.3200467"><ele>607.0</ele><time>2026-04-17T14:14:36.243Z</time></trkpt><trkpt lat="42.9884033" lon="13.3200983"><ele>603.75</ele><time>2026-04-17T14:14:37.243Z</time></trkpt><trkpt lat="42.9883" lon="13.3201767"><ele>600.5</ele><time>2026-04-17T14:14:38.243Z</time></trkpt><trkpt lat="42.9881983" lon="13.3202433"><ele>597.25</ele><time>2026-04-17T14:14:39.243Z</time></trkpt><trkpt lat="42.988105" lon="13.3203167"><ele>594.0</ele><time>2026-04-17T14:14:40.243Z</time></trkpt><trkpt lat="42.988" lon="13.3204"><ele>594.0</ele><time>2026-04-17T14:14:41.243Z</time></trkpt><trkpt lat="42.987915" lon="13.320485"><ele>594.0</ele><time>2026-04-17T14:14:42.243Z</time></trkpt><trkpt lat="42.9878467" lon="13.3205933"><ele>594.0</ele><time>2026-04-17T14:14:43.242Z</time></trkpt><trkpt lat="42.9877817" lon="13.3207133"><ele>594.0</ele><time>2026-04-17T14:14:44.243Z</time></trkpt><trkpt lat="42.9877383" lon="13.32086"><ele>594.0</ele><time>2026-04-17T14:14:45.243Z</time></trkpt><trkpt lat="42.987695" lon="13.3210283"><ele>596.75</ele><time>2026-04-17T14:14:46.243Z</time></trkpt><trkpt lat="42.9876317" lon="13.3211817"><ele>599.5</ele><time>2026-04-17T14:14:47.243Z</time></trkpt><trkpt lat="42.9875683" lon="13.3213533"><ele>602.25</ele><time>2026-04-17T14:14:48.243Z</time></trkpt><trkpt lat="42.9874767" lon="13.3215017"><ele>605.0</ele><time>2026-04-17T14:14:49.243Z</time></trkpt><trkpt lat="42.9873917" lon="13.3216567"><ele>605.0</ele><time>2026-04-17T14:14:50.243Z</time></trkpt><trkpt lat="42.9873067" lon="13.3217833"><ele>605.0</ele><time>2026-04-17T14:14:51.243Z</time></trkpt><trkpt lat="42.98723" lon="13.3218933"><ele>605.0</ele><time>2026-04-17T14:14:52.243Z</time></trkpt><trkpt lat="42.987185" lon="13.3219783"><ele>605.0</ele><time>2026-04-17T14:14:53.243Z</time></trkpt><trkpt lat="42.9871733" lon="13.3221033"><ele>605.0</ele><time>2026-04-17T14:14:55.243Z</time></trkpt><trkpt lat="42.9872367" lon="13.322165"><ele>605.0</ele><time>2026-04-17T14:14:57.243Z</time></trkpt><trkpt lat="42.98735" lon="13.322095"><ele>605.0</ele><time>2026-04-17T14:14:59.243Z</time></trkpt><trkpt lat="42.9874217" lon="13.3220167"><ele>605.0</ele><time>2026-04-17T14:15:00.243Z</time></trkpt><trkpt lat="42.98752" lon="13.3219183"><ele>605.0</ele><time>2026-04-17T14:15:01.243Z</time></trkpt><trkpt lat="42.98761" lon="13.3218183"><ele>608.0</ele><time>2026-04-17T14:15:02.243Z</time></trkpt><trkpt lat="42.9877017" lon="13.3217083"><ele>611.0</ele><time>2026-04-17T14:15:03.243Z</time></trkpt><trkpt lat="42.9877867" lon="13.321595"><ele>614.0</ele><time>2026-04-17T14:15:04.243Z</time></trkpt><trkpt lat="42.9878583" lon="13.3214867"><ele>617.0</ele><time>2026-04-17T14:15:05.243Z</time></trkpt><trkpt lat="42.987925" lon="13.3213667"><ele>617.0</ele><time>2026-04-17T14:15:06.243Z</time></trkpt><trkpt lat="42.9879933" lon="13.32125"><ele>617.0</ele><time>2026-04-17T14:15:07.243Z</time></trkpt><trkpt lat="42.98807" lon="13.3211383"><ele>617.0</ele><time>2026-04-17T14:15:08.243Z</time></trkpt><trkpt lat="42.9881567" lon="13.3210267"><ele>617.0</ele><time>2026-04-17T14:15:09.243Z</time></trkpt><trkpt lat="42.9882567" lon="13.320925"><ele>620.0</ele><time>2026-04-17T14:15:10.243Z</time></trkpt><trkpt lat="42.988375" lon="13.3208333"><ele>623.0</ele><time>2026-04-17T14:15:11.243Z</time></trkpt><trkpt lat="42.9885117" lon="13.3207533"><ele>626.0</ele><time>2026-04-17T14:15:12.243Z</time></trkpt><trkpt lat="42.9886633" lon="13.3206967"><ele>629.0</ele><time>2026-04-17T14:15:13.243Z</time></trkpt><trkpt lat="42.9888067" lon="13.32067"><ele>629.0</ele><time>2026-04-17T14:15:14.243Z</time></trkpt><trkpt lat="42.988955" lon="13.3206717"><ele>629.0</ele><time>2026-04-17T14:15:15.243Z</time></trkpt><trkpt lat="42.98911" lon="13.320665"><ele>629.0</ele><time>2026-04-17T14:15:16.243Z</time></trkpt><trkpt lat="42.98927" lon="13.3206767"><ele>631.25</ele><time>2026-04-17T14:15:17.243Z</time></trkpt><trkpt lat="42.9894067" lon="13.3206833"><ele>633.5</ele><time>2026-04-17T14:15:18.243Z</time></trkpt><trkpt lat="42.9895333" lon="13.320685"><ele>635.75</ele><time>2026-04-17T14:15:19.243Z</time></trkpt><trkpt lat="42.9896533" lon="13.3206717"><ele>638.0</ele><time>2026-04-17T14:15:20.243Z</time></trkpt><trkpt lat="42.9897833" lon="13.3206483"><ele>638.0</ele><time>2026-04-17T14:15:21.243Z</time></trkpt><trkpt lat="42.9899083" lon="13.320625"><ele>638.0</ele><time>2026-04-17T14:15:22.243Z</time></trkpt><trkpt lat="42.9900283" lon="13.3206"><ele>638.0</ele><time>2026-04-17T14:15:23.243Z</time></trkpt><trkpt lat="42.9901533" lon="13.32057"><ele>638.0</ele><time>2026-04-17T14:15:24.243Z</time></trkpt><trkpt lat="42.9902867" lon="13.3205333"><ele>638.25</ele><time>2026-04-17T14:15:25.243Z</time></trkpt><trkpt lat="42.9904067" lon="13.3205017"><ele>638.5</ele><time>2026-04-17T14:15:26.243Z</time></trkpt><trkpt lat="42.99053" lon="13.3204733"><ele>638.75</ele><time>2026-04-17T14:15:27.243Z</time></trkpt><trkpt lat="42.99065" lon="13.3204283"><ele>639.0</ele><time>2026-04-17T14:15:28.243Z</time></trkpt><trkpt lat="42.9907817" lon="13.3203617"><ele>643.0</ele><time>2026-04-17T14:15:29.243Z</time></trkpt><trkpt lat="42.9909183" lon="13.3202617"><ele>647.0</ele><time>2026-04-17T14:15:30.243Z</time></trkpt><trkpt lat="42.9910517" lon="13.3201583"><ele>651.0</ele><time>2026-04-17T14:15:31.243Z</time></trkpt><trkpt lat="42.9911767" lon="13.32012"><ele>655.0</ele><time>2026-04-17T14:15:32.243Z</time></trkpt><trkpt lat="42.9913083" lon="13.3200733"><ele>655.0</ele><time>2026-04-17T14:15:33.243Z</time></trkpt><trkpt lat="42.9914233" lon="13.32003"><ele>655.0</ele><time>2026-04-17T14:15:34.243Z</time></trkpt><trkpt lat="42.991535" lon="13.3199767"><ele>655.0</ele><time>2026-04-17T14:15:35.243Z</time></trkpt><trkpt lat="42.991665" lon="13.31992"><ele>655.0</ele><time>2026-04-17T14:15:36.243Z</time></trkpt><trkpt lat="42.9917933" lon="13.3198633"><ele>656.0</ele><time>2026-04-17T14:15:37.243Z</time></trkpt><trkpt lat="42.9919217" lon="13.3198167"><ele>657.0</ele><time>2026-04-17T14:15:38.243Z</time></trkpt><trkpt lat="42.9919933" lon="13.31973"><ele>658.0</ele><time>2026-04-17T14:15:39.243Z</time></trkpt><trkpt lat="42.99205" lon="13.3196667"><ele>659.0</ele><time>2026-04-17T14:15:40.243Z</time></trkpt><trkpt lat="42.9921067" lon="13.3196233"><ele>660.0</ele><time>2026-04-17T14:15:41.243Z</time></trkpt><trkpt lat="42.9921733" lon="13.319605"><ele>661.0</ele><time>2026-04-17T14:15:42.243Z</time></trkpt><trkpt lat="42.992245" lon="13.3196183"><ele>661.0</ele><time>2026-04-17T14:15:43.243Z</time></trkpt><trkpt lat="42.9923317" lon="13.319615"><ele>661.0</ele><time>2026-04-17T14:15:44.243Z</time></trkpt><trkpt lat="42.992425" lon="13.3196083"><ele>661.0</ele><time>2026-04-17T14:15:45.243Z</time></trkpt><trkpt lat="42.99252" lon="13.3195867"><ele>661.0</ele><time>2026-04-17T14:15:46.243Z</time></trkpt><trkpt lat="42.992615" lon="13.3195517"><ele>661.0</ele><time>2026-04-17T14:15:47.243Z</time></trkpt><trkpt lat="42.992695" lon="13.3195017"><ele>665.1666666666667</ele><time>2026-04-17T14:15:48.243Z</time></trkpt><trkpt lat="42.9927417" lon="13.3194333"><ele>669.3333333333334</ele><time>2026-04-17T14:15:49.243Z</time></trkpt><trkpt lat="42.9928017" lon="13.3193183"><ele>673.5</ele><time>2026-04-17T14:15:51.243Z</time></trkpt><trkpt lat="42.9928817" lon="13.319265"><ele>677.6666666666666</ele><time>2026-04-17T14:15:53.243Z</time></trkpt><trkpt lat="42.9929633" lon="13.3193333"><ele>681.8333333333333</ele><time>2026-04-17T14:15:55.243Z</time></trkpt><trkpt lat="42.993005" lon="13.3194117"><ele>686.0</ele><time>2026-04-17T14:15:56.243Z</time></trkpt><trkpt lat="42.9930617" lon="13.3195033"><ele>686.0</ele><time>2026-04-17T14:15:57.243Z</time></trkpt><trkpt lat="42.9931283" lon="13.3196183"><ele>686.0</ele><time>2026-04-17T14:15:58.243Z</time></trkpt><trkpt lat="42.9932067" lon="13.3197317"><ele>686.0</ele><time>2026-04-17T14:15:59.243Z</time></trkpt><trkpt lat="42.9932617" lon="13.319855"><ele>686.0</ele><time>2026-04-17T14:16:00.243Z</time></trkpt><trkpt lat="42.9932783" lon="13.319975"><ele>686.0</ele><time>2026-04-17T14:16:01.243Z</time></trkpt><trkpt lat="42.993255" lon="13.3200867"><ele>686.1666666666666</ele><time>2026-04-17T14:16:02.243Z</time></trkpt><trkpt lat="42.9932133" lon="13.32018"><ele>686.3333333333333</ele><time>2026-04-17T14:16:03.243Z</time></trkpt><trkpt lat="42.993185" lon="13.320265"><ele>686.5</ele><time>2026-04-17T14:16:04.243Z</time></trkpt><trkpt lat="42.99322" lon="13.320385"><ele>686.6666666666666</ele><time>2026-04-17T14:16:06.243Z</time></trkpt><trkpt lat="42.9932867" lon="13.3204267"><ele>686.8333333333334</ele><time>2026-04-17T14:16:07.243Z</time></trkpt><trkpt lat="42.9933583" lon="13.3204567"><ele>687.0</ele><time>2026-04-17T14:16:08.243Z</time></trkpt><trkpt lat="42.99344" lon="13.3204983"><ele>686.6</ele><time>2026-04-17T14:16:09.243Z</time></trkpt><trkpt lat="42.9935233" lon="13.3205417"><ele>686.2</ele><time>2026-04-17T14:16:10.243Z</time></trkpt><trkpt lat="42.9936067" lon="13.320595"><ele>685.8</ele><time>2026-04-17T14:16:11.243Z</time></trkpt><trkpt lat="42.99369" lon="13.3206533"><ele>685.4</ele><time>2026-04-17T14:16:12.243Z</time></trkpt><trkpt lat="42.9937867" lon="13.3207183"><ele>685.0</ele><time>2026-04-17T14:16:13.243Z</time></trkpt><trkpt lat="42.9938967" lon="13.32078"><ele>685.0</ele><time>2026-04-17T14:16:14.243Z</time></trkpt><trkpt lat="42.9940217" lon="13.3208417"><ele>685.0</ele><time>2026-04-17T14:16:15.243Z</time></trkpt><trkpt lat="42.99416" lon="13.3208883"><ele>685.0</ele><time>2026-04-17T14:16:16.243Z</time></trkpt><trkpt lat="42.9942983" lon="13.32094"><ele>685.0</ele><time>2026-04-17T14:16:17.243Z</time></trkpt><trkpt lat="42.9944217" lon="13.3209717"><ele>686.6</ele><time>2026-04-17T14:16:18.243Z</time></trkpt><trkpt lat="42.9945283" lon="13.32099"><ele>688.2</ele><time>2026-04-17T14:16:19.243Z</time></trkpt><trkpt lat="42.99461" lon="13.3210233"><ele>689.8</ele><time>2026-04-17T14:16:20.243Z</time></trkpt><trkpt lat="42.994685" lon="13.32107"><ele>691.4</ele><time>2026-04-17T14:16:21.243Z</time></trkpt><trkpt lat="42.9947483" lon="13.321135"><ele>693.0</ele><time>2026-04-17T14:16:22.243Z</time></trkpt><trkpt lat="42.9948217" lon="13.3212183"><ele>693.0</ele><time>2026-04-17T14:16:23.243Z</time></trkpt><trkpt lat="42.994905" lon="13.3212867"><ele>693.0</ele><time>2026-04-17T14:16:24.243Z</time></trkpt><trkpt lat="42.995005" lon="13.3213333"><ele>693.0</ele><time>2026-04-17T14:16:25.243Z</time></trkpt><trkpt lat="42.9951267" lon="13.3213517"><ele>693.0</ele><time>2026-04-17T14:16:26.243Z</time></trkpt><trkpt lat="42.9952517" lon="13.321345"><ele>692.5</ele><time>2026-04-17T14:16:27.243Z</time></trkpt><trkpt lat="42.995385" lon="13.3213067"><ele>692.0</ele><time>2026-04-17T14:16:28.243Z</time></trkpt><trkpt lat="42.9955" lon="13.3212767"><ele>691.5</ele><time>2026-04-17T14:16:29.243Z</time></trkpt><trkpt lat="42.9956117" lon="13.3212717"><ele>691.0</ele><time>2026-04-17T14:16:30.243Z</time></trkpt><trkpt lat="42.9957067" lon="13.321285"><ele>691.0</ele><time>2026-04-17T14:16:31.243Z</time></trkpt><trkpt lat="42.9958133" lon="13.32131"><ele>691.0</ele><time>2026-04-17T14:16:33.243Z</time></trkpt><trkpt lat="42.9959833" lon="13.3212817"><ele>691.0</ele><time>2026-04-17T14:16:47.243Z</time></trkpt><trkpt lat="42.996055" lon="13.3213017"><ele>691.0</ele><time>2026-04-17T14:16:56.243Z</time></trkpt><trkpt lat="42.9961283" lon="13.3213217"><ele>691.0</ele><time>2026-04-17T14:16:58.243Z</time></trkpt><trkpt lat="42.9962083" lon="13.3213733"><ele>689.8</ele><time>2026-04-17T14:17:00.243Z</time></trkpt><trkpt lat="42.9962883" lon="13.3214583"><ele>688.5999999999999</ele><time>2026-04-17T14:17:02.243Z</time></trkpt><trkpt lat="42.996355" lon="13.3215617"><ele>687.4</ele><time>2026-04-17T14:17:04.243Z</time></trkpt><trkpt lat="42.9964317" lon="13.3216933"><ele>686.2</ele><time>2026-04-17T14:17:06.243Z</time></trkpt><trkpt lat="42.99649" lon="13.3218433"><ele>685.0</ele><time>2026-04-17T14:17:08.243Z</time></trkpt><trkpt lat="42.9965167" lon="13.321925"><ele>685.0</ele><time>2026-04-17T14:17:09.243Z</time></trkpt><trkpt lat="42.9965517" lon="13.3220783"><ele>685.0</ele><time>2026-04-17T14:17:11.243Z</time></trkpt><trkpt lat="42.996575" lon="13.3221717"><ele>685.0</ele><time>2026-04-17T14:17:12.243Z</time></trkpt><trkpt lat="42.996595" lon="13.322285"><ele>685.0</ele><time>2026-04-17T14:17:13.243Z</time></trkpt><trkpt lat="42.996615" lon="13.3224317"><ele>685.0</ele><time>2026-04-17T14:17:14.243Z</time></trkpt><trkpt lat="42.9966317" lon="13.3225683"><ele>685.3333333333334</ele><time>2026-04-17T14:17:15.243Z</time></trkpt><trkpt lat="42.9966417" lon="13.3227"><ele>685.6666666666667</ele><time>2026-04-17T14:17:16.243Z</time></trkpt><trkpt lat="42.996645" lon="13.32282"><ele>686.0</ele><time>2026-04-17T14:17:17.243Z</time></trkpt><trkpt lat="42.996645" lon="13.32292"><ele>686.3333333333334</ele><time>2026-04-17T14:17:18.243Z</time></trkpt><trkpt lat="42.9966383" lon="13.32301"><ele>686.6666666666666</ele><time>2026-04-17T14:17:19.243Z</time></trkpt><trkpt lat="42.996645" lon="13.3231367"><ele>687.0</ele><time>2026-04-17T14:17:21.243Z</time></trkpt><trkpt lat="42.9966667" lon="13.3233133"><ele>687.0</ele><time>2026-04-17T14:17:33.243Z</time></trkpt><trkpt lat="42.9966867" lon="13.3234433"><ele>687.0</ele><time>2026-04-17T14:17:36.243Z</time></trkpt><trkpt lat="42.9966817" lon="13.3235817"><ele>687.0</ele><time>2026-04-17T14:17:38.243Z</time></trkpt><trkpt lat="42.996675" lon="13.3236733"><ele>687.0</ele><time>2026-04-17T14:17:39.243Z</time></trkpt><trkpt lat="42.996645" lon="13.3238317"><ele>687.0</ele><time>2026-04-17T14:17:41.243Z</time></trkpt><trkpt lat="42.9966083" lon="13.3239633"><ele>686.0</ele><time>2026-04-17T14:17:43.243Z</time></trkpt><trkpt lat="42.99659" lon="13.324085"><ele>685.0</ele><time>2026-04-17T14:17:45.243Z</time></trkpt><trkpt lat="42.9965667" lon="13.324165"><ele>684.0</ele><time>2026-04-17T14:17:46.243Z</time></trkpt><trkpt lat="42.9965067" lon="13.3243317"><ele>683.0</ele><time>2026-04-17T14:17:48.243Z</time></trkpt><trkpt lat="42.9964617" lon="13.324435"><ele>682.0</ele><time>2026-04-17T14:17:49.243Z</time></trkpt><trkpt lat="42.996415" lon="13.3245517"><ele>682.0</ele><time>2026-04-17T14:17:50.243Z</time></trkpt><trkpt lat="42.9963783" lon="13.3246683"><ele>682.0</ele><time>2026-04-17T14:17:51.243Z</time></trkpt><trkpt lat="42.99635" lon="13.3247817"><ele>682.0</ele><time>2026-04-17T14:17:52.243Z</time></trkpt><trkpt lat="42.99632" lon="13.3248933"><ele>682.0</ele><time>2026-04-17T14:17:53.243Z</time></trkpt><trkpt lat="42.9963033" lon="13.3250017"><ele>682.0</ele><time>2026-04-17T14:17:54.243Z</time></trkpt><trkpt lat="42.996285" lon="13.325095"><ele>682.0</ele><time>2026-04-17T14:17:55.243Z</time></trkpt><trkpt lat="42.996265" lon="13.3251817"><ele>679.0</ele><time>2026-04-17T14:17:56.243Z</time></trkpt><trkpt lat="42.9962433" lon="13.325265"><ele>676.0</ele><time>2026-04-17T14:17:57.243Z</time></trkpt><trkpt lat="42.99623" lon="13.3253533"><ele>673.0</ele><time>2026-04-17T14:17:58.243Z</time></trkpt><trkpt lat="42.9962167" lon="13.3254467"><ele>670.0</ele><time>2026-04-17T14:17:59.243Z</time></trkpt><trkpt lat="42.9962067" lon="13.325535"><ele>667.0</ele><time>2026-04-17T14:18:00.243Z</time></trkpt><trkpt lat="42.99619" lon="13.3256217"><ele>664.0</ele><time>2026-04-17T14:18:01.243Z</time></trkpt><trkpt lat="42.9961717" lon="13.325785"><ele>662.2</ele><time>2026-04-17T14:18:03.243Z</time></trkpt><trkpt lat="42.99616" lon="13.3259383"><ele>660.4000000000001</ele><time>2026-04-17T14:18:05.243Z</time></trkpt><trkpt lat="42.9961583" lon="13.3260767"><ele>658.6</ele><time>2026-04-17T14:18:07.243Z</time></trkpt><trkpt lat="42.996135" lon="13.3262083"><ele>656.8</ele><time>2026-04-17T14:18:09.243Z</time></trkpt><trkpt lat="42.996085" lon="13.3263117"><ele>655.0</ele><time>2026-04-17T14:18:11.243Z</time></trkpt><trkpt lat="42.996035" lon="13.3264117"><ele>655.2857142857143</ele><time>2026-04-17T14:18:13.243Z</time></trkpt><trkpt lat="42.996005" lon="13.3264883"><ele>655.5714285714286</ele><time>2026-04-17T14:18:14.243Z</time></trkpt><trkpt lat="42.9959767" lon="13.32657"><ele>655.8571428571429</ele><time>2026-04-17T14:18:15.243Z</time></trkpt><trkpt lat="42.9959467" lon="13.32665"><ele>656.1428571428571</ele><time>2026-04-17T14:18:16.243Z</time></trkpt><trkpt lat="42.9959083" lon="13.3267317"><ele>656.4285714285714</ele><time>2026-04-17T14:18:17.243Z</time></trkpt><trkpt lat="42.9958633" lon="13.3268017"><ele>656.7142857142857</ele><time>2026-04-17T14:18:18.243Z</time></trkpt><trkpt lat="42.9958183" lon="13.32687"><ele>657.0</ele><time>2026-04-17T14:18:19.243Z</time></trkpt><trkpt lat="42.9957717" lon="13.3269367"><ele>657.0</ele><time>2026-04-17T14:18:20.243Z</time></trkpt><trkpt lat="42.9956933" lon="13.3269983"><ele>657.0</ele><time>2026-04-17T14:18:22.243Z</time></trkpt><trkpt lat="42.9956317" lon="13.3270283"><ele>657.0</ele><time>2026-04-17T14:18:25.243Z</time></trkpt><trkpt lat="42.9956567" lon="13.3272167"><ele>657.0</ele><time>2026-04-17T14:18:31.243Z</time></trkpt><trkpt lat="42.9957083" lon="13.3273667"><ele>657.0</ele><time>2026-04-17T14:18:32.243Z</time></trkpt><trkpt lat="42.9957717" lon="13.3275183"><ele>655.5</ele><time>2026-04-17T14:18:33.243Z</time></trkpt><trkpt lat="42.9958267" lon="13.3276667"><ele>654.0</ele><time>2026-04-17T14:18:34.243Z</time></trkpt><trkpt lat="42.9958717" lon="13.327815"><ele>652.5</ele><time>2026-04-17T14:18:35.243Z</time></trkpt><trkpt lat="42.9958983" lon="13.3279717"><ele>651.0</ele><time>2026-04-17T14:18:36.243Z</time></trkpt><trkpt lat="42.995895" lon="13.3281433"><ele>647.75</ele><time>2026-04-17T14:18:37.243Z</time></trkpt><trkpt lat="42.9958767" lon="13.32832"><ele>644.5</ele><time>2026-04-17T14:18:38.242Z</time></trkpt><trkpt lat="42.99585" lon="13.3285"><ele>641.25</ele><time>2026-04-17T14:18:39.243Z</time></trkpt><trkpt lat="42.9958433" lon="13.3286917"><ele>638.0</ele><time>2026-04-17T14:18:40.243Z</time></trkpt><trkpt lat="42.995855" lon="13.328895"><ele>636.3333333333333</ele><time>2026-04-17T14:18:41.243Z</time></trkpt><trkpt lat="42.99589" lon="13.3291017"><ele>634.6666666666666</ele><time>2026-04-17T14:18:42.243Z</time></trkpt><trkpt lat="42.9959283" lon="13.329305"><ele>633.0</ele><time>2026-04-17T14:18:43.243Z</time></trkpt><trkpt lat="42.995975" lon="13.3294967"><ele>633.0</ele><time>2026-04-17T14:18:44.243Z</time></trkpt><trkpt lat="42.9960117" lon="13.329685"><ele>633.0</ele><time>2026-04-17T14:18:45.243Z</time></trkpt><trkpt lat="42.9960467" lon="13.3298583"><ele>633.0</ele><time>2026-04-17T14:18:46.243Z</time></trkpt><trkpt lat="42.99608" lon="13.330035"><ele>633.0</ele><time>2026-04-17T14:18:47.243Z</time></trkpt><trkpt lat="42.9961083" lon="13.3301967"><ele>633.0</ele><time>2026-04-17T14:18:48.243Z</time></trkpt><trkpt lat="42.99611" lon="13.33035"><ele>633.0</ele><time>2026-04-17T14:18:49.243Z</time></trkpt><trkpt lat="42.99609" lon="13.33049"><ele>633.0</ele><time>2026-04-17T14:18:50.243Z</time></trkpt><trkpt lat="42.9960683" lon="13.3306167"><ele>633.0</ele><time>2026-04-17T14:18:51.243Z</time></trkpt><trkpt lat="42.9960533" lon="13.3307333"><ele>633.0</ele><time>2026-04-17T14:18:52.243Z</time></trkpt><trkpt lat="42.996045" lon="13.3308517"><ele>633.0</ele><time>2026-04-17T14:18:53.243Z</time></trkpt><trkpt lat="42.9960583" lon="13.3309783"><ele>633.0</ele><time>2026-04-17T14:18:54.243Z</time></trkpt><trkpt lat="42.9960883" lon="13.33111"><ele>633.0</ele><time>2026-04-17T14:18:55.243Z</time></trkpt><trkpt lat="42.9961317" lon="13.33125"><ele>633.0</ele><time>2026-04-17T14:18:56.243Z</time></trkpt><trkpt lat="42.9961783" lon="13.3313817"><ele>633.0</ele><time>2026-04-17T14:18:57.243Z</time></trkpt><trkpt lat="42.9962267" lon="13.331505"><ele>634.6666666666666</ele><time>2026-04-17T14:18:58.243Z</time></trkpt><trkpt lat="42.9962717" lon="13.3316167"><ele>636.3333333333334</ele><time>2026-04-17T14:18:59.243Z</time></trkpt><trkpt lat="42.9963067" lon="13.3317317"><ele>638.0</ele><time>2026-04-17T14:19:00.243Z</time></trkpt><trkpt lat="42.996315" lon="13.3318467"><ele>639.6666666666667</ele><time>2026-04-17T14:19:01.243Z</time></trkpt><trkpt lat="42.996295" lon="13.3319567"><ele>641.3333333333334</ele><time>2026-04-17T14:19:02.243Z</time></trkpt><trkpt lat="42.9962467" lon="13.332055"><ele>643.0</ele><time>2026-04-17T14:19:03.243Z</time></trkpt><trkpt lat="42.99618" lon="13.3321583"><ele>642.75</ele><time>2026-04-17T14:19:04.243Z</time></trkpt><trkpt lat="42.9960933" lon="13.33228"><ele>642.5</ele><time>2026-04-17T14:19:05.243Z</time></trkpt><trkpt lat="42.9960067" lon="13.33241"><ele>642.25</ele><time>2026-04-17T14:19:06.243Z</time></trkpt><trkpt lat="42.995925" lon="13.3325517"><ele>642.0</ele><time>2026-04-17T14:19:07.243Z</time></trkpt><trkpt lat="42.995835" lon="13.3326767"><ele>642.0</ele><time>2026-04-17T14:19:08.243Z</time></trkpt><trkpt lat="42.9957617" lon="13.3327917"><ele>642.0</ele><time>2026-04-17T14:19:09.243Z</time></trkpt><trkpt lat="42.995695" lon="13.3328983"><ele>642.0</ele><time>2026-04-17T14:19:10.243Z</time></trkpt><trkpt lat="42.99563" lon="13.3330033"><ele>642.0</ele><time>2026-04-17T14:19:11.243Z</time></trkpt><trkpt lat="42.9955567" lon="13.3331"><ele>642.0</ele><time>2026-04-17T14:19:12.243Z</time></trkpt><trkpt lat="42.9954833" lon="13.3331817"><ele>643.6666666666666</ele><time>2026-04-17T14:19:13.243Z</time></trkpt><trkpt lat="42.9954417" lon="13.3332717"><ele>645.3333333333334</ele><time>2026-04-17T14:19:14.243Z</time></trkpt><trkpt lat="42.9954117" lon="13.3333633"><ele>647.0</ele><time>2026-04-17T14:19:15.243Z</time></trkpt><trkpt lat="42.995415" lon="13.3334617"><ele>648.6666666666667</ele><time>2026-04-17T14:19:16.243Z</time></trkpt><trkpt lat="42.9954367" lon="13.3335467"><ele>650.3333333333334</ele><time>2026-04-17T14:19:17.243Z</time></trkpt><trkpt lat="42.9955167" lon="13.3336217"><ele>652.0</ele><time>2026-04-17T14:19:19.243Z</time></trkpt><trkpt lat="42.9955817" lon="13.3336167"><ele>652.0</ele><time>2026-04-17T14:19:20.243Z</time></trkpt><trkpt lat="42.9956717" lon="13.3335767"><ele>652.0</ele><time>2026-04-17T14:19:21.243Z</time></trkpt><trkpt lat="42.9957683" lon="13.3335067"><ele>652.0</ele><time>2026-04-17T14:19:22.243Z</time></trkpt><trkpt lat="42.9958783" lon="13.3334183"><ele>652.0</ele><time>2026-04-17T14:19:23.243Z</time></trkpt><trkpt lat="42.9959917" lon="13.3333433"><ele>652.5</ele><time>2026-04-17T14:19:24.243Z</time></trkpt><trkpt lat="42.9961017" lon="13.33331"><ele>653.0</ele><time>2026-04-17T14:19:25.243Z</time></trkpt><trkpt lat="42.9962183" lon="13.333295"><ele>653.5</ele><time>2026-04-17T14:19:26.243Z</time></trkpt><trkpt lat="42.996335" lon="13.333295"><ele>654.0</ele><time>2026-04-17T14:19:27.243Z</time></trkpt><trkpt lat="42.9964533" lon="13.3332817"><ele>654.0</ele><time>2026-04-17T14:19:28.243Z</time></trkpt><trkpt lat="42.9965667" lon="13.3332533"><ele>654.0</ele><time>2026-04-17T14:19:29.243Z</time></trkpt><trkpt lat="42.9966683" lon="13.3332217"><ele>654.0</ele><time>2026-04-17T14:19:30.243Z</time></trkpt><trkpt lat="42.9967583" lon="13.3331867"><ele>654.0</ele><time>2026-04-17T14:19:31.243Z</time></trkpt><trkpt lat="42.9968433" lon="13.33315"><ele>654.0</ele><time>2026-04-17T14:19:32.243Z</time></trkpt><trkpt lat="42.996935" lon="13.33312"><ele>653.6</ele><time>2026-04-17T14:19:33.243Z</time></trkpt><trkpt lat="42.9970233" lon="13.3331033"><ele>653.2</ele><time>2026-04-17T14:19:34.243Z</time></trkpt><trkpt lat="42.99711" lon="13.3331117"><ele>652.8000000000001</ele><time>2026-04-17T14:19:35.243Z</time></trkpt><trkpt lat="42.9971983" lon="13.3331617"><ele>652.4000000000001</ele><time>2026-04-17T14:19:36.242Z</time></trkpt><trkpt lat="42.99728" lon="13.3332317"><ele>652.0</ele><time>2026-04-17T14:19:37.243Z</time></trkpt><trkpt lat="42.997335" lon="13.333345"><ele>652.0</ele><time>2026-04-17T14:19:38.243Z</time></trkpt><trkpt lat="42.9973767" lon="13.3334633"><ele>652.0</ele><time>2026-04-17T14:19:39.243Z</time></trkpt><trkpt lat="42.997435" lon="13.3335633"><ele>652.0</ele><time>2026-04-17T14:19:40.243Z</time></trkpt><trkpt lat="42.9974967" lon="13.3336783"><ele>652.0</ele><time>2026-04-17T14:19:41.243Z</time></trkpt><trkpt lat="42.9975617" lon="13.333795"><ele>652.0</ele><time>2026-04-17T14:19:42.243Z</time></trkpt><trkpt lat="42.9976217" lon="13.3338983"><ele>648.4</ele><time>2026-04-17T14:19:43.243Z</time></trkpt><trkpt lat="42.99769" lon="13.3340117"><ele>644.8000000000001</ele><time>2026-04-17T14:19:44.243Z</time></trkpt><trkpt lat="42.9977633" lon="13.3341183"><ele>641.2</ele><time>2026-04-17T14:19:45.243Z</time></trkpt><trkpt lat="42.997845" lon="13.3342167"><ele>637.6</ele><time>2026-04-17T14:19:46.243Z</time></trkpt><trkpt lat="42.99792" lon="13.3343333"><ele>634.0</ele><time>2026-04-17T14:19:47.243Z</time></trkpt><trkpt lat="42.9979967" lon="13.3344533"><ele>634.0</ele><time>2026-04-17T14:19:48.243Z</time></trkpt><trkpt lat="42.9980683" lon="13.3345767"><ele>634.0</ele><time>2026-04-17T14:19:49.243Z</time></trkpt><trkpt lat="42.998145" lon="13.3347083"><ele>634.0</ele><time>2026-04-17T14:19:50.243Z</time></trkpt><trkpt lat="42.998215" lon="13.3348233"><ele>634.0</ele><time>2026-04-17T14:19:51.243Z</time></trkpt><trkpt lat="42.9983017" lon="13.3349517"><ele>632.75</ele><time>2026-04-17T14:19:52.243Z</time></trkpt><trkpt lat="42.9984017" lon="13.3350917"><ele>631.5</ele><time>2026-04-17T14:19:53.243Z</time></trkpt><trkpt lat="42.9984983" lon="13.3352267"><ele>630.25</ele><time>2026-04-17T14:19:54.243Z</time></trkpt><trkpt lat="42.9985917" lon="13.3353633"><ele>629.0</ele><time>2026-04-17T14:19:55.243Z</time></trkpt><trkpt lat="42.99869" lon="13.3354767"><ele>627.75</ele><time>2026-04-17T14:19:56.243Z</time></trkpt><trkpt lat="42.998795" lon="13.3355683"><ele>626.5</ele><time>2026-04-17T14:19:57.243Z</time></trkpt><trkpt lat="42.9989183" lon="13.3356067"><ele>625.25</ele><time>2026-04-17T14:19:58.243Z</time></trkpt><trkpt lat="42.999065" lon="13.3356133"><ele>624.0</ele><time>2026-04-17T14:19:59.243Z</time></trkpt><trkpt lat="42.9992067" lon="13.335595"><ele>624.0</ele><time>2026-04-17T14:20:00.243Z</time></trkpt><trkpt lat="42.9993367" lon="13.3355867"><ele>624.0</ele><time>2026-04-17T14:20:01.243Z</time></trkpt><trkpt lat="42.9994583" lon="13.3355817"><ele>624.0</ele><time>2026-04-17T14:20:02.243Z</time></trkpt><trkpt lat="42.9995667" lon="13.3356017"><ele>624.0</ele><time>2026-04-17T14:20:03.243Z</time></trkpt><trkpt lat="42.99966" lon="13.335655"><ele>624.0</ele><time>2026-04-17T14:20:04.243Z</time></trkpt><trkpt lat="42.9997283" lon="13.3357333"><ele>624.0</ele><time>2026-04-17T14:20:05.243Z</time></trkpt><trkpt lat="42.999775" lon="13.3358333"><ele>624.0</ele><time>2026-04-17T14:20:06.243Z</time></trkpt><trkpt lat="42.9997917" lon="13.33596"><ele>624.0</ele><time>2026-04-17T14:20:07.243Z</time></trkpt><trkpt lat="42.9997967" lon="13.3361167"><ele>624.0</ele><time>2026-04-17T14:20:08.243Z</time></trkpt><trkpt lat="42.9998017" lon="13.3362783"><ele>624.0</ele><time>2026-04-17T14:20:09.243Z</time></trkpt><trkpt lat="42.99981" lon="13.3364417"><ele>624.0</ele><time>2026-04-17T14:20:10.243Z</time></trkpt><trkpt lat="42.9998167" lon="13.3365833"><ele>624.0</ele><time>2026-04-17T14:20:11.243Z</time></trkpt><trkpt lat="42.9998333" lon="13.3367217"><ele>624.0</ele><time>2026-04-17T14:20:12.243Z</time></trkpt><trkpt lat="42.9998583" lon="13.3368517"><ele>624.0</ele><time>2026-04-17T14:20:13.243Z</time></trkpt><trkpt lat="42.9998817" lon="13.3369683"><ele>624.0</ele><time>2026-04-17T14:20:14.243Z</time></trkpt><trkpt lat="42.9999117" lon="13.3370667"><ele>624.0</ele><time>2026-04-17T14:20:15.243Z</time></trkpt><trkpt lat="42.9999367" lon="13.33717"><ele>624.0</ele><time>2026-04-17T14:20:16.243Z</time></trkpt><trkpt lat="42.9999583" lon="13.3372883"><ele>624.0</ele><time>2026-04-17T14:20:17.243Z</time></trkpt><trkpt lat="42.9999767" lon="13.337405"><ele>624.0</ele><time>2026-04-17T14:20:18.243Z</time></trkpt><trkpt lat="42.9999933" lon="13.3375067"><ele>624.0</ele><time>2026-04-17T14:20:19.243Z</time></trkpt><trkpt lat="43.000015" lon="13.3376067"><ele>624.0</ele><time>2026-04-17T14:20:20.243Z</time></trkpt><trkpt lat="43.0000367" lon="13.3377117"><ele>624.0</ele><time>2026-04-17T14:20:21.243Z</time></trkpt><trkpt lat="43.0000433" lon="13.33783"><ele>624.0</ele><time>2026-04-17T14:20:22.243Z</time></trkpt><trkpt lat="43.0000333" lon="13.33793"><ele>624.0</ele><time>2026-04-17T14:20:23.243Z</time></trkpt><trkpt lat="43.0000217" lon="13.3380267"><ele>624.0</ele><time>2026-04-17T14:20:24.243Z</time></trkpt><trkpt lat="43.0" lon="13.3381383"><ele>624.0</ele><time>2026-04-17T14:20:25.243Z</time></trkpt><trkpt lat="42.9999717" lon="13.3382533"><ele>623.2</ele><time>2026-04-17T14:20:26.243Z</time></trkpt><trkpt lat="42.999935" lon="13.3383633"><ele>622.4</ele><time>2026-04-17T14:20:27.243Z</time></trkpt><trkpt lat="42.9998733" lon="13.3384767"><ele>621.6</ele><time>2026-04-17T14:20:28.243Z</time></trkpt><trkpt lat="42.9997983" lon="13.3385817"><ele>620.8</ele><time>2026-04-17T14:20:29.243Z</time></trkpt><trkpt lat="42.9997033" lon="13.3386533"><ele>620.0</ele><time>2026-04-17T14:20:30.243Z</time></trkpt><trkpt lat="42.9995883" lon="13.33869"><ele>620.0</ele><time>2026-04-17T14:20:31.243Z</time></trkpt><trkpt lat="42.999465" lon="13.3387083"><ele>620.0</ele><time>2026-04-17T14:20:32.243Z</time></trkpt><trkpt lat="42.9993367" lon="13.338705"><ele>620.0</ele><time>2026-04-17T14:20:33.243Z</time></trkpt><trkpt lat="42.9992067" lon="13.3386867"><ele>620.0</ele><time>2026-04-17T14:20:34.243Z</time></trkpt><trkpt lat="42.9990833" lon="13.338635"><ele>622.5</ele><time>2026-04-17T14:20:35.243Z</time></trkpt><trkpt lat="42.998965" lon="13.33855"><ele>625.0</ele><time>2026-04-17T14:20:36.243Z</time></trkpt><trkpt lat="42.9988533" lon="13.33845"><ele>627.5</ele><time>2026-04-17T14:20:37.243Z</time></trkpt><trkpt lat="42.998735" lon="13.3383633"><ele>630.0</ele><time>2026-04-17T14:20:38.243Z</time></trkpt><trkpt lat="42.998595" lon="13.3383167"><ele>630.0</ele><time>2026-04-17T14:20:39.243Z</time></trkpt><trkpt lat="42.9984517" lon="13.3382867"><ele>630.0</ele><time>2026-04-17T14:20:40.243Z</time></trkpt><trkpt lat="42.998305" lon="13.3382817"><ele>630.0</ele><time>2026-04-17T14:20:41.243Z</time></trkpt><trkpt lat="42.998165" lon="13.3382833"><ele>630.0</ele><time>2026-04-17T14:20:42.243Z</time></trkpt><trkpt lat="42.9980383" lon="13.3382783"><ele>629.0</ele><time>2026-04-17T14:20:43.243Z</time></trkpt><trkpt lat="42.9979067" lon="13.3382767"><ele>628.0</ele><time>2026-04-17T14:20:44.243Z</time></trkpt><trkpt lat="42.997775" lon="13.3382917"><ele>627.0</ele><time>2026-04-17T14:20:45.243Z</time></trkpt><trkpt lat="42.997645" lon="13.3383417"><ele>626.0</ele><time>2026-04-17T14:20:46.243Z</time></trkpt><trkpt lat="42.9975217" lon="13.3384117"><ele>626.75</ele><time>2026-04-17T14:20:47.243Z</time></trkpt><trkpt lat="42.9974033" lon="13.3384783"><ele>627.5</ele><time>2026-04-17T14:20:48.243Z</time></trkpt><trkpt lat="42.9972967" lon="13.3385567"><ele>628.25</ele><time>2026-04-17T14:20:49.243Z</time></trkpt><trkpt lat="42.997205" lon="13.3386483"><ele>629.0</ele><time>2026-04-17T14:20:50.243Z</time></trkpt><trkpt lat="42.9971267" lon="13.3387633"><ele>627.0</ele><time>2026-04-17T14:20:51.243Z</time></trkpt><trkpt lat="42.9970417" lon="13.3388883"><ele>625.0</ele><time>2026-04-17T14:20:52.243Z</time></trkpt><trkpt lat="42.9969633" lon="13.339025"><ele>623.0</ele><time>2026-04-17T14:20:53.243Z</time></trkpt><trkpt lat="42.99689" lon="13.3391583"><ele>621.0</ele><time>2026-04-17T14:20:54.243Z</time></trkpt><trkpt lat="42.996815" lon="13.339275"><ele>621.0</ele><time>2026-04-17T14:20:55.243Z</time></trkpt><trkpt lat="42.9967333" lon="13.3393783"><ele>621.0</ele><time>2026-04-17T14:20:56.243Z</time></trkpt><trkpt lat="42.9966433" lon="13.3394617"><ele>621.0</ele><time>2026-04-17T14:20:57.243Z</time></trkpt><trkpt lat="42.996545" lon="13.3395383"><ele>621.0</ele><time>2026-04-17T14:20:58.243Z</time></trkpt><trkpt lat="42.996445" lon="13.33959"><ele>621.0</ele><time>2026-04-17T14:20:59.243Z</time></trkpt><trkpt lat="42.9963517" lon="13.3396267"><ele>620.8333333333334</ele><time>2026-04-17T14:21:00.243Z</time></trkpt><trkpt lat="42.9962717" lon="13.33963"><ele>620.6666666666666</ele><time>2026-04-17T14:21:01.243Z</time></trkpt><trkpt lat="42.9962017" lon="13.3396317"><ele>620.5</ele><time>2026-04-17T14:21:02.243Z</time></trkpt><trkpt lat="42.99611" lon="13.339675"><ele>620.3333333333333</ele><time>2026-04-17T14:21:04.243Z</time></trkpt><trkpt lat="42.99615" lon="13.3397917"><ele>620.1666666666666</ele><time>2026-04-17T14:21:07.243Z</time></trkpt><trkpt lat="42.9962333" lon="13.3397967"><ele>620.0</ele><time>2026-04-17T14:21:08.243Z</time></trkpt><trkpt lat="42.99633" lon="13.3398017"><ele>620.0</ele><time>2026-04-17T14:21:09.243Z</time></trkpt><trkpt lat="42.9964383" lon="13.3398017"><ele>620.0</ele><time>2026-04-17T14:21:10.243Z</time></trkpt><trkpt lat="42.996555" lon="13.3397817"><ele>620.0</ele><time>2026-04-17T14:21:11.243Z</time></trkpt><trkpt lat="42.9966783" lon="13.3397233"><ele>620.0</ele><time>2026-04-17T14:21:12.243Z</time></trkpt><trkpt lat="42.9968017" lon="13.33964"><ele>620.2</ele><time>2026-04-17T14:21:13.243Z</time></trkpt><trkpt lat="42.9969167" lon="13.3395583"><ele>620.4</ele><time>2026-04-17T14:21:14.243Z</time></trkpt><trkpt lat="42.9970167" lon="13.3394817"><ele>620.6</ele><time>2026-04-17T14:21:15.243Z</time></trkpt><trkpt lat="42.9971017" lon="13.3394167"><ele>620.8</ele><time>2026-04-17T14:21:16.243Z</time></trkpt><trkpt lat="42.9971867" lon="13.339355"><ele>621.0</ele><time>2026-04-17T14:21:17.243Z</time></trkpt><trkpt lat="42.9972683" lon="13.3393217"><ele>621.0</ele><time>2026-04-17T14:21:18.243Z</time></trkpt><trkpt lat="42.9973417" lon="13.33932"><ele>621.0</ele><time>2026-04-17T14:21:19.243Z</time></trkpt><trkpt lat="42.9974067" lon="13.3393567"><ele>621.0</ele><time>2026-04-17T14:21:20.243Z</time></trkpt><trkpt lat="42.9975067" lon="13.3394717"><ele>621.0</ele><time>2026-04-17T14:21:22.242Z</time></trkpt><trkpt lat="42.9975683" lon="13.339515"><ele>621.0</ele><time>2026-04-17T14:21:23.243Z</time></trkpt><trkpt lat="42.9976367" lon="13.3395233"><ele>621.0</ele><time>2026-04-17T14:21:24.243Z</time></trkpt><trkpt lat="42.9977083" lon="13.33948"><ele>619.3333333333334</ele><time>2026-04-17T14:21:25.243Z</time></trkpt><trkpt lat="42.9977833" lon="13.3394083"><ele>617.6666666666666</ele><time>2026-04-17T14:21:26.243Z</time></trkpt><trkpt lat="42.9978483" lon="13.339305"><ele>616.0</ele><time>2026-04-17T14:21:27.243Z</time></trkpt><trkpt lat="42.9978967" lon="13.3392067"><ele>614.3333333333333</ele><time>2026-04-17T14:21:28.243Z</time></trkpt><trkpt lat="42.9979517" lon="13.3391183"><ele>612.6666666666666</ele><time>2026-04-17T14:21:29.243Z</time></trkpt><trkpt lat="42.998025" lon="13.3390733"><ele>611.0</ele><time>2026-04-17T14:21:30.243Z</time></trkpt><trkpt lat="42.9981033" lon="13.339065"><ele>611.0</ele><time>2026-04-17T14:21:31.243Z</time></trkpt><trkpt lat="42.9981917" lon="13.3390983"><ele>611.0</ele><time>2026-04-17T14:21:32.243Z</time></trkpt><trkpt lat="42.9982917" lon="13.3391667"><ele>611.0</ele><time>2026-04-17T14:21:33.243Z</time></trkpt><trkpt lat="42.998415" lon="13.3392167"><ele>611.0</ele><time>2026-04-17T14:21:34.243Z</time></trkpt><trkpt lat="42.9985183" lon="13.3392433"><ele>611.0</ele><time>2026-04-17T14:21:35.243Z</time></trkpt><trkpt lat="42.9986167" lon="13.33928"><ele>611.2</ele><time>2026-04-17T14:21:36.243Z</time></trkpt><trkpt lat="42.998705" lon="13.33934"><ele>611.4000000000001</ele><time>2026-04-17T14:21:37.243Z</time></trkpt><trkpt lat="42.9987833" lon="13.3394317"><ele>611.6</ele><time>2026-04-17T14:21:38.243Z</time></trkpt><trkpt lat="42.9988633" lon="13.3395417"><ele>611.8000000000001</ele><time>2026-04-17T14:21:39.243Z</time></trkpt><trkpt lat="42.998945" lon="13.3396333"><ele>612.0</ele><time>2026-04-17T14:21:40.243Z</time></trkpt><trkpt lat="42.9990433" lon="13.3397167"><ele>608.75</ele><time>2026-04-17T14:21:41.243Z</time></trkpt><trkpt lat="42.999155" lon="13.33978"><ele>605.5</ele><time>2026-04-17T14:21:42.243Z</time></trkpt><trkpt lat="42.9992667" lon="13.3398317"><ele>602.25</ele><time>2026-04-17T14:21:43.243Z</time></trkpt><trkpt lat="42.999375" lon="13.33989"><ele>599.0</ele><time>2026-04-17T14:21:44.243Z</time></trkpt><trkpt lat="42.99947" lon="13.3399717"><ele>599.0</ele><time>2026-04-17T14:21:45.243Z</time></trkpt><trkpt lat="42.9995583" lon="13.34007"><ele>599.0</ele><time>2026-04-17T14:21:46.243Z</time></trkpt><trkpt lat="42.9996467" lon="13.34019"><ele>599.0</ele><time>2026-04-17T14:21:47.242Z</time></trkpt><trkpt lat="42.9997317" lon="13.3403383"><ele>599.0</ele><time>2026-04-17T14:21:48.242Z</time></trkpt><trkpt lat="42.999835" lon="13.340495"><ele>593.6666666666666</ele><time>2026-04-17T14:21:49.242Z</time></trkpt><trkpt lat="42.999945" lon="13.3406383"><ele>588.3333333333334</ele><time>2026-04-17T14:21:50.242Z</time></trkpt><trkpt lat="43.000065" lon="13.3407667"><ele>583.0</ele><time>2026-04-17T14:21:51.242Z</time></trkpt><trkpt lat="43.000185" lon="13.340895"><ele>583.0</ele><time>2026-04-17T14:21:52.242Z</time></trkpt><trkpt lat="43.0002967" lon="13.3410183"><ele>583.0</ele><time>2026-04-17T14:21:53.242Z</time></trkpt><trkpt lat="43.0003833" lon="13.34116"><ele>583.0</ele><time>2026-04-17T14:21:54.242Z</time></trkpt><trkpt lat="43.0004467" lon="13.3413233"><ele>583.0</ele><time>2026-04-17T14:21:55.242Z</time></trkpt><trkpt lat="43.0004933" lon="13.341495"><ele>580.0</ele><time>2026-04-17T14:21:56.242Z</time></trkpt><trkpt lat="43.0005233" lon="13.34168"><ele>577.0</ele><time>2026-04-17T14:21:57.242Z</time></trkpt><trkpt lat="43.0005533" lon="13.341855"><ele>574.0</ele><time>2026-04-17T14:21:58.242Z</time></trkpt><trkpt lat="43.000575" lon="13.34204"><ele>571.0</ele><time>2026-04-17T14:21:59.242Z</time></trkpt><trkpt lat="43.0005933" lon="13.3422233"><ele>571.0</ele><time>2026-04-17T14:22:00.242Z</time></trkpt><trkpt lat="43.0005967" lon="13.3424017"><ele>571.0</ele><time>2026-04-17T14:22:01.242Z</time></trkpt><trkpt lat="43.00058" lon="13.34258"><ele>571.0</ele><time>2026-04-17T14:22:02.242Z</time></trkpt><trkpt lat="43.0005483" lon="13.34276"><ele>571.0</ele><time>2026-04-17T14:22:03.242Z</time></trkpt><trkpt lat="43.000505" lon="13.342935"><ele>572.5</ele><time>2026-04-17T14:22:04.242Z</time></trkpt><trkpt lat="43.0004617" lon="13.343115"><ele>574.0</ele><time>2026-04-17T14:22:05.242Z</time></trkpt><trkpt lat="43.0004317" lon="13.3433083"><ele>575.5</ele><time>2026-04-17T14:22:06.242Z</time></trkpt><trkpt lat="43.000405" lon="13.343505"><ele>577.0</ele><time>2026-04-17T14:22:07.242Z</time></trkpt><trkpt lat="43.000405" lon="13.3437167"><ele>578.3333333333334</ele><time>2026-04-17T14:22:08.242Z</time></trkpt><trkpt lat="43.00041" lon="13.3439333"><ele>579.6666666666666</ele><time>2026-04-17T14:22:09.242Z</time></trkpt><trkpt lat="43.0004167" lon="13.3441633"><ele>581.0</ele><time>2026-04-17T14:22:10.242Z</time></trkpt><trkpt lat="43.000405" lon="13.3443933"><ele>581.0</ele><time>2026-04-17T14:22:11.242Z</time></trkpt><trkpt lat="43.00039" lon="13.344605"><ele>581.0</ele><time>2026-04-17T14:22:12.242Z</time></trkpt><trkpt lat="43.0003567" lon="13.344795"><ele>581.0</ele><time>2026-04-17T14:22:13.242Z</time></trkpt><trkpt lat="43.0002967" lon="13.344955"><ele>581.0</ele><time>2026-04-17T14:22:14.242Z</time></trkpt><trkpt lat="43.0002467" lon="13.3451033"><ele>583.5</ele><time>2026-04-17T14:22:15.242Z</time></trkpt><trkpt lat="43.0002167" lon="13.3452617"><ele>586.0</ele><time>2026-04-17T14:22:16.242Z</time></trkpt><trkpt lat="43.00022" lon="13.3454167"><ele>588.5</ele><time>2026-04-17T14:22:17.242Z</time></trkpt><trkpt lat="43.0002683" lon="13.3455717"><ele>591.0</ele><time>2026-04-17T14:22:18.242Z</time></trkpt><trkpt lat="43.0003383" lon="13.34573"><ele>591.0</ele><time>2026-04-17T14:22:19.242Z</time></trkpt><trkpt lat="43.0004067" lon="13.3458983"><ele>591.0</ele><time>2026-04-17T14:22:20.242Z</time></trkpt><trkpt lat="43.0004533" lon="13.3460883"><ele>591.0</ele><time>2026-04-17T14:22:21.241Z</time></trkpt><trkpt lat="43.00048" lon="13.3462933"><ele>591.0</ele><time>2026-04-17T14:22:22.242Z</time></trkpt><trkpt lat="43.0004883" lon="13.346495"><ele>591.0</ele><time>2026-04-17T14:22:23.242Z</time></trkpt><trkpt lat="43.0004883" lon="13.3466883"><ele>591.0</ele><time>2026-04-17T14:22:24.242Z</time></trkpt><trkpt lat="43.0005017" lon="13.3468783"><ele>591.0</ele><time>2026-04-17T14:22:25.242Z</time></trkpt><trkpt lat="43.0005267" lon="13.3470383"><ele>591.0</ele><time>2026-04-17T14:22:26.242Z</time></trkpt><trkpt lat="43.0005483" lon="13.3471817"><ele>593.6</ele><time>2026-04-17T14:22:27.242Z</time></trkpt><trkpt lat="43.00057" lon="13.3473217"><ele>596.2</ele><time>2026-04-17T14:22:28.242Z</time></trkpt><trkpt lat="43.0005667" lon="13.3474633"><ele>598.8</ele><time>2026-04-17T14:22:29.242Z</time></trkpt><trkpt lat="43.0005383" lon="13.34757"><ele>601.4</ele><time>2026-04-17T14:22:30.242Z</time></trkpt><trkpt lat="43.0004833" lon="13.3476517"><ele>604.0</ele><time>2026-04-17T14:22:31.242Z</time></trkpt><trkpt lat="43.0004" lon="13.3477"><ele>604.0</ele><time>2026-04-17T14:22:32.242Z</time></trkpt><trkpt lat="43.0002767" lon="13.347715"><ele>604.0</ele><time>2026-04-17T14:22:33.242Z</time></trkpt><trkpt lat="43.00015" lon="13.3477467"><ele>604.0</ele><time>2026-04-17T14:22:34.242Z</time></trkpt><trkpt lat="43.0000533" lon="13.34781"><ele>604.0</ele><time>2026-04-17T14:22:35.242Z</time></trkpt><trkpt lat="42.999995" lon="13.3478983"><ele>604.0</ele><time>2026-04-17T14:22:36.242Z</time></trkpt><trkpt lat="42.999965" lon="13.3479933"><ele>606.75</ele><time>2026-04-17T14:22:37.242Z</time></trkpt><trkpt lat="42.9999683" lon="13.3481283"><ele>609.5</ele><time>2026-04-17T14:22:38.242Z</time></trkpt><trkpt lat="42.999995" lon="13.34828"><ele>612.25</ele><time>2026-04-17T14:22:39.242Z</time></trkpt><trkpt lat="43.00005" lon="13.3484483"><ele>615.0</ele><time>2026-04-17T14:22:40.242Z</time></trkpt><trkpt lat="43.0001033" lon="13.3486083"><ele>615.0</ele><time>2026-04-17T14:22:41.242Z</time></trkpt><trkpt lat="43.000165" lon="13.3487383"><ele>615.0</ele><time>2026-04-17T14:22:42.242Z</time></trkpt><trkpt lat="43.0002267" lon="13.3488367"><ele>615.0</ele><time>2026-04-17T14:22:43.242Z</time></trkpt><trkpt lat="43.0002767" lon="13.3489117"><ele>615.0</ele><time>2026-04-17T14:22:44.242Z</time></trkpt><trkpt lat="43.000325" lon="13.3489733"><ele>615.0</ele><time>2026-04-17T14:22:45.242Z</time></trkpt><trkpt lat="43.0004017" lon="13.349045"><ele>615.0</ele><time>2026-04-17T14:22:47.242Z</time></trkpt><trkpt lat="43.00046" lon="13.3491067"><ele>616.8</ele><time>2026-04-17T14:22:49.242Z</time></trkpt><trkpt lat="43.0004517" lon="13.3492233"><ele>618.6</ele><time>2026-04-17T14:22:51.242Z</time></trkpt><trkpt lat="43.0003883" lon="13.34938"><ele>620.4</ele><time>2026-04-17T14:22:53.242Z</time></trkpt><trkpt lat="43.00035" lon="13.34948"><ele>622.2</ele><time>2026-04-17T14:22:54.242Z</time></trkpt><trkpt lat="43.0003117" lon="13.349605"><ele>624.0</ele><time>2026-04-17T14:22:55.242Z</time></trkpt><trkpt lat="43.0002617" lon="13.3497517"><ele>625.25</ele><time>2026-04-17T14:22:56.242Z</time></trkpt><trkpt lat="43.00022" lon="13.3499067"><ele>626.5</ele><time>2026-04-17T14:22:57.242Z</time></trkpt><trkpt lat="43.000185" lon="13.3500633"><ele>627.75</ele><time>2026-04-17T14:22:58.242Z</time></trkpt><trkpt lat="43.0001617" lon="13.3502383"><ele>629.0</ele><time>2026-04-17T14:22:59.242Z</time></trkpt><trkpt lat="43.0001517" lon="13.35042"><ele>628.25</ele><time>2026-04-17T14:23:00.242Z</time></trkpt><trkpt lat="43.000145" lon="13.3505983"><ele>627.5</ele><time>2026-04-17T14:23:01.242Z</time></trkpt><trkpt lat="43.0001317" lon="13.3507733"><ele>626.75</ele><time>2026-04-17T14:23:02.242Z</time></trkpt><trkpt lat="43.000105" lon="13.3509467"><ele>626.0</ele><time>2026-04-17T14:23:03.242Z</time></trkpt><trkpt lat="43.0000783" lon="13.3511083"><ele>626.0</ele><time>2026-04-17T14:23:04.242Z</time></trkpt><trkpt lat="43.00005" lon="13.3512617"><ele>626.0</ele><time>2026-04-17T14:23:05.242Z</time></trkpt><trkpt lat="43.0000117" lon="13.3514117"><ele>626.0</ele><time>2026-04-17T14:23:06.242Z</time></trkpt><trkpt lat="42.9999667" lon="13.3515667"><ele>626.0</ele><time>2026-04-17T14:23:07.242Z</time></trkpt><trkpt lat="42.9999" lon="13.3517033"><ele>624.6</ele><time>2026-04-17T14:23:08.242Z</time></trkpt><trkpt lat="42.9998217" lon="13.3518167"><ele>623.2</ele><time>2026-04-17T14:23:09.242Z</time></trkpt><trkpt lat="42.999745" lon="13.35191"><ele>621.8</ele><time>2026-04-17T14:23:10.242Z</time></trkpt><trkpt lat="42.9996683" lon="13.3519733"><ele>620.4</ele><time>2026-04-17T14:23:11.242Z</time></trkpt><trkpt lat="42.999595" lon="13.3520033"><ele>619.0</ele><time>2026-04-17T14:23:12.242Z</time></trkpt><trkpt lat="42.9995283" lon="13.3520083"><ele>619.0</ele><time>2026-04-17T14:23:13.242Z</time></trkpt><trkpt lat="42.99945" lon="13.3519967"><ele>619.0</ele><time>2026-04-17T14:23:14.242Z</time></trkpt><trkpt lat="42.9993633" lon="13.351955"><ele>619.0</ele><time>2026-04-17T14:23:15.242Z</time></trkpt><trkpt lat="42.9992617" lon="13.3519033"><ele>619.0</ele><time>2026-04-17T14:23:16.242Z</time></trkpt><trkpt lat="42.99916" lon="13.3518467"><ele>619.0</ele><time>2026-04-17T14:23:17.242Z</time></trkpt><trkpt lat="42.999065" lon="13.3518083"><ele>620.4</ele><time>2026-04-17T14:23:18.242Z</time></trkpt><trkpt lat="42.9989783" lon="13.35178"><ele>621.8</ele><time>2026-04-17T14:23:19.242Z</time></trkpt><trkpt lat="42.9988817" lon="13.3517767"><ele>623.2</ele><time>2026-04-17T14:23:20.242Z</time></trkpt><trkpt lat="42.9987917" lon="13.3518017"><ele>624.6</ele><time>2026-04-17T14:23:21.242Z</time></trkpt><trkpt lat="42.9987" lon="13.3518267"><ele>626.0</ele><time>2026-04-17T14:23:22.242Z</time></trkpt><trkpt lat="42.9986017" lon="13.3518317"><ele>626.0</ele><time>2026-04-17T14:23:23.242Z</time></trkpt><trkpt lat="42.9984933" lon="13.3518367"><ele>626.0</ele><time>2026-04-17T14:23:24.242Z</time></trkpt><trkpt lat="42.9983817" lon="13.3518467"><ele>626.0</ele><time>2026-04-17T14:23:25.242Z</time></trkpt><trkpt lat="42.9982617" lon="13.3518567"><ele>626.0</ele><time>2026-04-17T14:23:26.242Z</time></trkpt><trkpt lat="42.9981317" lon="13.3518717"><ele>623.6</ele><time>2026-04-17T14:23:27.242Z</time></trkpt><trkpt lat="42.9980083" lon="13.351865"><ele>621.2</ele><time>2026-04-17T14:23:28.242Z</time></trkpt><trkpt lat="42.9978933" lon="13.3518517"><ele>618.8</ele><time>2026-04-17T14:23:29.242Z</time></trkpt><trkpt lat="42.997785" lon="13.3518433"><ele>616.4</ele><time>2026-04-17T14:23:30.242Z</time></trkpt><trkpt lat="42.9976867" lon="13.3518367"><ele>614.0</ele><time>2026-04-17T14:23:31.242Z</time></trkpt><trkpt lat="42.9976033" lon="13.3518367"><ele>614.0</ele><time>2026-04-17T14:23:32.242Z</time></trkpt><trkpt lat="42.9975217" lon="13.3518383"><ele>614.0</ele><time>2026-04-17T14:23:33.242Z</time></trkpt><trkpt lat="42.9974517" lon="13.351855"><ele>614.0</ele><time>2026-04-17T14:23:34.242Z</time></trkpt><trkpt lat="42.9973517" lon="13.351965"><ele>614.0</ele><time>2026-04-17T14:23:36.242Z</time></trkpt><trkpt lat="42.997315" lon="13.352065"><ele>614.0</ele><time>2026-04-17T14:23:37.242Z</time></trkpt><trkpt lat="42.9972733" lon="13.3521933"><ele>614.25</ele><time>2026-04-17T14:23:38.242Z</time></trkpt><trkpt lat="42.9972233" lon="13.35233"><ele>614.5</ele><time>2026-04-17T14:23:39.242Z</time></trkpt><trkpt lat="42.997165" lon="13.352465"><ele>614.75</ele><time>2026-04-17T14:23:40.242Z</time></trkpt><trkpt lat="42.9971017" lon="13.352595"><ele>615.0</ele><time>2026-04-17T14:23:41.242Z</time></trkpt><trkpt lat="42.99703" lon="13.3527233"><ele>615.0</ele><time>2026-04-17T14:23:42.242Z</time></trkpt><trkpt lat="42.99696" lon="13.3528517"><ele>615.0</ele><time>2026-04-17T14:23:43.242Z</time></trkpt><trkpt lat="42.9968917" lon="13.35299"><ele>615.0</ele><time>2026-04-17T14:23:44.242Z</time></trkpt><trkpt lat="42.9968267" lon="13.3531433"><ele>615.0</ele><time>2026-04-17T14:23:45.242Z</time></trkpt><trkpt lat="42.9967617" lon="13.3533017"><ele>616.25</ele><time>2026-04-17T14:23:46.242Z</time></trkpt><trkpt lat="42.9967017" lon="13.3534533"><ele>617.5</ele><time>2026-04-17T14:23:47.242Z</time></trkpt><trkpt lat="42.996655" lon="13.3535767"><ele>618.75</ele><time>2026-04-17T14:23:48.242Z</time></trkpt><trkpt lat="42.996585" lon="13.353695"><ele>620.0</ele><time>2026-04-17T14:23:49.242Z</time></trkpt><trkpt lat="42.9965567" lon="13.353845"><ele>619.5</ele><time>2026-04-17T14:23:50.242Z</time></trkpt><trkpt lat="42.996525" lon="13.354025"><ele>619.0</ele><time>2026-04-17T14:23:51.242Z</time></trkpt><trkpt lat="42.9964933" lon="13.3541883"><ele>618.5</ele><time>2026-04-17T14:23:52.242Z</time></trkpt><trkpt lat="42.9964533" lon="13.3543517"><ele>618.0</ele><time>2026-04-17T14:23:53.242Z</time></trkpt><trkpt lat="42.9963967" lon="13.354515"><ele>618.0</ele><time>2026-04-17T14:23:54.242Z</time></trkpt><trkpt lat="42.9963183" lon="13.3546667"><ele>618.0</ele><time>2026-04-17T14:23:55.242Z</time></trkpt><trkpt lat="42.9962517" lon="13.3548183"><ele>618.0</ele><time>2026-04-17T14:23:56.242Z</time></trkpt><trkpt lat="42.9962067" lon="13.3549583"><ele>618.0</ele><time>2026-04-17T14:23:57.242Z</time></trkpt><trkpt lat="42.9961917" lon="13.3551"><ele>616.5</ele><time>2026-04-17T14:23:58.242Z</time></trkpt><trkpt lat="42.99618" lon="13.3552717"><ele>615.0</ele><time>2026-04-17T14:23:59.242Z</time></trkpt><trkpt lat="42.9961867" lon="13.35545"><ele>613.5</ele><time>2026-04-17T14:24:00.242Z</time></trkpt><trkpt lat="42.9961983" lon="13.3556417"><ele>612.0</ele><time>2026-04-17T14:24:01.242Z</time></trkpt><trkpt lat="42.9962183" lon="13.3558417"><ele>610.25</ele><time>2026-04-17T14:24:02.242Z</time></trkpt><trkpt lat="42.9962317" lon="13.35604"><ele>608.5</ele><time>2026-04-17T14:24:03.242Z</time></trkpt><trkpt lat="42.99624" lon="13.3562267"><ele>606.75</ele><time>2026-04-17T14:24:04.242Z</time></trkpt><trkpt lat="42.99625" lon="13.3564017"><ele>605.0</ele><time>2026-04-17T14:24:05.242Z</time></trkpt><trkpt lat="42.9962633" lon="13.356565"><ele>604.5</ele><time>2026-04-17T14:24:06.242Z</time></trkpt><trkpt lat="42.9962917" lon="13.3567233"><ele>604.0</ele><time>2026-04-17T14:24:07.242Z</time></trkpt><trkpt lat="42.9963333" lon="13.3568767"><ele>603.5</ele><time>2026-04-17T14:24:08.242Z</time></trkpt><trkpt lat="42.9963783" lon="13.3570317"><ele>603.0</ele><time>2026-04-17T14:24:09.242Z</time></trkpt><trkpt lat="42.996425" lon="13.3571817"><ele>603.75</ele><time>2026-04-17T14:24:10.242Z</time></trkpt><trkpt lat="42.9964733" lon="13.3573267"><ele>604.5</ele><time>2026-04-17T14:24:11.242Z</time></trkpt><trkpt lat="42.996515" lon="13.3574783"><ele>605.25</ele><time>2026-04-17T14:24:12.242Z</time></trkpt><trkpt lat="42.9965767" lon="13.357615"><ele>606.0</ele><time>2026-04-17T14:24:13.242Z</time></trkpt><trkpt lat="42.99665" lon="13.357745"><ele>603.75</ele><time>2026-04-17T14:24:14.242Z</time></trkpt><trkpt lat="42.9967267" lon="13.357875"><ele>601.5</ele><time>2026-04-17T14:24:15.242Z</time></trkpt><trkpt lat="42.9968067" lon="13.3580033"><ele>599.25</ele><time>2026-04-17T14:24:16.242Z</time></trkpt><trkpt lat="42.996885" lon="13.3581283"><ele>597.0</ele><time>2026-04-17T14:24:17.242Z</time></trkpt><trkpt lat="42.9969667" lon="13.35826"><ele>597.0</ele><time>2026-04-17T14:24:18.242Z</time></trkpt><trkpt lat="42.9970417" lon="13.358375"><ele>597.0</ele><time>2026-04-17T14:24:19.242Z</time></trkpt><trkpt lat="42.9971183" lon="13.3584983"><ele>597.0</ele><time>2026-04-17T14:24:20.242Z</time></trkpt><trkpt lat="42.9972017" lon="13.3586317"><ele>597.0</ele><time>2026-04-17T14:24:21.242Z</time></trkpt><trkpt lat="42.9972883" lon="13.3587683"><ele>596.0</ele><time>2026-04-17T14:24:22.242Z</time></trkpt><trkpt lat="42.997365" lon="13.3588917"><ele>595.0</ele><time>2026-04-17T14:24:23.242Z</time></trkpt><trkpt lat="42.9974433" lon="13.359005"><ele>594.0</ele><time>2026-04-17T14:24:24.242Z</time></trkpt><trkpt lat="42.9975167" lon="13.359145"><ele>593.0</ele><time>2026-04-17T14:24:25.242Z</time></trkpt><trkpt lat="42.997585" lon="13.3592783"><ele>591.8</ele><time>2026-04-17T14:24:26.242Z</time></trkpt><trkpt lat="42.9976467" lon="13.3594067"><ele>590.5999999999999</ele><time>2026-04-17T14:24:27.242Z</time></trkpt><trkpt lat="42.9977217" lon="13.3595317"><ele>589.4000000000001</ele><time>2026-04-17T14:24:28.24Z</time></trkpt><trkpt lat="42.9977833" lon="13.3596483"><ele>588.2</ele><time>2026-04-17T14:24:29.242Z</time></trkpt><trkpt lat="42.9978283" lon="13.3597683"><ele>587.0</ele><time>2026-04-17T14:24:30.242Z</time></trkpt><trkpt lat="42.9978617" lon="13.3598967"><ele>585.2</ele><time>2026-04-17T14:24:31.242Z</time></trkpt><trkpt lat="42.997885" lon="13.360035"><ele>583.4000000000001</ele><time>2026-04-17T14:24:32.242Z</time></trkpt><trkpt lat="42.9978967" lon="13.360145"><ele>581.5999999999999</ele><time>2026-04-17T14:24:33.242Z</time></trkpt><trkpt lat="42.9979083" lon="13.3602483"><ele>579.8</ele><time>2026-04-17T14:24:34.242Z</time></trkpt><trkpt lat="42.9979117" lon="13.3603417"><ele>578.0</ele><time>2026-04-17T14:24:35.242Z</time></trkpt><trkpt lat="42.99788" lon="13.3605017"><ele>575.1999999999999</ele><time>2026-04-17T14:24:37.242Z</time></trkpt><trkpt lat="42.9978217" lon="13.360585"><ele>572.4</ele><time>2026-04-17T14:24:38.242Z</time></trkpt><trkpt lat="42.9977517" lon="13.3606667"><ele>569.5999999999999</ele><time>2026-04-17T14:24:39.242Z</time></trkpt><trkpt lat="42.9976983" lon="13.36075"><ele>566.8</ele><time>2026-04-17T14:24:40.242Z</time></trkpt><trkpt lat="42.997665" lon="13.3608317"><ele>564.0</ele><time>2026-04-17T14:24:41.242Z</time></trkpt><trkpt lat="42.9976617" lon="13.3610033"><ele>564.0</ele><time>2026-04-17T14:24:43.242Z</time></trkpt><trkpt lat="42.99768" lon="13.3610933"><ele>564.0</ele><time>2026-04-17T14:24:44.242Z</time></trkpt><trkpt lat="42.9977033" lon="13.3611767"><ele>564.0</ele><time>2026-04-17T14:24:45.242Z</time></trkpt><trkpt lat="42.99774" lon="13.36126"><ele>564.0</ele><time>2026-04-17T14:24:46.242Z</time></trkpt><trkpt lat="42.9978" lon="13.3613167"><ele>564.0</ele><time>2026-04-17T14:24:47.242Z</time></trkpt><trkpt lat="42.99787" lon="13.3613467"><ele>564.0</ele><time>2026-04-17T14:24:48.242Z</time></trkpt><trkpt lat="42.9979533" lon="13.3613533"><ele>564.0</ele><time>2026-04-17T14:24:49.242Z</time></trkpt><trkpt lat="42.9980383" lon="13.3613533"><ele>560.2</ele><time>2026-04-17T14:24:50.242Z</time></trkpt><trkpt lat="42.998145" lon="13.3613717"><ele>556.4</ele><time>2026-04-17T14:24:51.242Z</time></trkpt><trkpt lat="42.9982467" lon="13.361385"><ele>552.6</ele><time>2026-04-17T14:24:52.242Z</time></trkpt><trkpt lat="42.9983567" lon="13.361395"><ele>548.8</ele><time>2026-04-17T14:24:53.242Z</time></trkpt><trkpt lat="42.998465" lon="13.3613867"><ele>545.0</ele><time>2026-04-17T14:24:54.242Z</time></trkpt><trkpt lat="42.9985633" lon="13.3613667"><ele>545.1666666666666</ele><time>2026-04-17T14:24:55.242Z</time></trkpt><trkpt lat="42.9986633" lon="13.3613333"><ele>545.3333333333333</ele><time>2026-04-17T14:24:56.242Z</time></trkpt><trkpt lat="42.998755" lon="13.3613033"><ele>545.5</ele><time>2026-04-17T14:24:57.242Z</time></trkpt><trkpt lat="42.9988267" lon="13.3612833"><ele>545.6666666666666</ele><time>2026-04-17T14:24:58.242Z</time></trkpt><trkpt lat="42.998925" lon="13.3612583"><ele>545.8333333333334</ele><time>2026-04-17T14:25:00.242Z</time></trkpt><trkpt lat="42.999" lon="13.361285"><ele>546.0</ele><time>2026-04-17T14:25:02.242Z</time></trkpt><trkpt lat="42.999065" lon="13.36144"><ele>545.2</ele><time>2026-04-17T14:25:04.242Z</time></trkpt><trkpt lat="42.999105" lon="13.3615783"><ele>544.4000000000001</ele><time>2026-04-17T14:25:05.242Z</time></trkpt><trkpt lat="42.9991467" lon="13.3617217"><ele>543.6</ele><time>2026-04-17T14:25:06.242Z</time></trkpt><trkpt lat="42.9991883" lon="13.361855"><ele>542.8000000000001</ele><time>2026-04-17T14:25:07.242Z</time></trkpt><trkpt lat="42.99923" lon="13.36198"><ele>542.0</ele><time>2026-04-17T14:25:08.242Z</time></trkpt><trkpt lat="42.9992617" lon="13.3620967"><ele>539.6666666666666</ele><time>2026-04-17T14:25:09.242Z</time></trkpt><trkpt lat="42.9992933" lon="13.36222"><ele>537.3333333333333</ele><time>2026-04-17T14:25:10.242Z</time></trkpt><trkpt lat="42.9993317" lon="13.362335"><ele>535.0</ele><time>2026-04-17T14:25:11.242Z</time></trkpt><trkpt lat="42.9993667" lon="13.3624333"><ele>532.6666666666666</ele><time>2026-04-17T14:25:12.242Z</time></trkpt><trkpt lat="42.9994183" lon="13.3625033"><ele>530.3333333333334</ele><time>2026-04-17T14:25:13.242Z</time></trkpt><trkpt lat="42.999485" lon="13.3625483"><ele>528.0</ele><time>2026-04-17T14:25:14.242Z</time></trkpt><trkpt lat="42.999555" lon="13.3625833"><ele>528.0</ele><time>2026-04-17T14:25:15.242Z</time></trkpt><trkpt lat="42.9996333" lon="13.3626"><ele>528.0</ele><time>2026-04-17T14:25:16.242Z</time></trkpt><trkpt lat="42.9997217" lon="13.36261"><ele>528.0</ele><time>2026-04-17T14:25:17.242Z</time></trkpt><trkpt lat="42.9998217" lon="13.36262"><ele>528.0</ele><time>2026-04-17T14:25:18.242Z</time></trkpt><trkpt lat="42.999935" lon="13.3626517"><ele>528.0</ele><time>2026-04-17T14:25:19.242Z</time></trkpt><trkpt lat="43.0000533" lon="13.3626817"><ele>528.0</ele><time>2026-04-17T14:25:20.242Z</time></trkpt><trkpt lat="43.0001717" lon="13.3627017"><ele>528.0</ele><time>2026-04-17T14:25:21.242Z</time></trkpt><trkpt lat="43.0002767" lon="13.362715"><ele>528.0</ele><time>2026-04-17T14:25:22.242Z</time></trkpt><trkpt lat="43.0003967" lon="13.3627367"><ele>528.0</ele><time>2026-04-17T14:25:23.242Z</time></trkpt><trkpt lat="43.000505" lon="13.36276"><ele>528.0</ele><time>2026-04-17T14:25:24.242Z</time></trkpt><trkpt lat="43.0006217" lon="13.3627833"><ele>528.0</ele><time>2026-04-17T14:25:25.242Z</time></trkpt><trkpt lat="43.0007217" lon="13.3628167"><ele>528.0</ele><time>2026-04-17T14:25:26.242Z</time></trkpt><trkpt lat="43.000815" lon="13.362865"><ele>528.0</ele><time>2026-04-17T14:25:27.242Z</time></trkpt><trkpt lat="43.0009017" lon="13.3629483"><ele>528.0</ele><time>2026-04-17T14:25:28.242Z</time></trkpt><trkpt lat="43.0009833" lon="13.3630617"><ele>524.25</ele><time>2026-04-17T14:25:29.242Z</time></trkpt><trkpt lat="43.0010683" lon="13.3631867"><ele>520.5</ele><time>2026-04-17T14:25:30.242Z</time></trkpt><trkpt lat="43.0011333" lon="13.3633083"><ele>516.75</ele><time>2026-04-17T14:25:31.242Z</time></trkpt><trkpt lat="43.0011883" lon="13.36343"><ele>513.0</ele><time>2026-04-17T14:25:32.242Z</time></trkpt><trkpt lat="43.0012583" lon="13.3635717"><ele>513.0</ele><time>2026-04-17T14:25:33.242Z</time></trkpt><trkpt lat="43.0013217" lon="13.3637067"><ele>513.0</ele><time>2026-04-17T14:25:34.242Z</time></trkpt><trkpt lat="43.0013667" lon="13.363855"><ele>513.0</ele><time>2026-04-17T14:25:35.242Z</time></trkpt><trkpt lat="43.0014133" lon="13.364"><ele>513.0</ele><time>2026-04-17T14:25:36.242Z</time></trkpt><trkpt lat="43.0014533" lon="13.3641267"><ele>512.1999999999999</ele><time>2026-04-17T14:25:37.242Z</time></trkpt><trkpt lat="43.0014983" lon="13.364265"><ele>511.4</ele><time>2026-04-17T14:25:38.242Z</time></trkpt><trkpt lat="43.0015267" lon="13.3643967"><ele>510.59999999999997</ele><time>2026-04-17T14:25:39.242Z</time></trkpt><trkpt lat="43.0015433" lon="13.3645217"><ele>509.79999999999995</ele><time>2026-04-17T14:25:40.242Z</time></trkpt><trkpt lat="43.0015433" lon="13.364635"><ele>509.0</ele><time>2026-04-17T14:25:41.242Z</time></trkpt><trkpt lat="43.0015417" lon="13.3647333"><ele>506.66666666666663</ele><time>2026-04-17T14:25:42.242Z</time></trkpt><trkpt lat="43.00155" lon="13.36483"><ele>504.3333333333333</ele><time>2026-04-17T14:25:43.242Z</time></trkpt><trkpt lat="43.0015683" lon="13.364915"><ele>502.0</ele><time>2026-04-17T14:25:44.242Z</time></trkpt><trkpt lat="43.0016083" lon="13.3649867"><ele>499.66666666666663</ele><time>2026-04-17T14:25:45.242Z</time></trkpt><trkpt lat="43.0016683" lon="13.365055"><ele>497.3333333333333</ele><time>2026-04-17T14:25:46.242Z</time></trkpt><trkpt lat="43.0017533" lon="13.365125"><ele>495.0</ele><time>2026-04-17T14:25:47.242Z</time></trkpt><trkpt lat="43.001835" lon="13.365185"><ele>493.6666666666667</ele><time>2026-04-17T14:25:48.242Z</time></trkpt><trkpt lat="43.00192" lon="13.3652433"><ele>492.33333333333337</ele><time>2026-04-17T14:25:49.242Z</time></trkpt><trkpt lat="43.0019933" lon="13.3653"><ele>491.0</ele><time>2026-04-17T14:25:50.242Z</time></trkpt><trkpt lat="43.002065" lon="13.3653583"><ele>489.6666666666667</ele><time>2026-04-17T14:25:51.242Z</time></trkpt><trkpt lat="43.002125" lon="13.3654133"><ele>488.33333333333337</ele><time>2026-04-17T14:25:52.242Z</time></trkpt><trkpt lat="43.0021783" lon="13.36546"><ele>487.0</ele><time>2026-04-17T14:25:53.242Z</time></trkpt><trkpt lat="43.0022683" lon="13.365535"><ele>485.1666666666667</ele><time>2026-04-17T14:25:55.242Z</time></trkpt><trkpt lat="43.002345" lon="13.3656083"><ele>483.33333333333337</ele><time>2026-04-17T14:25:57.242Z</time></trkpt><trkpt lat="43.0024" lon="13.3656683"><ele>481.5</ele><time>2026-04-17T14:25:59.242Z</time></trkpt><trkpt lat="43.0024517" lon="13.36572"><ele>479.66666666666663</ele><time>2026-04-17T14:26:01.242Z</time></trkpt><trkpt lat="43.00253" lon="13.3658067"><ele>477.8333333333333</ele><time>2026-04-17T14:26:03.242Z</time></trkpt><trkpt lat="43.0026067" lon="13.365925"><ele>476.0</ele><time>2026-04-17T14:26:05.242Z</time></trkpt><trkpt lat="43.0026383" lon="13.36601"><ele>474.8333333333333</ele><time>2026-04-17T14:26:06.242Z</time></trkpt><trkpt lat="43.0026517" lon="13.3661133"><ele>473.66666666666663</ele><time>2026-04-17T14:26:07.241Z</time></trkpt><trkpt lat="43.0026583" lon="13.3662317"><ele>472.5</ele><time>2026-04-17T14:26:08.242Z</time></trkpt><trkpt lat="43.0026667" lon="13.3663517"><ele>471.33333333333337</ele><time>2026-04-17T14:26:09.242Z</time></trkpt><trkpt lat="43.0026733" lon="13.366475"><ele>470.1666666666667</ele><time>2026-04-17T14:26:10.242Z</time></trkpt><trkpt lat="43.0026817" lon="13.36659"><ele>469.0</ele><time>2026-04-17T14:26:11.242Z</time></trkpt><trkpt lat="43.0026917" lon="13.366695"><ele>468.00000000000006</ele><time>2026-04-17T14:26:12.242Z</time></trkpt><trkpt lat="43.0026917" lon="13.366795"><ele>467.0</ele><time>2026-04-17T14:26:13.241Z</time></trkpt><trkpt lat="43.0026683" lon="13.3668917"><ele>466.0</ele><time>2026-04-17T14:26:14.242Z</time></trkpt><trkpt lat="43.002635" lon="13.3669767"><ele>465.0</ele><time>2026-04-17T14:26:15.242Z</time></trkpt><trkpt lat="43.00258" lon="13.3670283"><ele>464.00000000000006</ele><time>2026-04-17T14:26:16.242Z</time></trkpt><trkpt lat="43.0024983" lon="13.367055"><ele>463.0</ele><time>2026-04-17T14:26:17.242Z</time></trkpt><trkpt lat="43.0024033" lon="13.3670617"><ele>463.0</ele><time>2026-04-17T14:26:18.242Z</time></trkpt><trkpt lat="43.002305" lon="13.3670683"><ele>462.99999999999994</ele><time>2026-04-17T14:26:19.242Z</time></trkpt><trkpt lat="43.002205" lon="13.367075"><ele>462.99999999999994</ele><time>2026-04-17T14:26:20.242Z</time></trkpt><trkpt lat="43.0021033" lon="13.367105"><ele>463.0</ele><time>2026-04-17T14:26:21.242Z</time></trkpt><trkpt lat="43.0020133" lon="13.3671733"><ele>463.0</ele><time>2026-04-17T14:26:22.242Z</time></trkpt><trkpt lat="43.0019283" lon="13.3672533"><ele>460.25</ele><time>2026-04-17T14:26:23.242Z</time></trkpt><trkpt lat="43.0018383" lon="13.36733"><ele>457.5</ele><time>2026-04-17T14:26:24.242Z</time></trkpt><trkpt lat="43.0017383" lon="13.3673867"><ele>454.75</ele><time>2026-04-17T14:26:25.241Z</time></trkpt><trkpt lat="43.00163" lon="13.3674367"><ele>452.0</ele><time>2026-04-17T14:26:26.242Z</time></trkpt><trkpt lat="43.0015033" lon="13.367495"><ele>452.0</ele><time>2026-04-17T14:26:27.242Z</time></trkpt><trkpt lat="43.001375" lon="13.3675583"><ele>452.0</ele><time>2026-04-17T14:26:28.242Z</time></trkpt><trkpt lat="43.0012767" lon="13.3676217"><ele>452.0</ele><time>2026-04-17T14:26:29.242Z</time></trkpt><trkpt lat="43.001185" lon="13.3677017"><ele>452.0</ele><time>2026-04-17T14:26:30.242Z</time></trkpt><trkpt lat="43.0011017" lon="13.3677717"><ele>452.0</ele><time>2026-04-17T14:26:31.242Z</time></trkpt><trkpt lat="43.00103" lon="13.3678267"><ele>452.00000000000006</ele><time>2026-04-17T14:26:32.242Z</time></trkpt><trkpt lat="43.0009333" lon="13.3679167"><ele>452.00000000000006</ele><time>2026-04-17T14:26:34.242Z</time></trkpt><trkpt lat="43.00086" lon="13.368005"><ele>452.0</ele><time>2026-04-17T14:26:36.242Z</time></trkpt><trkpt lat="43.0008067" lon="13.3681167"><ele>452.0</ele><time>2026-04-17T14:26:38.241Z</time></trkpt><trkpt lat="43.0007833" lon="13.3682867"><ele>450.8</ele><time>2026-04-17T14:26:40.242Z</time></trkpt><trkpt lat="43.0007883" lon="13.3683933"><ele>449.6</ele><time>2026-04-17T14:26:41.241Z</time></trkpt><trkpt lat="43.0008267" lon="13.3685217"><ele>448.40000000000003</ele><time>2026-04-17T14:26:42.242Z</time></trkpt><trkpt lat="43.0008833" lon="13.3686483"><ele>447.20000000000005</ele><time>2026-04-17T14:26:43.242Z</time></trkpt><trkpt lat="43.0009467" lon="13.36878"><ele>446.0</ele><time>2026-04-17T14:26:44.242Z</time></trkpt><trkpt lat="43.0010117" lon="13.36893"><ele>442.5</ele><time>2026-04-17T14:26:45.242Z</time></trkpt><trkpt lat="43.0010517" lon="13.36909"><ele>439.0</ele><time>2026-04-17T14:26:46.242Z</time></trkpt><trkpt lat="43.0010717" lon="13.369255"><ele>435.5</ele><time>2026-04-17T14:26:47.242Z</time></trkpt><trkpt lat="43.0010833" lon="13.3694233"><ele>432.0</ele><time>2026-04-17T14:26:48.241Z</time></trkpt><trkpt lat="43.001085" lon="13.3695583"><ele>432.0</ele><time>2026-04-17T14:26:49.242Z</time></trkpt><trkpt lat="43.0010783" lon="13.3696633"><ele>432.0</ele><time>2026-04-17T14:26:50.242Z</time></trkpt><trkpt lat="43.0010583" lon="13.3697583"><ele>432.0</ele><time>2026-04-17T14:26:51.242Z</time></trkpt><trkpt lat="43.001025" lon="13.3698633"><ele>432.0</ele><time>2026-04-17T14:26:52.242Z</time></trkpt><trkpt lat="43.00097" lon="13.3699517"><ele>432.0</ele><time>2026-04-17T14:26:53.242Z</time></trkpt><trkpt lat="43.00089" lon="13.3700233"><ele>432.0</ele><time>2026-04-17T14:26:54.242Z</time></trkpt><trkpt lat="43.000795" lon="13.3700817"><ele>429.6</ele><time>2026-04-17T14:26:55.242Z</time></trkpt><trkpt lat="43.0007" lon="13.37014"><ele>427.20000000000005</ele><time>2026-04-17T14:26:56.242Z</time></trkpt><trkpt lat="43.0006017" lon="13.3701867"><ele>424.8</ele><time>2026-04-17T14:26:57.242Z</time></trkpt><trkpt lat="43.000515" lon="13.3702167"><ele>422.4</ele><time>2026-04-17T14:26:58.242Z</time></trkpt><trkpt lat="43.0004283" lon="13.3702517"><ele>420.0</ele><time>2026-04-17T14:26:59.242Z</time></trkpt><trkpt lat="43.0003417" lon="13.3703017"><ele>420.0</ele><time>2026-04-17T14:27:00.242Z</time></trkpt><trkpt lat="43.000275" lon="13.3703583"><ele>420.0</ele><time>2026-04-17T14:27:01.242Z</time></trkpt><trkpt lat="43.0001983" lon="13.370445"><ele>420.0</ele><time>2026-04-17T14:27:03.242Z</time></trkpt><trkpt lat="43.0001533" lon="13.3705167"><ele>420.0</ele><time>2026-04-17T14:27:05.242Z</time></trkpt><trkpt lat="43.0001467" lon="13.370605"><ele>420.0</ele><time>2026-04-17T14:27:07.242Z</time></trkpt><trkpt lat="43.0002117" lon="13.3707533"><ele>420.0</ele><time>2026-04-17T14:27:09.242Z</time></trkpt><trkpt lat="43.0002583" lon="13.3708267"><ele>417.3333333333333</ele><time>2026-04-17T14:27:10.242Z</time></trkpt><trkpt lat="43.0003067" lon="13.3709067"><ele>414.66666666666663</ele><time>2026-04-17T14:27:11.242Z</time></trkpt><trkpt lat="43.0003633" lon="13.3709983"><ele>412.0</ele><time>2026-04-17T14:27:12.242Z</time></trkpt><trkpt lat="43.0004217" lon="13.3710783"><ele>409.3333333333333</ele><time>2026-04-17T14:27:13.242Z</time></trkpt><trkpt lat="43.0004767" lon="13.3711333"><ele>406.66666666666663</ele><time>2026-04-17T14:27:14.242Z</time></trkpt><trkpt lat="43.000545" lon="13.37117"><ele>404.0</ele><time>2026-04-17T14:27:15.242Z</time></trkpt><trkpt lat="43.0006167" lon="13.3712167"><ele>403.99999999999994</ele><time>2026-04-17T14:27:16.242Z</time></trkpt><trkpt lat="43.000685" lon="13.37127"><ele>404.0</ele><time>2026-04-17T14:27:17.242Z</time></trkpt><trkpt lat="43.00075" lon="13.3713233"><ele>404.0</ele><time>2026-04-17T14:27:18.242Z</time></trkpt><trkpt lat="43.0008267" lon="13.3713867"><ele>404.0</ele><time>2026-04-17T14:27:19.242Z</time></trkpt><trkpt lat="43.0009" lon="13.37147"><ele>403.99999999999994</ele><time>2026-04-17T14:27:20.242Z</time></trkpt><trkpt lat="43.0009517" lon="13.3715733"><ele>404.0</ele><time>2026-04-17T14:27:21.242Z</time></trkpt><trkpt lat="43.000985" lon="13.3717"><ele>402.6</ele><time>2026-04-17T14:27:22.242Z</time></trkpt><trkpt lat="43.0010183" lon="13.3718317"><ele>401.2</ele><time>2026-04-17T14:27:23.242Z</time></trkpt><trkpt lat="43.0010583" lon="13.3719533"><ele>399.8</ele><time>2026-04-17T14:27:24.242Z</time></trkpt><trkpt lat="43.00112" lon="13.372055"><ele>398.40000000000003</ele><time>2026-04-17T14:27:25.242Z</time></trkpt><trkpt lat="43.0011933" lon="13.37213"><ele>397.0</ele><time>2026-04-17T14:27:26.242Z</time></trkpt><trkpt lat="43.0012733" lon="13.3721867"><ele>397.0</ele><time>2026-04-17T14:27:27.242Z</time></trkpt><trkpt lat="43.00136" lon="13.37221"><ele>397.0</ele><time>2026-04-17T14:27:28.242Z</time></trkpt><trkpt lat="43.0014467" lon="13.37221"><ele>397.0</ele><time>2026-04-17T14:27:29.242Z</time></trkpt><trkpt lat="43.001545" lon="13.37218"><ele>397.0</ele><time>2026-04-17T14:27:30.242Z</time></trkpt><trkpt lat="43.0016517" lon="13.3721417"><ele>397.0</ele><time>2026-04-17T14:27:31.242Z</time></trkpt><trkpt lat="43.001765" lon="13.3720983"><ele>398.0</ele><time>2026-04-17T14:27:32.242Z</time></trkpt><trkpt lat="43.0018567" lon="13.3720783"><ele>399.0</ele><time>2026-04-17T14:27:33.242Z</time></trkpt><trkpt lat="43.0019617" lon="13.3720383"><ele>400.0</ele><time>2026-04-17T14:27:34.242Z</time></trkpt><trkpt lat="43.00206" lon="13.372"><ele>401.0</ele><time>2026-04-17T14:27:35.242Z</time></trkpt><trkpt lat="43.0021717" lon="13.3719567"><ele>402.0</ele><time>2026-04-17T14:27:36.242Z</time></trkpt><trkpt lat="43.0023033" lon="13.3718933"><ele>402.0</ele><time>2026-04-17T14:27:37.242Z</time></trkpt><trkpt lat="43.0024367" lon="13.371845"><ele>402.0</ele><time>2026-04-17T14:27:38.242Z</time></trkpt><trkpt lat="43.0025683" lon="13.37181"><ele>402.0</ele><time>2026-04-17T14:27:39.241Z</time></trkpt><trkpt lat="43.0027133" lon="13.371775"><ele>402.0</ele><time>2026-04-17T14:27:40.241Z</time></trkpt><trkpt lat="43.00285" lon="13.3717267"><ele>401.75</ele><time>2026-04-17T14:27:41.242Z</time></trkpt><trkpt lat="43.002975" lon="13.3716867"><ele>401.5</ele><time>2026-04-17T14:27:42.242Z</time></trkpt><trkpt lat="43.003095" lon="13.37166"><ele>401.25</ele><time>2026-04-17T14:27:43.242Z</time></trkpt><trkpt lat="43.0032117" lon="13.371635"><ele>401.0</ele><time>2026-04-17T14:27:44.242Z</time></trkpt><trkpt lat="43.0033267" lon="13.371595"><ele>401.4</ele><time>2026-04-17T14:27:45.242Z</time></trkpt><trkpt lat="43.003435" lon="13.3715517"><ele>401.8</ele><time>2026-04-17T14:27:46.242Z</time></trkpt><trkpt lat="43.0035383" lon="13.3715233"><ele>402.2</ele><time>2026-04-17T14:27:47.242Z</time></trkpt><trkpt lat="43.003635" lon="13.37152"><ele>402.59999999999997</ele><time>2026-04-17T14:27:48.242Z</time></trkpt><trkpt lat="43.00373" lon="13.371535"><ele>403.0</ele><time>2026-04-17T14:27:49.242Z</time></trkpt><trkpt lat="43.003825" lon="13.3715583"><ele>403.0</ele><time>2026-04-17T14:27:50.242Z</time></trkpt><trkpt lat="43.0039217" lon="13.371555"><ele>403.0</ele><time>2026-04-17T14:27:51.242Z</time></trkpt><trkpt lat="43.0040267" lon="13.3715183"><ele>403.0</ele><time>2026-04-17T14:27:52.242Z</time></trkpt><trkpt lat="43.00413" lon="13.371465"><ele>403.0</ele><time>2026-04-17T14:27:53.242Z</time></trkpt><trkpt lat="43.004205" lon="13.3714233"><ele>403.0</ele><time>2026-04-17T14:27:54.242Z</time></trkpt><trkpt lat="43.004305" lon="13.371395"><ele>403.50000000000006</ele><time>2026-04-17T14:27:56.242Z</time></trkpt><trkpt lat="43.004395" lon="13.3713817"><ele>404.0</ele><time>2026-04-17T14:27:58.242Z</time></trkpt><trkpt lat="43.0044567" lon="13.37136"><ele>404.5</ele><time>2026-04-17T14:27:59.242Z</time></trkpt><trkpt lat="43.0045333" lon="13.3713267"><ele>405.0</ele><time>2026-04-17T14:28:00.242Z</time></trkpt><trkpt lat="43.0046217" lon="13.3712983"><ele>405.50000000000006</ele><time>2026-04-17T14:28:01.242Z</time></trkpt><trkpt lat="43.0047117" lon="13.3712967"><ele>406.0</ele><time>2026-04-17T14:28:02.242Z</time></trkpt><trkpt lat="43.004815" lon="13.3713217"><ele>406.0</ele><time>2026-04-17T14:28:03.242Z</time></trkpt><trkpt lat="43.0049167" lon="13.37135"><ele>406.0</ele><time>2026-04-17T14:28:04.242Z</time></trkpt><trkpt lat="43.0050233" lon="13.371385"><ele>406.0</ele><time>2026-04-17T14:28:05.242Z</time></trkpt><trkpt lat="43.0051333" lon="13.371415"><ele>406.0</ele><time>2026-04-17T14:28:06.242Z</time></trkpt><trkpt lat="43.005235" lon="13.3714383"><ele>406.0</ele><time>2026-04-17T14:28:07.242Z</time></trkpt><trkpt lat="43.0053383" lon="13.3714617"><ele>406.00000000000006</ele><time>2026-04-17T14:28:08.242Z</time></trkpt><trkpt lat="43.005425" lon="13.3714833"><ele>406.0</ele><time>2026-04-17T14:28:09.242Z</time></trkpt><trkpt lat="43.0055033" lon="13.3715033"><ele>406.0</ele><time>2026-04-17T14:28:10.242Z</time></trkpt><trkpt lat="43.0055633" lon="13.371545"><ele>406.0</ele><time>2026-04-17T14:28:11.242Z</time></trkpt><trkpt lat="43.0056183" lon="13.3716133"><ele>406.00000000000006</ele><time>2026-04-17T14:28:12.242Z</time></trkpt><trkpt lat="43.0056583" lon="13.3717183"><ele>406.0</ele><time>2026-04-17T14:28:13.242Z</time></trkpt><trkpt lat="43.0056883" lon="13.3718483"><ele>406.0</ele><time>2026-04-17T14:28:14.242Z</time></trkpt><trkpt lat="43.0057183" lon="13.3719967"><ele>406.0</ele><time>2026-04-17T14:28:15.242Z</time></trkpt><trkpt lat="43.005735" lon="13.3721817"><ele>406.0</ele><time>2026-04-17T14:28:16.242Z</time></trkpt><trkpt lat="43.0057583" lon="13.3723667"><ele>406.0</ele><time>2026-04-17T14:28:17.242Z</time></trkpt><trkpt lat="43.0057767" lon="13.3725517"><ele>405.0</ele><time>2026-04-17T14:28:18.242Z</time></trkpt><trkpt lat="43.0058017" lon="13.3727267"><ele>404.0</ele><time>2026-04-17T14:28:19.242Z</time></trkpt><trkpt lat="43.0058317" lon="13.3728933"><ele>403.0</ele><time>2026-04-17T14:28:20.242Z</time></trkpt><trkpt lat="43.005855" lon="13.3730517"><ele>402.0</ele><time>2026-04-17T14:28:21.242Z</time></trkpt><trkpt lat="43.0058767" lon="13.373205"><ele>400.75</ele><time>2026-04-17T14:28:22.242Z</time></trkpt><trkpt lat="43.0058933" lon="13.3733567"><ele>399.5</ele><time>2026-04-17T14:28:23.242Z</time></trkpt><trkpt lat="43.005905" lon="13.3735"><ele>398.25</ele><time>2026-04-17T14:28:24.242Z</time></trkpt><trkpt lat="43.0059083" lon="13.3736517"><ele>397.0</ele><time>2026-04-17T14:28:25.242Z</time></trkpt><trkpt lat="43.0059217" lon="13.3738183"><ele>395.5</ele><time>2026-04-17T14:28:26.242Z</time></trkpt><trkpt lat="43.0059367" lon="13.37399"><ele>394.0</ele><time>2026-04-17T14:28:27.242Z</time></trkpt><trkpt lat="43.0059583" lon="13.374165"><ele>392.5</ele><time>2026-04-17T14:28:28.242Z</time></trkpt><trkpt lat="43.00598" lon="13.374325"><ele>391.0</ele><time>2026-04-17T14:28:29.242Z</time></trkpt><trkpt lat="43.006005" lon="13.374485"><ele>391.0</ele><time>2026-04-17T14:28:30.242Z</time></trkpt><trkpt lat="43.0060433" lon="13.3746283"><ele>391.0</ele><time>2026-04-17T14:28:31.242Z</time></trkpt><trkpt lat="43.0060817" lon="13.37476"><ele>391.0</ele><time>2026-04-17T14:28:32.242Z</time></trkpt><trkpt lat="43.0061267" lon="13.3749"><ele>391.0</ele><time>2026-04-17T14:28:33.242Z</time></trkpt><trkpt lat="43.00617" lon="13.3750333"><ele>391.0</ele><time>2026-04-17T14:28:34.242Z</time></trkpt><trkpt lat="43.0062267" lon="13.3751467"><ele>390.00000000000006</ele><time>2026-04-17T14:28:35.242Z</time></trkpt><trkpt lat="43.0062933" lon="13.3752417"><ele>389.0</ele><time>2026-04-17T14:28:36.242Z</time></trkpt><trkpt lat="43.006375" lon="13.3753133"><ele>388.0</ele><time>2026-04-17T14:28:37.242Z</time></trkpt><trkpt lat="43.0064517" lon="13.37538"><ele>387.0</ele><time>2026-04-17T14:28:38.242Z</time></trkpt><trkpt lat="43.006515" lon="13.375435"><ele>386.00000000000006</ele><time>2026-04-17T14:28:39.242Z</time></trkpt><trkpt lat="43.0065633" lon="13.37551"><ele>385.0</ele><time>2026-04-17T14:28:40.242Z</time></trkpt><trkpt lat="43.0065883" lon="13.375605"><ele>383.1666666666667</ele><time>2026-04-17T14:28:41.242Z</time></trkpt><trkpt lat="43.0065983" lon="13.3757267"><ele>381.33333333333337</ele><time>2026-04-17T14:28:42.242Z</time></trkpt><trkpt lat="43.0065917" lon="13.3758433"><ele>379.5</ele><time>2026-04-17T14:28:43.242Z</time></trkpt><trkpt lat="43.006595" lon="13.3759533"><ele>377.6666666666667</ele><time>2026-04-17T14:28:44.242Z</time></trkpt><trkpt lat="43.00662" lon="13.3760617"><ele>375.83333333333337</ele><time>2026-04-17T14:28:45.242Z</time></trkpt><trkpt lat="43.0066483" lon="13.3761633"><ele>374.0</ele><time>2026-04-17T14:28:46.242Z</time></trkpt><trkpt lat="43.0066817" lon="13.3762567"><ele>372.33333333333337</ele><time>2026-04-17T14:28:47.242Z</time></trkpt><trkpt lat="43.0067233" lon="13.3763567"><ele>370.6666666666667</ele><time>2026-04-17T14:28:48.242Z</time></trkpt><trkpt lat="43.0067667" lon="13.3764567"><ele>369.0</ele><time>2026-04-17T14:28:49.242Z</time></trkpt><trkpt lat="43.0068117" lon="13.3765283"><ele>367.3333333333333</ele><time>2026-04-17T14:28:50.242Z</time></trkpt><trkpt lat="43.0068483" lon="13.3766783"><ele>365.66666666666663</ele><time>2026-04-17T14:28:52.242Z</time></trkpt><trkpt lat="43.006835" lon="13.3767683"><ele>364.0</ele><time>2026-04-17T14:28:53.242Z</time></trkpt><trkpt lat="43.0067917" lon="13.3768633"><ele>364.0</ele><time>2026-04-17T14:28:54.242Z</time></trkpt><trkpt lat="43.006735" lon="13.3769883"><ele>364.0</ele><time>2026-04-17T14:28:55.242Z</time></trkpt><trkpt lat="43.0066583" lon="13.3771233"><ele>364.0</ele><time>2026-04-17T14:28:56.242Z</time></trkpt><trkpt lat="43.00658" lon="13.3772467"><ele>364.0</ele><time>2026-04-17T14:28:57.242Z</time></trkpt><trkpt lat="43.0065217" lon="13.3773583"><ele>362.8333333333333</ele><time>2026-04-17T14:28:58.242Z</time></trkpt><trkpt lat="43.00649" lon="13.3774617"><ele>361.66666666666663</ele><time>2026-04-17T14:28:59.242Z</time></trkpt><trkpt lat="43.006475" lon="13.3775683"><ele>360.5</ele><time>2026-04-17T14:29:00.242Z</time></trkpt><trkpt lat="43.0064967" lon="13.377655"><ele>359.3333333333333</ele><time>2026-04-17T14:29:01.242Z</time></trkpt><trkpt lat="43.0065483" lon="13.37774"><ele>358.1666666666667</ele><time>2026-04-17T14:29:02.242Z</time></trkpt><trkpt lat="43.00662" lon="13.3778217"><ele>357.0</ele><time>2026-04-17T14:29:03.242Z</time></trkpt><trkpt lat="43.0067017" lon="13.3779133"><ele>356.5</ele><time>2026-04-17T14:29:04.242Z</time></trkpt><trkpt lat="43.0067867" lon="13.3780233"><ele>356.0</ele><time>2026-04-17T14:29:05.242Z</time></trkpt><trkpt lat="43.0068717" lon="13.3781417"><ele>355.5</ele><time>2026-04-17T14:29:06.242Z</time></trkpt><trkpt lat="43.006945" lon="13.3782733"><ele>355.0</ele><time>2026-04-17T14:29:07.242Z</time></trkpt><trkpt lat="43.0069983" lon="13.3783867"><ele>355.0</ele><time>2026-04-17T14:29:08.242Z</time></trkpt><trkpt lat="43.0070633" lon="13.3784833"><ele>355.0</ele><time>2026-04-17T14:29:09.242Z</time></trkpt><trkpt lat="43.0071167" lon="13.3785667"><ele>355.0</ele><time>2026-04-17T14:29:10.242Z</time></trkpt><trkpt lat="43.0071667" lon="13.3786467"><ele>355.0</ele><time>2026-04-17T14:29:11.242Z</time></trkpt><trkpt lat="43.0072067" lon="13.3787133"><ele>355.0</ele><time>2026-04-17T14:29:12.242Z</time></trkpt><trkpt lat="43.0072633" lon="13.378865"><ele>355.0</ele><time>2026-04-17T14:29:14.242Z</time></trkpt><trkpt lat="43.00729" lon="13.37896"><ele>354.8</ele><time>2026-04-17T14:29:15.242Z</time></trkpt><trkpt lat="43.007325" lon="13.379055"><ele>354.6</ele><time>2026-04-17T14:29:16.242Z</time></trkpt><trkpt lat="43.0073733" lon="13.3791667"><ele>354.4</ele><time>2026-04-17T14:29:17.242Z</time></trkpt><trkpt lat="43.0074317" lon="13.3792833"><ele>354.2</ele><time>2026-04-17T14:29:18.242Z</time></trkpt><trkpt lat="43.0075" lon="13.3794167"><ele>354.0</ele><time>2026-04-17T14:29:19.242Z</time></trkpt><trkpt lat="43.00757" lon="13.37956"><ele>354.0</ele><time>2026-04-17T14:29:20.242Z</time></trkpt><trkpt lat="43.00767" lon="13.379705"><ele>354.0</ele><time>2026-04-17T14:29:21.242Z</time></trkpt><trkpt lat="43.0077733" lon="13.379845"><ele>354.0</ele><time>2026-04-17T14:29:22.242Z</time></trkpt><trkpt lat="43.0078683" lon="13.3799867"><ele>354.0</ele><time>2026-04-17T14:29:23.242Z</time></trkpt><trkpt lat="43.007965" lon="13.3801283"><ele>354.0</ele><time>2026-04-17T14:29:24.242Z</time></trkpt><trkpt lat="43.0080617" lon="13.3802733"><ele>354.0</ele><time>2026-04-17T14:29:25.242Z</time></trkpt><trkpt lat="43.0081467" lon="13.3804133"><ele>354.0</ele><time>2026-04-17T14:29:26.242Z</time></trkpt><trkpt lat="43.0082567" lon="13.3805783"><ele>354.0</ele><time>2026-04-17T14:29:27.242Z</time></trkpt><trkpt lat="43.0083533" lon="13.3807267"><ele>353.75</ele><time>2026-04-17T14:29:28.242Z</time></trkpt><trkpt lat="43.008455" lon="13.38087"><ele>353.5</ele><time>2026-04-17T14:29:29.242Z</time></trkpt><trkpt lat="43.0085617" lon="13.3809933"><ele>353.25</ele><time>2026-04-17T14:29:30.242Z</time></trkpt><trkpt lat="43.0086517" lon="13.3810983"><ele>353.0</ele><time>2026-04-17T14:29:31.242Z</time></trkpt><trkpt lat="43.00873" lon="13.3811983"><ele>353.0</ele><time>2026-04-17T14:29:32.242Z</time></trkpt><trkpt lat="43.00881" lon="13.3813067"><ele>353.0</ele><time>2026-04-17T14:29:33.242Z</time></trkpt><trkpt lat="43.0088867" lon="13.3814"><ele>353.0</ele><time>2026-04-17T14:29:34.242Z</time></trkpt><trkpt lat="43.0089867" lon="13.3814733"><ele>353.0</ele><time>2026-04-17T14:29:35.242Z</time></trkpt><trkpt lat="43.009105" lon="13.3815217"><ele>353.0</ele><time>2026-04-17T14:29:36.242Z</time></trkpt><trkpt lat="43.00924" lon="13.381555"><ele>353.0</ele><time>2026-04-17T14:29:37.242Z</time></trkpt><trkpt lat="43.0094" lon="13.3815933"><ele>353.0</ele><time>2026-04-17T14:29:38.242Z</time></trkpt><trkpt lat="43.0095767" lon="13.3816433"><ele>353.0</ele><time>2026-04-17T14:29:39.242Z</time></trkpt><trkpt lat="43.0097483" lon="13.3817"><ele>353.0</ele><time>2026-04-17T14:29:40.242Z</time></trkpt><trkpt lat="43.0099167" lon="13.3817717"><ele>353.0</ele><time>2026-04-17T14:29:41.242Z</time></trkpt><trkpt lat="43.010065" lon="13.3818617"><ele>353.75</ele><time>2026-04-17T14:29:42.242Z</time></trkpt><trkpt lat="43.0101933" lon="13.381965"><ele>354.5</ele><time>2026-04-17T14:29:43.242Z</time></trkpt><trkpt lat="43.010315" lon="13.3820833"><ele>355.25</ele><time>2026-04-17T14:29:44.242Z</time></trkpt><trkpt lat="43.01042" lon="13.3822017"><ele>356.0</ele><time>2026-04-17T14:29:45.242Z</time></trkpt><trkpt lat="43.0105183" lon="13.3823283"><ele>356.8</ele><time>2026-04-17T14:29:46.242Z</time></trkpt><trkpt lat="43.010605" lon="13.3824433"><ele>357.6</ele><time>2026-04-17T14:29:47.242Z</time></trkpt><trkpt lat="43.01069" lon="13.382535"><ele>358.4</ele><time>2026-04-17T14:29:48.242Z</time></trkpt><trkpt lat="43.0107517" lon="13.3826317"><ele>359.2</ele><time>2026-04-17T14:29:49.242Z</time></trkpt><trkpt lat="43.0108117" lon="13.382675"><ele>360.0</ele><time>2026-04-17T14:29:50.242Z</time></trkpt><trkpt lat="43.0109217" lon="13.3826867"><ele>360.0</ele><time>2026-04-17T14:29:52.242Z</time></trkpt><trkpt lat="43.011035" lon="13.3825783"><ele>360.0</ele><time>2026-04-17T14:29:54.242Z</time></trkpt><trkpt lat="43.01111" lon="13.3824733"><ele>360.0</ele><time>2026-04-17T14:29:55.242Z</time></trkpt><trkpt lat="43.0111917" lon="13.3823683"><ele>360.0</ele><time>2026-04-17T14:29:56.242Z</time></trkpt><trkpt lat="43.01126" lon="13.38229"><ele>360.0</ele><time>2026-04-17T14:29:57.242Z</time></trkpt><trkpt lat="43.0113183" lon="13.3822333"><ele>360.0</ele><time>2026-04-17T14:29:58.242Z</time></trkpt><trkpt lat="43.0114367" lon="13.382235"><ele>360.0</ele><time>2026-04-17T14:30:00.242Z</time></trkpt><trkpt lat="43.0114883" lon="13.3823"><ele>360.0</ele><time>2026-04-17T14:30:01.242Z</time></trkpt><trkpt lat="43.011525" lon="13.3824167"><ele>360.0</ele><time>2026-04-17T14:30:02.242Z</time></trkpt><trkpt lat="43.0115633" lon="13.3825633"><ele>360.0</ele><time>2026-04-17T14:30:03.242Z</time></trkpt><trkpt lat="43.0116133" lon="13.382705"><ele>363.1666666666667</ele><time>2026-04-17T14:30:04.242Z</time></trkpt><trkpt lat="43.01166" lon="13.3828017"><ele>366.3333333333333</ele><time>2026-04-17T14:30:05.242Z</time></trkpt><trkpt lat="43.011715" lon="13.3828567"><ele>369.5</ele><time>2026-04-17T14:30:06.242Z</time></trkpt><trkpt lat="43.01178" lon="13.3828567"><ele>372.66666666666663</ele><time>2026-04-17T14:30:07.242Z</time></trkpt><trkpt lat="43.0118433" lon="13.3828"><ele>375.8333333333333</ele><time>2026-04-17T14:30:08.242Z</time></trkpt><trkpt lat="43.0119167" lon="13.3826833"><ele>379.0</ele><time>2026-04-17T14:30:09.242Z</time></trkpt><trkpt lat="43.012005" lon="13.382535"><ele>379.0</ele><time>2026-04-17T14:30:10.242Z</time></trkpt><trkpt lat="43.0120883" lon="13.3823833"><ele>379.0</ele><time>2026-04-17T14:30:11.242Z</time></trkpt><trkpt lat="43.0121617" lon="13.3822683"><ele>379.0</ele><time>2026-04-17T14:30:12.242Z</time></trkpt><trkpt lat="43.0122183" lon="13.3821717"><ele>379.0</ele><time>2026-04-17T14:30:13.242Z</time></trkpt><trkpt lat="43.0122933" lon="13.3821117"><ele>379.0</ele><time>2026-04-17T14:30:14.242Z</time></trkpt><trkpt lat="43.01239" lon="13.38207"><ele>381.0</ele><time>2026-04-17T14:30:15.242Z</time></trkpt><trkpt lat="43.0125083" lon="13.3820233"><ele>383.0</ele><time>2026-04-17T14:30:16.242Z</time></trkpt><trkpt lat="43.012635" lon="13.38197"><ele>385.0</ele><time>2026-04-17T14:30:17.242Z</time></trkpt><trkpt lat="43.012755" lon="13.3818783"><ele>387.0</ele><time>2026-04-17T14:30:18.242Z</time></trkpt><trkpt lat="43.0128517" lon="13.381745"><ele>387.0</ele><time>2026-04-17T14:30:19.242Z</time></trkpt><trkpt lat="43.0129483" lon="13.3816083"><ele>387.0</ele><time>2026-04-17T14:30:20.242Z</time></trkpt><trkpt lat="43.0130533" lon="13.3815067"><ele>387.0</ele><time>2026-04-17T14:30:21.242Z</time></trkpt><trkpt lat="43.0131783" lon="13.3814167"><ele>387.0</ele><time>2026-04-17T14:30:22.242Z</time></trkpt><trkpt lat="43.013305" lon="13.3813467"><ele>389.20000000000005</ele><time>2026-04-17T14:30:23.242Z</time></trkpt><trkpt lat="43.0134233" lon="13.381295"><ele>391.4</ele><time>2026-04-17T14:30:24.242Z</time></trkpt><trkpt lat="43.01353" lon="13.381255"><ele>393.6</ele><time>2026-04-17T14:30:25.242Z</time></trkpt><trkpt lat="43.0136183" lon="13.38123"><ele>395.79999999999995</ele><time>2026-04-17T14:30:26.242Z</time></trkpt><trkpt lat="43.0137133" lon="13.3812183"><ele>398.0</ele><time>2026-04-17T14:30:27.242Z</time></trkpt><trkpt lat="43.013815" lon="13.381215"><ele>398.0</ele><time>2026-04-17T14:30:28.242Z</time></trkpt><trkpt lat="43.013925" lon="13.38123"><ele>398.0</ele><time>2026-04-17T14:30:29.242Z</time></trkpt><trkpt lat="43.0140267" lon="13.381245"><ele>398.0</ele><time>2026-04-17T14:30:30.242Z</time></trkpt><trkpt lat="43.014125" lon="13.38126"><ele>398.0</ele><time>2026-04-17T14:30:31.242Z</time></trkpt><trkpt lat="43.0142117" lon="13.3812733"><ele>398.0</ele><time>2026-04-17T14:30:32.242Z</time></trkpt><trkpt lat="43.0143033" lon="13.3812633"><ele>403.0</ele><time>2026-04-17T14:30:33.242Z</time></trkpt><trkpt lat="43.0144083" lon="13.381225"><ele>408.0</ele><time>2026-04-17T14:30:34.242Z</time></trkpt><trkpt lat="43.0145217" lon="13.38116"><ele>413.0</ele><time>2026-04-17T14:30:35.241Z</time></trkpt><trkpt lat="43.014645" lon="13.381105"><ele>418.0</ele><time>2026-04-17T14:30:36.242Z</time></trkpt><trkpt lat="43.0147517" lon="13.381055"><ele>418.0</ele><time>2026-04-17T14:30:37.242Z</time></trkpt><trkpt lat="43.014865" lon="13.381015"><ele>418.0</ele><time>2026-04-17T14:30:38.242Z</time></trkpt><trkpt lat="43.0149733" lon="13.3809783"><ele>418.0</ele><time>2026-04-17T14:30:39.242Z</time></trkpt><trkpt lat="43.0150917" lon="13.3809367"><ele>418.0</ele><time>2026-04-17T14:30:40.242Z</time></trkpt><trkpt lat="43.0152033" lon="13.38091"><ele>422.25</ele><time>2026-04-17T14:30:41.242Z</time></trkpt><trkpt lat="43.015315" lon="13.380875"><ele>426.5</ele><time>2026-04-17T14:30:42.242Z</time></trkpt><trkpt lat="43.0154333" lon="13.3808517"><ele>430.75</ele><time>2026-04-17T14:30:43.242Z</time></trkpt><trkpt lat="43.0155483" lon="13.3808433"><ele>435.0</ele><time>2026-04-17T14:30:44.242Z</time></trkpt><trkpt lat="43.0156667" lon="13.380825"><ele>435.0</ele><time>2026-04-17T14:30:45.242Z</time></trkpt><trkpt lat="43.015795" lon="13.3808133"><ele>435.0</ele><time>2026-04-17T14:30:46.242Z</time></trkpt><trkpt lat="43.0159133" lon="13.3808"><ele>435.0</ele><time>2026-04-17T14:30:47.242Z</time></trkpt><trkpt lat="43.016015" lon="13.3808"><ele>435.0</ele><time>2026-04-17T14:30:48.242Z</time></trkpt><trkpt lat="43.0160817" lon="13.3808"><ele>435.0</ele><time>2026-04-17T14:30:49.242Z</time></trkpt><trkpt lat="43.0161467" lon="13.380855"><ele>437.4</ele><time>2026-04-17T14:30:51.242Z</time></trkpt><trkpt lat="43.0161333" lon="13.381005"><ele>439.8</ele><time>2026-04-17T14:30:53.242Z</time></trkpt><trkpt lat="43.016105" lon="13.3811217"><ele>442.20000000000005</ele><time>2026-04-17T14:30:54.242Z</time></trkpt><trkpt lat="43.0160917" lon="13.381235"><ele>444.6</ele><time>2026-04-17T14:30:55.242Z</time></trkpt><trkpt lat="43.0161217" lon="13.3813633"><ele>447.0</ele><time>2026-04-17T14:30:56.242Z</time></trkpt><trkpt lat="43.0161783" lon="13.3814817"><ele>447.0</ele><time>2026-04-17T14:30:57.242Z</time></trkpt><trkpt lat="43.0162233" lon="13.3816"><ele>447.00000000000006</ele><time>2026-04-17T14:30:58.242Z</time></trkpt><trkpt lat="43.0162533" lon="13.38172"><ele>447.00000000000006</ele><time>2026-04-17T14:30:59.242Z</time></trkpt><trkpt lat="43.016255" lon="13.3818417"><ele>447.0</ele><time>2026-04-17T14:31:00.242Z</time></trkpt><trkpt lat="43.016225" lon="13.3819667"><ele>447.0</ele><time>2026-04-17T14:31:01.242Z</time></trkpt><trkpt lat="43.016165" lon="13.3821"><ele>445.75</ele><time>2026-04-17T14:31:02.242Z</time></trkpt><trkpt lat="43.01608" lon="13.3822267"><ele>444.5</ele><time>2026-04-17T14:31:03.242Z</time></trkpt><trkpt lat="43.015985" lon="13.38234"><ele>443.25</ele><time>2026-04-17T14:31:04.242Z</time></trkpt><trkpt lat="43.0159083" lon="13.3824567"><ele>442.0</ele><time>2026-04-17T14:31:05.242Z</time></trkpt><trkpt lat="43.0158333" lon="13.3825783"><ele>438.75</ele><time>2026-04-17T14:31:06.242Z</time></trkpt><trkpt lat="43.0157533" lon="13.3827017"><ele>435.5</ele><time>2026-04-17T14:31:07.242Z</time></trkpt><trkpt lat="43.0156683" lon="13.3828417"><ele>432.25</ele><time>2026-04-17T14:31:08.242Z</time></trkpt><trkpt lat="43.0155833" lon="13.3829717"><ele>429.0</ele><time>2026-04-17T14:31:09.242Z</time></trkpt><trkpt lat="43.0155083" lon="13.3831183"><ele>427.25</ele><time>2026-04-17T14:31:10.242Z</time></trkpt><trkpt lat="43.01543" lon="13.383255"><ele>425.5</ele><time>2026-04-17T14:31:11.242Z</time></trkpt><trkpt lat="43.0153783" lon="13.383415"><ele>423.75</ele><time>2026-04-17T14:31:12.242Z</time></trkpt><trkpt lat="43.0153417" lon="13.3835717"><ele>422.0</ele><time>2026-04-17T14:31:13.242Z</time></trkpt><trkpt lat="43.0153017" lon="13.3837167"><ele>422.75</ele><time>2026-04-17T14:31:14.242Z</time></trkpt><trkpt lat="43.0152483" lon="13.38386"><ele>423.5</ele><time>2026-04-17T14:31:15.242Z</time></trkpt><trkpt lat="43.0151883" lon="13.3839933"><ele>424.25</ele><time>2026-04-17T14:31:16.242Z</time></trkpt><trkpt lat="43.01514" lon="13.38414"><ele>425.0</ele><time>2026-04-17T14:31:17.242Z</time></trkpt><trkpt lat="43.0150933" lon="13.3842733"><ele>425.0</ele><time>2026-04-17T14:31:18.242Z</time></trkpt><trkpt lat="43.0150367" lon="13.3844017"><ele>425.0</ele><time>2026-04-17T14:31:19.242Z</time></trkpt><trkpt lat="43.0149833" lon="13.384535"><ele>425.0</ele><time>2026-04-17T14:31:20.242Z</time></trkpt><trkpt lat="43.0149317" lon="13.3846667"><ele>425.0</ele><time>2026-04-17T14:31:21.242Z</time></trkpt><trkpt lat="43.01489" lon="13.384805"><ele>425.0</ele><time>2026-04-17T14:31:22.242Z</time></trkpt><trkpt lat="43.01483" lon="13.3849467"><ele>419.5</ele><time>2026-04-17T14:31:23.242Z</time></trkpt><trkpt lat="43.0147733" lon="13.3850817"><ele>414.0</ele><time>2026-04-17T14:31:24.242Z</time></trkpt><trkpt lat="43.01471" lon="13.3852333"><ele>408.5</ele><time>2026-04-17T14:31:25.242Z</time></trkpt><trkpt lat="43.0146367" lon="13.38538"><ele>403.0</ele><time>2026-04-17T14:31:26.242Z</time></trkpt><trkpt lat="43.0145633" lon="13.3855083"><ele>403.25</ele><time>2026-04-17T14:31:27.242Z</time></trkpt><trkpt lat="43.0144767" lon="13.3856467"><ele>403.5</ele><time>2026-04-17T14:31:28.242Z</time></trkpt><trkpt lat="43.0144033" lon="13.3858067"><ele>403.75</ele><time>2026-04-17T14:31:29.242Z</time></trkpt><trkpt lat="43.0143483" lon="13.3859717"><ele>404.0</ele><time>2026-04-17T14:31:30.242Z</time></trkpt><trkpt lat="43.0143" lon="13.3861433"><ele>404.0</ele><time>2026-04-17T14:31:31.242Z</time></trkpt><trkpt lat="43.0142667" lon="13.3863217"><ele>404.0</ele><time>2026-04-17T14:31:32.242Z</time></trkpt><trkpt lat="43.01423" lon="13.3864783"><ele>404.0</ele><time>2026-04-17T14:31:33.242Z</time></trkpt><trkpt lat="43.0142" lon="13.386615"><ele>404.0</ele><time>2026-04-17T14:31:34.242Z</time></trkpt><trkpt lat="43.014185" lon="13.3867333"><ele>404.0</ele><time>2026-04-17T14:31:35.242Z</time></trkpt><trkpt lat="43.0141817" lon="13.3868617"><ele>404.4</ele><time>2026-04-17T14:31:36.242Z</time></trkpt><trkpt lat="43.0142033" lon="13.3869917"><ele>404.79999999999995</ele><time>2026-04-17T14:31:37.242Z</time></trkpt><trkpt lat="43.014235" lon="13.387135"><ele>405.20000000000005</ele><time>2026-04-17T14:31:38.242Z</time></trkpt><trkpt lat="43.0142683" lon="13.38728"><ele>405.6</ele><time>2026-04-17T14:31:39.242Z</time></trkpt><trkpt lat="43.0143133" lon="13.387435"><ele>406.0</ele><time>2026-04-17T14:31:40.242Z</time></trkpt><trkpt lat="43.01435" lon="13.3875783"><ele>405.1666666666667</ele><time>2026-04-17T14:31:41.242Z</time></trkpt><trkpt lat="43.0143883" lon="13.3877083"><ele>404.33333333333337</ele><time>2026-04-17T14:31:42.242Z</time></trkpt><trkpt lat="43.0144183" lon="13.3878417"><ele>403.5</ele><time>2026-04-17T14:31:43.242Z</time></trkpt><trkpt lat="43.0144367" lon="13.3879583"><ele>402.66666666666663</ele><time>2026-04-17T14:31:44.242Z</time></trkpt><trkpt lat="43.01444" lon="13.3880617"><ele>401.8333333333333</ele><time>2026-04-17T14:31:45.242Z</time></trkpt><trkpt lat="43.0144367" lon="13.3881717"><ele>401.0</ele><time>2026-04-17T14:31:46.242Z</time></trkpt><trkpt lat="43.014425" lon="13.3883083"><ele>400.0</ele><time>2026-04-17T14:31:47.242Z</time></trkpt><trkpt lat="43.0144033" lon="13.3884583"><ele>399.0</ele><time>2026-04-17T14:31:48.242Z</time></trkpt><trkpt lat="43.0143767" lon="13.3885983"><ele>398.0</ele><time>2026-04-17T14:31:49.242Z</time></trkpt><trkpt lat="43.0143467" lon="13.388725"><ele>397.0</ele><time>2026-04-17T14:31:50.242Z</time></trkpt><trkpt lat="43.0143217" lon="13.3888383"><ele>396.0</ele><time>2026-04-17T14:31:51.242Z</time></trkpt><trkpt lat="43.01431" lon="13.3889533"><ele>394.6</ele><time>2026-04-17T14:31:52.242Z</time></trkpt><trkpt lat="43.01432" lon="13.38907"><ele>393.20000000000005</ele><time>2026-04-17T14:31:53.242Z</time></trkpt><trkpt lat="43.0143533" lon="13.3891817"><ele>391.79999999999995</ele><time>2026-04-17T14:31:54.242Z</time></trkpt><trkpt lat="43.0144133" lon="13.3892783"><ele>390.4</ele><time>2026-04-17T14:31:55.242Z</time></trkpt><trkpt lat="43.0145017" lon="13.38936"><ele>389.0</ele><time>2026-04-17T14:31:56.242Z</time></trkpt><trkpt lat="43.0146017" lon="13.3894433"><ele>389.0</ele><time>2026-04-17T14:31:57.242Z</time></trkpt><trkpt lat="43.0147067" lon="13.3895283"><ele>389.0</ele><time>2026-04-17T14:31:58.242Z</time></trkpt><trkpt lat="43.0148033" lon="13.389625"><ele>389.0</ele><time>2026-04-17T14:31:59.242Z</time></trkpt><trkpt lat="43.0148983" lon="13.38973"><ele>389.0</ele><time>2026-04-17T14:32:00.242Z</time></trkpt><trkpt lat="43.0149683" lon="13.38985"><ele>388.0</ele><time>2026-04-17T14:32:01.242Z</time></trkpt><trkpt lat="43.0150283" lon="13.389985"><ele>387.0</ele><time>2026-04-17T14:32:02.242Z</time></trkpt><trkpt lat="43.0150933" lon="13.39011"><ele>386.0</ele><time>2026-04-17T14:32:03.242Z</time></trkpt><trkpt lat="43.0151483" lon="13.3902317"><ele>385.0</ele><time>2026-04-17T14:32:04.242Z</time></trkpt><trkpt lat="43.0152033" lon="13.39034"><ele>384.0</ele><time>2026-04-17T14:32:05.242Z</time></trkpt><trkpt lat="43.015255" lon="13.3904333"><ele>382.8333333333333</ele><time>2026-04-17T14:32:06.242Z</time></trkpt><trkpt lat="43.0153017" lon="13.3905183"><ele>381.6666666666667</ele><time>2026-04-17T14:32:07.242Z</time></trkpt><trkpt lat="43.0153433" lon="13.3906"><ele>380.5</ele><time>2026-04-17T14:32:08.242Z</time></trkpt><trkpt lat="43.0153933" lon="13.390695"><ele>379.33333333333337</ele><time>2026-04-17T14:32:09.242Z</time></trkpt><trkpt lat="43.01544" lon="13.3907967"><ele>378.1666666666667</ele><time>2026-04-17T14:32:10.242Z</time></trkpt><trkpt lat="43.0154883" lon="13.3909217"><ele>377.0</ele><time>2026-04-17T14:32:11.242Z</time></trkpt><trkpt lat="43.01552" lon="13.39105"><ele>377.0</ele><time>2026-04-17T14:32:12.242Z</time></trkpt><trkpt lat="43.015535" lon="13.3911883"><ele>377.0</ele><time>2026-04-17T14:32:13.242Z</time></trkpt><trkpt lat="43.0155283" lon="13.3913233"><ele>377.0</ele><time>2026-04-17T14:32:14.242Z</time></trkpt><trkpt lat="43.0155" lon="13.39145"><ele>377.0</ele><time>2026-04-17T14:32:15.242Z</time></trkpt><trkpt lat="43.01546" lon="13.3915583"><ele>377.0</ele><time>2026-04-17T14:32:16.242Z</time></trkpt><trkpt lat="43.015395" lon="13.3916333"><ele>376.0</ele><time>2026-04-17T14:32:17.242Z</time></trkpt><trkpt lat="43.0153167" lon="13.39168"><ele>375.0</ele><time>2026-04-17T14:32:18.242Z</time></trkpt><trkpt lat="43.015215" lon="13.3917033"><ele>374.0</ele><time>2026-04-17T14:32:19.242Z</time></trkpt><trkpt lat="43.0150917" lon="13.391675"><ele>373.0</ele><time>2026-04-17T14:32:20.242Z</time></trkpt><trkpt lat="43.0149767" lon="13.3916333"><ele>372.0</ele><time>2026-04-17T14:32:21.242Z</time></trkpt><trkpt lat="43.01486" lon="13.391575"><ele>370.6</ele><time>2026-04-17T14:32:22.242Z</time></trkpt><trkpt lat="43.0147433" lon="13.39152"><ele>369.20000000000005</ele><time>2026-04-17T14:32:23.242Z</time></trkpt><trkpt lat="43.0146383" lon="13.39147"><ele>367.8</ele><time>2026-04-17T14:32:24.242Z</time></trkpt><trkpt lat="43.0145483" lon="13.39142"><ele>366.4</ele><time>2026-04-17T14:32:25.242Z</time></trkpt><trkpt lat="43.014465" lon="13.391395"><ele>365.0</ele><time>2026-04-17T14:32:26.242Z</time></trkpt><trkpt lat="43.0143833" lon="13.391405"><ele>365.0</ele><time>2026-04-17T14:32:27.242Z</time></trkpt><trkpt lat="43.014315" lon="13.3914367"><ele>365.0</ele><time>2026-04-17T14:32:28.242Z</time></trkpt><trkpt lat="43.0142467" lon="13.3914983"><ele>365.0</ele><time>2026-04-17T14:32:29.242Z</time></trkpt><trkpt lat="43.0141917" lon="13.3916067"><ele>365.0</ele><time>2026-04-17T14:32:30.242Z</time></trkpt><trkpt lat="43.014135" lon="13.39174"><ele>365.0</ele><time>2026-04-17T14:32:31.242Z</time></trkpt><trkpt lat="43.0140633" lon="13.39187"><ele>364.75</ele><time>2026-04-17T14:32:32.242Z</time></trkpt><trkpt lat="43.0139817" lon="13.3919783"><ele>364.5</ele><time>2026-04-17T14:32:33.242Z</time></trkpt><trkpt lat="43.0138967" lon="13.3920817"><ele>364.25</ele><time>2026-04-17T14:32:34.242Z</time></trkpt><trkpt lat="43.0138017" lon="13.3921917"><ele>364.0</ele><time>2026-04-17T14:32:35.242Z</time></trkpt><trkpt lat="43.0136967" lon="13.3922967"><ele>363.75</ele><time>2026-04-17T14:32:36.242Z</time></trkpt><trkpt lat="43.0135917" lon="13.3923883"><ele>363.5</ele><time>2026-04-17T14:32:37.242Z</time></trkpt><trkpt lat="43.0134817" lon="13.3924833"><ele>363.25</ele><time>2026-04-17T14:32:38.242Z</time></trkpt><trkpt lat="43.013365" lon="13.3925883"><ele>363.0</ele><time>2026-04-17T14:32:39.242Z</time></trkpt><trkpt lat="43.0132483" lon="13.3926833"><ele>362.25</ele><time>2026-04-17T14:32:40.242Z</time></trkpt><trkpt lat="43.013135" lon="13.3927917"><ele>361.5</ele><time>2026-04-17T14:32:41.242Z</time></trkpt><trkpt lat="43.013025" lon="13.3928933"><ele>360.75</ele><time>2026-04-17T14:32:42.242Z</time></trkpt><trkpt lat="43.0129183" lon="13.3929917"><ele>360.0</ele><time>2026-04-17T14:32:43.242Z</time></trkpt><trkpt lat="43.012825" lon="13.393095"><ele>359.75</ele><time>2026-04-17T14:32:44.242Z</time></trkpt><trkpt lat="43.0127217" lon="13.3931883"><ele>359.5</ele><time>2026-04-17T14:32:45.242Z</time></trkpt><trkpt lat="43.0126217" lon="13.3932833"><ele>359.25</ele><time>2026-04-17T14:32:46.242Z</time></trkpt><trkpt lat="43.0124867" lon="13.3933533"><ele>359.0</ele><time>2026-04-17T14:32:47.242Z</time></trkpt><trkpt lat="43.0123617" lon="13.393425"><ele>355.75</ele><time>2026-04-17T14:32:48.242Z</time></trkpt><trkpt lat="43.0122417" lon="13.3934967"><ele>352.5</ele><time>2026-04-17T14:32:49.242Z</time></trkpt><trkpt lat="43.0121233" lon="13.3935767"><ele>349.25</ele><time>2026-04-17T14:32:50.242Z</time></trkpt><trkpt lat="43.0120067" lon="13.3936567"><ele>346.0</ele><time>2026-04-17T14:32:51.242Z</time></trkpt><trkpt lat="43.0119133" lon="13.3937417"><ele>348.0</ele><time>2026-04-17T14:32:52.242Z</time></trkpt><trkpt lat="43.0118317" lon="13.3938533"><ele>350.0</ele><time>2026-04-17T14:32:53.242Z</time></trkpt><trkpt lat="43.01177" lon="13.39399"><ele>352.0</ele><time>2026-04-17T14:32:54.242Z</time></trkpt><trkpt lat="43.0117133" lon="13.394145"><ele>354.0</ele><time>2026-04-17T14:32:55.242Z</time></trkpt><trkpt lat="43.0116633" lon="13.39431"><ele>352.0</ele><time>2026-04-17T14:32:56.242Z</time></trkpt><trkpt lat="43.0116183" lon="13.3944767"><ele>350.0</ele><time>2026-04-17T14:32:57.242Z</time></trkpt><trkpt lat="43.0115767" lon="13.3946367"><ele>348.0</ele><time>2026-04-17T14:32:58.242Z</time></trkpt><trkpt lat="43.0115217" lon="13.3947883"><ele>346.0</ele><time>2026-04-17T14:32:59.242Z</time></trkpt><trkpt lat="43.0114967" lon="13.39494"><ele>346.0</ele><time>2026-04-17T14:33:00.242Z</time></trkpt><trkpt lat="43.01147" lon="13.3951067"><ele>346.0</ele><time>2026-04-17T14:33:01.242Z</time></trkpt><trkpt lat="43.01147" lon="13.3952767"><ele>346.0</ele><time>2026-04-17T14:33:02.242Z</time></trkpt><trkpt lat="43.0114817" lon="13.395445"><ele>346.0</ele><time>2026-04-17T14:33:03.242Z</time></trkpt><trkpt lat="43.011505" lon="13.3955833"><ele>347.0</ele><time>2026-04-17T14:33:04.242Z</time></trkpt><trkpt lat="43.011535" lon="13.395725"><ele>348.0</ele><time>2026-04-17T14:33:05.242Z</time></trkpt><trkpt lat="43.0115783" lon="13.3958683"><ele>349.0</ele><time>2026-04-17T14:33:06.242Z</time></trkpt><trkpt lat="43.01163" lon="13.39601"><ele>350.0</ele><time>2026-04-17T14:33:07.242Z</time></trkpt><trkpt lat="43.0116833" lon="13.3961683"><ele>353.0</ele><time>2026-04-17T14:33:08.242Z</time></trkpt><trkpt lat="43.0117217" lon="13.3963317"><ele>356.0</ele><time>2026-04-17T14:33:09.242Z</time></trkpt><trkpt lat="43.01176" lon="13.3964983"><ele>359.0</ele><time>2026-04-17T14:33:10.242Z</time></trkpt><trkpt lat="43.0118117" lon="13.396645"><ele>362.0</ele><time>2026-04-17T14:33:11.242Z</time></trkpt><trkpt lat="43.0118833" lon="13.3968033"><ele>362.0</ele><time>2026-04-17T14:33:12.241Z</time></trkpt><trkpt lat="43.0119733" lon="13.3969633"><ele>362.0</ele><time>2026-04-17T14:33:13.242Z</time></trkpt><trkpt lat="43.01206" lon="13.39712"><ele>362.0</ele><time>2026-04-17T14:33:14.242Z</time></trkpt><trkpt lat="43.0121517" lon="13.3972767"><ele>362.0</ele><time>2026-04-17T14:33:15.242Z</time></trkpt><trkpt lat="43.0122567" lon="13.3974333"><ele>360.6666666666667</ele><time>2026-04-17T14:33:16.242Z</time></trkpt><trkpt lat="43.01237" lon="13.3975833"><ele>359.3333333333333</ele><time>2026-04-17T14:33:17.242Z</time></trkpt><trkpt lat="43.0124933" lon="13.3977367"><ele>358.0</ele><time>2026-04-17T14:33:18.242Z</time></trkpt><trkpt lat="43.0126167" lon="13.3978833"><ele>360.66666666666663</ele><time>2026-04-17T14:33:19.242Z</time></trkpt><trkpt lat="43.0127367" lon="13.3980367"><ele>363.3333333333333</ele><time>2026-04-17T14:33:20.242Z</time></trkpt><trkpt lat="43.0128483" lon="13.3981917"><ele>366.0</ele><time>2026-04-17T14:33:21.242Z</time></trkpt><trkpt lat="43.0129667" lon="13.3983567"><ele>366.0</ele><time>2026-04-17T14:33:22.242Z</time></trkpt><trkpt lat="43.013055" lon="13.3985367"><ele>366.0</ele><time>2026-04-17T14:33:23.242Z</time></trkpt><trkpt lat="43.0131217" lon="13.398725"><ele>366.0</ele><time>2026-04-17T14:33:24.242Z</time></trkpt><trkpt lat="43.0131933" lon="13.398905"><ele>365.6666666666667</ele><time>2026-04-17T14:33:25.242Z</time></trkpt><trkpt lat="43.0132683" lon="13.3990867"><ele>365.33333333333337</ele><time>2026-04-17T14:33:26.242Z</time></trkpt><trkpt lat="43.013345" lon="13.3992617"><ele>365.0</ele><time>2026-04-17T14:33:27.242Z</time></trkpt><trkpt lat="43.01345" lon="13.3994217"><ele>370.0</ele><time>2026-04-17T14:33:28.242Z</time></trkpt><trkpt lat="43.0135717" lon="13.3995833"><ele>375.0</ele><time>2026-04-17T14:33:29.242Z</time></trkpt><trkpt lat="43.0136783" lon="13.3997267"><ele>380.0</ele><time>2026-04-17T14:33:30.242Z</time></trkpt><trkpt lat="43.0137933" lon="13.3998633"><ele>380.0</ele><time>2026-04-17T14:33:31.242Z</time></trkpt><trkpt lat="43.0139233" lon="13.39999"><ele>380.0</ele><time>2026-04-17T14:33:32.242Z</time></trkpt><trkpt lat="43.01406" lon="13.4000883"><ele>380.0</ele><time>2026-04-17T14:33:33.242Z</time></trkpt><trkpt lat="43.0141983" lon="13.40018"><ele>382.33333333333337</ele><time>2026-04-17T14:33:34.242Z</time></trkpt><trkpt lat="43.0143517" lon="13.40027"><ele>384.6666666666667</ele><time>2026-04-17T14:33:35.242Z</time></trkpt><trkpt lat="43.0144917" lon="13.400375"><ele>387.0</ele><time>2026-04-17T14:33:36.242Z</time></trkpt><trkpt lat="43.014635" lon="13.4005067"><ele>387.0</ele><time>2026-04-17T14:33:37.242Z</time></trkpt><trkpt lat="43.0147733" lon="13.4006333"><ele>387.0</ele><time>2026-04-17T14:33:38.242Z</time></trkpt><trkpt lat="43.014905" lon="13.40077"><ele>387.0</ele><time>2026-04-17T14:33:39.242Z</time></trkpt><trkpt lat="43.0150283" lon="13.4009233"><ele>390.66666666666663</ele><time>2026-04-17T14:33:40.242Z</time></trkpt><trkpt lat="43.0151583" lon="13.401085"><ele>394.3333333333333</ele><time>2026-04-17T14:33:41.242Z</time></trkpt><trkpt lat="43.015285" lon="13.40125"><ele>398.0</ele><time>2026-04-17T14:33:42.242Z</time></trkpt><trkpt lat="43.015395" lon="13.4014083"><ele>398.0</ele><time>2026-04-17T14:33:43.242Z</time></trkpt><trkpt lat="43.0154967" lon="13.4015733"><ele>398.0</ele><time>2026-04-17T14:33:44.242Z</time></trkpt><trkpt lat="43.0155833" lon="13.40173"><ele>398.0</ele><time>2026-04-17T14:33:45.242Z</time></trkpt><trkpt lat="43.01564" lon="13.4018833"><ele>398.0</ele><time>2026-04-17T14:33:46.242Z</time></trkpt><trkpt lat="43.0156817" lon="13.4020517"><ele>401.5</ele><time>2026-04-17T14:33:47.242Z</time></trkpt><trkpt lat="43.015705" lon="13.4022317"><ele>405.0</ele><time>2026-04-17T14:33:48.242Z</time></trkpt><trkpt lat="43.015725" lon="13.40242"><ele>408.5</ele><time>2026-04-17T14:33:49.242Z</time></trkpt><trkpt lat="43.0157467" lon="13.4026117"><ele>412.0</ele><time>2026-04-17T14:33:50.242Z</time></trkpt><trkpt lat="43.015775" lon="13.4028183"><ele>415.33333333333337</ele><time>2026-04-17T14:33:51.242Z</time></trkpt><trkpt lat="43.0158017" lon="13.40302"><ele>418.66666666666663</ele><time>2026-04-17T14:33:52.242Z</time></trkpt><trkpt lat="43.0158217" lon="13.4032267"><ele>422.0</ele><time>2026-04-17T14:33:53.242Z</time></trkpt><trkpt lat="43.0158383" lon="13.40343"><ele>422.0</ele><time>2026-04-17T14:33:54.242Z</time></trkpt><trkpt lat="43.0158567" lon="13.4036017"><ele>422.0</ele><time>2026-04-17T14:33:55.242Z</time></trkpt><trkpt lat="43.015885" lon="13.4037167"><ele>422.0</ele><time>2026-04-17T14:33:56.242Z</time></trkpt><trkpt lat="43.01593" lon="13.4038"><ele>422.0</ele><time>2026-04-17T14:33:57.242Z</time></trkpt><trkpt lat="43.0159983" lon="13.4038767"><ele>422.0</ele><time>2026-04-17T14:33:58.242Z</time></trkpt><trkpt lat="43.016095" lon="13.40393"><ele>422.5</ele><time>2026-04-17T14:33:59.242Z</time></trkpt><trkpt lat="43.0162133" lon="13.40397"><ele>423.0</ele><time>2026-04-17T14:34:00.242Z</time></trkpt><trkpt lat="43.0163433" lon="13.4039983"><ele>423.5</ele><time>2026-04-17T14:34:01.242Z</time></trkpt><trkpt lat="43.0164833" lon="13.4040467"><ele>424.0</ele><time>2026-04-17T14:34:02.242Z</time></trkpt><trkpt lat="43.01662" lon="13.4040967"><ele>427.0</ele><time>2026-04-17T14:34:03.242Z</time></trkpt><trkpt lat="43.0167467" lon="13.4041617"><ele>430.0</ele><time>2026-04-17T14:34:04.242Z</time></trkpt><trkpt lat="43.0168617" lon="13.404265"><ele>433.0</ele><time>2026-04-17T14:34:05.242Z</time></trkpt><trkpt lat="43.0169583" lon="13.404425"><ele>436.0</ele><time>2026-04-17T14:34:06.242Z</time></trkpt><trkpt lat="43.0170533" lon="13.4045967"><ele>434.75</ele><time>2026-04-17T14:34:07.242Z</time></trkpt><trkpt lat="43.0171183" lon="13.40477"><ele>433.5</ele><time>2026-04-17T14:34:08.242Z</time></trkpt><trkpt lat="43.0171567" lon="13.4049367"><ele>432.25</ele><time>2026-04-17T14:34:09.242Z</time></trkpt><trkpt lat="43.017185" lon="13.4051033"><ele>431.0</ele><time>2026-04-17T14:34:10.242Z</time></trkpt><trkpt lat="43.017215" lon="13.405265"><ele>431.0</ele><time>2026-04-17T14:34:11.242Z</time></trkpt><trkpt lat="43.0172433" lon="13.4053917"><ele>431.0</ele><time>2026-04-17T14:34:12.241Z</time></trkpt><trkpt lat="43.0172767" lon="13.4054833"><ele>431.0</ele><time>2026-04-17T14:34:13.242Z</time></trkpt><trkpt lat="43.0172867" lon="13.4056167"><ele>431.0</ele><time>2026-04-17T14:34:15.242Z</time></trkpt><trkpt lat="43.0172217" lon="13.4057117"><ele>431.0</ele><time>2026-04-17T14:34:17.242Z</time></trkpt><trkpt lat="43.01711" lon="13.4058067"><ele>432.3333333333333</ele><time>2026-04-17T14:34:19.242Z</time></trkpt><trkpt lat="43.0170283" lon="13.4058617"><ele>433.66666666666663</ele><time>2026-04-17T14:34:20.242Z</time></trkpt><trkpt lat="43.01693" lon="13.4059083"><ele>435.0</ele><time>2026-04-17T14:34:21.242Z</time></trkpt><trkpt lat="43.0168367" lon="13.4059533"><ele>436.33333333333337</ele><time>2026-04-17T14:34:22.242Z</time></trkpt><trkpt lat="43.0167567" lon="13.40598"><ele>437.6666666666667</ele><time>2026-04-17T14:34:23.242Z</time></trkpt><trkpt lat="43.01669" lon="13.4060017"><ele>439.0</ele><time>2026-04-17T14:34:24.241Z</time></trkpt><trkpt lat="43.0166267" lon="13.4060317"><ele>435.6</ele><time>2026-04-17T14:34:25.242Z</time></trkpt><trkpt lat="43.0165117" lon="13.4061017"><ele>432.2</ele><time>2026-04-17T14:34:27.242Z</time></trkpt><trkpt lat="43.01642" lon="13.406135"><ele>428.8</ele><time>2026-04-17T14:34:29.242Z</time></trkpt><trkpt lat="43.016325" lon="13.40617"><ele>425.40000000000003</ele><time>2026-04-17T14:34:31.242Z</time></trkpt><trkpt lat="43.0162533" lon="13.4062583"><ele>422.0</ele><time>2026-04-17T14:34:33.242Z</time></trkpt><trkpt lat="43.01623" lon="13.4063417"><ele>421.99999999999994</ele><time>2026-04-17T14:34:34.242Z</time></trkpt><trkpt lat="43.0162067" lon="13.4064333"><ele>422.0</ele><time>2026-04-17T14:34:35.242Z</time></trkpt><trkpt lat="43.016185" lon="13.406525"><ele>422.0</ele><time>2026-04-17T14:34:36.242Z</time></trkpt><trkpt lat="43.0161717" lon="13.40662"><ele>422.0</ele><time>2026-04-17T14:34:37.242Z</time></trkpt><trkpt lat="43.0161383" lon="13.4067167"><ele>421.99999999999994</ele><time>2026-04-17T14:34:38.242Z</time></trkpt><trkpt lat="43.016095" lon="13.406825"><ele>422.0</ele><time>2026-04-17T14:34:39.242Z</time></trkpt><trkpt lat="43.0160333" lon="13.406945"><ele>421.99999999999994</ele><time>2026-04-17T14:34:40.242Z</time></trkpt><trkpt lat="43.0159767" lon="13.40706"><ele>422.0</ele><time>2026-04-17T14:34:41.242Z</time></trkpt><trkpt lat="43.015925" lon="13.4071583"><ele>422.0</ele><time>2026-04-17T14:34:42.242Z</time></trkpt><trkpt lat="43.0158617" lon="13.4072517"><ele>422.0</ele><time>2026-04-17T14:34:43.242Z</time></trkpt><trkpt lat="43.0158117" lon="13.407335"><ele>421.99999999999994</ele><time>2026-04-17T14:34:44.242Z</time></trkpt><trkpt lat="43.0157783" lon="13.4074233"><ele>422.0</ele><time>2026-04-17T14:34:45.242Z</time></trkpt><trkpt lat="43.015765" lon="13.4075183"><ele>422.20000000000005</ele><time>2026-04-17T14:34:46.242Z</time></trkpt><trkpt lat="43.0157667" lon="13.4076167"><ele>422.4</ele><time>2026-04-17T14:34:47.242Z</time></trkpt><trkpt lat="43.015785" lon="13.4077717"><ele>422.6</ele><time>2026-04-17T14:34:49.242Z</time></trkpt><trkpt lat="43.01585" lon="13.4078883"><ele>422.79999999999995</ele><time>2026-04-17T14:34:51.242Z</time></trkpt><trkpt lat="43.01592" lon="13.407955"><ele>423.0</ele><time>2026-04-17T14:34:53.242Z</time></trkpt><trkpt lat="43.0160183" lon="13.4079817"><ele>423.0</ele><time>2026-04-17T14:36:41.242Z</time></trkpt><trkpt lat="43.0161067" lon="13.4079283"><ele>423.0</ele><time>2026-04-17T14:37:07.242Z</time></trkpt><trkpt lat="43.016215" lon="13.40792"><ele>423.0</ele><time>2026-04-17T14:37:09.242Z</time></trkpt><trkpt lat="43.0162883" lon="13.4079083"><ele>423.0</ele><time>2026-04-17T14:37:10.242Z</time></trkpt><trkpt lat="43.0163667" lon="13.4078917"><ele>423.0</ele><time>2026-04-17T14:37:11.242Z</time></trkpt><trkpt lat="43.0164583" lon="13.4078717"><ele>423.0</ele><time>2026-04-17T14:37:12.242Z</time></trkpt><trkpt lat="43.0165517" lon="13.4078367"><ele>423.0</ele><time>2026-04-17T14:37:13.242Z</time></trkpt><trkpt lat="43.0166383" lon="13.4078083"><ele>423.0</ele><time>2026-04-17T14:37:14.242Z</time></trkpt><trkpt lat="43.016715" lon="13.4077867"><ele>423.0</ele><time>2026-04-17T14:37:15.242Z</time></trkpt><trkpt lat="43.0167967" lon="13.4077533"><ele>423.0</ele><time>2026-04-17T14:37:16.242Z</time></trkpt><trkpt lat="43.0168683" lon="13.4077317"><ele>423.0</ele><time>2026-04-17T14:37:17.242Z</time></trkpt><trkpt lat="43.0169367" lon="13.4077133"><ele>422.4</ele><time>2026-04-17T14:37:18.242Z</time></trkpt><trkpt lat="43.01706" lon="13.4077"><ele>421.79999999999995</ele><time>2026-04-17T14:37:20.242Z</time></trkpt><trkpt lat="43.01717" lon="13.4077083"><ele>421.2</ele><time>2026-04-17T14:37:22.242Z</time></trkpt><trkpt lat="43.0172467" lon="13.4077367"><ele>420.6</ele><time>2026-04-17T14:37:24.242Z</time></trkpt><trkpt lat="43.0173433" lon="13.40776"><ele>420.0</ele><time>2026-04-17T14:37:27.242Z</time></trkpt><trkpt lat="43.0174267" lon="13.4077467"><ele>418.2</ele><time>2026-04-17T14:37:29.242Z</time></trkpt><trkpt lat="43.0175117" lon="13.4077433"><ele>416.4</ele><time>2026-04-17T14:37:31.242Z</time></trkpt><trkpt lat="43.0176017" lon="13.4077633"><ele>414.6</ele><time>2026-04-17T14:37:33.242Z</time></trkpt><trkpt lat="43.0177017" lon="13.40777"><ele>412.8</ele><time>2026-04-17T14:37:35.242Z</time></trkpt><trkpt lat="43.0177933" lon="13.4077783"><ele>411.0</ele><time>2026-04-17T14:37:37.242Z</time></trkpt><trkpt lat="43.0178783" lon="13.4077583"><ele>411.0</ele><time>2026-04-17T14:37:39.242Z</time></trkpt><trkpt lat="43.0179567" lon="13.4076983"><ele>411.0</ele><time>2026-04-17T14:37:41.242Z</time></trkpt><trkpt lat="43.0180333" lon="13.4076267"><ele>411.0</ele><time>2026-04-17T14:37:43.242Z</time></trkpt><trkpt lat="43.018095" lon="13.4075733"><ele>411.0</ele><time>2026-04-17T14:37:45.242Z</time></trkpt><trkpt lat="43.0181667" lon="13.4075333"><ele>411.0</ele><time>2026-04-17T14:37:47.242Z</time></trkpt><trkpt lat="43.01825" lon="13.4075767"><ele>411.0</ele><time>2026-04-17T14:37:50.242Z</time></trkpt><trkpt lat="43.0182917" lon="13.407685"><ele>409.20000000000005</ele><time>2026-04-17T14:37:52.242Z</time></trkpt><trkpt lat="43.0183183" lon="13.4078483"><ele>407.40000000000003</ele><time>2026-04-17T14:37:54.242Z</time></trkpt><trkpt lat="43.018345" lon="13.4079483"><ele>405.6</ele><time>2026-04-17T14:37:55.242Z</time></trkpt><trkpt lat="43.0183817" lon="13.4080383"><ele>403.8</ele><time>2026-04-17T14:37:56.242Z</time></trkpt><trkpt lat="43.0184467" lon="13.4081617"><ele>402.0</ele><time>2026-04-17T14:37:58.242Z</time></trkpt><trkpt lat="43.0184917" lon="13.4082933"><ele>401.8</ele><time>2026-04-17T14:38:00.242Z</time></trkpt><trkpt lat="43.018495" lon="13.4084683"><ele>401.6</ele><time>2026-04-17T14:38:02.242Z</time></trkpt><trkpt lat="43.0185067" lon="13.408575"><ele>401.40000000000003</ele><time>2026-04-17T14:38:03.242Z</time></trkpt><trkpt lat="43.0185167" lon="13.40869"><ele>401.20000000000005</ele><time>2026-04-17T14:38:04.242Z</time></trkpt><trkpt lat="43.0185283" lon="13.408795"><ele>401.0</ele><time>2026-04-17T14:38:05.242Z</time></trkpt><trkpt lat="43.0185583" lon="13.4089417"><ele>401.0</ele><time>2026-04-17T14:38:07.242Z</time></trkpt><trkpt lat="43.01856" lon="13.4090767"><ele>401.0</ele><time>2026-04-17T14:38:09.242Z</time></trkpt><trkpt lat="43.0185533" lon="13.4092083"><ele>401.0</ele><time>2026-04-17T14:38:11.242Z</time></trkpt><trkpt lat="43.0185717" lon="13.4093117"><ele>401.0</ele><time>2026-04-17T14:38:14.242Z</time></trkpt><trkpt lat="43.0185483" lon="13.409435"><ele>401.0</ele><time>2026-04-17T14:40:49.241Z</time></trkpt><trkpt lat="43.0185167" lon="13.409595"><ele>401.66666666666663</ele><time>2026-04-17T14:43:53.241Z</time></trkpt><trkpt lat="43.0185267" lon="13.409695"><ele>402.3333333333333</ele><time>2026-04-17T14:43:58.241Z</time></trkpt><trkpt lat="43.0185783" lon="13.4098133"><ele>403.0</ele><time>2026-04-17T14:44:00.241Z</time></trkpt><trkpt lat="43.0186267" lon="13.409885"><ele>403.66666666666663</ele><time>2026-04-17T14:44:01.241Z</time></trkpt><trkpt lat="43.0186667" lon="13.4099717"><ele>404.3333333333333</ele><time>2026-04-17T14:44:02.241Z</time></trkpt><trkpt lat="43.0187017" lon="13.4100783"><ele>405.0</ele><time>2026-04-17T14:44:03.241Z</time></trkpt><trkpt lat="43.0187417" lon="13.4102033"><ele>405.0</ele><time>2026-04-17T14:44:04.241Z</time></trkpt><trkpt lat="43.01879" lon="13.410335"><ele>405.0</ele><time>2026-04-17T14:44:05.241Z</time></trkpt><trkpt lat="43.0188367" lon="13.410455"><ele>405.0</ele><time>2026-04-17T14:44:06.241Z</time></trkpt><trkpt lat="43.0188817" lon="13.4105583"><ele>405.0</ele><time>2026-04-17T14:44:07.241Z</time></trkpt><trkpt lat="43.018905" lon="13.4106567"><ele>405.0</ele><time>2026-04-17T14:44:08.241Z</time></trkpt><trkpt lat="43.018915" lon="13.4107433"><ele>405.0</ele><time>2026-04-17T14:44:09.241Z</time></trkpt><trkpt lat="43.0189067" lon="13.410835"><ele>406.2</ele><time>2026-04-17T14:44:10.241Z</time></trkpt><trkpt lat="43.0188717" lon="13.410945"><ele>407.4</ele><time>2026-04-17T14:44:11.241Z</time></trkpt><trkpt lat="43.0187967" lon="13.411055"><ele>408.6</ele><time>2026-04-17T14:44:12.241Z</time></trkpt><trkpt lat="43.0187233" lon="13.4111383"><ele>409.8</ele><time>2026-04-17T14:44:13.241Z</time></trkpt><trkpt lat="43.0186533" lon="13.4112183"><ele>411.0</ele><time>2026-04-17T14:44:14.241Z</time></trkpt><trkpt lat="43.0185833" lon="13.4113167"><ele>413.5</ele><time>2026-04-17T14:44:15.241Z</time></trkpt><trkpt lat="43.0185133" lon="13.4114133"><ele>416.0</ele><time>2026-04-17T14:44:16.241Z</time></trkpt><trkpt lat="43.0184633" lon="13.4115067"><ele>418.5</ele><time>2026-04-17T14:44:17.241Z</time></trkpt><trkpt lat="43.018435" lon="13.4116167"><ele>421.0</ele><time>2026-04-17T14:44:18.241Z</time></trkpt><trkpt lat="43.0184233" lon="13.4117217"><ele>423.5</ele><time>2026-04-17T14:44:19.241Z</time></trkpt><trkpt lat="43.0184317" lon="13.411835"><ele>426.0</ele><time>2026-04-17T14:44:20.241Z</time></trkpt><trkpt lat="43.0184567" lon="13.41196"><ele>426.0</ele><time>2026-04-17T14:44:21.241Z</time></trkpt><trkpt lat="43.0184967" lon="13.4120933"><ele>426.0</ele><time>2026-04-17T14:44:22.241Z</time></trkpt><trkpt lat="43.0185333" lon="13.4122133"><ele>426.0</ele><time>2026-04-17T14:44:23.241Z</time></trkpt><trkpt lat="43.0185783" lon="13.4123267"><ele>426.0</ele><time>2026-04-17T14:44:24.241Z</time></trkpt><trkpt lat="43.0186283" lon="13.4124217"><ele>426.0</ele><time>2026-04-17T14:44:25.241Z</time></trkpt><trkpt lat="43.0186867" lon="13.4125133"><ele>426.6</ele><time>2026-04-17T14:44:26.241Z</time></trkpt><trkpt lat="43.0187417" lon="13.4126067"><ele>427.20000000000005</ele><time>2026-04-17T14:44:27.241Z</time></trkpt><trkpt lat="43.0188117" lon="13.4127083"><ele>427.79999999999995</ele><time>2026-04-17T14:44:28.241Z</time></trkpt><trkpt lat="43.0188683" lon="13.4127883"><ele>428.4</ele><time>2026-04-17T14:44:29.241Z</time></trkpt><trkpt lat="43.0189717" lon="13.4128783"><ele>429.0</ele><time>2026-04-17T14:44:31.241Z</time></trkpt><trkpt lat="43.0190983" lon="13.4128717"><ele>432.79999999999995</ele><time>2026-04-17T14:44:33.241Z</time></trkpt><trkpt lat="43.0191617" lon="13.4128"><ele>436.59999999999997</ele><time>2026-04-17T14:44:34.24Z</time></trkpt><trkpt lat="43.0192333" lon="13.4126833"><ele>440.4</ele><time>2026-04-17T14:44:35.241Z</time></trkpt><trkpt lat="43.019315" lon="13.4125583"><ele>444.2</ele><time>2026-04-17T14:44:36.241Z</time></trkpt><trkpt lat="43.0193967" lon="13.4124283"><ele>448.0</ele><time>2026-04-17T14:44:37.241Z</time></trkpt><trkpt lat="43.01947" lon="13.4123083"><ele>448.0</ele><time>2026-04-17T14:44:38.24Z</time></trkpt><trkpt lat="43.019535" lon="13.41219"><ele>447.99999999999994</ele><time>2026-04-17T14:44:39.241Z</time></trkpt><trkpt lat="43.0196033" lon="13.4120717"><ele>447.99999999999994</ele><time>2026-04-17T14:44:40.241Z</time></trkpt><trkpt lat="43.0196683" lon="13.4119667"><ele>448.0</ele><time>2026-04-17T14:44:41.241Z</time></trkpt><trkpt lat="43.0197283" lon="13.4118683"><ele>448.0</ele><time>2026-04-17T14:44:42.241Z</time></trkpt><trkpt lat="43.019795" lon="13.4117717"><ele>448.0</ele><time>2026-04-17T14:44:43.241Z</time></trkpt><trkpt lat="43.0198567" lon="13.4116667"><ele>447.99999999999994</ele><time>2026-04-17T14:44:44.241Z</time></trkpt><trkpt lat="43.0199167" lon="13.41154"><ele>447.99999999999994</ele><time>2026-04-17T14:44:45.241Z</time></trkpt><trkpt lat="43.0199617" lon="13.411405"><ele>448.0</ele><time>2026-04-17T14:44:46.241Z</time></trkpt><trkpt lat="43.0199933" lon="13.4112617"><ele>448.0</ele><time>2026-04-17T14:44:47.241Z</time></trkpt><trkpt lat="43.0200033" lon="13.4111167"><ele>446.0</ele><time>2026-04-17T14:44:48.241Z</time></trkpt><trkpt lat="43.0200117" lon="13.4109717"><ele>444.0</ele><time>2026-04-17T14:44:49.24Z</time></trkpt><trkpt lat="43.0199983" lon="13.410805"><ele>442.0</ele><time>2026-04-17T14:44:50.241Z</time></trkpt><trkpt lat="43.0199633" lon="13.41064"><ele>440.0</ele><time>2026-04-17T14:44:51.241Z</time></trkpt><trkpt lat="43.0199267" lon="13.4104967"><ele>441.0</ele><time>2026-04-17T14:44:52.24Z</time></trkpt><trkpt lat="43.0199" lon="13.4103467"><ele>442.0</ele><time>2026-04-17T14:44:53.24Z</time></trkpt><trkpt lat="43.01986" lon="13.4102083"><ele>443.0</ele><time>2026-04-17T14:44:54.24Z</time></trkpt><trkpt lat="43.019815" lon="13.41007"><ele>444.0</ele><time>2026-04-17T14:44:55.24Z</time></trkpt><trkpt lat="43.019765" lon="13.4098967"><ele>444.0</ele><time>2026-04-17T14:44:56.24Z</time></trkpt><trkpt lat="43.019735" lon="13.4097133"><ele>444.0</ele><time>2026-04-17T14:44:57.24Z</time></trkpt><trkpt lat="43.01971" lon="13.409545"><ele>444.0</ele><time>2026-04-17T14:44:58.24Z</time></trkpt><trkpt lat="43.0196983" lon="13.40939"><ele>444.0</ele><time>2026-04-17T14:44:59.24Z</time></trkpt><trkpt lat="43.0196983" lon="13.409255"><ele>444.0</ele><time>2026-04-17T14:45:00.24Z</time></trkpt><trkpt lat="43.019715" lon="13.4091267"><ele>444.0</ele><time>2026-04-17T14:45:01.24Z</time></trkpt><trkpt lat="43.0197633" lon="13.4090167"><ele>444.0</ele><time>2026-04-17T14:45:02.24Z</time></trkpt><trkpt lat="43.0198133" lon="13.408905"><ele>444.0</ele><time>2026-04-17T14:45:03.24Z</time></trkpt><trkpt lat="43.0198817" lon="13.4087767"><ele>444.0</ele><time>2026-04-17T14:45:04.24Z</time></trkpt><trkpt lat="43.019955" lon="13.4086317"><ele>450.79999999999995</ele><time>2026-04-17T14:45:05.24Z</time></trkpt><trkpt lat="43.0200217" lon="13.4084983"><ele>457.59999999999997</ele><time>2026-04-17T14:45:06.24Z</time></trkpt><trkpt lat="43.0200933" lon="13.4083967"><ele>464.4</ele><time>2026-04-17T14:45:07.24Z</time></trkpt><trkpt lat="43.0201617" lon="13.4083267"><ele>471.2</ele><time>2026-04-17T14:45:08.24Z</time></trkpt><trkpt lat="43.020245" lon="13.4082817"><ele>478.0</ele><time>2026-04-17T14:45:09.24Z</time></trkpt><trkpt lat="43.0203383" lon="13.4082833"><ele>478.0</ele><time>2026-04-17T14:45:10.24Z</time></trkpt><trkpt lat="43.020445" lon="13.4082983"><ele>478.0</ele><time>2026-04-17T14:45:11.24Z</time></trkpt><trkpt lat="43.0205617" lon="13.40834"><ele>478.0</ele><time>2026-04-17T14:45:12.24Z</time></trkpt><trkpt lat="43.0206867" lon="13.40837"><ele>478.0</ele><time>2026-04-17T14:45:13.24Z</time></trkpt><trkpt lat="43.0208217" lon="13.4083833"><ele>483.0</ele><time>2026-04-17T14:45:14.24Z</time></trkpt><trkpt lat="43.0209417" lon="13.4083717"><ele>488.0</ele><time>2026-04-17T14:45:15.24Z</time></trkpt><trkpt lat="43.02105" lon="13.4083417"><ele>493.0</ele><time>2026-04-17T14:45:16.24Z</time></trkpt><trkpt lat="43.02116" lon="13.408285"><ele>498.0</ele><time>2026-04-17T14:45:17.24Z</time></trkpt><trkpt lat="43.0212767" lon="13.4082133"><ele>498.0</ele><time>2026-04-17T14:45:18.24Z</time></trkpt><trkpt lat="43.021395" lon="13.4081417"><ele>498.0</ele><time>2026-04-17T14:45:19.24Z</time></trkpt><trkpt lat="43.0215133" lon="13.4080783"><ele>498.0</ele><time>2026-04-17T14:45:20.24Z</time></trkpt><trkpt lat="43.02163" lon="13.40803"><ele>498.0</ele><time>2026-04-17T14:45:21.24Z</time></trkpt><trkpt lat="43.0217333" lon="13.40799"><ele>499.2</ele><time>2026-04-17T14:45:22.24Z</time></trkpt><trkpt lat="43.021825" lon="13.40795"><ele>500.4</ele><time>2026-04-17T14:45:23.24Z</time></trkpt><trkpt lat="43.0219217" lon="13.4079017"><ele>501.59999999999997</ele><time>2026-04-17T14:45:24.24Z</time></trkpt><trkpt lat="43.02202" lon="13.4078433"><ele>502.79999999999995</ele><time>2026-04-17T14:45:25.24Z</time></trkpt><trkpt lat="43.0221233" lon="13.4077717"><ele>504.0</ele><time>2026-04-17T14:45:26.24Z</time></trkpt><trkpt lat="43.022235" lon="13.4077183"><ele>504.0</ele><time>2026-04-17T14:45:27.24Z</time></trkpt><trkpt lat="43.0223467" lon="13.4076617"><ele>504.0</ele><time>2026-04-17T14:45:28.24Z</time></trkpt><trkpt lat="43.0224533" lon="13.4076033"><ele>504.0</ele><time>2026-04-17T14:45:29.24Z</time></trkpt><trkpt lat="43.0225567" lon="13.407545"><ele>504.0</ele><time>2026-04-17T14:45:30.24Z</time></trkpt><trkpt lat="43.0226483" lon="13.4074867"><ele>504.0</ele><time>2026-04-17T14:45:31.24Z</time></trkpt><trkpt lat="43.0227267" lon="13.407425"><ele>506.0</ele><time>2026-04-17T14:45:32.24Z</time></trkpt><trkpt lat="43.0227883" lon="13.4073683"><ele>508.0</ele><time>2026-04-17T14:45:33.24Z</time></trkpt><trkpt lat="43.0228483" lon="13.4073017"><ele>510.0</ele><time>2026-04-17T14:45:34.24Z</time></trkpt><trkpt lat="43.0229083" lon="13.4072283"><ele>512.0</ele><time>2026-04-17T14:45:35.24Z</time></trkpt><trkpt lat="43.022955" lon="13.4071667"><ele>514.0</ele><time>2026-04-17T14:45:36.24Z</time></trkpt><trkpt lat="43.0230233" lon="13.4070883"><ele>516.0</ele><time>2026-04-17T14:45:38.24Z</time></trkpt><trkpt lat="43.023085" lon="13.4071467"><ele>518.8</ele><time>2026-04-17T14:45:41.24Z</time></trkpt><trkpt lat="43.0230383" lon="13.4072933"><ele>521.6</ele><time>2026-04-17T14:45:43.24Z</time></trkpt><trkpt lat="43.0229833" lon="13.407405"><ele>524.4</ele><time>2026-04-17T14:45:44.24Z</time></trkpt><trkpt lat="43.02292" lon="13.4075233"><ele>527.2</ele><time>2026-04-17T14:45:45.24Z</time></trkpt><trkpt lat="43.0228583" lon="13.4076383"><ele>530.0</ele><time>2026-04-17T14:45:46.24Z</time></trkpt><trkpt lat="43.022815" lon="13.40775"><ele>530.0</ele><time>2026-04-17T14:45:47.24Z</time></trkpt><trkpt lat="43.022795" lon="13.4078883"><ele>530.0</ele><time>2026-04-17T14:45:48.24Z</time></trkpt><trkpt lat="43.0228083" lon="13.40804"><ele>530.0</ele><time>2026-04-17T14:45:49.24Z</time></trkpt><trkpt lat="43.0228583" lon="13.4081967"><ele>530.0</ele><time>2026-04-17T14:45:50.24Z</time></trkpt><trkpt lat="43.0229367" lon="13.4083533"><ele>530.0</ele><time>2026-04-17T14:45:51.24Z</time></trkpt><trkpt lat="43.02301" lon="13.4084883"><ele>530.0</ele><time>2026-04-17T14:45:52.24Z</time></trkpt><trkpt lat="43.0231017" lon="13.40862"><ele>530.0</ele><time>2026-04-17T14:45:53.24Z</time></trkpt><trkpt lat="43.023185" lon="13.408725"><ele>530.0</ele><time>2026-04-17T14:45:54.24Z</time></trkpt><trkpt lat="43.023275" lon="13.4088117"><ele>530.5</ele><time>2026-04-17T14:45:55.24Z</time></trkpt><trkpt lat="43.0233683" lon="13.4088733"><ele>531.0</ele><time>2026-04-17T14:45:56.24Z</time></trkpt><trkpt lat="43.02348" lon="13.408895"><ele>531.5</ele><time>2026-04-17T14:45:57.24Z</time></trkpt><trkpt lat="43.0236017" lon="13.4089"><ele>532.0</ele><time>2026-04-17T14:45:58.24Z</time></trkpt><trkpt lat="43.0237217" lon="13.40886"><ele>535.0</ele><time>2026-04-17T14:45:59.24Z</time></trkpt><trkpt lat="43.0238317" lon="13.4088217"><ele>538.0</ele><time>2026-04-17T14:46:00.24Z</time></trkpt><trkpt lat="43.02395" lon="13.4087517"><ele>541.0</ele><time>2026-04-17T14:46:01.24Z</time></trkpt><trkpt lat="43.02407" lon="13.4086583"><ele>544.0</ele><time>2026-04-17T14:46:02.24Z</time></trkpt><trkpt lat="43.0241967" lon="13.4085517"><ele>544.75</ele><time>2026-04-17T14:46:03.24Z</time></trkpt><trkpt lat="43.0243217" lon="13.4084483"><ele>545.5</ele><time>2026-04-17T14:46:04.24Z</time></trkpt><trkpt lat="43.0244483" lon="13.4083683"><ele>546.25</ele><time>2026-04-17T14:46:05.24Z</time></trkpt><trkpt lat="43.0245817" lon="13.40833"><ele>547.0</ele><time>2026-04-17T14:46:06.24Z</time></trkpt><trkpt lat="43.024715" lon="13.4083433"><ele>547.0</ele><time>2026-04-17T14:46:07.24Z</time></trkpt><trkpt lat="43.024845" lon="13.4084067"><ele>547.0</ele><time>2026-04-17T14:46:08.24Z</time></trkpt><trkpt lat="43.024965" lon="13.4085183"><ele>547.0</ele><time>2026-04-17T14:46:09.24Z</time></trkpt><trkpt lat="43.025075" lon="13.4086283"><ele>547.0</ele><time>2026-04-17T14:46:10.24Z</time></trkpt><trkpt lat="43.0251933" lon="13.408705"><ele>547.25</ele><time>2026-04-17T14:46:11.24Z</time></trkpt><trkpt lat="43.0253267" lon="13.4087283"><ele>547.5</ele><time>2026-04-17T14:46:12.24Z</time></trkpt><trkpt lat="43.02546" lon="13.4087283"><ele>547.75</ele><time>2026-04-17T14:46:13.24Z</time></trkpt><trkpt lat="43.0255883" lon="13.40871"><ele>548.0</ele><time>2026-04-17T14:46:14.24Z</time></trkpt><trkpt lat="43.02571" lon="13.4087033"><ele>548.0</ele><time>2026-04-17T14:46:15.24Z</time></trkpt><trkpt lat="43.025835" lon="13.4087267"><ele>548.0</ele><time>2026-04-17T14:46:16.24Z</time></trkpt><trkpt lat="43.02596" lon="13.408775"><ele>548.0</ele><time>2026-04-17T14:46:17.24Z</time></trkpt><trkpt lat="43.0260767" lon="13.4088417"><ele>548.0</ele><time>2026-04-17T14:46:18.24Z</time></trkpt><trkpt lat="43.0261833" lon="13.408925"><ele>545.75</ele><time>2026-04-17T14:46:19.24Z</time></trkpt><trkpt lat="43.026265" lon="13.4090167"><ele>543.5</ele><time>2026-04-17T14:46:20.24Z</time></trkpt><trkpt lat="43.0263483" lon="13.409135"><ele>541.25</ele><time>2026-04-17T14:46:21.24Z</time></trkpt><trkpt lat="43.0264317" lon="13.4092767"><ele>539.0</ele><time>2026-04-17T14:46:22.24Z</time></trkpt><trkpt lat="43.02652" lon="13.4094233"><ele>539.0</ele><time>2026-04-17T14:46:23.24Z</time></trkpt><trkpt lat="43.026605" lon="13.4095783"><ele>539.0</ele><time>2026-04-17T14:46:24.24Z</time></trkpt><trkpt lat="43.0266717" lon="13.4097183"><ele>539.0</ele><time>2026-04-17T14:46:25.24Z</time></trkpt><trkpt lat="43.0267333" lon="13.4098567"><ele>539.0</ele><time>2026-04-17T14:46:26.24Z</time></trkpt><trkpt lat="43.0267783" lon="13.4099883"><ele>538.2</ele><time>2026-04-17T14:46:27.24Z</time></trkpt><trkpt lat="43.0267983" lon="13.41013"><ele>537.4</ele><time>2026-04-17T14:46:28.24Z</time></trkpt><trkpt lat="43.0267967" lon="13.4102733"><ele>536.6</ele><time>2026-04-17T14:46:29.24Z</time></trkpt><trkpt lat="43.0267767" lon="13.410425"><ele>535.8</ele><time>2026-04-17T14:46:30.24Z</time></trkpt><trkpt lat="43.02673" lon="13.4105667"><ele>535.0</ele><time>2026-04-17T14:46:31.24Z</time></trkpt><trkpt lat="43.0266783" lon="13.4107267"><ele>530.5</ele><time>2026-04-17T14:46:32.24Z</time></trkpt><trkpt lat="43.026635" lon="13.4108933"><ele>526.0</ele><time>2026-04-17T14:46:33.24Z</time></trkpt><trkpt lat="43.0265883" lon="13.4110517"><ele>521.5</ele><time>2026-04-17T14:46:34.24Z</time></trkpt><trkpt lat="43.0265683" lon="13.4112183"><ele>517.0</ele><time>2026-04-17T14:46:35.24Z</time></trkpt><trkpt lat="43.0265717" lon="13.4113883"><ele>515.75</ele><time>2026-04-17T14:46:36.24Z</time></trkpt><trkpt lat="43.026605" lon="13.4115567"><ele>514.5</ele><time>2026-04-17T14:46:37.24Z</time></trkpt><trkpt lat="43.026655" lon="13.4117017"><ele>513.25</ele><time>2026-04-17T14:46:38.24Z</time></trkpt><trkpt lat="43.0267233" lon="13.41184"><ele>512.0</ele><time>2026-04-17T14:46:39.24Z</time></trkpt><trkpt lat="43.02678" lon="13.41196"><ele>513.3333333333333</ele><time>2026-04-17T14:46:40.24Z</time></trkpt><trkpt lat="43.0268333" lon="13.4120733"><ele>514.6666666666666</ele><time>2026-04-17T14:46:41.24Z</time></trkpt><trkpt lat="43.0268867" lon="13.4121667"><ele>516.0</ele><time>2026-04-17T14:46:42.24Z</time></trkpt><trkpt lat="43.0269383" lon="13.4122433"><ele>517.3333333333334</ele><time>2026-04-17T14:46:43.24Z</time></trkpt><trkpt lat="43.026985" lon="13.412305"><ele>518.6666666666667</ele><time>2026-04-17T14:46:44.24Z</time></trkpt><trkpt lat="43.0270683" lon="13.41237"><ele>520.0</ele><time>2026-04-17T14:46:46.239Z</time></trkpt><trkpt lat="43.0271717" lon="13.412405"><ele>520.0000000000001</ele><time>2026-04-17T14:46:48.24Z</time></trkpt><trkpt lat="43.027225" lon="13.412455"><ele>520.0</ele><time>2026-04-17T14:46:49.24Z</time></trkpt><trkpt lat="43.0272817" lon="13.4125233"><ele>520.0</ele><time>2026-04-17T14:46:50.24Z</time></trkpt><trkpt lat="43.0273383" lon="13.4125883"><ele>520.0</ele><time>2026-04-17T14:46:51.24Z</time></trkpt><trkpt lat="43.02739" lon="13.4126467"><ele>520.0</ele><time>2026-04-17T14:46:52.24Z</time></trkpt><trkpt lat="43.0274583" lon="13.41271"><ele>520.0000000000001</ele><time>2026-04-17T14:46:53.24Z</time></trkpt><trkpt lat="43.027525" lon="13.41277"><ele>520.0</ele><time>2026-04-17T14:46:54.24Z</time></trkpt><trkpt lat="43.027605" lon="13.412835"><ele>521.1666666666667</ele><time>2026-04-17T14:46:55.24Z</time></trkpt><trkpt lat="43.027685" lon="13.4129"><ele>522.3333333333334</ele><time>2026-04-17T14:46:56.24Z</time></trkpt><trkpt lat="43.0277617" lon="13.4129683"><ele>523.5</ele><time>2026-04-17T14:46:57.24Z</time></trkpt><trkpt lat="43.0278283" lon="13.413025"><ele>524.6666666666666</ele><time>2026-04-17T14:46:58.24Z</time></trkpt><trkpt lat="43.027885" lon="13.4130967"><ele>525.8333333333333</ele><time>2026-04-17T14:46:59.24Z</time></trkpt><trkpt lat="43.0279317" lon="13.4131817"><ele>527.0</ele><time>2026-04-17T14:47:00.24Z</time></trkpt><trkpt lat="43.0279617" lon="13.4132883"><ele>527.4</ele><time>2026-04-17T14:47:01.24Z</time></trkpt><trkpt lat="43.0279783" lon="13.4134083"><ele>527.8000000000001</ele><time>2026-04-17T14:47:02.24Z</time></trkpt><trkpt lat="43.027995" lon="13.413545"><ele>528.2</ele><time>2026-04-17T14:47:03.24Z</time></trkpt><trkpt lat="43.028005" lon="13.413715"><ele>528.6</ele><time>2026-04-17T14:47:04.24Z</time></trkpt><trkpt lat="43.02802" lon="13.413885"><ele>529.0</ele><time>2026-04-17T14:47:05.24Z</time></trkpt><trkpt lat="43.0280467" lon="13.4140417"><ele>529.0</ele><time>2026-04-17T14:47:06.24Z</time></trkpt><trkpt lat="43.0280717" lon="13.4141683"><ele>529.0</ele><time>2026-04-17T14:47:07.24Z</time></trkpt><trkpt lat="43.0280983" lon="13.4142717"><ele>529.0</ele><time>2026-04-17T14:47:08.24Z</time></trkpt><trkpt lat="43.0281167" lon="13.4143733"><ele>529.0</ele><time>2026-04-17T14:47:09.24Z</time></trkpt><trkpt lat="43.02813" lon="13.414465"><ele>529.0</ele><time>2026-04-17T14:47:10.24Z</time></trkpt><trkpt lat="43.028135" lon="13.4145633"><ele>529.0</ele><time>2026-04-17T14:47:11.24Z</time></trkpt><trkpt lat="43.028125" lon="13.41474"><ele>529.3333333333334</ele><time>2026-04-17T14:47:13.24Z</time></trkpt><trkpt lat="43.028085" lon="13.4149017"><ele>529.6666666666667</ele><time>2026-04-17T14:47:15.24Z</time></trkpt><trkpt lat="43.0280533" lon="13.414985"><ele>530.0</ele><time>2026-04-17T14:47:16.24Z</time></trkpt><trkpt lat="43.028025" lon="13.415065"><ele>530.3333333333334</ele><time>2026-04-17T14:47:17.24Z</time></trkpt><trkpt lat="43.028" lon="13.4151517"><ele>530.6666666666666</ele><time>2026-04-17T14:47:18.24Z</time></trkpt><trkpt lat="43.02798" lon="13.4152467"><ele>531.0</ele><time>2026-04-17T14:47:19.24Z</time></trkpt><trkpt lat="43.0279667" lon="13.4153417"><ele>531.0</ele><time>2026-04-17T14:47:20.24Z</time></trkpt><trkpt lat="43.027955" lon="13.4154283"><ele>531.0</ele><time>2026-04-17T14:47:21.24Z</time></trkpt><trkpt lat="43.0279283" lon="13.415575"><ele>531.0</ele><time>2026-04-17T14:47:23.24Z</time></trkpt><trkpt lat="43.0279317" lon="13.4157017"><ele>531.0</ele><time>2026-04-17T14:47:25.24Z</time></trkpt><trkpt lat="43.027965" lon="13.4158317"><ele>531.0</ele><time>2026-04-17T14:47:27.24Z</time></trkpt><trkpt lat="43.027985" lon="13.415925"><ele>531.0</ele><time>2026-04-17T14:47:29.24Z</time></trkpt><trkpt lat="43.028005" lon="13.4160567"><ele>530.2</ele><time>2026-04-17T14:47:32.24Z</time></trkpt><trkpt lat="43.02802" lon="13.4161883"><ele>529.4000000000001</ele><time>2026-04-17T14:47:34.24Z</time></trkpt><trkpt lat="43.0280533" lon="13.4163667"><ele>528.6</ele><time>2026-04-17T14:47:36.24Z</time></trkpt><trkpt lat="43.028095" lon="13.4164483"><ele>527.8000000000001</ele><time>2026-04-17T14:47:37.24Z</time></trkpt><trkpt lat="43.0281383" lon="13.4165117"><ele>527.0</ele><time>2026-04-17T14:47:38.24Z</time></trkpt><trkpt lat="43.0282117" lon="13.4166383"><ele>527.1666666666666</ele><time>2026-04-17T14:47:40.24Z</time></trkpt><trkpt lat="43.028265" lon="13.4167967"><ele>527.3333333333333</ele><time>2026-04-17T14:47:42.24Z</time></trkpt><trkpt lat="43.0282967" lon="13.416885"><ele>527.5</ele><time>2026-04-17T14:47:43.24Z</time></trkpt><trkpt lat="43.0283283" lon="13.4169783"><ele>527.6666666666666</ele><time>2026-04-17T14:47:44.24Z</time></trkpt><trkpt lat="43.0283567" lon="13.4170767"><ele>527.8333333333334</ele><time>2026-04-17T14:47:45.24Z</time></trkpt><trkpt lat="43.0283817" lon="13.4171733"><ele>528.0</ele><time>2026-04-17T14:47:46.24Z</time></trkpt><trkpt lat="43.02841" lon="13.41728"><ele>527.1999999999999</ele><time>2026-04-17T14:47:47.24Z</time></trkpt><trkpt lat="43.02844" lon="13.4173733"><ele>526.4</ele><time>2026-04-17T14:47:48.24Z</time></trkpt><trkpt lat="43.02847" lon="13.41746"><ele>525.5999999999999</ele><time>2026-04-17T14:47:49.24Z</time></trkpt><trkpt lat="43.0285383" lon="13.41762"><ele>524.8</ele><time>2026-04-17T14:47:51.24Z</time></trkpt><trkpt lat="43.028605" lon="13.4177633"><ele>524.0</ele><time>2026-04-17T14:47:53.24Z</time></trkpt><trkpt lat="43.028675" lon="13.4178933"><ele>523.3333333333333</ele><time>2026-04-17T14:47:55.24Z</time></trkpt><trkpt lat="43.0287517" lon="13.4180183"><ele>522.6666666666666</ele><time>2026-04-17T14:47:57.24Z</time></trkpt><trkpt lat="43.0287917" lon="13.41809"><ele>522.0</ele><time>2026-04-17T14:47:58.24Z</time></trkpt><trkpt lat="43.0288367" lon="13.4181717"><ele>521.3333333333334</ele><time>2026-04-17T14:47:59.24Z</time></trkpt><trkpt lat="43.02888" lon="13.418255"><ele>520.6666666666667</ele><time>2026-04-17T14:48:00.24Z</time></trkpt><trkpt lat="43.0289283" lon="13.4183333"><ele>520.0</ele><time>2026-04-17T14:48:01.24Z</time></trkpt><trkpt lat="43.02899" lon="13.4184067"><ele>520.0</ele><time>2026-04-17T14:48:02.24Z</time></trkpt><trkpt lat="43.0290517" lon="13.4184817"><ele>520.0</ele><time>2026-04-17T14:48:03.24Z</time></trkpt><trkpt lat="43.0291133" lon="13.418555"><ele>520.0</ele><time>2026-04-17T14:48:04.24Z</time></trkpt><trkpt lat="43.0291683" lon="13.418635"><ele>520.0</ele><time>2026-04-17T14:48:05.24Z</time></trkpt><trkpt lat="43.0292333" lon="13.4187367"><ele>520.0</ele><time>2026-04-17T14:48:06.24Z</time></trkpt><trkpt lat="43.0292967" lon="13.4188633"><ele>518.25</ele><time>2026-04-17T14:48:07.24Z</time></trkpt><trkpt lat="43.02937" lon="13.4189983"><ele>516.5</ele><time>2026-04-17T14:48:08.24Z</time></trkpt><trkpt lat="43.02945" lon="13.4191417"><ele>514.75</ele><time>2026-04-17T14:48:09.24Z</time></trkpt><trkpt lat="43.0295333" lon="13.41928"><ele>513.0</ele><time>2026-04-17T14:48:10.24Z</time></trkpt><trkpt lat="43.0296133" lon="13.419415"><ele>513.0</ele><time>2026-04-17T14:48:11.24Z</time></trkpt><trkpt lat="43.0296917" lon="13.419545"><ele>513.0</ele><time>2026-04-17T14:48:12.24Z</time></trkpt><trkpt lat="43.0297617" lon="13.4196733"><ele>513.0</ele><time>2026-04-17T14:48:13.24Z</time></trkpt><trkpt lat="43.0298433" lon="13.4198083"><ele>513.0</ele><time>2026-04-17T14:48:14.24Z</time></trkpt><trkpt lat="43.029925" lon="13.4199467"><ele>510.75</ele><time>2026-04-17T14:48:15.24Z</time></trkpt><trkpt lat="43.0300083" lon="13.42009"><ele>508.5</ele><time>2026-04-17T14:48:16.24Z</time></trkpt><trkpt lat="43.0300767" lon="13.4202383"><ele>506.25</ele><time>2026-04-17T14:48:17.24Z</time></trkpt><trkpt lat="43.0301483" lon="13.42039"><ele>504.0</ele><time>2026-04-17T14:48:18.24Z</time></trkpt><trkpt lat="43.0302217" lon="13.42055"><ele>502.5</ele><time>2026-04-17T14:48:19.24Z</time></trkpt><trkpt lat="43.0302883" lon="13.4206983"><ele>501.0</ele><time>2026-04-17T14:48:20.24Z</time></trkpt><trkpt lat="43.030345" lon="13.4208367"><ele>499.5</ele><time>2026-04-17T14:48:21.24Z</time></trkpt><trkpt lat="43.0303983" lon="13.420975"><ele>498.0</ele><time>2026-04-17T14:48:22.24Z</time></trkpt><trkpt lat="43.03044" lon="13.4211183"><ele>498.0</ele><time>2026-04-17T14:48:23.24Z</time></trkpt><trkpt lat="43.030465" lon="13.4212767"><ele>498.0</ele><time>2026-04-17T14:48:24.24Z</time></trkpt><trkpt lat="43.0304733" lon="13.4214433"><ele>498.0</ele><time>2026-04-17T14:48:25.24Z</time></trkpt><trkpt lat="43.030475" lon="13.4216"><ele>498.0</ele><time>2026-04-17T14:48:26.24Z</time></trkpt><trkpt lat="43.0304767" lon="13.4217667"><ele>496.25</ele><time>2026-04-17T14:48:27.24Z</time></trkpt><trkpt lat="43.0304833" lon="13.421935"><ele>494.5</ele><time>2026-04-17T14:48:28.24Z</time></trkpt><trkpt lat="43.03049" lon="13.4220917"><ele>492.75</ele><time>2026-04-17T14:48:29.24Z</time></trkpt><trkpt lat="43.0304967" lon="13.422255"><ele>491.0</ele><time>2026-04-17T14:48:30.24Z</time></trkpt><trkpt lat="43.0305033" lon="13.422425"><ele>488.4</ele><time>2026-04-17T14:48:31.24Z</time></trkpt><trkpt lat="43.0305217" lon="13.422585"><ele>485.8</ele><time>2026-04-17T14:48:32.24Z</time></trkpt><trkpt lat="43.0305333" lon="13.4227333"><ele>483.19999999999993</ele><time>2026-04-17T14:48:33.24Z</time></trkpt><trkpt lat="43.0305433" lon="13.42287"><ele>480.59999999999997</ele><time>2026-04-17T14:48:34.24Z</time></trkpt><trkpt lat="43.0305533" lon="13.4229883"><ele>478.0</ele><time>2026-04-17T14:48:35.24Z</time></trkpt><trkpt lat="43.030565" lon="13.4231033"><ele>477.00000000000006</ele><time>2026-04-17T14:48:36.24Z</time></trkpt><trkpt lat="43.0305783" lon="13.42321"><ele>476.0</ele><time>2026-04-17T14:48:37.24Z</time></trkpt><trkpt lat="43.03059" lon="13.4232983"><ele>475.0</ele><time>2026-04-17T14:48:38.24Z</time></trkpt><trkpt lat="43.03061" lon="13.423455"><ele>474.0</ele><time>2026-04-17T14:48:40.24Z</time></trkpt><trkpt lat="43.0306333" lon="13.4235833"><ele>473.00000000000006</ele><time>2026-04-17T14:48:42.24Z</time></trkpt><trkpt lat="43.030645" lon="13.423675"><ele>472.0</ele><time>2026-04-17T14:48:44.24Z</time></trkpt><trkpt lat="43.0307117" lon="13.4237033"><ele>472.0</ele><time>2026-04-17T14:48:49.24Z</time></trkpt><trkpt lat="43.0307517" lon="13.423605"><ele>472.00000000000006</ele><time>2026-04-17T14:48:51.24Z</time></trkpt><trkpt lat="43.030815" lon="13.4234417"><ele>472.00000000000006</ele><time>2026-04-17T14:48:53.24Z</time></trkpt><trkpt lat="43.030855" lon="13.4233433"><ele>472.0</ele><time>2026-04-17T14:48:54.24Z</time></trkpt><trkpt lat="43.0309083" lon="13.4232433"><ele>472.0</ele><time>2026-04-17T14:48:55.24Z</time></trkpt><trkpt lat="43.030975" lon="13.4231317"><ele>472.5</ele><time>2026-04-17T14:48:56.24Z</time></trkpt><trkpt lat="43.031035" lon="13.42301"><ele>473.0</ele><time>2026-04-17T14:48:57.24Z</time></trkpt><trkpt lat="43.0311017" lon="13.4228867"><ele>473.5</ele><time>2026-04-17T14:48:58.24Z</time></trkpt><trkpt lat="43.0311717" lon="13.422755"><ele>474.0</ele><time>2026-04-17T14:48:59.24Z</time></trkpt><trkpt lat="43.0312467" lon="13.4226333"><ele>474.75</ele><time>2026-04-17T14:49:00.24Z</time></trkpt><trkpt lat="43.0313283" lon="13.4225067"><ele>475.5</ele><time>2026-04-17T14:49:01.24Z</time></trkpt><trkpt lat="43.03141" lon="13.4223733"><ele>476.25</ele><time>2026-04-17T14:49:02.24Z</time></trkpt><trkpt lat="43.031475" lon="13.422255"><ele>477.0</ele><time>2026-04-17T14:49:03.24Z</time></trkpt><trkpt lat="43.031545" lon="13.4221433"><ele>475.40000000000003</ele><time>2026-04-17T14:49:04.24Z</time></trkpt><trkpt lat="43.031615" lon="13.42202"><ele>473.80000000000007</ele><time>2026-04-17T14:49:05.24Z</time></trkpt><trkpt lat="43.03169" lon="13.421915"><ele>472.2</ele><time>2026-04-17T14:49:06.24Z</time></trkpt><trkpt lat="43.031765" lon="13.4218133"><ele>470.6</ele><time>2026-04-17T14:49:07.24Z</time></trkpt><trkpt lat="43.031835" lon="13.4217"><ele>469.0</ele><time>2026-04-17T14:49:08.24Z</time></trkpt><trkpt lat="43.03189" lon="13.4215817"><ele>469.0</ele><time>2026-04-17T14:49:09.24Z</time></trkpt><trkpt lat="43.0319517" lon="13.4214533"><ele>469.0</ele><time>2026-04-17T14:49:10.24Z</time></trkpt><trkpt lat="43.0320067" lon="13.421335"><ele>469.0</ele><time>2026-04-17T14:49:11.24Z</time></trkpt><trkpt lat="43.032055" lon="13.4212083"><ele>469.0</ele><time>2026-04-17T14:49:12.24Z</time></trkpt><trkpt lat="43.032095" lon="13.42107"><ele>469.0</ele><time>2026-04-17T14:49:13.24Z</time></trkpt><trkpt lat="43.0321383" lon="13.4209333"><ele>470.5</ele><time>2026-04-17T14:49:14.24Z</time></trkpt><trkpt lat="43.0321817" lon="13.4207833"><ele>472.0</ele><time>2026-04-17T14:49:15.24Z</time></trkpt><trkpt lat="43.0322217" lon="13.4206383"><ele>473.5</ele><time>2026-04-17T14:49:16.24Z</time></trkpt><trkpt lat="43.032265" lon="13.4204867"><ele>475.0</ele><time>2026-04-17T14:49:17.24Z</time></trkpt><trkpt lat="43.0323" lon="13.4203417"><ele>475.00000000000006</ele><time>2026-04-17T14:49:18.24Z</time></trkpt><trkpt lat="43.0323317" lon="13.4202233"><ele>475.0</ele><time>2026-04-17T14:49:19.24Z</time></trkpt><trkpt lat="43.0323517" lon="13.42014"><ele>475.0</ele><time>2026-04-17T14:49:20.24Z</time></trkpt><trkpt lat="43.0323633" lon="13.420045"><ele>475.0</ele><time>2026-04-17T14:49:22.24Z</time></trkpt><trkpt lat="43.03235" lon="13.4199483"><ele>475.00000000000006</ele><time>2026-04-17T14:49:24.24Z</time></trkpt><trkpt lat="43.03232" lon="13.419835"><ele>475.0</ele><time>2026-04-17T14:49:26.24Z</time></trkpt><trkpt lat="43.0323083" lon="13.4197167"><ele>475.00000000000006</ele><time>2026-04-17T14:49:28.24Z</time></trkpt><trkpt lat="43.0323317" lon="13.4196283"><ele>475.0</ele><time>2026-04-17T14:49:30.24Z</time></trkpt><trkpt lat="43.0323" lon="13.4197117"><ele>475.0</ele><time>2026-04-17T14:51:18.24Z</time></trkpt><trkpt lat="43.0322933" lon="13.419805"><ele>475.0</ele><time>2026-04-17T14:51:20.24Z</time></trkpt><trkpt lat="43.0323233" lon="13.4199183"><ele>475.00000000000006</ele><time>2026-04-17T14:51:22.24Z</time></trkpt><trkpt lat="43.0323717" lon="13.4200167"><ele>475.0</ele><time>2026-04-17T14:51:24.24Z</time></trkpt><trkpt lat="43.0323433" lon="13.4201517"><ele>475.00000000000006</ele><time>2026-04-17T14:53:41.24Z</time></trkpt><trkpt lat="43.0323183" lon="13.4202433"><ele>475.0</ele><time>2026-04-17T14:53:42.24Z</time></trkpt><trkpt lat="43.032295" lon="13.420345"><ele>475.0</ele><time>2026-04-17T14:53:43.24Z</time></trkpt><trkpt lat="43.0322617" lon="13.4204583"><ele>475.0</ele><time>2026-04-17T14:53:44.24Z</time></trkpt><trkpt lat="43.0322267" lon="13.4205867"><ele>475.00000000000006</ele><time>2026-04-17T14:53:45.24Z</time></trkpt><trkpt lat="43.0321867" lon="13.4207167"><ele>475.0</ele><time>2026-04-17T14:53:46.24Z</time></trkpt><trkpt lat="43.0321417" lon="13.4208567"><ele>475.0</ele><time>2026-04-17T14:53:47.24Z</time></trkpt><trkpt lat="43.0320817" lon="13.421025"><ele>475.0</ele><time>2026-04-17T14:53:48.24Z</time></trkpt><trkpt lat="43.03203" lon="13.4211767"><ele>475.0</ele><time>2026-04-17T14:53:49.24Z</time></trkpt><trkpt lat="43.031985" lon="13.421305"><ele>475.0</ele><time>2026-04-17T14:53:50.24Z</time></trkpt><trkpt lat="43.0319383" lon="13.421435"><ele>473.8</ele><time>2026-04-17T14:53:51.24Z</time></trkpt><trkpt lat="43.0318817" lon="13.421555"><ele>472.6</ele><time>2026-04-17T14:53:52.24Z</time></trkpt><trkpt lat="43.0318367" lon="13.4216483"><ele>471.4</ele><time>2026-04-17T14:53:53.24Z</time></trkpt><trkpt lat="43.03178" lon="13.4217783"><ele>470.2</ele><time>2026-04-17T14:53:55.239Z</time></trkpt><trkpt lat="43.03172" lon="13.42189"><ele>469.0</ele><time>2026-04-17T14:53:57.239Z</time></trkpt><trkpt lat="43.0316283" lon="13.421995"><ele>470.33333333333337</ele><time>2026-04-17T14:53:59.239Z</time></trkpt><trkpt lat="43.0315817" lon="13.4220717"><ele>471.6666666666667</ele><time>2026-04-17T14:54:00.239Z</time></trkpt><trkpt lat="43.0315233" lon="13.4221683"><ele>473.0</ele><time>2026-04-17T14:54:01.239Z</time></trkpt><trkpt lat="43.0314733" lon="13.4222667"><ele>474.33333333333337</ele><time>2026-04-17T14:54:02.239Z</time></trkpt><trkpt lat="43.0314267" lon="13.4223633"><ele>475.6666666666667</ele><time>2026-04-17T14:54:03.239Z</time></trkpt><trkpt lat="43.03137" lon="13.42246"><ele>477.0</ele><time>2026-04-17T14:54:04.239Z</time></trkpt><trkpt lat="43.0313067" lon="13.4225467"><ele>477.0</ele><time>2026-04-17T14:54:05.239Z</time></trkpt><trkpt lat="43.0312483" lon="13.4226383"><ele>477.0</ele><time>2026-04-17T14:54:06.239Z</time></trkpt><trkpt lat="43.0311917" lon="13.42272"><ele>477.0</ele><time>2026-04-17T14:54:07.239Z</time></trkpt><trkpt lat="43.0311417" lon="13.4228067"><ele>477.0</ele><time>2026-04-17T14:54:08.239Z</time></trkpt><trkpt lat="43.0310867" lon="13.4229033"><ele>477.0</ele><time>2026-04-17T14:54:09.239Z</time></trkpt><trkpt lat="43.0310267" lon="13.4230083"><ele>477.0</ele><time>2026-04-17T14:54:10.239Z</time></trkpt><trkpt lat="43.0309717" lon="13.42312"><ele>476.5</ele><time>2026-04-17T14:54:11.239Z</time></trkpt><trkpt lat="43.0309167" lon="13.4232317"><ele>476.0</ele><time>2026-04-17T14:54:12.239Z</time></trkpt><trkpt lat="43.0308683" lon="13.42333"><ele>475.5</ele><time>2026-04-17T14:54:13.239Z</time></trkpt><trkpt lat="43.0308133" lon="13.4234267"><ele>475.0</ele><time>2026-04-17T14:54:14.239Z</time></trkpt><trkpt lat="43.03077" lon="13.4235217"><ele>474.5</ele><time>2026-04-17T14:54:15.239Z</time></trkpt><trkpt lat="43.0307317" lon="13.423615"><ele>474.0</ele><time>2026-04-17T14:54:16.239Z</time></trkpt><trkpt lat="43.0307017" lon="13.4237033"><ele>473.6666666666667</ele><time>2026-04-17T14:54:17.239Z</time></trkpt><trkpt lat="43.0306717" lon="13.423785"><ele>473.33333333333337</ele><time>2026-04-17T14:54:18.239Z</time></trkpt><trkpt lat="43.03065" lon="13.4238817"><ele>473.0</ele><time>2026-04-17T14:54:19.239Z</time></trkpt><trkpt lat="43.0306333" lon="13.4239917"><ele>472.6666666666667</ele><time>2026-04-17T14:54:20.239Z</time></trkpt><trkpt lat="43.0306267" lon="13.4240867"><ele>472.33333333333337</ele><time>2026-04-17T14:54:21.239Z</time></trkpt><trkpt lat="43.0306033" lon="13.4242433"><ele>472.0</ele><time>2026-04-17T14:54:23.239Z</time></trkpt><trkpt lat="43.03057" lon="13.4243233"><ele>470.00000000000006</ele><time>2026-04-17T14:54:25.239Z</time></trkpt><trkpt lat="43.0305233" lon="13.42424"><ele>468.0</ele><time>2026-04-17T14:54:53.239Z</time></trkpt><trkpt lat="43.0305517" lon="13.4243283"><ele>466.0</ele><time>2026-04-17T14:56:06.239Z</time></trkpt><trkpt lat="43.0305667" lon="13.4244417"><ele>464.0</ele><time>2026-04-17T14:59:17.239Z</time></trkpt><trkpt lat="43.0305367" lon="13.424535"><ele>462.00000000000006</ele><time>2026-04-17T14:59:19.239Z</time></trkpt><trkpt lat="43.030505" lon="13.424635"><ele>460.0</ele><time>2026-04-17T14:59:21.239Z</time></trkpt><trkpt lat="43.0304817" lon="13.4247733"><ele>459.2</ele><time>2026-04-17T14:59:23.239Z</time></trkpt><trkpt lat="43.030445" lon="13.4249483"><ele>458.4</ele><time>2026-04-17T14:59:25.239Z</time></trkpt><trkpt lat="43.0304217" lon="13.42506"><ele>457.6</ele><time>2026-04-17T14:59:26.239Z</time></trkpt><trkpt lat="43.030395" lon="13.425185"><ele>456.8</ele><time>2026-04-17T14:59:27.239Z</time></trkpt><trkpt lat="43.0303667" lon="13.425315"><ele>456.0</ele><time>2026-04-17T14:59:28.239Z</time></trkpt><trkpt lat="43.0303383" lon="13.4254617"><ele>457.5</ele><time>2026-04-17T14:59:29.239Z</time></trkpt><trkpt lat="43.0303083" lon="13.42562"><ele>459.0</ele><time>2026-04-17T14:59:30.239Z</time></trkpt><trkpt lat="43.0302733" lon="13.425775"><ele>460.5</ele><time>2026-04-17T14:59:31.239Z</time></trkpt><trkpt lat="43.0302283" lon="13.42593"><ele>462.0</ele><time>2026-04-17T14:59:32.239Z</time></trkpt><trkpt lat="43.0301733" lon="13.426075"><ele>462.0</ele><time>2026-04-17T14:59:33.239Z</time></trkpt><trkpt lat="43.0301083" lon="13.4262233"><ele>462.0</ele><time>2026-04-17T14:59:34.239Z</time></trkpt><trkpt lat="43.0300567" lon="13.4263817"><ele>462.0</ele><time>2026-04-17T14:59:35.239Z</time></trkpt><trkpt lat="43.0300233" lon="13.4265367"><ele>462.0</ele><time>2026-04-17T14:59:36.239Z</time></trkpt><trkpt lat="43.0300183" lon="13.4266833"><ele>464.0</ele><time>2026-04-17T14:59:37.239Z</time></trkpt><trkpt lat="43.03005" lon="13.4268183"><ele>466.0</ele><time>2026-04-17T14:59:38.239Z</time></trkpt><trkpt lat="43.0301217" lon="13.4269317"><ele>468.0</ele><time>2026-04-17T14:59:39.239Z</time></trkpt><trkpt lat="43.030215" lon="13.4270317"><ele>470.0</ele><time>2026-04-17T14:59:40.239Z</time></trkpt><trkpt lat="43.0303167" lon="13.427125"><ele>468.75</ele><time>2026-04-17T14:59:41.239Z</time></trkpt><trkpt lat="43.0304183" lon="13.4272167"><ele>467.5</ele><time>2026-04-17T14:59:42.239Z</time></trkpt><trkpt lat="43.0305017" lon="13.427325"><ele>466.25</ele><time>2026-04-17T14:59:43.238Z</time></trkpt><trkpt lat="43.0305683" lon="13.4274567"><ele>465.0</ele><time>2026-04-17T14:59:44.238Z</time></trkpt><trkpt lat="43.030625" lon="13.4275933"><ele>465.0</ele><time>2026-04-17T14:59:45.238Z</time></trkpt><trkpt lat="43.03066" lon="13.427755"><ele>465.0</ele><time>2026-04-17T14:59:46.237Z</time></trkpt><trkpt lat="43.0306833" lon="13.4279333"><ele>465.0</ele><time>2026-04-17T14:59:47.238Z</time></trkpt><trkpt lat="43.030695" lon="13.4281217"><ele>465.0</ele><time>2026-04-17T14:59:48.237Z</time></trkpt><trkpt lat="43.0306933" lon="13.4283017"><ele>465.0</ele><time>2026-04-17T14:59:49.238Z</time></trkpt><trkpt lat="43.0306717" lon="13.4284667"><ele>465.0</ele><time>2026-04-17T14:59:50.238Z</time></trkpt><trkpt lat="43.030645" lon="13.428625"><ele>465.0</ele><time>2026-04-17T14:59:51.238Z</time></trkpt><trkpt lat="43.0306217" lon="13.4287867"><ele>465.0</ele><time>2026-04-17T14:59:52.238Z</time></trkpt><trkpt lat="43.0306233" lon="13.4289433"><ele>465.0</ele><time>2026-04-17T14:59:53.238Z</time></trkpt><trkpt lat="43.0306433" lon="13.4290933"><ele>465.0</ele><time>2026-04-17T14:59:54.238Z</time></trkpt><trkpt lat="43.0306983" lon="13.429235"><ele>465.0</ele><time>2026-04-17T14:59:55.238Z</time></trkpt><trkpt lat="43.0307833" lon="13.4293517"><ele>465.0</ele><time>2026-04-17T14:59:56.238Z</time></trkpt><trkpt lat="43.03089" lon="13.4294333"><ele>466.5</ele><time>2026-04-17T14:59:57.238Z</time></trkpt><trkpt lat="43.0310067" lon="13.4295"><ele>468.0</ele><time>2026-04-17T14:59:58.238Z</time></trkpt><trkpt lat="43.0311367" lon="13.4295567"><ele>469.5</ele><time>2026-04-17T14:59:59.238Z</time></trkpt><trkpt lat="43.0312683" lon="13.4296183"><ele>471.0</ele><time>2026-04-17T15:00:00.238Z</time></trkpt><trkpt lat="43.0313933" lon="13.4296767"><ele>471.0</ele><time>2026-04-17T15:00:01.238Z</time></trkpt><trkpt lat="43.0315083" lon="13.4297283"><ele>471.0</ele><time>2026-04-17T15:00:02.238Z</time></trkpt><trkpt lat="43.0316217" lon="13.4297767"><ele>471.0</ele><time>2026-04-17T15:00:03.238Z</time></trkpt><trkpt lat="43.0317267" lon="13.4298233"><ele>471.0</ele><time>2026-04-17T15:00:04.238Z</time></trkpt><trkpt lat="43.0318233" lon="13.4298983"><ele>473.75</ele><time>2026-04-17T15:00:05.238Z</time></trkpt><trkpt lat="43.031925" lon="13.43"><ele>476.5</ele><time>2026-04-17T15:00:06.238Z</time></trkpt><trkpt lat="43.0320017" lon="13.43012"><ele>479.25</ele><time>2026-04-17T15:00:07.238Z</time></trkpt><trkpt lat="43.032065" lon="13.4302617"><ele>482.0</ele><time>2026-04-17T15:00:08.238Z</time></trkpt><trkpt lat="43.032115" lon="13.4304183"><ele>481.8</ele><time>2026-04-17T15:00:09.238Z</time></trkpt><trkpt lat="43.0321567" lon="13.430575"><ele>481.6</ele><time>2026-04-17T15:00:10.238Z</time></trkpt><trkpt lat="43.032185" lon="13.4307183"><ele>481.40000000000003</ele><time>2026-04-17T15:00:11.238Z</time></trkpt><trkpt lat="43.03221" lon="13.4308517"><ele>481.20000000000005</ele><time>2026-04-17T15:00:12.238Z</time></trkpt><trkpt lat="43.0322233" lon="13.4309933"><ele>481.0</ele><time>2026-04-17T15:00:13.238Z</time></trkpt><trkpt lat="43.0322267" lon="13.43116"><ele>482.20000000000005</ele><time>2026-04-17T15:00:14.238Z</time></trkpt><trkpt lat="43.0322333" lon="13.4313167"><ele>483.40000000000003</ele><time>2026-04-17T15:00:15.238Z</time></trkpt><trkpt lat="43.032235" lon="13.4314717"><ele>484.6</ele><time>2026-04-17T15:00:16.238Z</time></trkpt><trkpt lat="43.0322283" lon="13.4316083"><ele>485.8</ele><time>2026-04-17T15:00:17.238Z</time></trkpt><trkpt lat="43.03222" lon="13.4317533"><ele>487.0</ele><time>2026-04-17T15:00:18.238Z</time></trkpt><trkpt lat="43.032205" lon="13.431905"><ele>487.0</ele><time>2026-04-17T15:00:19.238Z</time></trkpt><trkpt lat="43.0321717" lon="13.4320467"><ele>487.0</ele><time>2026-04-17T15:00:20.238Z</time></trkpt><trkpt lat="43.0321233" lon="13.43218"><ele>487.0</ele><time>2026-04-17T15:00:21.238Z</time></trkpt><trkpt lat="43.03204" lon="13.432305"><ele>487.0</ele><time>2026-04-17T15:00:22.238Z</time></trkpt><trkpt lat="43.0319517" lon="13.4324233"><ele>485.75</ele><time>2026-04-17T15:00:23.238Z</time></trkpt><trkpt lat="43.0318567" lon="13.4325433"><ele>484.5</ele><time>2026-04-17T15:00:24.238Z</time></trkpt><trkpt lat="43.0317617" lon="13.4326867"><ele>483.25</ele><time>2026-04-17T15:00:25.238Z</time></trkpt><trkpt lat="43.03166" lon="13.4328133"><ele>482.0</ele><time>2026-04-17T15:00:26.238Z</time></trkpt><trkpt lat="43.0315783" lon="13.4329467"><ele>483.20000000000005</ele><time>2026-04-17T15:00:27.238Z</time></trkpt><trkpt lat="43.031525" lon="13.433095"><ele>484.40000000000003</ele><time>2026-04-17T15:00:28.238Z</time></trkpt><trkpt lat="43.031505" lon="13.433235"><ele>485.59999999999997</ele><time>2026-04-17T15:00:29.238Z</time></trkpt><trkpt lat="43.0315117" lon="13.4333667"><ele>486.79999999999995</ele><time>2026-04-17T15:00:30.238Z</time></trkpt><trkpt lat="43.03156" lon="13.433495"><ele>488.0</ele><time>2026-04-17T15:00:31.238Z</time></trkpt><trkpt lat="43.0316333" lon="13.4336133"><ele>491.5</ele><time>2026-04-17T15:00:32.238Z</time></trkpt><trkpt lat="43.03173" lon="13.4337067"><ele>495.0</ele><time>2026-04-17T15:00:33.238Z</time></trkpt><trkpt lat="43.0318383" lon="13.4337783"><ele>498.5</ele><time>2026-04-17T15:00:34.238Z</time></trkpt><trkpt lat="43.0319617" lon="13.4338217"><ele>502.0</ele><time>2026-04-17T15:00:35.238Z</time></trkpt><trkpt lat="43.0320933" lon="13.4338467"><ele>502.0</ele><time>2026-04-17T15:00:36.238Z</time></trkpt><trkpt lat="43.0322033" lon="13.43387"><ele>502.00000000000006</ele><time>2026-04-17T15:00:37.238Z</time></trkpt><trkpt lat="43.0323067" lon="13.4339133"><ele>502.00000000000006</ele><time>2026-04-17T15:00:38.238Z</time></trkpt><trkpt lat="43.0323967" lon="13.4339883"><ele>502.0</ele><time>2026-04-17T15:00:39.238Z</time></trkpt><trkpt lat="43.03247" lon="13.4340867"><ele>502.0</ele><time>2026-04-17T15:00:40.238Z</time></trkpt><trkpt lat="43.0325267" lon="13.4342083"><ele>504.8</ele><time>2026-04-17T15:00:41.238Z</time></trkpt><trkpt lat="43.0325817" lon="13.4343367"><ele>507.6</ele><time>2026-04-17T15:00:42.238Z</time></trkpt><trkpt lat="43.03263" lon="13.4344867"><ele>510.40000000000003</ele><time>2026-04-17T15:00:43.238Z</time></trkpt><trkpt lat="43.03266" lon="13.4346133"><ele>513.2</ele><time>2026-04-17T15:00:44.238Z</time></trkpt><trkpt lat="43.032655" lon="13.4347317"><ele>516.0</ele><time>2026-04-17T15:00:45.238Z</time></trkpt><trkpt lat="43.0326133" lon="13.43484"><ele>515.25</ele><time>2026-04-17T15:00:46.238Z</time></trkpt><trkpt lat="43.0325417" lon="13.434945"><ele>514.5</ele><time>2026-04-17T15:00:47.238Z</time></trkpt><trkpt lat="43.0324467" lon="13.4350433"><ele>513.75</ele><time>2026-04-17T15:00:48.238Z</time></trkpt><trkpt lat="43.0323267" lon="13.4351467"><ele>513.0</ele><time>2026-04-17T15:00:49.238Z</time></trkpt><trkpt lat="43.0322" lon="13.435255"><ele>513.0</ele><time>2026-04-17T15:00:50.238Z</time></trkpt><trkpt lat="43.0320867" lon="13.435375"><ele>513.0</ele><time>2026-04-17T15:00:51.238Z</time></trkpt><trkpt lat="43.0319833" lon="13.4354817"><ele>513.0</ele><time>2026-04-17T15:00:52.238Z</time></trkpt><trkpt lat="43.0319017" lon="13.4355867"><ele>513.0</ele><time>2026-04-17T15:00:53.238Z</time></trkpt><trkpt lat="43.03183" lon="13.435705"><ele>512.0</ele><time>2026-04-17T15:00:54.238Z</time></trkpt><trkpt lat="43.0317617" lon="13.4358367"><ele>511.0</ele><time>2026-04-17T15:00:55.238Z</time></trkpt><trkpt lat="43.0317067" lon="13.4359833"><ele>510.0</ele><time>2026-04-17T15:00:56.238Z</time></trkpt><trkpt lat="43.0316583" lon="13.436155"><ele>509.0</ele><time>2026-04-17T15:00:57.238Z</time></trkpt><trkpt lat="43.0316167" lon="13.43633"><ele>509.0</ele><time>2026-04-17T15:00:58.238Z</time></trkpt><trkpt lat="43.0315683" lon="13.4365033"><ele>509.0</ele><time>2026-04-17T15:00:59.238Z</time></trkpt><trkpt lat="43.031515" lon="13.4366633"><ele>509.0</ele><time>2026-04-17T15:01:00.238Z</time></trkpt><trkpt lat="43.03146" lon="13.4368417"><ele>509.0</ele><time>2026-04-17T15:01:01.238Z</time></trkpt><trkpt lat="43.0313917" lon="13.4370067"><ele>512.0</ele><time>2026-04-17T15:01:02.238Z</time></trkpt><trkpt lat="43.031325" lon="13.4371583"><ele>515.0</ele><time>2026-04-17T15:01:03.238Z</time></trkpt><trkpt lat="43.03126" lon="13.437285"><ele>518.0</ele><time>2026-04-17T15:01:04.238Z</time></trkpt><trkpt lat="43.0311817" lon="13.437415"><ele>521.0</ele><time>2026-04-17T15:01:05.237Z</time></trkpt><trkpt lat="43.031115" lon="13.437545"><ele>521.0</ele><time>2026-04-17T15:01:06.238Z</time></trkpt><trkpt lat="43.0310667" lon="13.4376517"><ele>521.0</ele><time>2026-04-17T15:01:07.238Z</time></trkpt><trkpt lat="43.0310483" lon="13.4377633"><ele>521.0</ele><time>2026-04-17T15:01:08.238Z</time></trkpt><trkpt lat="43.0310533" lon="13.4378867"><ele>521.0</ele><time>2026-04-17T15:01:09.238Z</time></trkpt><trkpt lat="43.0310733" lon="13.43801"><ele>521.0</ele><time>2026-04-17T15:01:10.238Z</time></trkpt><trkpt lat="43.0310833" lon="13.438145"><ele>523.8</ele><time>2026-04-17T15:01:11.238Z</time></trkpt><trkpt lat="43.0310683" lon="13.4382617"><ele>526.6</ele><time>2026-04-17T15:01:12.238Z</time></trkpt><trkpt lat="43.0310333" lon="13.4383783"><ele>529.4</ele><time>2026-04-17T15:01:13.238Z</time></trkpt><trkpt lat="43.0309667" lon="13.43849"><ele>532.2</ele><time>2026-04-17T15:01:14.238Z</time></trkpt><trkpt lat="43.0308967" lon="13.4386083"><ele>535.0</ele><time>2026-04-17T15:01:15.238Z</time></trkpt><trkpt lat="43.0308333" lon="13.4387033"><ele>526.6</ele><time>2026-04-17T15:01:16.238Z</time></trkpt><trkpt lat="43.0307883" lon="13.438785"><ele>518.2</ele><time>2026-04-17T15:01:17.238Z</time></trkpt><trkpt lat="43.0307467" lon="13.43894"><ele>509.79999999999995</ele><time>2026-04-17T15:01:19.238Z</time></trkpt><trkpt lat="43.0307267" lon="13.43903"><ele>501.4</ele><time>2026-04-17T15:01:21.238Z</time></trkpt><trkpt lat="43.030715" lon="13.4391533"><ele>493.0</ele><time>2026-04-17T15:01:24.238Z</time></trkpt><trkpt lat="43.0307083" lon="13.4393033"><ele>493.0</ele><time>2026-04-17T15:01:26.238Z</time></trkpt><trkpt lat="43.030745" lon="13.4394517"><ele>492.99999999999994</ele><time>2026-04-17T15:01:28.238Z</time></trkpt><trkpt lat="43.0308317" lon="13.4395933"><ele>492.99999999999994</ele><time>2026-04-17T15:01:30.238Z</time></trkpt><trkpt lat="43.0308883" lon="13.43965"><ele>493.0</ele><time>2026-04-17T15:01:31.238Z</time></trkpt><trkpt lat="43.03095" lon="13.4397033"><ele>493.0</ele><time>2026-04-17T15:01:32.238Z</time></trkpt><trkpt lat="43.0310067" lon="13.4397467"><ele>501.71428571428567</ele><time>2026-04-17T15:01:33.238Z</time></trkpt><trkpt lat="43.0310667" lon="13.4397883"><ele>510.42857142857144</ele><time>2026-04-17T15:01:34.238Z</time></trkpt><trkpt lat="43.0311233" lon="13.4398333"><ele>519.1428571428571</ele><time>2026-04-17T15:01:35.238Z</time></trkpt><trkpt lat="43.0311867" lon="13.4398833"><ele>527.8571428571429</ele><time>2026-04-17T15:01:36.238Z</time></trkpt><trkpt lat="43.0312517" lon="13.4399333"><ele>536.5714285714286</ele><time>2026-04-17T15:01:37.238Z</time></trkpt><trkpt lat="43.03131" lon="13.4399783"><ele>545.2857142857142</ele><time>2026-04-17T15:01:38.238Z</time></trkpt><trkpt lat="43.0313817" lon="13.4400233"><ele>554.0</ele><time>2026-04-17T15:01:39.238Z</time></trkpt><trkpt lat="43.031445" lon="13.4400617"><ele>554.0</ele><time>2026-04-17T15:01:40.238Z</time></trkpt><trkpt lat="43.0315083" lon="13.4400467"><ele>554.0</ele><time>2026-04-17T15:01:41.238Z</time></trkpt><trkpt lat="43.0315617" lon="13.43995"><ele>554.0</ele><time>2026-04-17T15:01:42.238Z</time></trkpt><trkpt lat="43.0316417" lon="13.4398683"><ele>554.0</ele><time>2026-04-17T15:01:44.238Z</time></trkpt><trkpt lat="43.03172" lon="13.4397733"><ele>554.0</ele><time>2026-04-17T15:01:46.238Z</time></trkpt><trkpt lat="43.031785" lon="13.4396767"><ele>558.3333333333333</ele><time>2026-04-17T15:01:48.238Z</time></trkpt><trkpt lat="43.03185" lon="13.439535"><ele>562.6666666666666</ele><time>2026-04-17T15:01:50.238Z</time></trkpt><trkpt lat="43.0318883" lon="13.4394583"><ele>567.0</ele><time>2026-04-17T15:01:51.238Z</time></trkpt><trkpt lat="43.0319267" lon="13.4393883"><ele>571.3333333333334</ele><time>2026-04-17T15:01:52.238Z</time></trkpt><trkpt lat="43.031995" lon="13.439305"><ele>575.6666666666667</ele><time>2026-04-17T15:01:54.238Z</time></trkpt><trkpt lat="43.03207" lon="13.4393533"><ele>580.0</ele><time>2026-04-17T15:02:09.238Z</time></trkpt><trkpt lat="43.0321017" lon="13.4394533"><ele>580.0</ele><time>2026-04-17T15:02:11.238Z</time></trkpt><trkpt lat="43.0320967" lon="13.4396"><ele>580.0</ele><time>2026-04-17T15:02:13.238Z</time></trkpt><trkpt lat="43.0320883" lon="13.43969"><ele>580.0</ele><time>2026-04-17T15:02:14.238Z</time></trkpt><trkpt lat="43.032085" lon="13.4397917"><ele>580.0</ele><time>2026-04-17T15:02:15.238Z</time></trkpt><trkpt lat="43.0321" lon="13.4399317"><ele>580.0</ele><time>2026-04-17T15:02:16.238Z</time></trkpt><trkpt lat="43.0321183" lon="13.4400817"><ele>578.2</ele><time>2026-04-17T15:02:17.238Z</time></trkpt><trkpt lat="43.03214" lon="13.4402283"><ele>576.4</ele><time>2026-04-17T15:02:18.238Z</time></trkpt><trkpt lat="43.0321517" lon="13.4403717"><ele>574.6</ele><time>2026-04-17T15:02:19.238Z</time></trkpt><trkpt lat="43.0321367" lon="13.4405133"><ele>572.8</ele><time>2026-04-17T15:02:20.238Z</time></trkpt><trkpt lat="43.0320933" lon="13.4406467"><ele>571.0</ele><time>2026-04-17T15:02:21.238Z</time></trkpt><trkpt lat="43.0320217" lon="13.4407617"><ele>567.0</ele><time>2026-04-17T15:02:22.238Z</time></trkpt><trkpt lat="43.0319317" lon="13.4408617"><ele>563.0</ele><time>2026-04-17T15:02:23.238Z</time></trkpt><trkpt lat="43.0318267" lon="13.4409283"><ele>559.0</ele><time>2026-04-17T15:02:24.238Z</time></trkpt><trkpt lat="43.0317117" lon="13.440955"><ele>555.0</ele><time>2026-04-17T15:02:25.238Z</time></trkpt><trkpt lat="43.0316067" lon="13.44095"><ele>550.8</ele><time>2026-04-17T15:02:26.238Z</time></trkpt><trkpt lat="43.0315033" lon="13.4408933"><ele>546.6</ele><time>2026-04-17T15:02:27.238Z</time></trkpt><trkpt lat="43.0314083" lon="13.440815"><ele>542.4</ele><time>2026-04-17T15:02:28.238Z</time></trkpt><trkpt lat="43.0313217" lon="13.4407517"><ele>538.2</ele><time>2026-04-17T15:02:29.238Z</time></trkpt><trkpt lat="43.0312533" lon="13.4407217"><ele>534.0</ele><time>2026-04-17T15:02:30.238Z</time></trkpt><trkpt lat="43.0311567" lon="13.44077"><ele>534.0</ele><time>2026-04-17T15:02:32.238Z</time></trkpt><trkpt lat="43.0311417" lon="13.440935"><ele>534.0</ele><time>2026-04-17T15:02:34.238Z</time></trkpt><trkpt lat="43.0311883" lon="13.4410183"><ele>534.0</ele><time>2026-04-17T15:02:35.238Z</time></trkpt><trkpt lat="43.0312667" lon="13.4411083"><ele>534.0</ele><time>2026-04-17T15:02:36.238Z</time></trkpt><trkpt lat="43.031365" lon="13.4412233"><ele>534.0</ele><time>2026-04-17T15:02:37.237Z</time></trkpt><trkpt lat="43.0314617" lon="13.44137"><ele>534.25</ele><time>2026-04-17T15:02:38.238Z</time></trkpt><trkpt lat="43.03157" lon="13.4415183"><ele>534.5</ele><time>2026-04-17T15:02:39.238Z</time></trkpt><trkpt lat="43.03168" lon="13.4416383"><ele>534.75</ele><time>2026-04-17T15:02:40.238Z</time></trkpt><trkpt lat="43.0318017" lon="13.4417367"><ele>535.0</ele><time>2026-04-17T15:02:41.238Z</time></trkpt><trkpt lat="43.0319267" lon="13.4418017"><ele>535.0</ele><time>2026-04-17T15:02:42.238Z</time></trkpt><trkpt lat="43.0320567" lon="13.4418583"><ele>535.0</ele><time>2026-04-17T15:02:43.238Z</time></trkpt><trkpt lat="43.032185" lon="13.4418967"><ele>535.0</ele><time>2026-04-17T15:02:44.238Z</time></trkpt><trkpt lat="43.0323183" lon="13.44193"><ele>535.0</ele><time>2026-04-17T15:02:45.238Z</time></trkpt><trkpt lat="43.0324533" lon="13.4419667"><ele>535.0</ele><time>2026-04-17T15:02:46.238Z</time></trkpt><trkpt lat="43.032585" lon="13.4419967"><ele>535.0</ele><time>2026-04-17T15:02:47.238Z</time></trkpt><trkpt lat="43.0327183" lon="13.4420283"><ele>535.0</ele><time>2026-04-17T15:02:48.238Z</time></trkpt><trkpt lat="43.03285" lon="13.44205"><ele>535.0</ele><time>2026-04-17T15:02:49.238Z</time></trkpt><trkpt lat="43.0329683" lon="13.4420867"><ele>535.0</ele><time>2026-04-17T15:02:50.238Z</time></trkpt><trkpt lat="43.0331" lon="13.4421183"><ele>535.0</ele><time>2026-04-17T15:02:51.238Z</time></trkpt><trkpt lat="43.0332283" lon="13.4421533"><ele>535.0</ele><time>2026-04-17T15:02:52.238Z</time></trkpt><trkpt lat="43.0333583" lon="13.44219"><ele>535.0</ele><time>2026-04-17T15:02:53.238Z</time></trkpt><trkpt lat="43.03349" lon="13.4422233"><ele>530.0</ele><time>2026-04-17T15:02:54.238Z</time></trkpt><trkpt lat="43.0336233" lon="13.4422533"><ele>525.0</ele><time>2026-04-17T15:02:55.238Z</time></trkpt><trkpt lat="43.0337617" lon="13.44227"><ele>520.0</ele><time>2026-04-17T15:02:56.238Z</time></trkpt><trkpt lat="43.033895" lon="13.4422783"><ele>515.0</ele><time>2026-04-17T15:02:57.238Z</time></trkpt><trkpt lat="43.0340267" lon="13.4422717"><ele>515.25</ele><time>2026-04-17T15:02:58.238Z</time></trkpt><trkpt lat="43.0341583" lon="13.4422183"><ele>515.5</ele><time>2026-04-17T15:02:59.238Z</time></trkpt><trkpt lat="43.0342717" lon="13.4421317"><ele>515.75</ele><time>2026-04-17T15:03:00.238Z</time></trkpt><trkpt lat="43.0343717" lon="13.4420083"><ele>516.0</ele><time>2026-04-17T15:03:01.238Z</time></trkpt><trkpt lat="43.0344667" lon="13.4418617"><ele>516.0</ele><time>2026-04-17T15:03:02.238Z</time></trkpt><trkpt lat="43.03456" lon="13.441705"><ele>516.0</ele><time>2026-04-17T15:03:03.238Z</time></trkpt><trkpt lat="43.0346567" lon="13.4415517"><ele>516.0</ele><time>2026-04-17T15:03:04.238Z</time></trkpt><trkpt lat="43.034755" lon="13.4414183"><ele>516.0</ele><time>2026-04-17T15:03:05.238Z</time></trkpt><trkpt lat="43.0348567" lon="13.441325"><ele>515.4</ele><time>2026-04-17T15:03:06.238Z</time></trkpt><trkpt lat="43.03497" lon="13.44127"><ele>514.8</ele><time>2026-04-17T15:03:07.238Z</time></trkpt><trkpt lat="43.0350883" lon="13.4412467"><ele>514.1999999999999</ele><time>2026-04-17T15:03:08.238Z</time></trkpt><trkpt lat="43.0351967" lon="13.441255"><ele>513.6</ele><time>2026-04-17T15:03:09.238Z</time></trkpt><trkpt lat="43.0352917" lon="13.4413"><ele>513.0</ele><time>2026-04-17T15:03:10.238Z</time></trkpt><trkpt lat="43.0353767" lon="13.4413983"><ele>509.5</ele><time>2026-04-17T15:03:11.238Z</time></trkpt><trkpt lat="43.0354283" lon="13.4415333"><ele>506.0</ele><time>2026-04-17T15:03:12.238Z</time></trkpt><trkpt lat="43.0354417" lon="13.4416817"><ele>502.5</ele><time>2026-04-17T15:03:13.237Z</time></trkpt><trkpt lat="43.0354317" lon="13.44184"><ele>499.0</ele><time>2026-04-17T15:03:14.238Z</time></trkpt><trkpt lat="43.0353867" lon="13.4419917"><ele>497.5</ele><time>2026-04-17T15:03:15.238Z</time></trkpt><trkpt lat="43.0353133" lon="13.4421517"><ele>496.0</ele><time>2026-04-17T15:03:16.238Z</time></trkpt><trkpt lat="43.035215" lon="13.4422933"><ele>494.5</ele><time>2026-04-17T15:03:17.238Z</time></trkpt><trkpt lat="43.0351083" lon="13.44241"><ele>493.0</ele><time>2026-04-17T15:03:18.238Z</time></trkpt><trkpt lat="43.035005" lon="13.442525"><ele>492.0</ele><time>2026-04-17T15:03:19.238Z</time></trkpt><trkpt lat="43.03491" lon="13.442655"><ele>491.0</ele><time>2026-04-17T15:03:20.238Z</time></trkpt><trkpt lat="43.03482" lon="13.4427883"><ele>490.0</ele><time>2026-04-17T15:03:21.238Z</time></trkpt><trkpt lat="43.0347317" lon="13.4429"><ele>489.0</ele><time>2026-04-17T15:03:22.238Z</time></trkpt><trkpt lat="43.03464" lon="13.4430167"><ele>489.0</ele><time>2026-04-17T15:03:23.238Z</time></trkpt><trkpt lat="43.03455" lon="13.4431483"><ele>489.0</ele><time>2026-04-17T15:03:24.238Z</time></trkpt><trkpt lat="43.034455" lon="13.4432933"><ele>489.0</ele><time>2026-04-17T15:03:25.238Z</time></trkpt><trkpt lat="43.0343633" lon="13.4434233"><ele>489.0</ele><time>2026-04-17T15:03:26.238Z</time></trkpt><trkpt lat="43.0342717" lon="13.4435483"><ele>489.0</ele><time>2026-04-17T15:03:27.238Z</time></trkpt><trkpt lat="43.0341817" lon="13.4436817"><ele>489.0</ele><time>2026-04-17T15:03:28.238Z</time></trkpt><trkpt lat="43.0341" lon="13.4438317"><ele>489.0</ele><time>2026-04-17T15:03:29.238Z</time></trkpt><trkpt lat="43.0340217" lon="13.4439917"><ele>489.0</ele><time>2026-04-17T15:03:30.238Z</time></trkpt><trkpt lat="43.0339817" lon="13.4441717"><ele>489.33333333333337</ele><time>2026-04-17T15:03:31.238Z</time></trkpt><trkpt lat="43.03397" lon="13.44436"><ele>489.6666666666667</ele><time>2026-04-17T15:03:32.238Z</time></trkpt><trkpt lat="43.03399" lon="13.4445783"><ele>490.0</ele><time>2026-04-17T15:03:33.238Z</time></trkpt><trkpt lat="43.034015" lon="13.4447983"><ele>488.0</ele><time>2026-04-17T15:03:34.238Z</time></trkpt><trkpt lat="43.0340517" lon="13.4449983"><ele>486.0</ele><time>2026-04-17T15:03:35.238Z</time></trkpt><trkpt lat="43.034115" lon="13.44518"><ele>484.0</ele><time>2026-04-17T15:03:36.238Z</time></trkpt><trkpt lat="43.0342067" lon="13.44534"><ele>482.0</ele><time>2026-04-17T15:03:37.238Z</time></trkpt><trkpt lat="43.0342833" lon="13.4455017"><ele>478.0</ele><time>2026-04-17T15:03:38.238Z</time></trkpt><trkpt lat="43.0343417" lon="13.4456683"><ele>474.0</ele><time>2026-04-17T15:03:39.238Z</time></trkpt><trkpt lat="43.03437" lon="13.44584"><ele>470.0</ele><time>2026-04-17T15:03:40.238Z</time></trkpt><trkpt lat="43.03435" lon="13.4460217"><ele>466.0</ele><time>2026-04-17T15:03:41.238Z</time></trkpt><trkpt lat="43.034305" lon="13.446185"><ele>464.75</ele><time>2026-04-17T15:03:42.238Z</time></trkpt><trkpt lat="43.0342417" lon="13.44633"><ele>463.5</ele><time>2026-04-17T15:03:43.238Z</time></trkpt><trkpt lat="43.0341567" lon="13.4464483"><ele>462.25</ele><time>2026-04-17T15:03:44.238Z</time></trkpt><trkpt lat="43.0340383" lon="13.44654"><ele>461.0</ele><time>2026-04-17T15:03:45.238Z</time></trkpt><trkpt lat="43.03391" lon="13.4466367"><ele>461.0</ele><time>2026-04-17T15:03:46.238Z</time></trkpt><trkpt lat="43.0337883" lon="13.4467367"><ele>461.0</ele><time>2026-04-17T15:03:47.238Z</time></trkpt><trkpt lat="43.0336717" lon="13.44685"><ele>461.0</ele><time>2026-04-17T15:03:48.238Z</time></trkpt><trkpt lat="43.03355" lon="13.4469583"><ele>461.0</ele><time>2026-04-17T15:03:49.238Z</time></trkpt><trkpt lat="43.0334267" lon="13.4470533"><ele>460.25</ele><time>2026-04-17T15:03:50.238Z</time></trkpt><trkpt lat="43.0333133" lon="13.4471517"><ele>459.5</ele><time>2026-04-17T15:03:51.238Z</time></trkpt><trkpt lat="43.033205" lon="13.4472483"><ele>458.75</ele><time>2026-04-17T15:03:52.238Z</time></trkpt><trkpt lat="43.0331" lon="13.4473433"><ele>458.0</ele><time>2026-04-17T15:03:53.238Z</time></trkpt><trkpt lat="43.03299" lon="13.4474383"><ele>458.0</ele><time>2026-04-17T15:03:54.238Z</time></trkpt><trkpt lat="43.0328917" lon="13.4475133"><ele>457.99999999999994</ele><time>2026-04-17T15:03:55.238Z</time></trkpt><trkpt lat="43.0328033" lon="13.447585"><ele>457.99999999999994</ele><time>2026-04-17T15:03:56.238Z</time></trkpt><trkpt lat="43.03272" lon="13.4476517"><ele>458.0</ele><time>2026-04-17T15:03:57.238Z</time></trkpt><trkpt lat="43.0326417" lon="13.447725"><ele>458.0</ele><time>2026-04-17T15:03:58.238Z</time></trkpt><trkpt lat="43.032585" lon="13.4478"><ele>457.99999999999994</ele><time>2026-04-17T15:03:59.238Z</time></trkpt><trkpt lat="43.0325417" lon="13.4478883"><ele>458.0</ele><time>2026-04-17T15:04:00.238Z</time></trkpt><trkpt lat="43.0325317" lon="13.4479833"><ele>458.0</ele><time>2026-04-17T15:04:01.238Z</time></trkpt><trkpt lat="43.0325517" lon="13.4480717"><ele>458.0</ele><time>2026-04-17T15:04:02.238Z</time></trkpt><trkpt lat="43.03261" lon="13.4481467"><ele>457.99999999999994</ele><time>2026-04-17T15:04:03.238Z</time></trkpt><trkpt lat="43.0327017" lon="13.4481783"><ele>458.0</ele><time>2026-04-17T15:04:04.238Z</time></trkpt><trkpt lat="43.032825" lon="13.4481683"><ele>454.5</ele><time>2026-04-17T15:04:05.238Z</time></trkpt><trkpt lat="43.0329683" lon="13.4481533"><ele>451.0</ele><time>2026-04-17T15:04:06.238Z</time></trkpt><trkpt lat="43.0331" lon="13.4481667"><ele>447.5</ele><time>2026-04-17T15:04:07.238Z</time></trkpt><trkpt lat="43.03323" lon="13.4482133"><ele>444.0</ele><time>2026-04-17T15:04:08.238Z</time></trkpt><trkpt lat="43.033355" lon="13.4482633"><ele>443.0</ele><time>2026-04-17T15:04:09.238Z</time></trkpt><trkpt lat="43.033475" lon="13.4483317"><ele>442.0</ele><time>2026-04-17T15:04:10.238Z</time></trkpt><trkpt lat="43.0335933" lon="13.4484183"><ele>441.0</ele><time>2026-04-17T15:04:11.238Z</time></trkpt><trkpt lat="43.033705" lon="13.4485183"><ele>440.0</ele><time>2026-04-17T15:04:12.238Z</time></trkpt><trkpt lat="43.0338083" lon="13.4486167"><ele>440.0</ele><time>2026-04-17T15:04:13.238Z</time></trkpt><trkpt lat="43.0339117" lon="13.4486983"><ele>440.0</ele><time>2026-04-17T15:04:14.238Z</time></trkpt><trkpt lat="43.034" lon="13.4487717"><ele>440.0</ele><time>2026-04-17T15:04:15.238Z</time></trkpt><trkpt lat="43.0340733" lon="13.4488633"><ele>440.0</ele><time>2026-04-17T15:04:16.238Z</time></trkpt><trkpt lat="43.034135" lon="13.4489483"><ele>440.0</ele><time>2026-04-17T15:04:17.238Z</time></trkpt><trkpt lat="43.0341967" lon="13.449025"><ele>438.66666666666663</ele><time>2026-04-17T15:04:18.238Z</time></trkpt><trkpt lat="43.0342433" lon="13.44909"><ele>437.3333333333333</ele><time>2026-04-17T15:04:19.238Z</time></trkpt><trkpt lat="43.034275" lon="13.4492267"><ele>436.0</ele><time>2026-04-17T15:04:21.238Z</time></trkpt><trkpt lat="43.0342317" lon="13.4493667"><ele>434.66666666666663</ele><time>2026-04-17T15:04:23.238Z</time></trkpt><trkpt lat="43.0341733" lon="13.4494217"><ele>433.3333333333333</ele><time>2026-04-17T15:04:24.238Z</time></trkpt><trkpt lat="43.0340983" lon="13.44945"><ele>432.0</ele><time>2026-04-17T15:04:25.238Z</time></trkpt><trkpt lat="43.0340117" lon="13.4494733"><ele>431.3333333333333</ele><time>2026-04-17T15:04:26.238Z</time></trkpt><trkpt lat="43.033925" lon="13.4494767"><ele>430.66666666666663</ele><time>2026-04-17T15:04:27.238Z</time></trkpt><trkpt lat="43.0338433" lon="13.449455"><ele>430.0</ele><time>2026-04-17T15:04:28.238Z</time></trkpt><trkpt lat="43.03376" lon="13.4494133"><ele>429.3333333333333</ele><time>2026-04-17T15:04:29.238Z</time></trkpt><trkpt lat="43.033675" lon="13.449375"><ele>428.66666666666663</ele><time>2026-04-17T15:04:30.238Z</time></trkpt><trkpt lat="43.03359" lon="13.4493533"><ele>428.0</ele><time>2026-04-17T15:04:31.238Z</time></trkpt><trkpt lat="43.033515" lon="13.4493533"><ele>427.99999999999994</ele><time>2026-04-17T15:04:32.238Z</time></trkpt><trkpt lat="43.033445" lon="13.4493667"><ele>428.0</ele><time>2026-04-17T15:04:33.238Z</time></trkpt><trkpt lat="43.0333733" lon="13.4494033"><ele>428.0</ele><time>2026-04-17T15:04:34.238Z</time></trkpt><trkpt lat="43.0333" lon="13.4494433"><ele>428.0</ele><time>2026-04-17T15:04:35.238Z</time></trkpt><trkpt lat="43.0332267" lon="13.4494883"><ele>427.99999999999994</ele><time>2026-04-17T15:04:36.238Z</time></trkpt><trkpt lat="43.0331517" lon="13.4495283"><ele>428.0</ele><time>2026-04-17T15:04:37.238Z</time></trkpt><trkpt lat="43.0330833" lon="13.4495633"><ele>428.59999999999997</ele><time>2026-04-17T15:04:38.238Z</time></trkpt><trkpt lat="43.0330067" lon="13.4495967"><ele>429.19999999999993</ele><time>2026-04-17T15:04:39.238Z</time></trkpt><trkpt lat="43.0329317" lon="13.4496367"><ele>429.8</ele><time>2026-04-17T15:04:40.238Z</time></trkpt><trkpt lat="43.0328483" lon="13.4496783"><ele>430.4</ele><time>2026-04-17T15:04:41.238Z</time></trkpt><trkpt lat="43.03276" lon="13.4497233"><ele>431.0</ele><time>2026-04-17T15:04:42.238Z</time></trkpt><trkpt lat="43.0326583" lon="13.4497717"><ele>428.6</ele><time>2026-04-17T15:04:43.238Z</time></trkpt><trkpt lat="43.0325567" lon="13.4498317"><ele>426.20000000000005</ele><time>2026-04-17T15:04:44.238Z</time></trkpt><trkpt lat="43.0324533" lon="13.4498917"><ele>423.79999999999995</ele><time>2026-04-17T15:04:45.238Z</time></trkpt><trkpt lat="43.0323517" lon="13.4499533"><ele>421.4</ele><time>2026-04-17T15:04:46.238Z</time></trkpt><trkpt lat="43.0322517" lon="13.4500067"><ele>419.0</ele><time>2026-04-17T15:04:47.238Z</time></trkpt><trkpt lat="43.032145" lon="13.4500533"><ele>419.0</ele><time>2026-04-17T15:04:48.238Z</time></trkpt><trkpt lat="43.0320283" lon="13.450105"><ele>419.0</ele><time>2026-04-17T15:04:49.238Z</time></trkpt><trkpt lat="43.031895" lon="13.4501467"><ele>419.0</ele><time>2026-04-17T15:04:50.238Z</time></trkpt><trkpt lat="43.0317417" lon="13.450175"><ele>419.0</ele><time>2026-04-17T15:04:51.238Z</time></trkpt><trkpt lat="43.0315967" lon="13.4501983"><ele>418.5</ele><time>2026-04-17T15:04:52.238Z</time></trkpt><trkpt lat="43.0314667" lon="13.4502133"><ele>418.0</ele><time>2026-04-17T15:04:53.238Z</time></trkpt><trkpt lat="43.031325" lon="13.45025"><ele>417.5</ele><time>2026-04-17T15:04:54.238Z</time></trkpt><trkpt lat="43.0311933" lon="13.4503083"><ele>417.0</ele><time>2026-04-17T15:04:55.238Z</time></trkpt><trkpt lat="43.0310633" lon="13.450365"><ele>417.0</ele><time>2026-04-17T15:04:56.238Z</time></trkpt><trkpt lat="43.03093" lon="13.4504533"><ele>417.0</ele><time>2026-04-17T15:04:57.238Z</time></trkpt><trkpt lat="43.0307967" lon="13.450565"><ele>417.0</ele><time>2026-04-17T15:04:58.238Z</time></trkpt><trkpt lat="43.030665" lon="13.450665"><ele>413.5</ele><time>2026-04-17T15:04:59.238Z</time></trkpt><trkpt lat="43.03053" lon="13.4507533"><ele>410.0</ele><time>2026-04-17T15:05:00.238Z</time></trkpt><trkpt lat="43.030405" lon="13.4508317"><ele>406.5</ele><time>2026-04-17T15:05:01.238Z</time></trkpt><trkpt lat="43.0302683" lon="13.4508617"><ele>403.0</ele><time>2026-04-17T15:05:02.238Z</time></trkpt><trkpt lat="43.03013" lon="13.4508617"><ele>403.0</ele><time>2026-04-17T15:05:03.238Z</time></trkpt><trkpt lat="43.0299933" lon="13.450835"><ele>403.0</ele><time>2026-04-17T15:05:04.238Z</time></trkpt><trkpt lat="43.029855" lon="13.4508067"><ele>403.0</ele><time>2026-04-17T15:05:05.238Z</time></trkpt><trkpt lat="43.02972" lon="13.450775"><ele>403.0</ele><time>2026-04-17T15:05:06.238Z</time></trkpt><trkpt lat="43.0295883" lon="13.4507617"><ele>401.0</ele><time>2026-04-17T15:05:07.238Z</time></trkpt><trkpt lat="43.0294467" lon="13.4507533"><ele>399.0</ele><time>2026-04-17T15:05:08.238Z</time></trkpt><trkpt lat="43.0293117" lon="13.45075"><ele>397.0</ele><time>2026-04-17T15:05:09.238Z</time></trkpt><trkpt lat="43.0291783" lon="13.450755"><ele>395.0</ele><time>2026-04-17T15:05:10.238Z</time></trkpt><trkpt lat="43.0290517" lon="13.4507517"><ele>393.5</ele><time>2026-04-17T15:05:11.238Z</time></trkpt><trkpt lat="43.0289283" lon="13.4507567"><ele>392.0</ele><time>2026-04-17T15:05:12.238Z</time></trkpt><trkpt lat="43.0288017" lon="13.4507517"><ele>390.5</ele><time>2026-04-17T15:05:13.238Z</time></trkpt><trkpt lat="43.028695" lon="13.45075"><ele>389.0</ele><time>2026-04-17T15:05:14.237Z</time></trkpt><trkpt lat="43.0285967" lon="13.4507367"><ele>388.99999999999994</ele><time>2026-04-17T15:05:15.238Z</time></trkpt><trkpt lat="43.02851" lon="13.4507133"><ele>389.0</ele><time>2026-04-17T15:05:16.238Z</time></trkpt><trkpt lat="43.0284267" lon="13.4506833"><ele>389.0</ele><time>2026-04-17T15:05:17.238Z</time></trkpt><trkpt lat="43.0283517" lon="13.450625"><ele>389.0</ele><time>2026-04-17T15:05:18.238Z</time></trkpt><trkpt lat="43.02829" lon="13.4505417"><ele>388.99999999999994</ele><time>2026-04-17T15:05:19.238Z</time></trkpt><trkpt lat="43.0282317" lon="13.4504433"><ele>389.0</ele><time>2026-04-17T15:05:20.238Z</time></trkpt><trkpt lat="43.0281867" lon="13.450345"><ele>386.16666666666663</ele><time>2026-04-17T15:05:21.238Z</time></trkpt><trkpt lat="43.028145" lon="13.4502433"><ele>383.3333333333333</ele><time>2026-04-17T15:05:22.238Z</time></trkpt><trkpt lat="43.0280983" lon="13.4501517"><ele>380.5</ele><time>2026-04-17T15:05:23.238Z</time></trkpt><trkpt lat="43.0280433" lon="13.45007"><ele>377.66666666666663</ele><time>2026-04-17T15:05:24.238Z</time></trkpt><trkpt lat="43.0279783" lon="13.4499933"><ele>374.8333333333333</ele><time>2026-04-17T15:05:25.238Z</time></trkpt><trkpt lat="43.0279133" lon="13.4499133"><ele>372.0</ele><time>2026-04-17T15:05:26.238Z</time></trkpt><trkpt lat="43.0278517" lon="13.4498433"><ele>372.0</ele><time>2026-04-17T15:05:27.238Z</time></trkpt><trkpt lat="43.0277917" lon="13.44976"><ele>372.0</ele><time>2026-04-17T15:05:28.238Z</time></trkpt><trkpt lat="43.0277533" lon="13.44967"><ele>372.0</ele><time>2026-04-17T15:05:29.238Z</time></trkpt><trkpt lat="43.0277433" lon="13.4495817"><ele>372.0</ele><time>2026-04-17T15:05:30.238Z</time></trkpt><trkpt lat="43.0277333" lon="13.44942"><ele>372.0</ele><time>2026-04-17T15:05:32.238Z</time></trkpt><trkpt lat="43.027695" lon="13.4492917"><ele>372.0</ele><time>2026-04-17T15:05:34.238Z</time></trkpt><trkpt lat="43.0276383" lon="13.4492433"><ele>372.0</ele><time>2026-04-17T15:05:35.238Z</time></trkpt><trkpt lat="43.0275717" lon="13.4492367"><ele>372.0</ele><time>2026-04-17T15:05:36.238Z</time></trkpt><trkpt lat="43.02751" lon="13.4492733"><ele>372.0</ele><time>2026-04-17T15:05:37.238Z</time></trkpt><trkpt lat="43.02746" lon="13.44935"><ele>372.0</ele><time>2026-04-17T15:05:38.238Z</time></trkpt><trkpt lat="43.0274533" lon="13.4494667"><ele>372.0</ele><time>2026-04-17T15:05:39.238Z</time></trkpt><trkpt lat="43.0274833" lon="13.4495933"><ele>372.0</ele><time>2026-04-17T15:05:40.238Z</time></trkpt><trkpt lat="43.0275467" lon="13.4497117"><ele>372.0</ele><time>2026-04-17T15:05:41.238Z</time></trkpt><trkpt lat="43.0276283" lon="13.44984"><ele>372.0</ele><time>2026-04-17T15:05:42.237Z</time></trkpt><trkpt lat="43.0277167" lon="13.4499617"><ele>372.0</ele><time>2026-04-17T15:05:43.238Z</time></trkpt><trkpt lat="43.0277917" lon="13.450075"><ele>372.0</ele><time>2026-04-17T15:05:44.238Z</time></trkpt><trkpt lat="43.027855" lon="13.4501967"><ele>372.0</ele><time>2026-04-17T15:05:45.238Z</time></trkpt><trkpt lat="43.0279083" lon="13.450325"><ele>372.0</ele><time>2026-04-17T15:05:46.238Z</time></trkpt><trkpt lat="43.027935" lon="13.4504633"><ele>372.0</ele><time>2026-04-17T15:05:47.238Z</time></trkpt><trkpt lat="43.0279483" lon="13.4506083"><ele>372.0</ele><time>2026-04-17T15:05:48.238Z</time></trkpt><trkpt lat="43.0279233" lon="13.45077"><ele>372.0</ele><time>2026-04-17T15:05:49.238Z</time></trkpt><trkpt lat="43.0278917" lon="13.4509333"><ele>369.75</ele><time>2026-04-17T15:05:50.238Z</time></trkpt><trkpt lat="43.0278817" lon="13.4511017"><ele>367.5</ele><time>2026-04-17T15:05:51.238Z</time></trkpt><trkpt lat="43.0279133" lon="13.45126"><ele>365.25</ele><time>2026-04-17T15:05:52.238Z</time></trkpt><trkpt lat="43.027965" lon="13.4514267"><ele>363.0</ele><time>2026-04-17T15:05:53.237Z</time></trkpt><trkpt lat="43.0280167" lon="13.4515783"><ele>360.5</ele><time>2026-04-17T15:05:54.238Z</time></trkpt><trkpt lat="43.0280767" lon="13.4517183"><ele>358.0</ele><time>2026-04-17T15:05:55.238Z</time></trkpt><trkpt lat="43.02814" lon="13.4518517"><ele>355.5</ele><time>2026-04-17T15:05:56.238Z</time></trkpt><trkpt lat="43.02822" lon="13.4519633"><ele>353.0</ele><time>2026-04-17T15:05:57.238Z</time></trkpt><trkpt lat="43.028315" lon="13.452055"><ele>354.25</ele><time>2026-04-17T15:05:58.238Z</time></trkpt><trkpt lat="43.02842" lon="13.452135"><ele>355.5</ele><time>2026-04-17T15:05:59.238Z</time></trkpt><trkpt lat="43.0285217" lon="13.4522117"><ele>356.75</ele><time>2026-04-17T15:06:00.238Z</time></trkpt><trkpt lat="43.0286317" lon="13.4522967"><ele>358.0</ele><time>2026-04-17T15:06:01.238Z</time></trkpt><trkpt lat="43.0287433" lon="13.4523733"><ele>358.0</ele><time>2026-04-17T15:06:02.238Z</time></trkpt><trkpt lat="43.028865" lon="13.4524533"><ele>358.0</ele><time>2026-04-17T15:06:03.238Z</time></trkpt><trkpt lat="43.02899" lon="13.4525283"><ele>358.0</ele><time>2026-04-17T15:06:04.238Z</time></trkpt><trkpt lat="43.0291083" lon="13.4526167"><ele>358.0</ele><time>2026-04-17T15:06:05.238Z</time></trkpt><trkpt lat="43.0292233" lon="13.4526933"><ele>359.0</ele><time>2026-04-17T15:06:06.238Z</time></trkpt><trkpt lat="43.0293367" lon="13.4527683"><ele>360.0</ele><time>2026-04-17T15:06:07.238Z</time></trkpt><trkpt lat="43.0294517" lon="13.4528383"><ele>361.0</ele><time>2026-04-17T15:06:08.238Z</time></trkpt><trkpt lat="43.0295733" lon="13.4528967"><ele>362.0</ele><time>2026-04-17T15:06:09.238Z</time></trkpt><trkpt lat="43.0297" lon="13.4529367"><ele>359.25</ele><time>2026-04-17T15:06:10.238Z</time></trkpt><trkpt lat="43.0298367" lon="13.4529717"><ele>356.5</ele><time>2026-04-17T15:06:11.238Z</time></trkpt><trkpt lat="43.029965" lon="13.453025"><ele>353.75</ele><time>2026-04-17T15:06:12.238Z</time></trkpt><trkpt lat="43.030085" lon="13.4531083"><ele>351.0</ele><time>2026-04-17T15:06:13.238Z</time></trkpt><trkpt lat="43.03019" lon="13.453215"><ele>351.0</ele><time>2026-04-17T15:06:14.238Z</time></trkpt><trkpt lat="43.030295" lon="13.45334"><ele>351.0</ele><time>2026-04-17T15:06:15.238Z</time></trkpt><trkpt lat="43.0304083" lon="13.4534633"><ele>351.0</ele><time>2026-04-17T15:06:16.238Z</time></trkpt><trkpt lat="43.0305133" lon="13.453605"><ele>351.0</ele><time>2026-04-17T15:06:17.238Z</time></trkpt><trkpt lat="43.0306083" lon="13.453765"><ele>349.75</ele><time>2026-04-17T15:06:18.238Z</time></trkpt><trkpt lat="43.0306833" lon="13.4539367"><ele>348.5</ele><time>2026-04-17T15:06:19.238Z</time></trkpt><trkpt lat="43.03075" lon="13.454095"><ele>347.25</ele><time>2026-04-17T15:06:20.238Z</time></trkpt><trkpt lat="43.0308367" lon="13.4542417"><ele>346.0</ele><time>2026-04-17T15:06:21.238Z</time></trkpt><trkpt lat="43.030925" lon="13.4543667"><ele>346.0</ele><time>2026-04-17T15:06:22.238Z</time></trkpt><trkpt lat="43.031" lon="13.4544617"><ele>346.0</ele><time>2026-04-17T15:06:23.238Z</time></trkpt><trkpt lat="43.031055" lon="13.454545"><ele>346.0</ele><time>2026-04-17T15:06:24.238Z</time></trkpt><trkpt lat="43.0310583" lon="13.45468"><ele>346.0</ele><time>2026-04-17T15:06:26.238Z</time></trkpt><trkpt lat="43.03096" lon="13.4546967"><ele>346.0</ele><time>2026-04-17T15:06:28.238Z</time></trkpt><trkpt lat="43.0308983" lon="13.4546417"><ele>346.0</ele><time>2026-04-17T15:06:29.238Z</time></trkpt><trkpt lat="43.03082" lon="13.454555"><ele>346.0</ele><time>2026-04-17T15:06:30.238Z</time></trkpt><trkpt lat="43.0307333" lon="13.4544417"><ele>346.0</ele><time>2026-04-17T15:06:31.238Z</time></trkpt><trkpt lat="43.0306383" lon="13.4542767"><ele>346.0</ele><time>2026-04-17T15:06:32.238Z</time></trkpt><trkpt lat="43.0305467" lon="13.4541233"><ele>343.6</ele><time>2026-04-17T15:06:33.238Z</time></trkpt><trkpt lat="43.030455" lon="13.45401"><ele>341.20000000000005</ele><time>2026-04-17T15:06:34.238Z</time></trkpt><trkpt lat="43.0303583" lon="13.4539333"><ele>338.79999999999995</ele><time>2026-04-17T15:06:35.238Z</time></trkpt><trkpt lat="43.03028" lon="13.4539117"><ele>336.4</ele><time>2026-04-17T15:06:36.238Z</time></trkpt><trkpt lat="43.030165" lon="13.4539383"><ele>334.0</ele><time>2026-04-17T15:06:37.238Z</time></trkpt><trkpt lat="43.0300467" lon="13.4540233"><ele>333.25</ele><time>2026-04-17T15:06:38.238Z</time></trkpt><trkpt lat="43.0299283" lon="13.4541367"><ele>332.5</ele><time>2026-04-17T15:06:39.238Z</time></trkpt><trkpt lat="43.029815" lon="13.4542367"><ele>331.75</ele><time>2026-04-17T15:06:40.238Z</time></trkpt><trkpt lat="43.029685" lon="13.454315"><ele>331.0</ele><time>2026-04-17T15:06:41.238Z</time></trkpt><trkpt lat="43.02955" lon="13.4543683"><ele>331.0</ele><time>2026-04-17T15:06:42.238Z</time></trkpt><trkpt lat="43.029405" lon="13.454385"><ele>331.0</ele><time>2026-04-17T15:06:43.238Z</time></trkpt><trkpt lat="43.02927" lon="13.454385"><ele>331.0</ele><time>2026-04-17T15:06:44.238Z</time></trkpt><trkpt lat="43.0291333" lon="13.45438"><ele>331.0</ele><time>2026-04-17T15:06:45.238Z</time></trkpt><trkpt lat="43.029005" lon="13.4544017"><ele>329.75</ele><time>2026-04-17T15:06:46.238Z</time></trkpt><trkpt lat="43.0288783" lon="13.4544467"><ele>328.5</ele><time>2026-04-17T15:06:47.238Z</time></trkpt><trkpt lat="43.0287467" lon="13.4545217"><ele>327.25</ele><time>2026-04-17T15:06:48.238Z</time></trkpt><trkpt lat="43.0286167" lon="13.4545783"><ele>326.0</ele><time>2026-04-17T15:06:49.238Z</time></trkpt><trkpt lat="43.02848" lon="13.4546183"><ele>322.5</ele><time>2026-04-17T15:06:50.238Z</time></trkpt><trkpt lat="43.0283517" lon="13.4546633"><ele>319.0</ele><time>2026-04-17T15:06:51.238Z</time></trkpt><trkpt lat="43.0282333" lon="13.4546967"><ele>315.5</ele><time>2026-04-17T15:06:52.238Z</time></trkpt><trkpt lat="43.0281283" lon="13.454715"><ele>312.0</ele><time>2026-04-17T15:06:53.238Z</time></trkpt><trkpt lat="43.0280333" lon="13.454715"><ele>312.4</ele><time>2026-04-17T15:06:54.238Z</time></trkpt><trkpt lat="43.0279367" lon="13.4546883"><ele>312.79999999999995</ele><time>2026-04-17T15:06:55.238Z</time></trkpt><trkpt lat="43.027845" lon="13.4546217"><ele>313.2</ele><time>2026-04-17T15:06:56.237Z</time></trkpt><trkpt lat="43.0277567" lon="13.454525"><ele>313.59999999999997</ele><time>2026-04-17T15:06:57.238Z</time></trkpt><trkpt lat="43.0276783" lon="13.4543967"><ele>314.0</ele><time>2026-04-17T15:06:58.238Z</time></trkpt><trkpt lat="43.0276017" lon="13.4542483"><ele>314.0</ele><time>2026-04-17T15:06:59.238Z</time></trkpt><trkpt lat="43.0275283" lon="13.4540967"><ele>314.0</ele><time>2026-04-17T15:07:00.238Z</time></trkpt><trkpt lat="43.0274467" lon="13.45395"><ele>314.0</ele><time>2026-04-17T15:07:01.238Z</time></trkpt><trkpt lat="43.0273667" lon="13.453815"><ele>314.0</ele><time>2026-04-17T15:07:02.238Z</time></trkpt><trkpt lat="43.02729" lon="13.4536733"><ele>311.0</ele><time>2026-04-17T15:07:03.238Z</time></trkpt><trkpt lat="43.02722" lon="13.45353"><ele>308.0</ele><time>2026-04-17T15:07:04.238Z</time></trkpt><trkpt lat="43.02716" lon="13.4533733"><ele>305.0</ele><time>2026-04-17T15:07:05.238Z</time></trkpt><trkpt lat="43.027105" lon="13.45322"><ele>302.0</ele><time>2026-04-17T15:07:06.238Z</time></trkpt><trkpt lat="43.0270533" lon="13.4530667"><ele>303.75</ele><time>2026-04-17T15:07:07.238Z</time></trkpt><trkpt lat="43.0269983" lon="13.452905"><ele>305.5</ele><time>2026-04-17T15:07:08.238Z</time></trkpt><trkpt lat="43.0269517" lon="13.452745"><ele>307.25</ele><time>2026-04-17T15:07:09.238Z</time></trkpt><trkpt lat="43.0269033" lon="13.45258"><ele>309.0</ele><time>2026-04-17T15:07:10.238Z</time></trkpt><trkpt lat="43.02686" lon="13.4524217"><ele>309.0</ele><time>2026-04-17T15:07:11.238Z</time></trkpt><trkpt lat="43.0268233" lon="13.4523017"><ele>309.0</ele><time>2026-04-17T15:07:12.238Z</time></trkpt><trkpt lat="43.0267767" lon="13.45219"><ele>309.0</ele><time>2026-04-17T15:07:13.238Z</time></trkpt><trkpt lat="43.02671" lon="13.4520967"><ele>309.0</ele><time>2026-04-17T15:07:14.238Z</time></trkpt><trkpt lat="43.026625" lon="13.45204"><ele>309.0</ele><time>2026-04-17T15:07:15.238Z</time></trkpt><trkpt lat="43.0265267" lon="13.4520267"><ele>305.5</ele><time>2026-04-17T15:07:16.238Z</time></trkpt><trkpt lat="43.0263967" lon="13.4520567"><ele>302.0</ele><time>2026-04-17T15:07:17.238Z</time></trkpt><trkpt lat="43.0262667" lon="13.4521583"><ele>298.5</ele><time>2026-04-17T15:07:18.238Z</time></trkpt><trkpt lat="43.0261417" lon="13.4522933"><ele>295.0</ele><time>2026-04-17T15:07:19.238Z</time></trkpt><trkpt lat="43.0260217" lon="13.4524117"><ele>294.25</ele><time>2026-04-17T15:07:20.238Z</time></trkpt><trkpt lat="43.0259167" lon="13.4525017"><ele>293.5</ele><time>2026-04-17T15:07:21.238Z</time></trkpt><trkpt lat="43.0258133" lon="13.4525783"><ele>292.75</ele><time>2026-04-17T15:07:22.238Z</time></trkpt><trkpt lat="43.0257067" lon="13.4526483"><ele>292.0</ele><time>2026-04-17T15:07:23.238Z</time></trkpt><trkpt lat="43.0256067" lon="13.4527283"><ele>291.6</ele><time>2026-04-17T15:07:24.238Z</time></trkpt><trkpt lat="43.02552" lon="13.4528167"><ele>291.2</ele><time>2026-04-17T15:07:25.238Z</time></trkpt><trkpt lat="43.0254583" lon="13.4529283"><ele>290.8</ele><time>2026-04-17T15:07:26.238Z</time></trkpt><trkpt lat="43.0254117" lon="13.453075"><ele>290.4</ele><time>2026-04-17T15:07:27.238Z</time></trkpt><trkpt lat="43.0253933" lon="13.45324"><ele>290.0</ele><time>2026-04-17T15:07:28.238Z</time></trkpt><trkpt lat="43.0253933" lon="13.4534017"><ele>290.0</ele><time>2026-04-17T15:07:29.238Z</time></trkpt><trkpt lat="43.0254267" lon="13.4535867"><ele>290.0</ele><time>2026-04-17T15:07:30.238Z</time></trkpt><trkpt lat="43.0254767" lon="13.45377"><ele>290.0</ele><time>2026-04-17T15:07:31.238Z</time></trkpt><trkpt lat="43.0255283" lon="13.4539483"><ele>290.0</ele><time>2026-04-17T15:07:32.238Z</time></trkpt><trkpt lat="43.0255717" lon="13.45411"><ele>288.25</ele><time>2026-04-17T15:07:33.238Z</time></trkpt><trkpt lat="43.0256183" lon="13.454265"><ele>286.5</ele><time>2026-04-17T15:07:34.238Z</time></trkpt><trkpt lat="43.0256517" lon="13.4544117"><ele>284.75</ele><time>2026-04-17T15:07:35.238Z</time></trkpt><trkpt lat="43.025685" lon="13.4545567"><ele>283.0</ele><time>2026-04-17T15:07:36.238Z</time></trkpt><trkpt lat="43.0257267" lon="13.4546967"><ele>284.0</ele><time>2026-04-17T15:07:37.238Z</time></trkpt><trkpt lat="43.0257633" lon="13.4548417"><ele>285.0</ele><time>2026-04-17T15:07:38.238Z</time></trkpt><trkpt lat="43.0257933" lon="13.4549783"><ele>286.0</ele><time>2026-04-17T15:07:39.238Z</time></trkpt><trkpt lat="43.0258267" lon="13.45513"><ele>287.0</ele><time>2026-04-17T15:07:40.238Z</time></trkpt><trkpt lat="43.0258633" lon="13.455275"><ele>288.0</ele><time>2026-04-17T15:07:41.238Z</time></trkpt><trkpt lat="43.0258883" lon="13.4554067"><ele>288.0</ele><time>2026-04-17T15:07:42.238Z</time></trkpt><trkpt lat="43.025895" lon="13.45554"><ele>288.0</ele><time>2026-04-17T15:07:43.238Z</time></trkpt><trkpt lat="43.0258733" lon="13.4556533"><ele>288.0</ele><time>2026-04-17T15:07:44.238Z</time></trkpt><trkpt lat="43.0258267" lon="13.4557583"><ele>288.0</ele><time>2026-04-17T15:07:45.238Z</time></trkpt><trkpt lat="43.0257533" lon="13.4558417"><ele>288.0</ele><time>2026-04-17T15:07:46.238Z</time></trkpt><trkpt lat="43.02568" lon="13.45591"><ele>286.4</ele><time>2026-04-17T15:07:47.238Z</time></trkpt><trkpt lat="43.02559" lon="13.4559667"><ele>284.8</ele><time>2026-04-17T15:07:48.238Z</time></trkpt><trkpt lat="43.025485" lon="13.4560167"><ele>283.2</ele><time>2026-04-17T15:07:49.238Z</time></trkpt><trkpt lat="43.0253967" lon="13.4560783"><ele>281.6</ele><time>2026-04-17T15:07:50.238Z</time></trkpt><trkpt lat="43.0253117" lon="13.4561433"><ele>280.0</ele><time>2026-04-17T15:07:51.238Z</time></trkpt><trkpt lat="43.0252233" lon="13.4562083"><ele>280.0</ele><time>2026-04-17T15:07:52.238Z</time></trkpt><trkpt lat="43.0251233" lon="13.45625"><ele>280.0</ele><time>2026-04-17T15:07:53.238Z</time></trkpt><trkpt lat="43.0250233" lon="13.4562617"><ele>280.0</ele><time>2026-04-17T15:07:54.238Z</time></trkpt><trkpt lat="43.024915" lon="13.45626"><ele>280.0</ele><time>2026-04-17T15:07:55.238Z</time></trkpt><trkpt lat="43.0247933" lon="13.4562417"><ele>280.0</ele><time>2026-04-17T15:07:56.238Z</time></trkpt><trkpt lat="43.0246767" lon="13.4562117"><ele>280.5</ele><time>2026-04-17T15:07:57.238Z</time></trkpt><trkpt lat="43.0245517" lon="13.4561883"><ele>281.0</ele><time>2026-04-17T15:07:58.238Z</time></trkpt><trkpt lat="43.0244233" lon="13.4561933"><ele>281.5</ele><time>2026-04-17T15:07:59.238Z</time></trkpt><trkpt lat="43.0242917" lon="13.4562167"><ele>282.0</ele><time>2026-04-17T15:08:00.238Z</time></trkpt><trkpt lat="43.0241767" lon="13.45628"><ele>283.25</ele><time>2026-04-17T15:08:01.238Z</time></trkpt><trkpt lat="43.0240817" lon="13.4563583"><ele>284.5</ele><time>2026-04-17T15:08:02.238Z</time></trkpt><trkpt lat="43.0240117" lon="13.4564733"><ele>285.75</ele><time>2026-04-17T15:08:03.238Z</time></trkpt><trkpt lat="43.0239717" lon="13.4566317"><ele>287.0</ele><time>2026-04-17T15:08:04.238Z</time></trkpt><trkpt lat="43.0239483" lon="13.456785"><ele>287.0</ele><time>2026-04-17T15:08:05.238Z</time></trkpt><trkpt lat="43.02393" lon="13.4569183"><ele>287.0</ele><time>2026-04-17T15:08:06.238Z</time></trkpt><trkpt lat="43.0239117" lon="13.45704"><ele>287.0</ele><time>2026-04-17T15:08:07.238Z</time></trkpt><trkpt lat="43.0239033" lon="13.457155"><ele>287.0</ele><time>2026-04-17T15:08:08.238Z</time></trkpt><trkpt lat="43.023905" lon="13.45726"><ele>287.0</ele><time>2026-04-17T15:08:09.238Z</time></trkpt><trkpt lat="43.0239017" lon="13.457365"><ele>287.0</ele><time>2026-04-17T15:08:11.238Z</time></trkpt><trkpt lat="43.0239067" lon="13.457465"><ele>288.6666666666667</ele><time>2026-04-17T15:08:14.238Z</time></trkpt><trkpt lat="43.023975" lon="13.4574367"><ele>290.33333333333337</ele><time>2026-04-17T15:08:18.238Z</time></trkpt><trkpt lat="43.02389" lon="13.4573983"><ele>292.0</ele><time>2026-04-17T15:08:22.238Z</time></trkpt><trkpt lat="43.02378" lon="13.457445"><ele>293.6666666666667</ele><time>2026-04-17T15:08:24.238Z</time></trkpt><trkpt lat="43.02371" lon="13.457465"><ele>295.3333333333333</ele><time>2026-04-17T15:08:26.238Z</time></trkpt><trkpt lat="43.0236233" lon="13.45752"><ele>297.0</ele><time>2026-04-17T15:08:29.238Z</time></trkpt><trkpt lat="43.0237117" lon="13.4575283"><ele>297.0</ele><time>2026-04-17T15:23:05.234Z</time></trkpt><trkpt lat="43.02381" lon="13.4575033"><ele>297.0</ele><time>2026-04-17T15:23:07.234Z</time></trkpt><trkpt lat="43.0238767" lon="13.4574817"><ele>297.0</ele><time>2026-04-17T15:23:08.234Z</time></trkpt><trkpt lat="43.023955" lon="13.4574567"><ele>297.0</ele><time>2026-04-17T15:23:09.234Z</time></trkpt><trkpt lat="43.0240383" lon="13.4574383"><ele>297.0</ele><time>2026-04-17T15:23:10.234Z</time></trkpt><trkpt lat="43.0241267" lon="13.4574567"><ele>297.0</ele><time>2026-04-17T15:23:11.234Z</time></trkpt><trkpt lat="43.0242183" lon="13.4575033"><ele>297.0</ele><time>2026-04-17T15:23:12.234Z</time></trkpt><trkpt lat="43.024295" lon="13.4575967"><ele>297.0</ele><time>2026-04-17T15:23:13.234Z</time></trkpt><trkpt lat="43.0243483" lon="13.4577017"><ele>297.0</ele><time>2026-04-17T15:23:14.234Z</time></trkpt><trkpt lat="43.0243767" lon="13.4578283"><ele>297.0</ele><time>2026-04-17T15:23:15.234Z</time></trkpt><trkpt lat="43.0243867" lon="13.4579667"><ele>297.0</ele><time>2026-04-17T15:23:16.234Z</time></trkpt><trkpt lat="43.0243633" lon="13.4581233"><ele>297.25</ele><time>2026-04-17T15:23:17.234Z</time></trkpt><trkpt lat="43.024325" lon="13.4582883"><ele>297.5</ele><time>2026-04-17T15:23:18.234Z</time></trkpt><trkpt lat="43.0242983" lon="13.4584433"><ele>297.75</ele><time>2026-04-17T15:23:19.234Z</time></trkpt><trkpt lat="43.0242933" lon="13.4585917"><ele>298.0</ele><time>2026-04-17T15:23:20.234Z</time></trkpt><trkpt lat="43.02431" lon="13.4587283"><ele>298.6</ele><time>2026-04-17T15:23:21.234Z</time></trkpt><trkpt lat="43.0243433" lon="13.4588583"><ele>299.20000000000005</ele><time>2026-04-17T15:23:22.234Z</time></trkpt><trkpt lat="43.024385" lon="13.458975"><ele>299.8</ele><time>2026-04-17T15:23:23.234Z</time></trkpt><trkpt lat="43.0244333" lon="13.4590867"><ele>300.40000000000003</ele><time>2026-04-17T15:23:24.234Z</time></trkpt><trkpt lat="43.0245167" lon="13.45918"><ele>301.0</ele><time>2026-04-17T15:23:25.234Z</time></trkpt><trkpt lat="43.0246017" lon="13.459245"><ele>301.0</ele><time>2026-04-17T15:23:26.234Z</time></trkpt><trkpt lat="43.024705" lon="13.45925"><ele>301.0</ele><time>2026-04-17T15:23:27.234Z</time></trkpt><trkpt lat="43.024815" lon="13.4592267"><ele>301.0</ele><time>2026-04-17T15:23:28.234Z</time></trkpt><trkpt lat="43.0249317" lon="13.4592067"><ele>301.0</ele><time>2026-04-17T15:23:29.234Z</time></trkpt><trkpt lat="43.025035" lon="13.459225"><ele>301.0</ele><time>2026-04-17T15:23:30.234Z</time></trkpt><trkpt lat="43.02513" lon="13.45929"><ele>300.5</ele><time>2026-04-17T15:23:31.234Z</time></trkpt><trkpt lat="43.0252033" lon="13.4594133"><ele>300.0</ele><time>2026-04-17T15:23:32.234Z</time></trkpt><trkpt lat="43.0252683" lon="13.4595617"><ele>299.5</ele><time>2026-04-17T15:23:33.234Z</time></trkpt><trkpt lat="43.0253383" lon="13.4597117"><ele>299.0</ele><time>2026-04-17T15:23:34.234Z</time></trkpt><trkpt lat="43.0254167" lon="13.45986"><ele>299.0</ele><time>2026-04-17T15:23:35.234Z</time></trkpt><trkpt lat="43.0254833" lon="13.46001"><ele>299.0</ele><time>2026-04-17T15:23:36.234Z</time></trkpt><trkpt lat="43.0255367" lon="13.4601533"><ele>299.0</ele><time>2026-04-17T15:23:37.234Z</time></trkpt><trkpt lat="43.0255633" lon="13.4603067"><ele>299.0</ele><time>2026-04-17T15:23:38.234Z</time></trkpt><trkpt lat="43.02556" lon="13.4604533"><ele>297.59999999999997</ele><time>2026-04-17T15:23:39.234Z</time></trkpt><trkpt lat="43.0255267" lon="13.460575"><ele>296.2</ele><time>2026-04-17T15:23:40.234Z</time></trkpt><trkpt lat="43.0254717" lon="13.4606767"><ele>294.79999999999995</ele><time>2026-04-17T15:23:41.234Z</time></trkpt><trkpt lat="43.02539" lon="13.4607583"><ele>293.4</ele><time>2026-04-17T15:23:42.234Z</time></trkpt><trkpt lat="43.02529" lon="13.46083"><ele>292.0</ele><time>2026-04-17T15:23:43.234Z</time></trkpt><trkpt lat="43.02518" lon="13.4609183"><ele>292.0</ele><time>2026-04-17T15:23:44.234Z</time></trkpt><trkpt lat="43.0250717" lon="13.4610083"><ele>292.0</ele><time>2026-04-17T15:23:45.234Z</time></trkpt><trkpt lat="43.0249633" lon="13.4610867"><ele>292.0</ele><time>2026-04-17T15:23:46.234Z</time></trkpt><trkpt lat="43.0248533" lon="13.46117"><ele>292.0</ele><time>2026-04-17T15:23:47.234Z</time></trkpt><trkpt lat="43.0247483" lon="13.4612333"><ele>292.25</ele><time>2026-04-17T15:23:48.234Z</time></trkpt><trkpt lat="43.0246567" lon="13.461255"><ele>292.5</ele><time>2026-04-17T15:23:49.234Z</time></trkpt><trkpt lat="43.0245467" lon="13.46124"><ele>292.75</ele><time>2026-04-17T15:23:50.234Z</time></trkpt><trkpt lat="43.0244217" lon="13.4611883"><ele>293.0</ele><time>2026-04-17T15:23:51.234Z</time></trkpt><trkpt lat="43.02429" lon="13.461135"><ele>293.0</ele><time>2026-04-17T15:23:52.234Z</time></trkpt><trkpt lat="43.0241583" lon="13.4611167"><ele>293.0</ele><time>2026-04-17T15:23:53.234Z</time></trkpt><trkpt lat="43.0240133" lon="13.4611233"><ele>293.0</ele><time>2026-04-17T15:23:54.234Z</time></trkpt><trkpt lat="43.0238683" lon="13.461165"><ele>293.0</ele><time>2026-04-17T15:23:55.234Z</time></trkpt><trkpt lat="43.0237383" lon="13.4612317"><ele>290.6</ele><time>2026-04-17T15:23:56.234Z</time></trkpt><trkpt lat="43.0236267" lon="13.4613083"><ele>288.20000000000005</ele><time>2026-04-17T15:23:57.234Z</time></trkpt><trkpt lat="43.02353" lon="13.4613883"><ele>285.8</ele><time>2026-04-17T15:23:58.234Z</time></trkpt><trkpt lat="43.0234617" lon="13.461495"><ele>283.40000000000003</ele><time>2026-04-17T15:23:59.233Z</time></trkpt><trkpt lat="43.0234233" lon="13.4616117"><ele>281.0</ele><time>2026-04-17T15:24:00.234Z</time></trkpt><trkpt lat="43.023425" lon="13.4617467"><ele>281.0</ele><time>2026-04-17T15:24:01.234Z</time></trkpt><trkpt lat="43.0234533" lon="13.4618817"><ele>281.0</ele><time>2026-04-17T15:24:02.234Z</time></trkpt><trkpt lat="43.0234933" lon="13.4620117"><ele>281.0</ele><time>2026-04-17T15:24:03.234Z</time></trkpt><trkpt lat="43.023565" lon="13.46212"><ele>281.0</ele><time>2026-04-17T15:24:04.234Z</time></trkpt><trkpt lat="43.0236517" lon="13.4621883"><ele>281.0</ele><time>2026-04-17T15:24:05.234Z</time></trkpt><trkpt lat="43.0237517" lon="13.4622067"><ele>282.0</ele><time>2026-04-17T15:24:06.234Z</time></trkpt><trkpt lat="43.023865" lon="13.4621967"><ele>283.0</ele><time>2026-04-17T15:24:07.233Z</time></trkpt><trkpt lat="43.023985" lon="13.4621917"><ele>284.0</ele><time>2026-04-17T15:24:08.234Z</time></trkpt><trkpt lat="43.0241" lon="13.46224"><ele>285.0</ele><time>2026-04-17T15:24:09.234Z</time></trkpt><trkpt lat="43.0241867" lon="13.46234"><ele>285.0</ele><time>2026-04-17T15:24:10.234Z</time></trkpt><trkpt lat="43.0242567" lon="13.4624617"><ele>285.0</ele><time>2026-04-17T15:24:11.234Z</time></trkpt><trkpt lat="43.0243267" lon="13.462605"><ele>285.0</ele><time>2026-04-17T15:24:12.234Z</time></trkpt><trkpt lat="43.0244033" lon="13.4627283"><ele>285.0</ele><time>2026-04-17T15:24:13.234Z</time></trkpt><trkpt lat="43.024515" lon="13.4628133"><ele>285.0</ele><time>2026-04-17T15:24:14.234Z</time></trkpt><trkpt lat="43.02464" lon="13.46287"><ele>285.0</ele><time>2026-04-17T15:24:15.234Z</time></trkpt><trkpt lat="43.0247733" lon="13.4628767"><ele>285.0</ele><time>2026-04-17T15:24:16.234Z</time></trkpt><trkpt lat="43.0249067" lon="13.4628583"><ele>285.0</ele><time>2026-04-17T15:24:17.234Z</time></trkpt><trkpt lat="43.0250367" lon="13.4628417"><ele>285.25</ele><time>2026-04-17T15:24:18.234Z</time></trkpt><trkpt lat="43.0251617" lon="13.462875"><ele>285.5</ele><time>2026-04-17T15:24:19.234Z</time></trkpt><trkpt lat="43.0252683" lon="13.4629617"><ele>285.75</ele><time>2026-04-17T15:24:20.234Z</time></trkpt><trkpt lat="43.0253567" lon="13.4630967"><ele>286.0</ele><time>2026-04-17T15:24:21.234Z</time></trkpt><trkpt lat="43.0254217" lon="13.4632533"><ele>286.0</ele><time>2026-04-17T15:24:22.234Z</time></trkpt><trkpt lat="43.0255017" lon="13.46341"><ele>286.0</ele><time>2026-04-17T15:24:23.234Z</time></trkpt><trkpt lat="43.0256" lon="13.46356"><ele>286.0</ele><time>2026-04-17T15:24:24.234Z</time></trkpt><trkpt lat="43.0257133" lon="13.4636917"><ele>286.0</ele><time>2026-04-17T15:24:25.233Z</time></trkpt><trkpt lat="43.0258117" lon="13.4638317"><ele>283.25</ele><time>2026-04-17T15:24:26.233Z</time></trkpt><trkpt lat="43.0258967" lon="13.4639817"><ele>280.5</ele><time>2026-04-17T15:24:27.233Z</time></trkpt><trkpt lat="43.0259783" lon="13.46415"><ele>277.75</ele><time>2026-04-17T15:24:28.233Z</time></trkpt><trkpt lat="43.0260417" lon="13.4643083"><ele>275.0</ele><time>2026-04-17T15:24:29.233Z</time></trkpt><trkpt lat="43.0260933" lon="13.4644783"><ele>277.0</ele><time>2026-04-17T15:24:30.233Z</time></trkpt><trkpt lat="43.0261433" lon="13.464645"><ele>279.0</ele><time>2026-04-17T15:24:31.233Z</time></trkpt><trkpt lat="43.02621" lon="13.4647867"><ele>281.0</ele><time>2026-04-17T15:24:32.233Z</time></trkpt><trkpt lat="43.0263033" lon="13.464895"><ele>283.0</ele><time>2026-04-17T15:24:33.233Z</time></trkpt><trkpt lat="43.0264217" lon="13.4649833"><ele>283.0</ele><time>2026-04-17T15:24:34.233Z</time></trkpt><trkpt lat="43.0265567" lon="13.4650783"><ele>283.0</ele><time>2026-04-17T15:24:35.233Z</time></trkpt><trkpt lat="43.0266917" lon="13.465135"><ele>283.0</ele><time>2026-04-17T15:24:36.233Z</time></trkpt><trkpt lat="43.0268183" lon="13.4651867"><ele>283.0</ele><time>2026-04-17T15:24:37.233Z</time></trkpt><trkpt lat="43.0269583" lon="13.4652133"><ele>278.5</ele><time>2026-04-17T15:24:38.233Z</time></trkpt><trkpt lat="43.0270967" lon="13.46524"><ele>274.0</ele><time>2026-04-17T15:24:39.233Z</time></trkpt><trkpt lat="43.0272467" lon="13.4652667"><ele>269.5</ele><time>2026-04-17T15:24:40.233Z</time></trkpt><trkpt lat="43.0273917" lon="13.46531"><ele>265.0</ele><time>2026-04-17T15:24:41.233Z</time></trkpt><trkpt lat="43.0275517" lon="13.4653467"><ele>264.66666666666663</ele><time>2026-04-17T15:24:42.233Z</time></trkpt><trkpt lat="43.027715" lon="13.46537"><ele>264.3333333333333</ele><time>2026-04-17T15:24:43.233Z</time></trkpt><trkpt lat="43.02787" lon="13.4653933"><ele>264.0</ele><time>2026-04-17T15:24:44.233Z</time></trkpt><trkpt lat="43.02803" lon="13.46539"><ele>264.0</ele><time>2026-04-17T15:24:45.233Z</time></trkpt><trkpt lat="43.0281933" lon="13.4653633"><ele>264.0</ele><time>2026-04-17T15:24:46.233Z</time></trkpt><trkpt lat="43.0283333" lon="13.46529"><ele>264.0</ele><time>2026-04-17T15:24:47.233Z</time></trkpt><trkpt lat="43.02848" lon="13.4651833"><ele>264.6666666666667</ele><time>2026-04-17T15:24:48.233Z</time></trkpt><trkpt lat="43.0286167" lon="13.4650633"><ele>265.33333333333337</ele><time>2026-04-17T15:24:49.233Z</time></trkpt><trkpt lat="43.0287517" lon="13.4649283"><ele>266.0</ele><time>2026-04-17T15:24:50.233Z</time></trkpt><trkpt lat="43.0288883" lon="13.4647933"><ele>266.0</ele><time>2026-04-17T15:24:51.233Z</time></trkpt><trkpt lat="43.0290133" lon="13.4647"><ele>266.0</ele><time>2026-04-17T15:24:52.233Z</time></trkpt><trkpt lat="43.0291583" lon="13.4646567"><ele>266.0</ele><time>2026-04-17T15:24:53.233Z</time></trkpt><trkpt lat="43.029295" lon="13.4646133"><ele>266.0</ele><time>2026-04-17T15:24:54.233Z</time></trkpt><trkpt lat="43.0294267" lon="13.464625"><ele>267.75</ele><time>2026-04-17T15:24:55.233Z</time></trkpt><trkpt lat="43.02956" lon="13.464675"><ele>269.5</ele><time>2026-04-17T15:24:56.233Z</time></trkpt><trkpt lat="43.029695" lon="13.464755"><ele>271.25</ele><time>2026-04-17T15:24:57.233Z</time></trkpt><trkpt lat="43.029825" lon="13.4648533"><ele>273.0</ele><time>2026-04-17T15:24:58.233Z</time></trkpt><trkpt lat="43.0299383" lon="13.4649883"><ele>271.3333333333333</ele><time>2026-04-17T15:24:59.233Z</time></trkpt><trkpt lat="43.0300533" lon="13.4651483"><ele>269.66666666666663</ele><time>2026-04-17T15:25:00.233Z</time></trkpt><trkpt lat="43.0301717" lon="13.4653133"><ele>268.0</ele><time>2026-04-17T15:25:01.233Z</time></trkpt><trkpt lat="43.0302833" lon="13.4654717"><ele>273.66666666666663</ele><time>2026-04-17T15:25:02.233Z</time></trkpt><trkpt lat="43.0303917" lon="13.4656133"><ele>279.3333333333333</ele><time>2026-04-17T15:25:03.233Z</time></trkpt><trkpt lat="43.030505" lon="13.465745"><ele>285.0</ele><time>2026-04-17T15:25:04.233Z</time></trkpt><trkpt lat="43.030635" lon="13.4658517"><ele>285.0</ele><time>2026-04-17T15:25:05.233Z</time></trkpt><trkpt lat="43.0307717" lon="13.465925"><ele>285.0</ele><time>2026-04-17T15:25:06.233Z</time></trkpt><trkpt lat="43.03092" lon="13.4659767"><ele>285.0</ele><time>2026-04-17T15:25:07.233Z</time></trkpt><trkpt lat="43.0310767" lon="13.4660117"><ele>279.3333333333333</ele><time>2026-04-17T15:25:08.233Z</time></trkpt><trkpt lat="43.0312333" lon="13.4660367"><ele>273.66666666666663</ele><time>2026-04-17T15:25:09.233Z</time></trkpt><trkpt lat="43.031395" lon="13.46607"><ele>268.0</ele><time>2026-04-17T15:25:10.233Z</time></trkpt><trkpt lat="43.0315483" lon="13.4661117"><ele>266.0</ele><time>2026-04-17T15:25:11.233Z</time></trkpt><trkpt lat="43.0316883" lon="13.4661717"><ele>264.0</ele><time>2026-04-17T15:25:12.233Z</time></trkpt><trkpt lat="43.0318167" lon="13.46626"><ele>262.0</ele><time>2026-04-17T15:25:13.233Z</time></trkpt><trkpt lat="43.031935" lon="13.466345"><ele>260.0</ele><time>2026-04-17T15:25:14.233Z</time></trkpt><trkpt lat="43.0320667" lon="13.4664267"><ele>264.0</ele><time>2026-04-17T15:25:15.233Z</time></trkpt><trkpt lat="43.03221" lon="13.4665017"><ele>268.0</ele><time>2026-04-17T15:25:16.233Z</time></trkpt><trkpt lat="43.032365" lon="13.466565"><ele>272.0</ele><time>2026-04-17T15:25:17.233Z</time></trkpt><trkpt lat="43.0325233" lon="13.4666183"><ele>272.0</ele><time>2026-04-17T15:25:18.233Z</time></trkpt><trkpt lat="43.03268" lon="13.4666533"><ele>272.0</ele><time>2026-04-17T15:25:19.233Z</time></trkpt><trkpt lat="43.03284" lon="13.46665"><ele>272.0</ele><time>2026-04-17T15:25:20.233Z</time></trkpt><trkpt lat="43.0330133" lon="13.466625"><ele>272.0</ele><time>2026-04-17T15:25:21.233Z</time></trkpt><trkpt lat="43.0331917" lon="13.466585"><ele>272.0</ele><time>2026-04-17T15:25:22.233Z</time></trkpt><trkpt lat="43.0333533" lon="13.4665267"><ele>272.0</ele><time>2026-04-17T15:25:23.233Z</time></trkpt><trkpt lat="43.0334967" lon="13.4664867"><ele>271.25</ele><time>2026-04-17T15:25:24.233Z</time></trkpt><trkpt lat="43.0336367" lon="13.4664517"><ele>270.5</ele><time>2026-04-17T15:25:25.233Z</time></trkpt><trkpt lat="43.03379" lon="13.4664483"><ele>269.75</ele><time>2026-04-17T15:25:26.233Z</time></trkpt><trkpt lat="43.0339417" lon="13.466465"><ele>269.0</ele><time>2026-04-17T15:25:27.233Z</time></trkpt><trkpt lat="43.03409" lon="13.4664967"><ele>269.25</ele><time>2026-04-17T15:25:28.233Z</time></trkpt><trkpt lat="43.0342417" lon="13.4665417"><ele>269.5</ele><time>2026-04-17T15:25:29.233Z</time></trkpt><trkpt lat="43.0343917" lon="13.4665833"><ele>269.75</ele><time>2026-04-17T15:25:30.233Z</time></trkpt><trkpt lat="43.03453" lon="13.4666183"><ele>270.0</ele><time>2026-04-17T15:25:31.233Z</time></trkpt><trkpt lat="43.0346717" lon="13.466645"><ele>270.0</ele><time>2026-04-17T15:25:32.233Z</time></trkpt><trkpt lat="43.034815" lon="13.46668"><ele>270.0</ele><time>2026-04-17T15:25:33.233Z</time></trkpt><trkpt lat="43.0349567" lon="13.4667017"><ele>270.0</ele><time>2026-04-17T15:25:34.233Z</time></trkpt><trkpt lat="43.0350967" lon="13.46673"><ele>270.0</ele><time>2026-04-17T15:25:35.233Z</time></trkpt><trkpt lat="43.03523" lon="13.4667567"><ele>269.25</ele><time>2026-04-17T15:25:36.233Z</time></trkpt><trkpt lat="43.0353733" lon="13.4667767"><ele>268.5</ele><time>2026-04-17T15:25:37.233Z</time></trkpt><trkpt lat="43.035505" lon="13.466795"><ele>267.75</ele><time>2026-04-17T15:25:38.233Z</time></trkpt><trkpt lat="43.0356483" lon="13.4668333"><ele>267.0</ele><time>2026-04-17T15:25:39.233Z</time></trkpt><trkpt lat="43.0357817" lon="13.46686"><ele>265.75</ele><time>2026-04-17T15:25:40.233Z</time></trkpt><trkpt lat="43.0359217" lon="13.4668633"><ele>264.5</ele><time>2026-04-17T15:25:41.233Z</time></trkpt><trkpt lat="43.03606" lon="13.4668333"><ele>263.25</ele><time>2026-04-17T15:25:42.233Z</time></trkpt><trkpt lat="43.03622" lon="13.4667833"><ele>262.0</ele><time>2026-04-17T15:25:43.233Z</time></trkpt><trkpt lat="43.0363867" lon="13.4667267"><ele>262.0</ele><time>2026-04-17T15:25:44.233Z</time></trkpt><trkpt lat="43.0365467" lon="13.46668"><ele>262.0</ele><time>2026-04-17T15:25:45.233Z</time></trkpt><trkpt lat="43.0367283" lon="13.4666283"><ele>262.0</ele><time>2026-04-17T15:25:46.233Z</time></trkpt><trkpt lat="43.03691" lon="13.4665817"><ele>262.66666666666663</ele><time>2026-04-17T15:25:47.233Z</time></trkpt><trkpt lat="43.037065" lon="13.4665417"><ele>263.3333333333333</ele><time>2026-04-17T15:25:48.233Z</time></trkpt><trkpt lat="43.0372167" lon="13.4665233"><ele>264.0</ele><time>2026-04-17T15:25:49.233Z</time></trkpt><trkpt lat="43.03736" lon="13.4665317"><ele>264.6666666666667</ele><time>2026-04-17T15:25:50.233Z</time></trkpt><trkpt lat="43.0375267" lon="13.4665483"><ele>265.33333333333337</ele><time>2026-04-17T15:25:51.233Z</time></trkpt><trkpt lat="43.0376917" lon="13.466595"><ele>266.0</ele><time>2026-04-17T15:25:52.233Z</time></trkpt><trkpt lat="43.0378533" lon="13.4666667"><ele>266.0</ele><time>2026-04-17T15:25:53.233Z</time></trkpt><trkpt lat="43.038015" lon="13.4667367"><ele>266.0</ele><time>2026-04-17T15:25:54.233Z</time></trkpt><trkpt lat="43.0381717" lon="13.4668033"><ele>266.0</ele><time>2026-04-17T15:25:55.233Z</time></trkpt><trkpt lat="43.038335" lon="13.46687"><ele>263.6666666666667</ele><time>2026-04-17T15:25:56.233Z</time></trkpt><trkpt lat="43.0384883" lon="13.4669417"><ele>261.3333333333333</ele><time>2026-04-17T15:25:57.233Z</time></trkpt><trkpt lat="43.038635" lon="13.4670267"><ele>259.0</ele><time>2026-04-17T15:25:58.233Z</time></trkpt><trkpt lat="43.0387917" lon="13.4671017"><ele>259.0</ele><time>2026-04-17T15:25:59.233Z</time></trkpt><trkpt lat="43.0389467" lon="13.4671633"><ele>259.0</ele><time>2026-04-17T15:26:00.233Z</time></trkpt><trkpt lat="43.0391033" lon="13.4672167"><ele>259.0</ele><time>2026-04-17T15:26:01.233Z</time></trkpt><trkpt lat="43.03925" lon="13.467275"><ele>259.0</ele><time>2026-04-17T15:26:02.233Z</time></trkpt><trkpt lat="43.03941" lon="13.4673333"><ele>259.0</ele><time>2026-04-17T15:26:03.233Z</time></trkpt><trkpt lat="43.03956" lon="13.4673883"><ele>259.0</ele><time>2026-04-17T15:26:04.233Z</time></trkpt><trkpt lat="43.039715" lon="13.4674433"><ele>259.0</ele><time>2026-04-17T15:26:05.233Z</time></trkpt><trkpt lat="43.0398683" lon="13.4674933"><ele>259.0</ele><time>2026-04-17T15:26:06.233Z</time></trkpt><trkpt lat="43.0400167" lon="13.467545"><ele>259.0</ele><time>2026-04-17T15:26:07.233Z</time></trkpt><trkpt lat="43.0401583" lon="13.4676067"><ele>257.66666666666663</ele><time>2026-04-17T15:26:08.233Z</time></trkpt><trkpt lat="43.04031" lon="13.467675"><ele>256.3333333333333</ele><time>2026-04-17T15:26:09.233Z</time></trkpt><trkpt lat="43.04046" lon="13.467745"><ele>255.0</ele><time>2026-04-17T15:26:10.233Z</time></trkpt><trkpt lat="43.040615" lon="13.4678117"><ele>255.0</ele><time>2026-04-17T15:26:11.233Z</time></trkpt><trkpt lat="43.04075" lon="13.46789"><ele>255.0</ele><time>2026-04-17T15:26:12.233Z</time></trkpt><trkpt lat="43.0408833" lon="13.46798"><ele>255.0</ele><time>2026-04-17T15:26:13.233Z</time></trkpt><trkpt lat="43.0409983" lon="13.4681017"><ele>255.0</ele><time>2026-04-17T15:26:14.233Z</time></trkpt><trkpt lat="43.0411167" lon="13.4682717"><ele>255.33333333333331</ele><time>2026-04-17T15:26:15.233Z</time></trkpt><trkpt lat="43.041225" lon="13.4684467"><ele>255.66666666666666</ele><time>2026-04-17T15:26:16.233Z</time></trkpt><trkpt lat="43.0413433" lon="13.4686233"><ele>256.0</ele><time>2026-04-17T15:26:17.233Z</time></trkpt><trkpt lat="43.0414583" lon="13.468795"><ele>256.0</ele><time>2026-04-17T15:26:18.233Z</time></trkpt><trkpt lat="43.0415567" lon="13.4689467"><ele>256.0</ele><time>2026-04-17T15:26:19.233Z</time></trkpt><trkpt lat="43.041655" lon="13.4691033"><ele>256.0</ele><time>2026-04-17T15:26:20.233Z</time></trkpt><trkpt lat="43.0417567" lon="13.4692733"><ele>255.33333333333331</ele><time>2026-04-17T15:26:21.233Z</time></trkpt><trkpt lat="43.0418617" lon="13.46944"><ele>254.66666666666669</ele><time>2026-04-17T15:26:22.233Z</time></trkpt><trkpt lat="43.0419667" lon="13.469605"><ele>254.0</ele><time>2026-04-17T15:26:23.233Z</time></trkpt><trkpt lat="43.0420733" lon="13.469765"><ele>254.0</ele><time>2026-04-17T15:26:24.233Z</time></trkpt><trkpt lat="43.0421733" lon="13.4699317"><ele>254.0</ele><time>2026-04-17T15:26:25.233Z</time></trkpt><trkpt lat="43.0422783" lon="13.4700933"><ele>254.0</ele><time>2026-04-17T15:26:26.233Z</time></trkpt><trkpt lat="43.0423867" lon="13.47026"><ele>252.66666666666669</ele><time>2026-04-17T15:26:27.233Z</time></trkpt><trkpt lat="43.0425083" lon="13.4704333"><ele>251.33333333333331</ele><time>2026-04-17T15:26:28.233Z</time></trkpt><trkpt lat="43.0426183" lon="13.4706017"><ele>250.0</ele><time>2026-04-17T15:26:29.233Z</time></trkpt><trkpt lat="43.0427383" lon="13.4707567"><ele>250.0</ele><time>2026-04-17T15:26:30.233Z</time></trkpt><trkpt lat="43.042865" lon="13.4709"><ele>250.0</ele><time>2026-04-17T15:26:31.233Z</time></trkpt><trkpt lat="43.042995" lon="13.4710183"><ele>250.0</ele><time>2026-04-17T15:26:32.233Z</time></trkpt><trkpt lat="43.0431333" lon="13.47111"><ele>250.0</ele><time>2026-04-17T15:26:33.233Z</time></trkpt><trkpt lat="43.0432883" lon="13.4711833"><ele>250.0</ele><time>2026-04-17T15:26:34.233Z</time></trkpt><trkpt lat="43.0434483" lon="13.4712267"><ele>250.0</ele><time>2026-04-17T15:26:35.233Z</time></trkpt><trkpt lat="43.0436217" lon="13.4712483"><ele>250.66666666666666</ele><time>2026-04-17T15:26:36.233Z</time></trkpt><trkpt lat="43.043795" lon="13.4712867"><ele>251.33333333333331</ele><time>2026-04-17T15:26:37.232Z</time></trkpt><trkpt lat="43.0439617" lon="13.4713333"><ele>252.0</ele><time>2026-04-17T15:26:38.233Z</time></trkpt><trkpt lat="43.044135" lon="13.4713617"><ele>250.33333333333331</ele><time>2026-04-17T15:26:39.233Z</time></trkpt><trkpt lat="43.0443033" lon="13.4713833"><ele>248.66666666666666</ele><time>2026-04-17T15:26:40.233Z</time></trkpt><trkpt lat="43.044455" lon="13.4714117"><ele>247.0</ele><time>2026-04-17T15:26:41.233Z</time></trkpt><trkpt lat="43.0445967" lon="13.4714417"><ele>247.0</ele><time>2026-04-17T15:26:42.233Z</time></trkpt><trkpt lat="43.04474" lon="13.471485"><ele>247.0</ele><time>2026-04-17T15:26:43.233Z</time></trkpt><trkpt lat="43.0448883" lon="13.4715183"><ele>247.0</ele><time>2026-04-17T15:26:44.233Z</time></trkpt><trkpt lat="43.0450433" lon="13.4715367"><ele>246.66666666666666</ele><time>2026-04-17T15:26:45.233Z</time></trkpt><trkpt lat="43.0451983" lon="13.4715467"><ele>246.33333333333331</ele><time>2026-04-17T15:26:46.233Z</time></trkpt><trkpt lat="43.0453517" lon="13.4715417"><ele>246.0</ele><time>2026-04-17T15:26:47.233Z</time></trkpt><trkpt lat="43.0455017" lon="13.4715233"><ele>246.0</ele><time>2026-04-17T15:26:48.233Z</time></trkpt><trkpt lat="43.0456583" lon="13.4714917"><ele>246.0</ele><time>2026-04-17T15:26:49.233Z</time></trkpt><trkpt lat="43.0458167" lon="13.4714383"><ele>246.0</ele><time>2026-04-17T15:26:50.233Z</time></trkpt><trkpt lat="43.04598" lon="13.4713767"><ele>245.66666666666669</ele><time>2026-04-17T15:26:51.233Z</time></trkpt><trkpt lat="43.0461383" lon="13.4713017"><ele>245.33333333333334</ele><time>2026-04-17T15:26:52.233Z</time></trkpt><trkpt lat="43.0462933" lon="13.4712033"><ele>245.0</ele><time>2026-04-17T15:26:53.233Z</time></trkpt><trkpt lat="43.0464483" lon="13.4710917"><ele>245.0</ele><time>2026-04-17T15:26:54.233Z</time></trkpt><trkpt lat="43.046615" lon="13.4709783"><ele>245.0</ele><time>2026-04-17T15:26:55.233Z</time></trkpt><trkpt lat="43.0467733" lon="13.4708733"><ele>245.0</ele><time>2026-04-17T15:26:56.233Z</time></trkpt><trkpt lat="43.0469283" lon="13.4707783"><ele>245.0</ele><time>2026-04-17T15:26:57.233Z</time></trkpt><trkpt lat="43.04707" lon="13.4706733"><ele>245.0</ele><time>2026-04-17T15:26:58.233Z</time></trkpt><trkpt lat="43.047215" lon="13.4705817"><ele>245.0</ele><time>2026-04-17T15:26:59.233Z</time></trkpt><trkpt lat="43.0473817" lon="13.470495"><ele>244.66666666666669</ele><time>2026-04-17T15:27:00.233Z</time></trkpt><trkpt lat="43.0475733" lon="13.470415"><ele>244.33333333333331</ele><time>2026-04-17T15:27:01.233Z</time></trkpt><trkpt lat="43.04779" lon="13.47036"><ele>244.0</ele><time>2026-04-17T15:27:02.233Z</time></trkpt><trkpt lat="43.0479983" lon="13.4702933"><ele>244.0</ele><time>2026-04-17T15:27:03.233Z</time></trkpt><trkpt lat="43.04819" lon="13.47022"><ele>244.0</ele><time>2026-04-17T15:27:04.233Z</time></trkpt><trkpt lat="43.0483717" lon="13.4701583"><ele>244.0</ele><time>2026-04-17T15:27:05.233Z</time></trkpt><trkpt lat="43.04855" lon="13.4700917"><ele>244.66666666666666</ele><time>2026-04-17T15:27:06.233Z</time></trkpt><trkpt lat="43.0487217" lon="13.4700467"><ele>245.33333333333331</ele><time>2026-04-17T15:27:07.232Z</time></trkpt><trkpt lat="43.0488933" lon="13.4699917"><ele>246.0</ele><time>2026-04-17T15:27:08.233Z</time></trkpt><trkpt lat="43.04906" lon="13.4699333"><ele>246.0</ele><time>2026-04-17T15:27:09.233Z</time></trkpt><trkpt lat="43.0492283" lon="13.4698833"><ele>246.0</ele><time>2026-04-17T15:27:10.233Z</time></trkpt><trkpt lat="43.0493983" lon="13.4698267"><ele>246.0</ele><time>2026-04-17T15:27:11.233Z</time></trkpt><trkpt lat="43.0495717" lon="13.4697683"><ele>246.0</ele><time>2026-04-17T15:27:12.233Z</time></trkpt><trkpt lat="43.0497367" lon="13.4697167"><ele>246.0</ele><time>2026-04-17T15:27:13.233Z</time></trkpt><trkpt lat="43.049905" lon="13.4696617"><ele>246.0</ele><time>2026-04-17T15:27:14.233Z</time></trkpt><trkpt lat="43.050065" lon="13.46961"><ele>244.33333333333331</ele><time>2026-04-17T15:27:15.233Z</time></trkpt><trkpt lat="43.0502217" lon="13.469575"><ele>242.66666666666666</ele><time>2026-04-17T15:27:16.233Z</time></trkpt><trkpt lat="43.0503833" lon="13.4695367"><ele>241.0</ele><time>2026-04-17T15:27:17.233Z</time></trkpt><trkpt lat="43.0505483" lon="13.4695033"><ele>241.0</ele><time>2026-04-17T15:27:18.233Z</time></trkpt><trkpt lat="43.05073" lon="13.46948"><ele>241.0</ele><time>2026-04-17T15:27:19.233Z</time></trkpt><trkpt lat="43.05091" lon="13.4694417"><ele>241.0</ele><time>2026-04-17T15:27:20.233Z</time></trkpt><trkpt lat="43.051095" lon="13.469395"><ele>240.33333333333331</ele><time>2026-04-17T15:27:21.233Z</time></trkpt><trkpt lat="43.05126" lon="13.469365"><ele>239.66666666666669</ele><time>2026-04-17T15:27:22.233Z</time></trkpt><trkpt lat="43.0514217" lon="13.4693367"><ele>239.0</ele><time>2026-04-17T15:27:23.233Z</time></trkpt><trkpt lat="43.0515733" lon="13.4693117"><ele>239.0</ele><time>2026-04-17T15:27:24.233Z</time></trkpt><trkpt lat="43.0517133" lon="13.4692917"><ele>239.0</ele><time>2026-04-17T15:27:25.233Z</time></trkpt><trkpt lat="43.0518667" lon="13.4692533"><ele>239.0</ele><time>2026-04-17T15:27:26.233Z</time></trkpt><trkpt lat="43.0520233" lon="13.46922"><ele>239.0</ele><time>2026-04-17T15:27:27.233Z</time></trkpt><trkpt lat="43.0521817" lon="13.4691917"><ele>239.0</ele><time>2026-04-17T15:27:28.233Z</time></trkpt><trkpt lat="43.0523367" lon="13.469165"><ele>239.0</ele><time>2026-04-17T15:27:29.233Z</time></trkpt><trkpt lat="43.0524983" lon="13.469145"><ele>239.66666666666669</ele><time>2026-04-17T15:27:30.233Z</time></trkpt><trkpt lat="43.0526683" lon="13.4691167"><ele>240.33333333333331</ele><time>2026-04-17T15:27:31.233Z</time></trkpt><trkpt lat="43.0528333" lon="13.469085"><ele>241.0</ele><time>2026-04-17T15:27:32.233Z</time></trkpt><trkpt lat="43.0530017" lon="13.46905"><ele>241.0</ele><time>2026-04-17T15:27:33.233Z</time></trkpt><trkpt lat="43.0531667" lon="13.4690117"><ele>241.0</ele><time>2026-04-17T15:27:34.233Z</time></trkpt><trkpt lat="43.0533383" lon="13.4689817"><ele>241.0</ele><time>2026-04-17T15:27:35.232Z</time></trkpt><trkpt lat="43.05351" lon="13.468955"><ele>241.0</ele><time>2026-04-17T15:27:36.233Z</time></trkpt><trkpt lat="43.0536733" lon="13.468935"><ele>241.0</ele><time>2026-04-17T15:27:37.233Z</time></trkpt><trkpt lat="43.0538317" lon="13.4689067"><ele>241.0</ele><time>2026-04-17T15:27:38.233Z</time></trkpt><trkpt lat="43.053985" lon="13.4688783"><ele>242.0</ele><time>2026-04-17T15:27:39.233Z</time></trkpt><trkpt lat="43.0541417" lon="13.4688517"><ele>243.0</ele><time>2026-04-17T15:27:40.233Z</time></trkpt><trkpt lat="43.0542983" lon="13.4688183"><ele>244.0</ele><time>2026-04-17T15:27:41.233Z</time></trkpt><trkpt lat="43.0544533" lon="13.4687917"><ele>242.75</ele><time>2026-04-17T15:27:42.233Z</time></trkpt><trkpt lat="43.0546017" lon="13.46876"><ele>241.5</ele><time>2026-04-17T15:27:43.233Z</time></trkpt><trkpt lat="43.054745" lon="13.4687433"><ele>240.25</ele><time>2026-04-17T15:27:44.233Z</time></trkpt><trkpt lat="43.0548867" lon="13.4687183"><ele>239.0</ele><time>2026-04-17T15:27:45.233Z</time></trkpt><trkpt lat="43.0550333" lon="13.4686933"><ele>239.0</ele><time>2026-04-17T15:27:46.233Z</time></trkpt><trkpt lat="43.0551733" lon="13.4686683"><ele>239.0</ele><time>2026-04-17T15:27:47.233Z</time></trkpt><trkpt lat="43.0553117" lon="13.46865"><ele>239.0</ele><time>2026-04-17T15:27:48.233Z</time></trkpt><trkpt lat="43.0554583" lon="13.4686533"><ele>239.0</ele><time>2026-04-17T15:27:49.233Z</time></trkpt><trkpt lat="43.055615" lon="13.468665"><ele>239.0</ele><time>2026-04-17T15:27:50.233Z</time></trkpt><trkpt lat="43.0557583" lon="13.4687183"><ele>239.0</ele><time>2026-04-17T15:27:51.233Z</time></trkpt><trkpt lat="43.0559017" lon="13.4688133"><ele>239.0</ele><time>2026-04-17T15:27:52.233Z</time></trkpt><trkpt lat="43.056045" lon="13.4689417"><ele>238.66666666666669</ele><time>2026-04-17T15:27:53.233Z</time></trkpt><trkpt lat="43.0561867" lon="13.4690833"><ele>238.33333333333331</ele><time>2026-04-17T15:27:54.233Z</time></trkpt><trkpt lat="43.0563133" lon="13.4692383"><ele>238.0</ele><time>2026-04-17T15:27:55.233Z</time></trkpt><trkpt lat="43.056435" lon="13.4693867"><ele>238.0</ele><time>2026-04-17T15:27:56.233Z</time></trkpt><trkpt lat="43.05656" lon="13.4695183"><ele>238.0</ele><time>2026-04-17T15:27:57.233Z</time></trkpt><trkpt lat="43.0566767" lon="13.4696617"><ele>238.0</ele><time>2026-04-17T15:27:58.233Z</time></trkpt><trkpt lat="43.0568" lon="13.4698"><ele>237.66666666666666</ele><time>2026-04-17T15:27:59.233Z</time></trkpt><trkpt lat="43.0569267" lon="13.4699333"><ele>237.33333333333331</ele><time>2026-04-17T15:28:00.233Z</time></trkpt><trkpt lat="43.0570517" lon="13.47009"><ele>237.0</ele><time>2026-04-17T15:28:01.233Z</time></trkpt><trkpt lat="43.057175" lon="13.47025"><ele>237.0</ele><time>2026-04-17T15:28:02.233Z</time></trkpt><trkpt lat="43.0573033" lon="13.4704"><ele>237.0</ele><time>2026-04-17T15:28:03.233Z</time></trkpt><trkpt lat="43.05743" lon="13.47054"><ele>237.0</ele><time>2026-04-17T15:28:04.233Z</time></trkpt><trkpt lat="43.05755" lon="13.4706817"><ele>237.0</ele><time>2026-04-17T15:28:05.233Z</time></trkpt><trkpt lat="43.0576633" lon="13.47082"><ele>237.0</ele><time>2026-04-17T15:28:06.233Z</time></trkpt><trkpt lat="43.0577767" lon="13.4709517"><ele>237.0</ele><time>2026-04-17T15:28:07.233Z</time></trkpt><trkpt lat="43.057895" lon="13.4710833"><ele>237.0</ele><time>2026-04-17T15:28:08.233Z</time></trkpt><trkpt lat="43.0580117" lon="13.4712033"><ele>237.0</ele><time>2026-04-17T15:28:09.233Z</time></trkpt><trkpt lat="43.058135" lon="13.4713333"><ele>237.0</ele><time>2026-04-17T15:28:10.233Z</time></trkpt><trkpt lat="43.0582633" lon="13.47145"><ele>236.66666666666669</ele><time>2026-04-17T15:28:11.233Z</time></trkpt><trkpt lat="43.0583983" lon="13.4715667"><ele>236.33333333333334</ele><time>2026-04-17T15:28:12.233Z</time></trkpt><trkpt lat="43.05853" lon="13.4716617"><ele>236.0</ele><time>2026-04-17T15:28:13.233Z</time></trkpt><trkpt lat="43.0586633" lon="13.47175"><ele>236.0</ele><time>2026-04-17T15:28:14.233Z</time></trkpt><trkpt lat="43.0588067" lon="13.4718283"><ele>236.0</ele><time>2026-04-17T15:28:15.233Z</time></trkpt><trkpt lat="43.058955" lon="13.4718833"><ele>236.0</ele><time>2026-04-17T15:28:16.233Z</time></trkpt><trkpt lat="43.0591117" lon="13.4719133"><ele>235.0</ele><time>2026-04-17T15:28:17.233Z</time></trkpt><trkpt lat="43.0592783" lon="13.4719233"><ele>234.0</ele><time>2026-04-17T15:28:18.233Z</time></trkpt><trkpt lat="43.059435" lon="13.4719133"><ele>233.0</ele><time>2026-04-17T15:28:19.233Z</time></trkpt><trkpt lat="43.05958" lon="13.4718767"><ele>233.0</ele><time>2026-04-17T15:28:20.233Z</time></trkpt><trkpt lat="43.0597317" lon="13.47183"><ele>233.0</ele><time>2026-04-17T15:28:21.233Z</time></trkpt><trkpt lat="43.0598817" lon="13.4717633"><ele>233.0</ele><time>2026-04-17T15:28:22.233Z</time></trkpt><trkpt lat="43.060025" lon="13.4716967"><ele>232.66666666666669</ele><time>2026-04-17T15:28:23.233Z</time></trkpt><trkpt lat="43.0601717" lon="13.4716217"><ele>232.33333333333331</ele><time>2026-04-17T15:28:24.233Z</time></trkpt><trkpt lat="43.0603167" lon="13.47154"><ele>232.0</ele><time>2026-04-17T15:28:25.233Z</time></trkpt><trkpt lat="43.0604683" lon="13.4714583"><ele>232.0</ele><time>2026-04-17T15:28:26.233Z</time></trkpt><trkpt lat="43.06062" lon="13.471375"><ele>232.0</ele><time>2026-04-17T15:28:27.233Z</time></trkpt><trkpt lat="43.0607583" lon="13.4712933"><ele>232.0</ele><time>2026-04-17T15:28:28.233Z</time></trkpt><trkpt lat="43.0608917" lon="13.47122"><ele>231.25</ele><time>2026-04-17T15:28:29.233Z</time></trkpt><trkpt lat="43.0610317" lon="13.4711417"><ele>230.5</ele><time>2026-04-17T15:28:30.233Z</time></trkpt><trkpt lat="43.0611617" lon="13.471075"><ele>229.75</ele><time>2026-04-17T15:28:31.233Z</time></trkpt><trkpt lat="43.0612833" lon="13.4710217"><ele>229.0</ele><time>2026-04-17T15:28:32.233Z</time></trkpt><trkpt lat="43.0614067" lon="13.4709933"><ele>229.0</ele><time>2026-04-17T15:28:33.233Z</time></trkpt><trkpt lat="43.06153" lon="13.470985"><ele>229.0</ele><time>2026-04-17T15:28:34.233Z</time></trkpt><trkpt lat="43.06164" lon="13.4710217"><ele>229.0</ele><time>2026-04-17T15:28:35.233Z</time></trkpt><trkpt lat="43.061735" lon="13.4710867"><ele>229.0</ele><time>2026-04-17T15:28:36.233Z</time></trkpt><trkpt lat="43.061825" lon="13.471195"><ele>230.75</ele><time>2026-04-17T15:28:37.233Z</time></trkpt><trkpt lat="43.061915" lon="13.47131"><ele>232.5</ele><time>2026-04-17T15:28:38.233Z</time></trkpt><trkpt lat="43.0620283" lon="13.471435"><ele>234.25</ele><time>2026-04-17T15:28:39.233Z</time></trkpt><trkpt lat="43.0621367" lon="13.4715433"><ele>236.0</ele><time>2026-04-17T15:28:40.233Z</time></trkpt><trkpt lat="43.0622617" lon="13.4716283"><ele>236.0</ele><time>2026-04-17T15:28:41.233Z</time></trkpt><trkpt lat="43.0624017" lon="13.471685"><ele>236.0</ele><time>2026-04-17T15:28:42.233Z</time></trkpt><trkpt lat="43.062555" lon="13.47172"><ele>236.0</ele><time>2026-04-17T15:28:43.233Z</time></trkpt><trkpt lat="43.06271" lon="13.4717467"><ele>233.0</ele><time>2026-04-17T15:28:44.233Z</time></trkpt><trkpt lat="43.062865" lon="13.4717817"><ele>230.0</ele><time>2026-04-17T15:28:45.233Z</time></trkpt><trkpt lat="43.0630333" lon="13.471805"><ele>227.0</ele><time>2026-04-17T15:28:46.233Z</time></trkpt><trkpt lat="43.0632033" lon="13.4718117"><ele>227.33333333333334</ele><time>2026-04-17T15:28:47.233Z</time></trkpt><trkpt lat="43.0633767" lon="13.471815"><ele>227.66666666666669</ele><time>2026-04-17T15:28:48.233Z</time></trkpt><trkpt lat="43.0635583" lon="13.4718033"><ele>228.0</ele><time>2026-04-17T15:28:49.233Z</time></trkpt><trkpt lat="43.0637517" lon="13.4717783"><ele>228.0</ele><time>2026-04-17T15:28:50.233Z</time></trkpt><trkpt lat="43.063935" lon="13.47172"><ele>228.0</ele><time>2026-04-17T15:28:51.233Z</time></trkpt><trkpt lat="43.0641083" lon="13.4716517"><ele>228.0</ele><time>2026-04-17T15:28:52.233Z</time></trkpt><trkpt lat="43.06427" lon="13.47157"><ele>228.66666666666669</ele><time>2026-04-17T15:28:53.233Z</time></trkpt><trkpt lat="43.0644367" lon="13.4714833"><ele>229.33333333333334</ele><time>2026-04-17T15:28:54.233Z</time></trkpt><trkpt lat="43.0645967" lon="13.4713883"><ele>230.0</ele><time>2026-04-17T15:28:55.233Z</time></trkpt><trkpt lat="43.06475" lon="13.471305"><ele>226.66666666666669</ele><time>2026-04-17T15:28:56.233Z</time></trkpt><trkpt lat="43.0649" lon="13.4712267"><ele>223.33333333333331</ele><time>2026-04-17T15:28:57.233Z</time></trkpt><trkpt lat="43.06504" lon="13.47115"><ele>220.0</ele><time>2026-04-17T15:28:58.233Z</time></trkpt><trkpt lat="43.0651867" lon="13.471095"><ele>220.0</ele><time>2026-04-17T15:28:59.233Z</time></trkpt><trkpt lat="43.0653267" lon="13.471085"><ele>220.0</ele><time>2026-04-17T15:29:00.233Z</time></trkpt><trkpt lat="43.0654617" lon="13.4711233"><ele>220.0</ele><time>2026-04-17T15:29:01.233Z</time></trkpt><trkpt lat="43.06562" lon="13.4712067"><ele>220.0</ele><time>2026-04-17T15:29:02.233Z</time></trkpt><trkpt lat="43.0657883" lon="13.471295"><ele>227.33333333333331</ele><time>2026-04-17T15:29:03.233Z</time></trkpt><trkpt lat="43.0659617" lon="13.4713633"><ele>234.66666666666669</ele><time>2026-04-17T15:29:04.233Z</time></trkpt><trkpt lat="43.0661317" lon="13.4714133"><ele>242.0</ele><time>2026-04-17T15:29:05.233Z</time></trkpt><trkpt lat="43.0663033" lon="13.4714683"><ele>242.0</ele><time>2026-04-17T15:29:06.233Z</time></trkpt><trkpt lat="43.0664733" lon="13.471515"><ele>242.0</ele><time>2026-04-17T15:29:07.233Z</time></trkpt><trkpt lat="43.0666433" lon="13.471555"><ele>242.0</ele><time>2026-04-17T15:29:08.233Z</time></trkpt><trkpt lat="43.0668033" lon="13.4715967"><ele>238.0</ele><time>2026-04-17T15:29:09.233Z</time></trkpt><trkpt lat="43.0669517" lon="13.4716167"><ele>234.0</ele><time>2026-04-17T15:29:10.233Z</time></trkpt><trkpt lat="43.0671083" lon="13.4716233"><ele>230.0</ele><time>2026-04-17T15:29:11.233Z</time></trkpt><trkpt lat="43.067265" lon="13.4716167"><ele>230.0</ele><time>2026-04-17T15:29:12.233Z</time></trkpt><trkpt lat="43.067405" lon="13.4715917"><ele>230.0</ele><time>2026-04-17T15:29:13.233Z</time></trkpt><trkpt lat="43.0675467" lon="13.4715917"><ele>230.0</ele><time>2026-04-17T15:29:14.233Z</time></trkpt><trkpt lat="43.0677083" lon="13.4715833"><ele>230.0</ele><time>2026-04-17T15:29:15.233Z</time></trkpt><trkpt lat="43.067865" lon="13.47158"><ele>231.0</ele><time>2026-04-17T15:29:16.233Z</time></trkpt><trkpt lat="43.068025" lon="13.4715667"><ele>232.0</ele><time>2026-04-17T15:29:17.233Z</time></trkpt><trkpt lat="43.06818" lon="13.4715633"><ele>233.0</ele><time>2026-04-17T15:29:18.233Z</time></trkpt><trkpt lat="43.0683367" lon="13.4715533"><ele>233.0</ele><time>2026-04-17T15:29:19.233Z</time></trkpt><trkpt lat="43.0684983" lon="13.4715433"><ele>233.0</ele><time>2026-04-17T15:29:20.233Z</time></trkpt><trkpt lat="43.0686467" lon="13.4715467"><ele>233.0</ele><time>2026-04-17T15:29:21.233Z</time></trkpt><trkpt lat="43.0688" lon="13.471555"><ele>233.0</ele><time>2026-04-17T15:29:22.233Z</time></trkpt><trkpt lat="43.0689583" lon="13.471565"><ele>233.0</ele><time>2026-04-17T15:29:23.233Z</time></trkpt><trkpt lat="43.06912" lon="13.4715817"><ele>233.0</ele><time>2026-04-17T15:29:24.233Z</time></trkpt><trkpt lat="43.06929" lon="13.4716017"><ele>232.0</ele><time>2026-04-17T15:29:25.233Z</time></trkpt><trkpt lat="43.0694633" lon="13.4715933"><ele>231.0</ele><time>2026-04-17T15:29:26.233Z</time></trkpt><trkpt lat="43.069635" lon="13.4716267"><ele>230.0</ele><time>2026-04-17T15:29:27.233Z</time></trkpt><trkpt lat="43.0698267" lon="13.4716217"><ele>228.0</ele><time>2026-04-17T15:29:28.233Z</time></trkpt><trkpt lat="43.0700033" lon="13.471665"><ele>226.0</ele><time>2026-04-17T15:29:29.233Z</time></trkpt><trkpt lat="43.0701767" lon="13.4717217"><ele>224.0</ele><time>2026-04-17T15:29:30.233Z</time></trkpt><trkpt lat="43.0703267" lon="13.4717467"><ele>224.0</ele><time>2026-04-17T15:29:31.233Z</time></trkpt><trkpt lat="43.0704667" lon="13.4718417"><ele>224.0</ele><time>2026-04-17T15:29:32.233Z</time></trkpt><trkpt lat="43.0706133" lon="13.4719667"><ele>224.0</ele><time>2026-04-17T15:29:33.233Z</time></trkpt><trkpt lat="43.070745" lon="13.4721133"><ele>229.66666666666669</ele><time>2026-04-17T15:29:34.233Z</time></trkpt><trkpt lat="43.0708867" lon="13.47227"><ele>235.33333333333331</ele><time>2026-04-17T15:29:35.233Z</time></trkpt><trkpt lat="43.0710267" lon="13.472415"><ele>241.0</ele><time>2026-04-17T15:29:36.233Z</time></trkpt><trkpt lat="43.0711817" lon="13.4725883"><ele>241.0</ele><time>2026-04-17T15:29:37.233Z</time></trkpt><trkpt lat="43.0713367" lon="13.4727483"><ele>241.0</ele><time>2026-04-17T15:29:38.233Z</time></trkpt><trkpt lat="43.071475" lon="13.4728783"><ele>241.0</ele><time>2026-04-17T15:29:39.233Z</time></trkpt><trkpt lat="43.071605" lon="13.4730067"><ele>239.33333333333331</ele><time>2026-04-17T15:29:40.233Z</time></trkpt><trkpt lat="43.0717317" lon="13.4731367"><ele>237.66666666666669</ele><time>2026-04-17T15:29:41.233Z</time></trkpt><trkpt lat="43.0718383" lon="13.473285"><ele>236.0</ele><time>2026-04-17T15:29:42.233Z</time></trkpt><trkpt lat="43.0719517" lon="13.47342"><ele>236.0</ele><time>2026-04-17T15:29:43.233Z</time></trkpt><trkpt lat="43.0720783" lon="13.4735683"><ele>236.0</ele><time>2026-04-17T15:29:44.233Z</time></trkpt><trkpt lat="43.0722133" lon="13.4737083"><ele>236.0</ele><time>2026-04-17T15:29:45.233Z</time></trkpt><trkpt lat="43.07235" lon="13.473845"><ele>230.66666666666669</ele><time>2026-04-17T15:29:46.233Z</time></trkpt><trkpt lat="43.0724783" lon="13.47397"><ele>225.33333333333331</ele><time>2026-04-17T15:29:47.233Z</time></trkpt><trkpt lat="43.0726083" lon="13.4740917"><ele>220.0</ele><time>2026-04-17T15:29:48.233Z</time></trkpt><trkpt lat="43.0727383" lon="13.47422"><ele>220.0</ele><time>2026-04-17T15:29:49.233Z</time></trkpt><trkpt lat="43.0728683" lon="13.4743567"><ele>220.0</ele><time>2026-04-17T15:29:50.233Z</time></trkpt><trkpt lat="43.073" lon="13.47449"><ele>220.0</ele><time>2026-04-17T15:29:51.233Z</time></trkpt><trkpt lat="43.073115" lon="13.4746533"><ele>219.33333333333331</ele><time>2026-04-17T15:29:52.233Z</time></trkpt><trkpt lat="43.0732167" lon="13.474845"><ele>218.66666666666669</ele><time>2026-04-17T15:29:53.233Z</time></trkpt><trkpt lat="43.0733033" lon="13.4750483"><ele>218.0</ele><time>2026-04-17T15:29:54.233Z</time></trkpt><trkpt lat="43.0733667" lon="13.4752667"><ele>219.66666666666669</ele><time>2026-04-17T15:29:55.233Z</time></trkpt><trkpt lat="43.0734083" lon="13.4755033"><ele>221.33333333333331</ele><time>2026-04-17T15:29:56.233Z</time></trkpt><trkpt lat="43.07344" lon="13.4757417"><ele>223.0</ele><time>2026-04-17T15:29:57.233Z</time></trkpt><trkpt lat="43.0734783" lon="13.47597"><ele>223.0</ele><time>2026-04-17T15:29:58.233Z</time></trkpt><trkpt lat="43.0735133" lon="13.47619"><ele>223.0</ele><time>2026-04-17T15:29:59.233Z</time></trkpt><trkpt lat="43.073545" lon="13.4763883"><ele>223.0</ele><time>2026-04-17T15:30:00.233Z</time></trkpt><trkpt lat="43.073585" lon="13.4766033"><ele>223.5</ele><time>2026-04-17T15:30:01.233Z</time></trkpt><trkpt lat="43.073615" lon="13.4768233"><ele>224.0</ele><time>2026-04-17T15:30:02.233Z</time></trkpt><trkpt lat="43.0736367" lon="13.477025"><ele>224.5</ele><time>2026-04-17T15:30:03.233Z</time></trkpt><trkpt lat="43.073645" lon="13.4772067"><ele>225.0</ele><time>2026-04-17T15:30:04.233Z</time></trkpt><trkpt lat="43.0736233" lon="13.4773783"><ele>226.0</ele><time>2026-04-17T15:30:05.233Z</time></trkpt><trkpt lat="43.0735733" lon="13.4775533"><ele>227.0</ele><time>2026-04-17T15:30:06.233Z</time></trkpt><trkpt lat="43.073515" lon="13.4777333"><ele>228.0</ele><time>2026-04-17T15:30:07.233Z</time></trkpt><trkpt lat="43.07347" lon="13.4779283"><ele>229.0</ele><time>2026-04-17T15:30:08.233Z</time></trkpt><trkpt lat="43.0734517" lon="13.4781467"><ele>229.0</ele><time>2026-04-17T15:30:09.233Z</time></trkpt><trkpt lat="43.0734533" lon="13.4783983"><ele>229.0</ele><time>2026-04-17T15:30:10.233Z</time></trkpt><trkpt lat="43.0734717" lon="13.4786383"><ele>229.0</ele><time>2026-04-17T15:30:11.233Z</time></trkpt><trkpt lat="43.0735233" lon="13.478885"><ele>230.66666666666666</ele><time>2026-04-17T15:30:12.233Z</time></trkpt><trkpt lat="43.0735833" lon="13.4791183"><ele>232.33333333333331</ele><time>2026-04-17T15:30:13.233Z</time></trkpt><trkpt lat="43.0736467" lon="13.479335"><ele>234.0</ele><time>2026-04-17T15:30:14.233Z</time></trkpt><trkpt lat="43.0737133" lon="13.4795267"><ele>235.0</ele><time>2026-04-17T15:30:15.233Z</time></trkpt><trkpt lat="43.0738033" lon="13.47971"><ele>236.0</ele><time>2026-04-17T15:30:16.233Z</time></trkpt><trkpt lat="43.073915" lon="13.47989"><ele>237.0</ele><time>2026-04-17T15:30:17.233Z</time></trkpt><trkpt lat="43.0740283" lon="13.4800717"><ele>233.0</ele><time>2026-04-17T15:30:18.233Z</time></trkpt><trkpt lat="43.074135" lon="13.4802483"><ele>229.0</ele><time>2026-04-17T15:30:19.233Z</time></trkpt><trkpt lat="43.0742367" lon="13.480415"><ele>225.0</ele><time>2026-04-17T15:30:20.232Z</time></trkpt><trkpt lat="43.0743367" lon="13.4805833"><ele>225.0</ele><time>2026-04-17T15:30:21.232Z</time></trkpt><trkpt lat="43.074445" lon="13.48074"><ele>225.0</ele><time>2026-04-17T15:30:22.232Z</time></trkpt><trkpt lat="43.0745367" lon="13.4808883"><ele>225.0</ele><time>2026-04-17T15:30:23.232Z</time></trkpt><trkpt lat="43.0746133" lon="13.4810333"><ele>225.0</ele><time>2026-04-17T15:30:24.232Z</time></trkpt><trkpt lat="43.0746783" lon="13.4811883"><ele>225.75</ele><time>2026-04-17T15:30:25.232Z</time></trkpt><trkpt lat="43.0747067" lon="13.481355"><ele>226.5</ele><time>2026-04-17T15:30:26.232Z</time></trkpt><trkpt lat="43.0747" lon="13.4815433"><ele>227.25</ele><time>2026-04-17T15:30:27.232Z</time></trkpt><trkpt lat="43.074665" lon="13.4817233"><ele>228.0</ele><time>2026-04-17T15:30:28.232Z</time></trkpt><trkpt lat="43.074625" lon="13.4818967"><ele>228.0</ele><time>2026-04-17T15:30:29.231Z</time></trkpt><trkpt lat="43.0746117" lon="13.48208"><ele>228.0</ele><time>2026-04-17T15:30:30.232Z</time></trkpt><trkpt lat="43.0746283" lon="13.4822833"><ele>228.0</ele><time>2026-04-17T15:30:31.232Z</time></trkpt><trkpt lat="43.0746817" lon="13.482485"><ele>228.0</ele><time>2026-04-17T15:30:32.232Z</time></trkpt><trkpt lat="43.074755" lon="13.4827067"><ele>227.33333333333331</ele><time>2026-04-17T15:30:33.232Z</time></trkpt><trkpt lat="43.0748333" lon="13.482905"><ele>226.66666666666666</ele><time>2026-04-17T15:30:34.232Z</time></trkpt><trkpt lat="43.0749067" lon="13.48309"><ele>226.0</ele><time>2026-04-17T15:30:35.232Z</time></trkpt><trkpt lat="43.0749833" lon="13.483275"><ele>226.33333333333331</ele><time>2026-04-17T15:30:36.232Z</time></trkpt><trkpt lat="43.07506" lon="13.483465"><ele>226.66666666666669</ele><time>2026-04-17T15:30:37.232Z</time></trkpt><trkpt lat="43.0751433" lon="13.4836667"><ele>227.0</ele><time>2026-04-17T15:30:38.232Z</time></trkpt><trkpt lat="43.0752267" lon="13.48385"><ele>227.0</ele><time>2026-04-17T15:30:39.232Z</time></trkpt><trkpt lat="43.0753317" lon="13.4840317"><ele>227.0</ele><time>2026-04-17T15:30:40.232Z</time></trkpt><trkpt lat="43.07542" lon="13.484225"><ele>227.0</ele><time>2026-04-17T15:30:41.232Z</time></trkpt><trkpt lat="43.0755267" lon="13.484425"><ele>227.0</ele><time>2026-04-17T15:30:42.232Z</time></trkpt><trkpt lat="43.0756283" lon="13.4846117"><ele>227.0</ele><time>2026-04-17T15:30:43.232Z</time></trkpt><trkpt lat="43.075725" lon="13.4847883"><ele>227.0</ele><time>2026-04-17T15:30:44.232Z</time></trkpt><trkpt lat="43.07583" lon="13.4849817"><ele>226.33333333333334</ele><time>2026-04-17T15:30:45.232Z</time></trkpt><trkpt lat="43.0759317" lon="13.4851633"><ele>225.66666666666669</ele><time>2026-04-17T15:30:46.232Z</time></trkpt><trkpt lat="43.076025" lon="13.4853433"><ele>225.0</ele><time>2026-04-17T15:30:47.232Z</time></trkpt><trkpt lat="43.076115" lon="13.48552"><ele>224.66666666666669</ele><time>2026-04-17T15:30:48.232Z</time></trkpt><trkpt lat="43.076205" lon="13.4856933"><ele>224.33333333333334</ele><time>2026-04-17T15:30:49.232Z</time></trkpt><trkpt lat="43.0762967" lon="13.4858583"><ele>224.0</ele><time>2026-04-17T15:30:50.232Z</time></trkpt><trkpt lat="43.0763917" lon="13.4860383"><ele>224.0</ele><time>2026-04-17T15:30:51.232Z</time></trkpt><trkpt lat="43.0764933" lon="13.4862167"><ele>224.0</ele><time>2026-04-17T15:30:52.232Z</time></trkpt><trkpt lat="43.0765883" lon="13.4863817"><ele>224.0</ele><time>2026-04-17T15:30:53.232Z</time></trkpt><trkpt lat="43.0766833" lon="13.486555"><ele>224.0</ele><time>2026-04-17T15:30:54.232Z</time></trkpt><trkpt lat="43.0767717" lon="13.4867417"><ele>224.0</ele><time>2026-04-17T15:30:55.232Z</time></trkpt><trkpt lat="43.07686" lon="13.4869117"><ele>224.0</ele><time>2026-04-17T15:30:56.232Z</time></trkpt><trkpt lat="43.07696" lon="13.4870917"><ele>224.33333333333334</ele><time>2026-04-17T15:30:57.232Z</time></trkpt><trkpt lat="43.0770517" lon="13.4872617"><ele>224.66666666666669</ele><time>2026-04-17T15:30:58.232Z</time></trkpt><trkpt lat="43.0771533" lon="13.487445"><ele>225.0</ele><time>2026-04-17T15:30:59.232Z</time></trkpt><trkpt lat="43.077255" lon="13.4876217"><ele>225.0</ele><time>2026-04-17T15:31:00.232Z</time></trkpt><trkpt lat="43.07735" lon="13.487795"><ele>225.0</ele><time>2026-04-17T15:31:01.232Z</time></trkpt><trkpt lat="43.0774333" lon="13.4879667"><ele>225.0</ele><time>2026-04-17T15:31:02.232Z</time></trkpt><trkpt lat="43.0775233" lon="13.48813"><ele>225.0</ele><time>2026-04-17T15:31:03.232Z</time></trkpt><trkpt lat="43.07762" lon="13.4883033"><ele>225.0</ele><time>2026-04-17T15:31:04.232Z</time></trkpt><trkpt lat="43.07771" lon="13.4884783"><ele>225.0</ele><time>2026-04-17T15:31:05.232Z</time></trkpt><trkpt lat="43.077805" lon="13.488645"><ele>225.33333333333331</ele><time>2026-04-17T15:31:06.232Z</time></trkpt><trkpt lat="43.0779083" lon="13.4888017"><ele>225.66666666666666</ele><time>2026-04-17T15:31:07.231Z</time></trkpt><trkpt lat="43.078025" lon="13.488955"><ele>226.0</ele><time>2026-04-17T15:31:08.232Z</time></trkpt><trkpt lat="43.0781667" lon="13.4890783"><ele>224.66666666666666</ele><time>2026-04-17T15:31:09.232Z</time></trkpt><trkpt lat="43.0783017" lon="13.4892067"><ele>223.33333333333331</ele><time>2026-04-17T15:31:10.232Z</time></trkpt><trkpt lat="43.0784533" lon="13.4893283"><ele>222.0</ele><time>2026-04-17T15:31:11.232Z</time></trkpt><trkpt lat="43.0786183" lon="13.48943"><ele>222.0</ele><time>2026-04-17T15:31:12.232Z</time></trkpt><trkpt lat="43.0787867" lon="13.4895183"><ele>222.0</ele><time>2026-04-17T15:31:13.232Z</time></trkpt><trkpt lat="43.0789567" lon="13.4895983"><ele>222.0</ele><time>2026-04-17T15:31:14.232Z</time></trkpt><trkpt lat="43.0791167" lon="13.4896683"><ele>221.66666666666669</ele><time>2026-04-17T15:31:15.229Z</time></trkpt><trkpt lat="43.0792667" lon="13.48973"><ele>221.33333333333334</ele><time>2026-04-17T15:31:16.232Z</time></trkpt><trkpt lat="43.07941" lon="13.4897867"><ele>221.0</ele><time>2026-04-17T15:31:17.232Z</time></trkpt><trkpt lat="43.0795533" lon="13.4898533"><ele>221.0</ele><time>2026-04-17T15:31:18.232Z</time></trkpt><trkpt lat="43.079685" lon="13.489905"><ele>221.0</ele><time>2026-04-17T15:31:19.232Z</time></trkpt><trkpt lat="43.0798117" lon="13.4899783"><ele>221.0</ele><time>2026-04-17T15:31:20.232Z</time></trkpt><trkpt lat="43.0799517" lon="13.49006"><ele>221.0</ele><time>2026-04-17T15:31:21.232Z</time></trkpt><trkpt lat="43.0800917" lon="13.4901333"><ele>220.25</ele><time>2026-04-17T15:31:22.232Z</time></trkpt><trkpt lat="43.08023" lon="13.4902267"><ele>219.5</ele><time>2026-04-17T15:31:23.232Z</time></trkpt><trkpt lat="43.08036" lon="13.4903233"><ele>218.75</ele><time>2026-04-17T15:31:24.232Z</time></trkpt><trkpt lat="43.0804833" lon="13.490405"><ele>218.0</ele><time>2026-04-17T15:31:25.232Z</time></trkpt><trkpt lat="43.080605" lon="13.4904867"><ele>217.75</ele><time>2026-04-17T15:31:26.232Z</time></trkpt><trkpt lat="43.0807117" lon="13.4905717"><ele>217.5</ele><time>2026-04-17T15:31:27.232Z</time></trkpt><trkpt lat="43.0808317" lon="13.4906617"><ele>217.25</ele><time>2026-04-17T15:31:28.232Z</time></trkpt><trkpt lat="43.08095" lon="13.4907617"><ele>217.0</ele><time>2026-04-17T15:31:29.232Z</time></trkpt><trkpt lat="43.0810583" lon="13.4908483"><ele>217.0</ele><time>2026-04-17T15:31:30.232Z</time></trkpt><trkpt lat="43.0811583" lon="13.49093"><ele>217.0</ele><time>2026-04-17T15:31:31.232Z</time></trkpt><trkpt lat="43.081265" lon="13.491015"><ele>217.0</ele><time>2026-04-17T15:31:32.232Z</time></trkpt><trkpt lat="43.081365" lon="13.4910933"><ele>217.0</ele><time>2026-04-17T15:31:33.232Z</time></trkpt><trkpt lat="43.081455" lon="13.4911733"><ele>217.0</ele><time>2026-04-17T15:31:34.232Z</time></trkpt><trkpt lat="43.0815533" lon="13.491255"><ele>217.0</ele><time>2026-04-17T15:31:35.232Z</time></trkpt><trkpt lat="43.081645" lon="13.491335"><ele>217.0</ele><time>2026-04-17T15:31:36.232Z</time></trkpt><trkpt lat="43.08173" lon="13.49144"><ele>217.0</ele><time>2026-04-17T15:31:37.232Z</time></trkpt><trkpt lat="43.0817983" lon="13.4915767"><ele>216.6</ele><time>2026-04-17T15:31:38.232Z</time></trkpt><trkpt lat="43.0818433" lon="13.4917283"><ele>216.2</ele><time>2026-04-17T15:31:39.232Z</time></trkpt><trkpt lat="43.0818867" lon="13.4918617"><ele>215.8</ele><time>2026-04-17T15:31:40.232Z</time></trkpt><trkpt lat="43.0819267" lon="13.491995"><ele>215.4</ele><time>2026-04-17T15:31:41.232Z</time></trkpt><trkpt lat="43.0819633" lon="13.492115"><ele>215.0</ele><time>2026-04-17T15:31:42.232Z</time></trkpt><trkpt lat="43.0819967" lon="13.4922233"><ele>214.8</ele><time>2026-04-17T15:31:43.232Z</time></trkpt><trkpt lat="43.0820217" lon="13.492305"><ele>214.6</ele><time>2026-04-17T15:31:44.232Z</time></trkpt><trkpt lat="43.0820767" lon="13.4924533"><ele>214.39999999999998</ele><time>2026-04-17T15:31:46.231Z</time></trkpt><trkpt lat="43.08214" lon="13.4926"><ele>214.2</ele><time>2026-04-17T15:31:48.232Z</time></trkpt><trkpt lat="43.082175" lon="13.4926817"><ele>214.0</ele><time>2026-04-17T15:31:49.232Z</time></trkpt><trkpt lat="43.082215" lon="13.4927833"><ele>214.0</ele><time>2026-04-17T15:31:50.232Z</time></trkpt><trkpt lat="43.0822567" lon="13.4929033"><ele>213.99999999999997</ele><time>2026-04-17T15:31:51.232Z</time></trkpt><trkpt lat="43.0822983" lon="13.4930333"><ele>213.99999999999997</ele><time>2026-04-17T15:31:52.232Z</time></trkpt><trkpt lat="43.08235" lon="13.4931817"><ele>214.0</ele><time>2026-04-17T15:31:53.232Z</time></trkpt><trkpt lat="43.08241" lon="13.493335"><ele>214.0</ele><time>2026-04-17T15:31:54.232Z</time></trkpt><trkpt lat="43.0824667" lon="13.4934983"><ele>213.5</ele><time>2026-04-17T15:31:55.232Z</time></trkpt><trkpt lat="43.0825283" lon="13.493665"><ele>213.0</ele><time>2026-04-17T15:31:56.232Z</time></trkpt><trkpt lat="43.08258" lon="13.49383"><ele>212.5</ele><time>2026-04-17T15:31:57.232Z</time></trkpt><trkpt lat="43.0826533" lon="13.4939983"><ele>212.0</ele><time>2026-04-17T15:31:58.232Z</time></trkpt><trkpt lat="43.082705" lon="13.4941683"><ele>212.0</ele><time>2026-04-17T15:31:59.232Z</time></trkpt><trkpt lat="43.082755" lon="13.4943183"><ele>212.0</ele><time>2026-04-17T15:32:00.232Z</time></trkpt><trkpt lat="43.0828133" lon="13.4944667"><ele>212.0</ele><time>2026-04-17T15:32:01.232Z</time></trkpt><trkpt lat="43.0828633" lon="13.4946167"><ele>212.0</ele><time>2026-04-17T15:32:02.232Z</time></trkpt><trkpt lat="43.082915" lon="13.4947717"><ele>212.0</ele><time>2026-04-17T15:32:03.232Z</time></trkpt><trkpt lat="43.0829767" lon="13.4949317"><ele>212.0</ele><time>2026-04-17T15:32:04.232Z</time></trkpt><trkpt lat="43.08304" lon="13.4950967"><ele>212.0</ele><time>2026-04-17T15:32:05.232Z</time></trkpt><trkpt lat="43.0831017" lon="13.4952583"><ele>212.0</ele><time>2026-04-17T15:32:06.232Z</time></trkpt><trkpt lat="43.0831617" lon="13.495435"><ele>212.0</ele><time>2026-04-17T15:32:07.232Z</time></trkpt><trkpt lat="43.0832167" lon="13.49561"><ele>212.0</ele><time>2026-04-17T15:32:08.232Z</time></trkpt><trkpt lat="43.0832817" lon="13.495775"><ele>212.0</ele><time>2026-04-17T15:32:09.232Z</time></trkpt><trkpt lat="43.08334" lon="13.4959367"><ele>212.0</ele><time>2026-04-17T15:32:10.232Z</time></trkpt><trkpt lat="43.0833917" lon="13.4961"><ele>210.75</ele><time>2026-04-17T15:32:11.232Z</time></trkpt><trkpt lat="43.0834517" lon="13.4962733"><ele>209.5</ele><time>2026-04-17T15:32:12.232Z</time></trkpt><trkpt lat="43.08351" lon="13.4964517"><ele>208.25</ele><time>2026-04-17T15:32:13.231Z</time></trkpt><trkpt lat="43.083575" lon="13.496635"><ele>207.0</ele><time>2026-04-17T15:32:14.232Z</time></trkpt><trkpt lat="43.0836417" lon="13.4968217"><ele>207.0</ele><time>2026-04-17T15:32:15.232Z</time></trkpt><trkpt lat="43.08371" lon="13.4969917"><ele>207.0</ele><time>2026-04-17T15:32:16.232Z</time></trkpt><trkpt lat="43.0837933" lon="13.4971567"><ele>207.0</ele><time>2026-04-17T15:32:17.232Z</time></trkpt><trkpt lat="43.08389" lon="13.4973233"><ele>207.0</ele><time>2026-04-17T15:32:18.232Z</time></trkpt><trkpt lat="43.0840017" lon="13.4974833"><ele>204.0</ele><time>2026-04-17T15:32:19.232Z</time></trkpt><trkpt lat="43.0841333" lon="13.49762"><ele>201.0</ele><time>2026-04-17T15:32:20.232Z</time></trkpt><trkpt lat="43.0842683" lon="13.4977367"><ele>198.0</ele><time>2026-04-17T15:32:21.232Z</time></trkpt><trkpt lat="43.084405" lon="13.49783"><ele>198.0</ele><time>2026-04-17T15:32:22.232Z</time></trkpt><trkpt lat="43.0845417" lon="13.4979067"><ele>198.0</ele><time>2026-04-17T15:32:23.232Z</time></trkpt><trkpt lat="43.084685" lon="13.497965"><ele>198.0</ele><time>2026-04-17T15:32:24.232Z</time></trkpt><trkpt lat="43.084835" lon="13.4980017"><ele>195.25</ele><time>2026-04-17T15:32:25.232Z</time></trkpt><trkpt lat="43.084985" lon="13.4980217"><ele>192.5</ele><time>2026-04-17T15:32:26.232Z</time></trkpt><trkpt lat="43.0851333" lon="13.4980367"><ele>189.75</ele><time>2026-04-17T15:32:27.232Z</time></trkpt><trkpt lat="43.0852783" lon="13.4980417"><ele>187.0</ele><time>2026-04-17T15:32:28.232Z</time></trkpt><trkpt lat="43.085425" lon="13.4980433"><ele>187.0</ele><time>2026-04-17T15:32:29.232Z</time></trkpt><trkpt lat="43.0855767" lon="13.49804"><ele>187.0</ele><time>2026-04-17T15:32:30.232Z</time></trkpt><trkpt lat="43.08572" lon="13.49804"><ele>187.0</ele><time>2026-04-17T15:32:31.232Z</time></trkpt><trkpt lat="43.0858633" lon="13.49804"><ele>187.0</ele><time>2026-04-17T15:32:32.232Z</time></trkpt><trkpt lat="43.0860117" lon="13.49804"><ele>186.0</ele><time>2026-04-17T15:32:33.232Z</time></trkpt><trkpt lat="43.086165" lon="13.4980417"><ele>185.0</ele><time>2026-04-17T15:32:34.232Z</time></trkpt><trkpt lat="43.0863133" lon="13.498035"><ele>184.0</ele><time>2026-04-17T15:32:35.232Z</time></trkpt><trkpt lat="43.0864583" lon="13.4980233"><ele>183.0</ele><time>2026-04-17T15:32:36.232Z</time></trkpt><trkpt lat="43.086595" lon="13.49803"><ele>183.0</ele><time>2026-04-17T15:32:37.232Z</time></trkpt><trkpt lat="43.0867433" lon="13.4980283"><ele>183.0</ele><time>2026-04-17T15:32:38.232Z</time></trkpt><trkpt lat="43.08689" lon="13.4980217"><ele>183.0</ele><time>2026-04-17T15:32:39.232Z</time></trkpt><trkpt lat="43.0870317" lon="13.4980233"><ele>183.0</ele><time>2026-04-17T15:32:40.232Z</time></trkpt><trkpt lat="43.0871733" lon="13.4980283"><ele>183.0</ele><time>2026-04-17T15:32:41.232Z</time></trkpt><trkpt lat="43.087325" lon="13.4980233"><ele>183.0</ele><time>2026-04-17T15:32:42.232Z</time></trkpt><trkpt lat="43.0874733" lon="13.4980217"><ele>183.0</ele><time>2026-04-17T15:32:43.232Z</time></trkpt><trkpt lat="43.0876267" lon="13.4980117"><ele>185.0</ele><time>2026-04-17T15:32:44.231Z</time></trkpt><trkpt lat="43.087775" lon="13.4979917"><ele>187.0</ele><time>2026-04-17T15:32:45.232Z</time></trkpt><trkpt lat="43.0879317" lon="13.497955"><ele>189.0</ele><time>2026-04-17T15:32:46.232Z</time></trkpt><trkpt lat="43.0880867" lon="13.4978967"><ele>190.33333333333331</ele><time>2026-04-17T15:32:47.232Z</time></trkpt><trkpt lat="43.08824" lon="13.497815"><ele>191.66666666666666</ele><time>2026-04-17T15:32:48.232Z</time></trkpt><trkpt lat="43.0883967" lon="13.4977267"><ele>193.0</ele><time>2026-04-17T15:32:49.232Z</time></trkpt><trkpt lat="43.088545" lon="13.497605"><ele>193.0</ele><time>2026-04-17T15:32:50.232Z</time></trkpt><trkpt lat="43.0886883" lon="13.497475"><ele>193.0</ele><time>2026-04-17T15:32:51.232Z</time></trkpt><trkpt lat="43.0888283" lon="13.497345"><ele>193.0</ele><time>2026-04-17T15:32:52.232Z</time></trkpt><trkpt lat="43.088955" lon="13.4972133"><ele>193.33333333333331</ele><time>2026-04-17T15:32:53.232Z</time></trkpt><trkpt lat="43.0890867" lon="13.497075"><ele>193.66666666666669</ele><time>2026-04-17T15:32:54.232Z</time></trkpt><trkpt lat="43.08921" lon="13.496955"><ele>194.0</ele><time>2026-04-17T15:32:55.232Z</time></trkpt><trkpt lat="43.0893317" lon="13.4968267"><ele>194.75</ele><time>2026-04-17T15:32:56.232Z</time></trkpt><trkpt lat="43.0894517" lon="13.49671"><ele>195.5</ele><time>2026-04-17T15:32:57.232Z</time></trkpt><trkpt lat="43.08957" lon="13.4966017"><ele>196.25</ele><time>2026-04-17T15:32:58.232Z</time></trkpt><trkpt lat="43.0896867" lon="13.49648"><ele>197.0</ele><time>2026-04-17T15:32:59.232Z</time></trkpt><trkpt lat="43.0897967" lon="13.49636"><ele>197.33333333333334</ele><time>2026-04-17T15:33:00.232Z</time></trkpt><trkpt lat="43.0899217" lon="13.4962417"><ele>197.66666666666669</ele><time>2026-04-17T15:33:01.232Z</time></trkpt><trkpt lat="43.0900433" lon="13.4961183"><ele>198.0</ele><time>2026-04-17T15:33:02.232Z</time></trkpt><trkpt lat="43.0901667" lon="13.4959983"><ele>200.0</ele><time>2026-04-17T15:33:03.232Z</time></trkpt><trkpt lat="43.0902933" lon="13.4958767"><ele>202.0</ele><time>2026-04-17T15:33:04.232Z</time></trkpt><trkpt lat="43.090425" lon="13.4957567"><ele>204.0</ele><time>2026-04-17T15:33:05.232Z</time></trkpt><trkpt lat="43.0905383" lon="13.4956483"><ele>204.0</ele><time>2026-04-17T15:33:06.232Z</time></trkpt><trkpt lat="43.0906483" lon="13.4955467"><ele>204.0</ele><time>2026-04-17T15:33:07.232Z</time></trkpt><trkpt lat="43.0907583" lon="13.4954417"><ele>204.0</ele><time>2026-04-17T15:33:08.232Z</time></trkpt><trkpt lat="43.0908583" lon="13.495335"><ele>204.0</ele><time>2026-04-17T15:33:09.232Z</time></trkpt><trkpt lat="43.0909633" lon="13.4952367"><ele>206.0</ele><time>2026-04-17T15:33:10.232Z</time></trkpt><trkpt lat="43.0910633" lon="13.49514"><ele>208.0</ele><time>2026-04-17T15:33:11.232Z</time></trkpt><trkpt lat="43.0911583" lon="13.4950567"><ele>210.0</ele><time>2026-04-17T15:33:12.232Z</time></trkpt><trkpt lat="43.0912633" lon="13.4949767"><ele>212.0</ele><time>2026-04-17T15:33:13.232Z</time></trkpt><trkpt lat="43.0913767" lon="13.4949033"><ele>212.0</ele><time>2026-04-17T15:33:14.232Z</time></trkpt><trkpt lat="43.0914967" lon="13.4948367"><ele>212.0</ele><time>2026-04-17T15:33:15.232Z</time></trkpt><trkpt lat="43.0916217" lon="13.4947783"><ele>212.0</ele><time>2026-04-17T15:33:16.232Z</time></trkpt><trkpt lat="43.09175" lon="13.4947267"><ele>212.0</ele><time>2026-04-17T15:33:17.232Z</time></trkpt><trkpt lat="43.0918767" lon="13.49469"><ele>212.25</ele><time>2026-04-17T15:33:18.232Z</time></trkpt><trkpt lat="43.0919983" lon="13.4946733"><ele>212.5</ele><time>2026-04-17T15:33:19.232Z</time></trkpt><trkpt lat="43.0921117" lon="13.4946733"><ele>212.75</ele><time>2026-04-17T15:33:20.232Z</time></trkpt><trkpt lat="43.0922183" lon="13.4946783"><ele>213.0</ele><time>2026-04-17T15:33:21.232Z</time></trkpt><trkpt lat="43.09233" lon="13.494685"><ele>213.25</ele><time>2026-04-17T15:33:22.232Z</time></trkpt><trkpt lat="43.0924483" lon="13.4947067"><ele>213.5</ele><time>2026-04-17T15:33:23.232Z</time></trkpt><trkpt lat="43.0925667" lon="13.494735"><ele>213.75</ele><time>2026-04-17T15:33:24.232Z</time></trkpt><trkpt lat="43.0926783" lon="13.4947683"><ele>214.0</ele><time>2026-04-17T15:33:25.232Z</time></trkpt><trkpt lat="43.0927883" lon="13.4947967"><ele>214.0</ele><time>2026-04-17T15:33:26.232Z</time></trkpt><trkpt lat="43.0928933" lon="13.4948383"><ele>213.99999999999997</ele><time>2026-04-17T15:33:27.232Z</time></trkpt><trkpt lat="43.0929983" lon="13.4948867"><ele>213.99999999999997</ele><time>2026-04-17T15:33:28.232Z</time></trkpt><trkpt lat="43.09309" lon="13.4949167"><ele>214.0</ele><time>2026-04-17T15:33:29.232Z</time></trkpt><trkpt lat="43.093155" lon="13.4949333"><ele>214.0</ele><time>2026-04-17T15:33:30.232Z</time></trkpt><trkpt lat="43.0932283" lon="13.4949467"><ele>213.79999999999998</ele><time>2026-04-17T15:33:32.232Z</time></trkpt><trkpt lat="43.0933167" lon="13.49497"><ele>213.59999999999997</ele><time>2026-04-17T15:33:34.232Z</time></trkpt><trkpt lat="43.0934417" lon="13.4949933"><ele>213.4</ele><time>2026-04-17T15:33:36.232Z</time></trkpt><trkpt lat="43.0935567" lon="13.4949783"><ele>213.2</ele><time>2026-04-17T15:33:38.232Z</time></trkpt><trkpt lat="43.093625" lon="13.4949633"><ele>213.0</ele><time>2026-04-17T15:33:40.232Z</time></trkpt><trkpt lat="43.093695" lon="13.4949817"><ele>213.0</ele><time>2026-04-17T16:17:18.224Z</time></trkpt><trkpt lat="43.0937633" lon="13.4950683"><ele>213.0</ele><time>2026-04-17T16:17:24.224Z</time></trkpt><trkpt lat="43.0938367" lon="13.49511"><ele>213.0</ele><time>2026-04-17T16:17:25.224Z</time></trkpt><trkpt lat="43.0939333" lon="13.49515"><ele>213.0</ele><time>2026-04-17T16:17:26.224Z</time></trkpt><trkpt lat="43.0940433" lon="13.4952033"><ele>213.0</ele><time>2026-04-17T16:17:27.224Z</time></trkpt><trkpt lat="43.094155" lon="13.49525"><ele>213.0</ele><time>2026-04-17T16:17:28.224Z</time></trkpt><trkpt lat="43.09427" lon="13.495295"><ele>213.0</ele><time>2026-04-17T16:17:29.224Z</time></trkpt><trkpt lat="43.0943717" lon="13.4953167"><ele>213.0</ele><time>2026-04-17T16:17:30.224Z</time></trkpt><trkpt lat="43.0944717" lon="13.495355"><ele>213.0</ele><time>2026-04-17T16:17:31.224Z</time></trkpt><trkpt lat="43.0945617" lon="13.4953917"><ele>213.0</ele><time>2026-04-17T16:17:32.224Z</time></trkpt><trkpt lat="43.0946467" lon="13.495425"><ele>213.0</ele><time>2026-04-17T16:17:33.224Z</time></trkpt><trkpt lat="43.0947283" lon="13.495445"><ele>213.0</ele><time>2026-04-17T16:17:34.224Z</time></trkpt><trkpt lat="43.0948033" lon="13.4954617"><ele>213.0</ele><time>2026-04-17T16:17:35.224Z</time></trkpt><trkpt lat="43.0948733" lon="13.4954833"><ele>213.0</ele><time>2026-04-17T16:17:36.224Z</time></trkpt><trkpt lat="43.0949467" lon="13.4955083"><ele>213.0</ele><time>2026-04-17T16:17:37.224Z</time></trkpt><trkpt lat="43.0950083" lon="13.4955367"><ele>213.0</ele><time>2026-04-17T16:17:38.224Z</time></trkpt><trkpt lat="43.0951383" lon="13.4955983"><ele>213.16666666666666</ele><time>2026-04-17T16:17:40.224Z</time></trkpt><trkpt lat="43.0952117" lon="13.4956133"><ele>213.33333333333331</ele><time>2026-04-17T16:17:41.224Z</time></trkpt><trkpt lat="43.0952933" lon="13.4956417"><ele>213.5</ele><time>2026-04-17T16:17:42.224Z</time></trkpt><trkpt lat="43.0953767" lon="13.4956667"><ele>213.66666666666666</ele><time>2026-04-17T16:17:43.224Z</time></trkpt><trkpt lat="43.09546" lon="13.4956933"><ele>213.83333333333331</ele><time>2026-04-17T16:17:44.224Z</time></trkpt><trkpt lat="43.0955367" lon="13.4957317"><ele>214.0</ele><time>2026-04-17T16:17:45.224Z</time></trkpt><trkpt lat="43.0956017" lon="13.4957567"><ele>214.0</ele><time>2026-04-17T16:17:46.224Z</time></trkpt><trkpt lat="43.09567" lon="13.4957817"><ele>213.99999999999997</ele><time>2026-04-17T16:17:47.224Z</time></trkpt><trkpt lat="43.09574" lon="13.495795"><ele>213.99999999999997</ele><time>2026-04-17T16:17:48.224Z</time></trkpt><trkpt lat="43.0958783" lon="13.4958417"><ele>214.0</ele><time>2026-04-17T16:17:50.223Z</time></trkpt><trkpt lat="43.0959617" lon="13.495865"><ele>214.0</ele><time>2026-04-17T16:17:51.224Z</time></trkpt><trkpt lat="43.0960517" lon="13.4958883"><ele>214.0</ele><time>2026-04-17T16:17:52.224Z</time></trkpt><trkpt lat="43.0961317" lon="13.49592"><ele>213.99999999999997</ele><time>2026-04-17T16:17:53.224Z</time></trkpt><trkpt lat="43.0962167" lon="13.4959467"><ele>213.99999999999997</ele><time>2026-04-17T16:17:54.224Z</time></trkpt><trkpt lat="43.096305" lon="13.4959817"><ele>214.0</ele><time>2026-04-17T16:17:55.224Z</time></trkpt><trkpt lat="43.0964033" lon="13.4960067"><ele>214.0</ele><time>2026-04-17T16:17:56.224Z</time></trkpt><trkpt lat="43.0965083" lon="13.4960383"><ele>213.75</ele><time>2026-04-17T16:17:57.224Z</time></trkpt><trkpt lat="43.0966183" lon="13.49608"><ele>213.5</ele><time>2026-04-17T16:17:58.224Z</time></trkpt><trkpt lat="43.0967267" lon="13.49612"><ele>213.25</ele><time>2026-04-17T16:17:59.224Z</time></trkpt><trkpt lat="43.0968417" lon="13.4961633"><ele>213.0</ele><time>2026-04-17T16:18:00.224Z</time></trkpt><trkpt lat="43.0969517" lon="13.4962133"><ele>213.0</ele><time>2026-04-17T16:18:01.224Z</time></trkpt><trkpt lat="43.0970467" lon="13.4962417"><ele>213.0</ele><time>2026-04-17T16:18:02.224Z</time></trkpt><trkpt lat="43.0971383" lon="13.4962733"><ele>213.0</ele><time>2026-04-17T16:18:03.224Z</time></trkpt><trkpt lat="43.097215" lon="13.4963033"><ele>213.0</ele><time>2026-04-17T16:18:04.224Z</time></trkpt><trkpt lat="43.0972933" lon="13.49632"><ele>213.0</ele><time>2026-04-17T16:18:05.224Z</time></trkpt><trkpt lat="43.0973617" lon="13.4963417"><ele>213.0</ele><time>2026-04-17T16:18:06.224Z</time></trkpt><trkpt lat="43.09743" lon="13.49636"><ele>213.16666666666666</ele><time>2026-04-17T16:18:07.224Z</time></trkpt><trkpt lat="43.0974917" lon="13.49638"><ele>213.33333333333331</ele><time>2026-04-17T16:18:08.224Z</time></trkpt><trkpt lat="43.0975533" lon="13.4963983"><ele>213.5</ele><time>2026-04-17T16:18:09.224Z</time></trkpt><trkpt lat="43.097615" lon="13.496435"><ele>213.66666666666666</ele><time>2026-04-17T16:18:10.224Z</time></trkpt><trkpt lat="43.097725" lon="13.4964683"><ele>213.83333333333331</ele><time>2026-04-17T16:18:12.224Z</time></trkpt><trkpt lat="43.097835" lon="13.496505"><ele>214.0</ele><time>2026-04-17T16:18:14.224Z</time></trkpt><trkpt lat="43.0979483" lon="13.496565"><ele>213.99999999999997</ele><time>2026-04-17T16:18:16.224Z</time></trkpt><trkpt lat="43.0980117" lon="13.4965867"><ele>214.0</ele><time>2026-04-17T16:18:17.224Z</time></trkpt><trkpt lat="43.0980867" lon="13.4966117"><ele>214.0</ele><time>2026-04-17T16:18:18.224Z</time></trkpt><trkpt lat="43.0981733" lon="13.496655"><ele>214.0</ele><time>2026-04-17T16:18:19.224Z</time></trkpt><trkpt lat="43.0982567" lon="13.4966917"><ele>213.99999999999997</ele><time>2026-04-17T16:18:20.224Z</time></trkpt><trkpt lat="43.0983367" lon="13.496735"><ele>214.0</ele><time>2026-04-17T16:18:21.224Z</time></trkpt><trkpt lat="43.09843" lon="13.496775"><ele>213.6</ele><time>2026-04-17T16:18:22.224Z</time></trkpt><trkpt lat="43.0985183" lon="13.4968283"><ele>213.2</ele><time>2026-04-17T16:18:23.224Z</time></trkpt><trkpt lat="43.0986017" lon="13.4968683"><ele>212.79999999999998</ele><time>2026-04-17T16:18:24.224Z</time></trkpt><trkpt lat="43.09868" lon="13.4969133"><ele>212.39999999999998</ele><time>2026-04-17T16:18:25.224Z</time></trkpt><trkpt lat="43.0987617" lon="13.4969667"><ele>212.0</ele><time>2026-04-17T16:18:26.224Z</time></trkpt><trkpt lat="43.0988467" lon="13.497025"><ele>211.6</ele><time>2026-04-17T16:18:27.224Z</time></trkpt><trkpt lat="43.0989383" lon="13.4970867"><ele>211.2</ele><time>2026-04-17T16:18:28.224Z</time></trkpt><trkpt lat="43.0990267" lon="13.497135"><ele>210.8</ele><time>2026-04-17T16:18:29.224Z</time></trkpt><trkpt lat="43.099115" lon="13.497195"><ele>210.4</ele><time>2026-04-17T16:18:30.224Z</time></trkpt><trkpt lat="43.099205" lon="13.4972633"><ele>210.0</ele><time>2026-04-17T16:18:31.224Z</time></trkpt><trkpt lat="43.0992983" lon="13.4973283"><ele>209.8</ele><time>2026-04-17T16:18:32.224Z</time></trkpt><trkpt lat="43.099385" lon="13.49738"><ele>209.6</ele><time>2026-04-17T16:18:33.224Z</time></trkpt><trkpt lat="43.09948" lon="13.4974317"><ele>209.39999999999998</ele><time>2026-04-17T16:18:34.224Z</time></trkpt><trkpt lat="43.0995667" lon="13.497495"><ele>209.2</ele><time>2026-04-17T16:18:35.224Z</time></trkpt><trkpt lat="43.0996683" lon="13.497555"><ele>209.0</ele><time>2026-04-17T16:18:36.224Z</time></trkpt><trkpt lat="43.0997567" lon="13.4976167"><ele>209.0</ele><time>2026-04-17T16:18:37.224Z</time></trkpt><trkpt lat="43.0998433" lon="13.4976867"><ele>209.0</ele><time>2026-04-17T16:18:38.224Z</time></trkpt><trkpt lat="43.0999367" lon="13.4977683"><ele>209.0</ele><time>2026-04-17T16:18:39.224Z</time></trkpt><trkpt lat="43.1000383" lon="13.4978733"><ele>209.0</ele><time>2026-04-17T16:18:40.224Z</time></trkpt><trkpt lat="43.1001233" lon="13.4979883"><ele>210.0</ele><time>2026-04-17T16:18:41.224Z</time></trkpt><trkpt lat="43.1001917" lon="13.4981233"><ele>211.0</ele><time>2026-04-17T16:18:42.224Z</time></trkpt><trkpt lat="43.1002383" lon="13.4982633"><ele>212.0</ele><time>2026-04-17T16:18:43.224Z</time></trkpt><trkpt lat="43.1002817" lon="13.498405"><ele>213.0</ele><time>2026-04-17T16:18:44.224Z</time></trkpt><trkpt lat="43.100325" lon="13.4985483"><ele>213.0</ele><time>2026-04-17T16:18:45.224Z</time></trkpt><trkpt lat="43.1003667" lon="13.4986867"><ele>213.0</ele><time>2026-04-17T16:18:46.224Z</time></trkpt><trkpt lat="43.1004117" lon="13.4988217"><ele>213.0</ele><time>2026-04-17T16:18:47.224Z</time></trkpt><trkpt lat="43.1004567" lon="13.49895"><ele>213.0</ele><time>2026-04-17T16:18:48.224Z</time></trkpt><trkpt lat="43.1004917" lon="13.4990783"><ele>213.0</ele><time>2026-04-17T16:18:49.224Z</time></trkpt><trkpt lat="43.1005283" lon="13.4992083"><ele>213.0</ele><time>2026-04-17T16:18:50.224Z</time></trkpt><trkpt lat="43.1005717" lon="13.4993467"><ele>213.0</ele><time>2026-04-17T16:18:51.224Z</time></trkpt><trkpt lat="43.1006183" lon="13.49949"><ele>213.0</ele><time>2026-04-17T16:18:52.224Z</time></trkpt><trkpt lat="43.1006683" lon="13.4996417"><ele>213.0</ele><time>2026-04-17T16:18:53.224Z</time></trkpt><trkpt lat="43.1007217" lon="13.4998017"><ele>213.25</ele><time>2026-04-17T16:18:54.224Z</time></trkpt><trkpt lat="43.1007717" lon="13.49997"><ele>213.5</ele><time>2026-04-17T16:18:55.224Z</time></trkpt><trkpt lat="43.100825" lon="13.5001317"><ele>213.75</ele><time>2026-04-17T16:18:56.224Z</time></trkpt><trkpt lat="43.1008867" lon="13.5003083"><ele>214.0</ele><time>2026-04-17T16:18:57.224Z</time></trkpt><trkpt lat="43.1009533" lon="13.5004917"><ele>212.0</ele><time>2026-04-17T16:18:58.224Z</time></trkpt><trkpt lat="43.10101" lon="13.5006717"><ele>210.0</ele><time>2026-04-17T16:18:59.224Z</time></trkpt><trkpt lat="43.101055" lon="13.500835"><ele>208.0</ele><time>2026-04-17T16:19:00.224Z</time></trkpt><trkpt lat="43.1011" lon="13.5010067"><ele>206.0</ele><time>2026-04-17T16:19:01.224Z</time></trkpt><trkpt lat="43.1011583" lon="13.501185"><ele>205.25</ele><time>2026-04-17T16:19:02.224Z</time></trkpt><trkpt lat="43.1012067" lon="13.5013633"><ele>204.5</ele><time>2026-04-17T16:19:03.224Z</time></trkpt><trkpt lat="43.101245" lon="13.5015367"><ele>203.75</ele><time>2026-04-17T16:19:04.224Z</time></trkpt><trkpt lat="43.1012783" lon="13.501705"><ele>203.0</ele><time>2026-04-17T16:19:05.224Z</time></trkpt><trkpt lat="43.1013117" lon="13.5018833"><ele>203.0</ele><time>2026-04-17T16:19:06.224Z</time></trkpt><trkpt lat="43.1013367" lon="13.5020667"><ele>203.0</ele><time>2026-04-17T16:19:07.224Z</time></trkpt><trkpt lat="43.10136" lon="13.5022433"><ele>203.0</ele><time>2026-04-17T16:19:08.224Z</time></trkpt><trkpt lat="43.1013883" lon="13.5024317"><ele>203.0</ele><time>2026-04-17T16:19:09.224Z</time></trkpt><trkpt lat="43.101405" lon="13.502605"><ele>203.60000000000002</ele><time>2026-04-17T16:19:10.224Z</time></trkpt><trkpt lat="43.1014167" lon="13.5027567"><ele>204.20000000000002</ele><time>2026-04-17T16:19:11.224Z</time></trkpt><trkpt lat="43.10144" lon="13.5029"><ele>204.8</ele><time>2026-04-17T16:19:12.224Z</time></trkpt><trkpt lat="43.1014617" lon="13.5030417"><ele>205.4</ele><time>2026-04-17T16:19:13.224Z</time></trkpt><trkpt lat="43.101475" lon="13.503185"><ele>206.0</ele><time>2026-04-17T16:19:14.224Z</time></trkpt><trkpt lat="43.1014833" lon="13.5033367"><ele>206.0</ele><time>2026-04-17T16:19:15.224Z</time></trkpt><trkpt lat="43.1014867" lon="13.5035083"><ele>206.0</ele><time>2026-04-17T16:19:16.224Z</time></trkpt><trkpt lat="43.1015067" lon="13.503685"><ele>206.0</ele><time>2026-04-17T16:19:17.224Z</time></trkpt><trkpt lat="43.101515" lon="13.503875"><ele>206.0</ele><time>2026-04-17T16:19:18.224Z</time></trkpt><trkpt lat="43.101525" lon="13.5040767"><ele>205.5</ele><time>2026-04-17T16:19:19.224Z</time></trkpt><trkpt lat="43.1015317" lon="13.5042733"><ele>205.0</ele><time>2026-04-17T16:19:20.224Z</time></trkpt><trkpt lat="43.1015367" lon="13.5044833"><ele>204.5</ele><time>2026-04-17T16:19:21.224Z</time></trkpt><trkpt lat="43.1015433" lon="13.5046833"><ele>204.0</ele><time>2026-04-17T16:19:22.224Z</time></trkpt><trkpt lat="43.10154" lon="13.5048817"><ele>204.0</ele><time>2026-04-17T16:19:23.224Z</time></trkpt><trkpt lat="43.1015383" lon="13.50508"><ele>204.0</ele><time>2026-04-17T16:19:24.224Z</time></trkpt><trkpt lat="43.1015267" lon="13.505285"><ele>204.0</ele><time>2026-04-17T16:19:25.224Z</time></trkpt><trkpt lat="43.1015167" lon="13.5054917"><ele>204.0</ele><time>2026-04-17T16:19:26.224Z</time></trkpt><trkpt lat="43.1015083" lon="13.5056983"><ele>204.0</ele><time>2026-04-17T16:19:27.224Z</time></trkpt><trkpt lat="43.1014883" lon="13.5058967"><ele>204.0</ele><time>2026-04-17T16:19:28.224Z</time></trkpt><trkpt lat="43.1014733" lon="13.5061017"><ele>204.0</ele><time>2026-04-17T16:19:29.224Z</time></trkpt><trkpt lat="43.101455" lon="13.50632"><ele>203.66666666666669</ele><time>2026-04-17T16:19:30.224Z</time></trkpt><trkpt lat="43.101425" lon="13.50653"><ele>203.33333333333334</ele><time>2026-04-17T16:19:31.224Z</time></trkpt><trkpt lat="43.10141" lon="13.5067467"><ele>203.0</ele><time>2026-04-17T16:19:32.224Z</time></trkpt><trkpt lat="43.1013983" lon="13.5069583"><ele>202.75</ele><time>2026-04-17T16:19:33.224Z</time></trkpt><trkpt lat="43.1013817" lon="13.50716"><ele>202.5</ele><time>2026-04-17T16:19:34.224Z</time></trkpt><trkpt lat="43.1013633" lon="13.507345"><ele>202.25</ele><time>2026-04-17T16:19:35.224Z</time></trkpt><trkpt lat="43.1013533" lon="13.5074933"><ele>202.0</ele><time>2026-04-17T16:19:36.224Z</time></trkpt><trkpt lat="43.1013483" lon="13.507605"><ele>202.0</ele><time>2026-04-17T16:19:37.224Z</time></trkpt><trkpt lat="43.1013333" lon="13.5077267"><ele>202.0</ele><time>2026-04-17T16:19:39.224Z</time></trkpt><trkpt lat="43.101335" lon="13.50784"><ele>202.0</ele><time>2026-04-17T16:19:42.223Z</time></trkpt><trkpt lat="43.1013167" lon="13.507935"><ele>202.0</ele><time>2026-04-17T16:19:44.223Z</time></trkpt><trkpt lat="43.1012983" lon="13.5080783"><ele>202.0</ele><time>2026-04-17T16:19:46.223Z</time></trkpt><trkpt lat="43.10128" lon="13.5082483"><ele>202.0</ele><time>2026-04-17T16:19:48.223Z</time></trkpt><trkpt lat="43.1012733" lon="13.50837"><ele>202.0</ele><time>2026-04-17T16:19:49.223Z</time></trkpt><trkpt lat="43.1012633" lon="13.508505"><ele>202.0</ele><time>2026-04-17T16:19:50.223Z</time></trkpt><trkpt lat="43.101255" lon="13.508655"><ele>202.0</ele><time>2026-04-17T16:19:51.223Z</time></trkpt><trkpt lat="43.1012483" lon="13.5088117"><ele>202.0</ele><time>2026-04-17T16:19:52.223Z</time></trkpt><trkpt lat="43.1012467" lon="13.508965"><ele>201.75</ele><time>2026-04-17T16:19:53.223Z</time></trkpt><trkpt lat="43.1012517" lon="13.5091117"><ele>201.5</ele><time>2026-04-17T16:19:54.223Z</time></trkpt><trkpt lat="43.1012483" lon="13.5092667"><ele>201.25</ele><time>2026-04-17T16:19:55.223Z</time></trkpt><trkpt lat="43.1012583" lon="13.509435"><ele>201.0</ele><time>2026-04-17T16:19:56.223Z</time></trkpt><trkpt lat="43.10127" lon="13.5096067"><ele>200.25</ele><time>2026-04-17T16:19:57.223Z</time></trkpt><trkpt lat="43.101295" lon="13.509785"><ele>199.5</ele><time>2026-04-17T16:19:58.223Z</time></trkpt><trkpt lat="43.101315" lon="13.5099767"><ele>198.75</ele><time>2026-04-17T16:19:59.223Z</time></trkpt><trkpt lat="43.1013367" lon="13.5101633"><ele>198.0</ele><time>2026-04-17T16:20:00.223Z</time></trkpt><trkpt lat="43.10137" lon="13.5103383"><ele>197.0</ele><time>2026-04-17T16:20:01.223Z</time></trkpt><trkpt lat="43.1014067" lon="13.5105017"><ele>196.0</ele><time>2026-04-17T16:20:02.223Z</time></trkpt><trkpt lat="43.1014433" lon="13.5106683"><ele>195.0</ele><time>2026-04-17T16:20:03.223Z</time></trkpt><trkpt lat="43.1014833" lon="13.510835"><ele>194.0</ele><time>2026-04-17T16:20:04.223Z</time></trkpt><trkpt lat="43.1015283" lon="13.5110033"><ele>194.0</ele><time>2026-04-17T16:20:05.223Z</time></trkpt><trkpt lat="43.1015683" lon="13.5111817"><ele>194.0</ele><time>2026-04-17T16:20:06.223Z</time></trkpt><trkpt lat="43.10161" lon="13.51137"><ele>194.0</ele><time>2026-04-17T16:20:07.223Z</time></trkpt><trkpt lat="43.1016633" lon="13.5115683"><ele>194.0</ele><time>2026-04-17T16:20:08.222Z</time></trkpt><trkpt lat="43.1017083" lon="13.5117517"><ele>195.0</ele><time>2026-04-17T16:20:09.223Z</time></trkpt><trkpt lat="43.1017367" lon="13.511935"><ele>196.0</ele><time>2026-04-17T16:20:10.223Z</time></trkpt><trkpt lat="43.10178" lon="13.5121317"><ele>197.0</ele><time>2026-04-17T16:20:11.223Z</time></trkpt><trkpt lat="43.101825" lon="13.512335"><ele>198.0</ele><time>2026-04-17T16:20:12.223Z</time></trkpt><trkpt lat="43.1018683" lon="13.5125283"><ele>198.0</ele><time>2026-04-17T16:20:13.223Z</time></trkpt><trkpt lat="43.101905" lon="13.512715"><ele>198.0</ele><time>2026-04-17T16:20:14.223Z</time></trkpt><trkpt lat="43.101945" lon="13.5129117"><ele>198.0</ele><time>2026-04-17T16:20:15.223Z</time></trkpt><trkpt lat="43.1019867" lon="13.51312"><ele>198.0</ele><time>2026-04-17T16:20:16.223Z</time></trkpt><trkpt lat="43.10203" lon="13.513325"><ele>196.75</ele><time>2026-04-17T16:20:17.223Z</time></trkpt><trkpt lat="43.102065" lon="13.51352"><ele>195.5</ele><time>2026-04-17T16:20:18.223Z</time></trkpt><trkpt lat="43.102095" lon="13.5137033"><ele>194.25</ele><time>2026-04-17T16:20:19.223Z</time></trkpt><trkpt lat="43.1021233" lon="13.5138817"><ele>193.0</ele><time>2026-04-17T16:20:20.223Z</time></trkpt><trkpt lat="43.102155" lon="13.5140617"><ele>192.75</ele><time>2026-04-17T16:20:21.223Z</time></trkpt><trkpt lat="43.1021883" lon="13.5142533"><ele>192.5</ele><time>2026-04-17T16:20:22.223Z</time></trkpt><trkpt lat="43.1022317" lon="13.514455"><ele>192.25</ele><time>2026-04-17T16:20:23.223Z</time></trkpt><trkpt lat="43.1022683" lon="13.5146567"><ele>192.0</ele><time>2026-04-17T16:20:24.223Z</time></trkpt><trkpt lat="43.1023" lon="13.5148517"><ele>192.25</ele><time>2026-04-17T16:20:25.223Z</time></trkpt><trkpt lat="43.1023283" lon="13.51505"><ele>192.5</ele><time>2026-04-17T16:20:26.223Z</time></trkpt><trkpt lat="43.1023667" lon="13.5152517"><ele>192.75</ele><time>2026-04-17T16:20:27.223Z</time></trkpt><trkpt lat="43.102395" lon="13.515445"><ele>193.0</ele><time>2026-04-17T16:20:28.223Z</time></trkpt><trkpt lat="43.10242" lon="13.51563"><ele>193.0</ele><time>2026-04-17T16:20:29.223Z</time></trkpt><trkpt lat="43.1024517" lon="13.5158117"><ele>193.0</ele><time>2026-04-17T16:20:30.223Z</time></trkpt><trkpt lat="43.10248" lon="13.515995"><ele>193.0</ele><time>2026-04-17T16:20:31.223Z</time></trkpt><trkpt lat="43.1025083" lon="13.5161833"><ele>193.0</ele><time>2026-04-17T16:20:32.223Z</time></trkpt><trkpt lat="43.1025417" lon="13.5163733"><ele>192.5</ele><time>2026-04-17T16:20:33.223Z</time></trkpt><trkpt lat="43.10257" lon="13.516565"><ele>192.0</ele><time>2026-04-17T16:20:34.223Z</time></trkpt><trkpt lat="43.102605" lon="13.5167633"><ele>191.5</ele><time>2026-04-17T16:20:35.223Z</time></trkpt><trkpt lat="43.1026433" lon="13.51697"><ele>191.0</ele><time>2026-04-17T16:20:36.223Z</time></trkpt><trkpt lat="43.1026833" lon="13.5171817"><ele>190.75</ele><time>2026-04-17T16:20:37.223Z</time></trkpt><trkpt lat="43.10272" lon="13.5173767"><ele>190.5</ele><time>2026-04-17T16:20:38.223Z</time></trkpt><trkpt lat="43.10275" lon="13.5175617"><ele>190.25</ele><time>2026-04-17T16:20:39.223Z</time></trkpt><trkpt lat="43.1027833" lon="13.5177383"><ele>190.0</ele><time>2026-04-17T16:20:40.223Z</time></trkpt><trkpt lat="43.1028133" lon="13.5179183"><ele>189.75</ele><time>2026-04-17T16:20:41.223Z</time></trkpt><trkpt lat="43.10284" lon="13.5181133"><ele>189.5</ele><time>2026-04-17T16:20:42.223Z</time></trkpt><trkpt lat="43.1028733" lon="13.5182983"><ele>189.25</ele><time>2026-04-17T16:20:43.223Z</time></trkpt><trkpt lat="43.1029117" lon="13.5184883"><ele>189.0</ele><time>2026-04-17T16:20:44.223Z</time></trkpt><trkpt lat="43.1029467" lon="13.5186833"><ele>188.75</ele><time>2026-04-17T16:20:45.223Z</time></trkpt><trkpt lat="43.1029817" lon="13.5188817"><ele>188.5</ele><time>2026-04-17T16:20:46.223Z</time></trkpt><trkpt lat="43.1030083" lon="13.5190633"><ele>188.25</ele><time>2026-04-17T16:20:47.223Z</time></trkpt><trkpt lat="43.1030367" lon="13.519255"><ele>188.0</ele><time>2026-04-17T16:20:48.223Z</time></trkpt><trkpt lat="43.1030683" lon="13.5194567"><ele>187.33333333333331</ele><time>2026-04-17T16:20:49.223Z</time></trkpt><trkpt lat="43.1031033" lon="13.5196667"><ele>186.66666666666666</ele><time>2026-04-17T16:20:50.223Z</time></trkpt><trkpt lat="43.103135" lon="13.519875"><ele>186.0</ele><time>2026-04-17T16:20:51.223Z</time></trkpt><trkpt lat="43.103165" lon="13.5200817"><ele>186.0</ele><time>2026-04-17T16:20:52.223Z</time></trkpt><trkpt lat="43.1031867" lon="13.520295"><ele>186.0</ele><time>2026-04-17T16:20:53.223Z</time></trkpt><trkpt lat="43.1032" lon="13.5205117"><ele>186.0</ele><time>2026-04-17T16:20:54.223Z</time></trkpt><trkpt lat="43.1032167" lon="13.5207383"><ele>185.0</ele><time>2026-04-17T16:20:55.223Z</time></trkpt><trkpt lat="43.10323" lon="13.5209683"><ele>184.0</ele><time>2026-04-17T16:20:56.223Z</time></trkpt><trkpt lat="43.1032333" lon="13.5211983"><ele>183.0</ele><time>2026-04-17T16:20:57.223Z</time></trkpt><trkpt lat="43.1032317" lon="13.5214217"><ele>182.66666666666666</ele><time>2026-04-17T16:20:58.222Z</time></trkpt><trkpt lat="43.1032233" lon="13.52164"><ele>182.33333333333331</ele><time>2026-04-17T16:20:59.223Z</time></trkpt><trkpt lat="43.1032133" lon="13.5218633"><ele>182.0</ele><time>2026-04-17T16:21:00.222Z</time></trkpt><trkpt lat="43.1032033" lon="13.52209"><ele>182.0</ele><time>2026-04-17T16:21:01.223Z</time></trkpt><trkpt lat="43.1031883" lon="13.5223133"><ele>182.0</ele><time>2026-04-17T16:21:02.223Z</time></trkpt><trkpt lat="43.1031767" lon="13.5225333"><ele>182.0</ele><time>2026-04-17T16:21:03.223Z</time></trkpt><trkpt lat="43.103165" lon="13.5227383"><ele>182.66666666666666</ele><time>2026-04-17T16:21:04.223Z</time></trkpt><trkpt lat="43.103145" lon="13.5229433"><ele>183.33333333333334</ele><time>2026-04-17T16:21:05.223Z</time></trkpt><trkpt lat="43.1031283" lon="13.5231567"><ele>184.0</ele><time>2026-04-17T16:21:06.223Z</time></trkpt><trkpt lat="43.1031133" lon="13.5233817"><ele>184.0</ele><time>2026-04-17T16:21:07.223Z</time></trkpt><trkpt lat="43.103105" lon="13.52361"><ele>184.0</ele><time>2026-04-17T16:21:08.223Z</time></trkpt><trkpt lat="43.103095" lon="13.5238333"><ele>184.0</ele><time>2026-04-17T16:21:09.223Z</time></trkpt><trkpt lat="43.1030783" lon="13.5240383"><ele>184.0</ele><time>2026-04-17T16:21:10.223Z</time></trkpt><trkpt lat="43.1030667" lon="13.5242383"><ele>184.0</ele><time>2026-04-17T16:21:11.223Z</time></trkpt><trkpt lat="43.1030483" lon="13.52443"><ele>184.0</ele><time>2026-04-17T16:21:12.223Z</time></trkpt><trkpt lat="43.10304" lon="13.524625"><ele>184.0</ele><time>2026-04-17T16:21:13.223Z</time></trkpt><trkpt lat="43.1030233" lon="13.52482"><ele>184.0</ele><time>2026-04-17T16:21:14.223Z</time></trkpt><trkpt lat="43.10301" lon="13.5250217"><ele>184.0</ele><time>2026-04-17T16:21:15.223Z</time></trkpt><trkpt lat="43.1029933" lon="13.52523"><ele>184.0</ele><time>2026-04-17T16:21:16.223Z</time></trkpt><trkpt lat="43.1029767" lon="13.5254267"><ele>184.0</ele><time>2026-04-17T16:21:17.223Z</time></trkpt><trkpt lat="43.1029683" lon="13.5256183"><ele>183.75</ele><time>2026-04-17T16:21:18.223Z</time></trkpt><trkpt lat="43.1029533" lon="13.525805"><ele>183.5</ele><time>2026-04-17T16:21:19.223Z</time></trkpt><trkpt lat="43.1029367" lon="13.5259933"><ele>183.25</ele><time>2026-04-17T16:21:20.223Z</time></trkpt><trkpt lat="43.10293" lon="13.5261817"><ele>183.0</ele><time>2026-04-17T16:21:21.223Z</time></trkpt><trkpt lat="43.102915" lon="13.5263683"><ele>182.25</ele><time>2026-04-17T16:21:22.223Z</time></trkpt><trkpt lat="43.1028983" lon="13.526545"><ele>181.5</ele><time>2026-04-17T16:21:23.223Z</time></trkpt><trkpt lat="43.10289" lon="13.5267117"><ele>180.75</ele><time>2026-04-17T16:21:24.223Z</time></trkpt><trkpt lat="43.1028833" lon="13.526895"><ele>180.0</ele><time>2026-04-17T16:21:25.223Z</time></trkpt><trkpt lat="43.1028717" lon="13.5270917"><ele>179.66666666666666</ele><time>2026-04-17T16:21:26.223Z</time></trkpt><trkpt lat="43.10286" lon="13.5272917"><ele>179.33333333333331</ele><time>2026-04-17T16:21:27.223Z</time></trkpt><trkpt lat="43.1028417" lon="13.527515"><ele>179.0</ele><time>2026-04-17T16:21:28.223Z</time></trkpt><trkpt lat="43.1028283" lon="13.5277383"><ele>179.0</ele><time>2026-04-17T16:21:29.223Z</time></trkpt><trkpt lat="43.1028133" lon="13.5279583"><ele>179.0</ele><time>2026-04-17T16:21:30.223Z</time></trkpt><trkpt lat="43.1027983" lon="13.52817"><ele>179.0</ele><time>2026-04-17T16:21:31.223Z</time></trkpt><trkpt lat="43.102785" lon="13.528375"><ele>179.0</ele><time>2026-04-17T16:21:32.223Z</time></trkpt><trkpt lat="43.1027683" lon="13.52858"><ele>179.0</ele><time>2026-04-17T16:21:33.223Z</time></trkpt><trkpt lat="43.1027583" lon="13.5287867"><ele>179.0</ele><time>2026-04-17T16:21:34.223Z</time></trkpt><trkpt lat="43.10275" lon="13.528995"><ele>178.66666666666666</ele><time>2026-04-17T16:21:35.223Z</time></trkpt><trkpt lat="43.1027417" lon="13.5292033"><ele>178.33333333333334</ele><time>2026-04-17T16:21:36.223Z</time></trkpt><trkpt lat="43.102725" lon="13.529415"><ele>178.0</ele><time>2026-04-17T16:21:37.223Z</time></trkpt><trkpt lat="43.1027033" lon="13.5296267"><ele>176.66666666666669</ele><time>2026-04-17T16:21:38.223Z</time></trkpt><trkpt lat="43.1026767" lon="13.52984"><ele>175.33333333333334</ele><time>2026-04-17T16:21:39.223Z</time></trkpt><trkpt lat="43.1026433" lon="13.5300417"><ele>174.0</ele><time>2026-04-17T16:21:40.223Z</time></trkpt><trkpt lat="43.10259" lon="13.5302333"><ele>173.33333333333334</ele><time>2026-04-17T16:21:41.223Z</time></trkpt><trkpt lat="43.1025283" lon="13.5304183"><ele>172.66666666666669</ele><time>2026-04-17T16:21:42.223Z</time></trkpt><trkpt lat="43.1024583" lon="13.5306117"><ele>172.0</ele><time>2026-04-17T16:21:43.223Z</time></trkpt><trkpt lat="43.1023767" lon="13.5308067"><ele>171.66666666666669</ele><time>2026-04-17T16:21:44.223Z</time></trkpt><trkpt lat="43.1022917" lon="13.53101"><ele>171.33333333333334</ele><time>2026-04-17T16:21:45.223Z</time></trkpt><trkpt lat="43.1021917" lon="13.5312083"><ele>171.0</ele><time>2026-04-17T16:21:46.223Z</time></trkpt><trkpt lat="43.1020967" lon="13.5314117"><ele>171.0</ele><time>2026-04-17T16:21:47.223Z</time></trkpt><trkpt lat="43.1020083" lon="13.5316033"><ele>171.0</ele><time>2026-04-17T16:21:48.223Z</time></trkpt><trkpt lat="43.1019317" lon="13.5318"><ele>171.0</ele><time>2026-04-17T16:21:49.223Z</time></trkpt><trkpt lat="43.1018583" lon="13.53199"><ele>170.66666666666666</ele><time>2026-04-17T16:21:50.223Z</time></trkpt><trkpt lat="43.1018017" lon="13.53218"><ele>170.33333333333331</ele><time>2026-04-17T16:21:51.223Z</time></trkpt><trkpt lat="43.101745" lon="13.5323917"><ele>170.0</ele><time>2026-04-17T16:21:52.223Z</time></trkpt><trkpt lat="43.1017167" lon="13.53262"><ele>170.0</ele><time>2026-04-17T16:21:53.223Z</time></trkpt><trkpt lat="43.1017" lon="13.5328467"><ele>170.0</ele><time>2026-04-17T16:21:54.223Z</time></trkpt><trkpt lat="43.1017" lon="13.5330767"><ele>170.0</ele><time>2026-04-17T16:21:55.223Z</time></trkpt><trkpt lat="43.1017183" lon="13.5333083"><ele>169.33333333333331</ele><time>2026-04-17T16:21:56.223Z</time></trkpt><trkpt lat="43.10175" lon="13.5335383"><ele>168.66666666666666</ele><time>2026-04-17T16:21:57.223Z</time></trkpt><trkpt lat="43.10179" lon="13.53375"><ele>168.0</ele><time>2026-04-17T16:21:58.223Z</time></trkpt><trkpt lat="43.1018367" lon="13.5339517"><ele>167.33333333333334</ele><time>2026-04-17T16:21:59.223Z</time></trkpt><trkpt lat="43.1018817" lon="13.534165"><ele>166.66666666666669</ele><time>2026-04-17T16:22:00.223Z</time></trkpt><trkpt lat="43.1019233" lon="13.5343833"><ele>166.0</ele><time>2026-04-17T16:22:01.223Z</time></trkpt><trkpt lat="43.10196" lon="13.5345883"><ele>165.33333333333334</ele><time>2026-04-17T16:22:02.223Z</time></trkpt><trkpt lat="43.102" lon="13.53479"><ele>164.66666666666666</ele><time>2026-04-17T16:22:03.223Z</time></trkpt><trkpt lat="43.10205" lon="13.5350017"><ele>164.0</ele><time>2026-04-17T16:22:04.223Z</time></trkpt><trkpt lat="43.10209" lon="13.535215"><ele>164.33333333333331</ele><time>2026-04-17T16:22:05.223Z</time></trkpt><trkpt lat="43.1021317" lon="13.5354217"><ele>164.66666666666666</ele><time>2026-04-17T16:22:06.223Z</time></trkpt><trkpt lat="43.102175" lon="13.535625"><ele>165.0</ele><time>2026-04-17T16:22:07.223Z</time></trkpt><trkpt lat="43.102215" lon="13.5358283"><ele>165.0</ele><time>2026-04-17T16:22:08.223Z</time></trkpt><trkpt lat="43.1022567" lon="13.5360267"><ele>165.0</ele><time>2026-04-17T16:22:09.223Z</time></trkpt><trkpt lat="43.102295" lon="13.53622"><ele>165.0</ele><time>2026-04-17T16:22:10.223Z</time></trkpt><trkpt lat="43.1023383" lon="13.5364117"><ele>165.0</ele><time>2026-04-17T16:22:11.223Z</time></trkpt><trkpt lat="43.1023767" lon="13.5366067"><ele>166.0</ele><time>2026-04-17T16:22:12.223Z</time></trkpt><trkpt lat="43.1024183" lon="13.5368117"><ele>167.0</ele><time>2026-04-17T16:22:13.223Z</time></trkpt><trkpt lat="43.1024533" lon="13.53702"><ele>168.0</ele><time>2026-04-17T16:22:14.223Z</time></trkpt><trkpt lat="43.1024883" lon="13.53723"><ele>168.0</ele><time>2026-04-17T16:22:15.223Z</time></trkpt><trkpt lat="43.1025367" lon="13.5374533"><ele>168.0</ele><time>2026-04-17T16:22:16.223Z</time></trkpt><trkpt lat="43.1025883" lon="13.53768"><ele>168.0</ele><time>2026-04-17T16:22:17.223Z</time></trkpt><trkpt lat="43.1026483" lon="13.537905"><ele>167.66666666666666</ele><time>2026-04-17T16:22:18.223Z</time></trkpt><trkpt lat="43.1027033" lon="13.5381283"><ele>167.33333333333331</ele><time>2026-04-17T16:22:19.223Z</time></trkpt><trkpt lat="43.10275" lon="13.538345"><ele>167.0</ele><time>2026-04-17T16:22:20.223Z</time></trkpt><trkpt lat="43.1028" lon="13.5385483"><ele>167.25</ele><time>2026-04-17T16:22:21.223Z</time></trkpt><trkpt lat="43.1028433" lon="13.5387433"><ele>167.5</ele><time>2026-04-17T16:22:22.223Z</time></trkpt><trkpt lat="43.102895" lon="13.53894"><ele>167.75</ele><time>2026-04-17T16:22:23.223Z</time></trkpt><trkpt lat="43.1029433" lon="13.539115"><ele>168.0</ele><time>2026-04-17T16:22:24.223Z</time></trkpt><trkpt lat="43.102985" lon="13.5393117"><ele>168.0</ele><time>2026-04-17T16:22:25.223Z</time></trkpt><trkpt lat="43.1030317" lon="13.5395067"><ele>168.0</ele><time>2026-04-17T16:22:26.222Z</time></trkpt><trkpt lat="43.1030817" lon="13.53969"><ele>168.0</ele><time>2026-04-17T16:22:27.223Z</time></trkpt><trkpt lat="43.1031283" lon="13.539865"><ele>168.0</ele><time>2026-04-17T16:22:28.223Z</time></trkpt><trkpt lat="43.1031783" lon="13.540015"><ele>167.8</ele><time>2026-04-17T16:22:29.223Z</time></trkpt><trkpt lat="43.1032167" lon="13.54015"><ele>167.60000000000002</ele><time>2026-04-17T16:22:30.223Z</time></trkpt><trkpt lat="43.103245" lon="13.5402683"><ele>167.39999999999998</ele><time>2026-04-17T16:22:31.223Z</time></trkpt><trkpt lat="43.1032633" lon="13.54039"><ele>167.2</ele><time>2026-04-17T16:22:32.223Z</time></trkpt><trkpt lat="43.1032683" lon="13.5405033"><ele>167.0</ele><time>2026-04-17T16:22:33.223Z</time></trkpt><trkpt lat="43.103275" lon="13.5406183"><ele>167.75</ele><time>2026-04-17T16:22:34.223Z</time></trkpt><trkpt lat="43.10331" lon="13.5407483"><ele>168.5</ele><time>2026-04-17T16:22:35.223Z</time></trkpt><trkpt lat="43.1033617" lon="13.5408683"><ele>169.25</ele><time>2026-04-17T16:22:36.223Z</time></trkpt><trkpt lat="43.103435" lon="13.5409917"><ele>170.0</ele><time>2026-04-17T16:22:37.223Z</time></trkpt><trkpt lat="43.10351" lon="13.5411383"><ele>170.0</ele><time>2026-04-17T16:22:38.223Z</time></trkpt><trkpt lat="43.1035817" lon="13.5413"><ele>170.0</ele><time>2026-04-17T16:22:39.223Z</time></trkpt><trkpt lat="43.1036433" lon="13.5414767"><ele>170.0</ele><time>2026-04-17T16:22:40.223Z</time></trkpt><trkpt lat="43.103715" lon="13.5416483"><ele>170.0</ele><time>2026-04-17T16:22:41.223Z</time></trkpt><trkpt lat="43.1037867" lon="13.541825"><ele>170.0</ele><time>2026-04-17T16:22:42.223Z</time></trkpt><trkpt lat="43.1038533" lon="13.541995"><ele>170.0</ele><time>2026-04-17T16:22:43.223Z</time></trkpt><trkpt lat="43.1039317" lon="13.542155"><ele>170.0</ele><time>2026-04-17T16:22:44.223Z</time></trkpt><trkpt lat="43.1039967" lon="13.5423167"><ele>170.0</ele><time>2026-04-17T16:22:45.223Z</time></trkpt><trkpt lat="43.1040633" lon="13.5424633"><ele>170.0</ele><time>2026-04-17T16:22:46.223Z</time></trkpt><trkpt lat="43.1041233" lon="13.542625"><ele>170.0</ele><time>2026-04-17T16:22:47.223Z</time></trkpt><trkpt lat="43.1041883" lon="13.542785"><ele>170.0</ele><time>2026-04-17T16:22:48.223Z</time></trkpt><trkpt lat="43.1042483" lon="13.5429383"><ele>170.0</ele><time>2026-04-17T16:22:49.223Z</time></trkpt><trkpt lat="43.10431" lon="13.54308"><ele>170.0</ele><time>2026-04-17T16:22:50.223Z</time></trkpt><trkpt lat="43.1043767" lon="13.543225"><ele>170.0</ele><time>2026-04-17T16:22:51.223Z</time></trkpt><trkpt lat="43.1044383" lon="13.543375"><ele>170.0</ele><time>2026-04-17T16:22:52.223Z</time></trkpt><trkpt lat="43.1044933" lon="13.5435217"><ele>170.0</ele><time>2026-04-17T16:22:53.223Z</time></trkpt><trkpt lat="43.1045533" lon="13.5436683"><ele>169.5</ele><time>2026-04-17T16:22:54.223Z</time></trkpt><trkpt lat="43.104615" lon="13.5438117"><ele>169.0</ele><time>2026-04-17T16:22:55.223Z</time></trkpt><trkpt lat="43.104675" lon="13.5439483"><ele>168.5</ele><time>2026-04-17T16:22:56.223Z</time></trkpt><trkpt lat="43.1047383" lon="13.54409"><ele>168.0</ele><time>2026-04-17T16:22:57.223Z</time></trkpt><trkpt lat="43.1047983" lon="13.5442417"><ele>168.0</ele><time>2026-04-17T16:22:58.223Z</time></trkpt><trkpt lat="43.10486" lon="13.5443933"><ele>168.0</ele><time>2026-04-17T16:22:59.223Z</time></trkpt><trkpt lat="43.1049217" lon="13.54454"><ele>168.0</ele><time>2026-04-17T16:23:00.223Z</time></trkpt><trkpt lat="43.104985" lon="13.5446917"><ele>168.0</ele><time>2026-04-17T16:23:01.223Z</time></trkpt><trkpt lat="43.1050583" lon="13.5448433"><ele>168.0</ele><time>2026-04-17T16:23:02.223Z</time></trkpt><trkpt lat="43.10512" lon="13.5450133"><ele>168.0</ele><time>2026-04-17T16:23:03.223Z</time></trkpt><trkpt lat="43.10519" lon="13.5451817"><ele>168.0</ele><time>2026-04-17T16:23:04.223Z</time></trkpt><trkpt lat="43.1052633" lon="13.5453483"><ele>168.0</ele><time>2026-04-17T16:23:05.223Z</time></trkpt><trkpt lat="43.105335" lon="13.5455183"><ele>168.0</ele><time>2026-04-17T16:23:06.223Z</time></trkpt><trkpt lat="43.1054083" lon="13.54569"><ele>168.0</ele><time>2026-04-17T16:23:07.223Z</time></trkpt><trkpt lat="43.1054717" lon="13.5458467"><ele>168.0</ele><time>2026-04-17T16:23:08.223Z</time></trkpt><trkpt lat="43.1055367" lon="13.5460133"><ele>168.0</ele><time>2026-04-17T16:23:09.223Z</time></trkpt><trkpt lat="43.1056017" lon="13.5461617"><ele>167.5</ele><time>2026-04-17T16:23:10.223Z</time></trkpt><trkpt lat="43.105665" lon="13.5463133"><ele>167.0</ele><time>2026-04-17T16:23:11.223Z</time></trkpt><trkpt lat="43.1057283" lon="13.5464717"><ele>166.5</ele><time>2026-04-17T16:23:12.223Z</time></trkpt><trkpt lat="43.1057917" lon="13.54663"><ele>166.0</ele><time>2026-04-17T16:23:13.223Z</time></trkpt><trkpt lat="43.1058567" lon="13.5467833"><ele>165.75</ele><time>2026-04-17T16:23:14.223Z</time></trkpt><trkpt lat="43.1059167" lon="13.5469333"><ele>165.5</ele><time>2026-04-17T16:23:15.223Z</time></trkpt><trkpt lat="43.105975" lon="13.5470833"><ele>165.25</ele><time>2026-04-17T16:23:16.223Z</time></trkpt><trkpt lat="43.1060433" lon="13.5472267"><ele>165.0</ele><time>2026-04-17T16:23:17.223Z</time></trkpt><trkpt lat="43.1061017" lon="13.547365"><ele>165.0</ele><time>2026-04-17T16:23:18.223Z</time></trkpt><trkpt lat="43.106155" lon="13.547505"><ele>165.0</ele><time>2026-04-17T16:23:19.223Z</time></trkpt><trkpt lat="43.10621" lon="13.5476367"><ele>165.0</ele><time>2026-04-17T16:23:20.223Z</time></trkpt><trkpt lat="43.1062717" lon="13.5477717"><ele>165.0</ele><time>2026-04-17T16:23:21.223Z</time></trkpt><trkpt lat="43.1063367" lon="13.5479167"><ele>165.25</ele><time>2026-04-17T16:23:22.223Z</time></trkpt><trkpt lat="43.1063933" lon="13.5480667"><ele>165.5</ele><time>2026-04-17T16:23:23.223Z</time></trkpt><trkpt lat="43.106445" lon="13.54821"><ele>165.75</ele><time>2026-04-17T16:23:24.223Z</time></trkpt><trkpt lat="43.1065" lon="13.5483417"><ele>166.0</ele><time>2026-04-17T16:23:25.223Z</time></trkpt><trkpt lat="43.1065583" lon="13.54847"><ele>166.0</ele><time>2026-04-17T16:23:26.223Z</time></trkpt><trkpt lat="43.10662" lon="13.548605"><ele>166.0</ele><time>2026-04-17T16:23:27.223Z</time></trkpt><trkpt lat="43.1066817" lon="13.5487533"><ele>166.0</ele><time>2026-04-17T16:23:28.223Z</time></trkpt><trkpt lat="43.1067417" lon="13.5488967"><ele>166.0</ele><time>2026-04-17T16:23:29.223Z</time></trkpt><trkpt lat="43.1067983" lon="13.5490283"><ele>166.25</ele><time>2026-04-17T16:23:30.222Z</time></trkpt><trkpt lat="43.1068567" lon="13.5491667"><ele>166.5</ele><time>2026-04-17T16:23:31.223Z</time></trkpt><trkpt lat="43.106915" lon="13.5493067"><ele>166.75</ele><time>2026-04-17T16:23:32.223Z</time></trkpt><trkpt lat="43.10697" lon="13.549445"><ele>167.0</ele><time>2026-04-17T16:23:33.223Z</time></trkpt><trkpt lat="43.1070233" lon="13.5495783"><ele>167.0</ele><time>2026-04-17T16:23:34.223Z</time></trkpt><trkpt lat="43.1070617" lon="13.549695"><ele>167.0</ele><time>2026-04-17T16:23:35.223Z</time></trkpt><trkpt lat="43.1070917" lon="13.5497833"><ele>167.0</ele><time>2026-04-17T16:23:36.223Z</time></trkpt><trkpt lat="43.107135" lon="13.549885"><ele>167.0</ele><time>2026-04-17T16:23:38.223Z</time></trkpt><trkpt lat="43.1071833" lon="13.54998"><ele>167.0</ele><time>2026-04-17T16:23:41.223Z</time></trkpt><trkpt lat="43.107225" lon="13.5500667"><ele>167.0</ele><time>2026-04-17T16:23:44.223Z</time></trkpt><trkpt lat="43.1072683" lon="13.5501667"><ele>167.0</ele><time>2026-04-17T16:23:46.223Z</time></trkpt><trkpt lat="43.107315" lon="13.5502817"><ele>167.0</ele><time>2026-04-17T16:23:48.223Z</time></trkpt><trkpt lat="43.1073633" lon="13.55042"><ele>167.0</ele><time>2026-04-17T16:23:50.223Z</time></trkpt><trkpt lat="43.1074" lon="13.5505033"><ele>167.0</ele><time>2026-04-17T16:23:51.223Z</time></trkpt><trkpt lat="43.1074433" lon="13.5506"><ele>167.0</ele><time>2026-04-17T16:23:52.223Z</time></trkpt><trkpt lat="43.1074817" lon="13.5507"><ele>167.0</ele><time>2026-04-17T16:23:53.223Z</time></trkpt><trkpt lat="43.1075267" lon="13.5508033"><ele>166.83333333333331</ele><time>2026-04-17T16:23:54.223Z</time></trkpt><trkpt lat="43.107575" lon="13.55091"><ele>166.66666666666666</ele><time>2026-04-17T16:23:55.223Z</time></trkpt><trkpt lat="43.107615" lon="13.551025"><ele>166.5</ele><time>2026-04-17T16:23:56.223Z</time></trkpt><trkpt lat="43.1076567" lon="13.5511267"><ele>166.33333333333334</ele><time>2026-04-17T16:23:57.223Z</time></trkpt><trkpt lat="43.107695" lon="13.5512217"><ele>166.16666666666669</ele><time>2026-04-17T16:23:58.223Z</time></trkpt><trkpt lat="43.1077367" lon="13.5513233"><ele>166.0</ele><time>2026-04-17T16:23:59.223Z</time></trkpt><trkpt lat="43.1077817" lon="13.551435"><ele>165.60000000000002</ele><time>2026-04-17T16:24:00.223Z</time></trkpt><trkpt lat="43.1078333" lon="13.5515533"><ele>165.2</ele><time>2026-04-17T16:24:01.223Z</time></trkpt><trkpt lat="43.1078783" lon="13.5516833"><ele>164.8</ele><time>2026-04-17T16:24:02.223Z</time></trkpt><trkpt lat="43.107925" lon="13.5518"><ele>164.39999999999998</ele><time>2026-04-17T16:24:03.223Z</time></trkpt><trkpt lat="43.1079617" lon="13.5519033"><ele>164.0</ele><time>2026-04-17T16:24:04.223Z</time></trkpt><trkpt lat="43.1079983" lon="13.552"><ele>163.83333333333331</ele><time>2026-04-17T16:24:05.223Z</time></trkpt><trkpt lat="43.1080283" lon="13.5520983"><ele>163.66666666666666</ele><time>2026-04-17T16:24:06.223Z</time></trkpt><trkpt lat="43.1080683" lon="13.5521867"><ele>163.5</ele><time>2026-04-17T16:24:07.223Z</time></trkpt><trkpt lat="43.108105" lon="13.5522717"><ele>163.33333333333334</ele><time>2026-04-17T16:24:08.223Z</time></trkpt><trkpt lat="43.1081383" lon="13.5523717"><ele>163.16666666666669</ele><time>2026-04-17T16:24:09.223Z</time></trkpt><trkpt lat="43.10817" lon="13.5524617"><ele>163.0</ele><time>2026-04-17T16:24:10.223Z</time></trkpt><trkpt lat="43.1082083" lon="13.5525517"><ele>163.0</ele><time>2026-04-17T16:24:11.223Z</time></trkpt><trkpt lat="43.1082433" lon="13.55266"><ele>163.0</ele><time>2026-04-17T16:24:12.223Z</time></trkpt><trkpt lat="43.10828" lon="13.55276"><ele>163.0</ele><time>2026-04-17T16:24:13.223Z</time></trkpt><trkpt lat="43.108315" lon="13.5528583"><ele>163.0</ele><time>2026-04-17T16:24:14.223Z</time></trkpt><trkpt lat="43.1083317" lon="13.5529433"><ele>163.0</ele><time>2026-04-17T16:24:15.223Z</time></trkpt><trkpt lat="43.108345" lon="13.55307"><ele>163.0</ele><time>2026-04-17T16:24:17.223Z</time></trkpt><trkpt lat="43.1083733" lon="13.55318"><ele>163.0</ele><time>2026-04-17T16:24:19.223Z</time></trkpt><trkpt lat="43.10841" lon="13.5532633"><ele>163.0</ele><time>2026-04-17T16:24:21.223Z</time></trkpt><trkpt lat="43.108435" lon="13.55335"><ele>163.0</ele><time>2026-04-17T16:24:24.223Z</time></trkpt><trkpt lat="43.1084283" lon="13.5534367"><ele>163.0</ele><time>2026-04-17T16:24:29.223Z</time></trkpt><trkpt lat="43.108405" lon="13.55352"><ele>163.0</ele><time>2026-04-17T16:24:33.223Z</time></trkpt><trkpt lat="43.1082883" lon="13.5535383"><ele>163.0</ele><time>2026-04-17T16:28:37.223Z</time></trkpt><trkpt lat="43.108315" lon="13.5536183"><ele>163.0</ele><time>2026-04-17T16:31:01.222Z</time></trkpt><trkpt lat="43.1083483" lon="13.5535317"><ele>163.0</ele><time>2026-04-17T16:31:17.222Z</time></trkpt><trkpt lat="43.10826" lon="13.5535083"><ele>163.0</ele><time>2026-04-17T16:31:55.222Z</time></trkpt><trkpt lat="43.1082576" lon="13.5535949"><ele>163.0</ele><time>2026-04-17T16:36:14.301Z</time></trkpt><trkpt lat="43.1083085" lon="13.5536836"><ele>163.0</ele><time>2026-04-17T16:36:40.261Z</time></trkpt><trkpt lat="43.1083867" lon="13.5537867"><ele>163.0</ele><time>2026-04-17T16:36:42.221Z</time></trkpt><trkpt lat="43.10845" lon="13.5537567"><ele>163.0</ele><time>2026-04-17T16:36:45.221Z</time></trkpt><trkpt lat="43.1084417" lon="13.55367"><ele>163.0</ele><time>2026-04-17T16:36:48.221Z</time></trkpt><trkpt lat="43.1083404" lon="13.5536837"><ele>163.0</ele><time>2026-04-17T16:37:30.329Z</time></trkpt><trkpt lat="43.1082826" lon="13.5537371"><ele>163.0</ele><time>2026-04-17T16:37:31.261Z</time></trkpt><trkpt lat="43.1082144" lon="13.5537167"><ele>163.0</ele><time>2026-04-17T16:37:34.261Z</time></trkpt><trkpt lat="43.108275" lon="13.5536875"><ele>163.0</ele><time>2026-04-17T16:37:47.329Z</time></trkpt><trkpt lat="43.108341" lon="13.5535027"><ele>163.0</ele><time>2026-04-17T16:38:05.221Z</time></trkpt><trkpt lat="43.1083606" lon="13.553334"><ele>163.0</ele><time>2026-04-17T16:38:07.289Z</time></trkpt><trkpt lat="43.1083146" lon="13.5532533"><ele>163.0</ele><time>2026-04-17T16:38:09.261Z</time></trkpt><trkpt lat="43.1082487" lon="13.5532487"><ele>163.0</ele><time>2026-04-17T16:38:14.328Z</time></trkpt><trkpt lat="43.1083206" lon="13.5532607"><ele>163.0</ele><time>2026-04-17T16:41:35.288Z</time></trkpt><trkpt lat="43.1083334" lon="13.5531691"><ele>163.0</ele><time>2026-04-17T16:41:36.328Z</time></trkpt><trkpt lat="43.108398" lon="13.5532336"><ele>163.0</ele><time>2026-04-17T16:41:39.328Z</time></trkpt><trkpt lat="43.1084072" lon="13.5533561"><ele>163.0</ele><time>2026-04-17T16:41:41.288Z</time></trkpt><trkpt lat="43.108398" lon="13.5534587"><ele>163.0</ele><time>2026-04-17T16:41:43.261Z</time></trkpt><trkpt lat="43.108395" lon="13.5536433"><ele>163.0</ele><time>2026-04-17T16:47:17.219Z</time></trkpt><trkpt lat="43.10841" lon="13.5534883"><ele>163.0</ele><time>2026-04-17T16:48:38.219Z</time></trkpt><trkpt lat="43.1084583" lon="13.55342"><ele>163.0</ele><time>2026-04-17T16:48:40.219Z</time></trkpt><trkpt lat="43.10855" lon="13.553475"><ele>163.0</ele><time>2026-04-17T16:48:53.219Z</time></trkpt><trkpt lat="43.1086133" lon="13.5535717"><ele>163.0</ele><time>2026-04-17T16:48:55.219Z</time></trkpt><trkpt lat="43.10866" lon="13.5537317"><ele>163.0</ele><time>2026-04-17T16:48:57.219Z</time></trkpt><trkpt lat="43.1086967" lon="13.5538533"><ele>163.0</ele><time>2026-04-17T16:48:58.219Z</time></trkpt><trkpt lat="43.108735" lon="13.5539783"><ele>162.8</ele><time>2026-04-17T16:48:59.219Z</time></trkpt><trkpt lat="43.10878" lon="13.554085"><ele>162.60000000000002</ele><time>2026-04-17T16:49:00.219Z</time></trkpt><trkpt lat="43.10883" lon="13.554205"><ele>162.39999999999998</ele><time>2026-04-17T16:49:01.219Z</time></trkpt><trkpt lat="43.1088933" lon="13.5543417"><ele>162.2</ele><time>2026-04-17T16:49:02.219Z</time></trkpt><trkpt lat="43.1089633" lon="13.554475"><ele>162.0</ele><time>2026-04-17T16:49:03.219Z</time></trkpt><trkpt lat="43.1090267" lon="13.55461"><ele>163.0</ele><time>2026-04-17T16:49:04.219Z</time></trkpt><trkpt lat="43.1090867" lon="13.554745"><ele>164.0</ele><time>2026-04-17T16:49:05.219Z</time></trkpt><trkpt lat="43.1091533" lon="13.5548917"><ele>165.0</ele><time>2026-04-17T16:49:06.219Z</time></trkpt><trkpt lat="43.1092317" lon="13.5550583"><ele>166.0</ele><time>2026-04-17T16:49:07.219Z</time></trkpt><trkpt lat="43.1092967" lon="13.555215"><ele>166.0</ele><time>2026-04-17T16:49:08.219Z</time></trkpt><trkpt lat="43.109365" lon="13.555365"><ele>166.0</ele><time>2026-04-17T16:49:09.219Z</time></trkpt><trkpt lat="43.1094367" lon="13.5555183"><ele>166.0</ele><time>2026-04-17T16:49:10.219Z</time></trkpt><trkpt lat="43.1095083" lon="13.5556833"><ele>166.0</ele><time>2026-04-17T16:49:11.219Z</time></trkpt><trkpt lat="43.1095767" lon="13.5558367"><ele>165.25</ele><time>2026-04-17T16:49:12.219Z</time></trkpt><trkpt lat="43.109645" lon="13.55599"><ele>164.5</ele><time>2026-04-17T16:49:13.219Z</time></trkpt><trkpt lat="43.1097133" lon="13.5561283"><ele>163.75</ele><time>2026-04-17T16:49:14.219Z</time></trkpt><trkpt lat="43.10977" lon="13.5562733"><ele>163.0</ele><time>2026-04-17T16:49:15.219Z</time></trkpt><trkpt lat="43.109835" lon="13.556425"><ele>162.75</ele><time>2026-04-17T16:49:16.219Z</time></trkpt><trkpt lat="43.1099067" lon="13.55657"><ele>162.5</ele><time>2026-04-17T16:49:17.219Z</time></trkpt><trkpt lat="43.1099783" lon="13.55672"><ele>162.25</ele><time>2026-04-17T16:49:18.219Z</time></trkpt><trkpt lat="43.1100533" lon="13.556885"><ele>162.0</ele><time>2026-04-17T16:49:19.219Z</time></trkpt><trkpt lat="43.1101283" lon="13.5570533"><ele>161.66666666666666</ele><time>2026-04-17T16:49:20.219Z</time></trkpt><trkpt lat="43.1102117" lon="13.5572317"><ele>161.33333333333331</ele><time>2026-04-17T16:49:21.219Z</time></trkpt><trkpt lat="43.110295" lon="13.5574033"><ele>161.0</ele><time>2026-04-17T16:49:22.219Z</time></trkpt><trkpt lat="43.1103817" lon="13.557575"><ele>161.0</ele><time>2026-04-17T16:49:23.219Z</time></trkpt><trkpt lat="43.1104667" lon="13.557755"><ele>161.0</ele><time>2026-04-17T16:49:24.219Z</time></trkpt><trkpt lat="43.11054" lon="13.55795"><ele>161.0</ele><time>2026-04-17T16:49:25.219Z</time></trkpt><trkpt lat="43.110625" lon="13.5581233"><ele>161.0</ele><time>2026-04-17T16:49:26.219Z</time></trkpt><trkpt lat="43.1106967" lon="13.5582883"><ele>161.0</ele><time>2026-04-17T16:49:27.219Z</time></trkpt><trkpt lat="43.1107717" lon="13.558465"><ele>161.0</ele><time>2026-04-17T16:49:28.219Z</time></trkpt><trkpt lat="43.1108483" lon="13.5586367"><ele>161.0</ele><time>2026-04-17T16:49:29.219Z</time></trkpt><trkpt lat="43.1109267" lon="13.5587967"><ele>161.25</ele><time>2026-04-17T16:49:30.219Z</time></trkpt><trkpt lat="43.1110067" lon="13.5589583"><ele>161.5</ele><time>2026-04-17T16:49:31.219Z</time></trkpt><trkpt lat="43.1110783" lon="13.5591183"><ele>161.75</ele><time>2026-04-17T16:49:32.219Z</time></trkpt><trkpt lat="43.1111467" lon="13.5592667"><ele>162.0</ele><time>2026-04-17T16:49:33.219Z</time></trkpt><trkpt lat="43.1112117" lon="13.5593983"><ele>162.0</ele><time>2026-04-17T16:49:34.219Z</time></trkpt><trkpt lat="43.1112667" lon="13.5595133"><ele>162.0</ele><time>2026-04-17T16:49:35.219Z</time></trkpt><trkpt lat="43.1113083" lon="13.55961"><ele>162.0</ele><time>2026-04-17T16:49:36.219Z</time></trkpt><trkpt lat="43.1113433" lon="13.5597017"><ele>162.0</ele><time>2026-04-17T16:49:37.219Z</time></trkpt><trkpt lat="43.1113717" lon="13.559785"><ele>162.0</ele><time>2026-04-17T16:49:38.219Z</time></trkpt><trkpt lat="43.1114383" lon="13.5599283"><ele>162.0</ele><time>2026-04-17T16:49:40.219Z</time></trkpt><trkpt lat="43.1114883" lon="13.5600767"><ele>161.83333333333334</ele><time>2026-04-17T16:49:42.219Z</time></trkpt><trkpt lat="43.1115317" lon="13.5601517"><ele>161.66666666666666</ele><time>2026-04-17T16:49:43.219Z</time></trkpt><trkpt lat="43.1115767" lon="13.5602333"><ele>161.5</ele><time>2026-04-17T16:49:44.219Z</time></trkpt><trkpt lat="43.111625" lon="13.56033"><ele>161.33333333333331</ele><time>2026-04-17T16:49:45.219Z</time></trkpt><trkpt lat="43.111685" lon="13.5604367"><ele>161.16666666666666</ele><time>2026-04-17T16:49:46.219Z</time></trkpt><trkpt lat="43.1117517" lon="13.56055"><ele>161.0</ele><time>2026-04-17T16:49:47.219Z</time></trkpt><trkpt lat="43.11181" lon="13.5606717"><ele>161.0</ele><time>2026-04-17T16:49:48.219Z</time></trkpt><trkpt lat="43.1118717" lon="13.5608167"><ele>161.0</ele><time>2026-04-17T16:49:49.219Z</time></trkpt><trkpt lat="43.1119467" lon="13.5609583"><ele>161.0</ele><time>2026-04-17T16:49:50.219Z</time></trkpt><trkpt lat="43.1120217" lon="13.5610933"><ele>161.0</ele><time>2026-04-17T16:49:51.219Z</time></trkpt><trkpt lat="43.1120933" lon="13.5612283"><ele>161.0</ele><time>2026-04-17T16:49:52.219Z</time></trkpt><trkpt lat="43.11216" lon="13.5613567"><ele>161.0</ele><time>2026-04-17T16:49:53.219Z</time></trkpt><trkpt lat="43.1122267" lon="13.5614917"><ele>161.0</ele><time>2026-04-17T16:49:54.219Z</time></trkpt><trkpt lat="43.1123033" lon="13.56163"><ele>161.0</ele><time>2026-04-17T16:49:55.219Z</time></trkpt><trkpt lat="43.11237" lon="13.5617717"><ele>161.20000000000002</ele><time>2026-04-17T16:49:56.219Z</time></trkpt><trkpt lat="43.1124417" lon="13.561915"><ele>161.4</ele><time>2026-04-17T16:49:57.219Z</time></trkpt><trkpt lat="43.1125133" lon="13.562035"><ele>161.6</ele><time>2026-04-17T16:49:58.219Z</time></trkpt><trkpt lat="43.112575" lon="13.56215"><ele>161.8</ele><time>2026-04-17T16:49:59.219Z</time></trkpt><trkpt lat="43.1126283" lon="13.5622467"><ele>162.0</ele><time>2026-04-17T16:50:00.219Z</time></trkpt><trkpt lat="43.11269" lon="13.562345"><ele>161.6</ele><time>2026-04-17T16:50:01.219Z</time></trkpt><trkpt lat="43.11275" lon="13.5624467"><ele>161.2</ele><time>2026-04-17T16:50:02.219Z</time></trkpt><trkpt lat="43.1128067" lon="13.562545"><ele>160.8</ele><time>2026-04-17T16:50:03.219Z</time></trkpt><trkpt lat="43.1128717" lon="13.5626533"><ele>160.4</ele><time>2026-04-17T16:50:04.219Z</time></trkpt><trkpt lat="43.1129283" lon="13.5627867"><ele>160.0</ele><time>2026-04-17T16:50:05.219Z</time></trkpt><trkpt lat="43.1129917" lon="13.5629067"><ele>160.0</ele><time>2026-04-17T16:50:06.217Z</time></trkpt><trkpt lat="43.1130567" lon="13.5630133"><ele>160.0</ele><time>2026-04-17T16:50:07.218Z</time></trkpt><trkpt lat="43.1131033" lon="13.5631033"><ele>160.0</ele><time>2026-04-17T16:50:08.218Z</time></trkpt><trkpt lat="43.1131467" lon="13.563185"><ele>160.0</ele><time>2026-04-17T16:50:09.218Z</time></trkpt><trkpt lat="43.1131817" lon="13.56326"><ele>160.0</ele><time>2026-04-17T16:50:10.218Z</time></trkpt><trkpt lat="43.1132483" lon="13.5633617"><ele>160.0</ele><time>2026-04-17T16:50:12.218Z</time></trkpt><trkpt lat="43.1132967" lon="13.5634983"><ele>160.0</ele><time>2026-04-17T16:50:14.218Z</time></trkpt><trkpt lat="43.1133617" lon="13.56366"><ele>160.0</ele><time>2026-04-17T16:50:16.218Z</time></trkpt><trkpt lat="43.11341" lon="13.5637483"><ele>160.0</ele><time>2026-04-17T16:50:17.218Z</time></trkpt><trkpt lat="43.1134583" lon="13.563835"><ele>160.0</ele><time>2026-04-17T16:50:18.218Z</time></trkpt><trkpt lat="43.113505" lon="13.5639217"><ele>160.0</ele><time>2026-04-17T16:50:19.218Z</time></trkpt><trkpt lat="43.1135533" lon="13.56402"><ele>159.6</ele><time>2026-04-17T16:50:20.218Z</time></trkpt><trkpt lat="43.1136117" lon="13.5641167"><ele>159.2</ele><time>2026-04-17T16:50:21.218Z</time></trkpt><trkpt lat="43.1136633" lon="13.56421"><ele>158.8</ele><time>2026-04-17T16:50:22.218Z</time></trkpt><trkpt lat="43.11372" lon="13.5643133"><ele>158.4</ele><time>2026-04-17T16:50:23.218Z</time></trkpt><trkpt lat="43.113785" lon="13.5644267"><ele>158.0</ele><time>2026-04-17T16:50:24.218Z</time></trkpt><trkpt lat="43.1138383" lon="13.5645317"><ele>158.0</ele><time>2026-04-17T16:50:25.218Z</time></trkpt><trkpt lat="43.1138883" lon="13.5646183"><ele>158.0</ele><time>2026-04-17T16:50:26.218Z</time></trkpt><trkpt lat="43.113925" lon="13.5646933"><ele>158.0</ele><time>2026-04-17T16:50:27.218Z</time></trkpt><trkpt lat="43.1140067" lon="13.56482"><ele>158.0</ele><time>2026-04-17T16:50:29.218Z</time></trkpt><trkpt lat="43.11407" lon="13.564915"><ele>158.0</ele><time>2026-04-17T16:50:31.218Z</time></trkpt><trkpt lat="43.1141117" lon="13.5649933"><ele>158.0</ele><time>2026-04-17T16:50:34.218Z</time></trkpt><trkpt lat="43.1141517" lon="13.5650783"><ele>157.83333333333331</ele><time>2026-04-17T16:50:39.218Z</time></trkpt><trkpt lat="43.1142" lon="13.565165"><ele>157.66666666666666</ele><time>2026-04-17T16:50:41.218Z</time></trkpt><trkpt lat="43.1142483" lon="13.5652217"><ele>157.5</ele><time>2026-04-17T16:50:42.218Z</time></trkpt><trkpt lat="43.1143033" lon="13.5652867"><ele>157.33333333333334</ele><time>2026-04-17T16:50:43.218Z</time></trkpt><trkpt lat="43.1143717" lon="13.5653783"><ele>157.16666666666669</ele><time>2026-04-17T16:50:44.218Z</time></trkpt><trkpt lat="43.1144517" lon="13.565485"><ele>157.0</ele><time>2026-04-17T16:50:45.218Z</time></trkpt><trkpt lat="43.114545" lon="13.5656083"><ele>156.75</ele><time>2026-04-17T16:50:46.218Z</time></trkpt><trkpt lat="43.1146333" lon="13.5657367"><ele>156.5</ele><time>2026-04-17T16:50:47.218Z</time></trkpt><trkpt lat="43.114725" lon="13.5658667"><ele>156.25</ele><time>2026-04-17T16:50:48.218Z</time></trkpt><trkpt lat="43.114825" lon="13.565985"><ele>156.0</ele><time>2026-04-17T16:50:49.218Z</time></trkpt><trkpt lat="43.1149333" lon="13.56612"><ele>155.5</ele><time>2026-04-17T16:50:50.218Z</time></trkpt><trkpt lat="43.11504" lon="13.5662617"><ele>155.0</ele><time>2026-04-17T16:50:51.218Z</time></trkpt><trkpt lat="43.1151467" lon="13.5664"><ele>154.5</ele><time>2026-04-17T16:50:52.218Z</time></trkpt><trkpt lat="43.11526" lon="13.566535"><ele>154.0</ele><time>2026-04-17T16:50:53.218Z</time></trkpt><trkpt lat="43.1153767" lon="13.5666733"><ele>154.0</ele><time>2026-04-17T16:50:54.218Z</time></trkpt><trkpt lat="43.1154867" lon="13.566805"><ele>154.0</ele><time>2026-04-17T16:50:55.218Z</time></trkpt><trkpt lat="43.1155967" lon="13.566955"><ele>154.0</ele><time>2026-04-17T16:50:56.218Z</time></trkpt><trkpt lat="43.1157217" lon="13.567105"><ele>153.66666666666669</ele><time>2026-04-17T16:50:57.218Z</time></trkpt><trkpt lat="43.115835" lon="13.5672567"><ele>153.33333333333334</ele><time>2026-04-17T16:50:58.218Z</time></trkpt><trkpt lat="43.1159633" lon="13.5674117"><ele>153.0</ele><time>2026-04-17T16:50:59.218Z</time></trkpt><trkpt lat="43.1160983" lon="13.567575"><ele>153.0</ele><time>2026-04-17T16:51:00.218Z</time></trkpt><trkpt lat="43.1162367" lon="13.56774"><ele>153.0</ele><time>2026-04-17T16:51:01.218Z</time></trkpt><trkpt lat="43.11636" lon="13.5678917"><ele>153.0</ele><time>2026-04-17T16:51:02.218Z</time></trkpt><trkpt lat="43.1164967" lon="13.5680633"><ele>153.66666666666666</ele><time>2026-04-17T16:51:03.218Z</time></trkpt><trkpt lat="43.1166283" lon="13.568225"><ele>154.33333333333331</ele><time>2026-04-17T16:51:04.218Z</time></trkpt><trkpt lat="43.116755" lon="13.56838"><ele>155.0</ele><time>2026-04-17T16:51:05.218Z</time></trkpt><trkpt lat="43.116885" lon="13.5685417"><ele>154.66666666666666</ele><time>2026-04-17T16:51:06.218Z</time></trkpt><trkpt lat="43.1170083" lon="13.5687083"><ele>154.33333333333334</ele><time>2026-04-17T16:51:07.218Z</time></trkpt><trkpt lat="43.1171317" lon="13.5688667"><ele>154.0</ele><time>2026-04-17T16:51:08.218Z</time></trkpt><trkpt lat="43.1172517" lon="13.5690317"><ele>154.0</ele><time>2026-04-17T16:51:09.218Z</time></trkpt><trkpt lat="43.1173667" lon="13.5692083"><ele>154.0</ele><time>2026-04-17T16:51:10.218Z</time></trkpt><trkpt lat="43.1174717" lon="13.5693933"><ele>154.0</ele><time>2026-04-17T16:51:11.218Z</time></trkpt><trkpt lat="43.11757" lon="13.5695867"><ele>154.66666666666669</ele><time>2026-04-17T16:51:12.218Z</time></trkpt><trkpt lat="43.1176633" lon="13.569785"><ele>155.33333333333334</ele><time>2026-04-17T16:51:13.218Z</time></trkpt><trkpt lat="43.1177567" lon="13.569995"><ele>156.0</ele><time>2026-04-17T16:51:14.218Z</time></trkpt><trkpt lat="43.1178467" lon="13.5702183"><ele>155.33333333333334</ele><time>2026-04-17T16:51:15.218Z</time></trkpt><trkpt lat="43.11793" lon="13.5704567"><ele>154.66666666666669</ele><time>2026-04-17T16:51:16.218Z</time></trkpt><trkpt lat="43.11801" lon="13.5706883"><ele>154.0</ele><time>2026-04-17T16:51:17.218Z</time></trkpt><trkpt lat="43.11809" lon="13.5709133"><ele>154.0</ele><time>2026-04-17T16:51:18.218Z</time></trkpt><trkpt lat="43.11817" lon="13.5711217"><ele>154.0</ele><time>2026-04-17T16:51:19.218Z</time></trkpt><trkpt lat="43.118245" lon="13.5713433"><ele>154.0</ele><time>2026-04-17T16:51:20.218Z</time></trkpt><trkpt lat="43.1183317" lon="13.5715633"><ele>154.0</ele><time>2026-04-17T16:51:21.218Z</time></trkpt><trkpt lat="43.1184167" lon="13.57179"><ele>154.0</ele><time>2026-04-17T16:51:22.218Z</time></trkpt><trkpt lat="43.1184967" lon="13.5720117"><ele>154.0</ele><time>2026-04-17T16:51:23.218Z</time></trkpt><trkpt lat="43.1185867" lon="13.5722367"><ele>153.0</ele><time>2026-04-17T16:51:24.218Z</time></trkpt><trkpt lat="43.1186767" lon="13.57247"><ele>152.0</ele><time>2026-04-17T16:51:25.218Z</time></trkpt><trkpt lat="43.1187633" lon="13.5727167"><ele>151.0</ele><time>2026-04-17T16:51:26.218Z</time></trkpt><trkpt lat="43.11884" lon="13.57294"><ele>151.66666666666669</ele><time>2026-04-17T16:51:27.218Z</time></trkpt><trkpt lat="43.1189183" lon="13.5731533"><ele>152.33333333333334</ele><time>2026-04-17T16:51:28.218Z</time></trkpt><trkpt lat="43.119005" lon="13.5733633"><ele>153.0</ele><time>2026-04-17T16:51:29.218Z</time></trkpt><trkpt lat="43.1190833" lon="13.573585"><ele>152.66666666666666</ele><time>2026-04-17T16:51:30.218Z</time></trkpt><trkpt lat="43.1191533" lon="13.5738067"><ele>152.33333333333331</ele><time>2026-04-17T16:51:31.218Z</time></trkpt><trkpt lat="43.119225" lon="13.574025"><ele>152.0</ele><time>2026-04-17T16:51:32.218Z</time></trkpt><trkpt lat="43.1193017" lon="13.5742283"><ele>152.0</ele><time>2026-04-17T16:51:33.218Z</time></trkpt><trkpt lat="43.11938" lon="13.5744383"><ele>152.0</ele><time>2026-04-17T16:51:34.218Z</time></trkpt><trkpt lat="43.1194567" lon="13.5746517"><ele>152.0</ele><time>2026-04-17T16:51:35.218Z</time></trkpt><trkpt lat="43.119535" lon="13.574865"><ele>151.33333333333331</ele><time>2026-04-17T16:51:36.217Z</time></trkpt><trkpt lat="43.1196033" lon="13.575085"><ele>150.66666666666666</ele><time>2026-04-17T16:51:37.218Z</time></trkpt><trkpt lat="43.1196683" lon="13.575295"><ele>150.0</ele><time>2026-04-17T16:51:38.218Z</time></trkpt><trkpt lat="43.11974" lon="13.5755033"><ele>149.66666666666666</ele><time>2026-04-17T16:51:39.218Z</time></trkpt><trkpt lat="43.1198" lon="13.575725"><ele>149.33333333333331</ele><time>2026-04-17T16:51:40.218Z</time></trkpt><trkpt lat="43.1198883" lon="13.5759467"><ele>149.0</ele><time>2026-04-17T16:51:41.218Z</time></trkpt><trkpt lat="43.1199583" lon="13.5761667"><ele>149.66666666666666</ele><time>2026-04-17T16:51:42.218Z</time></trkpt><trkpt lat="43.1200333" lon="13.5763867"><ele>150.33333333333334</ele><time>2026-04-17T16:51:43.218Z</time></trkpt><trkpt lat="43.120105" lon="13.5766167"><ele>151.0</ele><time>2026-04-17T16:51:44.218Z</time></trkpt><trkpt lat="43.1201733" lon="13.5768467"><ele>150.33333333333334</ele><time>2026-04-17T16:51:45.218Z</time></trkpt><trkpt lat="43.120245" lon="13.5770733"><ele>149.66666666666666</ele><time>2026-04-17T16:51:46.218Z</time></trkpt><trkpt lat="43.1203233" lon="13.577295"><ele>149.0</ele><time>2026-04-17T16:51:47.218Z</time></trkpt><trkpt lat="43.120415" lon="13.5775217"><ele>149.0</ele><time>2026-04-17T16:51:48.218Z</time></trkpt><trkpt lat="43.1205117" lon="13.5777533"><ele>149.0</ele><time>2026-04-17T16:51:49.218Z</time></trkpt><trkpt lat="43.1206117" lon="13.5779883"><ele>149.0</ele><time>2026-04-17T16:51:50.218Z</time></trkpt><trkpt lat="43.12069" lon="13.5782083"><ele>149.0</ele><time>2026-04-17T16:51:51.218Z</time></trkpt><trkpt lat="43.1207867" lon="13.5784383"><ele>149.0</ele><time>2026-04-17T16:51:52.218Z</time></trkpt><trkpt lat="43.1208833" lon="13.5786583"><ele>149.0</ele><time>2026-04-17T16:51:53.218Z</time></trkpt><trkpt lat="43.1209733" lon="13.57888"><ele>147.66666666666666</ele><time>2026-04-17T16:51:54.218Z</time></trkpt><trkpt lat="43.1210733" lon="13.5790933"><ele>146.33333333333334</ele><time>2026-04-17T16:51:55.218Z</time></trkpt><trkpt lat="43.12117" lon="13.5793067"><ele>145.0</ele><time>2026-04-17T16:51:56.218Z</time></trkpt><trkpt lat="43.1212683" lon="13.5795267"><ele>144.33333333333334</ele><time>2026-04-17T16:51:57.218Z</time></trkpt><trkpt lat="43.1213617" lon="13.57974"><ele>143.66666666666666</ele><time>2026-04-17T16:51:58.218Z</time></trkpt><trkpt lat="43.1214567" lon="13.5799617"><ele>143.0</ele><time>2026-04-17T16:51:59.218Z</time></trkpt><trkpt lat="43.1215517" lon="13.5801883"><ele>142.66666666666666</ele><time>2026-04-17T16:52:00.218Z</time></trkpt><trkpt lat="43.1216417" lon="13.5804067"><ele>142.33333333333334</ele><time>2026-04-17T16:52:01.218Z</time></trkpt><trkpt lat="43.1217317" lon="13.5806317"><ele>142.0</ele><time>2026-04-17T16:52:02.218Z</time></trkpt><trkpt lat="43.1218183" lon="13.5808367"><ele>142.0</ele><time>2026-04-17T16:52:03.218Z</time></trkpt><trkpt lat="43.1218867" lon="13.5810317"><ele>142.0</ele><time>2026-04-17T16:52:04.218Z</time></trkpt><trkpt lat="43.121955" lon="13.5812383"><ele>142.0</ele><time>2026-04-17T16:52:05.218Z</time></trkpt><trkpt lat="43.1220233" lon="13.5814567"><ele>141.33333333333334</ele><time>2026-04-17T16:52:06.218Z</time></trkpt><trkpt lat="43.1221017" lon="13.5816717"><ele>140.66666666666666</ele><time>2026-04-17T16:52:07.218Z</time></trkpt><trkpt lat="43.1221817" lon="13.58188"><ele>140.0</ele><time>2026-04-17T16:52:08.218Z</time></trkpt><trkpt lat="43.1222617" lon="13.582105"><ele>139.33333333333331</ele><time>2026-04-17T16:52:09.218Z</time></trkpt><trkpt lat="43.12233" lon="13.582315"><ele>138.66666666666666</ele><time>2026-04-17T16:52:10.218Z</time></trkpt><trkpt lat="43.1224067" lon="13.5825183"><ele>138.0</ele><time>2026-04-17T16:52:11.218Z</time></trkpt><trkpt lat="43.1224817" lon="13.582705"><ele>137.75</ele><time>2026-04-17T16:52:12.218Z</time></trkpt><trkpt lat="43.1225483" lon="13.5828883"><ele>137.5</ele><time>2026-04-17T16:52:13.218Z</time></trkpt><trkpt lat="43.1226067" lon="13.58305"><ele>137.25</ele><time>2026-04-17T16:52:14.218Z</time></trkpt><trkpt lat="43.1226617" lon="13.583205"><ele>137.0</ele><time>2026-04-17T16:52:15.218Z</time></trkpt><trkpt lat="43.1227167" lon="13.5833583"><ele>137.0</ele><time>2026-04-17T16:52:16.218Z</time></trkpt><trkpt lat="43.12277" lon="13.58351"><ele>137.0</ele><time>2026-04-17T16:52:17.218Z</time></trkpt><trkpt lat="43.1228233" lon="13.5836767"><ele>137.0</ele><time>2026-04-17T16:52:18.218Z</time></trkpt><trkpt lat="43.122885" lon="13.5838417"><ele>137.0</ele><time>2026-04-17T16:52:19.218Z</time></trkpt><trkpt lat="43.12295" lon="13.584005"><ele>137.33333333333331</ele><time>2026-04-17T16:52:20.218Z</time></trkpt><trkpt lat="43.12301" lon="13.5841883"><ele>137.66666666666666</ele><time>2026-04-17T16:52:21.218Z</time></trkpt><trkpt lat="43.1230767" lon="13.584375"><ele>138.0</ele><time>2026-04-17T16:52:22.218Z</time></trkpt><trkpt lat="43.12314" lon="13.5845667"><ele>138.0</ele><time>2026-04-17T16:52:23.218Z</time></trkpt><trkpt lat="43.1232" lon="13.584755"><ele>138.0</ele><time>2026-04-17T16:52:24.218Z</time></trkpt><trkpt lat="43.1232517" lon="13.5849467"><ele>138.0</ele><time>2026-04-17T16:52:25.218Z</time></trkpt><trkpt lat="43.123295" lon="13.5851533"><ele>137.0</ele><time>2026-04-17T16:52:26.218Z</time></trkpt><trkpt lat="43.1233367" lon="13.5853583"><ele>136.0</ele><time>2026-04-17T16:52:27.218Z</time></trkpt><trkpt lat="43.1233783" lon="13.585565"><ele>135.0</ele><time>2026-04-17T16:52:28.218Z</time></trkpt><trkpt lat="43.1234283" lon="13.5857583"><ele>135.0</ele><time>2026-04-17T16:52:29.218Z</time></trkpt><trkpt lat="43.12348" lon="13.5859583"><ele>135.0</ele><time>2026-04-17T16:52:30.218Z</time></trkpt><trkpt lat="43.123545" lon="13.5861517"><ele>135.0</ele><time>2026-04-17T16:52:31.218Z</time></trkpt><trkpt lat="43.1236167" lon="13.5863283"><ele>134.66666666666666</ele><time>2026-04-17T16:52:32.218Z</time></trkpt><trkpt lat="43.1236917" lon="13.5865067"><ele>134.33333333333331</ele><time>2026-04-17T16:52:33.218Z</time></trkpt><trkpt lat="43.1237833" lon="13.5866783"><ele>134.0</ele><time>2026-04-17T16:52:34.218Z</time></trkpt><trkpt lat="43.123885" lon="13.5868533"><ele>133.66666666666666</ele><time>2026-04-17T16:52:35.218Z</time></trkpt><trkpt lat="43.123985" lon="13.587035"><ele>133.33333333333334</ele><time>2026-04-17T16:52:36.218Z</time></trkpt><trkpt lat="43.1240867" lon="13.587205"><ele>133.0</ele><time>2026-04-17T16:52:37.218Z</time></trkpt><trkpt lat="43.12418" lon="13.587375"><ele>133.66666666666669</ele><time>2026-04-17T16:52:38.218Z</time></trkpt><trkpt lat="43.1242717" lon="13.5875367"><ele>134.33333333333334</ele><time>2026-04-17T16:52:39.218Z</time></trkpt><trkpt lat="43.12435" lon="13.58772"><ele>135.0</ele><time>2026-04-17T16:52:40.218Z</time></trkpt><trkpt lat="43.124425" lon="13.5879183"><ele>135.0</ele><time>2026-04-17T16:52:41.218Z</time></trkpt><trkpt lat="43.1245" lon="13.588115"><ele>135.0</ele><time>2026-04-17T16:52:42.218Z</time></trkpt><trkpt lat="43.1245717" lon="13.58831"><ele>135.0</ele><time>2026-04-17T16:52:43.218Z</time></trkpt><trkpt lat="43.124645" lon="13.588505"><ele>135.25</ele><time>2026-04-17T16:52:44.218Z</time></trkpt><trkpt lat="43.1247117" lon="13.5886933"><ele>135.5</ele><time>2026-04-17T16:52:45.218Z</time></trkpt><trkpt lat="43.1247833" lon="13.588875"><ele>135.75</ele><time>2026-04-17T16:52:46.218Z</time></trkpt><trkpt lat="43.1248417" lon="13.5890517"><ele>136.0</ele><time>2026-04-17T16:52:47.218Z</time></trkpt><trkpt lat="43.1248967" lon="13.5892283"><ele>136.0</ele><time>2026-04-17T16:52:48.218Z</time></trkpt><trkpt lat="43.1249517" lon="13.58941"><ele>136.0</ele><time>2026-04-17T16:52:49.218Z</time></trkpt><trkpt lat="43.1250167" lon="13.5895783"><ele>136.0</ele><time>2026-04-17T16:52:50.218Z</time></trkpt><trkpt lat="43.125085" lon="13.5897433"><ele>136.0</ele><time>2026-04-17T16:52:51.218Z</time></trkpt><trkpt lat="43.12515" lon="13.5898933"><ele>134.75</ele><time>2026-04-17T16:52:52.218Z</time></trkpt><trkpt lat="43.1252183" lon="13.5900417"><ele>133.5</ele><time>2026-04-17T16:52:53.218Z</time></trkpt><trkpt lat="43.125295" lon="13.590175"><ele>132.25</ele><time>2026-04-17T16:52:54.218Z</time></trkpt><trkpt lat="43.1253667" lon="13.590315"><ele>131.0</ele><time>2026-04-17T16:52:55.218Z</time></trkpt><trkpt lat="43.12544" lon="13.5904483"><ele>131.4</ele><time>2026-04-17T16:52:56.218Z</time></trkpt><trkpt lat="43.125515" lon="13.5905717"><ele>131.8</ele><time>2026-04-17T16:52:57.218Z</time></trkpt><trkpt lat="43.1255933" lon="13.59068"><ele>132.20000000000002</ele><time>2026-04-17T16:52:58.218Z</time></trkpt><trkpt lat="43.1256583" lon="13.5907833"><ele>132.6</ele><time>2026-04-17T16:52:59.218Z</time></trkpt><trkpt lat="43.12572" lon="13.5908733"><ele>133.0</ele><time>2026-04-17T16:53:00.218Z</time></trkpt><trkpt lat="43.1257733" lon="13.5909617"><ele>133.0</ele><time>2026-04-17T16:53:01.218Z</time></trkpt><trkpt lat="43.1258233" lon="13.591045"><ele>133.0</ele><time>2026-04-17T16:53:02.218Z</time></trkpt><trkpt lat="43.1258667" lon="13.5911217"><ele>133.0</ele><time>2026-04-17T16:53:03.218Z</time></trkpt><trkpt lat="43.12591" lon="13.5911967"><ele>133.0</ele><time>2026-04-17T16:53:04.218Z</time></trkpt><trkpt lat="43.1259517" lon="13.5912783"><ele>133.0</ele><time>2026-04-17T16:53:05.218Z</time></trkpt><trkpt lat="43.1259933" lon="13.5913667"><ele>133.0</ele><time>2026-04-17T16:53:06.218Z</time></trkpt><trkpt lat="43.1260233" lon="13.5914633"><ele>133.0</ele><time>2026-04-17T16:53:07.218Z</time></trkpt><trkpt lat="43.1260467" lon="13.5915617"><ele>132.33333333333334</ele><time>2026-04-17T16:53:08.218Z</time></trkpt><trkpt lat="43.1260617" lon="13.59167"><ele>131.66666666666669</ele><time>2026-04-17T16:53:09.218Z</time></trkpt><trkpt lat="43.1260667" lon="13.5917867"><ele>131.0</ele><time>2026-04-17T16:53:10.218Z</time></trkpt><trkpt lat="43.1260633" lon="13.5919067"><ele>130.33333333333334</ele><time>2026-04-17T16:53:11.218Z</time></trkpt><trkpt lat="43.1260433" lon="13.5920233"><ele>129.66666666666666</ele><time>2026-04-17T16:53:12.218Z</time></trkpt><trkpt lat="43.1260233" lon="13.5921283"><ele>129.0</ele><time>2026-04-17T16:53:13.217Z</time></trkpt><trkpt lat="43.1260217" lon="13.5922183"><ele>128.5</ele><time>2026-04-17T16:53:14.218Z</time></trkpt><trkpt lat="43.1260367" lon="13.59231"><ele>128.0</ele><time>2026-04-17T16:53:15.218Z</time></trkpt><trkpt lat="43.126075" lon="13.5923967"><ele>127.5</ele><time>2026-04-17T16:53:16.218Z</time></trkpt><trkpt lat="43.1261367" lon="13.59247"><ele>127.0</ele><time>2026-04-17T16:53:17.218Z</time></trkpt><trkpt lat="43.126215" lon="13.59251"><ele>126.5</ele><time>2026-04-17T16:53:18.218Z</time></trkpt><trkpt lat="43.1263083" lon="13.5925417"><ele>126.0</ele><time>2026-04-17T16:53:19.218Z</time></trkpt><trkpt lat="43.126395" lon="13.59259"><ele>126.0</ele><time>2026-04-17T16:53:20.218Z</time></trkpt><trkpt lat="43.1264817" lon="13.5926583"><ele>126.0</ele><time>2026-04-17T16:53:21.218Z</time></trkpt><trkpt lat="43.1265717" lon="13.5927467"><ele>126.0</ele><time>2026-04-17T16:53:22.218Z</time></trkpt><trkpt lat="43.12666" lon="13.5928517"><ele>126.0</ele><time>2026-04-17T16:53:23.218Z</time></trkpt><trkpt lat="43.1267267" lon="13.5929633"><ele>126.0</ele><time>2026-04-17T16:53:24.218Z</time></trkpt><trkpt lat="43.1267783" lon="13.5930883"><ele>126.0</ele><time>2026-04-17T16:53:25.218Z</time></trkpt><trkpt lat="43.12683" lon="13.5932333"><ele>126.0</ele><time>2026-04-17T16:53:26.218Z</time></trkpt><trkpt lat="43.1268817" lon="13.5933933"><ele>126.0</ele><time>2026-04-17T16:53:27.218Z</time></trkpt><trkpt lat="43.1269483" lon="13.5935533"><ele>126.0</ele><time>2026-04-17T16:53:28.218Z</time></trkpt><trkpt lat="43.127025" lon="13.5937183"><ele>126.0</ele><time>2026-04-17T16:53:29.218Z</time></trkpt><trkpt lat="43.1270933" lon="13.5938817"><ele>126.0</ele><time>2026-04-17T16:53:30.218Z</time></trkpt><trkpt lat="43.1271667" lon="13.59404"><ele>126.0</ele><time>2026-04-17T16:53:31.218Z</time></trkpt><trkpt lat="43.1272433" lon="13.59418"><ele>126.0</ele><time>2026-04-17T16:53:32.218Z</time></trkpt><trkpt lat="43.1273183" lon="13.5943133"><ele>126.0</ele><time>2026-04-17T16:53:33.218Z</time></trkpt><trkpt lat="43.1273917" lon="13.5944467"><ele>126.0</ele><time>2026-04-17T16:53:34.218Z</time></trkpt><trkpt lat="43.127465" lon="13.59458"><ele>126.0</ele><time>2026-04-17T16:53:35.218Z</time></trkpt><trkpt lat="43.1275383" lon="13.5947217"><ele>126.0</ele><time>2026-04-17T16:53:36.218Z</time></trkpt><trkpt lat="43.1276167" lon="13.5948583"><ele>126.25</ele><time>2026-04-17T16:53:37.218Z</time></trkpt><trkpt lat="43.1276933" lon="13.5950033"><ele>126.5</ele><time>2026-04-17T16:53:38.218Z</time></trkpt><trkpt lat="43.1277667" lon="13.59515"><ele>126.75</ele><time>2026-04-17T16:53:39.218Z</time></trkpt><trkpt lat="43.1278433" lon="13.5952917"><ele>127.0</ele><time>2026-04-17T16:53:40.218Z</time></trkpt><trkpt lat="43.1279267" lon="13.5954267"><ele>127.0</ele><time>2026-04-17T16:53:41.218Z</time></trkpt><trkpt lat="43.1280167" lon="13.5955667"><ele>127.0</ele><time>2026-04-17T16:53:42.218Z</time></trkpt><trkpt lat="43.128105" lon="13.595705"><ele>127.0</ele><time>2026-04-17T16:53:43.218Z</time></trkpt><trkpt lat="43.1282" lon="13.5958467"><ele>127.0</ele><time>2026-04-17T16:53:44.218Z</time></trkpt><trkpt lat="43.1282983" lon="13.596"><ele>127.0</ele><time>2026-04-17T16:53:45.218Z</time></trkpt><trkpt lat="43.1283933" lon="13.5961583"><ele>127.0</ele><time>2026-04-17T16:53:46.218Z</time></trkpt><trkpt lat="43.1285017" lon="13.596315"><ele>127.0</ele><time>2026-04-17T16:53:47.218Z</time></trkpt><trkpt lat="43.1286183" lon="13.596465"><ele>127.0</ele><time>2026-04-17T16:53:48.218Z</time></trkpt><trkpt lat="43.1287417" lon="13.59661"><ele>127.0</ele><time>2026-04-17T16:53:49.218Z</time></trkpt><trkpt lat="43.12888" lon="13.5967583"><ele>127.0</ele><time>2026-04-17T16:53:50.218Z</time></trkpt><trkpt lat="43.129025" lon="13.5969083"><ele>127.0</ele><time>2026-04-17T16:53:51.218Z</time></trkpt><trkpt lat="43.129175" lon="13.5970517"><ele>127.0</ele><time>2026-04-17T16:53:52.218Z</time></trkpt><trkpt lat="43.1293383" lon="13.59718"><ele>127.0</ele><time>2026-04-17T16:53:53.218Z</time></trkpt><trkpt lat="43.1294933" lon="13.5973133"><ele>127.0</ele><time>2026-04-17T16:53:54.218Z</time></trkpt><trkpt lat="43.129655" lon="13.5974617"><ele>127.0</ele><time>2026-04-17T16:53:55.218Z</time></trkpt><trkpt lat="43.1298267" lon="13.5975717"><ele>127.0</ele><time>2026-04-17T16:53:56.217Z</time></trkpt><trkpt lat="43.1300083" lon="13.5976933"><ele>126.66666666666667</ele><time>2026-04-17T16:53:57.218Z</time></trkpt><trkpt lat="43.1301833" lon="13.597795"><ele>126.33333333333334</ele><time>2026-04-17T16:53:58.218Z</time></trkpt><trkpt lat="43.130355" lon="13.597915"><ele>126.0</ele><time>2026-04-17T16:53:59.218Z</time></trkpt><trkpt lat="43.1305117" lon="13.5980483"><ele>126.0</ele><time>2026-04-17T16:54:00.218Z</time></trkpt><trkpt lat="43.1306567" lon="13.5981933"><ele>126.0</ele><time>2026-04-17T16:54:01.218Z</time></trkpt><trkpt lat="43.13079" lon="13.5983583"><ele>126.0</ele><time>2026-04-17T16:54:02.218Z</time></trkpt><trkpt lat="43.1309167" lon="13.5985317"><ele>126.0</ele><time>2026-04-17T16:54:03.218Z</time></trkpt><trkpt lat="43.1310433" lon="13.598715"><ele>126.0</ele><time>2026-04-17T16:54:04.218Z</time></trkpt><trkpt lat="43.13117" lon="13.5988983"><ele>126.0</ele><time>2026-04-17T16:54:05.218Z</time></trkpt><trkpt lat="43.13129" lon="13.599075"><ele>126.0</ele><time>2026-04-17T16:54:06.218Z</time></trkpt><trkpt lat="43.13141" lon="13.5992683"><ele>126.0</ele><time>2026-04-17T16:54:07.218Z</time></trkpt><trkpt lat="43.1315233" lon="13.5994633"><ele>126.0</ele><time>2026-04-17T16:54:08.218Z</time></trkpt><trkpt lat="43.1316417" lon="13.5996383"><ele>126.66666666666666</ele><time>2026-04-17T16:54:09.218Z</time></trkpt><trkpt lat="43.131765" lon="13.59981"><ele>127.33333333333333</ele><time>2026-04-17T16:54:10.218Z</time></trkpt><trkpt lat="43.1318833" lon="13.5999917"><ele>128.0</ele><time>2026-04-17T16:54:11.218Z</time></trkpt><trkpt lat="43.13201" lon="13.600165"><ele>126.66666666666666</ele><time>2026-04-17T16:54:12.218Z</time></trkpt><trkpt lat="43.132145" lon="13.6003367"><ele>125.33333333333334</ele><time>2026-04-17T16:54:13.218Z</time></trkpt><trkpt lat="43.1322683" lon="13.60051"><ele>124.0</ele><time>2026-04-17T16:54:14.218Z</time></trkpt><trkpt lat="43.13238" lon="13.6006817"><ele>124.0</ele><time>2026-04-17T16:54:15.218Z</time></trkpt><trkpt lat="43.132475" lon="13.600865"><ele>124.0</ele><time>2026-04-17T16:54:16.218Z</time></trkpt><trkpt lat="43.132555" lon="13.6010667"><ele>124.0</ele><time>2026-04-17T16:54:17.218Z</time></trkpt><trkpt lat="43.13263" lon="13.6012683"><ele>124.0</ele><time>2026-04-17T16:54:18.218Z</time></trkpt><trkpt lat="43.132705" lon="13.601455"><ele>124.0</ele><time>2026-04-17T16:54:19.218Z</time></trkpt><trkpt lat="43.13277" lon="13.60166"><ele>124.0</ele><time>2026-04-17T16:54:20.218Z</time></trkpt><trkpt lat="43.1328467" lon="13.601865"><ele>123.0</ele><time>2026-04-17T16:54:21.218Z</time></trkpt><trkpt lat="43.1329067" lon="13.6020967"><ele>122.0</ele><time>2026-04-17T16:54:22.218Z</time></trkpt><trkpt lat="43.133" lon="13.6022833"><ele>121.0</ele><time>2026-04-17T16:54:23.218Z</time></trkpt><trkpt lat="43.133085" lon="13.602465"><ele>121.0</ele><time>2026-04-17T16:54:24.218Z</time></trkpt><trkpt lat="43.1331783" lon="13.6026317"><ele>121.0</ele><time>2026-04-17T16:54:25.218Z</time></trkpt><trkpt lat="43.13328" lon="13.602805"><ele>121.0</ele><time>2026-04-17T16:54:26.218Z</time></trkpt><trkpt lat="43.1333717" lon="13.602975"><ele>121.0</ele><time>2026-04-17T16:54:27.218Z</time></trkpt><trkpt lat="43.1334817" lon="13.6031617"><ele>121.0</ele><time>2026-04-17T16:54:28.218Z</time></trkpt><trkpt lat="43.133615" lon="13.603345"><ele>121.0</ele><time>2026-04-17T16:54:29.218Z</time></trkpt><trkpt lat="43.133765" lon="13.60351"><ele>121.0</ele><time>2026-04-17T16:54:30.218Z</time></trkpt><trkpt lat="43.1339133" lon="13.6036567"><ele>121.0</ele><time>2026-04-17T16:54:31.218Z</time></trkpt><trkpt lat="43.1340517" lon="13.6037883"><ele>121.0</ele><time>2026-04-17T16:54:32.218Z</time></trkpt><trkpt lat="43.1342833" lon="13.60406"><ele>122.0</ele><time>2026-04-17T16:54:34.218Z</time></trkpt><trkpt lat="43.1343933" lon="13.604225"><ele>123.0</ele><time>2026-04-17T16:54:35.218Z</time></trkpt><trkpt lat="43.1345017" lon="13.6043967"><ele>124.0</ele><time>2026-04-17T16:54:36.218Z</time></trkpt><trkpt lat="43.13473" lon="13.604785"><ele>123.0</ele><time>2026-04-17T16:54:38.218Z</time></trkpt><trkpt lat="43.1348367" lon="13.6049833"><ele>122.0</ele><time>2026-04-17T16:54:39.218Z</time></trkpt><trkpt lat="43.1349417" lon="13.605165"><ele>121.0</ele><time>2026-04-17T16:54:40.218Z</time></trkpt><trkpt lat="43.13505" lon="13.6053383"><ele>121.0</ele><time>2026-04-17T16:54:41.218Z</time></trkpt><trkpt lat="43.1351667" lon="13.60551"><ele>121.0</ele><time>2026-04-17T16:54:42.218Z</time></trkpt><trkpt lat="43.1352883" lon="13.6056783"><ele>121.0</ele><time>2026-04-17T16:54:43.218Z</time></trkpt><trkpt lat="43.1354233" lon="13.6058417"><ele>121.0</ele><time>2026-04-17T16:54:44.218Z</time></trkpt><trkpt lat="43.1355633" lon="13.6059883"><ele>121.0</ele><time>2026-04-17T16:54:45.218Z</time></trkpt><trkpt lat="43.135705" lon="13.6061233"><ele>121.0</ele><time>2026-04-17T16:54:46.218Z</time></trkpt><trkpt lat="43.1358467" lon="13.6062567"><ele>119.66666666666667</ele><time>2026-04-17T16:54:47.214Z</time></trkpt><trkpt lat="43.1359933" lon="13.60638"><ele>118.33333333333334</ele><time>2026-04-17T16:54:48.217Z</time></trkpt><trkpt lat="43.1361433" lon="13.606495"><ele>117.0</ele><time>2026-04-17T16:54:49.217Z</time></trkpt><trkpt lat="43.1363033" lon="13.60663"><ele>117.0</ele><time>2026-04-17T16:54:50.217Z</time></trkpt><trkpt lat="43.1364567" lon="13.6067683"><ele>117.0</ele><time>2026-04-17T16:54:51.217Z</time></trkpt><trkpt lat="43.1366" lon="13.606915"><ele>117.0</ele><time>2026-04-17T16:54:52.217Z</time></trkpt><trkpt lat="43.1367417" lon="13.6070633"><ele>116.33333333333334</ele><time>2026-04-17T16:54:53.217Z</time></trkpt><trkpt lat="43.1368733" lon="13.607195"><ele>115.66666666666667</ele><time>2026-04-17T16:54:54.217Z</time></trkpt><trkpt lat="43.1370133" lon="13.6073267"><ele>115.0</ele><time>2026-04-17T16:54:55.217Z</time></trkpt><trkpt lat="43.13715" lon="13.6074667"><ele>115.0</ele><time>2026-04-17T16:54:56.217Z</time></trkpt><trkpt lat="43.137295" lon="13.607595"><ele>115.0</ele><time>2026-04-17T16:54:57.217Z</time></trkpt><trkpt lat="43.1374433" lon="13.6077467"><ele>115.0</ele><time>2026-04-17T16:54:58.217Z</time></trkpt><trkpt lat="43.13758" lon="13.6078833"><ele>114.66666666666667</ele><time>2026-04-17T16:54:59.217Z</time></trkpt><trkpt lat="43.137725" lon="13.6080067"><ele>114.33333333333334</ele><time>2026-04-17T16:55:00.217Z</time></trkpt><trkpt lat="43.13787" lon="13.6081383"><ele>114.0</ele><time>2026-04-17T16:55:01.217Z</time></trkpt><trkpt lat="43.1380083" lon="13.6082683"><ele>114.0</ele><time>2026-04-17T16:55:02.217Z</time></trkpt><trkpt lat="43.1381517" lon="13.6084133"><ele>114.0</ele><time>2026-04-17T16:55:03.217Z</time></trkpt><trkpt lat="43.1382967" lon="13.60857"><ele>114.0</ele><time>2026-04-17T16:55:04.217Z</time></trkpt><trkpt lat="43.1384333" lon="13.6087033"><ele>114.33333333333334</ele><time>2026-04-17T16:55:05.217Z</time></trkpt><trkpt lat="43.13857" lon="13.608835"><ele>114.66666666666667</ele><time>2026-04-17T16:55:06.217Z</time></trkpt><trkpt lat="43.1387067" lon="13.6089567"><ele>115.0</ele><time>2026-04-17T16:55:07.217Z</time></trkpt><trkpt lat="43.1388533" lon="13.6090883"><ele>115.0</ele><time>2026-04-17T16:55:08.217Z</time></trkpt><trkpt lat="43.1389983" lon="13.60923"><ele>115.0</ele><time>2026-04-17T16:55:09.217Z</time></trkpt><trkpt lat="43.1391467" lon="13.6093717"><ele>115.0</ele><time>2026-04-17T16:55:10.217Z</time></trkpt><trkpt lat="43.139285" lon="13.6095133"><ele>115.0</ele><time>2026-04-17T16:55:11.217Z</time></trkpt><trkpt lat="43.1394167" lon="13.609665"><ele>115.0</ele><time>2026-04-17T16:55:12.217Z</time></trkpt><trkpt lat="43.1395583" lon="13.6098233"><ele>115.0</ele><time>2026-04-17T16:55:13.217Z</time></trkpt><trkpt lat="43.1396967" lon="13.609985"><ele>115.0</ele><time>2026-04-17T16:55:14.217Z</time></trkpt><trkpt lat="43.1398367" lon="13.6101333"><ele>115.0</ele><time>2026-04-17T16:55:15.217Z</time></trkpt><trkpt lat="43.1399767" lon="13.6102867"><ele>115.0</ele><time>2026-04-17T16:55:16.217Z</time></trkpt><trkpt lat="43.1401183" lon="13.610435"><ele>115.0</ele><time>2026-04-17T16:55:17.217Z</time></trkpt><trkpt lat="43.1402583" lon="13.6105967"><ele>115.0</ele><time>2026-04-17T16:55:18.217Z</time></trkpt><trkpt lat="43.140395" lon="13.61074"><ele>115.0</ele><time>2026-04-17T16:55:19.217Z</time></trkpt><trkpt lat="43.14053" lon="13.6108833"><ele>115.0</ele><time>2026-04-17T16:55:20.217Z</time></trkpt><trkpt lat="43.140655" lon="13.6110367"><ele>115.0</ele><time>2026-04-17T16:55:21.217Z</time></trkpt><trkpt lat="43.14079" lon="13.611175"><ele>115.0</ele><time>2026-04-17T16:55:22.217Z</time></trkpt><trkpt lat="43.1409117" lon="13.6113167"><ele>115.66666666666667</ele><time>2026-04-17T16:55:23.217Z</time></trkpt><trkpt lat="43.1410417" lon="13.611465"><ele>116.33333333333334</ele><time>2026-04-17T16:55:24.217Z</time></trkpt><trkpt lat="43.1411733" lon="13.6116233"><ele>117.0</ele><time>2026-04-17T16:55:25.217Z</time></trkpt><trkpt lat="43.1413017" lon="13.6117733"><ele>117.0</ele><time>2026-04-17T16:55:26.217Z</time></trkpt><trkpt lat="43.1414267" lon="13.611925"><ele>117.0</ele><time>2026-04-17T16:55:27.217Z</time></trkpt><trkpt lat="43.1415567" lon="13.6120767"><ele>117.0</ele><time>2026-04-17T16:55:28.217Z</time></trkpt><trkpt lat="43.1416917" lon="13.61224"><ele>116.0</ele><time>2026-04-17T16:55:29.217Z</time></trkpt><trkpt lat="43.1418367" lon="13.6123867"><ele>115.0</ele><time>2026-04-17T16:55:30.217Z</time></trkpt><trkpt lat="43.1419767" lon="13.61253"><ele>114.0</ele><time>2026-04-17T16:55:31.217Z</time></trkpt><trkpt lat="43.1421117" lon="13.612695"><ele>113.33333333333334</ele><time>2026-04-17T16:55:32.217Z</time></trkpt><trkpt lat="43.142245" lon="13.61288"><ele>112.66666666666667</ele><time>2026-04-17T16:55:33.217Z</time></trkpt><trkpt lat="43.1423883" lon="13.6130467"><ele>112.0</ele><time>2026-04-17T16:55:34.217Z</time></trkpt><trkpt lat="43.1425383" lon="13.613195"><ele>112.0</ele><time>2026-04-17T16:55:35.217Z</time></trkpt><trkpt lat="43.1426733" lon="13.6133467"><ele>112.0</ele><time>2026-04-17T16:55:36.217Z</time></trkpt><trkpt lat="43.1428117" lon="13.6135183"><ele>112.0</ele><time>2026-04-17T16:55:37.217Z</time></trkpt><trkpt lat="43.1429383" lon="13.613675"><ele>112.0</ele><time>2026-04-17T16:55:38.217Z</time></trkpt><trkpt lat="43.1430567" lon="13.6138517"><ele>112.0</ele><time>2026-04-17T16:55:39.217Z</time></trkpt><trkpt lat="43.14317" lon="13.61402"><ele>112.0</ele><time>2026-04-17T16:55:40.217Z</time></trkpt><trkpt lat="43.1432883" lon="13.6141533"><ele>112.33333333333334</ele><time>2026-04-17T16:55:41.217Z</time></trkpt><trkpt lat="43.1434117" lon="13.6143083"><ele>112.66666666666666</ele><time>2026-04-17T16:55:42.217Z</time></trkpt><trkpt lat="43.1435367" lon="13.614455"><ele>113.0</ele><time>2026-04-17T16:55:43.217Z</time></trkpt><trkpt lat="43.1436483" lon="13.6146017"><ele>113.0</ele><time>2026-04-17T16:55:44.217Z</time></trkpt><trkpt lat="43.1437783" lon="13.614755"><ele>113.0</ele><time>2026-04-17T16:55:45.217Z</time></trkpt><trkpt lat="43.14391" lon="13.61493"><ele>113.0</ele><time>2026-04-17T16:55:46.217Z</time></trkpt><trkpt lat="43.1440467" lon="13.615095"><ele>112.66666666666666</ele><time>2026-04-17T16:55:47.217Z</time></trkpt><trkpt lat="43.1441717" lon="13.6152667"><ele>112.33333333333334</ele><time>2026-04-17T16:55:48.217Z</time></trkpt><trkpt lat="43.1442983" lon="13.6154317"><ele>112.0</ele><time>2026-04-17T16:55:49.217Z</time></trkpt><trkpt lat="43.1444267" lon="13.6156"><ele>112.0</ele><time>2026-04-17T16:55:50.217Z</time></trkpt><trkpt lat="43.1445483" lon="13.6157617"><ele>112.0</ele><time>2026-04-17T16:55:51.217Z</time></trkpt><trkpt lat="43.1446733" lon="13.6159117"><ele>112.0</ele><time>2026-04-17T16:55:52.217Z</time></trkpt><trkpt lat="43.1447917" lon="13.6160717"><ele>112.33333333333334</ele><time>2026-04-17T16:55:53.217Z</time></trkpt><trkpt lat="43.1449133" lon="13.6162233"><ele>112.66666666666666</ele><time>2026-04-17T16:55:54.217Z</time></trkpt><trkpt lat="43.1450283" lon="13.6163717"><ele>113.0</ele><time>2026-04-17T16:55:55.217Z</time></trkpt><trkpt lat="43.1451367" lon="13.6165267"><ele>113.0</ele><time>2026-04-17T16:55:56.217Z</time></trkpt><trkpt lat="43.1452233" lon="13.6166833"><ele>113.0</ele><time>2026-04-17T16:55:57.217Z</time></trkpt><trkpt lat="43.1453033" lon="13.6168417"><ele>113.0</ele><time>2026-04-17T16:55:58.217Z</time></trkpt><trkpt lat="43.1453933" lon="13.61699"><ele>113.0</ele><time>2026-04-17T16:55:59.217Z</time></trkpt><trkpt lat="43.1454767" lon="13.617155"><ele>113.75</ele><time>2026-04-17T16:56:00.217Z</time></trkpt><trkpt lat="43.145555" lon="13.6173333"><ele>114.5</ele><time>2026-04-17T16:56:01.217Z</time></trkpt><trkpt lat="43.1456317" lon="13.6175"><ele>115.25</ele><time>2026-04-17T16:56:02.217Z</time></trkpt><trkpt lat="43.145715" lon="13.6176617"><ele>116.0</ele><time>2026-04-17T16:56:03.217Z</time></trkpt><trkpt lat="43.1457933" lon="13.6178"><ele>114.5</ele><time>2026-04-17T16:56:04.217Z</time></trkpt><trkpt lat="43.1458767" lon="13.61795"><ele>113.0</ele><time>2026-04-17T16:56:05.217Z</time></trkpt><trkpt lat="43.1459633" lon="13.6181233"><ele>111.5</ele><time>2026-04-17T16:56:06.217Z</time></trkpt><trkpt lat="43.146035" lon="13.6182917"><ele>110.0</ele><time>2026-04-17T16:56:07.217Z</time></trkpt><trkpt lat="43.1461067" lon="13.6184333"><ele>110.0</ele><time>2026-04-17T16:56:08.217Z</time></trkpt><trkpt lat="43.146185" lon="13.6185917"><ele>110.0</ele><time>2026-04-17T16:56:09.217Z</time></trkpt><trkpt lat="43.1462567" lon="13.6187383"><ele>110.0</ele><time>2026-04-17T16:56:10.217Z</time></trkpt><trkpt lat="43.1463217" lon="13.6188717"><ele>110.0</ele><time>2026-04-17T16:56:11.217Z</time></trkpt><trkpt lat="43.146385" lon="13.6190033"><ele>110.0</ele><time>2026-04-17T16:56:12.217Z</time></trkpt><trkpt lat="43.1464433" lon="13.619125"><ele>110.0</ele><time>2026-04-17T16:56:13.217Z</time></trkpt><trkpt lat="43.1464817" lon="13.61923"><ele>110.0</ele><time>2026-04-17T16:56:14.217Z</time></trkpt><trkpt lat="43.1465183" lon="13.6193467"><ele>110.0</ele><time>2026-04-17T16:56:15.217Z</time></trkpt><trkpt lat="43.1465617" lon="13.6194633"><ele>110.0</ele><time>2026-04-17T16:56:16.217Z</time></trkpt><trkpt lat="43.1466167" lon="13.619605"><ele>110.0</ele><time>2026-04-17T16:56:17.217Z</time></trkpt><trkpt lat="43.1466733" lon="13.6197683"><ele>110.0</ele><time>2026-04-17T16:56:18.217Z</time></trkpt><trkpt lat="43.1467283" lon="13.6199233"><ele>110.0</ele><time>2026-04-17T16:56:19.217Z</time></trkpt><trkpt lat="43.1467817" lon="13.6200917"><ele>110.0</ele><time>2026-04-17T16:56:20.217Z</time></trkpt><trkpt lat="43.1468467" lon="13.62025"><ele>109.0</ele><time>2026-04-17T16:56:21.217Z</time></trkpt><trkpt lat="43.1469033" lon="13.620405"><ele>108.0</ele><time>2026-04-17T16:56:22.217Z</time></trkpt><trkpt lat="43.1469483" lon="13.6205717"><ele>107.0</ele><time>2026-04-17T16:56:23.217Z</time></trkpt><trkpt lat="43.146995" lon="13.6207217"><ele>106.0</ele><time>2026-04-17T16:56:24.217Z</time></trkpt><trkpt lat="43.14704" lon="13.6208617"><ele>106.0</ele><time>2026-04-17T16:56:25.217Z</time></trkpt><trkpt lat="43.1471017" lon="13.6210033"><ele>106.0</ele><time>2026-04-17T16:56:26.217Z</time></trkpt><trkpt lat="43.1471517" lon="13.6211483"><ele>106.0</ele><time>2026-04-17T16:56:27.217Z</time></trkpt><trkpt lat="43.147195" lon="13.62129"><ele>106.0</ele><time>2026-04-17T16:56:28.217Z</time></trkpt><trkpt lat="43.1472533" lon="13.6214417"><ele>106.0</ele><time>2026-04-17T16:56:29.217Z</time></trkpt><trkpt lat="43.1473167" lon="13.6216017"><ele>106.0</ele><time>2026-04-17T16:56:30.217Z</time></trkpt><trkpt lat="43.1473733" lon="13.62175"><ele>106.0</ele><time>2026-04-17T16:56:31.217Z</time></trkpt><trkpt lat="43.1474217" lon="13.6218967"><ele>106.0</ele><time>2026-04-17T16:56:32.217Z</time></trkpt><trkpt lat="43.1474683" lon="13.6220367"><ele>105.5</ele><time>2026-04-17T16:56:33.217Z</time></trkpt><trkpt lat="43.1475283" lon="13.622175"><ele>105.0</ele><time>2026-04-17T16:56:34.217Z</time></trkpt><trkpt lat="43.14758" lon="13.6223283"><ele>104.5</ele><time>2026-04-17T16:56:35.217Z</time></trkpt><trkpt lat="43.1476417" lon="13.6224883"><ele>104.0</ele><time>2026-04-17T16:56:36.217Z</time></trkpt><trkpt lat="43.1476983" lon="13.622655"><ele>104.0</ele><time>2026-04-17T16:56:37.217Z</time></trkpt><trkpt lat="43.14776" lon="13.6228133"><ele>104.0</ele><time>2026-04-17T16:56:38.217Z</time></trkpt><trkpt lat="43.1478133" lon="13.622965"><ele>104.0</ele><time>2026-04-17T16:56:39.217Z</time></trkpt><trkpt lat="43.1478683" lon="13.6231017"><ele>104.0</ele><time>2026-04-17T16:56:40.217Z</time></trkpt><trkpt lat="43.147915" lon="13.6232417"><ele>103.5</ele><time>2026-04-17T16:56:41.217Z</time></trkpt><trkpt lat="43.1479683" lon="13.6233767"><ele>103.0</ele><time>2026-04-17T16:56:42.217Z</time></trkpt><trkpt lat="43.1480333" lon="13.6235183"><ele>102.5</ele><time>2026-04-17T16:56:43.217Z</time></trkpt><trkpt lat="43.1481067" lon="13.6236617"><ele>102.0</ele><time>2026-04-17T16:56:44.217Z</time></trkpt><trkpt lat="43.1481917" lon="13.6237983"><ele>102.0</ele><time>2026-04-17T16:56:45.217Z</time></trkpt><trkpt lat="43.1482883" lon="13.6239267"><ele>102.0</ele><time>2026-04-17T16:56:46.217Z</time></trkpt><trkpt lat="43.1483883" lon="13.62405"><ele>102.0</ele><time>2026-04-17T16:56:47.217Z</time></trkpt><trkpt lat="43.148505" lon="13.6241683"><ele>102.0</ele><time>2026-04-17T16:56:48.217Z</time></trkpt><trkpt lat="43.1486383" lon="13.6242583"><ele>102.0</ele><time>2026-04-17T16:56:49.217Z</time></trkpt><trkpt lat="43.1487633" lon="13.6243483"><ele>102.0</ele><time>2026-04-17T16:56:50.217Z</time></trkpt><trkpt lat="43.14889" lon="13.6244217"><ele>102.0</ele><time>2026-04-17T16:56:51.217Z</time></trkpt><trkpt lat="43.1490067" lon="13.624495"><ele>102.0</ele><time>2026-04-17T16:56:52.217Z</time></trkpt><trkpt lat="43.1491117" lon="13.6245617"><ele>101.25</ele><time>2026-04-17T16:56:53.217Z</time></trkpt><trkpt lat="43.14923" lon="13.6246417"><ele>100.5</ele><time>2026-04-17T16:56:54.217Z</time></trkpt><trkpt lat="43.1493433" lon="13.6247183"><ele>99.75</ele><time>2026-04-17T16:56:55.217Z</time></trkpt><trkpt lat="43.149455" lon="13.6248117"><ele>99.0</ele><time>2026-04-17T16:56:56.217Z</time></trkpt><trkpt lat="43.1495633" lon="13.6249183"><ele>99.0</ele><time>2026-04-17T16:56:57.216Z</time></trkpt><trkpt lat="43.1496717" lon="13.625025"><ele>99.0</ele><time>2026-04-17T16:56:58.217Z</time></trkpt><trkpt lat="43.149775" lon="13.6251383"><ele>99.0</ele><time>2026-04-17T16:56:59.217Z</time></trkpt><trkpt lat="43.1498733" lon="13.6252617"><ele>99.0</ele><time>2026-04-17T16:57:00.217Z</time></trkpt><trkpt lat="43.149965" lon="13.6253883"><ele>99.33333333333334</ele><time>2026-04-17T16:57:01.217Z</time></trkpt><trkpt lat="43.150075" lon="13.625525"><ele>99.66666666666667</ele><time>2026-04-17T16:57:02.217Z</time></trkpt><trkpt lat="43.1501883" lon="13.6256583"><ele>100.0</ele><time>2026-04-17T16:57:03.217Z</time></trkpt><trkpt lat="43.1503" lon="13.6258117"><ele>100.0</ele><time>2026-04-17T16:57:04.217Z</time></trkpt><trkpt lat="43.1504217" lon="13.6259633"><ele>100.0</ele><time>2026-04-17T16:57:05.217Z</time></trkpt><trkpt lat="43.150555" lon="13.6260933"><ele>100.0</ele><time>2026-04-17T16:57:06.217Z</time></trkpt><trkpt lat="43.1507" lon="13.6262383"><ele>99.66666666666667</ele><time>2026-04-17T16:57:07.217Z</time></trkpt><trkpt lat="43.15086" lon="13.6263783"><ele>99.33333333333334</ele><time>2026-04-17T16:57:08.217Z</time></trkpt><trkpt lat="43.1510367" lon="13.62652"><ele>99.0</ele><time>2026-04-17T16:57:09.217Z</time></trkpt><trkpt lat="43.1512067" lon="13.6266883"><ele>99.0</ele><time>2026-04-17T16:57:10.216Z</time></trkpt><trkpt lat="43.1513683" lon="13.6268333"><ele>99.0</ele><time>2026-04-17T16:57:11.217Z</time></trkpt><trkpt lat="43.1515267" lon="13.6269867"><ele>99.0</ele><time>2026-04-17T16:57:12.217Z</time></trkpt><trkpt lat="43.1518033" lon="13.6272383"><ele>98.66666666666666</ele><time>2026-04-17T16:57:14.217Z</time></trkpt><trkpt lat="43.15194" lon="13.6273533"><ele>98.33333333333333</ele><time>2026-04-17T16:57:15.217Z</time></trkpt><trkpt lat="43.1520717" lon="13.62745"><ele>98.0</ele><time>2026-04-17T16:57:16.217Z</time></trkpt><trkpt lat="43.1521983" lon="13.6275433"><ele>98.0</ele><time>2026-04-17T16:57:17.217Z</time></trkpt><trkpt lat="43.1523467" lon="13.6276217"><ele>98.0</ele><time>2026-04-17T16:57:18.217Z</time></trkpt><trkpt lat="43.1524817" lon="13.6277017"><ele>98.0</ele><time>2026-04-17T16:57:19.217Z</time></trkpt><trkpt lat="43.1526117" lon="13.6277733"><ele>98.0</ele><time>2026-04-17T16:57:20.217Z</time></trkpt><trkpt lat="43.1527367" lon="13.62786"><ele>97.75</ele><time>2026-04-17T16:57:21.217Z</time></trkpt><trkpt lat="43.1528617" lon="13.6279483"><ele>97.5</ele><time>2026-04-17T16:57:22.217Z</time></trkpt><trkpt lat="43.1529917" lon="13.628035"><ele>97.25</ele><time>2026-04-17T16:57:23.217Z</time></trkpt><trkpt lat="43.1531117" lon="13.6281067"><ele>97.0</ele><time>2026-04-17T16:57:24.217Z</time></trkpt><trkpt lat="43.1532283" lon="13.62818"><ele>97.5</ele><time>2026-04-17T16:57:25.217Z</time></trkpt><trkpt lat="43.1533467" lon="13.628265"><ele>98.0</ele><time>2026-04-17T16:57:26.217Z</time></trkpt><trkpt lat="43.1534583" lon="13.6283333"><ele>98.5</ele><time>2026-04-17T16:57:27.217Z</time></trkpt><trkpt lat="43.15357" lon="13.628395"><ele>99.0</ele><time>2026-04-17T16:57:28.217Z</time></trkpt><trkpt lat="43.1536767" lon="13.6284583"><ele>99.0</ele><time>2026-04-17T16:57:29.217Z</time></trkpt><trkpt lat="43.1537917" lon="13.628535"><ele>99.0</ele><time>2026-04-17T16:57:30.217Z</time></trkpt><trkpt lat="43.1539033" lon="13.6286183"><ele>99.0</ele><time>2026-04-17T16:57:31.217Z</time></trkpt><trkpt lat="43.1540217" lon="13.6287"><ele>99.0</ele><time>2026-04-17T16:57:32.217Z</time></trkpt><trkpt lat="43.1541483" lon="13.6287783"><ele>98.25</ele><time>2026-04-17T16:57:33.217Z</time></trkpt><trkpt lat="43.1542717" lon="13.6288783"><ele>97.5</ele><time>2026-04-17T16:57:34.217Z</time></trkpt><trkpt lat="43.1544017" lon="13.6289733"><ele>96.75</ele><time>2026-04-17T16:57:35.217Z</time></trkpt><trkpt lat="43.1545133" lon="13.6290817"><ele>96.0</ele><time>2026-04-17T16:57:36.217Z</time></trkpt><trkpt lat="43.154635" lon="13.629185"><ele>96.0</ele><time>2026-04-17T16:57:37.217Z</time></trkpt><trkpt lat="43.15476" lon="13.62929"><ele>96.0</ele><time>2026-04-17T16:57:38.217Z</time></trkpt><trkpt lat="43.1548867" lon="13.62941"><ele>96.0</ele><time>2026-04-17T16:57:39.217Z</time></trkpt><trkpt lat="43.1550217" lon="13.6295167"><ele>96.0</ele><time>2026-04-17T16:57:40.217Z</time></trkpt><trkpt lat="43.1551433" lon="13.629625"><ele>96.0</ele><time>2026-04-17T16:57:41.217Z</time></trkpt><trkpt lat="43.155265" lon="13.6297367"><ele>96.0</ele><time>2026-04-17T16:57:42.217Z</time></trkpt><trkpt lat="43.15539" lon="13.629845"><ele>96.0</ele><time>2026-04-17T16:57:43.217Z</time></trkpt><trkpt lat="43.1555167" lon="13.6299583"><ele>96.0</ele><time>2026-04-17T16:57:44.217Z</time></trkpt><trkpt lat="43.1556517" lon="13.6300717"><ele>96.0</ele><time>2026-04-17T16:57:45.217Z</time></trkpt><trkpt lat="43.15579" lon="13.630185"><ele>96.0</ele><time>2026-04-17T16:57:46.217Z</time></trkpt><trkpt lat="43.1559167" lon="13.6303017"><ele>96.0</ele><time>2026-04-17T16:57:47.217Z</time></trkpt><trkpt lat="43.1560433" lon="13.6304033"><ele>96.0</ele><time>2026-04-17T16:57:48.217Z</time></trkpt><trkpt lat="43.1561633" lon="13.6305033"><ele>96.0</ele><time>2026-04-17T16:57:49.217Z</time></trkpt><trkpt lat="43.1562633" lon="13.630595"><ele>96.0</ele><time>2026-04-17T16:57:50.217Z</time></trkpt><trkpt lat="43.1563683" lon="13.63068"><ele>96.0</ele><time>2026-04-17T16:57:51.217Z</time></trkpt><trkpt lat="43.156465" lon="13.6307733"><ele>96.0</ele><time>2026-04-17T16:57:52.217Z</time></trkpt><trkpt lat="43.1565617" lon="13.6308717"><ele>96.0</ele><time>2026-04-17T16:57:53.217Z</time></trkpt><trkpt lat="43.1566633" lon="13.6309767"><ele>96.0</ele><time>2026-04-17T16:57:54.217Z</time></trkpt><trkpt lat="43.1567567" lon="13.63108"><ele>95.5</ele><time>2026-04-17T16:57:55.217Z</time></trkpt><trkpt lat="43.1568567" lon="13.631195"><ele>95.0</ele><time>2026-04-17T16:57:56.217Z</time></trkpt><trkpt lat="43.1569517" lon="13.6313167"><ele>94.5</ele><time>2026-04-17T16:57:57.217Z</time></trkpt><trkpt lat="43.157045" lon="13.6314483"><ele>94.0</ele><time>2026-04-17T16:57:58.217Z</time></trkpt><trkpt lat="43.1571383" lon="13.6315817"><ele>94.0</ele><time>2026-04-17T16:57:59.217Z</time></trkpt><trkpt lat="43.1572333" lon="13.6317217"><ele>94.0</ele><time>2026-04-17T16:58:00.217Z</time></trkpt><trkpt lat="43.1573317" lon="13.631845"><ele>94.0</ele><time>2026-04-17T16:58:01.217Z</time></trkpt><trkpt lat="43.157425" lon="13.631975"><ele>94.0</ele><time>2026-04-17T16:58:02.217Z</time></trkpt><trkpt lat="43.157515" lon="13.6320967"><ele>94.5</ele><time>2026-04-17T16:58:03.217Z</time></trkpt><trkpt lat="43.1575917" lon="13.6322317"><ele>95.0</ele><time>2026-04-17T16:58:04.217Z</time></trkpt><trkpt lat="43.15767" lon="13.6323667"><ele>95.5</ele><time>2026-04-17T16:58:05.217Z</time></trkpt><trkpt lat="43.1577583" lon="13.6325167"><ele>96.0</ele><time>2026-04-17T16:58:06.217Z</time></trkpt><trkpt lat="43.1578333" lon="13.6326817"><ele>95.25</ele><time>2026-04-17T16:58:07.217Z</time></trkpt><trkpt lat="43.1578967" lon="13.6328467"><ele>94.5</ele><time>2026-04-17T16:58:08.216Z</time></trkpt><trkpt lat="43.157955" lon="13.6329983"><ele>93.75</ele><time>2026-04-17T16:58:09.217Z</time></trkpt><trkpt lat="43.1580233" lon="13.6331433"><ele>93.0</ele><time>2026-04-17T16:58:10.217Z</time></trkpt><trkpt lat="43.1580917" lon="13.633285"><ele>93.0</ele><time>2026-04-17T16:58:11.217Z</time></trkpt><trkpt lat="43.15816" lon="13.6334383"><ele>93.0</ele><time>2026-04-17T16:58:12.217Z</time></trkpt><trkpt lat="43.1582183" lon="13.6335933"><ele>93.0</ele><time>2026-04-17T16:58:13.217Z</time></trkpt><trkpt lat="43.158275" lon="13.6337383"><ele>93.0</ele><time>2026-04-17T16:58:14.217Z</time></trkpt><trkpt lat="43.1583333" lon="13.6338767"><ele>93.0</ele><time>2026-04-17T16:58:15.217Z</time></trkpt><trkpt lat="43.1583933" lon="13.6340033"><ele>93.0</ele><time>2026-04-17T16:58:16.217Z</time></trkpt><trkpt lat="43.1584483" lon="13.6341283"><ele>93.0</ele><time>2026-04-17T16:58:17.217Z</time></trkpt><trkpt lat="43.158505" lon="13.634255"><ele>93.0</ele><time>2026-04-17T16:58:18.217Z</time></trkpt><trkpt lat="43.1585683" lon="13.6343917"><ele>93.0</ele><time>2026-04-17T16:58:19.217Z</time></trkpt><trkpt lat="43.1586333" lon="13.634555"><ele>92.5</ele><time>2026-04-17T16:58:20.217Z</time></trkpt><trkpt lat="43.1587" lon="13.6347167"><ele>92.0</ele><time>2026-04-17T16:58:21.217Z</time></trkpt><trkpt lat="43.1587617" lon="13.6348767"><ele>91.5</ele><time>2026-04-17T16:58:22.217Z</time></trkpt><trkpt lat="43.1588267" lon="13.6350267"><ele>91.0</ele><time>2026-04-17T16:58:23.217Z</time></trkpt><trkpt lat="43.1589033" lon="13.635175"><ele>91.0</ele><time>2026-04-17T16:58:24.217Z</time></trkpt><trkpt lat="43.1589933" lon="13.6353383"><ele>91.0</ele><time>2026-04-17T16:58:25.217Z</time></trkpt><trkpt lat="43.1590867" lon="13.635505"><ele>91.0</ele><time>2026-04-17T16:58:26.217Z</time></trkpt><trkpt lat="43.1591883" lon="13.6356783"><ele>91.0</ele><time>2026-04-17T16:58:27.217Z</time></trkpt><trkpt lat="43.1592883" lon="13.6358667"><ele>91.0</ele><time>2026-04-17T16:58:28.217Z</time></trkpt><trkpt lat="43.1593917" lon="13.6360533"><ele>91.0</ele><time>2026-04-17T16:58:29.217Z</time></trkpt><trkpt lat="43.159495" lon="13.6362283"><ele>90.33333333333333</ele><time>2026-04-17T16:58:30.217Z</time></trkpt><trkpt lat="43.159595" lon="13.6364083"><ele>89.66666666666667</ele><time>2026-04-17T16:58:31.217Z</time></trkpt><trkpt lat="43.1596933" lon="13.6366"><ele>89.0</ele><time>2026-04-17T16:58:32.217Z</time></trkpt><trkpt lat="43.1597917" lon="13.6367867"><ele>89.33333333333334</ele><time>2026-04-17T16:58:33.217Z</time></trkpt><trkpt lat="43.1598933" lon="13.63697"><ele>89.66666666666667</ele><time>2026-04-17T16:58:34.217Z</time></trkpt><trkpt lat="43.16" lon="13.63717"><ele>90.0</ele><time>2026-04-17T16:58:35.217Z</time></trkpt><trkpt lat="43.1601067" lon="13.63737"><ele>90.0</ele><time>2026-04-17T16:58:36.217Z</time></trkpt><trkpt lat="43.1602167" lon="13.6375683"><ele>90.0</ele><time>2026-04-17T16:58:37.217Z</time></trkpt><trkpt lat="43.1603317" lon="13.6377733"><ele>90.0</ele><time>2026-04-17T16:58:38.217Z</time></trkpt><trkpt lat="43.160445" lon="13.637985"><ele>89.33333333333333</ele><time>2026-04-17T16:58:39.217Z</time></trkpt><trkpt lat="43.1605617" lon="13.6381883"><ele>88.66666666666666</ele><time>2026-04-17T16:58:40.217Z</time></trkpt><trkpt lat="43.1606783" lon="13.6383967"><ele>88.0</ele><time>2026-04-17T16:58:41.217Z</time></trkpt><trkpt lat="43.1607867" lon="13.638595"><ele>88.66666666666666</ele><time>2026-04-17T16:58:42.217Z</time></trkpt><trkpt lat="43.1608883" lon="13.6387933"><ele>89.33333333333333</ele><time>2026-04-17T16:58:43.217Z</time></trkpt><trkpt lat="43.1609883" lon="13.638985"><ele>90.0</ele><time>2026-04-17T16:58:44.217Z</time></trkpt><trkpt lat="43.161095" lon="13.6391817"><ele>90.0</ele><time>2026-04-17T16:58:45.217Z</time></trkpt><trkpt lat="43.1612033" lon="13.639375"><ele>90.0</ele><time>2026-04-17T16:58:46.217Z</time></trkpt><trkpt lat="43.1613083" lon="13.6395633"><ele>90.0</ele><time>2026-04-17T16:58:47.217Z</time></trkpt><trkpt lat="43.1614" lon="13.6397517"><ele>89.66666666666667</ele><time>2026-04-17T16:58:48.217Z</time></trkpt><trkpt lat="43.1614817" lon="13.6399217"><ele>89.33333333333334</ele><time>2026-04-17T16:58:49.217Z</time></trkpt><trkpt lat="43.161555" lon="13.6401083"><ele>89.0</ele><time>2026-04-17T16:58:50.217Z</time></trkpt><trkpt lat="43.1616367" lon="13.6402867"><ele>89.0</ele><time>2026-04-17T16:58:51.217Z</time></trkpt><trkpt lat="43.1617217" lon="13.6404767"><ele>89.0</ele><time>2026-04-17T16:58:52.217Z</time></trkpt><trkpt lat="43.1618033" lon="13.640645"><ele>89.0</ele><time>2026-04-17T16:58:53.217Z</time></trkpt><trkpt lat="43.16189" lon="13.6408233"><ele>89.0</ele><time>2026-04-17T16:58:54.217Z</time></trkpt><trkpt lat="43.1619717" lon="13.641005"><ele>89.0</ele><time>2026-04-17T16:58:55.217Z</time></trkpt><trkpt lat="43.162055" lon="13.64118"><ele>89.0</ele><time>2026-04-17T16:58:56.217Z</time></trkpt><trkpt lat="43.1621367" lon="13.6413467"><ele>88.5</ele><time>2026-04-17T16:58:57.217Z</time></trkpt><trkpt lat="43.1622133" lon="13.641495"><ele>88.0</ele><time>2026-04-17T16:58:58.217Z</time></trkpt><trkpt lat="43.1622883" lon="13.64166"><ele>87.5</ele><time>2026-04-17T16:58:59.217Z</time></trkpt><trkpt lat="43.16236" lon="13.6418367"><ele>87.0</ele><time>2026-04-17T16:59:00.217Z</time></trkpt><trkpt lat="43.1624317" lon="13.6420183"><ele>87.0</ele><time>2026-04-17T16:59:01.217Z</time></trkpt><trkpt lat="43.1624933" lon="13.642205"><ele>87.0</ele><time>2026-04-17T16:59:02.217Z</time></trkpt><trkpt lat="43.1625517" lon="13.64238"><ele>87.0</ele><time>2026-04-17T16:59:03.217Z</time></trkpt><trkpt lat="43.1626083" lon="13.642545"><ele>87.0</ele><time>2026-04-17T16:59:04.217Z</time></trkpt><trkpt lat="43.1626683" lon="13.6427067"><ele>86.5</ele><time>2026-04-17T16:59:05.217Z</time></trkpt><trkpt lat="43.1627333" lon="13.6428733"><ele>86.0</ele><time>2026-04-17T16:59:06.217Z</time></trkpt><trkpt lat="43.162795" lon="13.6430517"><ele>85.5</ele><time>2026-04-17T16:59:07.217Z</time></trkpt><trkpt lat="43.1628533" lon="13.643225"><ele>85.0</ele><time>2026-04-17T16:59:08.217Z</time></trkpt><trkpt lat="43.1629133" lon="13.6433933"><ele>85.0</ele><time>2026-04-17T16:59:09.217Z</time></trkpt><trkpt lat="43.1629733" lon="13.6435583"><ele>85.0</ele><time>2026-04-17T16:59:10.217Z</time></trkpt><trkpt lat="43.163035" lon="13.643735"><ele>85.0</ele><time>2026-04-17T16:59:11.217Z</time></trkpt><trkpt lat="43.163095" lon="13.6439117"><ele>85.0</ele><time>2026-04-17T16:59:12.217Z</time></trkpt><trkpt lat="43.163165" lon="13.6440967"><ele>85.25</ele><time>2026-04-17T16:59:13.217Z</time></trkpt><trkpt lat="43.163235" lon="13.6442817"><ele>85.5</ele><time>2026-04-17T16:59:14.217Z</time></trkpt><trkpt lat="43.163305" lon="13.64446"><ele>85.75</ele><time>2026-04-17T16:59:15.217Z</time></trkpt><trkpt lat="43.1633683" lon="13.6446417"><ele>86.0</ele><time>2026-04-17T16:59:16.217Z</time></trkpt><trkpt lat="43.1634317" lon="13.6448267"><ele>86.0</ele><time>2026-04-17T16:59:17.217Z</time></trkpt><trkpt lat="43.1635" lon="13.6450133"><ele>86.0</ele><time>2026-04-17T16:59:18.217Z</time></trkpt><trkpt lat="43.1635667" lon="13.6452017"><ele>86.0</ele><time>2026-04-17T16:59:19.217Z</time></trkpt><trkpt lat="43.1636367" lon="13.64539"><ele>85.66666666666667</ele><time>2026-04-17T16:59:20.217Z</time></trkpt><trkpt lat="43.1637067" lon="13.6455833"><ele>85.33333333333333</ele><time>2026-04-17T16:59:21.217Z</time></trkpt><trkpt lat="43.1637767" lon="13.6457833"><ele>85.0</ele><time>2026-04-17T16:59:22.217Z</time></trkpt><trkpt lat="43.163845" lon="13.6459683"><ele>85.33333333333333</ele><time>2026-04-17T16:59:23.217Z</time></trkpt><trkpt lat="43.163915" lon="13.6461617"><ele>85.66666666666667</ele><time>2026-04-17T16:59:24.217Z</time></trkpt><trkpt lat="43.1639933" lon="13.646365"><ele>86.0</ele><time>2026-04-17T16:59:25.217Z</time></trkpt><trkpt lat="43.1640683" lon="13.6465717"><ele>86.0</ele><time>2026-04-17T16:59:26.216Z</time></trkpt><trkpt lat="43.1641433" lon="13.646775"><ele>86.0</ele><time>2026-04-17T16:59:27.217Z</time></trkpt><trkpt lat="43.1642217" lon="13.6469767"><ele>86.0</ele><time>2026-04-17T16:59:28.217Z</time></trkpt><trkpt lat="43.1643017" lon="13.6471867"><ele>85.33333333333334</ele><time>2026-04-17T16:59:29.217Z</time></trkpt><trkpt lat="43.1643767" lon="13.647385"><ele>84.66666666666667</ele><time>2026-04-17T16:59:30.217Z</time></trkpt><trkpt lat="43.1644483" lon="13.64759"><ele>84.0</ele><time>2026-04-17T16:59:31.217Z</time></trkpt><trkpt lat="43.164525" lon="13.647795"><ele>83.66666666666667</ele><time>2026-04-17T16:59:32.217Z</time></trkpt><trkpt lat="43.16461" lon="13.648"><ele>83.33333333333334</ele><time>2026-04-17T16:59:33.217Z</time></trkpt><trkpt lat="43.1647033" lon="13.6482033"><ele>83.0</ele><time>2026-04-17T16:59:34.217Z</time></trkpt><trkpt lat="43.1647983" lon="13.64839"><ele>84.0</ele><time>2026-04-17T16:59:35.217Z</time></trkpt><trkpt lat="43.1648933" lon="13.64857"><ele>85.0</ele><time>2026-04-17T16:59:36.217Z</time></trkpt><trkpt lat="43.1649983" lon="13.6487417"><ele>86.0</ele><time>2026-04-17T16:59:37.217Z</time></trkpt><trkpt lat="43.1651017" lon="13.6489083"><ele>86.0</ele><time>2026-04-17T16:59:38.217Z</time></trkpt><trkpt lat="43.1652133" lon="13.6490717"><ele>86.0</ele><time>2026-04-17T16:59:39.217Z</time></trkpt><trkpt lat="43.1653267" lon="13.6492367"><ele>86.0</ele><time>2026-04-17T16:59:40.217Z</time></trkpt><trkpt lat="43.1654367" lon="13.6493983"><ele>86.66666666666667</ele><time>2026-04-17T16:59:41.217Z</time></trkpt><trkpt lat="43.1655433" lon="13.6495667"><ele>87.33333333333333</ele><time>2026-04-17T16:59:42.217Z</time></trkpt><trkpt lat="43.16565" lon="13.6497217"><ele>88.0</ele><time>2026-04-17T16:59:43.217Z</time></trkpt><trkpt lat="43.1657533" lon="13.6498683"><ele>88.0</ele><time>2026-04-17T16:59:44.217Z</time></trkpt><trkpt lat="43.1658533" lon="13.65002"><ele>88.0</ele><time>2026-04-17T16:59:45.217Z</time></trkpt><trkpt lat="43.165955" lon="13.6501933"><ele>88.0</ele><time>2026-04-17T16:59:46.217Z</time></trkpt><trkpt lat="43.1660533" lon="13.65037"><ele>86.33333333333333</ele><time>2026-04-17T16:59:47.217Z</time></trkpt><trkpt lat="43.16616" lon="13.650535"><ele>84.66666666666667</ele><time>2026-04-17T16:59:48.216Z</time></trkpt><trkpt lat="43.1662817" lon="13.6506917"><ele>83.0</ele><time>2026-04-17T16:59:49.217Z</time></trkpt><trkpt lat="43.1664167" lon="13.6508383"><ele>82.33333333333334</ele><time>2026-04-17T16:59:50.217Z</time></trkpt><trkpt lat="43.16655" lon="13.65097"><ele>81.66666666666667</ele><time>2026-04-17T16:59:51.217Z</time></trkpt><trkpt lat="43.166685" lon="13.6510867"><ele>81.0</ele><time>2026-04-17T16:59:52.217Z</time></trkpt><trkpt lat="43.1668083" lon="13.6512017"><ele>81.0</ele><time>2026-04-17T16:59:53.217Z</time></trkpt><trkpt lat="43.16693" lon="13.6513133"><ele>81.0</ele><time>2026-04-17T16:59:54.217Z</time></trkpt><trkpt lat="43.1670417" lon="13.6514283"><ele>81.0</ele><time>2026-04-17T16:59:55.217Z</time></trkpt><trkpt lat="43.167155" lon="13.65154"><ele>81.0</ele><time>2026-04-17T16:59:56.217Z</time></trkpt><trkpt lat="43.1672667" lon="13.65165"><ele>81.5</ele><time>2026-04-17T16:59:57.217Z</time></trkpt><trkpt lat="43.1673667" lon="13.6517567"><ele>82.0</ele><time>2026-04-17T16:59:58.217Z</time></trkpt><trkpt lat="43.1674783" lon="13.6518617"><ele>82.5</ele><time>2026-04-17T16:59:59.217Z</time></trkpt><trkpt lat="43.1675883" lon="13.6519667"><ele>83.0</ele><time>2026-04-17T17:00:00.217Z</time></trkpt><trkpt lat="43.1676917" lon="13.6520417"><ele>83.0</ele><time>2026-04-17T17:00:01.217Z</time></trkpt><trkpt lat="43.1677833" lon="13.652135"><ele>83.0</ele><time>2026-04-17T17:00:02.217Z</time></trkpt><trkpt lat="43.16786" lon="13.65222"><ele>83.0</ele><time>2026-04-17T17:00:03.217Z</time></trkpt><trkpt lat="43.1679183" lon="13.652305"><ele>83.0</ele><time>2026-04-17T17:00:04.217Z</time></trkpt><trkpt lat="43.1679617" lon="13.65239"><ele>83.0</ele><time>2026-04-17T17:00:05.216Z</time></trkpt><trkpt lat="43.1679817" lon="13.65248"><ele>83.0</ele><time>2026-04-17T17:00:06.216Z</time></trkpt><trkpt lat="43.1679917" lon="13.6525817"><ele>83.0</ele><time>2026-04-17T17:00:07.216Z</time></trkpt><trkpt lat="43.1679683" lon="13.65268"><ele>83.0</ele><time>2026-04-17T17:00:08.216Z</time></trkpt><trkpt lat="43.16792" lon="13.652765"><ele>83.0</ele><time>2026-04-17T17:00:09.216Z</time></trkpt><trkpt lat="43.1678433" lon="13.6528367"><ele>83.0</ele><time>2026-04-17T17:00:10.216Z</time></trkpt><trkpt lat="43.167755" lon="13.652875"><ele>83.0</ele><time>2026-04-17T17:00:11.216Z</time></trkpt><trkpt lat="43.1676783" lon="13.6528883"><ele>83.0</ele><time>2026-04-17T17:00:12.216Z</time></trkpt><trkpt lat="43.167595" lon="13.65287"><ele>83.0</ele><time>2026-04-17T17:00:13.216Z</time></trkpt><trkpt lat="43.1675117" lon="13.6528217"><ele>83.0</ele><time>2026-04-17T17:00:14.216Z</time></trkpt><trkpt lat="43.16744" lon="13.6527633"><ele>83.0</ele><time>2026-04-17T17:00:15.216Z</time></trkpt><trkpt lat="43.1673933" lon="13.652705"><ele>83.0</ele><time>2026-04-17T17:00:16.216Z</time></trkpt><trkpt lat="43.1673367" lon="13.6526283"><ele>83.0</ele><time>2026-04-17T17:00:18.216Z</time></trkpt><trkpt lat="43.1673417" lon="13.6524833"><ele>83.0</ele><time>2026-04-17T17:00:25.216Z</time></trkpt><trkpt lat="43.1673917" lon="13.6523817"><ele>83.0</ele><time>2026-04-17T17:00:26.216Z</time></trkpt><trkpt lat="43.1674567" lon="13.6522617"><ele>83.0</ele><time>2026-04-17T17:00:27.216Z</time></trkpt><trkpt lat="43.1675283" lon="13.652125"><ele>83.0</ele><time>2026-04-17T17:00:28.216Z</time></trkpt><trkpt lat="43.167605" lon="13.6519833"><ele>83.0</ele><time>2026-04-17T17:00:29.216Z</time></trkpt><trkpt lat="43.167695" lon="13.6518267"><ele>84.0</ele><time>2026-04-17T17:00:30.216Z</time></trkpt><trkpt lat="43.1677883" lon="13.6516483"><ele>85.0</ele><time>2026-04-17T17:00:31.216Z</time></trkpt><trkpt lat="43.167885" lon="13.6514583"><ele>86.0</ele><time>2026-04-17T17:00:32.216Z</time></trkpt><trkpt lat="43.1679767" lon="13.6512617"><ele>88.66666666666667</ele><time>2026-04-17T17:00:33.216Z</time></trkpt><trkpt lat="43.16807" lon="13.6510617"><ele>91.33333333333333</ele><time>2026-04-17T17:00:34.216Z</time></trkpt><trkpt lat="43.16816" lon="13.6508833"><ele>94.0</ele><time>2026-04-17T17:00:35.216Z</time></trkpt><trkpt lat="43.1682483" lon="13.6506983"><ele>95.25</ele><time>2026-04-17T17:00:36.216Z</time></trkpt><trkpt lat="43.1683233" lon="13.650525"><ele>96.5</ele><time>2026-04-17T17:00:37.216Z</time></trkpt><trkpt lat="43.1684017" lon="13.6503583"><ele>97.75</ele><time>2026-04-17T17:00:38.216Z</time></trkpt><trkpt lat="43.1684833" lon="13.6502"><ele>99.0</ele><time>2026-04-17T17:00:39.216Z</time></trkpt><trkpt lat="43.1685617" lon="13.6500417"><ele>100.25</ele><time>2026-04-17T17:00:40.216Z</time></trkpt><trkpt lat="43.1686383" lon="13.6498917"><ele>101.5</ele><time>2026-04-17T17:00:41.216Z</time></trkpt><trkpt lat="43.1687133" lon="13.64974"><ele>102.75</ele><time>2026-04-17T17:00:42.216Z</time></trkpt><trkpt lat="43.1687883" lon="13.6495867"><ele>104.0</ele><time>2026-04-17T17:00:43.216Z</time></trkpt><trkpt lat="43.1688633" lon="13.6494417"><ele>105.75</ele><time>2026-04-17T17:00:44.216Z</time></trkpt><trkpt lat="43.16893" lon="13.6492933"><ele>107.5</ele><time>2026-04-17T17:00:45.216Z</time></trkpt><trkpt lat="43.1690017" lon="13.649145"><ele>109.25</ele><time>2026-04-17T17:00:46.216Z</time></trkpt><trkpt lat="43.1690767" lon="13.6489983"><ele>111.0</ele><time>2026-04-17T17:00:47.216Z</time></trkpt><trkpt lat="43.169155" lon="13.6488383"><ele>112.66666666666666</ele><time>2026-04-17T17:00:48.216Z</time></trkpt><trkpt lat="43.169245" lon="13.6486667"><ele>114.33333333333333</ele><time>2026-04-17T17:00:49.216Z</time></trkpt><trkpt lat="43.1693367" lon="13.6484867"><ele>116.0</ele><time>2026-04-17T17:00:50.216Z</time></trkpt><trkpt lat="43.1694367" lon="13.6483167"><ele>117.0</ele><time>2026-04-17T17:00:51.216Z</time></trkpt><trkpt lat="43.169555" lon="13.6481383"><ele>118.0</ele><time>2026-04-17T17:00:52.216Z</time></trkpt><trkpt lat="43.169695" lon="13.6479733"><ele>119.0</ele><time>2026-04-17T17:00:53.216Z</time></trkpt><trkpt lat="43.1698467" lon="13.6478217"><ele>120.33333333333333</ele><time>2026-04-17T17:00:54.216Z</time></trkpt><trkpt lat="43.1700083" lon="13.6476783"><ele>121.66666666666666</ele><time>2026-04-17T17:00:55.216Z</time></trkpt><trkpt lat="43.1701783" lon="13.6475533"><ele>123.0</ele><time>2026-04-17T17:00:56.216Z</time></trkpt><trkpt lat="43.170345" lon="13.64745"><ele>123.0</ele><time>2026-04-17T17:00:57.216Z</time></trkpt><trkpt lat="43.1705067" lon="13.6473733"><ele>123.0</ele><time>2026-04-17T17:00:58.216Z</time></trkpt><trkpt lat="43.1706517" lon="13.647325"><ele>123.0</ele><time>2026-04-17T17:00:59.216Z</time></trkpt><trkpt lat="43.170785" lon="13.6472867"><ele>123.2</ele><time>2026-04-17T17:01:00.216Z</time></trkpt><trkpt lat="43.1709133" lon="13.64725"><ele>123.4</ele><time>2026-04-17T17:01:01.216Z</time></trkpt><trkpt lat="43.1710267" lon="13.6472283"><ele>123.60000000000001</ele><time>2026-04-17T17:01:02.216Z</time></trkpt><trkpt lat="43.1711167" lon="13.64723"><ele>123.80000000000001</ele><time>2026-04-17T17:01:03.216Z</time></trkpt><trkpt lat="43.1711883" lon="13.647255"><ele>124.0</ele><time>2026-04-17T17:01:04.216Z</time></trkpt><trkpt lat="43.171255" lon="13.6473133"><ele>124.0</ele><time>2026-04-17T17:01:05.216Z</time></trkpt><trkpt lat="43.1713133" lon="13.647395"><ele>124.0</ele><time>2026-04-17T17:01:06.216Z</time></trkpt><trkpt lat="43.1713717" lon="13.647475"><ele>124.0</ele><time>2026-04-17T17:01:07.216Z</time></trkpt><trkpt lat="43.1715383" lon="13.6475017"><ele>124.0</ele><time>2026-04-17T17:01:09.216Z</time></trkpt><trkpt lat="43.171605" lon="13.6474367"><ele>124.0</ele><time>2026-04-17T17:01:10.216Z</time></trkpt><trkpt lat="43.171665" lon="13.6473417"><ele>124.80000000000001</ele><time>2026-04-17T17:01:11.216Z</time></trkpt><trkpt lat="43.171705" lon="13.647225"><ele>125.60000000000001</ele><time>2026-04-17T17:01:12.216Z</time></trkpt><trkpt lat="43.1717717" lon="13.647095"><ele>126.4</ele><time>2026-04-17T17:01:13.216Z</time></trkpt><trkpt lat="43.17186" lon="13.646995"><ele>127.2</ele><time>2026-04-17T17:01:14.216Z</time></trkpt><trkpt lat="43.1719733" lon="13.6469233"><ele>128.0</ele><time>2026-04-17T17:01:15.216Z</time></trkpt><trkpt lat="43.1720983" lon="13.646885"><ele>130.0</ele><time>2026-04-17T17:01:16.216Z</time></trkpt><trkpt lat="43.17223" lon="13.6468533"><ele>132.0</ele><time>2026-04-17T17:01:17.216Z</time></trkpt><trkpt lat="43.172375" lon="13.6468167"><ele>134.0</ele><time>2026-04-17T17:01:18.216Z</time></trkpt><trkpt lat="43.1725367" lon="13.6467733"><ele>136.0</ele><time>2026-04-17T17:01:19.216Z</time></trkpt><trkpt lat="43.172705" lon="13.64673"><ele>136.0</ele><time>2026-04-17T17:01:20.216Z</time></trkpt><trkpt lat="43.1728733" lon="13.6466967"><ele>136.0</ele><time>2026-04-17T17:01:21.216Z</time></trkpt><trkpt lat="43.173045" lon="13.6466767"><ele>136.0</ele><time>2026-04-17T17:01:22.216Z</time></trkpt><trkpt lat="43.173215" lon="13.6466633"><ele>135.0</ele><time>2026-04-17T17:01:23.216Z</time></trkpt><trkpt lat="43.1733933" lon="13.6466583"><ele>134.0</ele><time>2026-04-17T17:01:24.216Z</time></trkpt><trkpt lat="43.1735717" lon="13.6466617"><ele>133.0</ele><time>2026-04-17T17:01:25.216Z</time></trkpt><trkpt lat="43.173755" lon="13.6466883"><ele>133.0</ele><time>2026-04-17T17:01:26.216Z</time></trkpt><trkpt lat="43.1739383" lon="13.6467367"><ele>133.0</ele><time>2026-04-17T17:01:27.216Z</time></trkpt><trkpt lat="43.1741317" lon="13.6467967"><ele>133.0</ele><time>2026-04-17T17:01:28.216Z</time></trkpt><trkpt lat="43.17431" lon="13.6468717"><ele>132.66666666666669</ele><time>2026-04-17T17:01:29.216Z</time></trkpt><trkpt lat="43.1744883" lon="13.6469667"><ele>132.33333333333334</ele><time>2026-04-17T17:01:30.216Z</time></trkpt><trkpt lat="43.174665" lon="13.6470683"><ele>132.0</ele><time>2026-04-17T17:01:31.216Z</time></trkpt><trkpt lat="43.1748283" lon="13.6471933"><ele>133.0</ele><time>2026-04-17T17:01:32.216Z</time></trkpt><trkpt lat="43.17499" lon="13.64732"><ele>134.0</ele><time>2026-04-17T17:01:33.216Z</time></trkpt><trkpt lat="43.17514" lon="13.6474633"><ele>135.0</ele><time>2026-04-17T17:01:34.216Z</time></trkpt><trkpt lat="43.1752933" lon="13.6476067"><ele>135.0</ele><time>2026-04-17T17:01:35.216Z</time></trkpt><trkpt lat="43.17545" lon="13.647755"><ele>135.0</ele><time>2026-04-17T17:01:36.216Z</time></trkpt><trkpt lat="43.1756083" lon="13.6479"><ele>135.0</ele><time>2026-04-17T17:01:37.216Z</time></trkpt><trkpt lat="43.175775" lon="13.6480633"><ele>135.33333333333334</ele><time>2026-04-17T17:01:38.216Z</time></trkpt><trkpt lat="43.1759267" lon="13.6482167"><ele>135.66666666666669</ele><time>2026-04-17T17:01:39.216Z</time></trkpt><trkpt lat="43.1760733" lon="13.6483583"><ele>136.0</ele><time>2026-04-17T17:01:40.216Z</time></trkpt><trkpt lat="43.176215" lon="13.6484917"><ele>136.33333333333334</ele><time>2026-04-17T17:01:41.216Z</time></trkpt><trkpt lat="43.17636" lon="13.6486283"><ele>136.66666666666666</ele><time>2026-04-17T17:01:42.216Z</time></trkpt><trkpt lat="43.1765133" lon="13.64878"><ele>137.0</ele><time>2026-04-17T17:01:43.216Z</time></trkpt><trkpt lat="43.17667" lon="13.6489333"><ele>142.0</ele><time>2026-04-17T17:01:44.216Z</time></trkpt><trkpt lat="43.1768117" lon="13.6490767"><ele>147.0</ele><time>2026-04-17T17:01:45.216Z</time></trkpt><trkpt lat="43.1769633" lon="13.6492283"><ele>152.0</ele><time>2026-04-17T17:01:46.216Z</time></trkpt><trkpt lat="43.1771233" lon="13.6493917"><ele>150.66666666666666</ele><time>2026-04-17T17:01:47.216Z</time></trkpt><trkpt lat="43.1772833" lon="13.6495583"><ele>149.33333333333334</ele><time>2026-04-17T17:01:48.216Z</time></trkpt><trkpt lat="43.1774433" lon="13.6497117"><ele>148.0</ele><time>2026-04-17T17:01:49.216Z</time></trkpt><trkpt lat="43.1776" lon="13.6498583"><ele>149.0</ele><time>2026-04-17T17:01:50.216Z</time></trkpt><trkpt lat="43.177755" lon="13.6500217"><ele>150.0</ele><time>2026-04-17T17:01:51.216Z</time></trkpt><trkpt lat="43.1779133" lon="13.6501917"><ele>151.0</ele><time>2026-04-17T17:01:52.216Z</time></trkpt><trkpt lat="43.1780767" lon="13.6503567"><ele>155.0</ele><time>2026-04-17T17:01:53.216Z</time></trkpt><trkpt lat="43.1782417" lon="13.6505267"><ele>159.0</ele><time>2026-04-17T17:01:54.216Z</time></trkpt><trkpt lat="43.1784067" lon="13.6506867"><ele>163.0</ele><time>2026-04-17T17:01:55.216Z</time></trkpt><trkpt lat="43.1785633" lon="13.6508433"><ele>163.0</ele><time>2026-04-17T17:01:56.216Z</time></trkpt><trkpt lat="43.1787283" lon="13.65099"><ele>163.0</ele><time>2026-04-17T17:01:57.216Z</time></trkpt><trkpt lat="43.1788833" lon="13.6511417"><ele>163.0</ele><time>2026-04-17T17:01:58.216Z</time></trkpt><trkpt lat="43.179055" lon="13.651265"><ele>164.33333333333334</ele><time>2026-04-17T17:01:59.216Z</time></trkpt><trkpt lat="43.1792383" lon="13.6513567"><ele>165.66666666666666</ele><time>2026-04-17T17:02:00.216Z</time></trkpt><trkpt lat="43.1794333" lon="13.651425"><ele>167.0</ele><time>2026-04-17T17:02:01.216Z</time></trkpt><trkpt lat="43.1796333" lon="13.6514583"><ele>167.0</ele><time>2026-04-17T17:02:02.216Z</time></trkpt><trkpt lat="43.1798267" lon="13.6514717"><ele>167.0</ele><time>2026-04-17T17:02:03.216Z</time></trkpt><trkpt lat="43.180025" lon="13.65148"><ele>167.0</ele><time>2026-04-17T17:02:04.216Z</time></trkpt><trkpt lat="43.1802267" lon="13.6514617"><ele>167.0</ele><time>2026-04-17T17:02:05.216Z</time></trkpt><trkpt lat="43.1804183" lon="13.65141"><ele>167.0</ele><time>2026-04-17T17:02:06.216Z</time></trkpt><trkpt lat="43.1806067" lon="13.6513217"><ele>167.0</ele><time>2026-04-17T17:02:07.216Z</time></trkpt><trkpt lat="43.1807833" lon="13.6512167"><ele>173.0</ele><time>2026-04-17T17:02:08.216Z</time></trkpt><trkpt lat="43.1809583" lon="13.651095"><ele>179.0</ele><time>2026-04-17T17:02:09.216Z</time></trkpt><trkpt lat="43.1811367" lon="13.6509533"><ele>185.0</ele><time>2026-04-17T17:02:10.216Z</time></trkpt><trkpt lat="43.1813117" lon="13.6508133"><ele>185.0</ele><time>2026-04-17T17:02:11.216Z</time></trkpt><trkpt lat="43.1814917" lon="13.6506883"><ele>185.0</ele><time>2026-04-17T17:02:12.216Z</time></trkpt><trkpt lat="43.1816683" lon="13.6505633"><ele>185.0</ele><time>2026-04-17T17:02:13.216Z</time></trkpt><trkpt lat="43.181845" lon="13.6504317"><ele>185.33333333333331</ele><time>2026-04-17T17:02:14.216Z</time></trkpt><trkpt lat="43.1820233" lon="13.650305"><ele>185.66666666666666</ele><time>2026-04-17T17:02:15.216Z</time></trkpt><trkpt lat="43.1822017" lon="13.6501717"><ele>186.0</ele><time>2026-04-17T17:02:16.216Z</time></trkpt><trkpt lat="43.18238" lon="13.6500433"><ele>186.0</ele><time>2026-04-17T17:02:17.216Z</time></trkpt><trkpt lat="43.1825533" lon="13.649925"><ele>186.0</ele><time>2026-04-17T17:02:18.216Z</time></trkpt><trkpt lat="43.1827217" lon="13.6498033"><ele>186.0</ele><time>2026-04-17T17:02:19.216Z</time></trkpt><trkpt lat="43.1828783" lon="13.6496867"><ele>186.0</ele><time>2026-04-17T17:02:20.216Z</time></trkpt><trkpt lat="43.1830133" lon="13.6495833"><ele>186.0</ele><time>2026-04-17T17:02:21.216Z</time></trkpt><trkpt lat="43.18312" lon="13.6495067"><ele>186.0</ele><time>2026-04-17T17:02:22.216Z</time></trkpt><trkpt lat="43.1832183" lon="13.6494433"><ele>186.0</ele><time>2026-04-17T17:02:23.216Z</time></trkpt><trkpt lat="43.18331" lon="13.64942"><ele>187.20000000000002</ele><time>2026-04-17T17:02:24.216Z</time></trkpt><trkpt lat="43.1834117" lon="13.6494183"><ele>188.4</ele><time>2026-04-17T17:02:25.216Z</time></trkpt><trkpt lat="43.18351" lon="13.64938"><ele>189.6</ele><time>2026-04-17T17:02:26.216Z</time></trkpt><trkpt lat="43.1836" lon="13.6493017"><ele>190.8</ele><time>2026-04-17T17:02:27.216Z</time></trkpt><trkpt lat="43.183675" lon="13.649175"><ele>192.0</ele><time>2026-04-17T17:02:28.216Z</time></trkpt><trkpt lat="43.1837567" lon="13.6490483"><ele>192.0</ele><time>2026-04-17T17:02:29.216Z</time></trkpt><trkpt lat="43.183875" lon="13.64894"><ele>192.0</ele><time>2026-04-17T17:02:30.216Z</time></trkpt><trkpt lat="43.1840067" lon="13.6488533"><ele>192.0</ele><time>2026-04-17T17:02:31.216Z</time></trkpt><trkpt lat="43.1841433" lon="13.648775"><ele>192.0</ele><time>2026-04-17T17:02:32.216Z</time></trkpt><trkpt lat="43.1842933" lon="13.6486917"><ele>194.0</ele><time>2026-04-17T17:02:33.216Z</time></trkpt><trkpt lat="43.1844533" lon="13.6486033"><ele>196.0</ele><time>2026-04-17T17:02:34.216Z</time></trkpt><trkpt lat="43.1846167" lon="13.6485"><ele>198.0</ele><time>2026-04-17T17:02:35.216Z</time></trkpt><trkpt lat="43.1847933" lon="13.6483933"><ele>197.0</ele><time>2026-04-17T17:02:36.216Z</time></trkpt><trkpt lat="43.18496" lon="13.6482917"><ele>196.0</ele><time>2026-04-17T17:02:37.216Z</time></trkpt><trkpt lat="43.1851517" lon="13.6482083"><ele>195.0</ele><time>2026-04-17T17:02:38.216Z</time></trkpt><trkpt lat="43.1853517" lon="13.6481217"><ele>195.0</ele><time>2026-04-17T17:02:39.216Z</time></trkpt><trkpt lat="43.1855367" lon="13.64805"><ele>195.0</ele><time>2026-04-17T17:02:40.216Z</time></trkpt><trkpt lat="43.1857117" lon="13.6479833"><ele>195.0</ele><time>2026-04-17T17:02:41.216Z</time></trkpt><trkpt lat="43.1858817" lon="13.6479167"><ele>191.66666666666666</ele><time>2026-04-17T17:02:42.216Z</time></trkpt><trkpt lat="43.1860667" lon="13.647845"><ele>188.33333333333331</ele><time>2026-04-17T17:02:43.216Z</time></trkpt><trkpt lat="43.1862483" lon="13.64777"><ele>185.0</ele><time>2026-04-17T17:02:44.216Z</time></trkpt><trkpt lat="43.186425" lon="13.6477083"><ele>183.0</ele><time>2026-04-17T17:02:45.216Z</time></trkpt><trkpt lat="43.18661" lon="13.6476383"><ele>181.0</ele><time>2026-04-17T17:02:46.216Z</time></trkpt><trkpt lat="43.1867967" lon="13.6475683"><ele>179.0</ele><time>2026-04-17T17:02:47.216Z</time></trkpt><trkpt lat="43.186975" lon="13.647485"><ele>179.0</ele><time>2026-04-17T17:02:48.216Z</time></trkpt><trkpt lat="43.18715" lon="13.6473817"><ele>179.0</ele><time>2026-04-17T17:02:49.216Z</time></trkpt><trkpt lat="43.18733" lon="13.6472683"><ele>179.0</ele><time>2026-04-17T17:02:50.216Z</time></trkpt><trkpt lat="43.1874967" lon="13.6471533"><ele>179.0</ele><time>2026-04-17T17:02:51.216Z</time></trkpt><trkpt lat="43.1876617" lon="13.64702"><ele>179.0</ele><time>2026-04-17T17:02:52.216Z</time></trkpt><trkpt lat="43.1878183" lon="13.6468583"><ele>179.0</ele><time>2026-04-17T17:02:53.216Z</time></trkpt><trkpt lat="43.1879767" lon="13.6466933"><ele>177.33333333333331</ele><time>2026-04-17T17:02:54.216Z</time></trkpt><trkpt lat="43.1881217" lon="13.6465117"><ele>175.66666666666666</ele><time>2026-04-17T17:02:55.216Z</time></trkpt><trkpt lat="43.188265" lon="13.64632"><ele>174.0</ele><time>2026-04-17T17:02:56.216Z</time></trkpt><trkpt lat="43.1884" lon="13.64612"><ele>172.33333333333334</ele><time>2026-04-17T17:02:57.216Z</time></trkpt><trkpt lat="43.1885283" lon="13.6459117"><ele>170.66666666666669</ele><time>2026-04-17T17:02:58.216Z</time></trkpt><trkpt lat="43.1886567" lon="13.6457017"><ele>169.0</ele><time>2026-04-17T17:02:59.216Z</time></trkpt><trkpt lat="43.18878" lon="13.6454967"><ele>169.0</ele><time>2026-04-17T17:03:00.216Z</time></trkpt><trkpt lat="43.1889117" lon="13.6452967"><ele>169.0</ele><time>2026-04-17T17:03:01.216Z</time></trkpt><trkpt lat="43.1890367" lon="13.6450933"><ele>169.0</ele><time>2026-04-17T17:03:02.216Z</time></trkpt><trkpt lat="43.1891633" lon="13.6448883"><ele>164.33333333333334</ele><time>2026-04-17T17:03:03.216Z</time></trkpt><trkpt lat="43.1892983" lon="13.6446833"><ele>159.66666666666666</ele><time>2026-04-17T17:03:04.216Z</time></trkpt><trkpt lat="43.1894267" lon="13.6444817"><ele>155.0</ele><time>2026-04-17T17:03:05.216Z</time></trkpt><trkpt lat="43.18956" lon="13.644285"><ele>155.0</ele><time>2026-04-17T17:03:06.216Z</time></trkpt><trkpt lat="43.1896967" lon="13.6441117"><ele>155.0</ele><time>2026-04-17T17:03:07.216Z</time></trkpt><trkpt lat="43.1898383" lon="13.64394"><ele>155.0</ele><time>2026-04-17T17:03:08.216Z</time></trkpt><trkpt lat="43.1899867" lon="13.6437767"><ele>153.33333333333331</ele><time>2026-04-17T17:03:09.216Z</time></trkpt><trkpt lat="43.1901483" lon="13.6436233"><ele>151.66666666666666</ele><time>2026-04-17T17:03:10.216Z</time></trkpt><trkpt lat="43.1903083" lon="13.6434783"><ele>150.0</ele><time>2026-04-17T17:03:11.216Z</time></trkpt><trkpt lat="43.190465" lon="13.6433467"><ele>150.0</ele><time>2026-04-17T17:03:12.216Z</time></trkpt><trkpt lat="43.19065" lon="13.6432267"><ele>150.0</ele><time>2026-04-17T17:03:13.216Z</time></trkpt><trkpt lat="43.190835" lon="13.6431083"><ele>150.0</ele><time>2026-04-17T17:03:14.216Z</time></trkpt><trkpt lat="43.1910217" lon="13.643"><ele>145.66666666666666</ele><time>2026-04-17T17:03:15.216Z</time></trkpt><trkpt lat="43.191205" lon="13.64291"><ele>141.33333333333331</ele><time>2026-04-17T17:03:16.216Z</time></trkpt><trkpt lat="43.191395" lon="13.6428383"><ele>137.0</ele><time>2026-04-17T17:03:17.216Z</time></trkpt><trkpt lat="43.191585" lon="13.64277"><ele>136.66666666666666</ele><time>2026-04-17T17:03:18.216Z</time></trkpt><trkpt lat="43.1917633" lon="13.6426933"><ele>136.33333333333334</ele><time>2026-04-17T17:03:19.216Z</time></trkpt><trkpt lat="43.19195" lon="13.6426017"><ele>136.0</ele><time>2026-04-17T17:03:20.216Z</time></trkpt><trkpt lat="43.1921317" lon="13.6425133"><ele>136.0</ele><time>2026-04-17T17:03:21.216Z</time></trkpt><trkpt lat="43.19232" lon="13.6424217"><ele>136.0</ele><time>2026-04-17T17:03:22.216Z</time></trkpt><trkpt lat="43.1925117" lon="13.6423367"><ele>136.0</ele><time>2026-04-17T17:03:23.216Z</time></trkpt><trkpt lat="43.1927" lon="13.642255"><ele>133.66666666666669</ele><time>2026-04-17T17:03:24.216Z</time></trkpt><trkpt lat="43.1928817" lon="13.642175"><ele>131.33333333333334</ele><time>2026-04-17T17:03:25.215Z</time></trkpt><trkpt lat="43.19307" lon="13.6420967"><ele>129.0</ele><time>2026-04-17T17:03:26.216Z</time></trkpt><trkpt lat="43.1932567" lon="13.6420283"><ele>128.0</ele><time>2026-04-17T17:03:27.216Z</time></trkpt><trkpt lat="43.1934433" lon="13.6419533"><ele>127.0</ele><time>2026-04-17T17:03:28.216Z</time></trkpt><trkpt lat="43.19364" lon="13.6418817"><ele>126.0</ele><time>2026-04-17T17:03:29.216Z</time></trkpt><trkpt lat="43.193835" lon="13.64181"><ele>120.66666666666666</ele><time>2026-04-17T17:03:30.216Z</time></trkpt><trkpt lat="43.194025" lon="13.64174"><ele>115.33333333333333</ele><time>2026-04-17T17:03:31.216Z</time></trkpt><trkpt lat="43.1942183" lon="13.6416683"><ele>110.0</ele><time>2026-04-17T17:03:32.216Z</time></trkpt><trkpt lat="43.1944083" lon="13.6416133"><ele>110.0</ele><time>2026-04-17T17:03:33.216Z</time></trkpt><trkpt lat="43.1946067" lon="13.6415533"><ele>110.0</ele><time>2026-04-17T17:03:34.216Z</time></trkpt><trkpt lat="43.1947983" lon="13.64149"><ele>110.0</ele><time>2026-04-17T17:03:35.216Z</time></trkpt><trkpt lat="43.1949933" lon="13.6414167"><ele>107.0</ele><time>2026-04-17T17:03:36.216Z</time></trkpt><trkpt lat="43.195185" lon="13.6413633"><ele>104.0</ele><time>2026-04-17T17:03:37.216Z</time></trkpt><trkpt lat="43.1953733" lon="13.6413017"><ele>101.0</ele><time>2026-04-17T17:03:38.216Z</time></trkpt><trkpt lat="43.19556" lon="13.6412317"><ele>102.33333333333333</ele><time>2026-04-17T17:03:39.216Z</time></trkpt><trkpt lat="43.19574" lon="13.6411483"><ele>103.66666666666666</ele><time>2026-04-17T17:03:40.216Z</time></trkpt><trkpt lat="43.1959283" lon="13.641045"><ele>105.0</ele><time>2026-04-17T17:03:41.216Z</time></trkpt><trkpt lat="43.196105" lon="13.6409383"><ele>105.0</ele><time>2026-04-17T17:03:42.216Z</time></trkpt><trkpt lat="43.1962833" lon="13.6408483"><ele>105.0</ele><time>2026-04-17T17:03:43.216Z</time></trkpt><trkpt lat="43.19646" lon="13.6407483"><ele>105.0</ele><time>2026-04-17T17:03:44.216Z</time></trkpt><trkpt lat="43.1966433" lon="13.6406783"><ele>100.66666666666667</ele><time>2026-04-17T17:03:45.216Z</time></trkpt><trkpt lat="43.1968217" lon="13.640625"><ele>96.33333333333334</ele><time>2026-04-17T17:03:46.216Z</time></trkpt><trkpt lat="43.197005" lon="13.6405833"><ele>92.0</ele><time>2026-04-17T17:03:47.216Z</time></trkpt><trkpt lat="43.1971883" lon="13.6405617"><ele>88.33333333333334</ele><time>2026-04-17T17:03:48.216Z</time></trkpt><trkpt lat="43.1973783" lon="13.6405567"><ele>84.66666666666667</ele><time>2026-04-17T17:03:49.216Z</time></trkpt><trkpt lat="43.1975683" lon="13.64058"><ele>81.0</ele><time>2026-04-17T17:03:50.216Z</time></trkpt><trkpt lat="43.19776" lon="13.6406117"><ele>81.0</ele><time>2026-04-17T17:03:51.216Z</time></trkpt><trkpt lat="43.1979517" lon="13.6406717"><ele>81.0</ele><time>2026-04-17T17:03:52.216Z</time></trkpt><trkpt lat="43.1981433" lon="13.64074"><ele>81.0</ele><time>2026-04-17T17:03:53.216Z</time></trkpt><trkpt lat="43.1983283" lon="13.640825"><ele>79.0</ele><time>2026-04-17T17:03:54.216Z</time></trkpt><trkpt lat="43.1985117" lon="13.6409383"><ele>77.0</ele><time>2026-04-17T17:03:55.216Z</time></trkpt><trkpt lat="43.1986867" lon="13.6410633"><ele>75.0</ele><time>2026-04-17T17:03:56.216Z</time></trkpt><trkpt lat="43.1988517" lon="13.6412217"><ele>72.33333333333333</ele><time>2026-04-17T17:03:57.216Z</time></trkpt><trkpt lat="43.19901" lon="13.6413917"><ele>69.66666666666666</ele><time>2026-04-17T17:03:58.216Z</time></trkpt><trkpt lat="43.1991633" lon="13.6415883"><ele>67.0</ele><time>2026-04-17T17:03:59.216Z</time></trkpt><trkpt lat="43.1993067" lon="13.641795"><ele>65.66666666666666</ele><time>2026-04-17T17:04:00.216Z</time></trkpt><trkpt lat="43.19944" lon="13.6420133"><ele>64.33333333333333</ele><time>2026-04-17T17:04:01.216Z</time></trkpt><trkpt lat="43.19956" lon="13.6422383"><ele>63.0</ele><time>2026-04-17T17:04:02.216Z</time></trkpt><trkpt lat="43.1996817" lon="13.6424533"><ele>63.0</ele><time>2026-04-17T17:04:03.216Z</time></trkpt><trkpt lat="43.1998033" lon="13.642675"><ele>63.0</ele><time>2026-04-17T17:04:04.216Z</time></trkpt><trkpt lat="43.1999217" lon="13.64289"><ele>63.0</ele><time>2026-04-17T17:04:05.216Z</time></trkpt><trkpt lat="43.2000467" lon="13.6431017"><ele>61.0</ele><time>2026-04-17T17:04:06.216Z</time></trkpt><trkpt lat="43.20017" lon="13.6433133"><ele>59.0</ele><time>2026-04-17T17:04:07.216Z</time></trkpt><trkpt lat="43.2002883" lon="13.6435117"><ele>57.0</ele><time>2026-04-17T17:04:08.216Z</time></trkpt><trkpt lat="43.2004" lon="13.64372"><ele>56.0</ele><time>2026-04-17T17:04:09.216Z</time></trkpt><trkpt lat="43.200515" lon="13.6439267"><ele>55.0</ele><time>2026-04-17T17:04:10.216Z</time></trkpt><trkpt lat="43.2006283" lon="13.6441417"><ele>54.0</ele><time>2026-04-17T17:04:11.216Z</time></trkpt><trkpt lat="43.2007483" lon="13.6443517"><ele>54.66666666666667</ele><time>2026-04-17T17:04:12.216Z</time></trkpt><trkpt lat="43.2008667" lon="13.6445533"><ele>55.333333333333336</ele><time>2026-04-17T17:04:13.216Z</time></trkpt><trkpt lat="43.2010067" lon="13.6447317"><ele>56.0</ele><time>2026-04-17T17:04:14.216Z</time></trkpt><trkpt lat="43.201155" lon="13.6448917"><ele>56.0</ele><time>2026-04-17T17:04:15.216Z</time></trkpt><trkpt lat="43.2013067" lon="13.6450483"><ele>56.0</ele><time>2026-04-17T17:04:16.216Z</time></trkpt><trkpt lat="43.2014733" lon="13.6451833"><ele>56.0</ele><time>2026-04-17T17:04:17.216Z</time></trkpt><trkpt lat="43.2016333" lon="13.6452983"><ele>58.333333333333336</ele><time>2026-04-17T17:04:18.216Z</time></trkpt><trkpt lat="43.2018067" lon="13.6453983"><ele>60.66666666666667</ele><time>2026-04-17T17:04:19.216Z</time></trkpt><trkpt lat="43.2019783" lon="13.64549"><ele>63.0</ele><time>2026-04-17T17:04:20.216Z</time></trkpt><trkpt lat="43.202165" lon="13.6455633"><ele>61.66666666666667</ele><time>2026-04-17T17:04:21.216Z</time></trkpt><trkpt lat="43.2023533" lon="13.64563"><ele>60.333333333333336</ele><time>2026-04-17T17:04:22.216Z</time></trkpt><trkpt lat="43.2025317" lon="13.6456967"><ele>59.0</ele><time>2026-04-17T17:04:23.216Z</time></trkpt><trkpt lat="43.2027067" lon="13.6457567"><ele>59.0</ele><time>2026-04-17T17:04:24.216Z</time></trkpt><trkpt lat="43.2028767" lon="13.6458233"><ele>59.0</ele><time>2026-04-17T17:04:25.216Z</time></trkpt><trkpt lat="43.20305" lon="13.645875"><ele>59.0</ele><time>2026-04-17T17:04:26.216Z</time></trkpt><trkpt lat="43.203225" lon="13.6459433"><ele>60.0</ele><time>2026-04-17T17:04:27.216Z</time></trkpt><trkpt lat="43.2034033" lon="13.6460167"><ele>61.0</ele><time>2026-04-17T17:04:28.216Z</time></trkpt><trkpt lat="43.20359" lon="13.6460883"><ele>62.0</ele><time>2026-04-17T17:04:29.216Z</time></trkpt><trkpt lat="43.2037717" lon="13.6461533"><ele>62.0</ele><time>2026-04-17T17:04:30.216Z</time></trkpt><trkpt lat="43.2039633" lon="13.64623"><ele>62.0</ele><time>2026-04-17T17:04:31.216Z</time></trkpt><trkpt lat="43.2041483" lon="13.6462983"><ele>62.0</ele><time>2026-04-17T17:04:32.216Z</time></trkpt><trkpt lat="43.204335" lon="13.64637"><ele>60.0</ele><time>2026-04-17T17:04:33.216Z</time></trkpt><trkpt lat="43.204525" lon="13.646435"><ele>58.0</ele><time>2026-04-17T17:04:34.216Z</time></trkpt><trkpt lat="43.20471" lon="13.6465033"><ele>56.0</ele><time>2026-04-17T17:04:35.216Z</time></trkpt><trkpt lat="43.20489" lon="13.6465833"><ele>54.333333333333336</ele><time>2026-04-17T17:04:36.216Z</time></trkpt><trkpt lat="43.2050767" lon="13.6466533"><ele>52.66666666666667</ele><time>2026-04-17T17:04:37.216Z</time></trkpt><trkpt lat="43.2052667" lon="13.64672"><ele>51.0</ele><time>2026-04-17T17:04:38.216Z</time></trkpt><trkpt lat="43.205445" lon="13.6467967"><ele>51.0</ele><time>2026-04-17T17:04:39.216Z</time></trkpt><trkpt lat="43.2056217" lon="13.6468667"><ele>51.0</ele><time>2026-04-17T17:04:40.216Z</time></trkpt><trkpt lat="43.2058017" lon="13.646935"><ele>51.0</ele><time>2026-04-17T17:04:41.216Z</time></trkpt><trkpt lat="43.2059833" lon="13.6470017"><ele>51.0</ele><time>2026-04-17T17:04:42.216Z</time></trkpt><trkpt lat="43.206165" lon="13.6470683"><ele>51.0</ele><time>2026-04-17T17:04:43.216Z</time></trkpt><trkpt lat="43.20635" lon="13.6471433"><ele>51.0</ele><time>2026-04-17T17:04:44.216Z</time></trkpt><trkpt lat="43.206525" lon="13.6472117"><ele>51.33333333333333</ele><time>2026-04-17T17:04:45.216Z</time></trkpt><trkpt lat="43.206705" lon="13.6472717"><ele>51.666666666666664</ele><time>2026-04-17T17:04:46.216Z</time></trkpt><trkpt lat="43.2068867" lon="13.6473467"><ele>52.0</ele><time>2026-04-17T17:04:47.216Z</time></trkpt><trkpt lat="43.2070683" lon="13.6474217"><ele>52.0</ele><time>2026-04-17T17:04:48.216Z</time></trkpt><trkpt lat="43.2072533" lon="13.6474917"><ele>52.0</ele><time>2026-04-17T17:04:49.216Z</time></trkpt><trkpt lat="43.20744" lon="13.647555"><ele>52.0</ele><time>2026-04-17T17:04:50.216Z</time></trkpt><trkpt lat="43.207625" lon="13.6476267"><ele>51.666666666666664</ele><time>2026-04-17T17:04:51.216Z</time></trkpt><trkpt lat="43.2078033" lon="13.64769"><ele>51.33333333333333</ele><time>2026-04-17T17:04:52.216Z</time></trkpt><trkpt lat="43.2079817" lon="13.647755"><ele>51.0</ele><time>2026-04-17T17:04:53.216Z</time></trkpt><trkpt lat="43.2081633" lon="13.6478283"><ele>51.0</ele><time>2026-04-17T17:04:54.216Z</time></trkpt><trkpt lat="43.2083467" lon="13.647905"><ele>51.0</ele><time>2026-04-17T17:04:55.216Z</time></trkpt><trkpt lat="43.2085283" lon="13.6479717"><ele>51.0</ele><time>2026-04-17T17:04:56.216Z</time></trkpt><trkpt lat="43.2087183" lon="13.6480417"><ele>51.0</ele><time>2026-04-17T17:04:57.216Z</time></trkpt><trkpt lat="43.2089033" lon="13.6481033"><ele>51.0</ele><time>2026-04-17T17:04:58.216Z</time></trkpt><trkpt lat="43.20909" lon="13.6481783"><ele>51.0</ele><time>2026-04-17T17:04:59.216Z</time></trkpt><trkpt lat="43.2092817" lon="13.64826"><ele>50.33333333333333</ele><time>2026-04-17T17:05:00.216Z</time></trkpt><trkpt lat="43.2094783" lon="13.6483367"><ele>49.666666666666664</ele><time>2026-04-17T17:05:01.216Z</time></trkpt><trkpt lat="43.2096633" lon="13.6484067"><ele>49.0</ele><time>2026-04-17T17:05:02.215Z</time></trkpt><trkpt lat="43.20984" lon="13.6484683"><ele>49.0</ele><time>2026-04-17T17:05:03.216Z</time></trkpt><trkpt lat="43.2100167" lon="13.6485183"><ele>49.0</ele><time>2026-04-17T17:05:04.216Z</time></trkpt><trkpt lat="43.2101983" lon="13.64856"><ele>49.0</ele><time>2026-04-17T17:05:05.216Z</time></trkpt><trkpt lat="43.21039" lon="13.6485967"><ele>49.0</ele><time>2026-04-17T17:05:06.216Z</time></trkpt><trkpt lat="43.210585" lon="13.6486367"><ele>49.0</ele><time>2026-04-17T17:05:07.216Z</time></trkpt><trkpt lat="43.2107867" lon="13.64868"><ele>49.0</ele><time>2026-04-17T17:05:08.216Z</time></trkpt><trkpt lat="43.2109867" lon="13.648715"><ele>46.666666666666664</ele><time>2026-04-17T17:05:09.216Z</time></trkpt><trkpt lat="43.2111767" lon="13.6487483"><ele>44.33333333333333</ele><time>2026-04-17T17:05:10.216Z</time></trkpt><trkpt lat="43.211365" lon="13.6487833"><ele>42.0</ele><time>2026-04-17T17:05:11.216Z</time></trkpt><trkpt lat="43.2115567" lon="13.648815"><ele>41.333333333333336</ele><time>2026-04-17T17:05:12.216Z</time></trkpt><trkpt lat="43.21175" lon="13.6488483"><ele>40.66666666666667</ele><time>2026-04-17T17:05:13.216Z</time></trkpt><trkpt lat="43.2119383" lon="13.6488767"><ele>40.0</ele><time>2026-04-17T17:05:14.216Z</time></trkpt><trkpt lat="43.2121283" lon="13.6489117"><ele>41.0</ele><time>2026-04-17T17:05:15.216Z</time></trkpt><trkpt lat="43.212325" lon="13.6489517"><ele>42.0</ele><time>2026-04-17T17:05:16.216Z</time></trkpt><trkpt lat="43.2125133" lon="13.64899"><ele>43.0</ele><time>2026-04-17T17:05:17.216Z</time></trkpt><trkpt lat="43.21271" lon="13.64902"><ele>43.0</ele><time>2026-04-17T17:05:18.215Z</time></trkpt><trkpt lat="43.2129" lon="13.6490467"><ele>43.0</ele><time>2026-04-17T17:05:19.216Z</time></trkpt><trkpt lat="43.2130967" lon="13.6490883"><ele>43.0</ele><time>2026-04-17T17:05:20.216Z</time></trkpt><trkpt lat="43.2132883" lon="13.6491217"><ele>43.66666666666667</ele><time>2026-04-17T17:05:21.216Z</time></trkpt><trkpt lat="43.2134683" lon="13.6491567"><ele>44.333333333333336</ele><time>2026-04-17T17:05:22.216Z</time></trkpt><trkpt lat="43.21366" lon="13.6492067"><ele>45.0</ele><time>2026-04-17T17:05:23.216Z</time></trkpt><trkpt lat="43.2138367" lon="13.649285"><ele>46.33333333333333</ele><time>2026-04-17T17:05:24.216Z</time></trkpt><trkpt lat="43.2140133" lon="13.6493733"><ele>47.666666666666664</ele><time>2026-04-17T17:05:25.216Z</time></trkpt><trkpt lat="43.2141833" lon="13.649475"><ele>49.0</ele><time>2026-04-17T17:05:26.216Z</time></trkpt><trkpt lat="43.2143517" lon="13.649595"><ele>49.0</ele><time>2026-04-17T17:05:27.216Z</time></trkpt><trkpt lat="43.2145167" lon="13.6497367"><ele>49.0</ele><time>2026-04-17T17:05:28.216Z</time></trkpt><trkpt lat="43.2146733" lon="13.6498867"><ele>49.0</ele><time>2026-04-17T17:05:29.216Z</time></trkpt><trkpt lat="43.214825" lon="13.6500517"><ele>49.0</ele><time>2026-04-17T17:05:30.216Z</time></trkpt><trkpt lat="43.2149767" lon="13.650225"><ele>49.0</ele><time>2026-04-17T17:05:31.216Z</time></trkpt><trkpt lat="43.2151133" lon="13.650385"><ele>49.0</ele><time>2026-04-17T17:05:32.216Z</time></trkpt><trkpt lat="43.2152567" lon="13.6505483"><ele>49.0</ele><time>2026-04-17T17:05:33.216Z</time></trkpt><trkpt lat="43.2154033" lon="13.650715"><ele>49.0</ele><time>2026-04-17T17:05:34.216Z</time></trkpt><trkpt lat="43.2155533" lon="13.650885"><ele>49.0</ele><time>2026-04-17T17:05:35.216Z</time></trkpt><trkpt lat="43.2157" lon="13.6510517"><ele>48.0</ele><time>2026-04-17T17:05:36.216Z</time></trkpt><trkpt lat="43.2158567" lon="13.651225"><ele>47.0</ele><time>2026-04-17T17:05:37.216Z</time></trkpt><trkpt lat="43.2160117" lon="13.6513867"><ele>46.0</ele><time>2026-04-17T17:05:38.216Z</time></trkpt><trkpt lat="43.2161633" lon="13.6515617"><ele>46.0</ele><time>2026-04-17T17:05:39.216Z</time></trkpt><trkpt lat="43.2163117" lon="13.6517267"><ele>46.0</ele><time>2026-04-17T17:05:40.216Z</time></trkpt><trkpt lat="43.2164567" lon="13.6518867"><ele>46.0</ele><time>2026-04-17T17:05:41.216Z</time></trkpt><trkpt lat="43.21659" lon="13.6520483"><ele>46.66666666666667</ele><time>2026-04-17T17:05:42.216Z</time></trkpt><trkpt lat="43.2167283" lon="13.6522167"><ele>47.333333333333336</ele><time>2026-04-17T17:05:43.216Z</time></trkpt><trkpt lat="43.2168767" lon="13.652385"><ele>48.0</ele><time>2026-04-17T17:05:44.216Z</time></trkpt><trkpt lat="43.2170267" lon="13.6525583"><ele>48.0</ele><time>2026-04-17T17:05:45.216Z</time></trkpt><trkpt lat="43.2171767" lon="13.6527267"><ele>48.0</ele><time>2026-04-17T17:05:46.216Z</time></trkpt><trkpt lat="43.2173283" lon="13.6528917"><ele>48.0</ele><time>2026-04-17T17:05:47.216Z</time></trkpt><trkpt lat="43.2174817" lon="13.6530567"><ele>47.333333333333336</ele><time>2026-04-17T17:05:48.216Z</time></trkpt><trkpt lat="43.2176367" lon="13.6532183"><ele>46.66666666666667</ele><time>2026-04-17T17:05:49.216Z</time></trkpt><trkpt lat="43.21778" lon="13.6533817"><ele>46.0</ele><time>2026-04-17T17:05:50.216Z</time></trkpt><trkpt lat="43.21792" lon="13.6535433"><ele>46.0</ele><time>2026-04-17T17:05:51.216Z</time></trkpt><trkpt lat="43.2180633" lon="13.653695"><ele>46.0</ele><time>2026-04-17T17:05:52.216Z</time></trkpt><trkpt lat="43.2182067" lon="13.6538417"><ele>46.0</ele><time>2026-04-17T17:05:53.216Z</time></trkpt><trkpt lat="43.2183467" lon="13.6539917"><ele>46.333333333333336</ele><time>2026-04-17T17:05:54.216Z</time></trkpt><trkpt lat="43.2185033" lon="13.6541417"><ele>46.666666666666664</ele><time>2026-04-17T17:05:55.216Z</time></trkpt><trkpt lat="43.2186483" lon="13.654275"><ele>47.0</ele><time>2026-04-17T17:05:56.216Z</time></trkpt><trkpt lat="43.218815" lon="13.6544017"><ele>46.666666666666664</ele><time>2026-04-17T17:05:57.216Z</time></trkpt><trkpt lat="43.2189833" lon="13.65453"><ele>46.333333333333336</ele><time>2026-04-17T17:05:58.216Z</time></trkpt><trkpt lat="43.219155" lon="13.654655"><ele>46.0</ele><time>2026-04-17T17:05:59.216Z</time></trkpt><trkpt lat="43.21933" lon="13.65477"><ele>46.0</ele><time>2026-04-17T17:06:00.216Z</time></trkpt><trkpt lat="43.219505" lon="13.6548933"><ele>46.0</ele><time>2026-04-17T17:06:01.216Z</time></trkpt><trkpt lat="43.21968" lon="13.6550217"><ele>46.0</ele><time>2026-04-17T17:06:02.216Z</time></trkpt><trkpt lat="43.2198667" lon="13.6551467"><ele>45.66666666666667</ele><time>2026-04-17T17:06:03.216Z</time></trkpt><trkpt lat="43.220045" lon="13.655265"><ele>45.333333333333336</ele><time>2026-04-17T17:06:04.216Z</time></trkpt><trkpt lat="43.2202117" lon="13.6553783"><ele>45.0</ele><time>2026-04-17T17:06:05.216Z</time></trkpt><trkpt lat="43.2203717" lon="13.6554883"><ele>44.333333333333336</ele><time>2026-04-17T17:06:06.216Z</time></trkpt><trkpt lat="43.2205367" lon="13.6555967"><ele>43.66666666666667</ele><time>2026-04-17T17:06:07.216Z</time></trkpt><trkpt lat="43.2207" lon="13.6557067"><ele>43.0</ele><time>2026-04-17T17:06:08.216Z</time></trkpt><trkpt lat="43.220865" lon="13.6558167"><ele>43.66666666666667</ele><time>2026-04-17T17:06:09.216Z</time></trkpt><trkpt lat="43.2210333" lon="13.6559267"><ele>44.333333333333336</ele><time>2026-04-17T17:06:10.215Z</time></trkpt><trkpt lat="43.2211917" lon="13.6560333"><ele>45.0</ele><time>2026-04-17T17:06:11.215Z</time></trkpt><trkpt lat="43.2213567" lon="13.656145"><ele>46.0</ele><time>2026-04-17T17:06:12.215Z</time></trkpt><trkpt lat="43.2215233" lon="13.6562567"><ele>47.0</ele><time>2026-04-17T17:06:13.215Z</time></trkpt><trkpt lat="43.22169" lon="13.6563783"><ele>48.0</ele><time>2026-04-17T17:06:14.215Z</time></trkpt><trkpt lat="43.2218567" lon="13.65649"><ele>48.0</ele><time>2026-04-17T17:06:15.215Z</time></trkpt><trkpt lat="43.2220267" lon="13.656615"><ele>48.0</ele><time>2026-04-17T17:06:16.215Z</time></trkpt><trkpt lat="43.2221933" lon="13.6567333"><ele>48.0</ele><time>2026-04-17T17:06:17.215Z</time></trkpt><trkpt lat="43.222365" lon="13.6568417"><ele>46.666666666666664</ele><time>2026-04-17T17:06:18.215Z</time></trkpt><trkpt lat="43.2225367" lon="13.65696"><ele>45.33333333333333</ele><time>2026-04-17T17:06:19.215Z</time></trkpt><trkpt lat="43.2227083" lon="13.65708"><ele>44.0</ele><time>2026-04-17T17:06:20.215Z</time></trkpt><trkpt lat="43.22288" lon="13.6571933"><ele>44.0</ele><time>2026-04-17T17:06:21.215Z</time></trkpt><trkpt lat="43.2230483" lon="13.6573117"><ele>44.0</ele><time>2026-04-17T17:06:22.215Z</time></trkpt><trkpt lat="43.2232217" lon="13.6574167"><ele>44.0</ele><time>2026-04-17T17:06:23.215Z</time></trkpt><trkpt lat="43.22339" lon="13.65753"><ele>44.33333333333333</ele><time>2026-04-17T17:06:24.215Z</time></trkpt><trkpt lat="43.223555" lon="13.65764"><ele>44.666666666666664</ele><time>2026-04-17T17:06:25.215Z</time></trkpt><trkpt lat="43.22372" lon="13.6577417"><ele>45.0</ele><time>2026-04-17T17:06:26.215Z</time></trkpt><trkpt lat="43.2238917" lon="13.6578517"><ele>45.0</ele><time>2026-04-17T17:06:27.215Z</time></trkpt><trkpt lat="43.2240667" lon="13.6579733"><ele>45.0</ele><time>2026-04-17T17:06:28.215Z</time></trkpt><trkpt lat="43.2242417" lon="13.658085"><ele>45.0</ele><time>2026-04-17T17:06:29.215Z</time></trkpt><trkpt lat="43.2244117" lon="13.658185"><ele>45.0</ele><time>2026-04-17T17:06:30.215Z</time></trkpt><trkpt lat="43.22459" lon="13.6582833"><ele>45.0</ele><time>2026-04-17T17:06:31.215Z</time></trkpt><trkpt lat="43.2247567" lon="13.658395"><ele>45.0</ele><time>2026-04-17T17:06:32.215Z</time></trkpt><trkpt lat="43.2249183" lon="13.6584983"><ele>44.666666666666664</ele><time>2026-04-17T17:06:33.215Z</time></trkpt><trkpt lat="43.2250867" lon="13.6586017"><ele>44.33333333333333</ele><time>2026-04-17T17:06:34.215Z</time></trkpt><trkpt lat="43.2252583" lon="13.6587117"><ele>44.0</ele><time>2026-04-17T17:06:35.215Z</time></trkpt><trkpt lat="43.2254267" lon="13.6588133"><ele>44.0</ele><time>2026-04-17T17:06:36.215Z</time></trkpt><trkpt lat="43.225595" lon="13.6589083"><ele>44.0</ele><time>2026-04-17T17:06:37.215Z</time></trkpt><trkpt lat="43.22577" lon="13.6590183"><ele>44.0</ele><time>2026-04-17T17:06:38.215Z</time></trkpt><trkpt lat="43.2259467" lon="13.659125"><ele>44.666666666666664</ele><time>2026-04-17T17:06:39.215Z</time></trkpt><trkpt lat="43.2261333" lon="13.6592267"><ele>45.333333333333336</ele><time>2026-04-17T17:06:40.215Z</time></trkpt><trkpt lat="43.2263133" lon="13.6593317"><ele>46.0</ele><time>2026-04-17T17:06:41.215Z</time></trkpt><trkpt lat="43.2264867" lon="13.6594367"><ele>45.66666666666667</ele><time>2026-04-17T17:06:42.215Z</time></trkpt><trkpt lat="43.2266633" lon="13.6595417"><ele>45.333333333333336</ele><time>2026-04-17T17:06:43.215Z</time></trkpt><trkpt lat="43.2268317" lon="13.6596467"><ele>45.0</ele><time>2026-04-17T17:06:44.215Z</time></trkpt><trkpt lat="43.2270033" lon="13.6597433"><ele>45.0</ele><time>2026-04-17T17:06:45.215Z</time></trkpt><trkpt lat="43.227185" lon="13.65985"><ele>45.0</ele><time>2026-04-17T17:06:46.215Z</time></trkpt><trkpt lat="43.2273583" lon="13.6599583"><ele>45.0</ele><time>2026-04-17T17:06:47.215Z</time></trkpt><trkpt lat="43.2275367" lon="13.6600667"><ele>45.333333333333336</ele><time>2026-04-17T17:06:48.215Z</time></trkpt><trkpt lat="43.2277083" lon="13.6601633"><ele>45.66666666666667</ele><time>2026-04-17T17:06:49.215Z</time></trkpt><trkpt lat="43.2278833" lon="13.6602717"><ele>46.0</ele><time>2026-04-17T17:06:50.215Z</time></trkpt><trkpt lat="43.2280667" lon="13.6603883"><ele>44.66666666666667</ele><time>2026-04-17T17:06:51.215Z</time></trkpt><trkpt lat="43.2282383" lon="13.660495"><ele>43.333333333333336</ele><time>2026-04-17T17:06:52.215Z</time></trkpt><trkpt lat="43.228415" lon="13.6606"><ele>42.0</ele><time>2026-04-17T17:06:53.215Z</time></trkpt><trkpt lat="43.2285967" lon="13.6607133"><ele>42.0</ele><time>2026-04-17T17:06:54.215Z</time></trkpt><trkpt lat="43.2287767" lon="13.6608133"><ele>42.0</ele><time>2026-04-17T17:06:55.215Z</time></trkpt><trkpt lat="43.22896" lon="13.660915"><ele>42.0</ele><time>2026-04-17T17:06:56.215Z</time></trkpt><trkpt lat="43.229145" lon="13.6610167"><ele>42.0</ele><time>2026-04-17T17:06:57.215Z</time></trkpt><trkpt lat="43.2293233" lon="13.661125"><ele>42.0</ele><time>2026-04-17T17:06:58.215Z</time></trkpt><trkpt lat="43.229505" lon="13.6612383"><ele>42.0</ele><time>2026-04-17T17:06:59.215Z</time></trkpt><trkpt lat="43.2296817" lon="13.661345"><ele>42.333333333333336</ele><time>2026-04-17T17:07:00.215Z</time></trkpt><trkpt lat="43.2298467" lon="13.6614433"><ele>42.66666666666667</ele><time>2026-04-17T17:07:01.215Z</time></trkpt><trkpt lat="43.2300167" lon="13.6615367"><ele>43.0</ele><time>2026-04-17T17:07:02.215Z</time></trkpt><trkpt lat="43.2301783" lon="13.6616333"><ele>43.0</ele><time>2026-04-17T17:07:03.215Z</time></trkpt><trkpt lat="43.2303367" lon="13.6617333"><ele>43.0</ele><time>2026-04-17T17:07:04.215Z</time></trkpt><trkpt lat="43.2304983" lon="13.6618217"><ele>43.0</ele><time>2026-04-17T17:07:05.215Z</time></trkpt><trkpt lat="43.2306567" lon="13.66192"><ele>41.0</ele><time>2026-04-17T17:07:06.215Z</time></trkpt><trkpt lat="43.2308283" lon="13.6620217"><ele>39.0</ele><time>2026-04-17T17:07:07.215Z</time></trkpt><trkpt lat="43.2309933" lon="13.6621183"><ele>37.0</ele><time>2026-04-17T17:07:08.215Z</time></trkpt><trkpt lat="43.231155" lon="13.66222"><ele>37.0</ele><time>2026-04-17T17:07:09.215Z</time></trkpt><trkpt lat="43.2313117" lon="13.6623183"><ele>37.0</ele><time>2026-04-17T17:07:10.215Z</time></trkpt><trkpt lat="43.2314683" lon="13.662415"><ele>37.0</ele><time>2026-04-17T17:07:11.215Z</time></trkpt><trkpt lat="43.231625" lon="13.66252"><ele>36.0</ele><time>2026-04-17T17:07:12.215Z</time></trkpt><trkpt lat="43.2317783" lon="13.6626117"><ele>35.0</ele><time>2026-04-17T17:07:13.215Z</time></trkpt><trkpt lat="43.2319283" lon="13.6627117"><ele>34.0</ele><time>2026-04-17T17:07:14.215Z</time></trkpt><trkpt lat="43.2320833" lon="13.66282"><ele>34.0</ele><time>2026-04-17T17:07:15.215Z</time></trkpt><trkpt lat="43.2322233" lon="13.66292"><ele>34.0</ele><time>2026-04-17T17:07:16.215Z</time></trkpt><trkpt lat="43.232365" lon="13.6630133"><ele>34.0</ele><time>2026-04-17T17:07:17.215Z</time></trkpt><trkpt lat="43.23252" lon="13.663115"><ele>36.0</ele><time>2026-04-17T17:07:18.215Z</time></trkpt><trkpt lat="43.23269" lon="13.6632367"><ele>38.0</ele><time>2026-04-17T17:07:19.215Z</time></trkpt><trkpt lat="43.23289" lon="13.6633867"><ele>40.0</ele><time>2026-04-17T17:07:20.215Z</time></trkpt><trkpt lat="43.2331083" lon="13.663545"><ele>38.0</ele><time>2026-04-17T17:07:21.215Z</time></trkpt><trkpt lat="43.2333383" lon="13.6637117"><ele>36.0</ele><time>2026-04-17T17:07:22.215Z</time></trkpt><trkpt lat="43.2335783" lon="13.6638967"><ele>36.0</ele><time>2026-04-17T17:07:23.215Z</time></trkpt><trkpt lat="43.2338017" lon="13.664065"><ele>36.0</ele><time>2026-04-17T17:07:24.215Z</time></trkpt><trkpt lat="43.2340117" lon="13.66423"><ele>36.333333333333336</ele><time>2026-04-17T17:07:25.215Z</time></trkpt><trkpt lat="43.2341967" lon="13.6643983"><ele>36.66666666666667</ele><time>2026-04-17T17:07:26.215Z</time></trkpt><trkpt lat="43.23437" lon="13.6645617"><ele>37.0</ele><time>2026-04-17T17:07:27.215Z</time></trkpt><trkpt lat="43.2345267" lon="13.6647167"><ele>37.0</ele><time>2026-04-17T17:07:28.215Z</time></trkpt><trkpt lat="43.2346817" lon="13.6648467"><ele>37.0</ele><time>2026-04-17T17:07:29.215Z</time></trkpt><trkpt lat="43.2348433" lon="13.6649717"><ele>37.0</ele><time>2026-04-17T17:07:30.215Z</time></trkpt><trkpt lat="43.2350033" lon="13.6651033"><ele>36.66666666666667</ele><time>2026-04-17T17:07:31.215Z</time></trkpt><trkpt lat="43.2351567" lon="13.6652333"><ele>36.333333333333336</ele><time>2026-04-17T17:07:32.215Z</time></trkpt><trkpt lat="43.235305" lon="13.665355"><ele>36.0</ele><time>2026-04-17T17:07:33.215Z</time></trkpt><trkpt lat="43.2354483" lon="13.6654667"><ele>36.0</ele><time>2026-04-17T17:07:34.215Z</time></trkpt><trkpt lat="43.235565" lon="13.6655783"><ele>36.0</ele><time>2026-04-17T17:07:35.215Z</time></trkpt><trkpt lat="43.235685" lon="13.665675"><ele>36.0</ele><time>2026-04-17T17:07:36.215Z</time></trkpt><trkpt lat="43.2358083" lon="13.6657717"><ele>36.0</ele><time>2026-04-17T17:07:37.215Z</time></trkpt><trkpt lat="43.2359267" lon="13.6658533"><ele>36.0</ele><time>2026-04-17T17:07:38.215Z</time></trkpt><trkpt lat="43.2360333" lon="13.6659333"><ele>36.0</ele><time>2026-04-17T17:07:39.215Z</time></trkpt><trkpt lat="43.236135" lon="13.6660167"><ele>36.0</ele><time>2026-04-17T17:07:40.215Z</time></trkpt><trkpt lat="43.2362267" lon="13.6660933"><ele>36.0</ele><time>2026-04-17T17:07:41.215Z</time></trkpt><trkpt lat="43.236295" lon="13.6661633"><ele>36.0</ele><time>2026-04-17T17:07:42.215Z</time></trkpt><trkpt lat="43.236355" lon="13.6662183"><ele>36.0</ele><time>2026-04-17T17:07:43.215Z</time></trkpt><trkpt lat="43.2364367" lon="13.6662817"><ele>36.0</ele><time>2026-04-17T17:07:45.215Z</time></trkpt><trkpt lat="43.2364983" lon="13.6663183"><ele>36.0</ele><time>2026-04-17T17:07:48.215Z</time></trkpt><trkpt lat="43.236565" lon="13.66635"><ele>36.0</ele><time>2026-04-17T17:08:49.215Z</time></trkpt><trkpt lat="43.236655" lon="13.6664233"><ele>36.0</ele><time>2026-04-17T17:08:50.215Z</time></trkpt><trkpt lat="43.236765" lon="13.66651"><ele>37.333333333333336</ele><time>2026-04-17T17:08:51.215Z</time></trkpt><trkpt lat="43.2368983" lon="13.6665933"><ele>38.66666666666667</ele><time>2026-04-17T17:08:52.215Z</time></trkpt><trkpt lat="43.2370483" lon="13.6666633"><ele>40.0</ele><time>2026-04-17T17:08:53.215Z</time></trkpt><trkpt lat="43.237195" lon="13.66671"><ele>41.66666666666667</ele><time>2026-04-17T17:08:54.215Z</time></trkpt><trkpt lat="43.2373333" lon="13.6667433"><ele>43.333333333333336</ele><time>2026-04-17T17:08:55.215Z</time></trkpt><trkpt lat="43.2374733" lon="13.66679"><ele>45.0</ele><time>2026-04-17T17:08:56.215Z</time></trkpt><trkpt lat="43.2376333" lon="13.66685"><ele>45.0</ele><time>2026-04-17T17:08:57.215Z</time></trkpt><trkpt lat="43.2378" lon="13.6669067"><ele>45.0</ele><time>2026-04-17T17:08:58.215Z</time></trkpt><trkpt lat="43.2379633" lon="13.6669633"><ele>45.0</ele><time>2026-04-17T17:08:59.215Z</time></trkpt><trkpt lat="43.2381283" lon="13.6670183"><ele>44.666666666666664</ele><time>2026-04-17T17:09:00.215Z</time></trkpt><trkpt lat="43.238305" lon="13.6670783"><ele>44.33333333333333</ele><time>2026-04-17T17:09:01.215Z</time></trkpt><trkpt lat="43.2384833" lon="13.6671383"><ele>44.0</ele><time>2026-04-17T17:09:02.215Z</time></trkpt><trkpt lat="43.23866" lon="13.6671917"><ele>44.0</ele><time>2026-04-17T17:09:03.215Z</time></trkpt><trkpt lat="43.2388333" lon="13.6672483"><ele>44.0</ele><time>2026-04-17T17:09:04.215Z</time></trkpt><trkpt lat="43.2390233" lon="13.667315"><ele>44.0</ele><time>2026-04-17T17:09:05.215Z</time></trkpt><trkpt lat="43.239225" lon="13.66738"><ele>44.666666666666664</ele><time>2026-04-17T17:09:06.215Z</time></trkpt><trkpt lat="43.2394367" lon="13.66744"><ele>45.333333333333336</ele><time>2026-04-17T17:09:07.215Z</time></trkpt><trkpt lat="43.2396367" lon="13.6675"><ele>46.0</ele><time>2026-04-17T17:09:08.215Z</time></trkpt><trkpt lat="43.2398233" lon="13.667565"><ele>46.333333333333336</ele><time>2026-04-17T17:09:09.215Z</time></trkpt><trkpt lat="43.240015" lon="13.6676217"><ele>46.666666666666664</ele><time>2026-04-17T17:09:10.215Z</time></trkpt><trkpt lat="43.2402133" lon="13.66768"><ele>47.0</ele><time>2026-04-17T17:09:11.215Z</time></trkpt><trkpt lat="43.2404133" lon="13.6677367"><ele>46.666666666666664</ele><time>2026-04-17T17:09:12.215Z</time></trkpt><trkpt lat="43.24061" lon="13.667795"><ele>46.333333333333336</ele><time>2026-04-17T17:09:13.215Z</time></trkpt><trkpt lat="43.2408117" lon="13.6678467"><ele>46.0</ele><time>2026-04-17T17:09:14.215Z</time></trkpt><trkpt lat="43.2410133" lon="13.6679"><ele>46.66666666666667</ele><time>2026-04-17T17:09:15.215Z</time></trkpt><trkpt lat="43.2412167" lon="13.66795"><ele>47.333333333333336</ele><time>2026-04-17T17:09:16.215Z</time></trkpt><trkpt lat="43.2414117" lon="13.668"><ele>48.0</ele><time>2026-04-17T17:09:17.215Z</time></trkpt><trkpt lat="43.24161" lon="13.6680517"><ele>46.666666666666664</ele><time>2026-04-17T17:09:18.215Z</time></trkpt><trkpt lat="43.2418117" lon="13.668105"><ele>45.33333333333333</ele><time>2026-04-17T17:09:19.215Z</time></trkpt><trkpt lat="43.24202" lon="13.668155"><ele>44.0</ele><time>2026-04-17T17:09:20.215Z</time></trkpt><trkpt lat="43.2422283" lon="13.6682067"><ele>43.0</ele><time>2026-04-17T17:09:21.215Z</time></trkpt><trkpt lat="43.2424333" lon="13.6682733"><ele>42.0</ele><time>2026-04-17T17:09:22.215Z</time></trkpt><trkpt lat="43.24264" lon="13.668345"><ele>41.0</ele><time>2026-04-17T17:09:23.215Z</time></trkpt><trkpt lat="43.24284" lon="13.6684383"><ele>41.0</ele><time>2026-04-17T17:09:24.215Z</time></trkpt><trkpt lat="43.2430317" lon="13.6685333"><ele>41.0</ele><time>2026-04-17T17:09:25.215Z</time></trkpt><trkpt lat="43.2432317" lon="13.6686467"><ele>41.0</ele><time>2026-04-17T17:09:26.215Z</time></trkpt><trkpt lat="43.2434133" lon="13.6687533"><ele>41.0</ele><time>2026-04-17T17:09:27.215Z</time></trkpt><trkpt lat="43.2435933" lon="13.6688517"><ele>41.0</ele><time>2026-04-17T17:09:28.215Z</time></trkpt><trkpt lat="43.2437717" lon="13.6689667"><ele>41.0</ele><time>2026-04-17T17:09:29.215Z</time></trkpt><trkpt lat="43.24394" lon="13.66908"><ele>43.666666666666664</ele><time>2026-04-17T17:09:30.215Z</time></trkpt><trkpt lat="43.2440983" lon="13.669185"><ele>46.33333333333333</ele><time>2026-04-17T17:09:31.215Z</time></trkpt><trkpt lat="43.2442583" lon="13.6692733"><ele>49.0</ele><time>2026-04-17T17:09:32.215Z</time></trkpt><trkpt lat="43.24442" lon="13.66936"><ele>49.0</ele><time>2026-04-17T17:09:33.215Z</time></trkpt><trkpt lat="43.2445917" lon="13.669445"><ele>49.0</ele><time>2026-04-17T17:09:34.215Z</time></trkpt><trkpt lat="43.2447583" lon="13.6695417"><ele>49.0</ele><time>2026-04-17T17:09:35.215Z</time></trkpt><trkpt lat="43.2449317" lon="13.66965"><ele>49.0</ele><time>2026-04-17T17:09:36.215Z</time></trkpt><trkpt lat="43.2451033" lon="13.66976"><ele>49.0</ele><time>2026-04-17T17:09:37.215Z</time></trkpt><trkpt lat="43.245275" lon="13.6698583"><ele>49.0</ele><time>2026-04-17T17:09:38.215Z</time></trkpt><trkpt lat="43.2454483" lon="13.6699717"><ele>49.0</ele><time>2026-04-17T17:09:39.215Z</time></trkpt><trkpt lat="43.2456233" lon="13.6700917"><ele>49.0</ele><time>2026-04-17T17:09:40.215Z</time></trkpt><trkpt lat="43.245795" lon="13.6702133"><ele>49.0</ele><time>2026-04-17T17:09:41.215Z</time></trkpt><trkpt lat="43.2459617" lon="13.6703483"><ele>48.33333333333333</ele><time>2026-04-17T17:09:42.215Z</time></trkpt><trkpt lat="43.2461283" lon="13.6704783"><ele>47.666666666666664</ele><time>2026-04-17T17:09:43.215Z</time></trkpt><trkpt lat="43.2462917" lon="13.6706133"><ele>47.0</ele><time>2026-04-17T17:09:44.215Z</time></trkpt><trkpt lat="43.2464567" lon="13.6707583"><ele>47.0</ele><time>2026-04-17T17:09:45.215Z</time></trkpt><trkpt lat="43.24663" lon="13.6708983"><ele>47.0</ele><time>2026-04-17T17:09:46.214Z</time></trkpt><trkpt lat="43.246795" lon="13.6710483"><ele>47.0</ele><time>2026-04-17T17:09:47.215Z</time></trkpt><trkpt lat="43.246955" lon="13.6712"><ele>44.666666666666664</ele><time>2026-04-17T17:09:48.215Z</time></trkpt><trkpt lat="43.2471167" lon="13.67135"><ele>42.333333333333336</ele><time>2026-04-17T17:09:49.215Z</time></trkpt><trkpt lat="43.2472817" lon="13.6714983"><ele>40.0</ele><time>2026-04-17T17:09:50.215Z</time></trkpt><trkpt lat="43.247455" lon="13.6716417"><ele>40.0</ele><time>2026-04-17T17:09:51.215Z</time></trkpt><trkpt lat="43.24762" lon="13.6717917"><ele>40.0</ele><time>2026-04-17T17:09:52.215Z</time></trkpt><trkpt lat="43.2477867" lon="13.671945"><ele>40.0</ele><time>2026-04-17T17:09:53.215Z</time></trkpt><trkpt lat="43.2479517" lon="13.6720917"><ele>38.66666666666667</ele><time>2026-04-17T17:09:54.215Z</time></trkpt><trkpt lat="43.24812" lon="13.6722417"><ele>37.333333333333336</ele><time>2026-04-17T17:09:55.215Z</time></trkpt><trkpt lat="43.2482933" lon="13.6723733"><ele>36.0</ele><time>2026-04-17T17:09:56.215Z</time></trkpt><trkpt lat="43.2484583" lon="13.6725117"><ele>35.666666666666664</ele><time>2026-04-17T17:09:57.215Z</time></trkpt><trkpt lat="43.2486233" lon="13.6726667"><ele>35.33333333333333</ele><time>2026-04-17T17:09:58.215Z</time></trkpt><trkpt lat="43.248795" lon="13.6728117"><ele>35.0</ele><time>2026-04-17T17:09:59.215Z</time></trkpt><trkpt lat="43.2489617" lon="13.672965"><ele>33.33333333333333</ele><time>2026-04-17T17:10:00.215Z</time></trkpt><trkpt lat="43.2491283" lon="13.6731117"><ele>31.666666666666664</ele><time>2026-04-17T17:10:01.215Z</time></trkpt><trkpt lat="43.2492967" lon="13.67326"><ele>30.0</ele><time>2026-04-17T17:10:02.215Z</time></trkpt><trkpt lat="43.249455" lon="13.6733983"><ele>30.0</ele><time>2026-04-17T17:10:03.215Z</time></trkpt><trkpt lat="43.2496283" lon="13.673545"><ele>30.0</ele><time>2026-04-17T17:10:04.215Z</time></trkpt><trkpt lat="43.2497917" lon="13.6737033"><ele>30.0</ele><time>2026-04-17T17:10:05.215Z</time></trkpt><trkpt lat="43.249955" lon="13.6738517"><ele>31.0</ele><time>2026-04-17T17:10:06.215Z</time></trkpt><trkpt lat="43.2501217" lon="13.6739933"><ele>32.0</ele><time>2026-04-17T17:10:07.215Z</time></trkpt><trkpt lat="43.2502883" lon="13.6741217"><ele>33.0</ele><time>2026-04-17T17:10:08.215Z</time></trkpt><trkpt lat="43.250455" lon="13.674255"><ele>35.333333333333336</ele><time>2026-04-17T17:10:09.215Z</time></trkpt><trkpt lat="43.25063" lon="13.6743867"><ele>37.66666666666667</ele><time>2026-04-17T17:10:10.215Z</time></trkpt><trkpt lat="43.2508067" lon="13.67449"><ele>40.0</ele><time>2026-04-17T17:10:11.215Z</time></trkpt><trkpt lat="43.2509867" lon="13.6745917"><ele>40.333333333333336</ele><time>2026-04-17T17:10:12.215Z</time></trkpt><trkpt lat="43.2511733" lon="13.67468"><ele>40.666666666666664</ele><time>2026-04-17T17:10:13.215Z</time></trkpt><trkpt lat="43.251365" lon="13.6747533"><ele>41.0</ele><time>2026-04-17T17:10:14.215Z</time></trkpt><trkpt lat="43.2515567" lon="13.6747983"><ele>40.33333333333333</ele><time>2026-04-17T17:10:15.215Z</time></trkpt><trkpt lat="43.2517483" lon="13.6748417"><ele>39.666666666666664</ele><time>2026-04-17T17:10:16.215Z</time></trkpt><trkpt lat="43.2519433" lon="13.6748767"><ele>39.0</ele><time>2026-04-17T17:10:17.215Z</time></trkpt><trkpt lat="43.2521383" lon="13.67491"><ele>38.0</ele><time>2026-04-17T17:10:18.215Z</time></trkpt><trkpt lat="43.2523267" lon="13.6749383"><ele>37.0</ele><time>2026-04-17T17:10:19.215Z</time></trkpt><trkpt lat="43.25252" lon="13.67498"><ele>36.0</ele><time>2026-04-17T17:10:20.215Z</time></trkpt><trkpt lat="43.25272" lon="13.6750417"><ele>36.0</ele><time>2026-04-17T17:10:21.215Z</time></trkpt><trkpt lat="43.2529117" lon="13.6751267"><ele>36.0</ele><time>2026-04-17T17:10:22.215Z</time></trkpt><trkpt lat="43.2531033" lon="13.6752117"><ele>36.0</ele><time>2026-04-17T17:10:23.215Z</time></trkpt><trkpt lat="43.2532867" lon="13.6753167"><ele>37.333333333333336</ele><time>2026-04-17T17:10:24.215Z</time></trkpt><trkpt lat="43.2534717" lon="13.6754367"><ele>38.66666666666667</ele><time>2026-04-17T17:10:25.215Z</time></trkpt><trkpt lat="43.2536533" lon="13.67554"><ele>40.0</ele><time>2026-04-17T17:10:26.215Z</time></trkpt><trkpt lat="43.253825" lon="13.675645"><ele>40.66666666666667</ele><time>2026-04-17T17:10:27.215Z</time></trkpt><trkpt lat="43.2540133" lon="13.6757483"><ele>41.333333333333336</ele><time>2026-04-17T17:10:28.215Z</time></trkpt><trkpt lat="43.2541917" lon="13.6758533"><ele>42.0</ele><time>2026-04-17T17:10:29.215Z</time></trkpt><trkpt lat="43.2543783" lon="13.6759433"><ele>42.0</ele><time>2026-04-17T17:10:30.215Z</time></trkpt><trkpt lat="43.2545617" lon="13.6760283"><ele>42.0</ele><time>2026-04-17T17:10:31.215Z</time></trkpt><trkpt lat="43.2547533" lon="13.6761"><ele>42.0</ele><time>2026-04-17T17:10:32.215Z</time></trkpt><trkpt lat="43.2549467" lon="13.6761667"><ele>41.333333333333336</ele><time>2026-04-17T17:10:33.215Z</time></trkpt><trkpt lat="43.2551517" lon="13.6762317"><ele>40.66666666666667</ele><time>2026-04-17T17:10:34.215Z</time></trkpt><trkpt lat="43.2553567" lon="13.6762967"><ele>40.0</ele><time>2026-04-17T17:10:35.215Z</time></trkpt><trkpt lat="43.2555583" lon="13.676375"><ele>40.0</ele><time>2026-04-17T17:10:36.215Z</time></trkpt><trkpt lat="43.2557467" lon="13.676435"><ele>40.0</ele><time>2026-04-17T17:10:37.215Z</time></trkpt><trkpt lat="43.2559383" lon="13.6764933"><ele>40.0</ele><time>2026-04-17T17:10:38.215Z</time></trkpt><trkpt lat="43.256115" lon="13.6765483"><ele>40.0</ele><time>2026-04-17T17:10:39.215Z</time></trkpt><trkpt lat="43.2562967" lon="13.6766033"><ele>40.0</ele><time>2026-04-17T17:10:40.215Z</time></trkpt><trkpt lat="43.2564633" lon="13.6766483"><ele>40.0</ele><time>2026-04-17T17:10:41.215Z</time></trkpt><trkpt lat="43.2566217" lon="13.67669"><ele>41.0</ele><time>2026-04-17T17:10:42.215Z</time></trkpt><trkpt lat="43.2567883" lon="13.6767267"><ele>42.0</ele><time>2026-04-17T17:10:43.215Z</time></trkpt><trkpt lat="43.2569467" lon="13.67677"><ele>43.0</ele><time>2026-04-17T17:10:44.215Z</time></trkpt><trkpt lat="43.2571017" lon="13.6768133"><ele>43.0</ele><time>2026-04-17T17:10:45.215Z</time></trkpt><trkpt lat="43.2572567" lon="13.6768467"><ele>43.0</ele><time>2026-04-17T17:10:46.215Z</time></trkpt><trkpt lat="43.25741" lon="13.6768867"><ele>43.0</ele><time>2026-04-17T17:10:47.215Z</time></trkpt><trkpt lat="43.257555" lon="13.6769317"><ele>41.75</ele><time>2026-04-17T17:10:48.215Z</time></trkpt><trkpt lat="43.2576933" lon="13.6769683"><ele>40.5</ele><time>2026-04-17T17:10:49.215Z</time></trkpt><trkpt lat="43.2578183" lon="13.6770017"><ele>39.25</ele><time>2026-04-17T17:10:50.215Z</time></trkpt><trkpt lat="43.2579567" lon="13.67703"><ele>38.0</ele><time>2026-04-17T17:10:51.215Z</time></trkpt><trkpt lat="43.2580967" lon="13.6770667"><ele>38.5</ele><time>2026-04-17T17:10:52.215Z</time></trkpt><trkpt lat="43.2582367" lon="13.6771017"><ele>39.0</ele><time>2026-04-17T17:10:53.215Z</time></trkpt><trkpt lat="43.25837" lon="13.6771383"><ele>39.5</ele><time>2026-04-17T17:10:54.215Z</time></trkpt><trkpt lat="43.2585033" lon="13.677185"><ele>40.0</ele><time>2026-04-17T17:10:55.215Z</time></trkpt><trkpt lat="43.2586267" lon="13.6772117"><ele>40.0</ele><time>2026-04-17T17:10:56.215Z</time></trkpt><trkpt lat="43.25875" lon="13.6772367"><ele>40.0</ele><time>2026-04-17T17:10:57.215Z</time></trkpt><trkpt lat="43.2588717" lon="13.677255"><ele>40.0</ele><time>2026-04-17T17:10:58.215Z</time></trkpt><trkpt lat="43.2589867" lon="13.6772783"><ele>40.0</ele><time>2026-04-17T17:10:59.215Z</time></trkpt><trkpt lat="43.2590983" lon="13.6773"><ele>40.0</ele><time>2026-04-17T17:11:00.215Z</time></trkpt><trkpt lat="43.25921" lon="13.677325"><ele>40.0</ele><time>2026-04-17T17:11:01.214Z</time></trkpt><trkpt lat="43.2593017" lon="13.677355"><ele>40.0</ele><time>2026-04-17T17:11:02.215Z</time></trkpt><trkpt lat="43.25938" lon="13.677375"><ele>40.0</ele><time>2026-04-17T17:11:03.215Z</time></trkpt><trkpt lat="43.259445" lon="13.6773983"><ele>40.0</ele><time>2026-04-17T17:11:04.215Z</time></trkpt><trkpt lat="43.2595067" lon="13.677425"><ele>40.0</ele><time>2026-04-17T17:11:05.215Z</time></trkpt><trkpt lat="43.25961" lon="13.6774883"><ele>40.0</ele><time>2026-04-17T17:11:07.215Z</time></trkpt><trkpt lat="43.2596633" lon="13.677555"><ele>40.0</ele><time>2026-04-17T17:11:08.215Z</time></trkpt><trkpt lat="43.2597233" lon="13.6776383"><ele>40.0</ele><time>2026-04-17T17:11:09.215Z</time></trkpt><trkpt lat="43.2597867" lon="13.6777117"><ele>40.0</ele><time>2026-04-17T17:11:10.215Z</time></trkpt><trkpt lat="43.25986" lon="13.67775"><ele>40.0</ele><time>2026-04-17T17:11:11.215Z</time></trkpt><trkpt lat="43.2599367" lon="13.677745"><ele>40.0</ele><time>2026-04-17T17:11:12.215Z</time></trkpt><trkpt lat="43.259995" lon="13.6776983"><ele>39.75</ele><time>2026-04-17T17:11:13.215Z</time></trkpt><trkpt lat="43.2600583" lon="13.6776133"><ele>39.5</ele><time>2026-04-17T17:11:14.215Z</time></trkpt><trkpt lat="43.2601167" lon="13.6774817"><ele>39.25</ele><time>2026-04-17T17:11:15.215Z</time></trkpt><trkpt lat="43.2601883" lon="13.6773183"><ele>39.0</ele><time>2026-04-17T17:11:16.215Z</time></trkpt><trkpt lat="43.2602883" lon="13.6771767"><ele>39.0</ele><time>2026-04-17T17:11:17.215Z</time></trkpt><trkpt lat="43.26039" lon="13.6770483"><ele>39.0</ele><time>2026-04-17T17:11:18.215Z</time></trkpt><trkpt lat="43.2604967" lon="13.6769233"><ele>39.0</ele><time>2026-04-17T17:11:19.215Z</time></trkpt><trkpt lat="43.26059" lon="13.67681"><ele>39.0</ele><time>2026-04-17T17:11:20.215Z</time></trkpt><trkpt lat="43.2606783" lon="13.6766983"><ele>40.4</ele><time>2026-04-17T17:11:21.215Z</time></trkpt><trkpt lat="43.260755" lon="13.6765967"><ele>41.8</ele><time>2026-04-17T17:11:22.215Z</time></trkpt><trkpt lat="43.2608217" lon="13.676495"><ele>43.199999999999996</ele><time>2026-04-17T17:11:23.215Z</time></trkpt><trkpt lat="43.2608867" lon="13.6763967"><ele>44.599999999999994</ele><time>2026-04-17T17:11:24.215Z</time></trkpt><trkpt lat="43.2609633" lon="13.67629"><ele>46.0</ele><time>2026-04-17T17:11:25.215Z</time></trkpt><trkpt lat="43.2610467" lon="13.6761717"><ele>46.0</ele><time>2026-04-17T17:11:26.215Z</time></trkpt><trkpt lat="43.2611667" lon="13.6760317"><ele>46.0</ele><time>2026-04-17T17:11:27.215Z</time></trkpt><trkpt lat="43.2613133" lon="13.67585"><ele>46.0</ele><time>2026-04-17T17:11:28.215Z</time></trkpt><trkpt lat="43.26147" lon="13.6756667"><ele>42.0</ele><time>2026-04-17T17:11:29.215Z</time></trkpt><trkpt lat="43.2616383" lon="13.675465"><ele>38.0</ele><time>2026-04-17T17:11:30.215Z</time></trkpt><trkpt lat="43.2618067" lon="13.6752533"><ele>37.666666666666664</ele><time>2026-04-17T17:11:31.215Z</time></trkpt><trkpt lat="43.2619683" lon="13.6750333"><ele>37.333333333333336</ele><time>2026-04-17T17:11:32.215Z</time></trkpt><trkpt lat="43.26212" lon="13.6748317"><ele>37.0</ele><time>2026-04-17T17:11:33.215Z</time></trkpt><trkpt lat="43.2622633" lon="13.6746467"><ele>35.0</ele><time>2026-04-17T17:11:34.215Z</time></trkpt><trkpt lat="43.2624017" lon="13.674465"><ele>33.0</ele><time>2026-04-17T17:11:35.215Z</time></trkpt><trkpt lat="43.2625383" lon="13.6742883"><ele>31.0</ele><time>2026-04-17T17:11:36.215Z</time></trkpt><trkpt lat="43.262675" lon="13.6741"><ele>31.0</ele><time>2026-04-17T17:11:37.215Z</time></trkpt><trkpt lat="43.2628267" lon="13.6739183"><ele>31.0</ele><time>2026-04-17T17:11:38.215Z</time></trkpt><trkpt lat="43.2629717" lon="13.67373"><ele>31.0</ele><time>2026-04-17T17:11:39.215Z</time></trkpt><trkpt lat="43.2631217" lon="13.6735467"><ele>30.0</ele><time>2026-04-17T17:11:40.215Z</time></trkpt><trkpt lat="43.2632733" lon="13.6733433"><ele>29.0</ele><time>2026-04-17T17:11:41.215Z</time></trkpt><trkpt lat="43.263435" lon="13.6731217"><ele>28.0</ele><time>2026-04-17T17:11:42.215Z</time></trkpt><trkpt lat="43.2635983" lon="13.6729183"><ele>28.666666666666668</ele><time>2026-04-17T17:11:43.215Z</time></trkpt><trkpt lat="43.2637517" lon="13.67273"><ele>29.333333333333336</ele><time>2026-04-17T17:11:44.215Z</time></trkpt><trkpt lat="43.2639" lon="13.67254"><ele>30.0</ele><time>2026-04-17T17:11:45.215Z</time></trkpt><trkpt lat="43.264055" lon="13.6723467"><ele>28.333333333333336</ele><time>2026-04-17T17:11:46.215Z</time></trkpt><trkpt lat="43.2642067" lon="13.6721517"><ele>26.666666666666668</ele><time>2026-04-17T17:11:47.215Z</time></trkpt><trkpt lat="43.26436" lon="13.671955"><ele>25.0</ele><time>2026-04-17T17:11:48.215Z</time></trkpt><trkpt lat="43.264505" lon="13.6717717"><ele>25.0</ele><time>2026-04-17T17:11:49.215Z</time></trkpt><trkpt lat="43.2646467" lon="13.6715783"><ele>25.0</ele><time>2026-04-17T17:11:50.215Z</time></trkpt><trkpt lat="43.2648017" lon="13.67139"><ele>25.0</ele><time>2026-04-17T17:11:51.215Z</time></trkpt><trkpt lat="43.264945" lon="13.6712083"><ele>25.0</ele><time>2026-04-17T17:11:52.215Z</time></trkpt><trkpt lat="43.265075" lon="13.67103"><ele>25.0</ele><time>2026-04-17T17:11:53.215Z</time></trkpt><trkpt lat="43.2652017" lon="13.670855"><ele>25.0</ele><time>2026-04-17T17:11:54.215Z</time></trkpt><trkpt lat="43.265345" lon="13.670675"><ele>25.0</ele><time>2026-04-17T17:11:55.215Z</time></trkpt><trkpt lat="43.265485" lon="13.6704933"><ele>25.0</ele><time>2026-04-17T17:11:56.215Z</time></trkpt><trkpt lat="43.265625" lon="13.67031"><ele>25.0</ele><time>2026-04-17T17:11:57.215Z</time></trkpt><trkpt lat="43.2657683" lon="13.67012"><ele>24.666666666666668</ele><time>2026-04-17T17:11:58.215Z</time></trkpt><trkpt lat="43.2659233" lon="13.66991"><ele>24.333333333333336</ele><time>2026-04-17T17:11:59.215Z</time></trkpt><trkpt lat="43.2660767" lon="13.66969"><ele>24.0</ele><time>2026-04-17T17:12:00.215Z</time></trkpt><trkpt lat="43.2662383" lon="13.669475"><ele>24.333333333333336</ele><time>2026-04-17T17:12:01.215Z</time></trkpt><trkpt lat="43.2663883" lon="13.6692817"><ele>24.666666666666668</ele><time>2026-04-17T17:12:02.215Z</time></trkpt><trkpt lat="43.2665283" lon="13.6691"><ele>25.0</ele><time>2026-04-17T17:12:03.215Z</time></trkpt><trkpt lat="43.2666633" lon="13.6689333"><ele>25.0</ele><time>2026-04-17T17:12:04.215Z</time></trkpt><trkpt lat="43.2667883" lon="13.6687683"><ele>25.0</ele><time>2026-04-17T17:12:05.215Z</time></trkpt><trkpt lat="43.2669083" lon="13.668595"><ele>25.0</ele><time>2026-04-17T17:12:06.215Z</time></trkpt><trkpt lat="43.2670083" lon="13.6684167"><ele>25.333333333333336</ele><time>2026-04-17T17:12:07.215Z</time></trkpt><trkpt lat="43.2671" lon="13.66824"><ele>25.666666666666664</ele><time>2026-04-17T17:12:08.215Z</time></trkpt><trkpt lat="43.267185" lon="13.6680533"><ele>26.0</ele><time>2026-04-17T17:12:09.215Z</time></trkpt><trkpt lat="43.2672667" lon="13.6678533"><ele>26.0</ele><time>2026-04-17T17:12:10.215Z</time></trkpt><trkpt lat="43.267345" lon="13.6676383"><ele>26.0</ele><time>2026-04-17T17:12:11.215Z</time></trkpt><trkpt lat="43.2674167" lon="13.6674117"><ele>26.0</ele><time>2026-04-17T17:12:12.215Z</time></trkpt><trkpt lat="43.2674883" lon="13.6671667"><ele>26.0</ele><time>2026-04-17T17:12:13.215Z</time></trkpt><trkpt lat="43.26757" lon="13.6669067"><ele>26.0</ele><time>2026-04-17T17:12:14.215Z</time></trkpt><trkpt lat="43.2676517" lon="13.6666167"><ele>26.0</ele><time>2026-04-17T17:12:15.215Z</time></trkpt><trkpt lat="43.26775" lon="13.6663283"><ele>26.5</ele><time>2026-04-17T17:12:16.215Z</time></trkpt><trkpt lat="43.2678433" lon="13.6660233"><ele>27.0</ele><time>2026-04-17T17:12:17.214Z</time></trkpt><trkpt lat="43.2679267" lon="13.665725"><ele>27.0</ele><time>2026-04-17T17:12:18.215Z</time></trkpt><trkpt lat="43.26801" lon="13.6654283"><ele>27.0</ele><time>2026-04-17T17:12:19.215Z</time></trkpt><trkpt lat="43.2680933" lon="13.665155"><ele>27.0</ele><time>2026-04-17T17:12:20.215Z</time></trkpt><trkpt lat="43.2681733" lon="13.66489"><ele>26.666666666666664</ele><time>2026-04-17T17:12:21.215Z</time></trkpt><trkpt lat="43.268245" lon="13.66464"><ele>26.333333333333332</ele><time>2026-04-17T17:12:22.215Z</time></trkpt><trkpt lat="43.2683167" lon="13.6644067"><ele>26.0</ele><time>2026-04-17T17:12:23.215Z</time></trkpt><trkpt lat="43.26838" lon="13.664205"><ele>26.4</ele><time>2026-04-17T17:12:24.215Z</time></trkpt><trkpt lat="43.268435" lon="13.6640433"><ele>26.8</ele><time>2026-04-17T17:12:25.215Z</time></trkpt><trkpt lat="43.268475" lon="13.6639217"><ele>27.199999999999996</ele><time>2026-04-17T17:12:26.215Z</time></trkpt><trkpt lat="43.26852" lon="13.663835"><ele>27.599999999999998</ele><time>2026-04-17T17:12:27.215Z</time></trkpt><trkpt lat="43.2685783" lon="13.6637733"><ele>28.0</ele><time>2026-04-17T17:12:28.215Z</time></trkpt><trkpt lat="43.2686433" lon="13.663715"><ele>28.0</ele><time>2026-04-17T17:12:29.215Z</time></trkpt><trkpt lat="43.2687033" lon="13.663625"><ele>27.999999999999996</ele><time>2026-04-17T17:12:30.215Z</time></trkpt><trkpt lat="43.26875" lon="13.6635167"><ele>27.999999999999996</ele><time>2026-04-17T17:12:31.215Z</time></trkpt><trkpt lat="43.2687533" lon="13.6633967"><ele>28.0</ele><time>2026-04-17T17:12:32.215Z</time></trkpt><trkpt lat="43.2687367" lon="13.6632433"><ele>28.0</ele><time>2026-04-17T17:12:33.215Z</time></trkpt><trkpt lat="43.2687267" lon="13.6630867"><ele>28.0</ele><time>2026-04-17T17:12:34.215Z</time></trkpt><trkpt lat="43.2687467" lon="13.6629017"><ele>28.0</ele><time>2026-04-17T17:12:35.215Z</time></trkpt><trkpt lat="43.268795" lon="13.6627117"><ele>28.0</ele><time>2026-04-17T17:12:36.215Z</time></trkpt><trkpt lat="43.2688583" lon="13.662505"><ele>28.0</ele><time>2026-04-17T17:12:37.215Z</time></trkpt><trkpt lat="43.2689283" lon="13.6622817"><ele>28.333333333333336</ele><time>2026-04-17T17:12:38.215Z</time></trkpt><trkpt lat="43.269" lon="13.6620467"><ele>28.666666666666664</ele><time>2026-04-17T17:12:39.215Z</time></trkpt><trkpt lat="43.2690583" lon="13.6618283"><ele>29.0</ele><time>2026-04-17T17:12:40.215Z</time></trkpt><trkpt lat="43.269125" lon="13.6615933"><ele>29.0</ele><time>2026-04-17T17:12:41.215Z</time></trkpt><trkpt lat="43.2691967" lon="13.6613517"><ele>29.0</ele><time>2026-04-17T17:12:42.215Z</time></trkpt><trkpt lat="43.2692783" lon="13.661095"><ele>29.0</ele><time>2026-04-17T17:12:43.215Z</time></trkpt><trkpt lat="43.2693567" lon="13.6608317"><ele>28.333333333333332</ele><time>2026-04-17T17:12:44.215Z</time></trkpt><trkpt lat="43.26944" lon="13.66057"><ele>27.666666666666664</ele><time>2026-04-17T17:12:45.215Z</time></trkpt><trkpt lat="43.269515" lon="13.660305"><ele>27.0</ele><time>2026-04-17T17:12:46.215Z</time></trkpt><trkpt lat="43.26959" lon="13.6600417"><ele>27.0</ele><time>2026-04-17T17:12:47.215Z</time></trkpt><trkpt lat="43.2696667" lon="13.65978"><ele>27.0</ele><time>2026-04-17T17:12:48.215Z</time></trkpt><trkpt lat="43.2697433" lon="13.65952"><ele>27.0</ele><time>2026-04-17T17:12:49.215Z</time></trkpt><trkpt lat="43.26982" lon="13.6592617"><ele>27.0</ele><time>2026-04-17T17:12:50.214Z</time></trkpt><trkpt lat="43.2699033" lon="13.6590083"><ele>27.0</ele><time>2026-04-17T17:12:51.214Z</time></trkpt><trkpt lat="43.2700067" lon="13.65877"><ele>27.0</ele><time>2026-04-17T17:12:52.214Z</time></trkpt><trkpt lat="43.270115" lon="13.6585383"><ele>27.0</ele><time>2026-04-17T17:12:53.214Z</time></trkpt><trkpt lat="43.2702367" lon="13.65832"><ele>27.0</ele><time>2026-04-17T17:12:54.214Z</time></trkpt><trkpt lat="43.2703633" lon="13.6581283"><ele>27.0</ele><time>2026-04-17T17:12:55.214Z</time></trkpt><trkpt lat="43.2705" lon="13.6579433"><ele>27.333333333333336</ele><time>2026-04-17T17:12:56.214Z</time></trkpt><trkpt lat="43.2706667" lon="13.6577767"><ele>27.666666666666668</ele><time>2026-04-17T17:12:57.214Z</time></trkpt><trkpt lat="43.2708333" lon="13.6576283"><ele>28.0</ele><time>2026-04-17T17:12:58.214Z</time></trkpt><trkpt lat="43.2710033" lon="13.6574933"><ele>28.0</ele><time>2026-04-17T17:12:59.214Z</time></trkpt><trkpt lat="43.27118" lon="13.6573633"><ele>28.0</ele><time>2026-04-17T17:13:00.214Z</time></trkpt><trkpt lat="43.2713433" lon="13.657245"><ele>28.0</ele><time>2026-04-17T17:13:01.214Z</time></trkpt><trkpt lat="43.271495" lon="13.6571317"><ele>28.0</ele><time>2026-04-17T17:13:02.214Z</time></trkpt><trkpt lat="43.2716417" lon="13.6570217"><ele>28.0</ele><time>2026-04-17T17:13:03.214Z</time></trkpt><trkpt lat="43.2717817" lon="13.6569117"><ele>28.0</ele><time>2026-04-17T17:13:04.214Z</time></trkpt><trkpt lat="43.2719267" lon="13.656805"><ele>28.0</ele><time>2026-04-17T17:13:05.214Z</time></trkpt><trkpt lat="43.2720783" lon="13.6567083"><ele>28.0</ele><time>2026-04-17T17:13:06.214Z</time></trkpt><trkpt lat="43.272235" lon="13.6566017"><ele>28.0</ele><time>2026-04-17T17:13:07.214Z</time></trkpt><trkpt lat="43.2723933" lon="13.6564833"><ele>28.333333333333336</ele><time>2026-04-17T17:13:08.214Z</time></trkpt><trkpt lat="43.2725383" lon="13.6563733"><ele>28.666666666666664</ele><time>2026-04-17T17:13:09.214Z</time></trkpt><trkpt lat="43.2726867" lon="13.6562633"><ele>29.0</ele><time>2026-04-17T17:13:10.214Z</time></trkpt><trkpt lat="43.2728183" lon="13.6561717"><ele>29.0</ele><time>2026-04-17T17:13:11.214Z</time></trkpt><trkpt lat="43.27294" lon="13.6560883"><ele>29.0</ele><time>2026-04-17T17:13:12.214Z</time></trkpt><trkpt lat="43.27305" lon="13.6560117"><ele>29.0</ele><time>2026-04-17T17:13:13.214Z</time></trkpt><trkpt lat="43.2731617" lon="13.6559467"><ele>29.0</ele><time>2026-04-17T17:13:14.214Z</time></trkpt><trkpt lat="43.273255" lon="13.6559067"><ele>29.0</ele><time>2026-04-17T17:13:15.214Z</time></trkpt><trkpt lat="43.27335" lon="13.655895"><ele>29.0</ele><time>2026-04-17T17:13:16.214Z</time></trkpt><trkpt lat="43.2734367" lon="13.6558783"><ele>29.0</ele><time>2026-04-17T17:13:17.214Z</time></trkpt><trkpt lat="43.27352" lon="13.6558333"><ele>29.0</ele><time>2026-04-17T17:13:18.214Z</time></trkpt><trkpt lat="43.2735917" lon="13.6557417"><ele>29.0</ele><time>2026-04-17T17:13:19.214Z</time></trkpt><trkpt lat="43.273655" lon="13.6556317"><ele>29.0</ele><time>2026-04-17T17:13:20.214Z</time></trkpt><trkpt lat="43.2737067" lon="13.6555283"><ele>29.0</ele><time>2026-04-17T17:13:21.214Z</time></trkpt><trkpt lat="43.2737867" lon="13.6554483"><ele>29.0</ele><time>2026-04-17T17:13:22.214Z</time></trkpt><trkpt lat="43.2738883" lon="13.6553833"><ele>29.0</ele><time>2026-04-17T17:13:23.214Z</time></trkpt><trkpt lat="43.2740017" lon="13.65533"><ele>29.0</ele><time>2026-04-17T17:13:24.214Z</time></trkpt><trkpt lat="43.2741233" lon="13.655295"><ele>28.5</ele><time>2026-04-17T17:13:25.214Z</time></trkpt><trkpt lat="43.2742383" lon="13.6552667"><ele>28.0</ele><time>2026-04-17T17:13:26.214Z</time></trkpt><trkpt lat="43.274355" lon="13.655245"><ele>27.5</ele><time>2026-04-17T17:13:27.214Z</time></trkpt><trkpt lat="43.274465" lon="13.65521"><ele>27.0</ele><time>2026-04-17T17:13:28.214Z</time></trkpt><trkpt lat="43.2745817" lon="13.655175"><ele>27.0</ele><time>2026-04-17T17:13:29.214Z</time></trkpt><trkpt lat="43.2747017" lon="13.6551417"><ele>27.0</ele><time>2026-04-17T17:13:30.214Z</time></trkpt><trkpt lat="43.27482" lon="13.6551133"><ele>27.0</ele><time>2026-04-17T17:13:31.214Z</time></trkpt><trkpt lat="43.274935" lon="13.6550767"><ele>27.0</ele><time>2026-04-17T17:13:32.214Z</time></trkpt><trkpt lat="43.2750517" lon="13.655045"><ele>26.75</ele><time>2026-04-17T17:13:33.214Z</time></trkpt><trkpt lat="43.2751783" lon="13.6550083"><ele>26.5</ele><time>2026-04-17T17:13:34.214Z</time></trkpt><trkpt lat="43.27532" lon="13.6549617"><ele>26.25</ele><time>2026-04-17T17:13:35.214Z</time></trkpt><trkpt lat="43.2754617" lon="13.6549167"><ele>26.0</ele><time>2026-04-17T17:13:36.214Z</time></trkpt><trkpt lat="43.2756" lon="13.65488"><ele>26.5</ele><time>2026-04-17T17:13:37.214Z</time></trkpt><trkpt lat="43.2757383" lon="13.654845"><ele>27.0</ele><time>2026-04-17T17:13:38.214Z</time></trkpt><trkpt lat="43.27586" lon="13.6548083"><ele>27.5</ele><time>2026-04-17T17:13:39.214Z</time></trkpt><trkpt lat="43.2759733" lon="13.6547833"><ele>28.0</ele><time>2026-04-17T17:13:40.214Z</time></trkpt><trkpt lat="43.2760933" lon="13.6547433"><ele>28.0</ele><time>2026-04-17T17:13:41.214Z</time></trkpt><trkpt lat="43.2762067" lon="13.6546983"><ele>27.999999999999996</ele><time>2026-04-17T17:13:42.214Z</time></trkpt><trkpt lat="43.2763167" lon="13.6546667"><ele>27.999999999999996</ele><time>2026-04-17T17:13:43.214Z</time></trkpt><trkpt lat="43.27642" lon="13.6546533"><ele>28.0</ele><time>2026-04-17T17:13:44.214Z</time></trkpt><trkpt lat="43.2765133" lon="13.6546567"><ele>28.0</ele><time>2026-04-17T17:13:45.214Z</time></trkpt><trkpt lat="43.27659" lon="13.6546683"><ele>28.0</ele><time>2026-04-17T17:13:46.214Z</time></trkpt><trkpt lat="43.2766717" lon="13.6546983"><ele>27.999999999999996</ele><time>2026-04-17T17:13:47.214Z</time></trkpt><trkpt lat="43.27676" lon="13.6547"><ele>27.999999999999996</ele><time>2026-04-17T17:13:48.214Z</time></trkpt><trkpt lat="43.276865" lon="13.6546617"><ele>28.0</ele><time>2026-04-17T17:13:49.214Z</time></trkpt><trkpt lat="43.2769883" lon="13.6545967"><ele>28.0</ele><time>2026-04-17T17:13:50.214Z</time></trkpt><trkpt lat="43.2771417" lon="13.6545233"><ele>28.666666666666668</ele><time>2026-04-17T17:13:51.214Z</time></trkpt><trkpt lat="43.27732" lon="13.6544717"><ele>29.333333333333336</ele><time>2026-04-17T17:13:52.214Z</time></trkpt><trkpt lat="43.277485" lon="13.6544217"><ele>30.0</ele><time>2026-04-17T17:13:53.214Z</time></trkpt><trkpt lat="43.2776433" lon="13.65439"><ele>30.25</ele><time>2026-04-17T17:13:54.214Z</time></trkpt><trkpt lat="43.2777867" lon="13.654355"><ele>30.5</ele><time>2026-04-17T17:13:55.214Z</time></trkpt><trkpt lat="43.2779183" lon="13.6543167"><ele>30.75</ele><time>2026-04-17T17:13:56.214Z</time></trkpt><trkpt lat="43.2780333" lon="13.654285"><ele>31.0</ele><time>2026-04-17T17:13:57.214Z</time></trkpt><trkpt lat="43.27812" lon="13.6542533"><ele>31.000000000000004</ele><time>2026-04-17T17:13:58.214Z</time></trkpt><trkpt lat="43.278215" lon="13.6542317"><ele>31.0</ele><time>2026-04-17T17:14:00.214Z</time></trkpt><trkpt lat="43.27828" lon="13.6542433"><ele>31.0</ele><time>2026-04-17T17:14:05.214Z</time></trkpt><trkpt lat="43.27835" lon="13.6542833"><ele>31.0</ele><time>2026-04-17T17:14:08.214Z</time></trkpt><trkpt lat="43.27842" lon="13.6543067"><ele>31.000000000000004</ele><time>2026-04-17T17:14:10.214Z</time></trkpt><trkpt lat="43.2785117" lon="13.6542883"><ele>31.0</ele><time>2026-04-17T17:14:12.214Z</time></trkpt><trkpt lat="43.27857" lon="13.6542483"><ele>31.0</ele><time>2026-04-17T17:14:13.214Z</time></trkpt><trkpt lat="43.2786483" lon="13.65418"><ele>31.0</ele><time>2026-04-17T17:14:14.214Z</time></trkpt><trkpt lat="43.2787317" lon="13.6541133"><ele>31.0</ele><time>2026-04-17T17:14:15.214Z</time></trkpt><trkpt lat="43.278825" lon="13.6540617"><ele>31.0</ele><time>2026-04-17T17:14:16.214Z</time></trkpt><trkpt lat="43.2789317" lon="13.65402"><ele>31.0</ele><time>2026-04-17T17:14:17.214Z</time></trkpt><trkpt lat="43.2790433" lon="13.6539667"><ele>30.666666666666668</ele><time>2026-04-17T17:14:18.214Z</time></trkpt><trkpt lat="43.279165" lon="13.65392"><ele>30.333333333333336</ele><time>2026-04-17T17:14:19.214Z</time></trkpt><trkpt lat="43.2793133" lon="13.6538617"><ele>30.0</ele><time>2026-04-17T17:14:20.214Z</time></trkpt><trkpt lat="43.2794883" lon="13.6537917"><ele>30.0</ele><time>2026-04-17T17:14:21.214Z</time></trkpt><trkpt lat="43.27968" lon="13.6537233"><ele>30.0</ele><time>2026-04-17T17:14:22.214Z</time></trkpt><trkpt lat="43.2798583" lon="13.65366"><ele>30.0</ele><time>2026-04-17T17:14:23.214Z</time></trkpt><trkpt lat="43.2800283" lon="13.6535983"><ele>30.333333333333336</ele><time>2026-04-17T17:14:24.214Z</time></trkpt><trkpt lat="43.2801933" lon="13.65354"><ele>30.666666666666668</ele><time>2026-04-17T17:14:25.214Z</time></trkpt><trkpt lat="43.2803633" lon="13.6534733"><ele>31.0</ele><time>2026-04-17T17:14:26.214Z</time></trkpt><trkpt lat="43.2805317" lon="13.6534217"><ele>31.666666666666668</ele><time>2026-04-17T17:14:27.214Z</time></trkpt><trkpt lat="43.2806967" lon="13.6533667"><ele>32.333333333333336</ele><time>2026-04-17T17:14:28.214Z</time></trkpt><trkpt lat="43.280865" lon="13.653315"><ele>33.0</ele><time>2026-04-17T17:14:29.214Z</time></trkpt><trkpt lat="43.2810333" lon="13.6532617"><ele>33.0</ele><time>2026-04-17T17:14:30.214Z</time></trkpt><trkpt lat="43.281195" lon="13.6532"><ele>33.0</ele><time>2026-04-17T17:14:31.214Z</time></trkpt><trkpt lat="43.2813617" lon="13.65315"><ele>33.0</ele><time>2026-04-17T17:14:32.214Z</time></trkpt><trkpt lat="43.2815133" lon="13.6530983"><ele>32.5</ele><time>2026-04-17T17:14:33.214Z</time></trkpt><trkpt lat="43.2816533" lon="13.6530583"><ele>32.0</ele><time>2026-04-17T17:14:34.214Z</time></trkpt><trkpt lat="43.2817933" lon="13.6530233"><ele>31.5</ele><time>2026-04-17T17:14:35.214Z</time></trkpt><trkpt lat="43.2819267" lon="13.6529767"><ele>31.0</ele><time>2026-04-17T17:14:36.214Z</time></trkpt><trkpt lat="43.2820517" lon="13.652905"><ele>31.0</ele><time>2026-04-17T17:14:37.214Z</time></trkpt><trkpt lat="43.2821717" lon="13.6528267"><ele>31.0</ele><time>2026-04-17T17:14:38.214Z</time></trkpt><trkpt lat="43.2822983" lon="13.6527567"><ele>31.0</ele><time>2026-04-17T17:14:39.214Z</time></trkpt><trkpt lat="43.282425" lon="13.6526783"><ele>31.0</ele><time>2026-04-17T17:14:40.214Z</time></trkpt><trkpt lat="43.282555" lon="13.6525917"><ele>32.25</ele><time>2026-04-17T17:14:41.214Z</time></trkpt><trkpt lat="43.2826783" lon="13.652495"><ele>33.5</ele><time>2026-04-17T17:14:42.214Z</time></trkpt><trkpt lat="43.2828017" lon="13.652415"><ele>34.75</ele><time>2026-04-17T17:14:43.214Z</time></trkpt><trkpt lat="43.2829433" lon="13.6523367"><ele>36.0</ele><time>2026-04-17T17:14:44.214Z</time></trkpt><trkpt lat="43.2830867" lon="13.6522533"><ele>35.666666666666664</ele><time>2026-04-17T17:14:45.214Z</time></trkpt><trkpt lat="43.28323" lon="13.6521567"><ele>35.33333333333333</ele><time>2026-04-17T17:14:46.214Z</time></trkpt><trkpt lat="43.283375" lon="13.6520717"><ele>35.0</ele><time>2026-04-17T17:14:47.214Z</time></trkpt><trkpt lat="43.28353" lon="13.6519767"><ele>35.33333333333333</ele><time>2026-04-17T17:14:48.214Z</time></trkpt><trkpt lat="43.2836783" lon="13.651875"><ele>35.666666666666664</ele><time>2026-04-17T17:14:49.214Z</time></trkpt><trkpt lat="43.2838267" lon="13.6517867"><ele>36.0</ele><time>2026-04-17T17:14:50.214Z</time></trkpt><trkpt lat="43.2839733" lon="13.6516883"><ele>36.666666666666664</ele><time>2026-04-17T17:14:51.214Z</time></trkpt><trkpt lat="43.2841317" lon="13.651595"><ele>37.33333333333333</ele><time>2026-04-17T17:14:52.214Z</time></trkpt><trkpt lat="43.28428" lon="13.6514933"><ele>38.0</ele><time>2026-04-17T17:14:53.214Z</time></trkpt><trkpt lat="43.2844217" lon="13.6513867"><ele>38.0</ele><time>2026-04-17T17:14:54.214Z</time></trkpt><trkpt lat="43.284565" lon="13.6512867"><ele>38.0</ele><time>2026-04-17T17:14:55.213Z</time></trkpt><trkpt lat="43.2847083" lon="13.6512"><ele>38.0</ele><time>2026-04-17T17:14:56.214Z</time></trkpt><trkpt lat="43.2848417" lon="13.6511133"><ele>38.33333333333333</ele><time>2026-04-17T17:14:57.214Z</time></trkpt><trkpt lat="43.2849783" lon="13.6510283"><ele>38.666666666666664</ele><time>2026-04-17T17:14:58.214Z</time></trkpt><trkpt lat="43.2851183" lon="13.6509417"><ele>39.0</ele><time>2026-04-17T17:14:59.214Z</time></trkpt><trkpt lat="43.2852667" lon="13.6508233"><ele>39.0</ele><time>2026-04-17T17:15:00.214Z</time></trkpt><trkpt lat="43.2854333" lon="13.650725"><ele>39.0</ele><time>2026-04-17T17:15:01.214Z</time></trkpt><trkpt lat="43.2855933" lon="13.6506217"><ele>39.0</ele><time>2026-04-17T17:15:02.214Z</time></trkpt><trkpt lat="43.2857383" lon="13.6505283"><ele>39.0</ele><time>2026-04-17T17:15:03.214Z</time></trkpt><trkpt lat="43.2858667" lon="13.6504383"><ele>39.0</ele><time>2026-04-17T17:15:04.214Z</time></trkpt><trkpt lat="43.2859767" lon="13.6503633"><ele>39.0</ele><time>2026-04-17T17:15:05.214Z</time></trkpt><trkpt lat="43.2860783" lon="13.6503083"><ele>39.0</ele><time>2026-04-17T17:15:06.214Z</time></trkpt><trkpt lat="43.2861633" lon="13.6502367"><ele>39.0</ele><time>2026-04-17T17:15:07.214Z</time></trkpt><trkpt lat="43.2862317" lon="13.6501767"><ele>39.0</ele><time>2026-04-17T17:15:08.214Z</time></trkpt><trkpt lat="43.2863133" lon="13.6501083"><ele>39.0</ele><time>2026-04-17T17:15:09.214Z</time></trkpt><trkpt lat="43.2864267" lon="13.6500333"><ele>39.0</ele><time>2026-04-17T17:15:10.214Z</time></trkpt><trkpt lat="43.286535" lon="13.649955"><ele>39.0</ele><time>2026-04-17T17:15:11.214Z</time></trkpt><trkpt lat="43.2866333" lon="13.6498933"><ele>39.0</ele><time>2026-04-17T17:15:12.214Z</time></trkpt><trkpt lat="43.2867117" lon="13.6498483"><ele>39.0</ele><time>2026-04-17T17:15:13.214Z</time></trkpt><trkpt lat="43.2867833" lon="13.6498083"><ele>39.0</ele><time>2026-04-17T17:15:14.214Z</time></trkpt><trkpt lat="43.286845" lon="13.6497733"><ele>39.0</ele><time>2026-04-17T17:15:15.214Z</time></trkpt><trkpt lat="43.286955" lon="13.6497183"><ele>39.0</ele><time>2026-04-17T17:15:17.214Z</time></trkpt><trkpt lat="43.28708" lon="13.6496633"><ele>39.0</ele><time>2026-04-17T17:15:19.214Z</time></trkpt><trkpt lat="43.28715" lon="13.649625"><ele>39.0</ele><time>2026-04-17T17:15:20.214Z</time></trkpt><trkpt lat="43.2872167" lon="13.649575"><ele>39.0</ele><time>2026-04-17T17:15:21.214Z</time></trkpt><trkpt lat="43.287315" lon="13.64954"><ele>39.0</ele><time>2026-04-17T17:15:23.214Z</time></trkpt><trkpt lat="43.28742" lon="13.64964"><ele>39.0</ele><time>2026-04-17T17:15:25.214Z</time></trkpt><trkpt lat="43.2874783" lon="13.649735"><ele>39.2</ele><time>2026-04-17T17:15:26.214Z</time></trkpt><trkpt lat="43.28753" lon="13.6498517"><ele>39.4</ele><time>2026-04-17T17:15:27.214Z</time></trkpt><trkpt lat="43.2875867" lon="13.64997"><ele>39.6</ele><time>2026-04-17T17:15:28.214Z</time></trkpt><trkpt lat="43.2876467" lon="13.6500917"><ele>39.8</ele><time>2026-04-17T17:15:29.214Z</time></trkpt><trkpt lat="43.2877017" lon="13.6501983"><ele>40.0</ele><time>2026-04-17T17:15:30.214Z</time></trkpt><trkpt lat="43.2877633" lon="13.6502983"><ele>40.0</ele><time>2026-04-17T17:15:31.214Z</time></trkpt><trkpt lat="43.2878317" lon="13.6503983"><ele>40.0</ele><time>2026-04-17T17:15:32.214Z</time></trkpt><trkpt lat="43.2879067" lon="13.6504967"><ele>40.0</ele><time>2026-04-17T17:15:33.214Z</time></trkpt><trkpt lat="43.2879867" lon="13.6506"><ele>40.0</ele><time>2026-04-17T17:15:34.214Z</time></trkpt><trkpt lat="43.2880617" lon="13.6507233"><ele>40.0</ele><time>2026-04-17T17:15:35.214Z</time></trkpt><trkpt lat="43.2881467" lon="13.6508283"><ele>40.5</ele><time>2026-04-17T17:15:36.214Z</time></trkpt><trkpt lat="43.28824" lon="13.650935"><ele>41.0</ele><time>2026-04-17T17:15:37.214Z</time></trkpt><trkpt lat="43.288335" lon="13.6510633"><ele>41.5</ele><time>2026-04-17T17:15:38.214Z</time></trkpt><trkpt lat="43.2884283" lon="13.6511867"><ele>42.0</ele><time>2026-04-17T17:15:39.214Z</time></trkpt><trkpt lat="43.288525" lon="13.651295"><ele>42.25</ele><time>2026-04-17T17:15:40.214Z</time></trkpt><trkpt lat="43.2886183" lon="13.6514033"><ele>42.5</ele><time>2026-04-17T17:15:41.214Z</time></trkpt><trkpt lat="43.2887083" lon="13.65152"><ele>42.75</ele><time>2026-04-17T17:15:42.214Z</time></trkpt><trkpt lat="43.288795" lon="13.65163"><ele>43.0</ele><time>2026-04-17T17:15:43.214Z</time></trkpt><trkpt lat="43.2888767" lon="13.65174"><ele>43.0</ele><time>2026-04-17T17:15:44.214Z</time></trkpt><trkpt lat="43.28895" lon="13.6518567"><ele>43.0</ele><time>2026-04-17T17:15:45.214Z</time></trkpt><trkpt lat="43.2890317" lon="13.6519717"><ele>43.0</ele><time>2026-04-17T17:15:46.214Z</time></trkpt><trkpt lat="43.2891167" lon="13.6520817"><ele>43.0</ele><time>2026-04-17T17:15:47.214Z</time></trkpt><trkpt lat="43.2892017" lon="13.652185"><ele>43.25</ele><time>2026-04-17T17:15:48.214Z</time></trkpt><trkpt lat="43.2892883" lon="13.6523"><ele>43.5</ele><time>2026-04-17T17:15:49.213Z</time></trkpt><trkpt lat="43.28938" lon="13.652425"><ele>43.75</ele><time>2026-04-17T17:15:50.214Z</time></trkpt><trkpt lat="43.2894767" lon="13.65256"><ele>44.0</ele><time>2026-04-17T17:15:51.214Z</time></trkpt><trkpt lat="43.28957" lon="13.6526967"><ele>44.0</ele><time>2026-04-17T17:15:52.214Z</time></trkpt><trkpt lat="43.2896583" lon="13.6528317"><ele>44.0</ele><time>2026-04-17T17:15:53.214Z</time></trkpt><trkpt lat="43.28974" lon="13.6529633"><ele>44.0</ele><time>2026-04-17T17:15:54.214Z</time></trkpt><trkpt lat="43.28984" lon="13.6530917"><ele>44.0</ele><time>2026-04-17T17:15:55.214Z</time></trkpt><trkpt lat="43.2899233" lon="13.6532483"><ele>44.25</ele><time>2026-04-17T17:15:56.214Z</time></trkpt><trkpt lat="43.29" lon="13.6534017"><ele>44.5</ele><time>2026-04-17T17:15:57.214Z</time></trkpt><trkpt lat="43.29006" lon="13.653545"><ele>44.75</ele><time>2026-04-17T17:15:58.214Z</time></trkpt><trkpt lat="43.290115" lon="13.6536733"><ele>45.0</ele><time>2026-04-17T17:15:59.214Z</time></trkpt><trkpt lat="43.29015" lon="13.6538133"><ele>45.0</ele><time>2026-04-17T17:16:00.214Z</time></trkpt><trkpt lat="43.2901833" lon="13.6539383"><ele>45.0</ele><time>2026-04-17T17:16:01.214Z</time></trkpt><trkpt lat="43.2902067" lon="13.65405"><ele>45.0</ele><time>2026-04-17T17:16:02.214Z</time></trkpt><trkpt lat="43.2902267" lon="13.65415"><ele>45.0</ele><time>2026-04-17T17:16:03.213Z</time></trkpt><trkpt lat="43.2902467" lon="13.654235"><ele>45.0</ele><time>2026-04-17T17:16:04.214Z</time></trkpt><trkpt lat="43.2902633" lon="13.6544033"><ele>45.0</ele><time>2026-04-17T17:16:06.214Z</time></trkpt><trkpt lat="43.2902583" lon="13.6545717"><ele>45.2</ele><time>2026-04-17T17:16:08.214Z</time></trkpt><trkpt lat="43.2902817" lon="13.65473"><ele>45.4</ele><time>2026-04-17T17:16:10.214Z</time></trkpt><trkpt lat="43.29036" lon="13.65488"><ele>45.599999999999994</ele><time>2026-04-17T17:16:12.214Z</time></trkpt><trkpt lat="43.290395" lon="13.654975"><ele>45.8</ele><time>2026-04-17T17:16:13.214Z</time></trkpt><trkpt lat="43.2904283" lon="13.655095"><ele>46.0</ele><time>2026-04-17T17:16:14.214Z</time></trkpt><trkpt lat="43.2904667" lon="13.65526"><ele>45.66666666666667</ele><time>2026-04-17T17:16:15.214Z</time></trkpt><trkpt lat="43.2905017" lon="13.655465"><ele>45.333333333333336</ele><time>2026-04-17T17:16:16.214Z</time></trkpt><trkpt lat="43.2905367" lon="13.65568"><ele>45.0</ele><time>2026-04-17T17:16:17.214Z</time></trkpt><trkpt lat="43.2905683" lon="13.655915"><ele>46.0</ele><time>2026-04-17T17:16:18.214Z</time></trkpt><trkpt lat="43.2906017" lon="13.6561417"><ele>47.0</ele><time>2026-04-17T17:16:19.214Z</time></trkpt><trkpt lat="43.2906467" lon="13.6563817"><ele>48.0</ele><time>2026-04-17T17:16:20.214Z</time></trkpt><trkpt lat="43.2906833" lon="13.6566233"><ele>48.0</ele><time>2026-04-17T17:16:21.214Z</time></trkpt><trkpt lat="43.2907167" lon="13.656885"><ele>48.0</ele><time>2026-04-17T17:16:22.214Z</time></trkpt><trkpt lat="43.2907467" lon="13.6571417"><ele>48.0</ele><time>2026-04-17T17:16:23.214Z</time></trkpt><trkpt lat="43.290765" lon="13.657375"><ele>48.0</ele><time>2026-04-17T17:16:24.214Z</time></trkpt><trkpt lat="43.2907783" lon="13.657605"><ele>48.0</ele><time>2026-04-17T17:16:25.214Z</time></trkpt><trkpt lat="43.2907917" lon="13.65784"><ele>48.0</ele><time>2026-04-17T17:16:26.214Z</time></trkpt><trkpt lat="43.2908117" lon="13.6580717"><ele>48.0</ele><time>2026-04-17T17:16:27.214Z</time></trkpt><trkpt lat="43.2908383" lon="13.6583033"><ele>48.0</ele><time>2026-04-17T17:16:28.214Z</time></trkpt><trkpt lat="43.2908733" lon="13.658535"><ele>48.0</ele><time>2026-04-17T17:16:29.214Z</time></trkpt><trkpt lat="43.290935" lon="13.65876"><ele>47.666666666666664</ele><time>2026-04-17T17:16:30.214Z</time></trkpt><trkpt lat="43.2910183" lon="13.658975"><ele>47.33333333333333</ele><time>2026-04-17T17:16:31.214Z</time></trkpt><trkpt lat="43.29111" lon="13.6592"><ele>47.0</ele><time>2026-04-17T17:16:32.214Z</time></trkpt><trkpt lat="43.2911933" lon="13.6594083"><ele>46.0</ele><time>2026-04-17T17:16:33.214Z</time></trkpt><trkpt lat="43.29127" lon="13.6596117"><ele>45.0</ele><time>2026-04-17T17:16:34.214Z</time></trkpt><trkpt lat="43.291345" lon="13.659795"><ele>44.0</ele><time>2026-04-17T17:16:35.214Z</time></trkpt><trkpt lat="43.29142" lon="13.65998"><ele>45.0</ele><time>2026-04-17T17:16:36.214Z</time></trkpt><trkpt lat="43.2915017" lon="13.660165"><ele>46.0</ele><time>2026-04-17T17:16:37.214Z</time></trkpt><trkpt lat="43.2915833" lon="13.6603517"><ele>47.0</ele><time>2026-04-17T17:16:38.214Z</time></trkpt><trkpt lat="43.2916617" lon="13.6605483"><ele>47.0</ele><time>2026-04-17T17:16:39.214Z</time></trkpt><trkpt lat="43.2917283" lon="13.660745"><ele>47.0</ele><time>2026-04-17T17:16:40.214Z</time></trkpt><trkpt lat="43.2918017" lon="13.66093"><ele>47.0</ele><time>2026-04-17T17:16:41.214Z</time></trkpt><trkpt lat="43.2918817" lon="13.66111"><ele>47.33333333333333</ele><time>2026-04-17T17:16:42.213Z</time></trkpt><trkpt lat="43.2919533" lon="13.6612933"><ele>47.666666666666664</ele><time>2026-04-17T17:16:43.214Z</time></trkpt><trkpt lat="43.2920217" lon="13.6614833"><ele>48.0</ele><time>2026-04-17T17:16:44.214Z</time></trkpt><trkpt lat="43.2920933" lon="13.66166"><ele>48.0</ele><time>2026-04-17T17:16:45.214Z</time></trkpt><trkpt lat="43.2921583" lon="13.6618283"><ele>48.0</ele><time>2026-04-17T17:16:46.214Z</time></trkpt><trkpt lat="43.2922183" lon="13.6619933"><ele>48.0</ele><time>2026-04-17T17:16:47.214Z</time></trkpt><trkpt lat="43.2922867" lon="13.66217"><ele>48.0</ele><time>2026-04-17T17:16:48.214Z</time></trkpt><trkpt lat="43.292365" lon="13.6623233"><ele>48.25</ele><time>2026-04-17T17:16:49.214Z</time></trkpt><trkpt lat="43.2924383" lon="13.6624817"><ele>48.5</ele><time>2026-04-17T17:16:50.214Z</time></trkpt><trkpt lat="43.2925217" lon="13.66265"><ele>48.75</ele><time>2026-04-17T17:16:51.214Z</time></trkpt><trkpt lat="43.2926133" lon="13.66282"><ele>49.0</ele><time>2026-04-17T17:16:52.214Z</time></trkpt><trkpt lat="43.292715" lon="13.6629667"><ele>49.0</ele><time>2026-04-17T17:16:53.214Z</time></trkpt><trkpt lat="43.2928133" lon="13.6631117"><ele>49.0</ele><time>2026-04-17T17:16:54.214Z</time></trkpt><trkpt lat="43.2929067" lon="13.6632483"><ele>49.0</ele><time>2026-04-17T17:16:55.214Z</time></trkpt><trkpt lat="43.293" lon="13.66339"><ele>49.0</ele><time>2026-04-17T17:16:56.214Z</time></trkpt><trkpt lat="43.2931" lon="13.6635283"><ele>49.0</ele><time>2026-04-17T17:16:57.214Z</time></trkpt><trkpt lat="43.2931933" lon="13.663665"><ele>49.0</ele><time>2026-04-17T17:16:58.214Z</time></trkpt><trkpt lat="43.2932833" lon="13.663825"><ele>49.0</ele><time>2026-04-17T17:16:59.214Z</time></trkpt><trkpt lat="43.2933767" lon="13.6639783"><ele>49.0</ele><time>2026-04-17T17:17:00.214Z</time></trkpt><trkpt lat="43.29347" lon="13.6641133"><ele>49.0</ele><time>2026-04-17T17:17:01.214Z</time></trkpt><trkpt lat="43.293555" lon="13.6642667"><ele>49.0</ele><time>2026-04-17T17:17:02.214Z</time></trkpt><trkpt lat="43.29364" lon="13.6644283"><ele>49.0</ele><time>2026-04-17T17:17:03.214Z</time></trkpt><trkpt lat="43.293725" lon="13.6645867"><ele>49.0</ele><time>2026-04-17T17:17:04.214Z</time></trkpt><trkpt lat="43.2938" lon="13.6647567"><ele>49.0</ele><time>2026-04-17T17:17:05.214Z</time></trkpt><trkpt lat="43.293865" lon="13.664925"><ele>49.0</ele><time>2026-04-17T17:17:06.214Z</time></trkpt><trkpt lat="43.293925" lon="13.665085"><ele>49.0</ele><time>2026-04-17T17:17:07.214Z</time></trkpt><trkpt lat="43.293975" lon="13.6652517"><ele>49.0</ele><time>2026-04-17T17:17:08.214Z</time></trkpt><trkpt lat="43.2940033" lon="13.6654517"><ele>48.75</ele><time>2026-04-17T17:17:09.214Z</time></trkpt><trkpt lat="43.2940233" lon="13.6656533"><ele>48.5</ele><time>2026-04-17T17:17:10.214Z</time></trkpt><trkpt lat="43.2940517" lon="13.6658517"><ele>48.25</ele><time>2026-04-17T17:17:11.214Z</time></trkpt><trkpt lat="43.29409" lon="13.6660517"><ele>48.0</ele><time>2026-04-17T17:17:12.214Z</time></trkpt><trkpt lat="43.2941317" lon="13.66625"><ele>47.333333333333336</ele><time>2026-04-17T17:17:13.213Z</time></trkpt><trkpt lat="43.2941667" lon="13.6664567"><ele>46.66666666666667</ele><time>2026-04-17T17:17:14.214Z</time></trkpt><trkpt lat="43.2942017" lon="13.66666"><ele>46.0</ele><time>2026-04-17T17:17:15.214Z</time></trkpt><trkpt lat="43.2942433" lon="13.6668683"><ele>45.333333333333336</ele><time>2026-04-17T17:17:16.213Z</time></trkpt><trkpt lat="43.2942783" lon="13.667075"><ele>44.666666666666664</ele><time>2026-04-17T17:17:17.214Z</time></trkpt><trkpt lat="43.2943083" lon="13.6672883"><ele>44.0</ele><time>2026-04-17T17:17:18.214Z</time></trkpt><trkpt lat="43.2943417" lon="13.6675033"><ele>44.0</ele><time>2026-04-17T17:17:19.214Z</time></trkpt><trkpt lat="43.294375" lon="13.6677133"><ele>44.0</ele><time>2026-04-17T17:17:20.213Z</time></trkpt><trkpt lat="43.2944083" lon="13.6679167"><ele>44.0</ele><time>2026-04-17T17:17:21.214Z</time></trkpt><trkpt lat="43.2944367" lon="13.66811"><ele>44.5</ele><time>2026-04-17T17:17:22.214Z</time></trkpt><trkpt lat="43.294465" lon="13.668295"><ele>45.0</ele><time>2026-04-17T17:17:23.214Z</time></trkpt><trkpt lat="43.2944933" lon="13.6684633"><ele>45.5</ele><time>2026-04-17T17:17:24.214Z</time></trkpt><trkpt lat="43.2945117" lon="13.6686217"><ele>46.0</ele><time>2026-04-17T17:17:25.214Z</time></trkpt><trkpt lat="43.294545" lon="13.6687767"><ele>46.199999999999996</ele><time>2026-04-17T17:17:26.214Z</time></trkpt><trkpt lat="43.2945767" lon="13.668935"><ele>46.4</ele><time>2026-04-17T17:17:27.214Z</time></trkpt><trkpt lat="43.2946033" lon="13.6690767"><ele>46.6</ele><time>2026-04-17T17:17:28.214Z</time></trkpt><trkpt lat="43.2946267" lon="13.669215"><ele>46.8</ele><time>2026-04-17T17:17:29.214Z</time></trkpt><trkpt lat="43.29465" lon="13.6693367"><ele>47.0</ele><time>2026-04-17T17:17:30.214Z</time></trkpt><trkpt lat="43.2946617" lon="13.6694417"><ele>46.666666666666664</ele><time>2026-04-17T17:17:31.214Z</time></trkpt><trkpt lat="43.294675" lon="13.669555"><ele>46.33333333333333</ele><time>2026-04-17T17:17:33.214Z</time></trkpt><trkpt lat="43.2946767" lon="13.6696417"><ele>46.0</ele><time>2026-04-17T17:17:36.214Z</time></trkpt><trkpt lat="43.2947017" lon="13.66973"><ele>45.666666666666664</ele><time>2026-04-17T17:17:42.214Z</time></trkpt><trkpt lat="43.2947333" lon="13.669825"><ele>45.333333333333336</ele><time>2026-04-17T17:17:44.214Z</time></trkpt><trkpt lat="43.2948033" lon="13.6699133"><ele>45.0</ele><time>2026-04-17T17:17:46.214Z</time></trkpt><trkpt lat="43.2948667" lon="13.6699233"><ele>46.0</ele><time>2026-04-17T17:17:47.214Z</time></trkpt><trkpt lat="43.2949567" lon="13.66991"><ele>47.0</ele><time>2026-04-17T17:17:48.214Z</time></trkpt><trkpt lat="43.2950717" lon="13.6698867"><ele>48.0</ele><time>2026-04-17T17:17:49.214Z</time></trkpt><trkpt lat="43.2952233" lon="13.6698667"><ele>49.0</ele><time>2026-04-17T17:17:50.214Z</time></trkpt><trkpt lat="43.2954317" lon="13.6698617"><ele>51.0</ele><time>2026-04-17T17:17:51.214Z</time></trkpt><trkpt lat="43.29566" lon="13.6698467"><ele>53.0</ele><time>2026-04-17T17:17:52.214Z</time></trkpt><trkpt lat="43.2958733" lon="13.669815"><ele>55.0</ele><time>2026-04-17T17:17:53.214Z</time></trkpt><trkpt lat="43.29607" lon="13.6698067"><ele>55.0</ele><time>2026-04-17T17:17:54.214Z</time></trkpt><trkpt lat="43.2962267" lon="13.6698083"><ele>55.0</ele><time>2026-04-17T17:17:55.214Z</time></trkpt><trkpt lat="43.2963683" lon="13.66981"><ele>55.0</ele><time>2026-04-17T17:17:56.214Z</time></trkpt><trkpt lat="43.2965067" lon="13.669835"><ele>55.0</ele><time>2026-04-17T17:17:57.214Z</time></trkpt><trkpt lat="43.2966267" lon="13.66985"><ele>56.5</ele><time>2026-04-17T17:17:58.214Z</time></trkpt><trkpt lat="43.2967483" lon="13.6698283"><ele>58.0</ele><time>2026-04-17T17:17:59.214Z</time></trkpt><trkpt lat="43.2968583" lon="13.6697667"><ele>59.5</ele><time>2026-04-17T17:18:00.214Z</time></trkpt><trkpt lat="43.29696" lon="13.6696683"><ele>61.0</ele><time>2026-04-17T17:18:01.214Z</time></trkpt><trkpt lat="43.2970633" lon="13.6695483"><ele>61.0</ele><time>2026-04-17T17:18:02.214Z</time></trkpt><trkpt lat="43.29716" lon="13.6694433"><ele>60.99999999999999</ele><time>2026-04-17T17:18:03.214Z</time></trkpt><trkpt lat="43.2972467" lon="13.6693733"><ele>60.99999999999999</ele><time>2026-04-17T17:18:04.214Z</time></trkpt><trkpt lat="43.29734" lon="13.669345"><ele>61.0</ele><time>2026-04-17T17:18:05.214Z</time></trkpt><trkpt lat="43.297435" lon="13.6693517"><ele>61.0</ele><time>2026-04-17T17:18:06.214Z</time></trkpt><trkpt lat="43.2975533" lon="13.6694033"><ele>63.666666666666664</ele><time>2026-04-17T17:18:07.214Z</time></trkpt><trkpt lat="43.297685" lon="13.6694817"><ele>66.33333333333333</ele><time>2026-04-17T17:18:08.214Z</time></trkpt><trkpt lat="43.2978467" lon="13.6695517"><ele>69.0</ele><time>2026-04-17T17:18:09.214Z</time></trkpt><trkpt lat="43.29802" lon="13.66962"><ele>71.33333333333333</ele><time>2026-04-17T17:18:10.214Z</time></trkpt><trkpt lat="43.2981867" lon="13.6696983"><ele>73.66666666666666</ele><time>2026-04-17T17:18:11.214Z</time></trkpt><trkpt lat="43.29837" lon="13.6697767"><ele>76.0</ele><time>2026-04-17T17:18:12.214Z</time></trkpt><trkpt lat="43.2985567" lon="13.6698567"><ele>76.0</ele><time>2026-04-17T17:18:13.214Z</time></trkpt><trkpt lat="43.2987567" lon="13.6699283"><ele>76.0</ele><time>2026-04-17T17:18:14.214Z</time></trkpt><trkpt lat="43.29896" lon="13.6700117"><ele>76.0</ele><time>2026-04-17T17:18:15.214Z</time></trkpt><trkpt lat="43.2991533" lon="13.670105"><ele>79.0</ele><time>2026-04-17T17:18:16.214Z</time></trkpt><trkpt lat="43.299345" lon="13.6701933"><ele>82.0</ele><time>2026-04-17T17:18:17.214Z</time></trkpt><trkpt lat="43.2995333" lon="13.6702883"><ele>85.0</ele><time>2026-04-17T17:18:18.214Z</time></trkpt><trkpt lat="43.299705" lon="13.67039"><ele>89.0</ele><time>2026-04-17T17:18:19.214Z</time></trkpt><trkpt lat="43.2998633" lon="13.6705"><ele>93.0</ele><time>2026-04-17T17:18:20.214Z</time></trkpt><trkpt lat="43.2999933" lon="13.6706317"><ele>97.0</ele><time>2026-04-17T17:18:21.214Z</time></trkpt><trkpt lat="43.3001383" lon="13.6707433"><ele>97.0</ele><time>2026-04-17T17:18:22.214Z</time></trkpt><trkpt lat="43.3002833" lon="13.6708133"><ele>97.0</ele><time>2026-04-17T17:18:23.214Z</time></trkpt><trkpt lat="43.3004633" lon="13.6708617"><ele>97.0</ele><time>2026-04-17T17:18:24.214Z</time></trkpt><trkpt lat="43.3006617" lon="13.6709167"><ele>100.66666666666667</ele><time>2026-04-17T17:18:25.214Z</time></trkpt><trkpt lat="43.3008633" lon="13.670965"><ele>104.33333333333334</ele><time>2026-04-17T17:18:26.214Z</time></trkpt><trkpt lat="43.301065" lon="13.6710117"><ele>108.0</ele><time>2026-04-17T17:18:27.214Z</time></trkpt><trkpt lat="43.3012633" lon="13.671075"><ele>112.0</ele><time>2026-04-17T17:18:28.214Z</time></trkpt><trkpt lat="43.301465" lon="13.6711483"><ele>116.0</ele><time>2026-04-17T17:18:29.214Z</time></trkpt><trkpt lat="43.3016733" lon="13.6712467"><ele>120.0</ele><time>2026-04-17T17:18:30.214Z</time></trkpt><trkpt lat="43.301875" lon="13.6713683"><ele>120.0</ele><time>2026-04-17T17:18:31.214Z</time></trkpt><trkpt lat="43.302065" lon="13.6714867"><ele>120.0</ele><time>2026-04-17T17:18:32.214Z</time></trkpt><trkpt lat="43.3022383" lon="13.671605"><ele>120.0</ele><time>2026-04-17T17:18:33.214Z</time></trkpt><trkpt lat="43.3023967" lon="13.6717217"><ele>124.33333333333334</ele><time>2026-04-17T17:18:34.214Z</time></trkpt><trkpt lat="43.3025467" lon="13.6718417"><ele>128.66666666666669</ele><time>2026-04-17T17:18:35.214Z</time></trkpt><trkpt lat="43.3027067" lon="13.671955"><ele>133.0</ele><time>2026-04-17T17:18:36.214Z</time></trkpt><trkpt lat="43.3028883" lon="13.6720517"><ele>133.33333333333334</ele><time>2026-04-17T17:18:37.214Z</time></trkpt><trkpt lat="43.3030783" lon="13.6721617"><ele>133.66666666666666</ele><time>2026-04-17T17:18:38.214Z</time></trkpt><trkpt lat="43.3032633" lon="13.6722667"><ele>134.0</ele><time>2026-04-17T17:18:39.214Z</time></trkpt><trkpt lat="43.3034467" lon="13.6723533"><ele>136.33333333333331</ele><time>2026-04-17T17:18:40.214Z</time></trkpt><trkpt lat="43.3036017" lon="13.672445"><ele>138.66666666666666</ele><time>2026-04-17T17:18:41.214Z</time></trkpt><trkpt lat="43.3037417" lon="13.6725433"><ele>141.0</ele><time>2026-04-17T17:18:42.214Z</time></trkpt><trkpt lat="43.3038717" lon="13.6726367"><ele>142.0</ele><time>2026-04-17T17:18:43.214Z</time></trkpt><trkpt lat="43.30398" lon="13.6727283"><ele>143.0</ele><time>2026-04-17T17:18:44.214Z</time></trkpt><trkpt lat="43.304075" lon="13.6728717"><ele>144.0</ele><time>2026-04-17T17:18:45.214Z</time></trkpt><trkpt lat="43.304165" lon="13.6730633"><ele>145.0</ele><time>2026-04-17T17:18:46.213Z</time></trkpt><trkpt lat="43.3042617" lon="13.67325"><ele>145.0</ele><time>2026-04-17T17:18:47.214Z</time></trkpt><trkpt lat="43.30436" lon="13.6734433"><ele>145.0</ele><time>2026-04-17T17:18:48.214Z</time></trkpt><trkpt lat="43.3044367" lon="13.6736317"><ele>145.0</ele><time>2026-04-17T17:18:49.214Z</time></trkpt><trkpt lat="43.3045117" lon="13.6738017"><ele>144.0</ele><time>2026-04-17T17:18:50.214Z</time></trkpt><trkpt lat="43.3045867" lon="13.6739467"><ele>143.0</ele><time>2026-04-17T17:18:51.214Z</time></trkpt><trkpt lat="43.304665" lon="13.6740667"><ele>142.0</ele><time>2026-04-17T17:18:52.214Z</time></trkpt><trkpt lat="43.30476" lon="13.6741617"><ele>141.0</ele><time>2026-04-17T17:18:53.214Z</time></trkpt><trkpt lat="43.3048717" lon="13.674215"><ele>142.66666666666666</ele><time>2026-04-17T17:18:54.214Z</time></trkpt><trkpt lat="43.3049783" lon="13.6742533"><ele>144.33333333333334</ele><time>2026-04-17T17:18:55.214Z</time></trkpt><trkpt lat="43.30507" lon="13.6742717"><ele>146.0</ele><time>2026-04-17T17:18:56.214Z</time></trkpt><trkpt lat="43.3051467" lon="13.674295"><ele>147.66666666666669</ele><time>2026-04-17T17:18:57.214Z</time></trkpt><trkpt lat="43.3052167" lon="13.6743417"><ele>149.33333333333334</ele><time>2026-04-17T17:18:58.214Z</time></trkpt><trkpt lat="43.30528" lon="13.6744133"><ele>151.0</ele><time>2026-04-17T17:18:59.214Z</time></trkpt><trkpt lat="43.3053067" lon="13.674535"><ele>151.0</ele><time>2026-04-17T17:19:00.214Z</time></trkpt><trkpt lat="43.30531" lon="13.6747017"><ele>151.0</ele><time>2026-04-17T17:19:01.213Z</time></trkpt><trkpt lat="43.3053217" lon="13.67488"><ele>151.0</ele><time>2026-04-17T17:19:02.213Z</time></trkpt><trkpt lat="43.3053533" lon="13.6750617"><ele>151.0</ele><time>2026-04-17T17:19:03.213Z</time></trkpt><trkpt lat="43.3054117" lon="13.675205"><ele>150.25</ele><time>2026-04-17T17:19:04.213Z</time></trkpt><trkpt lat="43.30548" lon="13.6753483"><ele>149.5</ele><time>2026-04-17T17:19:05.213Z</time></trkpt><trkpt lat="43.3055583" lon="13.6754717"><ele>148.75</ele><time>2026-04-17T17:19:06.213Z</time></trkpt><trkpt lat="43.3056567" lon="13.6755733"><ele>148.0</ele><time>2026-04-17T17:19:07.213Z</time></trkpt><trkpt lat="43.305775" lon="13.6756583"><ele>145.5</ele><time>2026-04-17T17:19:08.213Z</time></trkpt><trkpt lat="43.305895" lon="13.6757317"><ele>143.0</ele><time>2026-04-17T17:19:09.213Z</time></trkpt><trkpt lat="43.3060133" lon="13.6757933"><ele>140.5</ele><time>2026-04-17T17:19:10.213Z</time></trkpt><trkpt lat="43.306165" lon="13.6758283"><ele>138.0</ele><time>2026-04-17T17:19:11.213Z</time></trkpt><trkpt lat="43.3062967" lon="13.67582"><ele>134.25</ele><time>2026-04-17T17:19:12.213Z</time></trkpt><trkpt lat="43.30643" lon="13.6757883"><ele>130.5</ele><time>2026-04-17T17:19:13.213Z</time></trkpt><trkpt lat="43.306575" lon="13.6757533"><ele>126.75</ele><time>2026-04-17T17:19:14.213Z</time></trkpt><trkpt lat="43.306735" lon="13.6757267"><ele>123.0</ele><time>2026-04-17T17:19:15.213Z</time></trkpt><trkpt lat="43.306895" lon="13.675725"><ele>123.0</ele><time>2026-04-17T17:19:16.213Z</time></trkpt><trkpt lat="43.30705" lon="13.6757183"><ele>123.0</ele><time>2026-04-17T17:19:17.213Z</time></trkpt><trkpt lat="43.30721" lon="13.6757233"><ele>123.0</ele><time>2026-04-17T17:19:18.213Z</time></trkpt><trkpt lat="43.3073667" lon="13.6757617"><ele>120.75</ele><time>2026-04-17T17:19:19.213Z</time></trkpt><trkpt lat="43.307515" lon="13.6758"><ele>118.5</ele><time>2026-04-17T17:19:20.213Z</time></trkpt><trkpt lat="43.3076617" lon="13.675835"><ele>116.25</ele><time>2026-04-17T17:19:21.213Z</time></trkpt><trkpt lat="43.3078017" lon="13.675885"><ele>114.0</ele><time>2026-04-17T17:19:22.213Z</time></trkpt><trkpt lat="43.3079433" lon="13.67595"><ele>111.75</ele><time>2026-04-17T17:19:23.213Z</time></trkpt><trkpt lat="43.3080833" lon="13.6759967"><ele>109.5</ele><time>2026-04-17T17:19:24.213Z</time></trkpt><trkpt lat="43.30823" lon="13.6760167"><ele>107.25</ele><time>2026-04-17T17:19:25.213Z</time></trkpt><trkpt lat="43.3083767" lon="13.6760217"><ele>105.0</ele><time>2026-04-17T17:19:26.213Z</time></trkpt><trkpt lat="43.3085133" lon="13.67601"><ele>105.0</ele><time>2026-04-17T17:19:27.213Z</time></trkpt><trkpt lat="43.3086517" lon="13.675995"><ele>105.0</ele><time>2026-04-17T17:19:28.213Z</time></trkpt><trkpt lat="43.3087917" lon="13.67598"><ele>105.0</ele><time>2026-04-17T17:19:29.213Z</time></trkpt><trkpt lat="43.30894" lon="13.6759667"><ele>105.0</ele><time>2026-04-17T17:19:30.213Z</time></trkpt><trkpt lat="43.3090983" lon="13.6759633"><ele>100.66666666666667</ele><time>2026-04-17T17:19:31.213Z</time></trkpt><trkpt lat="43.309255" lon="13.67599"><ele>96.33333333333334</ele><time>2026-04-17T17:19:32.213Z</time></trkpt><trkpt lat="43.3094167" lon="13.6760117"><ele>92.0</ele><time>2026-04-17T17:19:33.213Z</time></trkpt><trkpt lat="43.309585" lon="13.6760233"><ele>88.33333333333334</ele><time>2026-04-17T17:19:34.213Z</time></trkpt><trkpt lat="43.3097517" lon="13.6760383"><ele>84.66666666666667</ele><time>2026-04-17T17:19:35.213Z</time></trkpt><trkpt lat="43.309915" lon="13.6760667"><ele>81.0</ele><time>2026-04-17T17:19:36.213Z</time></trkpt><trkpt lat="43.31007" lon="13.6761233"><ele>79.66666666666667</ele><time>2026-04-17T17:19:37.213Z</time></trkpt><trkpt lat="43.3102217" lon="13.6762083"><ele>78.33333333333334</ele><time>2026-04-17T17:19:38.213Z</time></trkpt><trkpt lat="43.310375" lon="13.6762983"><ele>77.0</ele><time>2026-04-17T17:19:39.213Z</time></trkpt><trkpt lat="43.3105283" lon="13.676385"><ele>74.75</ele><time>2026-04-17T17:19:40.213Z</time></trkpt><trkpt lat="43.3106733" lon="13.6764667"><ele>72.5</ele><time>2026-04-17T17:19:41.213Z</time></trkpt><trkpt lat="43.3108133" lon="13.6765383"><ele>70.25</ele><time>2026-04-17T17:19:42.213Z</time></trkpt><trkpt lat="43.31095" lon="13.6765817"><ele>68.0</ele><time>2026-04-17T17:19:43.213Z</time></trkpt><trkpt lat="43.3110917" lon="13.6765883"><ele>68.0</ele><time>2026-04-17T17:19:44.213Z</time></trkpt><trkpt lat="43.311235" lon="13.67657"><ele>68.0</ele><time>2026-04-17T17:19:45.213Z</time></trkpt><trkpt lat="43.3113717" lon="13.6765267"><ele>68.0</ele><time>2026-04-17T17:19:46.213Z</time></trkpt><trkpt lat="43.31151" lon="13.6764667"><ele>68.0</ele><time>2026-04-17T17:19:47.212Z</time></trkpt><trkpt lat="43.31164" lon="13.676405"><ele>67.5</ele><time>2026-04-17T17:19:48.213Z</time></trkpt><trkpt lat="43.3117617" lon="13.676345"><ele>67.0</ele><time>2026-04-17T17:19:49.213Z</time></trkpt><trkpt lat="43.3118883" lon="13.67629"><ele>66.5</ele><time>2026-04-17T17:19:50.213Z</time></trkpt><trkpt lat="43.3119983" lon="13.676245"><ele>66.0</ele><time>2026-04-17T17:19:51.213Z</time></trkpt><trkpt lat="43.312105" lon="13.67621"><ele>66.0</ele><time>2026-04-17T17:19:52.213Z</time></trkpt><trkpt lat="43.3121933" lon="13.6762133"><ele>66.0</ele><time>2026-04-17T17:19:53.213Z</time></trkpt><trkpt lat="43.3122667" lon="13.6762483"><ele>66.0</ele><time>2026-04-17T17:19:54.213Z</time></trkpt><trkpt lat="43.312335" lon="13.6763133"><ele>66.0</ele><time>2026-04-17T17:19:55.213Z</time></trkpt><trkpt lat="43.3124067" lon="13.6764233"><ele>66.0</ele><time>2026-04-17T17:19:56.213Z</time></trkpt><trkpt lat="43.312475" lon="13.6765667"><ele>66.5</ele><time>2026-04-17T17:19:57.213Z</time></trkpt><trkpt lat="43.3125667" lon="13.6766917"><ele>67.0</ele><time>2026-04-17T17:19:58.213Z</time></trkpt><trkpt lat="43.312675" lon="13.67679"><ele>67.5</ele><time>2026-04-17T17:19:59.213Z</time></trkpt><trkpt lat="43.3127917" lon="13.6768583"><ele>68.0</ele><time>2026-04-17T17:20:00.213Z</time></trkpt><trkpt lat="43.3129183" lon="13.676935"><ele>68.4</ele><time>2026-04-17T17:20:01.213Z</time></trkpt><trkpt lat="43.3130433" lon="13.6770017"><ele>68.8</ele><time>2026-04-17T17:20:02.213Z</time></trkpt><trkpt lat="43.3131467" lon="13.6770583"><ele>69.2</ele><time>2026-04-17T17:20:03.213Z</time></trkpt><trkpt lat="43.3132433" lon="13.677125"><ele>69.6</ele><time>2026-04-17T17:20:04.213Z</time></trkpt><trkpt lat="43.31333" lon="13.677155"><ele>70.0</ele><time>2026-04-17T17:20:05.213Z</time></trkpt><trkpt lat="43.3134167" lon="13.6771883"><ele>72.2</ele><time>2026-04-17T17:20:06.213Z</time></trkpt><trkpt lat="43.31351" lon="13.6772533"><ele>74.4</ele><time>2026-04-17T17:20:07.213Z</time></trkpt><trkpt lat="43.3136067" lon="13.67732"><ele>76.6</ele><time>2026-04-17T17:20:08.213Z</time></trkpt><trkpt lat="43.313695" lon="13.6773867"><ele>78.8</ele><time>2026-04-17T17:20:09.213Z</time></trkpt><trkpt lat="43.3137867" lon="13.6774933"><ele>81.0</ele><time>2026-04-17T17:20:10.213Z</time></trkpt><trkpt lat="43.31388" lon="13.677615"><ele>83.25</ele><time>2026-04-17T17:20:11.213Z</time></trkpt><trkpt lat="43.3139783" lon="13.6777217"><ele>85.5</ele><time>2026-04-17T17:20:12.213Z</time></trkpt><trkpt lat="43.31408" lon="13.67783"><ele>87.75</ele><time>2026-04-17T17:20:13.213Z</time></trkpt><trkpt lat="43.3141833" lon="13.6779383"><ele>90.0</ele><time>2026-04-17T17:20:14.213Z</time></trkpt><trkpt lat="43.31427" lon="13.678065"><ele>91.5</ele><time>2026-04-17T17:20:15.213Z</time></trkpt><trkpt lat="43.314355" lon="13.6781533"><ele>93.0</ele><time>2026-04-17T17:20:16.213Z</time></trkpt><trkpt lat="43.3144367" lon="13.6782283"><ele>94.5</ele><time>2026-04-17T17:20:17.213Z</time></trkpt><trkpt lat="43.3145383" lon="13.678325"><ele>96.0</ele><time>2026-04-17T17:20:18.213Z</time></trkpt><trkpt lat="43.314665" lon="13.6784467"><ele>98.19999999999999</ele><time>2026-04-17T17:20:19.213Z</time></trkpt><trkpt lat="43.3147817" lon="13.678555"><ele>100.39999999999999</ele><time>2026-04-17T17:20:20.213Z</time></trkpt><trkpt lat="43.314875" lon="13.6786733"><ele>102.6</ele><time>2026-04-17T17:20:21.213Z</time></trkpt><trkpt lat="43.3149483" lon="13.6787567"><ele>104.8</ele><time>2026-04-17T17:20:22.213Z</time></trkpt><trkpt lat="43.3150217" lon="13.6788167"><ele>107.0</ele><time>2026-04-17T17:20:23.213Z</time></trkpt><trkpt lat="43.3150983" lon="13.6788983"><ele>106.99999999999999</ele><time>2026-04-17T17:20:25.213Z</time></trkpt><trkpt lat="43.31515" lon="13.6789483"><ele>107.0</ele><time>2026-04-17T17:20:27.213Z</time></trkpt><trkpt lat="43.3151983" lon="13.6788717"><ele>107.0</ele><time>2026-04-17T17:20:29.213Z</time></trkpt><trkpt lat="43.3151883" lon="13.67877"><ele>107.0</ele><time>2026-04-17T17:20:31.213Z</time></trkpt><trkpt lat="43.3151583" lon="13.6786533"><ele>106.99999999999999</ele><time>2026-04-17T17:20:34.213Z</time></trkpt><trkpt lat="43.3151767" lon="13.6784917"><ele>107.0</ele><time>2026-04-17T17:20:47.213Z</time></trkpt><trkpt lat="43.31522" lon="13.6784117"><ele>107.0</ele><time>2026-04-17T17:20:48.213Z</time></trkpt><trkpt lat="43.31528" lon="13.6783217"><ele>106.99999999999999</ele><time>2026-04-17T17:20:49.213Z</time></trkpt><trkpt lat="43.3153383" lon="13.6782267"><ele>106.99999999999999</ele><time>2026-04-17T17:20:50.213Z</time></trkpt><trkpt lat="43.3154" lon="13.6781333"><ele>107.0</ele><time>2026-04-17T17:20:51.213Z</time></trkpt><trkpt lat="43.3154633" lon="13.678035"><ele>107.0</ele><time>2026-04-17T17:20:52.213Z</time></trkpt><trkpt lat="43.315525" lon="13.677915"><ele>110.8</ele><time>2026-04-17T17:20:53.213Z</time></trkpt><trkpt lat="43.3155883" lon="13.677795"><ele>114.6</ele><time>2026-04-17T17:20:54.213Z</time></trkpt><trkpt lat="43.31565" lon="13.6776867"><ele>118.39999999999999</ele><time>2026-04-17T17:20:55.213Z</time></trkpt><trkpt lat="43.3157133" lon="13.6775783"><ele>122.19999999999999</ele><time>2026-04-17T17:20:56.213Z</time></trkpt><trkpt lat="43.3157833" lon="13.6774717"><ele>126.0</ele><time>2026-04-17T17:20:57.213Z</time></trkpt><trkpt lat="43.315855" lon="13.6773667"><ele>126.0</ele><time>2026-04-17T17:20:58.213Z</time></trkpt><trkpt lat="43.3159317" lon="13.67727"><ele>126.0</ele><time>2026-04-17T17:20:59.213Z</time></trkpt><trkpt lat="43.3160167" lon="13.6771783"><ele>126.0</ele><time>2026-04-17T17:21:00.213Z</time></trkpt><trkpt lat="43.3161083" lon="13.6770917"><ele>126.0</ele><time>2026-04-17T17:21:01.213Z</time></trkpt><trkpt lat="43.3161933" lon="13.6770067"><ele>126.0</ele><time>2026-04-17T17:21:02.213Z</time></trkpt><trkpt lat="43.3162883" lon="13.67693"><ele>125.75</ele><time>2026-04-17T17:21:03.213Z</time></trkpt><trkpt lat="43.3163883" lon="13.6768633"><ele>125.5</ele><time>2026-04-17T17:21:04.213Z</time></trkpt><trkpt lat="43.316495" lon="13.6767967"><ele>125.25</ele><time>2026-04-17T17:21:05.213Z</time></trkpt><trkpt lat="43.3166033" lon="13.6767383"><ele>125.0</ele><time>2026-04-17T17:21:06.213Z</time></trkpt><trkpt lat="43.31671" lon="13.6766967"><ele>125.0</ele><time>2026-04-17T17:21:07.213Z</time></trkpt><trkpt lat="43.3168017" lon="13.676665"><ele>125.0</ele><time>2026-04-17T17:21:08.213Z</time></trkpt><trkpt lat="43.3169033" lon="13.6766467"><ele>125.0</ele><time>2026-04-17T17:21:09.213Z</time></trkpt><trkpt lat="43.317005" lon="13.6766533"><ele>125.0</ele><time>2026-04-17T17:21:10.213Z</time></trkpt><trkpt lat="43.3171133" lon="13.6766817"><ele>125.0</ele><time>2026-04-17T17:21:11.213Z</time></trkpt><trkpt lat="43.3172283" lon="13.676725"><ele>125.2</ele><time>2026-04-17T17:21:12.213Z</time></trkpt><trkpt lat="43.3173317" lon="13.6767767"><ele>125.4</ele><time>2026-04-17T17:21:13.213Z</time></trkpt><trkpt lat="43.31743" lon="13.6768283"><ele>125.6</ele><time>2026-04-17T17:21:14.213Z</time></trkpt><trkpt lat="43.3175083" lon="13.6768917"><ele>125.8</ele><time>2026-04-17T17:21:15.213Z</time></trkpt><trkpt lat="43.317585" lon="13.6769583"><ele>126.0</ele><time>2026-04-17T17:21:16.213Z</time></trkpt><trkpt lat="43.31766" lon="13.6770367"><ele>128.0</ele><time>2026-04-17T17:21:17.213Z</time></trkpt><trkpt lat="43.3177317" lon="13.6771067"><ele>130.0</ele><time>2026-04-17T17:21:18.213Z</time></trkpt><trkpt lat="43.31779" lon="13.6771683"><ele>132.0</ele><time>2026-04-17T17:21:19.213Z</time></trkpt><trkpt lat="43.3178567" lon="13.6772167"><ele>134.0</ele><time>2026-04-17T17:21:20.213Z</time></trkpt><trkpt lat="43.3179533" lon="13.6773"><ele>136.0</ele><time>2026-04-17T17:21:22.213Z</time></trkpt><trkpt lat="43.318025" lon="13.6773867"><ele>138.0</ele><time>2026-04-17T17:21:24.213Z</time></trkpt><trkpt lat="43.31808" lon="13.6774717"><ele>138.0</ele><time>2026-04-17T17:21:27.213Z</time></trkpt><trkpt lat="43.31813" lon="13.677545"><ele>138.0</ele><time>2026-04-17T17:21:30.213Z</time></trkpt><trkpt lat="43.3181867" lon="13.6776467"><ele>138.0</ele><time>2026-04-17T17:21:32.213Z</time></trkpt><trkpt lat="43.3182383" lon="13.67776"><ele>138.0</ele><time>2026-04-17T17:21:34.213Z</time></trkpt><trkpt lat="43.3182717" lon="13.677905"><ele>138.0</ele><time>2026-04-17T17:21:36.213Z</time></trkpt><trkpt lat="43.3182483" lon="13.67805"><ele>137.5</ele><time>2026-04-17T17:21:38.213Z</time></trkpt><trkpt lat="43.318295" lon="13.678205"><ele>137.0</ele><time>2026-04-17T17:21:40.213Z</time></trkpt><trkpt lat="43.3183583" lon="13.6783133"><ele>136.5</ele><time>2026-04-17T17:21:41.213Z</time></trkpt><trkpt lat="43.318445" lon="13.678435"><ele>136.0</ele><time>2026-04-17T17:21:42.213Z</time></trkpt><trkpt lat="43.3185483" lon="13.6785733"><ele>134.25</ele><time>2026-04-17T17:21:43.213Z</time></trkpt><trkpt lat="43.3186367" lon="13.6787"><ele>132.5</ele><time>2026-04-17T17:21:44.213Z</time></trkpt><trkpt lat="43.3187267" lon="13.67884"><ele>130.75</ele><time>2026-04-17T17:21:45.213Z</time></trkpt><trkpt lat="43.3188133" lon="13.67899"><ele>129.0</ele><time>2026-04-17T17:21:46.213Z</time></trkpt><trkpt lat="43.3188967" lon="13.67914"><ele>127.5</ele><time>2026-04-17T17:21:47.213Z</time></trkpt><trkpt lat="43.318975" lon="13.6792833"><ele>126.0</ele><time>2026-04-17T17:21:48.213Z</time></trkpt><trkpt lat="43.3190433" lon="13.6794417"><ele>124.5</ele><time>2026-04-17T17:21:49.213Z</time></trkpt><trkpt lat="43.3191133" lon="13.67959"><ele>123.0</ele><time>2026-04-17T17:21:50.213Z</time></trkpt><trkpt lat="43.3191817" lon="13.67973"><ele>123.0</ele><time>2026-04-17T17:21:51.213Z</time></trkpt><trkpt lat="43.3192483" lon="13.67987"><ele>123.0</ele><time>2026-04-17T17:21:52.213Z</time></trkpt><trkpt lat="43.319305" lon="13.6800117"><ele>123.0</ele><time>2026-04-17T17:21:53.213Z</time></trkpt><trkpt lat="43.3193717" lon="13.6801483"><ele>123.0</ele><time>2026-04-17T17:21:54.213Z</time></trkpt><trkpt lat="43.3194433" lon="13.6802917"><ele>122.25</ele><time>2026-04-17T17:21:55.213Z</time></trkpt><trkpt lat="43.31951" lon="13.680445"><ele>121.5</ele><time>2026-04-17T17:21:56.213Z</time></trkpt><trkpt lat="43.3195867" lon="13.6805767"><ele>120.75</ele><time>2026-04-17T17:21:57.213Z</time></trkpt><trkpt lat="43.3196733" lon="13.680705"><ele>120.0</ele><time>2026-04-17T17:21:58.213Z</time></trkpt><trkpt lat="43.3197683" lon="13.6808067"><ele>120.0</ele><time>2026-04-17T17:21:59.213Z</time></trkpt><trkpt lat="43.3198667" lon="13.6809033"><ele>120.0</ele><time>2026-04-17T17:22:00.213Z</time></trkpt><trkpt lat="43.319985" lon="13.6810317"><ele>120.0</ele><time>2026-04-17T17:22:01.213Z</time></trkpt><trkpt lat="43.3201183" lon="13.6811383"><ele>120.0</ele><time>2026-04-17T17:22:02.213Z</time></trkpt><trkpt lat="43.320255" lon="13.6812317"><ele>114.66666666666666</ele><time>2026-04-17T17:22:03.213Z</time></trkpt><trkpt lat="43.3204017" lon="13.6813017"><ele>109.33333333333333</ele><time>2026-04-17T17:22:04.213Z</time></trkpt><trkpt lat="43.3205417" lon="13.6813483"><ele>104.0</ele><time>2026-04-17T17:22:05.213Z</time></trkpt><trkpt lat="43.3206933" lon="13.6813767"><ele>103.66666666666666</ele><time>2026-04-17T17:22:06.213Z</time></trkpt><trkpt lat="43.32098" lon="13.6814617"><ele>103.33333333333334</ele><time>2026-04-17T17:22:08.213Z</time></trkpt><trkpt lat="43.321115" lon="13.68151"><ele>103.0</ele><time>2026-04-17T17:22:09.213Z</time></trkpt><trkpt lat="43.3212517" lon="13.6815667"><ele>103.0</ele><time>2026-04-17T17:22:10.213Z</time></trkpt><trkpt lat="43.3213783" lon="13.681635"><ele>103.0</ele><time>2026-04-17T17:22:11.213Z</time></trkpt><trkpt lat="43.3214817" lon="13.6817833"><ele>103.0</ele><time>2026-04-17T17:22:12.212Z</time></trkpt><trkpt lat="43.3215717" lon="13.6819583"><ele>103.0</ele><time>2026-04-17T17:22:13.213Z</time></trkpt><trkpt lat="43.32165" lon="13.6821517"><ele>103.66666666666667</ele><time>2026-04-17T17:22:14.213Z</time></trkpt><trkpt lat="43.3217" lon="13.6823617"><ele>104.33333333333334</ele><time>2026-04-17T17:22:15.213Z</time></trkpt><trkpt lat="43.3217267" lon="13.6825833"><ele>105.0</ele><time>2026-04-17T17:22:16.213Z</time></trkpt><trkpt lat="43.3217383" lon="13.6828"><ele>106.0</ele><time>2026-04-17T17:22:17.213Z</time></trkpt><trkpt lat="43.3217433" lon="13.6830333"><ele>107.0</ele><time>2026-04-17T17:22:18.213Z</time></trkpt><trkpt lat="43.3217467" lon="13.683245"><ele>108.0</ele><time>2026-04-17T17:22:19.213Z</time></trkpt><trkpt lat="43.32175" lon="13.6834617"><ele>109.5</ele><time>2026-04-17T17:22:20.213Z</time></trkpt><trkpt lat="43.32174" lon="13.6836783"><ele>111.0</ele><time>2026-04-17T17:22:21.213Z</time></trkpt><trkpt lat="43.3217217" lon="13.6838683"><ele>112.5</ele><time>2026-04-17T17:22:22.213Z</time></trkpt><trkpt lat="43.3216917" lon="13.6840517"><ele>114.0</ele><time>2026-04-17T17:22:23.213Z</time></trkpt><trkpt lat="43.32165" lon="13.6842333"><ele>114.0</ele><time>2026-04-17T17:22:24.213Z</time></trkpt><trkpt lat="43.3216033" lon="13.6844"><ele>114.0</ele><time>2026-04-17T17:22:25.213Z</time></trkpt><trkpt lat="43.3215467" lon="13.6845583"><ele>114.0</ele><time>2026-04-17T17:22:26.213Z</time></trkpt><trkpt lat="43.3214767" lon="13.6847283"><ele>114.0</ele><time>2026-04-17T17:22:27.213Z</time></trkpt><trkpt lat="43.3214217" lon="13.68492"><ele>114.5</ele><time>2026-04-17T17:22:28.213Z</time></trkpt><trkpt lat="43.3213667" lon="13.685095"><ele>115.0</ele><time>2026-04-17T17:22:29.213Z</time></trkpt><trkpt lat="43.3213183" lon="13.68527"><ele>115.5</ele><time>2026-04-17T17:22:30.213Z</time></trkpt><trkpt lat="43.3212917" lon="13.68545"><ele>116.0</ele><time>2026-04-17T17:22:31.213Z</time></trkpt><trkpt lat="43.3212767" lon="13.68563"><ele>116.0</ele><time>2026-04-17T17:22:32.213Z</time></trkpt><trkpt lat="43.3212683" lon="13.68581"><ele>116.0</ele><time>2026-04-17T17:22:33.213Z</time></trkpt><trkpt lat="43.3212817" lon="13.685995"><ele>116.0</ele><time>2026-04-17T17:22:34.213Z</time></trkpt><trkpt lat="43.3212983" lon="13.6861783"><ele>116.0</ele><time>2026-04-17T17:22:35.213Z</time></trkpt><trkpt lat="43.32131" lon="13.686365"><ele>116.5</ele><time>2026-04-17T17:22:36.213Z</time></trkpt><trkpt lat="43.3213233" lon="13.6865533"><ele>117.0</ele><time>2026-04-17T17:22:37.213Z</time></trkpt><trkpt lat="43.3213467" lon="13.68674"><ele>117.5</ele><time>2026-04-17T17:22:38.213Z</time></trkpt><trkpt lat="43.3213733" lon="13.6868967"><ele>118.0</ele><time>2026-04-17T17:22:39.213Z</time></trkpt><trkpt lat="43.32139" lon="13.6870433"><ele>121.75</ele><time>2026-04-17T17:22:40.213Z</time></trkpt><trkpt lat="43.3214117" lon="13.6871883"><ele>125.5</ele><time>2026-04-17T17:22:41.213Z</time></trkpt><trkpt lat="43.32144" lon="13.687335"><ele>129.25</ele><time>2026-04-17T17:22:42.213Z</time></trkpt><trkpt lat="43.3214683" lon="13.6874883"><ele>133.0</ele><time>2026-04-17T17:22:43.213Z</time></trkpt><trkpt lat="43.321495" lon="13.687645"><ele>133.75</ele><time>2026-04-17T17:22:44.213Z</time></trkpt><trkpt lat="43.32153" lon="13.6878133"><ele>134.5</ele><time>2026-04-17T17:22:45.213Z</time></trkpt><trkpt lat="43.3215833" lon="13.688"><ele>135.25</ele><time>2026-04-17T17:22:46.213Z</time></trkpt><trkpt lat="43.3216483" lon="13.6881883"><ele>136.0</ele><time>2026-04-17T17:22:47.213Z</time></trkpt><trkpt lat="43.3217117" lon="13.6884133"><ele>136.0</ele><time>2026-04-17T17:22:48.213Z</time></trkpt><trkpt lat="43.3217867" lon="13.6886083"><ele>136.0</ele><time>2026-04-17T17:22:49.213Z</time></trkpt><trkpt lat="43.3218683" lon="13.6887767"><ele>136.0</ele><time>2026-04-17T17:22:50.213Z</time></trkpt><trkpt lat="43.3219617" lon="13.68891"><ele>136.0</ele><time>2026-04-17T17:22:51.213Z</time></trkpt><trkpt lat="43.3220683" lon="13.68904"><ele>136.0</ele><time>2026-04-17T17:22:52.213Z</time></trkpt><trkpt lat="43.3221783" lon="13.6891583"><ele>136.0</ele><time>2026-04-17T17:22:53.213Z</time></trkpt><trkpt lat="43.3223" lon="13.689275"><ele>136.0</ele><time>2026-04-17T17:22:54.213Z</time></trkpt><trkpt lat="43.3224267" lon="13.6893583"><ele>136.0</ele><time>2026-04-17T17:22:55.213Z</time></trkpt><trkpt lat="43.3225583" lon="13.6894183"><ele>135.75</ele><time>2026-04-17T17:22:56.213Z</time></trkpt><trkpt lat="43.3226767" lon="13.6894917"><ele>135.5</ele><time>2026-04-17T17:22:57.213Z</time></trkpt><trkpt lat="43.3228" lon="13.6895767"><ele>135.25</ele><time>2026-04-17T17:22:58.213Z</time></trkpt><trkpt lat="43.3229067" lon="13.689685"><ele>135.0</ele><time>2026-04-17T17:22:59.213Z</time></trkpt><trkpt lat="43.322985" lon="13.6898233"><ele>135.0</ele><time>2026-04-17T17:23:00.213Z</time></trkpt><trkpt lat="43.3230383" lon="13.6899917"><ele>135.0</ele><time>2026-04-17T17:23:01.213Z</time></trkpt><trkpt lat="43.3230683" lon="13.69019"><ele>135.0</ele><time>2026-04-17T17:23:02.213Z</time></trkpt><trkpt lat="43.323095" lon="13.6903983"><ele>135.0</ele><time>2026-04-17T17:23:03.213Z</time></trkpt><trkpt lat="43.323125" lon="13.6906083"><ele>133.66666666666666</ele><time>2026-04-17T17:23:04.213Z</time></trkpt><trkpt lat="43.3231733" lon="13.6908417"><ele>132.33333333333331</ele><time>2026-04-17T17:23:05.213Z</time></trkpt><trkpt lat="43.3232267" lon="13.6910867"><ele>131.0</ele><time>2026-04-17T17:23:06.213Z</time></trkpt><trkpt lat="43.3232633" lon="13.69133"><ele>131.0</ele><time>2026-04-17T17:23:07.213Z</time></trkpt><trkpt lat="43.3233" lon="13.6915717"><ele>131.0</ele><time>2026-04-17T17:23:08.213Z</time></trkpt><trkpt lat="43.32332" lon="13.6918283"><ele>131.0</ele><time>2026-04-17T17:23:09.213Z</time></trkpt><trkpt lat="43.3233367" lon="13.6920517"><ele>130.0</ele><time>2026-04-17T17:23:10.213Z</time></trkpt><trkpt lat="43.3233583" lon="13.6922683"><ele>129.0</ele><time>2026-04-17T17:23:11.213Z</time></trkpt><trkpt lat="43.3233767" lon="13.69248"><ele>128.0</ele><time>2026-04-17T17:23:12.213Z</time></trkpt><trkpt lat="43.323425" lon="13.6926933"><ele>126.0</ele><time>2026-04-17T17:23:13.213Z</time></trkpt><trkpt lat="43.323485" lon="13.6929267"><ele>124.0</ele><time>2026-04-17T17:23:14.213Z</time></trkpt><trkpt lat="43.323555" lon="13.693155"><ele>122.0</ele><time>2026-04-17T17:23:15.213Z</time></trkpt><trkpt lat="43.3236217" lon="13.6933817"><ele>119.66666666666666</ele><time>2026-04-17T17:23:16.213Z</time></trkpt><trkpt lat="43.3236983" lon="13.6935983"><ele>117.33333333333334</ele><time>2026-04-17T17:23:17.212Z</time></trkpt><trkpt lat="43.323775" lon="13.6938117"><ele>115.0</ele><time>2026-04-17T17:23:18.213Z</time></trkpt><trkpt lat="43.32385" lon="13.6940217"><ele>116.33333333333334</ele><time>2026-04-17T17:23:19.213Z</time></trkpt><trkpt lat="43.3239217" lon="13.69423"><ele>117.66666666666666</ele><time>2026-04-17T17:23:20.213Z</time></trkpt><trkpt lat="43.3239767" lon="13.694445"><ele>119.0</ele><time>2026-04-17T17:23:21.213Z</time></trkpt><trkpt lat="43.3240233" lon="13.694655"><ele>119.0</ele><time>2026-04-17T17:23:22.213Z</time></trkpt><trkpt lat="43.32407" lon="13.6948667"><ele>119.0</ele><time>2026-04-17T17:23:23.213Z</time></trkpt><trkpt lat="43.324105" lon="13.6950867"><ele>119.0</ele><time>2026-04-17T17:23:24.213Z</time></trkpt><trkpt lat="43.3241483" lon="13.6953067"><ele>118.33333333333333</ele><time>2026-04-17T17:23:25.213Z</time></trkpt><trkpt lat="43.3241867" lon="13.6955417"><ele>117.66666666666666</ele><time>2026-04-17T17:23:26.213Z</time></trkpt><trkpt lat="43.3242167" lon="13.6957783"><ele>117.0</ele><time>2026-04-17T17:23:27.213Z</time></trkpt><trkpt lat="43.32424" lon="13.6960233"><ele>116.0</ele><time>2026-04-17T17:23:28.213Z</time></trkpt><trkpt lat="43.32427" lon="13.6962533"><ele>115.0</ele><time>2026-04-17T17:23:29.213Z</time></trkpt><trkpt lat="43.3243033" lon="13.696485"><ele>114.0</ele><time>2026-04-17T17:23:30.213Z</time></trkpt><trkpt lat="43.324345" lon="13.6967067"><ele>112.66666666666666</ele><time>2026-04-17T17:23:31.213Z</time></trkpt><trkpt lat="43.32439" lon="13.6969433"><ele>111.33333333333333</ele><time>2026-04-17T17:23:32.213Z</time></trkpt><trkpt lat="43.3244317" lon="13.6971783"><ele>110.0</ele><time>2026-04-17T17:23:33.213Z</time></trkpt><trkpt lat="43.3244733" lon="13.6974083"><ele>110.0</ele><time>2026-04-17T17:23:34.213Z</time></trkpt><trkpt lat="43.324525" lon="13.697655"><ele>110.0</ele><time>2026-04-17T17:23:35.213Z</time></trkpt><trkpt lat="43.32458" lon="13.6978867"><ele>110.0</ele><time>2026-04-17T17:23:36.213Z</time></trkpt><trkpt lat="43.3246417" lon="13.6981183"><ele>110.0</ele><time>2026-04-17T17:23:37.213Z</time></trkpt><trkpt lat="43.3247" lon="13.6983367"><ele>110.0</ele><time>2026-04-17T17:23:38.213Z</time></trkpt><trkpt lat="43.324755" lon="13.6985617"><ele>110.0</ele><time>2026-04-17T17:23:39.213Z</time></trkpt><trkpt lat="43.3247983" lon="13.6987933"><ele>109.33333333333333</ele><time>2026-04-17T17:23:40.213Z</time></trkpt><trkpt lat="43.3248433" lon="13.6990233"><ele>108.66666666666666</ele><time>2026-04-17T17:23:41.213Z</time></trkpt><trkpt lat="43.32488" lon="13.69925"><ele>108.0</ele><time>2026-04-17T17:23:42.213Z</time></trkpt><trkpt lat="43.3249083" lon="13.6994917"><ele>108.0</ele><time>2026-04-17T17:23:43.213Z</time></trkpt><trkpt lat="43.32493" lon="13.69973"><ele>108.0</ele><time>2026-04-17T17:23:44.213Z</time></trkpt><trkpt lat="43.3249483" lon="13.6999667"><ele>108.0</ele><time>2026-04-17T17:23:45.213Z</time></trkpt><trkpt lat="43.3249567" lon="13.7002033"><ele>107.66666666666666</ele><time>2026-04-17T17:23:46.213Z</time></trkpt><trkpt lat="43.3249417" lon="13.700425"><ele>107.33333333333333</ele><time>2026-04-17T17:23:47.213Z</time></trkpt><trkpt lat="43.3249183" lon="13.70066"><ele>107.0</ele><time>2026-04-17T17:23:48.213Z</time></trkpt><trkpt lat="43.3248883" lon="13.7008883"><ele>106.33333333333333</ele><time>2026-04-17T17:23:49.213Z</time></trkpt><trkpt lat="43.32484" lon="13.7011267"><ele>105.66666666666666</ele><time>2026-04-17T17:23:50.213Z</time></trkpt><trkpt lat="43.3247933" lon="13.7013567"><ele>105.0</ele><time>2026-04-17T17:23:51.213Z</time></trkpt><trkpt lat="43.3247433" lon="13.7015817"><ele>102.0</ele><time>2026-04-17T17:23:52.213Z</time></trkpt><trkpt lat="43.3246917" lon="13.7018083"><ele>99.0</ele><time>2026-04-17T17:23:53.213Z</time></trkpt><trkpt lat="43.3246267" lon="13.702045"><ele>96.0</ele><time>2026-04-17T17:23:54.213Z</time></trkpt><trkpt lat="43.3245533" lon="13.7022867"><ele>96.0</ele><time>2026-04-17T17:23:55.213Z</time></trkpt><trkpt lat="43.3244833" lon="13.7025083"><ele>96.0</ele><time>2026-04-17T17:23:56.213Z</time></trkpt><trkpt lat="43.324425" lon="13.7027283"><ele>96.0</ele><time>2026-04-17T17:23:57.213Z</time></trkpt><trkpt lat="43.324365" lon="13.7029483"><ele>95.66666666666667</ele><time>2026-04-17T17:23:58.213Z</time></trkpt><trkpt lat="43.324305" lon="13.703165"><ele>95.33333333333334</ele><time>2026-04-17T17:23:59.213Z</time></trkpt><trkpt lat="43.324265" lon="13.7033917"><ele>95.0</ele><time>2026-04-17T17:24:00.213Z</time></trkpt><trkpt lat="43.324225" lon="13.7036083"><ele>95.66666666666667</ele><time>2026-04-17T17:24:01.213Z</time></trkpt><trkpt lat="43.3241783" lon="13.70383"><ele>96.33333333333334</ele><time>2026-04-17T17:24:02.213Z</time></trkpt><trkpt lat="43.324115" lon="13.70404"><ele>97.0</ele><time>2026-04-17T17:24:03.213Z</time></trkpt><trkpt lat="43.324025" lon="13.7042517"><ele>95.66666666666667</ele><time>2026-04-17T17:24:04.213Z</time></trkpt><trkpt lat="43.3239133" lon="13.7044783"><ele>94.33333333333334</ele><time>2026-04-17T17:24:05.213Z</time></trkpt><trkpt lat="43.3237983" lon="13.70469"><ele>93.0</ele><time>2026-04-17T17:24:06.213Z</time></trkpt><trkpt lat="43.323705" lon="13.7048983"><ele>88.66666666666667</ele><time>2026-04-17T17:24:07.213Z</time></trkpt><trkpt lat="43.3236383" lon="13.7051133"><ele>84.33333333333334</ele><time>2026-04-17T17:24:08.213Z</time></trkpt><trkpt lat="43.3235667" lon="13.70532"><ele>80.0</ele><time>2026-04-17T17:24:09.213Z</time></trkpt><trkpt lat="43.32349" lon="13.70551"><ele>79.66666666666667</ele><time>2026-04-17T17:24:10.213Z</time></trkpt><trkpt lat="43.32339" lon="13.7057"><ele>79.33333333333333</ele><time>2026-04-17T17:24:11.213Z</time></trkpt><trkpt lat="43.3232917" lon="13.705875"><ele>79.0</ele><time>2026-04-17T17:24:12.213Z</time></trkpt><trkpt lat="43.3231933" lon="13.706025"><ele>77.75</ele><time>2026-04-17T17:24:13.213Z</time></trkpt><trkpt lat="43.3231" lon="13.706175"><ele>76.5</ele><time>2026-04-17T17:24:14.213Z</time></trkpt><trkpt lat="43.3230017" lon="13.7063117"><ele>75.25</ele><time>2026-04-17T17:24:15.213Z</time></trkpt><trkpt lat="43.322905" lon="13.7064517"><ele>74.0</ele><time>2026-04-17T17:24:16.213Z</time></trkpt><trkpt lat="43.3228183" lon="13.7066017"><ele>72.25</ele><time>2026-04-17T17:24:17.213Z</time></trkpt><trkpt lat="43.3227383" lon="13.70675"><ele>70.5</ele><time>2026-04-17T17:24:18.213Z</time></trkpt><trkpt lat="43.3226833" lon="13.7068983"><ele>68.75</ele><time>2026-04-17T17:24:19.213Z</time></trkpt><trkpt lat="43.32266" lon="13.707035"><ele>67.0</ele><time>2026-04-17T17:24:20.213Z</time></trkpt><trkpt lat="43.3226717" lon="13.7071783"><ele>64.75</ele><time>2026-04-17T17:24:21.213Z</time></trkpt><trkpt lat="43.3227067" lon="13.7073167"><ele>62.5</ele><time>2026-04-17T17:24:22.213Z</time></trkpt><trkpt lat="43.3227883" lon="13.7074517"><ele>60.25</ele><time>2026-04-17T17:24:23.213Z</time></trkpt><trkpt lat="43.3228817" lon="13.70758"><ele>58.0</ele><time>2026-04-17T17:24:24.213Z</time></trkpt><trkpt lat="43.3229917" lon="13.7077083"><ele>56.0</ele><time>2026-04-17T17:24:25.213Z</time></trkpt><trkpt lat="43.323095" lon="13.7078467"><ele>54.0</ele><time>2026-04-17T17:24:26.213Z</time></trkpt><trkpt lat="43.3231983" lon="13.7079917"><ele>52.0</ele><time>2026-04-17T17:24:27.213Z</time></trkpt><trkpt lat="43.323305" lon="13.7081317"><ele>50.0</ele><time>2026-04-17T17:24:28.213Z</time></trkpt><trkpt lat="43.3234017" lon="13.708285"><ele>50.0</ele><time>2026-04-17T17:24:29.213Z</time></trkpt><trkpt lat="43.3235033" lon="13.7084317"><ele>50.0</ele><time>2026-04-17T17:24:30.213Z</time></trkpt><trkpt lat="43.3236233" lon="13.708505"><ele>50.0</ele><time>2026-04-17T17:24:31.213Z</time></trkpt><trkpt lat="43.32373" lon="13.70858"><ele>50.0</ele><time>2026-04-17T17:24:32.213Z</time></trkpt><trkpt lat="43.3238583" lon="13.7086033"><ele>50.0</ele><time>2026-04-17T17:24:33.213Z</time></trkpt><trkpt lat="43.3240033" lon="13.7085883"><ele>50.0</ele><time>2026-04-17T17:24:34.212Z</time></trkpt><trkpt lat="43.3241483" lon="13.7085367"><ele>50.0</ele><time>2026-04-17T17:24:35.213Z</time></trkpt><trkpt lat="43.324305" lon="13.7084617"><ele>50.0</ele><time>2026-04-17T17:24:36.213Z</time></trkpt><trkpt lat="43.324465" lon="13.708355"><ele>50.0</ele><time>2026-04-17T17:24:37.213Z</time></trkpt><trkpt lat="43.3246233" lon="13.7082567"><ele>50.0</ele><time>2026-04-17T17:24:38.212Z</time></trkpt><trkpt lat="43.3247867" lon="13.7081717"><ele>48.66666666666667</ele><time>2026-04-17T17:24:39.213Z</time></trkpt><trkpt lat="43.3249467" lon="13.7080817"><ele>47.333333333333336</ele><time>2026-04-17T17:24:40.213Z</time></trkpt><trkpt lat="43.3251067" lon="13.7079767"><ele>46.0</ele><time>2026-04-17T17:24:41.213Z</time></trkpt><trkpt lat="43.3252483" lon="13.7078683"><ele>46.0</ele><time>2026-04-17T17:24:42.213Z</time></trkpt><trkpt lat="43.3253767" lon="13.7077817"><ele>46.0</ele><time>2026-04-17T17:24:43.213Z</time></trkpt><trkpt lat="43.3254967" lon="13.707675"><ele>46.0</ele><time>2026-04-17T17:24:44.213Z</time></trkpt><trkpt lat="43.3256183" lon="13.70757"><ele>46.0</ele><time>2026-04-17T17:24:45.213Z</time></trkpt><trkpt lat="43.325735" lon="13.707485"><ele>46.4</ele><time>2026-04-17T17:24:46.213Z</time></trkpt><trkpt lat="43.325845" lon="13.707425"><ele>46.8</ele><time>2026-04-17T17:24:47.213Z</time></trkpt><trkpt lat="43.3259483" lon="13.7074067"><ele>47.199999999999996</ele><time>2026-04-17T17:24:48.213Z</time></trkpt><trkpt lat="43.3260583" lon="13.70742"><ele>47.599999999999994</ele><time>2026-04-17T17:24:49.213Z</time></trkpt><trkpt lat="43.3261617" lon="13.7074833"><ele>48.0</ele><time>2026-04-17T17:24:50.212Z</time></trkpt><trkpt lat="43.326255" lon="13.7075617"><ele>48.0</ele><time>2026-04-17T17:24:51.213Z</time></trkpt><trkpt lat="43.326315" lon="13.707715"><ele>48.0</ele><time>2026-04-17T17:24:52.213Z</time></trkpt><trkpt lat="43.3263633" lon="13.7078817"><ele>48.0</ele><time>2026-04-17T17:24:53.213Z</time></trkpt><trkpt lat="43.3263917" lon="13.7080917"><ele>48.0</ele><time>2026-04-17T17:24:54.213Z</time></trkpt><trkpt lat="43.3264133" lon="13.70829"><ele>45.8</ele><time>2026-04-17T17:24:55.213Z</time></trkpt><trkpt lat="43.326445" lon="13.7084667"><ele>43.599999999999994</ele><time>2026-04-17T17:24:56.213Z</time></trkpt><trkpt lat="43.3264817" lon="13.7086"><ele>41.400000000000006</ele><time>2026-04-17T17:24:57.213Z</time></trkpt><trkpt lat="43.3264917" lon="13.7087"><ele>39.2</ele><time>2026-04-17T17:24:58.212Z</time></trkpt><trkpt lat="43.3264917" lon="13.7088567"><ele>37.0</ele><time>2026-04-17T17:25:00.212Z</time></trkpt><trkpt lat="43.3265383" lon="13.7089817"><ele>36.0</ele><time>2026-04-17T17:25:02.212Z</time></trkpt><trkpt lat="43.3266417" lon="13.7089983"><ele>35.0</ele><time>2026-04-17T17:25:04.212Z</time></trkpt><trkpt lat="43.3267133" lon="13.7089533"><ele>34.0</ele><time>2026-04-17T17:25:05.211Z</time></trkpt><trkpt lat="43.32679" lon="13.7088767"><ele>33.0</ele><time>2026-04-17T17:25:06.212Z</time></trkpt><trkpt lat="43.3268717" lon="13.70876"><ele>32.0</ele><time>2026-04-17T17:25:07.212Z</time></trkpt><trkpt lat="43.326955" lon="13.70862"><ele>32.2</ele><time>2026-04-17T17:25:08.212Z</time></trkpt><trkpt lat="43.3270367" lon="13.7084967"><ele>32.400000000000006</ele><time>2026-04-17T17:25:09.212Z</time></trkpt><trkpt lat="43.3271217" lon="13.7083917"><ele>32.599999999999994</ele><time>2026-04-17T17:25:10.212Z</time></trkpt><trkpt lat="43.3272033" lon="13.7083333"><ele>32.8</ele><time>2026-04-17T17:25:11.212Z</time></trkpt><trkpt lat="43.3272867" lon="13.7083017"><ele>33.0</ele><time>2026-04-17T17:25:12.212Z</time></trkpt><trkpt lat="43.327365" lon="13.7082867"><ele>33.0</ele><time>2026-04-17T17:25:13.212Z</time></trkpt><trkpt lat="43.3274383" lon="13.7083433"><ele>33.0</ele><time>2026-04-17T17:25:14.212Z</time></trkpt><trkpt lat="43.32753" lon="13.7084367"><ele>33.0</ele><time>2026-04-17T17:25:15.212Z</time></trkpt><trkpt lat="43.3276183" lon="13.7085967"><ele>33.0</ele><time>2026-04-17T17:25:16.211Z</time></trkpt><trkpt lat="43.3276933" lon="13.7087967"><ele>32.25</ele><time>2026-04-17T17:25:17.212Z</time></trkpt><trkpt lat="43.3277683" lon="13.70898"><ele>31.5</ele><time>2026-04-17T17:25:18.212Z</time></trkpt><trkpt lat="43.3278383" lon="13.709145"><ele>30.75</ele><time>2026-04-17T17:25:19.212Z</time></trkpt><trkpt lat="43.32791" lon="13.7092917"><ele>30.0</ele><time>2026-04-17T17:25:20.212Z</time></trkpt><trkpt lat="43.3279733" lon="13.709425"><ele>28.6</ele><time>2026-04-17T17:25:21.212Z</time></trkpt><trkpt lat="43.32803" lon="13.70955"><ele>27.2</ele><time>2026-04-17T17:25:22.212Z</time></trkpt><trkpt lat="43.3280733" lon="13.7096817"><ele>25.799999999999997</ele><time>2026-04-17T17:25:23.212Z</time></trkpt><trkpt lat="43.32812" lon="13.7098267"><ele>24.4</ele><time>2026-04-17T17:25:24.212Z</time></trkpt><trkpt lat="43.3281417" lon="13.709965"><ele>23.0</ele><time>2026-04-17T17:25:25.212Z</time></trkpt><trkpt lat="43.328155" lon="13.7100867"><ele>22.166666666666668</ele><time>2026-04-17T17:25:26.212Z</time></trkpt><trkpt lat="43.32818" lon="13.7102183"><ele>21.333333333333336</ele><time>2026-04-17T17:25:27.212Z</time></trkpt><trkpt lat="43.3282117" lon="13.7103183"><ele>20.5</ele><time>2026-04-17T17:25:28.212Z</time></trkpt><trkpt lat="43.3282283" lon="13.7104033"><ele>19.666666666666668</ele><time>2026-04-17T17:25:29.212Z</time></trkpt><trkpt lat="43.328275" lon="13.7105017"><ele>18.833333333333332</ele><time>2026-04-17T17:25:31.212Z</time></trkpt><trkpt lat="43.3283633" lon="13.7104983"><ele>18.0</ele><time>2026-04-17T17:25:34.212Z</time></trkpt><trkpt lat="43.3284983" lon="13.710405"><ele>18.0</ele><time>2026-04-17T17:25:36.212Z</time></trkpt><trkpt lat="43.32859" lon="13.710325"><ele>18.0</ele><time>2026-04-17T17:25:37.212Z</time></trkpt><trkpt lat="43.3287083" lon="13.7102417"><ele>18.0</ele><time>2026-04-17T17:25:38.212Z</time></trkpt><trkpt lat="43.32884" lon="13.7101617"><ele>18.0</ele><time>2026-04-17T17:25:39.212Z</time></trkpt><trkpt lat="43.32898" lon="13.7100833"><ele>15.0</ele><time>2026-04-17T17:25:40.212Z</time></trkpt><trkpt lat="43.3291183" lon="13.71004"><ele>12.0</ele><time>2026-04-17T17:25:41.212Z</time></trkpt><trkpt lat="43.3292533" lon="13.7099983"><ele>9.0</ele><time>2026-04-17T17:25:42.212Z</time></trkpt><trkpt lat="43.3293833" lon="13.709955"><ele>6.0</ele><time>2026-04-17T17:25:43.212Z</time></trkpt><trkpt lat="43.3295083" lon="13.70991"><ele>6.0</ele><time>2026-04-17T17:25:44.212Z</time></trkpt><trkpt lat="43.3296167" lon="13.7098917"><ele>6.0</ele><time>2026-04-17T17:25:45.212Z</time></trkpt><trkpt lat="43.3297417" lon="13.7098417"><ele>6.0</ele><time>2026-04-17T17:25:46.212Z</time></trkpt><trkpt lat="43.3298517" lon="13.7097767"><ele>6.0</ele><time>2026-04-17T17:25:47.212Z</time></trkpt><trkpt lat="43.32996" lon="13.7097133"><ele>6.25</ele><time>2026-04-17T17:25:48.212Z</time></trkpt><trkpt lat="43.330065" lon="13.7096467"><ele>6.5</ele><time>2026-04-17T17:25:49.212Z</time></trkpt><trkpt lat="43.3301833" lon="13.709565"><ele>6.75</ele><time>2026-04-17T17:25:50.212Z</time></trkpt><trkpt lat="43.3303033" lon="13.709485"><ele>7.0</ele><time>2026-04-17T17:25:51.212Z</time></trkpt><trkpt lat="43.33042" lon="13.7094017"><ele>7.0</ele><time>2026-04-17T17:25:52.212Z</time></trkpt><trkpt lat="43.33054" lon="13.7092883"><ele>7.0</ele><time>2026-04-17T17:25:53.212Z</time></trkpt><trkpt lat="43.3306567" lon="13.7091717"><ele>7.0</ele><time>2026-04-17T17:25:54.212Z</time></trkpt><trkpt lat="43.33078" lon="13.70908"><ele>7.0</ele><time>2026-04-17T17:25:55.212Z</time></trkpt><trkpt lat="43.3308933" lon="13.708975"><ele>7.25</ele><time>2026-04-17T17:25:56.212Z</time></trkpt><trkpt lat="43.331015" lon="13.7088483"><ele>7.5</ele><time>2026-04-17T17:25:57.211Z</time></trkpt><trkpt lat="43.3311167" lon="13.7087183"><ele>7.75</ele><time>2026-04-17T17:25:58.212Z</time></trkpt><trkpt lat="43.33122" lon="13.7085933"><ele>8.0</ele><time>2026-04-17T17:25:59.212Z</time></trkpt><trkpt lat="43.331325" lon="13.708455"><ele>9.333333333333332</ele><time>2026-04-17T17:26:00.212Z</time></trkpt><trkpt lat="43.33143" lon="13.7083017"><ele>10.666666666666666</ele><time>2026-04-17T17:26:01.212Z</time></trkpt><trkpt lat="43.3315417" lon="13.7081383"><ele>12.0</ele><time>2026-04-17T17:26:02.212Z</time></trkpt><trkpt lat="43.3316633" lon="13.7079733"><ele>12.0</ele><time>2026-04-17T17:26:03.212Z</time></trkpt><trkpt lat="43.3317833" lon="13.707825"><ele>12.0</ele><time>2026-04-17T17:26:04.212Z</time></trkpt><trkpt lat="43.33189" lon="13.7076967"><ele>12.0</ele><time>2026-04-17T17:26:05.212Z</time></trkpt><trkpt lat="43.3319633" lon="13.70759"><ele>12.0</ele><time>2026-04-17T17:26:06.212Z</time></trkpt><trkpt lat="43.3320217" lon="13.7074833"><ele>12.8</ele><time>2026-04-17T17:26:07.212Z</time></trkpt><trkpt lat="43.3320817" lon="13.7073717"><ele>13.6</ele><time>2026-04-17T17:26:08.212Z</time></trkpt><trkpt lat="43.3321367" lon="13.7072667"><ele>14.400000000000002</ele><time>2026-04-17T17:26:09.212Z</time></trkpt><trkpt lat="43.3321633" lon="13.70716"><ele>15.200000000000001</ele><time>2026-04-17T17:26:10.212Z</time></trkpt><trkpt lat="43.3321933" lon="13.70707"><ele>16.0</ele><time>2026-04-17T17:26:11.212Z</time></trkpt><trkpt lat="43.3322567" lon="13.70695"><ele>16.0</ele><time>2026-04-17T17:26:13.212Z</time></trkpt><trkpt lat="43.3323633" lon="13.7069817"><ele>16.0</ele><time>2026-04-17T17:26:16.212Z</time></trkpt><trkpt lat="43.3324033" lon="13.707055"><ele>16.0</ele><time>2026-04-17T17:26:17.212Z</time></trkpt><trkpt lat="43.3324667" lon="13.70717"><ele>16.0</ele><time>2026-04-17T17:26:18.212Z</time></trkpt><trkpt lat="43.332515" lon="13.7073183"><ele>16.0</ele><time>2026-04-17T17:26:19.212Z</time></trkpt><trkpt lat="43.3325583" lon="13.7074717"><ele>15.999999999999998</ele><time>2026-04-17T17:26:20.212Z</time></trkpt><trkpt lat="43.3325917" lon="13.7076"><ele>16.0</ele><time>2026-04-17T17:26:21.212Z</time></trkpt><trkpt lat="43.3326083" lon="13.7077083"><ele>16.0</ele><time>2026-04-17T17:26:22.212Z</time></trkpt><trkpt lat="43.3326333" lon="13.7077883"><ele>16.0</ele><time>2026-04-17T17:26:23.212Z</time></trkpt><trkpt lat="43.3326933" lon="13.7078733"><ele>15.999999999999998</ele><time>2026-04-17T17:26:25.212Z</time></trkpt><trkpt lat="43.3327917" lon="13.7078183"><ele>16.0</ele><time>2026-04-17T17:26:27.212Z</time></trkpt><trkpt lat="43.33288" lon="13.7077483"><ele>16.0</ele><time>2026-04-17T17:26:28.212Z</time></trkpt><trkpt lat="43.3330017" lon="13.707655"><ele>16.0</ele><time>2026-04-17T17:26:29.212Z</time></trkpt><trkpt lat="43.3331333" lon="13.7075567"><ele>16.0</ele><time>2026-04-17T17:26:30.212Z</time></trkpt><trkpt lat="43.33327" lon="13.7074667"><ele>16.0</ele><time>2026-04-17T17:26:31.212Z</time></trkpt><trkpt lat="43.333395" lon="13.7073967"><ele>15.4</ele><time>2026-04-17T17:26:32.212Z</time></trkpt><trkpt lat="43.3335083" lon="13.7073433"><ele>14.8</ele><time>2026-04-17T17:26:33.212Z</time></trkpt><trkpt lat="43.33361" lon="13.7072817"><ele>14.200000000000001</ele><time>2026-04-17T17:26:34.212Z</time></trkpt><trkpt lat="43.3337033" lon="13.7072333"><ele>13.600000000000001</ele><time>2026-04-17T17:26:35.212Z</time></trkpt><trkpt lat="43.3337983" lon="13.70717"><ele>13.0</ele><time>2026-04-17T17:26:36.212Z</time></trkpt><trkpt lat="43.3338783" lon="13.707125"><ele>12.833333333333332</ele><time>2026-04-17T17:26:37.212Z</time></trkpt><trkpt lat="43.3339367" lon="13.7070883"><ele>12.666666666666666</ele><time>2026-04-17T17:26:38.212Z</time></trkpt><trkpt lat="43.334015" lon="13.7070533"><ele>12.5</ele><time>2026-04-17T17:26:40.212Z</time></trkpt><trkpt lat="43.33406" lon="13.7069917"><ele>12.333333333333332</ele><time>2026-04-17T17:26:43.212Z</time></trkpt><trkpt lat="43.3340417" lon="13.70684"><ele>12.166666666666666</ele><time>2026-04-17T17:28:15.212Z</time></trkpt><trkpt lat="43.3340233" lon="13.7067317"><ele>12.0</ele><time>2026-04-17T17:28:17.212Z</time></trkpt><trkpt lat="43.3339533" lon="13.7067267"><ele>12.0</ele><time>2026-04-17T17:29:42.927Z</time></trkpt><trkpt lat="43.3338867" lon="13.7067433"><ele>12.0</ele><time>2026-04-17T17:29:47.927Z</time></trkpt><trkpt lat="43.3339533" lon="13.7068367"><ele>12.0</ele><time>2026-04-17T17:30:18.925Z</time></trkpt><trkpt lat="43.33389" lon="13.706775"><ele>12.0</ele><time>2026-04-17T17:30:55.926Z</time></trkpt><trkpt lat="43.33397" lon="13.706725"><ele>12.0</ele><time>2026-04-17T17:31:26.926Z</time></trkpt><trkpt lat="43.334045" lon="13.70671"><ele>12.0</ele><time>2026-04-17T17:31:29.925Z</time></trkpt><trkpt lat="43.334105" lon="13.7066733"><ele>12.0</ele><time>2026-04-17T17:31:32.925Z</time></trkpt><trkpt lat="43.3341567" lon="13.7065983"><ele>12.0</ele><time>2026-04-17T17:31:35.925Z</time></trkpt><trkpt lat="43.3342067" lon="13.7065417"><ele>12.0</ele><time>2026-04-17T17:31:39.926Z</time></trkpt><trkpt lat="43.3340683" lon="13.7064367"><ele>12.0</ele><time>2026-04-17T17:31:42.925Z</time></trkpt><trkpt lat="43.3339617" lon="13.70648"><ele>12.0</ele><time>2026-04-17T17:31:44.926Z</time></trkpt><trkpt lat="43.3339517" lon="13.706665"><ele>12.0</ele><time>2026-04-17T17:31:46.925Z</time></trkpt><trkpt lat="43.333955" lon="13.7067567"><ele>12.0</ele><time>2026-04-17T17:31:48.926Z</time></trkpt><trkpt lat="43.3339783" lon="13.7066717"><ele>12.0</ele><time>2026-04-17T17:33:29.926Z</time></trkpt><trkpt lat="43.3339217" lon="13.7067833"><ele>12.0</ele><time>2026-04-17T17:35:11.924Z</time></trkpt><trkpt lat="43.3339767" lon="13.706665"><ele>12.0</ele><time>2026-04-17T17:35:45.925Z</time></trkpt><trkpt lat="43.334" lon="13.7068467"><ele>12.0</ele><time>2026-04-17T17:36:12.925Z</time></trkpt><trkpt lat="43.333915" lon="13.7067917"><ele>12.0</ele><time>2026-04-17T17:36:23.925Z</time></trkpt><trkpt lat="43.33399" lon="13.7066867"><ele>12.0</ele><time>2026-04-17T17:38:33.924Z</time></trkpt><trkpt lat="43.3339694" lon="13.7068056"><ele>12.0</ele><time>2026-04-17T17:39:57.975Z</time></trkpt><trkpt lat="43.3339646" lon="13.7068924"><ele>12.0</ele><time>2026-04-17T17:40:04.016Z</time></trkpt><trkpt lat="43.3338945" lon="13.7069229"><ele>12.0</ele><time>2026-04-17T17:40:13.043Z</time></trkpt><trkpt lat="43.3339003" lon="13.7068291"><ele>12.0</ele><time>2026-04-17T17:40:43.975Z</time></trkpt><trkpt lat="43.333945" lon="13.706725"><ele>12.0</ele><time>2026-04-17T17:41:17.923Z</time></trkpt></trkseg></trk></gpx>